<?xml version="1.0" encoding="UTF-8" standalone="no" ?>
<gpx xmlns="http://www.topografix.com/GPX/1/1" xmlns:xsi="http://www.w3.org/2001/XMLSchema-instance" xsi:schemaLocation="http://www.topografix.com/GPX/1/1 http://www.topografix.com/GPX/1/1/gpx.xsd" version="1.1" creator="VisuGPX - https://www.visugpx.com">
  <metadata>
    <name>Ronde monistrolienne</name>
    <desc><![CDATA[Ronde monistrolienne]]></desc>
  </metadata>
  <trk>
    <name><![CDATA[La ronde monistrolienne ]]></name>
    <trkseg>
      <trkpt lat="45.28258" lon="4.17729">
        <ele>671.76</ele>
        <time>2015-10-03T07:34:26.302Z</time>
      </trkpt>
      <trkpt lat="45.28258" lon="4.17729">
        <ele>671.95833333333</ele>
        <time>2015-10-03T07:34:30.295Z</time>
      </trkpt>
      <trkpt lat="45.28258" lon="4.17729">
        <ele>671.64</ele>
        <time>2015-10-03T07:34:33.288Z</time>
      </trkpt>
      <trkpt lat="45.28258" lon="4.17729">
        <ele>671.73913043478</ele>
        <time>2015-10-03T07:34:35.338Z</time>
      </trkpt>
      <trkpt lat="45.28258" lon="4.1773">
        <ele>671.64</ele>
        <time>2015-10-03T07:34:39.308Z</time>
      </trkpt>
      <trkpt lat="45.28258" lon="4.17729">
        <ele>671.5</ele>
        <time>2015-10-03T07:34:43.261Z</time>
      </trkpt>
      <trkpt lat="45.28259" lon="4.1773">
        <ele>671.5</ele>
        <time>2015-10-03T07:34:44.272Z</time>
      </trkpt>
      <trkpt lat="45.28259" lon="4.17731">
        <ele>671.5</ele>
        <time>2015-10-03T07:34:45.273Z</time>
      </trkpt>
      <trkpt lat="45.2826" lon="4.17734">
        <ele>671.5</ele>
        <time>2015-10-03T07:34:47.273Z</time>
      </trkpt>
      <trkpt lat="45.2826" lon="4.17736">
        <ele>671.48</ele>
        <time>2015-10-03T07:34:49.266Z</time>
      </trkpt>
      <trkpt lat="45.2826" lon="4.17736">
        <ele>671.48</ele>
        <time>2015-10-03T07:34:50.270Z</time>
      </trkpt>
      <trkpt lat="45.2826" lon="4.17736">
        <ele>671.52</ele>
        <time>2015-10-03T07:34:54.266Z</time>
      </trkpt>
      <trkpt lat="45.2826" lon="4.17737">
        <ele>671.52</ele>
        <time>2015-10-03T07:34:55.273Z</time>
      </trkpt>
      <trkpt lat="45.2826" lon="4.17737">
        <ele>671.44</ele>
        <time>2015-10-03T07:34:56.266Z</time>
      </trkpt>
      <trkpt lat="45.28259" lon="4.17739">
        <ele>671.44</ele>
        <time>2015-10-03T07:34:58.271Z</time>
      </trkpt>
      <trkpt lat="45.28259" lon="4.17739">
        <ele>671.76</ele>
        <time>2015-10-03T07:34:59.269Z</time>
      </trkpt>
      <trkpt lat="45.28258" lon="4.1774">
        <ele>671.80769230769</ele>
        <time>2015-10-03T07:35:02.271Z</time>
      </trkpt>
      <trkpt lat="45.28257" lon="4.17739">
        <ele>671.84615384615</ele>
        <time>2015-10-03T07:35:04.271Z</time>
      </trkpt>
      <trkpt lat="45.28256" lon="4.17739">
        <ele>672</ele>
        <time>2015-10-03T07:35:08.268Z</time>
      </trkpt>
      <trkpt lat="45.28255" lon="4.17739">
        <ele>672.04</ele>
        <time>2015-10-03T07:35:10.274Z</time>
      </trkpt>
      <trkpt lat="45.28255" lon="4.1774">
        <ele>672.04</ele>
        <time>2015-10-03T07:35:11.281Z</time>
      </trkpt>
      <trkpt lat="45.28254" lon="4.17741">
        <ele>672</ele>
        <time>2015-10-03T07:35:12.278Z</time>
      </trkpt>
      <trkpt lat="45.28254" lon="4.17743">
        <ele>672</ele>
        <time>2015-10-03T07:35:13.302Z</time>
      </trkpt>
      <trkpt lat="45.28254" lon="4.17746">
        <ele>672.04</ele>
        <time>2015-10-03T07:35:14.282Z</time>
      </trkpt>
      <trkpt lat="45.28254" lon="4.17749">
        <ele>672.03846153846</ele>
        <time>2015-10-03T07:35:16.268Z</time>
      </trkpt>
      <trkpt lat="45.28254" lon="4.1775">
        <ele>672.03846153846</ele>
        <time>2015-10-03T07:35:17.262Z</time>
      </trkpt>
      <trkpt lat="45.28254" lon="4.1775">
        <ele>672.07692307692</ele>
        <time>2015-10-03T07:35:18.265Z</time>
      </trkpt>
      <trkpt lat="45.28254" lon="4.17751">
        <ele>672.08</ele>
        <time>2015-10-03T07:35:19.281Z</time>
      </trkpt>
      <trkpt lat="45.28254" lon="4.17754">
        <ele>672.11538461538</ele>
        <time>2015-10-03T07:35:22.267Z</time>
      </trkpt>
      <trkpt lat="45.28254" lon="4.17757">
        <ele>672.12</ele>
        <time>2015-10-03T07:35:24.270Z</time>
      </trkpt>
      <trkpt lat="45.28254" lon="4.17758">
        <ele>672.11538461538</ele>
        <time>2015-10-03T07:35:26.269Z</time>
      </trkpt>
      <trkpt lat="45.28254" lon="4.1776">
        <ele>672.11538461538</ele>
        <time>2015-10-03T07:35:28.259Z</time>
      </trkpt>
      <trkpt lat="45.28254" lon="4.1776">
        <ele>672.11538461538</ele>
        <time>2015-10-03T07:35:31.268Z</time>
      </trkpt>
      <trkpt lat="45.28253" lon="4.1776">
        <ele>672.11538461538</ele>
        <time>2015-10-03T07:35:34.269Z</time>
      </trkpt>
      <trkpt lat="45.28253" lon="4.1776">
        <ele>672.26923076923</ele>
        <time>2015-10-03T07:35:38.263Z</time>
      </trkpt>
      <trkpt lat="45.28253" lon="4.1776">
        <ele>672.2</ele>
        <time>2015-10-03T07:35:42.263Z</time>
      </trkpt>
      <trkpt lat="45.28253" lon="4.1776">
        <ele>672.19230769231</ele>
        <time>2015-10-03T07:35:45.269Z</time>
      </trkpt>
      <trkpt lat="45.28253" lon="4.1776">
        <ele>672.2</ele>
        <time>2015-10-03T07:35:48.274Z</time>
      </trkpt>
      <trkpt lat="45.28253" lon="4.1776">
        <ele>672.23076923077</ele>
        <time>2015-10-03T07:35:52.265Z</time>
      </trkpt>
      <trkpt lat="45.28253" lon="4.1776">
        <ele>672.26923076923</ele>
        <time>2015-10-03T07:35:55.267Z</time>
      </trkpt>
      <trkpt lat="45.28254" lon="4.1776">
        <ele>672.28</ele>
        <time>2015-10-03T07:35:58.273Z</time>
      </trkpt>
      <trkpt lat="45.28254" lon="4.1776">
        <ele>672.26923076923</ele>
        <time>2015-10-03T07:36:02.258Z</time>
      </trkpt>
      <trkpt lat="45.28254" lon="4.1776">
        <ele>672.24</ele>
        <time>2015-10-03T07:36:05.265Z</time>
      </trkpt>
      <trkpt lat="45.28254" lon="4.1776">
        <ele>672.2</ele>
        <time>2015-10-03T07:36:08.278Z</time>
      </trkpt>
      <trkpt lat="45.28254" lon="4.1776">
        <ele>672.24</ele>
        <time>2015-10-03T07:36:12.267Z</time>
      </trkpt>
      <trkpt lat="45.28254" lon="4.1776">
        <ele>672.28</ele>
        <time>2015-10-03T07:36:15.274Z</time>
      </trkpt>
      <trkpt lat="45.28254" lon="4.1776">
        <ele>672.28</ele>
        <time>2015-10-03T07:36:19.275Z</time>
      </trkpt>
      <trkpt lat="45.28254" lon="4.1776">
        <ele>672.32</ele>
        <time>2015-10-03T07:36:23.283Z</time>
      </trkpt>
      <trkpt lat="45.28254" lon="4.17761">
        <ele>672.32</ele>
        <time>2015-10-03T07:36:25.271Z</time>
      </trkpt>
      <trkpt lat="45.28254" lon="4.17762">
        <ele>672.36</ele>
        <time>2015-10-03T07:36:26.271Z</time>
      </trkpt>
      <trkpt lat="45.28254" lon="4.17765">
        <ele>672.32</ele>
        <time>2015-10-03T07:36:28.277Z</time>
      </trkpt>
      <trkpt lat="45.28254" lon="4.17767">
        <ele>672.36</ele>
        <time>2015-10-03T07:36:29.288Z</time>
      </trkpt>
      <trkpt lat="45.28254" lon="4.1777">
        <ele>672.4</ele>
        <time>2015-10-03T07:36:30.281Z</time>
      </trkpt>
      <trkpt lat="45.28254" lon="4.17775">
        <ele>672.44</ele>
        <time>2015-10-03T07:36:32.291Z</time>
      </trkpt>
      <trkpt lat="45.28254" lon="4.17778">
        <ele>672.4</ele>
        <time>2015-10-03T07:36:33.286Z</time>
      </trkpt>
      <trkpt lat="45.28254" lon="4.1778">
        <ele>672.4</ele>
        <time>2015-10-03T07:36:34.277Z</time>
      </trkpt>
      <trkpt lat="45.28254" lon="4.17781">
        <ele>672.38461538462</ele>
        <time>2015-10-03T07:36:35.273Z</time>
      </trkpt>
      <trkpt lat="45.28254" lon="4.17782">
        <ele>672.34615384615</ele>
        <time>2015-10-03T07:36:36.269Z</time>
      </trkpt>
      <trkpt lat="45.28255" lon="4.17784">
        <ele>672.32</ele>
        <time>2015-10-03T07:36:37.276Z</time>
      </trkpt>
      <trkpt lat="45.28256" lon="4.17787">
        <ele>672.32</ele>
        <time>2015-10-03T07:36:38.268Z</time>
      </trkpt>
      <trkpt lat="45.28258" lon="4.17789">
        <ele>672.30769230769</ele>
        <time>2015-10-03T07:36:39.268Z</time>
      </trkpt>
      <trkpt lat="45.28259" lon="4.17791">
        <ele>672.23076923077</ele>
        <time>2015-10-03T07:36:40.266Z</time>
      </trkpt>
      <trkpt lat="45.28261" lon="4.17793">
        <ele>672.2</ele>
        <time>2015-10-03T07:36:41.267Z</time>
      </trkpt>
      <trkpt lat="45.28262" lon="4.17795">
        <ele>672.2</ele>
        <time>2015-10-03T07:36:42.296Z</time>
      </trkpt>
      <trkpt lat="45.28267" lon="4.17803">
        <ele>672.16</ele>
        <time>2015-10-03T07:36:46.278Z</time>
      </trkpt>
      <trkpt lat="45.2827" lon="4.17809">
        <ele>672.12</ele>
        <time>2015-10-03T07:36:49.278Z</time>
      </trkpt>
      <trkpt lat="45.28273" lon="4.17812">
        <ele>672.07692307692</ele>
        <time>2015-10-03T07:36:51.269Z</time>
      </trkpt>
      <trkpt lat="45.28276" lon="4.17814">
        <ele>672.03846153846</ele>
        <time>2015-10-03T07:36:52.271Z</time>
      </trkpt>
      <trkpt lat="45.28279" lon="4.17816">
        <ele>672.04</ele>
        <time>2015-10-03T07:36:53.290Z</time>
      </trkpt>
      <trkpt lat="45.28281" lon="4.17818">
        <ele>672</ele>
        <time>2015-10-03T07:36:54.291Z</time>
      </trkpt>
      <trkpt lat="45.28284" lon="4.17819">
        <ele>671.96153846154</ele>
        <time>2015-10-03T07:36:55.276Z</time>
      </trkpt>
      <trkpt lat="45.28286" lon="4.17821">
        <ele>671.88461538462</ele>
        <time>2015-10-03T07:36:56.276Z</time>
      </trkpt>
      <trkpt lat="45.28288" lon="4.17821">
        <ele>671.84615384615</ele>
        <time>2015-10-03T07:36:57.276Z</time>
      </trkpt>
      <trkpt lat="45.2829" lon="4.17822">
        <ele>671.84615384615</ele>
        <time>2015-10-03T07:36:58.263Z</time>
      </trkpt>
      <trkpt lat="45.28293" lon="4.17821">
        <ele>671.84615384615</ele>
        <time>2015-10-03T07:36:59.275Z</time>
      </trkpt>
      <trkpt lat="45.28295" lon="4.17819">
        <ele>671.80769230769</ele>
        <time>2015-10-03T07:37:00.270Z</time>
      </trkpt>
      <trkpt lat="45.28298" lon="4.17816">
        <ele>671.88</ele>
        <time>2015-10-03T07:37:02.278Z</time>
      </trkpt>
      <trkpt lat="45.283" lon="4.17814">
        <ele>671.96</ele>
        <time>2015-10-03T07:37:03.273Z</time>
      </trkpt>
      <trkpt lat="45.28301" lon="4.17814">
        <ele>672.04</ele>
        <time>2015-10-03T07:37:04.274Z</time>
      </trkpt>
      <trkpt lat="45.28303" lon="4.17814">
        <ele>672.16</ele>
        <time>2015-10-03T07:37:06.288Z</time>
      </trkpt>
      <trkpt lat="45.28304" lon="4.17815">
        <ele>672.19230769231</ele>
        <time>2015-10-03T07:37:07.277Z</time>
      </trkpt>
      <trkpt lat="45.28305" lon="4.17817">
        <ele>672.23076923077</ele>
        <time>2015-10-03T07:37:08.287Z</time>
      </trkpt>
      <trkpt lat="45.28305" lon="4.17818">
        <ele>672.26923076923</ele>
        <time>2015-10-03T07:37:09.278Z</time>
      </trkpt>
      <trkpt lat="45.28306" lon="4.17819">
        <ele>672.32</ele>
        <time>2015-10-03T07:37:10.281Z</time>
      </trkpt>
      <trkpt lat="45.28307" lon="4.17821">
        <ele>672.36</ele>
        <time>2015-10-03T07:37:11.284Z</time>
      </trkpt>
      <trkpt lat="45.28307" lon="4.17823">
        <ele>672.4</ele>
        <time>2015-10-03T07:37:12.292Z</time>
      </trkpt>
      <trkpt lat="45.28308" lon="4.17825">
        <ele>672.48</ele>
        <time>2015-10-03T07:37:13.286Z</time>
      </trkpt>
      <trkpt lat="45.28309" lon="4.17828">
        <ele>672.52</ele>
        <time>2015-10-03T07:37:14.285Z</time>
      </trkpt>
      <trkpt lat="45.2831" lon="4.1783">
        <ele>672.56</ele>
        <time>2015-10-03T07:37:15.294Z</time>
      </trkpt>
      <trkpt lat="45.28312" lon="4.17836">
        <ele>672.68</ele>
        <time>2015-10-03T07:37:17.275Z</time>
      </trkpt>
      <trkpt lat="45.28313" lon="4.17839">
        <ele>672.69230769231</ele>
        <time>2015-10-03T07:37:18.276Z</time>
      </trkpt>
      <trkpt lat="45.28315" lon="4.17842">
        <ele>672.73076923077</ele>
        <time>2015-10-03T07:37:19.288Z</time>
      </trkpt>
      <trkpt lat="45.28316" lon="4.17848">
        <ele>672.88</ele>
        <time>2015-10-03T07:37:21.287Z</time>
      </trkpt>
      <trkpt lat="45.28317" lon="4.17851">
        <ele>672.88</ele>
        <time>2015-10-03T07:37:22.297Z</time>
      </trkpt>
      <trkpt lat="45.28319" lon="4.17854">
        <ele>672.92</ele>
        <time>2015-10-03T07:37:23.286Z</time>
      </trkpt>
      <trkpt lat="45.2832" lon="4.17856">
        <ele>673</ele>
        <time>2015-10-03T07:37:24.287Z</time>
      </trkpt>
      <trkpt lat="45.28322" lon="4.17857">
        <ele>673.04</ele>
        <time>2015-10-03T07:37:25.287Z</time>
      </trkpt>
      <trkpt lat="45.28327" lon="4.17857">
        <ele>673</ele>
        <time>2015-10-03T07:37:27.284Z</time>
      </trkpt>
      <trkpt lat="45.28337" lon="4.17853">
        <ele>672.8</ele>
        <time>2015-10-03T07:37:30.285Z</time>
      </trkpt>
      <trkpt lat="45.28343" lon="4.1785">
        <ele>672.84615384615</ele>
        <time>2015-10-03T07:37:32.268Z</time>
      </trkpt>
      <trkpt lat="45.28346" lon="4.1785">
        <ele>672.76923076923</ele>
        <time>2015-10-03T07:37:33.278Z</time>
      </trkpt>
      <trkpt lat="45.28357" lon="4.17847">
        <ele>672.52</ele>
        <time>2015-10-03T07:37:36.279Z</time>
      </trkpt>
      <trkpt lat="45.28362" lon="4.17845">
        <ele>672.44</ele>
        <time>2015-10-03T07:37:37.269Z</time>
      </trkpt>
      <trkpt lat="45.2837" lon="4.17848">
        <ele>672.32</ele>
        <time>2015-10-03T07:37:38.266Z</time>
      </trkpt>
      <trkpt lat="45.28381" lon="4.17847">
        <ele>672.125</ele>
        <time>2015-10-03T07:37:40.262Z</time>
      </trkpt>
      <trkpt lat="45.28387" lon="4.17846">
        <ele>672</ele>
        <time>2015-10-03T07:37:41.265Z</time>
      </trkpt>
      <trkpt lat="45.28392" lon="4.17844">
        <ele>671.875</ele>
        <time>2015-10-03T07:37:42.271Z</time>
      </trkpt>
      <trkpt lat="45.28403" lon="4.1784">
        <ele>671.45833333333</ele>
        <time>2015-10-03T07:37:44.267Z</time>
      </trkpt>
      <trkpt lat="45.28408" lon="4.17839">
        <ele>671.25</ele>
        <time>2015-10-03T07:37:45.263Z</time>
      </trkpt>
      <trkpt lat="45.28417" lon="4.17837">
        <ele>670.875</ele>
        <time>2015-10-03T07:37:47.287Z</time>
      </trkpt>
      <trkpt lat="45.28428" lon="4.17834">
        <ele>670.5</ele>
        <time>2015-10-03T07:37:49.270Z</time>
      </trkpt>
      <trkpt lat="45.28432" lon="4.17833">
        <ele>670.25</ele>
        <time>2015-10-03T07:37:50.275Z</time>
      </trkpt>
      <trkpt lat="45.28437" lon="4.17831">
        <ele>670.04166666667</ele>
        <time>2015-10-03T07:37:51.279Z</time>
      </trkpt>
      <trkpt lat="45.28453" lon="4.17827">
        <ele>669.29166666667</ele>
        <time>2015-10-03T07:37:54.275Z</time>
      </trkpt>
      <trkpt lat="45.2847" lon="4.17822">
        <ele>668.08695652174</ele>
        <time>2015-10-03T07:37:57.282Z</time>
      </trkpt>
      <trkpt lat="45.28483" lon="4.17817">
        <ele>667.58333333333</ele>
        <time>2015-10-03T07:37:59.284Z</time>
      </trkpt>
      <trkpt lat="45.2849" lon="4.17813">
        <ele>667.4</ele>
        <time>2015-10-03T07:38:00.281Z</time>
      </trkpt>
      <trkpt lat="45.28497" lon="4.1781">
        <ele>666.95833333333</ele>
        <time>2015-10-03T07:38:01.281Z</time>
      </trkpt>
      <trkpt lat="45.2851" lon="4.17802">
        <ele>666.20833333333</ele>
        <time>2015-10-03T07:38:03.274Z</time>
      </trkpt>
      <trkpt lat="45.28523" lon="4.17795">
        <ele>665.56</ele>
        <time>2015-10-03T07:38:05.272Z</time>
      </trkpt>
      <trkpt lat="45.28528" lon="4.17792">
        <ele>665.08</ele>
        <time>2015-10-03T07:38:06.273Z</time>
      </trkpt>
      <trkpt lat="45.28534" lon="4.17787">
        <ele>664.64</ele>
        <time>2015-10-03T07:38:07.282Z</time>
      </trkpt>
      <trkpt lat="45.28551" lon="4.17776">
        <ele>663.28</ele>
        <time>2015-10-03T07:38:10.271Z</time>
      </trkpt>
      <trkpt lat="45.28557" lon="4.17774">
        <ele>662.76</ele>
        <time>2015-10-03T07:38:11.277Z</time>
      </trkpt>
      <trkpt lat="45.28565" lon="4.17772">
        <ele>662.5</ele>
        <time>2015-10-03T07:38:12.282Z</time>
      </trkpt>
      <trkpt lat="45.28576" lon="4.17769">
        <ele>661.2</ele>
        <time>2015-10-03T07:38:14.274Z</time>
      </trkpt>
      <trkpt lat="45.28592" lon="4.17767">
        <ele>659.69230769231</ele>
        <time>2015-10-03T07:38:17.275Z</time>
      </trkpt>
      <trkpt lat="45.28596" lon="4.17767">
        <ele>659.11538461538</ele>
        <time>2015-10-03T07:38:18.284Z</time>
      </trkpt>
      <trkpt lat="45.28603" lon="4.17767">
        <ele>658.24</ele>
        <time>2015-10-03T07:38:19.287Z</time>
      </trkpt>
      <trkpt lat="45.28609" lon="4.17767">
        <ele>657.6</ele>
        <time>2015-10-03T07:38:20.288Z</time>
      </trkpt>
      <trkpt lat="45.28617" lon="4.17767">
        <ele>657.26923076923</ele>
        <time>2015-10-03T07:38:21.290Z</time>
      </trkpt>
      <trkpt lat="45.28625" lon="4.17767">
        <ele>656.61538461538</ele>
        <time>2015-10-03T07:38:22.282Z</time>
      </trkpt>
      <trkpt lat="45.28634" lon="4.17767">
        <ele>655.96153846154</ele>
        <time>2015-10-03T07:38:23.277Z</time>
      </trkpt>
      <trkpt lat="45.28644" lon="4.17766">
        <ele>655.34615384615</ele>
        <time>2015-10-03T07:38:24.282Z</time>
      </trkpt>
      <trkpt lat="45.28654" lon="4.17765">
        <ele>654.28</ele>
        <time>2015-10-03T07:38:25.284Z</time>
      </trkpt>
      <trkpt lat="45.28664" lon="4.17764">
        <ele>653.44</ele>
        <time>2015-10-03T07:38:26.283Z</time>
      </trkpt>
      <trkpt lat="45.28683" lon="4.17762">
        <ele>651.84</ele>
        <time>2015-10-03T07:38:28.279Z</time>
      </trkpt>
      <trkpt lat="45.28691" lon="4.17762">
        <ele>651</ele>
        <time>2015-10-03T07:38:29.284Z</time>
      </trkpt>
      <trkpt lat="45.28698" lon="4.1776">
        <ele>650.2</ele>
        <time>2015-10-03T07:38:30.285Z</time>
      </trkpt>
      <trkpt lat="45.28705" lon="4.17759">
        <ele>649.4</ele>
        <time>2015-10-03T07:38:31.279Z</time>
      </trkpt>
      <trkpt lat="45.28709" lon="4.17758">
        <ele>648.56</ele>
        <time>2015-10-03T07:38:32.284Z</time>
      </trkpt>
      <trkpt lat="45.28713" lon="4.17755">
        <ele>647.72</ele>
        <time>2015-10-03T07:38:33.295Z</time>
      </trkpt>
      <trkpt lat="45.28714" lon="4.17759">
        <ele>646.92</ele>
        <time>2015-10-03T07:38:34.290Z</time>
      </trkpt>
      <trkpt lat="45.28717" lon="4.17761">
        <ele>646.04</ele>
        <time>2015-10-03T07:38:35.286Z</time>
      </trkpt>
      <trkpt lat="45.2872" lon="4.17764">
        <ele>645.28</ele>
        <time>2015-10-03T07:38:36.287Z</time>
      </trkpt>
      <trkpt lat="45.28723" lon="4.17764">
        <ele>644.48</ele>
        <time>2015-10-03T07:38:37.290Z</time>
      </trkpt>
      <trkpt lat="45.28728" lon="4.17763">
        <ele>644.15384615385</ele>
        <time>2015-10-03T07:38:38.277Z</time>
      </trkpt>
      <trkpt lat="45.28732" lon="4.1776">
        <ele>643.04</ele>
        <time>2015-10-03T07:38:39.286Z</time>
      </trkpt>
      <trkpt lat="45.28737" lon="4.17757">
        <ele>642.36</ele>
        <time>2015-10-03T07:38:40.306Z</time>
      </trkpt>
      <trkpt lat="45.28742" lon="4.17755">
        <ele>641.68</ele>
        <time>2015-10-03T07:38:41.304Z</time>
      </trkpt>
      <trkpt lat="45.28753" lon="4.1775">
        <ele>640.80769230769</ele>
        <time>2015-10-03T07:38:43.278Z</time>
      </trkpt>
      <trkpt lat="45.28766" lon="4.17745">
        <ele>639.16</ele>
        <time>2015-10-03T07:38:45.295Z</time>
      </trkpt>
      <trkpt lat="45.28779" lon="4.17741">
        <ele>638.34615384615</ele>
        <time>2015-10-03T07:38:47.278Z</time>
      </trkpt>
      <trkpt lat="45.28801" lon="4.17733">
        <ele>636.65384615385</ele>
        <time>2015-10-03T07:38:50.284Z</time>
      </trkpt>
      <trkpt lat="45.28816" lon="4.17729">
        <ele>635.48</ele>
        <time>2015-10-03T07:38:52.283Z</time>
      </trkpt>
      <trkpt lat="45.28833" lon="4.17725">
        <ele>634.92307692308</ele>
        <time>2015-10-03T07:38:54.282Z</time>
      </trkpt>
      <trkpt lat="45.28842" lon="4.17722">
        <ele>634.4</ele>
        <time>2015-10-03T07:38:55.286Z</time>
      </trkpt>
      <trkpt lat="45.28861" lon="4.17719">
        <ele>633.88461538462</ele>
        <time>2015-10-03T07:38:57.277Z</time>
      </trkpt>
      <trkpt lat="45.28871" lon="4.17717">
        <ele>633.53846153846</ele>
        <time>2015-10-03T07:38:58.276Z</time>
      </trkpt>
      <trkpt lat="45.28891" lon="4.17714">
        <ele>632.80769230769</ele>
        <time>2015-10-03T07:39:00.277Z</time>
      </trkpt>
      <trkpt lat="45.28911" lon="4.17713">
        <ele>632.03846153846</ele>
        <time>2015-10-03T07:39:02.276Z</time>
      </trkpt>
      <trkpt lat="45.28919" lon="4.17714">
        <ele>631.44</ele>
        <time>2015-10-03T07:39:03.287Z</time>
      </trkpt>
      <trkpt lat="45.28955" lon="4.17715">
        <ele>629.52</ele>
        <time>2015-10-03T07:39:07.286Z</time>
      </trkpt>
      <trkpt lat="45.28965" lon="4.17714">
        <ele>629</ele>
        <time>2015-10-03T07:39:08.290Z</time>
      </trkpt>
      <trkpt lat="45.28973" lon="4.17714">
        <ele>628.52</ele>
        <time>2015-10-03T07:39:09.289Z</time>
      </trkpt>
      <trkpt lat="45.2899" lon="4.17713">
        <ele>627.65384615385</ele>
        <time>2015-10-03T07:39:11.268Z</time>
      </trkpt>
      <trkpt lat="45.28997" lon="4.17711">
        <ele>627.11538461538</ele>
        <time>2015-10-03T07:39:12.267Z</time>
      </trkpt>
      <trkpt lat="45.29003" lon="4.17709">
        <ele>626.28</ele>
        <time>2015-10-03T07:39:13.271Z</time>
      </trkpt>
      <trkpt lat="45.29008" lon="4.17707">
        <ele>625.96153846154</ele>
        <time>2015-10-03T07:39:14.279Z</time>
      </trkpt>
      <trkpt lat="45.29011" lon="4.17707">
        <ele>625.16</ele>
        <time>2015-10-03T07:39:15.288Z</time>
      </trkpt>
      <trkpt lat="45.29012" lon="4.17711">
        <ele>624.6</ele>
        <time>2015-10-03T07:39:16.309Z</time>
      </trkpt>
      <trkpt lat="45.29013" lon="4.17727">
        <ele>624</ele>
        <time>2015-10-03T07:39:17.300Z</time>
      </trkpt>
      <trkpt lat="45.29016" lon="4.17735">
        <ele>623.44</ele>
        <time>2015-10-03T07:39:18.299Z</time>
      </trkpt>
      <trkpt lat="45.29017" lon="4.17746">
        <ele>622.92</ele>
        <time>2015-10-03T07:39:19.298Z</time>
      </trkpt>
      <trkpt lat="45.29019" lon="4.17758">
        <ele>622.61538461538</ele>
        <time>2015-10-03T07:39:20.278Z</time>
      </trkpt>
      <trkpt lat="45.29023" lon="4.17783">
        <ele>621.16</ele>
        <time>2015-10-03T07:39:22.284Z</time>
      </trkpt>
      <trkpt lat="45.29022" lon="4.17794">
        <ele>620.6</ele>
        <time>2015-10-03T07:39:23.285Z</time>
      </trkpt>
      <trkpt lat="45.29019" lon="4.17803">
        <ele>620.38461538462</ele>
        <time>2015-10-03T07:39:24.278Z</time>
      </trkpt>
      <trkpt lat="45.29012" lon="4.17806">
        <ele>619.84615384615</ele>
        <time>2015-10-03T07:39:25.276Z</time>
      </trkpt>
      <trkpt lat="45.29007" lon="4.17809">
        <ele>619.08</ele>
        <time>2015-10-03T07:39:26.282Z</time>
      </trkpt>
      <trkpt lat="45.29005" lon="4.1781">
        <ele>618.76</ele>
        <time>2015-10-03T07:39:27.289Z</time>
      </trkpt>
      <trkpt lat="45.29002" lon="4.17812">
        <ele>618.4</ele>
        <time>2015-10-03T07:39:28.297Z</time>
      </trkpt>
      <trkpt lat="45.29002" lon="4.17811">
        <ele>618.12</ele>
        <time>2015-10-03T07:39:29.285Z</time>
      </trkpt>
      <trkpt lat="45.28998" lon="4.17811">
        <ele>617.88</ele>
        <time>2015-10-03T07:39:30.285Z</time>
      </trkpt>
      <trkpt lat="45.28996" lon="4.17813">
        <ele>617.73076923077</ele>
        <time>2015-10-03T07:39:32.286Z</time>
      </trkpt>
      <trkpt lat="45.28994" lon="4.17814">
        <ele>617.57692307692</ele>
        <time>2015-10-03T07:39:33.279Z</time>
      </trkpt>
      <trkpt lat="45.28991" lon="4.17817">
        <ele>617.08333333333</ele>
        <time>2015-10-03T07:39:35.286Z</time>
      </trkpt>
      <trkpt lat="45.28991" lon="4.17817">
        <ele>616.95833333333</ele>
        <time>2015-10-03T07:39:36.294Z</time>
      </trkpt>
      <trkpt lat="45.2899" lon="4.17817">
        <ele>616.91666666667</ele>
        <time>2015-10-03T07:39:37.284Z</time>
      </trkpt>
      <trkpt lat="45.28989" lon="4.17819">
        <ele>616.91666666667</ele>
        <time>2015-10-03T07:39:38.283Z</time>
      </trkpt>
      <trkpt lat="45.28988" lon="4.1782">
        <ele>617</ele>
        <time>2015-10-03T07:39:39.291Z</time>
      </trkpt>
      <trkpt lat="45.28987" lon="4.17821">
        <ele>617.16</ele>
        <time>2015-10-03T07:39:40.285Z</time>
      </trkpt>
      <trkpt lat="45.28986" lon="4.17822">
        <ele>617.24</ele>
        <time>2015-10-03T07:39:41.279Z</time>
      </trkpt>
      <trkpt lat="45.28984" lon="4.17824">
        <ele>617.41666666667</ele>
        <time>2015-10-03T07:39:42.302Z</time>
      </trkpt>
      <trkpt lat="45.2898" lon="4.17831">
        <ele>618</ele>
        <time>2015-10-03T07:39:45.346Z</time>
      </trkpt>
      <trkpt lat="45.28979" lon="4.17833">
        <ele>618.29166666667</ele>
        <time>2015-10-03T07:39:46.324Z</time>
      </trkpt>
      <trkpt lat="45.28979" lon="4.17835">
        <ele>618.625</ele>
        <time>2015-10-03T07:39:47.294Z</time>
      </trkpt>
      <trkpt lat="45.28978" lon="4.17837">
        <ele>619</ele>
        <time>2015-10-03T07:39:48.296Z</time>
      </trkpt>
      <trkpt lat="45.28978" lon="4.1784">
        <ele>619.33333333333</ele>
        <time>2015-10-03T07:39:49.315Z</time>
      </trkpt>
      <trkpt lat="45.28978" lon="4.17842">
        <ele>619.66666666667</ele>
        <time>2015-10-03T07:39:50.311Z</time>
      </trkpt>
      <trkpt lat="45.28978" lon="4.17844">
        <ele>620.08333333333</ele>
        <time>2015-10-03T07:39:51.286Z</time>
      </trkpt>
      <trkpt lat="45.28978" lon="4.17848">
        <ele>620.28</ele>
        <time>2015-10-03T07:39:52.282Z</time>
      </trkpt>
      <trkpt lat="45.28978" lon="4.17851">
        <ele>620.79166666667</ele>
        <time>2015-10-03T07:39:53.306Z</time>
      </trkpt>
      <trkpt lat="45.2898" lon="4.1786">
        <ele>621.45833333333</ele>
        <time>2015-10-03T07:39:56.287Z</time>
      </trkpt>
      <trkpt lat="45.28981" lon="4.17865">
        <ele>621.91666666667</ele>
        <time>2015-10-03T07:39:58.306Z</time>
      </trkpt>
      <trkpt lat="45.28982" lon="4.17867">
        <ele>622.04</ele>
        <time>2015-10-03T07:39:59.286Z</time>
      </trkpt>
      <trkpt lat="45.28983" lon="4.1787">
        <ele>622.11538461538</ele>
        <time>2015-10-03T07:40:00.265Z</time>
      </trkpt>
      <trkpt lat="45.28984" lon="4.17874">
        <ele>622.38461538462</ele>
        <time>2015-10-03T07:40:01.280Z</time>
      </trkpt>
      <trkpt lat="45.28985" lon="4.17877">
        <ele>622.88</ele>
        <time>2015-10-03T07:40:02.297Z</time>
      </trkpt>
      <trkpt lat="45.28986" lon="4.1788">
        <ele>622.96153846154</ele>
        <time>2015-10-03T07:40:03.282Z</time>
      </trkpt>
      <trkpt lat="45.28987" lon="4.17882">
        <ele>623.15384615385</ele>
        <time>2015-10-03T07:40:04.285Z</time>
      </trkpt>
      <trkpt lat="45.28987" lon="4.17884">
        <ele>623.34615384615</ele>
        <time>2015-10-03T07:40:05.276Z</time>
      </trkpt>
      <trkpt lat="45.28988" lon="4.17887">
        <ele>623.53846153846</ele>
        <time>2015-10-03T07:40:06.271Z</time>
      </trkpt>
      <trkpt lat="45.2899" lon="4.17892">
        <ele>623.84615384615</ele>
        <time>2015-10-03T07:40:08.276Z</time>
      </trkpt>
      <trkpt lat="45.28991" lon="4.17895">
        <ele>624</ele>
        <time>2015-10-03T07:40:09.278Z</time>
      </trkpt>
      <trkpt lat="45.28992" lon="4.17901">
        <ele>624.64</ele>
        <time>2015-10-03T07:40:12.344Z</time>
      </trkpt>
      <trkpt lat="45.28992" lon="4.17904">
        <ele>624.76</ele>
        <time>2015-10-03T07:40:13.332Z</time>
      </trkpt>
      <trkpt lat="45.28993" lon="4.1791">
        <ele>625.07692307692</ele>
        <time>2015-10-03T07:40:15.285Z</time>
      </trkpt>
      <trkpt lat="45.28993" lon="4.17912">
        <ele>625.34615384615</ele>
        <time>2015-10-03T07:40:16.286Z</time>
      </trkpt>
      <trkpt lat="45.28994" lon="4.17914">
        <ele>625.56</ele>
        <time>2015-10-03T07:40:17.293Z</time>
      </trkpt>
      <trkpt lat="45.28994" lon="4.17917">
        <ele>625.69230769231</ele>
        <time>2015-10-03T07:40:18.284Z</time>
      </trkpt>
      <trkpt lat="45.28995" lon="4.1792">
        <ele>625.84615384615</ele>
        <time>2015-10-03T07:40:19.289Z</time>
      </trkpt>
      <trkpt lat="45.28996" lon="4.17923">
        <ele>626.12</ele>
        <time>2015-10-03T07:40:20.293Z</time>
      </trkpt>
      <trkpt lat="45.28996" lon="4.17926">
        <ele>626.32</ele>
        <time>2015-10-03T07:40:21.289Z</time>
      </trkpt>
      <trkpt lat="45.28997" lon="4.17929">
        <ele>626.42307692308</ele>
        <time>2015-10-03T07:40:22.277Z</time>
      </trkpt>
      <trkpt lat="45.28999" lon="4.17936">
        <ele>627.2</ele>
        <time>2015-10-03T07:40:25.281Z</time>
      </trkpt>
      <trkpt lat="45.28999" lon="4.17939">
        <ele>627.44</ele>
        <time>2015-10-03T07:40:26.292Z</time>
      </trkpt>
      <trkpt lat="45.29" lon="4.17941">
        <ele>627.64</ele>
        <time>2015-10-03T07:40:27.325Z</time>
      </trkpt>
      <trkpt lat="45.29" lon="4.17944">
        <ele>627.84</ele>
        <time>2015-10-03T07:40:28.346Z</time>
      </trkpt>
      <trkpt lat="45.29" lon="4.17948">
        <ele>628.08</ele>
        <time>2015-10-03T07:40:29.342Z</time>
      </trkpt>
      <trkpt lat="45.29" lon="4.1795">
        <ele>628.28</ele>
        <time>2015-10-03T07:40:30.328Z</time>
      </trkpt>
      <trkpt lat="45.29001" lon="4.17953">
        <ele>628.44</ele>
        <time>2015-10-03T07:40:31.307Z</time>
      </trkpt>
      <trkpt lat="45.29005" lon="4.17963">
        <ele>629.30769230769</ele>
        <time>2015-10-03T07:40:35.287Z</time>
      </trkpt>
      <trkpt lat="45.29006" lon="4.17965">
        <ele>629.5</ele>
        <time>2015-10-03T07:40:36.318Z</time>
      </trkpt>
      <trkpt lat="45.29007" lon="4.17965">
        <ele>629.76923076923</ele>
        <time>2015-10-03T07:40:37.327Z</time>
      </trkpt>
      <trkpt lat="45.29008" lon="4.17967">
        <ele>630</ele>
        <time>2015-10-03T07:40:38.304Z</time>
      </trkpt>
      <trkpt lat="45.2901" lon="4.17973">
        <ele>630.68</ele>
        <time>2015-10-03T07:40:41.290Z</time>
      </trkpt>
      <trkpt lat="45.29011" lon="4.17975">
        <ele>630.76923076923</ele>
        <time>2015-10-03T07:40:42.284Z</time>
      </trkpt>
      <trkpt lat="45.29011" lon="4.17978">
        <ele>630.92307692308</ele>
        <time>2015-10-03T07:40:43.272Z</time>
      </trkpt>
      <trkpt lat="45.29012" lon="4.17981">
        <ele>631.07692307692</ele>
        <time>2015-10-03T07:40:44.272Z</time>
      </trkpt>
      <trkpt lat="45.29014" lon="4.17987">
        <ele>631.6</ele>
        <time>2015-10-03T07:40:46.291Z</time>
      </trkpt>
      <trkpt lat="45.29016" lon="4.17988">
        <ele>631.72</ele>
        <time>2015-10-03T07:40:47.317Z</time>
      </trkpt>
      <trkpt lat="45.29022" lon="4.17993">
        <ele>632.08</ele>
        <time>2015-10-03T07:40:50.324Z</time>
      </trkpt>
      <trkpt lat="45.29023" lon="4.17996">
        <ele>632.2</ele>
        <time>2015-10-03T07:40:51.315Z</time>
      </trkpt>
      <trkpt lat="45.29023" lon="4.17998">
        <ele>632.36</ele>
        <time>2015-10-03T07:40:52.341Z</time>
      </trkpt>
      <trkpt lat="45.29024" lon="4.18001">
        <ele>632.42307692308</ele>
        <time>2015-10-03T07:40:53.326Z</time>
      </trkpt>
      <trkpt lat="45.29024" lon="4.18004">
        <ele>632.61538461538</ele>
        <time>2015-10-03T07:40:54.298Z</time>
      </trkpt>
      <trkpt lat="45.29025" lon="4.1801">
        <ele>632.96153846154</ele>
        <time>2015-10-03T07:40:56.303Z</time>
      </trkpt>
      <trkpt lat="45.29026" lon="4.18014">
        <ele>633.2</ele>
        <time>2015-10-03T07:40:57.308Z</time>
      </trkpt>
      <trkpt lat="45.29025" lon="4.18018">
        <ele>633.32</ele>
        <time>2015-10-03T07:40:58.326Z</time>
      </trkpt>
      <trkpt lat="45.29026" lon="4.18025">
        <ele>633.56</ele>
        <time>2015-10-03T07:41:00.331Z</time>
      </trkpt>
      <trkpt lat="45.29026" lon="4.18028">
        <ele>633.65384615385</ele>
        <time>2015-10-03T07:41:01.315Z</time>
      </trkpt>
      <trkpt lat="45.29027" lon="4.1803">
        <ele>633.80769230769</ele>
        <time>2015-10-03T07:41:02.292Z</time>
      </trkpt>
      <trkpt lat="45.29027" lon="4.18033">
        <ele>633.92307692308</ele>
        <time>2015-10-03T07:41:03.303Z</time>
      </trkpt>
      <trkpt lat="45.29027" lon="4.18034">
        <ele>634.03846153846</ele>
        <time>2015-10-03T07:41:04.285Z</time>
      </trkpt>
      <trkpt lat="45.29027" lon="4.18036">
        <ele>634.19230769231</ele>
        <time>2015-10-03T07:41:05.267Z</time>
      </trkpt>
      <trkpt lat="45.29029" lon="4.18046">
        <ele>634.65384615385</ele>
        <time>2015-10-03T07:41:08.271Z</time>
      </trkpt>
      <trkpt lat="45.2903" lon="4.18049">
        <ele>634.88</ele>
        <time>2015-10-03T07:41:09.278Z</time>
      </trkpt>
      <trkpt lat="45.29031" lon="4.18052">
        <ele>635.08</ele>
        <time>2015-10-03T07:41:10.295Z</time>
      </trkpt>
      <trkpt lat="45.29032" lon="4.18055">
        <ele>635.19230769231</ele>
        <time>2015-10-03T07:41:11.280Z</time>
      </trkpt>
      <trkpt lat="45.29033" lon="4.18059">
        <ele>635.30769230769</ele>
        <time>2015-10-03T07:41:12.284Z</time>
      </trkpt>
      <trkpt lat="45.29035" lon="4.18062">
        <ele>635.5</ele>
        <time>2015-10-03T07:41:13.273Z</time>
      </trkpt>
      <trkpt lat="45.29036" lon="4.18065">
        <ele>635.73076923077</ele>
        <time>2015-10-03T07:41:14.270Z</time>
      </trkpt>
      <trkpt lat="45.29036" lon="4.18067">
        <ele>635.92307692308</ele>
        <time>2015-10-03T07:41:15.297Z</time>
      </trkpt>
      <trkpt lat="45.29038" lon="4.18068">
        <ele>636.07692307692</ele>
        <time>2015-10-03T07:41:16.312Z</time>
      </trkpt>
      <trkpt lat="45.29037" lon="4.18067">
        <ele>636.23076923077</ele>
        <time>2015-10-03T07:41:17.331Z</time>
      </trkpt>
      <trkpt lat="45.29036" lon="4.18072">
        <ele>636.34615384615</ele>
        <time>2015-10-03T07:41:18.310Z</time>
      </trkpt>
      <trkpt lat="45.29037" lon="4.18084">
        <ele>636.61538461538</ele>
        <time>2015-10-03T07:41:21.276Z</time>
      </trkpt>
      <trkpt lat="45.29037" lon="4.18087">
        <ele>636.76923076923</ele>
        <time>2015-10-03T07:41:22.272Z</time>
      </trkpt>
      <trkpt lat="45.29038" lon="4.18092">
        <ele>637</ele>
        <time>2015-10-03T07:41:24.277Z</time>
      </trkpt>
      <trkpt lat="45.29039" lon="4.18094">
        <ele>637.19230769231</ele>
        <time>2015-10-03T07:41:25.271Z</time>
      </trkpt>
      <trkpt lat="45.2904" lon="4.181">
        <ele>637.65384615385</ele>
        <time>2015-10-03T07:41:28.266Z</time>
      </trkpt>
      <trkpt lat="45.2904" lon="4.18102">
        <ele>637.76923076923</ele>
        <time>2015-10-03T07:41:29.280Z</time>
      </trkpt>
      <trkpt lat="45.2904" lon="4.18107">
        <ele>638</ele>
        <time>2015-10-03T07:41:31.274Z</time>
      </trkpt>
      <trkpt lat="45.29041" lon="4.18111">
        <ele>638.2</ele>
        <time>2015-10-03T07:41:33.276Z</time>
      </trkpt>
      <trkpt lat="45.2904" lon="4.18116">
        <ele>638.32</ele>
        <time>2015-10-03T07:41:35.278Z</time>
      </trkpt>
      <trkpt lat="45.29039" lon="4.18118">
        <ele>638.4</ele>
        <time>2015-10-03T07:41:36.271Z</time>
      </trkpt>
      <trkpt lat="45.29039" lon="4.18121">
        <ele>638.66666666667</ele>
        <time>2015-10-03T07:41:38.281Z</time>
      </trkpt>
      <trkpt lat="45.29038" lon="4.18124">
        <ele>638.72</ele>
        <time>2015-10-03T07:41:40.275Z</time>
      </trkpt>
      <trkpt lat="45.29038" lon="4.18125">
        <ele>638.8</ele>
        <time>2015-10-03T07:41:41.283Z</time>
      </trkpt>
      <trkpt lat="45.29037" lon="4.18127">
        <ele>638.88</ele>
        <time>2015-10-03T07:41:42.284Z</time>
      </trkpt>
      <trkpt lat="45.29037" lon="4.18129">
        <ele>639</ele>
        <time>2015-10-03T07:41:43.293Z</time>
      </trkpt>
      <trkpt lat="45.29037" lon="4.18132">
        <ele>639.29166666667</ele>
        <time>2015-10-03T07:41:44.300Z</time>
      </trkpt>
      <trkpt lat="45.29038" lon="4.18134">
        <ele>639.5</ele>
        <time>2015-10-03T07:41:45.327Z</time>
      </trkpt>
      <trkpt lat="45.29039" lon="4.18136">
        <ele>639.70833333333</ele>
        <time>2015-10-03T07:41:46.319Z</time>
      </trkpt>
      <trkpt lat="45.29039" lon="4.18138">
        <ele>639.875</ele>
        <time>2015-10-03T07:41:47.290Z</time>
      </trkpt>
      <trkpt lat="45.29039" lon="4.18141">
        <ele>640.04166666667</ele>
        <time>2015-10-03T07:41:48.281Z</time>
      </trkpt>
      <trkpt lat="45.29039" lon="4.18148">
        <ele>640.29166666667</ele>
        <time>2015-10-03T07:41:50.285Z</time>
      </trkpt>
      <trkpt lat="45.29039" lon="4.18153">
        <ele>640.45833333333</ele>
        <time>2015-10-03T07:41:52.283Z</time>
      </trkpt>
      <trkpt lat="45.29038" lon="4.18155">
        <ele>640.58333333333</ele>
        <time>2015-10-03T07:41:53.304Z</time>
      </trkpt>
      <trkpt lat="45.29037" lon="4.18156">
        <ele>640.70833333333</ele>
        <time>2015-10-03T07:41:54.342Z</time>
      </trkpt>
      <trkpt lat="45.29036" lon="4.18158">
        <ele>640.79166666667</ele>
        <time>2015-10-03T07:41:55.358Z</time>
      </trkpt>
      <trkpt lat="45.29036" lon="4.1816">
        <ele>640.875</ele>
        <time>2015-10-03T07:41:56.346Z</time>
      </trkpt>
      <trkpt lat="45.29035" lon="4.18165">
        <ele>640.95833333333</ele>
        <time>2015-10-03T07:41:58.362Z</time>
      </trkpt>
      <trkpt lat="45.29035" lon="4.18168">
        <ele>641</ele>
        <time>2015-10-03T07:41:59.327Z</time>
      </trkpt>
      <trkpt lat="45.29034" lon="4.18176">
        <ele>641.28</ele>
        <time>2015-10-03T07:42:02.298Z</time>
      </trkpt>
      <trkpt lat="45.29032" lon="4.18184">
        <ele>641.6</ele>
        <time>2015-10-03T07:42:05.377Z</time>
      </trkpt>
      <trkpt lat="45.29031" lon="4.18193">
        <ele>641.76</ele>
        <time>2015-10-03T07:42:08.321Z</time>
      </trkpt>
      <trkpt lat="45.29031" lon="4.18197">
        <ele>641.76</ele>
        <time>2015-10-03T07:42:09.308Z</time>
      </trkpt>
      <trkpt lat="45.29032" lon="4.18208">
        <ele>641.92</ele>
        <time>2015-10-03T07:42:12.333Z</time>
      </trkpt>
      <trkpt lat="45.29033" lon="4.18211">
        <ele>641.96</ele>
        <time>2015-10-03T07:42:13.352Z</time>
      </trkpt>
      <trkpt lat="45.29034" lon="4.18218">
        <ele>642.04</ele>
        <time>2015-10-03T07:42:15.334Z</time>
      </trkpt>
      <trkpt lat="45.29034" lon="4.1822">
        <ele>642.08</ele>
        <time>2015-10-03T07:42:16.311Z</time>
      </trkpt>
      <trkpt lat="45.29033" lon="4.18225">
        <ele>642.12</ele>
        <time>2015-10-03T07:42:18.305Z</time>
      </trkpt>
      <trkpt lat="45.29033" lon="4.18227">
        <ele>642.07692307692</ele>
        <time>2015-10-03T07:42:19.292Z</time>
      </trkpt>
      <trkpt lat="45.29033" lon="4.18231">
        <ele>642.11538461538</ele>
        <time>2015-10-03T07:42:20.304Z</time>
      </trkpt>
      <trkpt lat="45.29033" lon="4.18233">
        <ele>642.23076923077</ele>
        <time>2015-10-03T07:42:21.293Z</time>
      </trkpt>
      <trkpt lat="45.29034" lon="4.18235">
        <ele>642.38461538462</ele>
        <time>2015-10-03T07:42:22.295Z</time>
      </trkpt>
      <trkpt lat="45.29035" lon="4.18238">
        <ele>642.57692307692</ele>
        <time>2015-10-03T07:42:23.315Z</time>
      </trkpt>
      <trkpt lat="45.29035" lon="4.18241">
        <ele>642.69230769231</ele>
        <time>2015-10-03T07:42:24.288Z</time>
      </trkpt>
      <trkpt lat="45.29036" lon="4.18244">
        <ele>642.8</ele>
        <time>2015-10-03T07:42:25.315Z</time>
      </trkpt>
      <trkpt lat="45.29037" lon="4.18247">
        <ele>642.88</ele>
        <time>2015-10-03T07:42:26.319Z</time>
      </trkpt>
      <trkpt lat="45.29037" lon="4.18251">
        <ele>642.92307692308</ele>
        <time>2015-10-03T07:42:27.277Z</time>
      </trkpt>
      <trkpt lat="45.29038" lon="4.18255">
        <ele>642.96153846154</ele>
        <time>2015-10-03T07:42:28.287Z</time>
      </trkpt>
      <trkpt lat="45.29039" lon="4.18258">
        <ele>643.03846153846</ele>
        <time>2015-10-03T07:42:29.286Z</time>
      </trkpt>
      <trkpt lat="45.29039" lon="4.18265">
        <ele>643.19230769231</ele>
        <time>2015-10-03T07:42:31.344Z</time>
      </trkpt>
      <trkpt lat="45.29039" lon="4.18267">
        <ele>643.30769230769</ele>
        <time>2015-10-03T07:42:32.342Z</time>
      </trkpt>
      <trkpt lat="45.29039" lon="4.18266">
        <ele>643.34615384615</ele>
        <time>2015-10-03T07:42:33.299Z</time>
      </trkpt>
      <trkpt lat="45.29038" lon="4.18265">
        <ele>643.48</ele>
        <time>2015-10-03T07:42:34.323Z</time>
      </trkpt>
      <trkpt lat="45.29038" lon="4.18266">
        <ele>643.52</ele>
        <time>2015-10-03T07:42:35.357Z</time>
      </trkpt>
      <trkpt lat="45.29037" lon="4.18269">
        <ele>643.52</ele>
        <time>2015-10-03T07:42:36.382Z</time>
      </trkpt>
      <trkpt lat="45.29038" lon="4.18273">
        <ele>643.6</ele>
        <time>2015-10-03T07:42:37.370Z</time>
      </trkpt>
      <trkpt lat="45.2904" lon="4.18284">
        <ele>643.76923076923</ele>
        <time>2015-10-03T07:42:40.279Z</time>
      </trkpt>
      <trkpt lat="45.29041" lon="4.18285">
        <ele>643.88461538462</ele>
        <time>2015-10-03T07:42:41.287Z</time>
      </trkpt>
      <trkpt lat="45.29042" lon="4.18288">
        <ele>644.03846153846</ele>
        <time>2015-10-03T07:42:42.286Z</time>
      </trkpt>
      <trkpt lat="45.29045" lon="4.18294">
        <ele>644.42307692308</ele>
        <time>2015-10-03T07:42:44.284Z</time>
      </trkpt>
      <trkpt lat="45.29046" lon="4.18296">
        <ele>644.69230769231</ele>
        <time>2015-10-03T07:42:45.289Z</time>
      </trkpt>
      <trkpt lat="45.29046" lon="4.18297">
        <ele>644.88461538462</ele>
        <time>2015-10-03T07:42:46.277Z</time>
      </trkpt>
      <trkpt lat="45.29047" lon="4.183">
        <ele>645.03846153846</ele>
        <time>2015-10-03T07:42:47.276Z</time>
      </trkpt>
      <trkpt lat="45.29047" lon="4.18303">
        <ele>645.19230769231</ele>
        <time>2015-10-03T07:42:48.287Z</time>
      </trkpt>
      <trkpt lat="45.29047" lon="4.18306">
        <ele>645.26923076923</ele>
        <time>2015-10-03T07:42:49.288Z</time>
      </trkpt>
      <trkpt lat="45.29047" lon="4.18307">
        <ele>645.42307692308</ele>
        <time>2015-10-03T07:42:50.283Z</time>
      </trkpt>
      <trkpt lat="45.29048" lon="4.18309">
        <ele>645.57692307692</ele>
        <time>2015-10-03T07:42:51.274Z</time>
      </trkpt>
      <trkpt lat="45.29048" lon="4.18311">
        <ele>645.8</ele>
        <time>2015-10-03T07:42:52.285Z</time>
      </trkpt>
      <trkpt lat="45.29048" lon="4.18313">
        <ele>645.96153846154</ele>
        <time>2015-10-03T07:42:53.286Z</time>
      </trkpt>
      <trkpt lat="45.29048" lon="4.18315">
        <ele>646.19230769231</ele>
        <time>2015-10-03T07:42:54.279Z</time>
      </trkpt>
      <trkpt lat="45.29048" lon="4.18317">
        <ele>646.46153846154</ele>
        <time>2015-10-03T07:42:55.285Z</time>
      </trkpt>
      <trkpt lat="45.29047" lon="4.18319">
        <ele>646.73076923077</ele>
        <time>2015-10-03T07:42:56.280Z</time>
      </trkpt>
      <trkpt lat="45.29047" lon="4.18321">
        <ele>647</ele>
        <time>2015-10-03T07:42:57.283Z</time>
      </trkpt>
      <trkpt lat="45.29046" lon="4.18323">
        <ele>647.23076923077</ele>
        <time>2015-10-03T07:42:58.285Z</time>
      </trkpt>
      <trkpt lat="45.29046" lon="4.18326">
        <ele>647.5</ele>
        <time>2015-10-03T07:42:59.285Z</time>
      </trkpt>
      <trkpt lat="45.29046" lon="4.18329">
        <ele>647.73076923077</ele>
        <time>2015-10-03T07:43:00.283Z</time>
      </trkpt>
      <trkpt lat="45.29046" lon="4.18331">
        <ele>648</ele>
        <time>2015-10-03T07:43:01.291Z</time>
      </trkpt>
      <trkpt lat="45.29045" lon="4.18335">
        <ele>648.26923076923</ele>
        <time>2015-10-03T07:43:02.315Z</time>
      </trkpt>
      <trkpt lat="45.29045" lon="4.18338">
        <ele>648.46153846154</ele>
        <time>2015-10-03T07:43:03.351Z</time>
      </trkpt>
      <trkpt lat="45.29045" lon="4.1834">
        <ele>648.88</ele>
        <time>2015-10-03T07:43:04.361Z</time>
      </trkpt>
      <trkpt lat="45.29045" lon="4.18344">
        <ele>649.12</ele>
        <time>2015-10-03T07:43:05.367Z</time>
      </trkpt>
      <trkpt lat="45.29044" lon="4.18353">
        <ele>649.76</ele>
        <time>2015-10-03T07:43:08.372Z</time>
      </trkpt>
      <trkpt lat="45.29044" lon="4.18355">
        <ele>650</ele>
        <time>2015-10-03T07:43:09.323Z</time>
      </trkpt>
      <trkpt lat="45.29043" lon="4.18366">
        <ele>650.73076923077</ele>
        <time>2015-10-03T07:43:13.282Z</time>
      </trkpt>
      <trkpt lat="45.29043" lon="4.18369">
        <ele>651.12</ele>
        <time>2015-10-03T07:43:14.298Z</time>
      </trkpt>
      <trkpt lat="45.29042" lon="4.18378">
        <ele>651.76</ele>
        <time>2015-10-03T07:43:17.347Z</time>
      </trkpt>
      <trkpt lat="45.29041" lon="4.18387">
        <ele>652.16</ele>
        <time>2015-10-03T07:43:20.385Z</time>
      </trkpt>
      <trkpt lat="45.2904" lon="4.184">
        <ele>652.72</ele>
        <time>2015-10-03T07:43:24.356Z</time>
      </trkpt>
      <trkpt lat="45.29039" lon="4.1841">
        <ele>653</ele>
        <time>2015-10-03T07:43:27.375Z</time>
      </trkpt>
      <trkpt lat="45.29038" lon="4.1842">
        <ele>653.19230769231</ele>
        <time>2015-10-03T07:43:30.298Z</time>
      </trkpt>
      <trkpt lat="45.29038" lon="4.18424">
        <ele>653.30769230769</ele>
        <time>2015-10-03T07:43:31.266Z</time>
      </trkpt>
      <trkpt lat="45.29037" lon="4.1844">
        <ele>653.54166666667</ele>
        <time>2015-10-03T07:43:35.288Z</time>
      </trkpt>
      <trkpt lat="45.29037" lon="4.18446">
        <ele>653.48</ele>
        <time>2015-10-03T07:43:36.282Z</time>
      </trkpt>
      <trkpt lat="45.29037" lon="4.18455">
        <ele>653.41666666667</ele>
        <time>2015-10-03T07:43:38.309Z</time>
      </trkpt>
      <trkpt lat="45.29037" lon="4.1846">
        <ele>653.4</ele>
        <time>2015-10-03T07:43:39.294Z</time>
      </trkpt>
      <trkpt lat="45.29038" lon="4.18474">
        <ele>653.375</ele>
        <time>2015-10-03T07:43:42.364Z</time>
      </trkpt>
      <trkpt lat="45.29038" lon="4.18495">
        <ele>653.4</ele>
        <time>2015-10-03T07:43:46.340Z</time>
      </trkpt>
      <trkpt lat="45.29038" lon="4.18499">
        <ele>653.44</ele>
        <time>2015-10-03T07:43:47.294Z</time>
      </trkpt>
      <trkpt lat="45.29039" lon="4.18504">
        <ele>653.48</ele>
        <time>2015-10-03T07:43:48.281Z</time>
      </trkpt>
      <trkpt lat="45.29039" lon="4.18521">
        <ele>653.84</ele>
        <time>2015-10-03T07:43:51.282Z</time>
      </trkpt>
      <trkpt lat="45.2904" lon="4.1855">
        <ele>654.33333333333</ele>
        <time>2015-10-03T07:43:55.257Z</time>
      </trkpt>
      <trkpt lat="45.29039" lon="4.18561">
        <ele>654.54166666667</ele>
        <time>2015-10-03T07:43:58.280Z</time>
      </trkpt>
      <trkpt lat="45.29039" lon="4.18564">
        <ele>654.66666666667</ele>
        <time>2015-10-03T07:43:59.279Z</time>
      </trkpt>
      <trkpt lat="45.29039" lon="4.1857">
        <ele>654.96</ele>
        <time>2015-10-03T07:44:01.281Z</time>
      </trkpt>
      <trkpt lat="45.29038" lon="4.18576">
        <ele>655.44</ele>
        <time>2015-10-03T07:44:03.286Z</time>
      </trkpt>
      <trkpt lat="45.29037" lon="4.18591">
        <ele>656.04</ele>
        <time>2015-10-03T07:44:07.284Z</time>
      </trkpt>
      <trkpt lat="45.29037" lon="4.18595">
        <ele>656.16</ele>
        <time>2015-10-03T07:44:08.287Z</time>
      </trkpt>
      <trkpt lat="45.29037" lon="4.186">
        <ele>656.32</ele>
        <time>2015-10-03T07:44:09.271Z</time>
      </trkpt>
      <trkpt lat="45.29038" lon="4.18606">
        <ele>656.48</ele>
        <time>2015-10-03T07:44:10.275Z</time>
      </trkpt>
      <trkpt lat="45.2904" lon="4.18617">
        <ele>656.76</ele>
        <time>2015-10-03T07:44:12.266Z</time>
      </trkpt>
      <trkpt lat="45.29041" lon="4.18619">
        <ele>656.84</ele>
        <time>2015-10-03T07:44:13.267Z</time>
      </trkpt>
      <trkpt lat="45.29042" lon="4.18624">
        <ele>656.84</ele>
        <time>2015-10-03T07:44:14.276Z</time>
      </trkpt>
      <trkpt lat="45.29045" lon="4.18632">
        <ele>656.95833333333</ele>
        <time>2015-10-03T07:44:16.297Z</time>
      </trkpt>
      <trkpt lat="45.29045" lon="4.18633">
        <ele>657</ele>
        <time>2015-10-03T07:44:17.342Z</time>
      </trkpt>
      <trkpt lat="45.29045" lon="4.18634">
        <ele>657.08333333333</ele>
        <time>2015-10-03T07:44:18.349Z</time>
      </trkpt>
      <trkpt lat="45.29045" lon="4.18635">
        <ele>657.12</ele>
        <time>2015-10-03T07:44:19.323Z</time>
      </trkpt>
      <trkpt lat="45.29046" lon="4.18637">
        <ele>657.2</ele>
        <time>2015-10-03T07:44:20.299Z</time>
      </trkpt>
      <trkpt lat="45.29048" lon="4.18641">
        <ele>657.32</ele>
        <time>2015-10-03T07:44:21.282Z</time>
      </trkpt>
      <trkpt lat="45.2905" lon="4.18646">
        <ele>657.34615384615</ele>
        <time>2015-10-03T07:44:22.274Z</time>
      </trkpt>
      <trkpt lat="45.29052" lon="4.18649">
        <ele>657.44</ele>
        <time>2015-10-03T07:44:23.284Z</time>
      </trkpt>
      <trkpt lat="45.29055" lon="4.18655">
        <ele>657.52</ele>
        <time>2015-10-03T07:44:25.308Z</time>
      </trkpt>
      <trkpt lat="45.29057" lon="4.18661">
        <ele>657.52</ele>
        <time>2015-10-03T07:44:27.316Z</time>
      </trkpt>
      <trkpt lat="45.29059" lon="4.18666">
        <ele>657.6</ele>
        <time>2015-10-03T07:44:29.283Z</time>
      </trkpt>
      <trkpt lat="45.2906" lon="4.18669">
        <ele>657.64</ele>
        <time>2015-10-03T07:44:30.282Z</time>
      </trkpt>
      <trkpt lat="45.29062" lon="4.18672">
        <ele>657.68</ele>
        <time>2015-10-03T07:44:31.296Z</time>
      </trkpt>
      <trkpt lat="45.29062" lon="4.18676">
        <ele>657.76</ele>
        <time>2015-10-03T07:44:32.312Z</time>
      </trkpt>
      <trkpt lat="45.29062" lon="4.18678">
        <ele>657.84</ele>
        <time>2015-10-03T07:44:33.334Z</time>
      </trkpt>
      <trkpt lat="45.29061" lon="4.18681">
        <ele>657.88</ele>
        <time>2015-10-03T07:44:34.324Z</time>
      </trkpt>
      <trkpt lat="45.29061" lon="4.18685">
        <ele>658</ele>
        <time>2015-10-03T07:44:36.345Z</time>
      </trkpt>
      <trkpt lat="45.29062" lon="4.18687">
        <ele>658.12</ele>
        <time>2015-10-03T07:44:37.324Z</time>
      </trkpt>
      <trkpt lat="45.29063" lon="4.18689">
        <ele>658.28</ele>
        <time>2015-10-03T07:44:38.314Z</time>
      </trkpt>
      <trkpt lat="45.29064" lon="4.18693">
        <ele>658.44</ele>
        <time>2015-10-03T07:44:39.319Z</time>
      </trkpt>
      <trkpt lat="45.29065" lon="4.18697">
        <ele>658.56</ele>
        <time>2015-10-03T07:44:40.320Z</time>
      </trkpt>
      <trkpt lat="45.29065" lon="4.187">
        <ele>658.64</ele>
        <time>2015-10-03T07:44:41.330Z</time>
      </trkpt>
      <trkpt lat="45.29064" lon="4.18709">
        <ele>659</ele>
        <time>2015-10-03T07:44:44.325Z</time>
      </trkpt>
      <trkpt lat="45.29064" lon="4.1871">
        <ele>659.12</ele>
        <time>2015-10-03T07:44:45.314Z</time>
      </trkpt>
      <trkpt lat="45.29063" lon="4.18714">
        <ele>659.28</ele>
        <time>2015-10-03T07:44:46.283Z</time>
      </trkpt>
      <trkpt lat="45.29062" lon="4.18718">
        <ele>659.44</ele>
        <time>2015-10-03T07:44:47.278Z</time>
      </trkpt>
      <trkpt lat="45.29061" lon="4.18722">
        <ele>659.53846153846</ele>
        <time>2015-10-03T07:44:48.278Z</time>
      </trkpt>
      <trkpt lat="45.29058" lon="4.18733">
        <ele>660.08</ele>
        <time>2015-10-03T07:44:51.326Z</time>
      </trkpt>
      <trkpt lat="45.29058" lon="4.18736">
        <ele>660.19230769231</ele>
        <time>2015-10-03T07:44:52.306Z</time>
      </trkpt>
      <trkpt lat="45.29057" lon="4.18739">
        <ele>660.38461538462</ele>
        <time>2015-10-03T07:44:53.279Z</time>
      </trkpt>
      <trkpt lat="45.29057" lon="4.18742">
        <ele>660.53846153846</ele>
        <time>2015-10-03T07:44:54.268Z</time>
      </trkpt>
      <trkpt lat="45.29054" lon="4.18751">
        <ele>661.15384615385</ele>
        <time>2015-10-03T07:44:57.297Z</time>
      </trkpt>
      <trkpt lat="45.29053" lon="4.18754">
        <ele>661.38461538462</ele>
        <time>2015-10-03T07:44:58.299Z</time>
      </trkpt>
      <trkpt lat="45.29053" lon="4.18756">
        <ele>661.53846153846</ele>
        <time>2015-10-03T07:44:59.283Z</time>
      </trkpt>
      <trkpt lat="45.29052" lon="4.1876">
        <ele>661.73076923077</ele>
        <time>2015-10-03T07:45:00.253Z</time>
      </trkpt>
      <trkpt lat="45.29051" lon="4.18768">
        <ele>662.03846153846</ele>
        <time>2015-10-03T07:45:02.258Z</time>
      </trkpt>
      <trkpt lat="45.2905" lon="4.18771">
        <ele>662.15384615385</ele>
        <time>2015-10-03T07:45:03.263Z</time>
      </trkpt>
      <trkpt lat="45.2905" lon="4.18777">
        <ele>662.38461538462</ele>
        <time>2015-10-03T07:45:05.273Z</time>
      </trkpt>
      <trkpt lat="45.29049" lon="4.18783">
        <ele>662.61538461538</ele>
        <time>2015-10-03T07:45:07.272Z</time>
      </trkpt>
      <trkpt lat="45.29049" lon="4.18786">
        <ele>662.73076923077</ele>
        <time>2015-10-03T07:45:08.274Z</time>
      </trkpt>
      <trkpt lat="45.29048" lon="4.18788">
        <ele>662.80769230769</ele>
        <time>2015-10-03T07:45:09.285Z</time>
      </trkpt>
      <trkpt lat="45.29048" lon="4.18791">
        <ele>662.84615384615</ele>
        <time>2015-10-03T07:45:10.282Z</time>
      </trkpt>
      <trkpt lat="45.29048" lon="4.18792">
        <ele>662.96</ele>
        <time>2015-10-03T07:45:11.284Z</time>
      </trkpt>
      <trkpt lat="45.29047" lon="4.18794">
        <ele>663</ele>
        <time>2015-10-03T07:45:12.278Z</time>
      </trkpt>
      <trkpt lat="45.29045" lon="4.18798">
        <ele>663.11538461538</ele>
        <time>2015-10-03T07:45:15.284Z</time>
      </trkpt>
      <trkpt lat="45.29044" lon="4.188">
        <ele>663.15384615385</ele>
        <time>2015-10-03T07:45:16.283Z</time>
      </trkpt>
      <trkpt lat="45.29043" lon="4.18802">
        <ele>663.15384615385</ele>
        <time>2015-10-03T07:45:17.300Z</time>
      </trkpt>
      <trkpt lat="45.29043" lon="4.18803">
        <ele>663.16</ele>
        <time>2015-10-03T07:45:18.287Z</time>
      </trkpt>
      <trkpt lat="45.29044" lon="4.18802">
        <ele>663.12</ele>
        <time>2015-10-03T07:45:19.280Z</time>
      </trkpt>
      <trkpt lat="45.29044" lon="4.18802">
        <ele>663.12</ele>
        <time>2015-10-03T07:45:20.276Z</time>
      </trkpt>
      <trkpt lat="45.29044" lon="4.18802">
        <ele>663.04</ele>
        <time>2015-10-03T07:45:22.305Z</time>
      </trkpt>
      <trkpt lat="45.29044" lon="4.18803">
        <ele>663.03846153846</ele>
        <time>2015-10-03T07:45:23.278Z</time>
      </trkpt>
      <trkpt lat="45.29043" lon="4.18808">
        <ele>663</ele>
        <time>2015-10-03T07:45:25.283Z</time>
      </trkpt>
      <trkpt lat="45.29042" lon="4.1881">
        <ele>662.96</ele>
        <time>2015-10-03T07:45:26.294Z</time>
      </trkpt>
      <trkpt lat="45.29042" lon="4.18813">
        <ele>662.88</ele>
        <time>2015-10-03T07:45:27.282Z</time>
      </trkpt>
      <trkpt lat="45.29041" lon="4.18815">
        <ele>662.88</ele>
        <time>2015-10-03T07:45:28.294Z</time>
      </trkpt>
      <trkpt lat="45.29041" lon="4.18817">
        <ele>662.84</ele>
        <time>2015-10-03T07:45:29.310Z</time>
      </trkpt>
      <trkpt lat="45.29041" lon="4.1882">
        <ele>662.8</ele>
        <time>2015-10-03T07:45:30.290Z</time>
      </trkpt>
      <trkpt lat="45.29041" lon="4.18822">
        <ele>662.76923076923</ele>
        <time>2015-10-03T07:45:31.278Z</time>
      </trkpt>
      <trkpt lat="45.2904" lon="4.18825">
        <ele>662.69230769231</ele>
        <time>2015-10-03T07:45:32.272Z</time>
      </trkpt>
      <trkpt lat="45.2904" lon="4.18829">
        <ele>662.56</ele>
        <time>2015-10-03T07:45:33.290Z</time>
      </trkpt>
      <trkpt lat="45.29039" lon="4.18838">
        <ele>662.5</ele>
        <time>2015-10-03T07:45:35.340Z</time>
      </trkpt>
      <trkpt lat="45.29038" lon="4.18847">
        <ele>662.375</ele>
        <time>2015-10-03T07:45:37.341Z</time>
      </trkpt>
      <trkpt lat="45.29038" lon="4.18851">
        <ele>662.25</ele>
        <time>2015-10-03T07:45:38.364Z</time>
      </trkpt>
      <trkpt lat="45.29037" lon="4.18854">
        <ele>662.20833333333</ele>
        <time>2015-10-03T07:45:39.320Z</time>
      </trkpt>
      <trkpt lat="45.29037" lon="4.18857">
        <ele>662.08</ele>
        <time>2015-10-03T07:45:40.281Z</time>
      </trkpt>
      <trkpt lat="45.29036" lon="4.18862">
        <ele>662.04</ele>
        <time>2015-10-03T07:45:41.282Z</time>
      </trkpt>
      <trkpt lat="45.29034" lon="4.18872">
        <ele>661.92</ele>
        <time>2015-10-03T07:45:43.276Z</time>
      </trkpt>
      <trkpt lat="45.29033" lon="4.18876">
        <ele>661.83333333333</ele>
        <time>2015-10-03T07:45:44.282Z</time>
      </trkpt>
      <trkpt lat="45.29032" lon="4.18881">
        <ele>661.75</ele>
        <time>2015-10-03T07:45:45.286Z</time>
      </trkpt>
      <trkpt lat="45.29031" lon="4.18893">
        <ele>661.6</ele>
        <time>2015-10-03T07:45:47.298Z</time>
      </trkpt>
      <trkpt lat="45.29032" lon="4.18899">
        <ele>661.5</ele>
        <time>2015-10-03T07:45:48.307Z</time>
      </trkpt>
      <trkpt lat="45.29036" lon="4.18907">
        <ele>661.4</ele>
        <time>2015-10-03T07:45:50.279Z</time>
      </trkpt>
      <trkpt lat="45.29039" lon="4.18912">
        <ele>661.36</ele>
        <time>2015-10-03T07:45:51.288Z</time>
      </trkpt>
      <trkpt lat="45.29044" lon="4.18923">
        <ele>661.20833333333</ele>
        <time>2015-10-03T07:45:53.304Z</time>
      </trkpt>
      <trkpt lat="45.29045" lon="4.18928">
        <ele>661.16666666667</ele>
        <time>2015-10-03T07:45:54.326Z</time>
      </trkpt>
      <trkpt lat="45.29045" lon="4.18932">
        <ele>661.16666666667</ele>
        <time>2015-10-03T07:45:55.322Z</time>
      </trkpt>
      <trkpt lat="45.29048" lon="4.18933">
        <ele>661.125</ele>
        <time>2015-10-03T07:45:56.334Z</time>
      </trkpt>
      <trkpt lat="45.2905" lon="4.18935">
        <ele>661.125</ele>
        <time>2015-10-03T07:45:57.349Z</time>
      </trkpt>
      <trkpt lat="45.29052" lon="4.18944">
        <ele>661.16</ele>
        <time>2015-10-03T07:45:59.380Z</time>
      </trkpt>
      <trkpt lat="45.29054" lon="4.18948">
        <ele>661.08</ele>
        <time>2015-10-03T07:46:00.354Z</time>
      </trkpt>
      <trkpt lat="45.29056" lon="4.18952">
        <ele>661.04</ele>
        <time>2015-10-03T07:46:01.348Z</time>
      </trkpt>
      <trkpt lat="45.29063" lon="4.18968">
        <ele>660.96</ele>
        <time>2015-10-03T07:46:04.379Z</time>
      </trkpt>
      <trkpt lat="45.29067" lon="4.18978">
        <ele>660.96</ele>
        <time>2015-10-03T07:46:06.323Z</time>
      </trkpt>
      <trkpt lat="45.29071" lon="4.18992">
        <ele>660.88</ele>
        <time>2015-10-03T07:46:09.298Z</time>
      </trkpt>
      <trkpt lat="45.29075" lon="4.19007">
        <ele>660.92</ele>
        <time>2015-10-03T07:46:12.350Z</time>
      </trkpt>
      <trkpt lat="45.29076" lon="4.19012">
        <ele>661</ele>
        <time>2015-10-03T07:46:13.367Z</time>
      </trkpt>
      <trkpt lat="45.29077" lon="4.19017">
        <ele>660.92</ele>
        <time>2015-10-03T07:46:14.365Z</time>
      </trkpt>
      <trkpt lat="45.2908" lon="4.19024">
        <ele>660.92</ele>
        <time>2015-10-03T07:46:16.349Z</time>
      </trkpt>
      <trkpt lat="45.29084" lon="4.19037">
        <ele>660.88461538462</ele>
        <time>2015-10-03T07:46:19.320Z</time>
      </trkpt>
      <trkpt lat="45.29085" lon="4.19047">
        <ele>660.76923076923</ele>
        <time>2015-10-03T07:46:21.322Z</time>
      </trkpt>
      <trkpt lat="45.29085" lon="4.19051">
        <ele>660.84615384615</ele>
        <time>2015-10-03T07:46:22.316Z</time>
      </trkpt>
      <trkpt lat="45.29084" lon="4.19055">
        <ele>660.88461538462</ele>
        <time>2015-10-03T07:46:23.345Z</time>
      </trkpt>
      <trkpt lat="45.29082" lon="4.19062">
        <ele>660.88461538462</ele>
        <time>2015-10-03T07:46:25.350Z</time>
      </trkpt>
      <trkpt lat="45.29081" lon="4.19063">
        <ele>660.92</ele>
        <time>2015-10-03T07:46:26.370Z</time>
      </trkpt>
      <trkpt lat="45.29079" lon="4.19066">
        <ele>660.96</ele>
        <time>2015-10-03T07:46:27.379Z</time>
      </trkpt>
      <trkpt lat="45.29074" lon="4.19071">
        <ele>660.96153846154</ele>
        <time>2015-10-03T07:46:29.369Z</time>
      </trkpt>
      <trkpt lat="45.29071" lon="4.19072">
        <ele>661.16</ele>
        <time>2015-10-03T07:46:30.391Z</time>
      </trkpt>
      <trkpt lat="45.29068" lon="4.19072">
        <ele>661.24</ele>
        <time>2015-10-03T07:46:31.385Z</time>
      </trkpt>
      <trkpt lat="45.29066" lon="4.19071">
        <ele>661.28</ele>
        <time>2015-10-03T07:46:32.361Z</time>
      </trkpt>
      <trkpt lat="45.29061" lon="4.19069">
        <ele>661.6</ele>
        <time>2015-10-03T07:46:34.360Z</time>
      </trkpt>
      <trkpt lat="45.29054" lon="4.19065">
        <ele>662.07692307692</ele>
        <time>2015-10-03T07:46:38.350Z</time>
      </trkpt>
      <trkpt lat="45.29053" lon="4.19066">
        <ele>662.19230769231</ele>
        <time>2015-10-03T07:46:39.345Z</time>
      </trkpt>
      <trkpt lat="45.29051" lon="4.19068">
        <ele>662.42307692308</ele>
        <time>2015-10-03T07:46:40.335Z</time>
      </trkpt>
      <trkpt lat="45.29048" lon="4.19071">
        <ele>662.92</ele>
        <time>2015-10-03T07:46:42.354Z</time>
      </trkpt>
      <trkpt lat="45.29047" lon="4.19074">
        <ele>663.16</ele>
        <time>2015-10-03T07:46:43.377Z</time>
      </trkpt>
      <trkpt lat="45.29045" lon="4.19079">
        <ele>663.56</ele>
        <time>2015-10-03T07:46:45.344Z</time>
      </trkpt>
      <trkpt lat="45.29043" lon="4.19085">
        <ele>664.04</ele>
        <time>2015-10-03T07:46:47.347Z</time>
      </trkpt>
      <trkpt lat="45.29041" lon="4.1909">
        <ele>664.38461538462</ele>
        <time>2015-10-03T07:46:49.333Z</time>
      </trkpt>
      <trkpt lat="45.2904" lon="4.19091">
        <ele>664.69230769231</ele>
        <time>2015-10-03T07:46:50.325Z</time>
      </trkpt>
      <trkpt lat="45.29039" lon="4.19093">
        <ele>664.96153846154</ele>
        <time>2015-10-03T07:46:51.347Z</time>
      </trkpt>
      <trkpt lat="45.29039" lon="4.19096">
        <ele>665.23076923077</ele>
        <time>2015-10-03T07:46:52.365Z</time>
      </trkpt>
      <trkpt lat="45.29038" lon="4.19102">
        <ele>665.92</ele>
        <time>2015-10-03T07:46:54.370Z</time>
      </trkpt>
      <trkpt lat="45.29035" lon="4.19113">
        <ele>666.76</ele>
        <time>2015-10-03T07:46:58.349Z</time>
      </trkpt>
      <trkpt lat="45.29034" lon="4.19115">
        <ele>667</ele>
        <time>2015-10-03T07:46:59.364Z</time>
      </trkpt>
      <trkpt lat="45.29033" lon="4.19116">
        <ele>667.07692307692</ele>
        <time>2015-10-03T07:47:00.346Z</time>
      </trkpt>
      <trkpt lat="45.29031" lon="4.19117">
        <ele>667.30769230769</ele>
        <time>2015-10-03T07:47:01.323Z</time>
      </trkpt>
      <trkpt lat="45.29029" lon="4.19118">
        <ele>667.5</ele>
        <time>2015-10-03T07:47:02.348Z</time>
      </trkpt>
      <trkpt lat="45.29027" lon="4.19119">
        <ele>667.8</ele>
        <time>2015-10-03T07:47:03.377Z</time>
      </trkpt>
      <trkpt lat="45.29025" lon="4.1912">
        <ele>667.92</ele>
        <time>2015-10-03T07:47:04.357Z</time>
      </trkpt>
      <trkpt lat="45.29022" lon="4.19122">
        <ele>668.24</ele>
        <time>2015-10-03T07:47:06.359Z</time>
      </trkpt>
      <trkpt lat="45.2902" lon="4.19124">
        <ele>668.36</ele>
        <time>2015-10-03T07:47:07.357Z</time>
      </trkpt>
      <trkpt lat="45.29018" lon="4.19129">
        <ele>668.56</ele>
        <time>2015-10-03T07:47:09.386Z</time>
      </trkpt>
      <trkpt lat="45.29016" lon="4.19135">
        <ele>668.68</ele>
        <time>2015-10-03T07:47:11.350Z</time>
      </trkpt>
      <trkpt lat="45.29015" lon="4.19139">
        <ele>668.76923076923</ele>
        <time>2015-10-03T07:47:13.324Z</time>
      </trkpt>
      <trkpt lat="45.29014" lon="4.1914">
        <ele>668.84615384615</ele>
        <time>2015-10-03T07:47:14.332Z</time>
      </trkpt>
      <trkpt lat="45.29014" lon="4.1914">
        <ele>669</ele>
        <time>2015-10-03T07:47:17.342Z</time>
      </trkpt>
      <trkpt lat="45.29015" lon="4.1914">
        <ele>669.15384615385</ele>
        <time>2015-10-03T07:47:21.324Z</time>
      </trkpt>
      <trkpt lat="45.29014" lon="4.19144">
        <ele>669.34615384615</ele>
        <time>2015-10-03T07:47:23.315Z</time>
      </trkpt>
      <trkpt lat="45.29013" lon="4.19148">
        <ele>669.34615384615</ele>
        <time>2015-10-03T07:47:24.317Z</time>
      </trkpt>
      <trkpt lat="45.29012" lon="4.19154">
        <ele>669.30769230769</ele>
        <time>2015-10-03T07:47:25.315Z</time>
      </trkpt>
      <trkpt lat="45.29012" lon="4.19161">
        <ele>669.26923076923</ele>
        <time>2015-10-03T07:47:26.317Z</time>
      </trkpt>
      <trkpt lat="45.29011" lon="4.19172">
        <ele>669.34615384615</ele>
        <time>2015-10-03T07:47:28.282Z</time>
      </trkpt>
      <trkpt lat="45.29011" lon="4.19176">
        <ele>669.30769230769</ele>
        <time>2015-10-03T07:47:29.308Z</time>
      </trkpt>
      <trkpt lat="45.29012" lon="4.1918">
        <ele>669.34615384615</ele>
        <time>2015-10-03T07:47:30.315Z</time>
      </trkpt>
      <trkpt lat="45.29013" lon="4.19183">
        <ele>669.34615384615</ele>
        <time>2015-10-03T07:47:31.307Z</time>
      </trkpt>
      <trkpt lat="45.29014" lon="4.19186">
        <ele>669.38461538462</ele>
        <time>2015-10-03T07:47:32.304Z</time>
      </trkpt>
      <trkpt lat="45.29019" lon="4.19195">
        <ele>669.45833333333</ele>
        <time>2015-10-03T07:47:35.367Z</time>
      </trkpt>
      <trkpt lat="45.29022" lon="4.19205">
        <ele>669.68</ele>
        <time>2015-10-03T07:47:38.307Z</time>
      </trkpt>
      <trkpt lat="45.29023" lon="4.19211">
        <ele>669.76</ele>
        <time>2015-10-03T07:47:40.309Z</time>
      </trkpt>
      <trkpt lat="45.29025" lon="4.19214">
        <ele>669.84</ele>
        <time>2015-10-03T07:47:41.313Z</time>
      </trkpt>
      <trkpt lat="45.29029" lon="4.19221">
        <ele>669.88</ele>
        <time>2015-10-03T07:47:44.319Z</time>
      </trkpt>
      <trkpt lat="45.29032" lon="4.19225">
        <ele>670.08</ele>
        <time>2015-10-03T07:47:46.314Z</time>
      </trkpt>
      <trkpt lat="45.29033" lon="4.19226">
        <ele>670.2</ele>
        <time>2015-10-03T07:47:47.267Z</time>
      </trkpt>
      <trkpt lat="45.29034" lon="4.19229">
        <ele>670.24</ele>
        <time>2015-10-03T07:47:48.287Z</time>
      </trkpt>
      <trkpt lat="45.29035" lon="4.19232">
        <ele>670.24</ele>
        <time>2015-10-03T07:47:49.297Z</time>
      </trkpt>
      <trkpt lat="45.29036" lon="4.19235">
        <ele>670.28</ele>
        <time>2015-10-03T07:47:50.293Z</time>
      </trkpt>
      <trkpt lat="45.29038" lon="4.19238">
        <ele>670.4</ele>
        <time>2015-10-03T07:47:51.280Z</time>
      </trkpt>
      <trkpt lat="45.29039" lon="4.1924">
        <ele>670.56</ele>
        <time>2015-10-03T07:47:52.277Z</time>
      </trkpt>
      <trkpt lat="45.2904" lon="4.19242">
        <ele>670.64</ele>
        <time>2015-10-03T07:47:53.276Z</time>
      </trkpt>
      <trkpt lat="45.29041" lon="4.19243">
        <ele>670.68</ele>
        <time>2015-10-03T07:47:54.274Z</time>
      </trkpt>
      <trkpt lat="45.29043" lon="4.19245">
        <ele>670.8</ele>
        <time>2015-10-03T07:47:55.280Z</time>
      </trkpt>
      <trkpt lat="45.29048" lon="4.19254">
        <ele>671.04166666667</ele>
        <time>2015-10-03T07:47:58.368Z</time>
      </trkpt>
      <trkpt lat="45.29049" lon="4.19257">
        <ele>671.04</ele>
        <time>2015-10-03T07:47:59.390Z</time>
      </trkpt>
      <trkpt lat="45.29052" lon="4.19264">
        <ele>671.2</ele>
        <time>2015-10-03T07:48:01.350Z</time>
      </trkpt>
      <trkpt lat="45.29054" lon="4.19266">
        <ele>671.28</ele>
        <time>2015-10-03T07:48:02.356Z</time>
      </trkpt>
      <trkpt lat="45.29058" lon="4.19271">
        <ele>671.52</ele>
        <time>2015-10-03T07:48:04.375Z</time>
      </trkpt>
      <trkpt lat="45.2906" lon="4.19273">
        <ele>671.64</ele>
        <time>2015-10-03T07:48:05.381Z</time>
      </trkpt>
      <trkpt lat="45.29066" lon="4.1928">
        <ele>672.04</ele>
        <time>2015-10-03T07:48:08.386Z</time>
      </trkpt>
      <trkpt lat="45.29069" lon="4.19284">
        <ele>672.30769230769</ele>
        <time>2015-10-03T07:48:10.336Z</time>
      </trkpt>
      <trkpt lat="45.29072" lon="4.19287">
        <ele>672.52</ele>
        <time>2015-10-03T07:48:12.382Z</time>
      </trkpt>
      <trkpt lat="45.29073" lon="4.19288">
        <ele>672.72</ele>
        <time>2015-10-03T07:48:13.384Z</time>
      </trkpt>
      <trkpt lat="45.29078" lon="4.19294">
        <ele>673.28</ele>
        <time>2015-10-03T07:48:16.333Z</time>
      </trkpt>
      <trkpt lat="45.2908" lon="4.19296">
        <ele>673.4</ele>
        <time>2015-10-03T07:48:17.353Z</time>
      </trkpt>
      <trkpt lat="45.29083" lon="4.19299">
        <ele>673.8</ele>
        <time>2015-10-03T07:48:19.348Z</time>
      </trkpt>
      <trkpt lat="45.29085" lon="4.193">
        <ele>673.96</ele>
        <time>2015-10-03T07:48:20.361Z</time>
      </trkpt>
      <trkpt lat="45.29092" lon="4.19309">
        <ele>674.61538461538</ele>
        <time>2015-10-03T07:48:24.328Z</time>
      </trkpt>
      <trkpt lat="45.29097" lon="4.19314">
        <ele>675.26923076923</ele>
        <time>2015-10-03T07:48:27.351Z</time>
      </trkpt>
      <trkpt lat="45.29101" lon="4.1932">
        <ele>675.92307692308</ele>
        <time>2015-10-03T07:48:30.371Z</time>
      </trkpt>
      <trkpt lat="45.29108" lon="4.19329">
        <ele>676.73076923077</ele>
        <time>2015-10-03T07:48:34.365Z</time>
      </trkpt>
      <trkpt lat="45.29114" lon="4.19338">
        <ele>677.46153846154</ele>
        <time>2015-10-03T07:48:38.366Z</time>
      </trkpt>
      <trkpt lat="45.29121" lon="4.19347">
        <ele>678</ele>
        <time>2015-10-03T07:48:42.336Z</time>
      </trkpt>
      <trkpt lat="45.29125" lon="4.19352">
        <ele>678.61538461538</ele>
        <time>2015-10-03T07:48:45.347Z</time>
      </trkpt>
      <trkpt lat="45.2913" lon="4.1936">
        <ele>679.32</ele>
        <time>2015-10-03T07:48:49.339Z</time>
      </trkpt>
      <trkpt lat="45.29133" lon="4.19366">
        <ele>679.92</ele>
        <time>2015-10-03T07:48:52.361Z</time>
      </trkpt>
      <trkpt lat="45.29137" lon="4.19375">
        <ele>680.88</ele>
        <time>2015-10-03T07:48:56.355Z</time>
      </trkpt>
      <trkpt lat="45.29138" lon="4.19379">
        <ele>681.26923076923</ele>
        <time>2015-10-03T07:48:58.339Z</time>
      </trkpt>
      <trkpt lat="45.29138" lon="4.19381">
        <ele>681.46153846154</ele>
        <time>2015-10-03T07:48:59.348Z</time>
      </trkpt>
      <trkpt lat="45.29139" lon="4.19386">
        <ele>682.08</ele>
        <time>2015-10-03T07:49:01.392Z</time>
      </trkpt>
      <trkpt lat="45.2914" lon="4.19388">
        <ele>682.28</ele>
        <time>2015-10-03T07:49:02.364Z</time>
      </trkpt>
      <trkpt lat="45.29141" lon="4.19389">
        <ele>682.48</ele>
        <time>2015-10-03T07:49:03.385Z</time>
      </trkpt>
      <trkpt lat="45.29143" lon="4.1939">
        <ele>682.72</ele>
        <time>2015-10-03T07:49:04.386Z</time>
      </trkpt>
      <trkpt lat="45.29145" lon="4.19391">
        <ele>682.96</ele>
        <time>2015-10-03T07:49:05.370Z</time>
      </trkpt>
      <trkpt lat="45.29148" lon="4.19393">
        <ele>683.48</ele>
        <time>2015-10-03T07:49:07.364Z</time>
      </trkpt>
      <trkpt lat="45.29149" lon="4.19396">
        <ele>683.84615384615</ele>
        <time>2015-10-03T07:49:09.338Z</time>
      </trkpt>
      <trkpt lat="45.29149" lon="4.19397">
        <ele>684.16</ele>
        <time>2015-10-03T07:49:10.354Z</time>
      </trkpt>
      <trkpt lat="45.29148" lon="4.19398">
        <ele>684.30769230769</ele>
        <time>2015-10-03T07:49:11.324Z</time>
      </trkpt>
      <trkpt lat="45.29147" lon="4.194">
        <ele>684.61538461538</ele>
        <time>2015-10-03T07:49:12.303Z</time>
      </trkpt>
      <trkpt lat="45.29145" lon="4.19405">
        <ele>685.5</ele>
        <time>2015-10-03T07:49:15.315Z</time>
      </trkpt>
      <trkpt lat="45.29143" lon="4.19405">
        <ele>685.65384615385</ele>
        <time>2015-10-03T07:49:16.315Z</time>
      </trkpt>
      <trkpt lat="45.29141" lon="4.19406">
        <ele>685.88461538462</ele>
        <time>2015-10-03T07:49:17.326Z</time>
      </trkpt>
      <trkpt lat="45.29138" lon="4.19409">
        <ele>686.19230769231</ele>
        <time>2015-10-03T07:49:19.322Z</time>
      </trkpt>
      <trkpt lat="45.29136" lon="4.19412">
        <ele>686.53846153846</ele>
        <time>2015-10-03T07:49:21.298Z</time>
      </trkpt>
      <trkpt lat="45.29132" lon="4.19417">
        <ele>686.92</ele>
        <time>2015-10-03T07:49:24.364Z</time>
      </trkpt>
      <trkpt lat="45.29128" lon="4.19423">
        <ele>687.26923076923</ele>
        <time>2015-10-03T07:49:28.354Z</time>
      </trkpt>
      <trkpt lat="45.29127" lon="4.19425">
        <ele>687.38461538462</ele>
        <time>2015-10-03T07:49:29.338Z</time>
      </trkpt>
      <trkpt lat="45.29126" lon="4.19427">
        <ele>687.46153846154</ele>
        <time>2015-10-03T07:49:30.349Z</time>
      </trkpt>
      <trkpt lat="45.29122" lon="4.19441">
        <ele>687.8</ele>
        <time>2015-10-03T07:49:35.331Z</time>
      </trkpt>
      <trkpt lat="45.29119" lon="4.1945">
        <ele>687.83333333333</ele>
        <time>2015-10-03T07:49:38.342Z</time>
      </trkpt>
      <trkpt lat="45.29118" lon="4.19457">
        <ele>687.91666666667</ele>
        <time>2015-10-03T07:49:40.349Z</time>
      </trkpt>
      <trkpt lat="45.29118" lon="4.1946">
        <ele>687.875</ele>
        <time>2015-10-03T07:49:41.360Z</time>
      </trkpt>
      <trkpt lat="45.29117" lon="4.19463">
        <ele>687.92</ele>
        <time>2015-10-03T07:49:42.321Z</time>
      </trkpt>
      <trkpt lat="45.29116" lon="4.19472">
        <ele>688</ele>
        <time>2015-10-03T07:49:45.338Z</time>
      </trkpt>
      <trkpt lat="45.29114" lon="4.19483">
        <ele>688.24</ele>
        <time>2015-10-03T07:49:48.343Z</time>
      </trkpt>
      <trkpt lat="45.29113" lon="4.19492">
        <ele>688.41666666667</ele>
        <time>2015-10-03T07:49:51.345Z</time>
      </trkpt>
      <trkpt lat="45.29113" lon="4.19495">
        <ele>688.5</ele>
        <time>2015-10-03T07:49:52.367Z</time>
      </trkpt>
      <trkpt lat="45.29112" lon="4.19506">
        <ele>688.8</ele>
        <time>2015-10-03T07:49:56.345Z</time>
      </trkpt>
      <trkpt lat="45.29111" lon="4.19509">
        <ele>688.92</ele>
        <time>2015-10-03T07:49:57.347Z</time>
      </trkpt>
      <trkpt lat="45.29111" lon="4.19518">
        <ele>689.16</ele>
        <time>2015-10-03T07:50:00.366Z</time>
      </trkpt>
      <trkpt lat="45.2911" lon="4.19526">
        <ele>689.4</ele>
        <time>2015-10-03T07:50:03.377Z</time>
      </trkpt>
      <trkpt lat="45.2911" lon="4.19537">
        <ele>689.8</ele>
        <time>2015-10-03T07:50:07.368Z</time>
      </trkpt>
      <trkpt lat="45.2911" lon="4.19546">
        <ele>690.04</ele>
        <time>2015-10-03T07:50:10.377Z</time>
      </trkpt>
      <trkpt lat="45.29109" lon="4.1956">
        <ele>690.48</ele>
        <time>2015-10-03T07:50:14.347Z</time>
      </trkpt>
      <trkpt lat="45.29107" lon="4.19569">
        <ele>690.84615384615</ele>
        <time>2015-10-03T07:50:17.321Z</time>
      </trkpt>
      <trkpt lat="45.29107" lon="4.19572">
        <ele>691</ele>
        <time>2015-10-03T07:50:18.328Z</time>
      </trkpt>
      <trkpt lat="45.29106" lon="4.19582">
        <ele>691.44</ele>
        <time>2015-10-03T07:50:21.355Z</time>
      </trkpt>
      <trkpt lat="45.29106" lon="4.19591">
        <ele>691.92307692308</ele>
        <time>2015-10-03T07:50:24.351Z</time>
      </trkpt>
      <trkpt lat="45.29107" lon="4.19601">
        <ele>692.61538461538</ele>
        <time>2015-10-03T07:50:28.340Z</time>
      </trkpt>
      <trkpt lat="45.29108" lon="4.19609">
        <ele>693.28</ele>
        <time>2015-10-03T07:50:31.373Z</time>
      </trkpt>
      <trkpt lat="45.29108" lon="4.19617">
        <ele>693.84615384615</ele>
        <time>2015-10-03T07:50:34.359Z</time>
      </trkpt>
      <trkpt lat="45.29108" lon="4.1962">
        <ele>694.15384615385</ele>
        <time>2015-10-03T07:50:35.373Z</time>
      </trkpt>
      <trkpt lat="45.29108" lon="4.19622">
        <ele>694.48</ele>
        <time>2015-10-03T07:50:36.390Z</time>
      </trkpt>
      <trkpt lat="45.29109" lon="4.19631">
        <ele>695.16</ele>
        <time>2015-10-03T07:50:39.393Z</time>
      </trkpt>
      <trkpt lat="45.29108" lon="4.19636">
        <ele>695.64</ele>
        <time>2015-10-03T07:50:41.365Z</time>
      </trkpt>
      <trkpt lat="45.29108" lon="4.19643">
        <ele>696.2</ele>
        <time>2015-10-03T07:50:44.393Z</time>
      </trkpt>
      <trkpt lat="45.29106" lon="4.19651">
        <ele>696.84</ele>
        <time>2015-10-03T07:50:48.376Z</time>
      </trkpt>
      <trkpt lat="45.29105" lon="4.19659">
        <ele>697.4</ele>
        <time>2015-10-03T07:50:52.361Z</time>
      </trkpt>
      <trkpt lat="45.29104" lon="4.19668">
        <ele>697.84</ele>
        <time>2015-10-03T07:50:55.379Z</time>
      </trkpt>
      <trkpt lat="45.29102" lon="4.1968">
        <ele>698.34615384615</ele>
        <time>2015-10-03T07:50:59.328Z</time>
      </trkpt>
      <trkpt lat="45.291" lon="4.19689">
        <ele>698.53846153846</ele>
        <time>2015-10-03T07:51:02.376Z</time>
      </trkpt>
      <trkpt lat="45.29098" lon="4.197">
        <ele>698.73076923077</ele>
        <time>2015-10-03T07:51:06.362Z</time>
      </trkpt>
      <trkpt lat="45.29095" lon="4.19711">
        <ele>699.03846153846</ele>
        <time>2015-10-03T07:51:10.352Z</time>
      </trkpt>
      <trkpt lat="45.29092" lon="4.19723">
        <ele>699.48</ele>
        <time>2015-10-03T07:51:14.370Z</time>
      </trkpt>
      <trkpt lat="45.2909" lon="4.19732">
        <ele>699.84</ele>
        <time>2015-10-03T07:51:17.375Z</time>
      </trkpt>
      <trkpt lat="45.29089" lon="4.19737">
        <ele>699.96153846154</ele>
        <time>2015-10-03T07:51:19.356Z</time>
      </trkpt>
      <trkpt lat="45.29089" lon="4.19739">
        <ele>700.07692307692</ele>
        <time>2015-10-03T07:51:20.368Z</time>
      </trkpt>
      <trkpt lat="45.29089" lon="4.19742">
        <ele>700.23076923077</ele>
        <time>2015-10-03T07:51:21.374Z</time>
      </trkpt>
      <trkpt lat="45.2909" lon="4.19747">
        <ele>700.48</ele>
        <time>2015-10-03T07:51:23.357Z</time>
      </trkpt>
      <trkpt lat="45.29092" lon="4.19757">
        <ele>700.80769230769</ele>
        <time>2015-10-03T07:51:27.332Z</time>
      </trkpt>
      <trkpt lat="45.29092" lon="4.19762">
        <ele>701.07692307692</ele>
        <time>2015-10-03T07:51:29.303Z</time>
      </trkpt>
      <trkpt lat="45.29092" lon="4.19764">
        <ele>701.23076923077</ele>
        <time>2015-10-03T07:51:30.285Z</time>
      </trkpt>
      <trkpt lat="45.29093" lon="4.19773">
        <ele>701.73076923077</ele>
        <time>2015-10-03T07:51:33.298Z</time>
      </trkpt>
      <trkpt lat="45.29093" lon="4.19779">
        <ele>702.16</ele>
        <time>2015-10-03T07:51:36.302Z</time>
      </trkpt>
      <trkpt lat="45.29094" lon="4.19788">
        <ele>702.6</ele>
        <time>2015-10-03T07:51:39.279Z</time>
      </trkpt>
      <trkpt lat="45.29094" lon="4.19793">
        <ele>702.96</ele>
        <time>2015-10-03T07:51:41.295Z</time>
      </trkpt>
      <trkpt lat="45.29094" lon="4.19794">
        <ele>703.08</ele>
        <time>2015-10-03T07:51:42.285Z</time>
      </trkpt>
      <trkpt lat="45.29095" lon="4.19799">
        <ele>703.56</ele>
        <time>2015-10-03T07:51:45.297Z</time>
      </trkpt>
      <trkpt lat="45.29094" lon="4.19801">
        <ele>703.68</ele>
        <time>2015-10-03T07:51:46.323Z</time>
      </trkpt>
      <trkpt lat="45.29093" lon="4.19807">
        <ele>704.04166666667</ele>
        <time>2015-10-03T07:51:48.364Z</time>
      </trkpt>
      <trkpt lat="45.29093" lon="4.19809">
        <ele>704.29166666667</ele>
        <time>2015-10-03T07:51:49.363Z</time>
      </trkpt>
      <trkpt lat="45.29093" lon="4.19812">
        <ele>704.5</ele>
        <time>2015-10-03T07:51:50.343Z</time>
      </trkpt>
      <trkpt lat="45.29094" lon="4.19813">
        <ele>704.6</ele>
        <time>2015-10-03T07:51:51.291Z</time>
      </trkpt>
      <trkpt lat="45.29096" lon="4.19821">
        <ele>705.375</ele>
        <time>2015-10-03T07:51:54.321Z</time>
      </trkpt>
      <trkpt lat="45.29097" lon="4.19823">
        <ele>705.54166666667</ele>
        <time>2015-10-03T07:51:55.328Z</time>
      </trkpt>
      <trkpt lat="45.29096" lon="4.19826">
        <ele>705.70833333333</ele>
        <time>2015-10-03T07:51:56.315Z</time>
      </trkpt>
      <trkpt lat="45.29095" lon="4.19828">
        <ele>705.875</ele>
        <time>2015-10-03T07:51:57.305Z</time>
      </trkpt>
      <trkpt lat="45.29094" lon="4.1983">
        <ele>706.08333333333</ele>
        <time>2015-10-03T07:51:58.304Z</time>
      </trkpt>
      <trkpt lat="45.29093" lon="4.19834">
        <ele>706.44</ele>
        <time>2015-10-03T07:52:00.313Z</time>
      </trkpt>
      <trkpt lat="45.29091" lon="4.19837">
        <ele>706.92</ele>
        <time>2015-10-03T07:52:02.331Z</time>
      </trkpt>
      <trkpt lat="45.2909" lon="4.19839">
        <ele>707.12</ele>
        <time>2015-10-03T07:52:03.350Z</time>
      </trkpt>
      <trkpt lat="45.29089" lon="4.1984">
        <ele>707.36</ele>
        <time>2015-10-03T07:52:04.374Z</time>
      </trkpt>
      <trkpt lat="45.29087" lon="4.19842">
        <ele>707.6</ele>
        <time>2015-10-03T07:52:05.376Z</time>
      </trkpt>
      <trkpt lat="45.29083" lon="4.19844">
        <ele>708</ele>
        <time>2015-10-03T07:52:07.358Z</time>
      </trkpt>
      <trkpt lat="45.29082" lon="4.19846">
        <ele>708.2</ele>
        <time>2015-10-03T07:52:08.351Z</time>
      </trkpt>
      <trkpt lat="45.29081" lon="4.1985">
        <ele>708.6</ele>
        <time>2015-10-03T07:52:10.312Z</time>
      </trkpt>
      <trkpt lat="45.2908" lon="4.19852">
        <ele>708.73076923077</ele>
        <time>2015-10-03T07:52:11.311Z</time>
      </trkpt>
      <trkpt lat="45.2908" lon="4.19856">
        <ele>709.53846153846</ele>
        <time>2015-10-03T07:52:14.302Z</time>
      </trkpt>
      <trkpt lat="45.29081" lon="4.19855">
        <ele>710.03846153846</ele>
        <time>2015-10-03T07:52:16.277Z</time>
      </trkpt>
      <trkpt lat="45.2908" lon="4.19856">
        <ele>710.36</ele>
        <time>2015-10-03T07:52:17.291Z</time>
      </trkpt>
      <trkpt lat="45.29078" lon="4.19859">
        <ele>710.65384615385</ele>
        <time>2015-10-03T07:52:19.298Z</time>
      </trkpt>
      <trkpt lat="45.29078" lon="4.1986">
        <ele>710.84615384615</ele>
        <time>2015-10-03T07:52:20.286Z</time>
      </trkpt>
      <trkpt lat="45.29078" lon="4.19862">
        <ele>711.07692307692</ele>
        <time>2015-10-03T07:52:21.267Z</time>
      </trkpt>
      <trkpt lat="45.29077" lon="4.19865">
        <ele>711.30769230769</ele>
        <time>2015-10-03T07:52:22.289Z</time>
      </trkpt>
      <trkpt lat="45.29076" lon="4.19866">
        <ele>711.53846153846</ele>
        <time>2015-10-03T07:52:23.282Z</time>
      </trkpt>
      <trkpt lat="45.29076" lon="4.19868">
        <ele>711.73076923077</ele>
        <time>2015-10-03T07:52:24.264Z</time>
      </trkpt>
      <trkpt lat="45.29076" lon="4.1987">
        <ele>711.88461538462</ele>
        <time>2015-10-03T07:52:25.270Z</time>
      </trkpt>
      <trkpt lat="45.29076" lon="4.19872">
        <ele>712.12</ele>
        <time>2015-10-03T07:52:26.339Z</time>
      </trkpt>
      <trkpt lat="45.29077" lon="4.19874">
        <ele>712.19230769231</ele>
        <time>2015-10-03T07:52:27.315Z</time>
      </trkpt>
      <trkpt lat="45.29077" lon="4.19877">
        <ele>712.30769230769</ele>
        <time>2015-10-03T07:52:28.283Z</time>
      </trkpt>
      <trkpt lat="45.29077" lon="4.1988">
        <ele>712.46153846154</ele>
        <time>2015-10-03T07:52:29.296Z</time>
      </trkpt>
      <trkpt lat="45.29076" lon="4.19883">
        <ele>712.61538461538</ele>
        <time>2015-10-03T07:52:30.310Z</time>
      </trkpt>
      <trkpt lat="45.29076" lon="4.19885">
        <ele>712.76923076923</ele>
        <time>2015-10-03T07:52:31.317Z</time>
      </trkpt>
      <trkpt lat="45.29075" lon="4.19888">
        <ele>712.92307692308</ele>
        <time>2015-10-03T07:52:32.300Z</time>
      </trkpt>
      <trkpt lat="45.29075" lon="4.19891">
        <ele>713.07692307692</ele>
        <time>2015-10-03T07:52:33.304Z</time>
      </trkpt>
      <trkpt lat="45.29076" lon="4.19894">
        <ele>713.23076923077</ele>
        <time>2015-10-03T07:52:34.312Z</time>
      </trkpt>
      <trkpt lat="45.29077" lon="4.19898">
        <ele>713.52</ele>
        <time>2015-10-03T07:52:35.323Z</time>
      </trkpt>
      <trkpt lat="45.29078" lon="4.19901">
        <ele>713.57692307692</ele>
        <time>2015-10-03T07:52:36.302Z</time>
      </trkpt>
      <trkpt lat="45.29079" lon="4.19903">
        <ele>713.69230769231</ele>
        <time>2015-10-03T07:52:37.278Z</time>
      </trkpt>
      <trkpt lat="45.2908" lon="4.19905">
        <ele>713.84615384615</ele>
        <time>2015-10-03T07:52:38.267Z</time>
      </trkpt>
      <trkpt lat="45.29081" lon="4.19908">
        <ele>713.96153846154</ele>
        <time>2015-10-03T07:52:39.271Z</time>
      </trkpt>
      <trkpt lat="45.29082" lon="4.19914">
        <ele>714.36</ele>
        <time>2015-10-03T07:52:41.324Z</time>
      </trkpt>
      <trkpt lat="45.29083" lon="4.19916">
        <ele>714.46153846154</ele>
        <time>2015-10-03T07:52:42.279Z</time>
      </trkpt>
      <trkpt lat="45.29084" lon="4.19917">
        <ele>714.61538461538</ele>
        <time>2015-10-03T07:52:43.285Z</time>
      </trkpt>
      <trkpt lat="45.29086" lon="4.1992">
        <ele>714.80769230769</ele>
        <time>2015-10-03T07:52:44.285Z</time>
      </trkpt>
      <trkpt lat="45.29086" lon="4.19923">
        <ele>715</ele>
        <time>2015-10-03T07:52:45.284Z</time>
      </trkpt>
      <trkpt lat="45.29085" lon="4.19929">
        <ele>715.34615384615</ele>
        <time>2015-10-03T07:52:47.271Z</time>
      </trkpt>
      <trkpt lat="45.29085" lon="4.19933">
        <ele>715.5</ele>
        <time>2015-10-03T07:52:48.268Z</time>
      </trkpt>
      <trkpt lat="45.29086" lon="4.19936">
        <ele>715.72</ele>
        <time>2015-10-03T07:52:49.279Z</time>
      </trkpt>
      <trkpt lat="45.29088" lon="4.19942">
        <ele>715.96153846154</ele>
        <time>2015-10-03T07:52:51.291Z</time>
      </trkpt>
      <trkpt lat="45.29089" lon="4.19945">
        <ele>716.15384615385</ele>
        <time>2015-10-03T07:52:52.265Z</time>
      </trkpt>
      <trkpt lat="45.2909" lon="4.19948">
        <ele>716.30769230769</ele>
        <time>2015-10-03T07:52:53.271Z</time>
      </trkpt>
      <trkpt lat="45.29094" lon="4.19957">
        <ele>716.92</ele>
        <time>2015-10-03T07:52:56.340Z</time>
      </trkpt>
      <trkpt lat="45.29096" lon="4.19965">
        <ele>717.52</ele>
        <time>2015-10-03T07:52:59.320Z</time>
      </trkpt>
      <trkpt lat="45.29097" lon="4.19966">
        <ele>717.61538461538</ele>
        <time>2015-10-03T07:53:00.282Z</time>
      </trkpt>
      <trkpt lat="45.29098" lon="4.19969">
        <ele>717.80769230769</ele>
        <time>2015-10-03T07:53:01.301Z</time>
      </trkpt>
      <trkpt lat="45.29098" lon="4.19971">
        <ele>718.12</ele>
        <time>2015-10-03T07:53:02.302Z</time>
      </trkpt>
      <trkpt lat="45.29099" lon="4.19975">
        <ele>718.4</ele>
        <time>2015-10-03T07:53:04.308Z</time>
      </trkpt>
      <trkpt lat="45.29101" lon="4.19982">
        <ele>718.84</ele>
        <time>2015-10-03T07:53:07.300Z</time>
      </trkpt>
      <trkpt lat="45.29101" lon="4.19984">
        <ele>718.96</ele>
        <time>2015-10-03T07:53:08.347Z</time>
      </trkpt>
      <trkpt lat="45.29102" lon="4.19986">
        <ele>719.04</ele>
        <time>2015-10-03T07:53:09.347Z</time>
      </trkpt>
      <trkpt lat="45.29102" lon="4.19989">
        <ele>719.12</ele>
        <time>2015-10-03T07:53:10.302Z</time>
      </trkpt>
      <trkpt lat="45.29103" lon="4.19991">
        <ele>719.24</ele>
        <time>2015-10-03T07:53:11.315Z</time>
      </trkpt>
      <trkpt lat="45.29103" lon="4.19993">
        <ele>719.36</ele>
        <time>2015-10-03T07:53:12.359Z</time>
      </trkpt>
      <trkpt lat="45.29104" lon="4.19999">
        <ele>719.64</ele>
        <time>2015-10-03T07:53:14.380Z</time>
      </trkpt>
      <trkpt lat="45.29106" lon="4.20004">
        <ele>720.04</ele>
        <time>2015-10-03T07:53:16.374Z</time>
      </trkpt>
      <trkpt lat="45.29109" lon="4.20014">
        <ele>720.68</ele>
        <time>2015-10-03T07:53:20.343Z</time>
      </trkpt>
      <trkpt lat="45.29109" lon="4.20016">
        <ele>720.8</ele>
        <time>2015-10-03T07:53:21.357Z</time>
      </trkpt>
      <trkpt lat="45.29109" lon="4.20017">
        <ele>720.92</ele>
        <time>2015-10-03T07:53:22.337Z</time>
      </trkpt>
      <trkpt lat="45.2911" lon="4.20021">
        <ele>721.07692307692</ele>
        <time>2015-10-03T07:53:24.306Z</time>
      </trkpt>
      <trkpt lat="45.29111" lon="4.20029">
        <ele>721.52</ele>
        <time>2015-10-03T07:53:27.372Z</time>
      </trkpt>
      <trkpt lat="45.29111" lon="4.20031">
        <ele>721.72</ele>
        <time>2015-10-03T07:53:28.359Z</time>
      </trkpt>
      <trkpt lat="45.29112" lon="4.20033">
        <ele>721.88</ele>
        <time>2015-10-03T07:53:29.348Z</time>
      </trkpt>
      <trkpt lat="45.29113" lon="4.20035">
        <ele>722.04</ele>
        <time>2015-10-03T07:53:30.335Z</time>
      </trkpt>
      <trkpt lat="45.29114" lon="4.20041">
        <ele>722.36</ele>
        <time>2015-10-03T07:53:32.365Z</time>
      </trkpt>
      <trkpt lat="45.29117" lon="4.20049">
        <ele>722.91666666667</ele>
        <time>2015-10-03T07:53:35.354Z</time>
      </trkpt>
      <trkpt lat="45.29117" lon="4.20051">
        <ele>723.08333333333</ele>
        <time>2015-10-03T07:53:36.364Z</time>
      </trkpt>
      <trkpt lat="45.29118" lon="4.20054">
        <ele>723.16</ele>
        <time>2015-10-03T07:53:37.348Z</time>
      </trkpt>
      <trkpt lat="45.29118" lon="4.20056">
        <ele>723.32</ele>
        <time>2015-10-03T07:53:38.360Z</time>
      </trkpt>
      <trkpt lat="45.29117" lon="4.20058">
        <ele>723.52</ele>
        <time>2015-10-03T07:53:39.356Z</time>
      </trkpt>
      <trkpt lat="45.29116" lon="4.2006">
        <ele>723.68</ele>
        <time>2015-10-03T07:53:40.346Z</time>
      </trkpt>
      <trkpt lat="45.29115" lon="4.20062">
        <ele>723.8</ele>
        <time>2015-10-03T07:53:41.335Z</time>
      </trkpt>
      <trkpt lat="45.29115" lon="4.20064">
        <ele>723.96</ele>
        <time>2015-10-03T07:53:42.318Z</time>
      </trkpt>
      <trkpt lat="45.29115" lon="4.20069">
        <ele>724.48</ele>
        <time>2015-10-03T07:53:45.287Z</time>
      </trkpt>
      <trkpt lat="45.29115" lon="4.2007">
        <ele>724.64</ele>
        <time>2015-10-03T07:53:46.303Z</time>
      </trkpt>
      <trkpt lat="45.29115" lon="4.20072">
        <ele>724.84</ele>
        <time>2015-10-03T07:53:47.304Z</time>
      </trkpt>
      <trkpt lat="45.29114" lon="4.20075">
        <ele>725.20833333333</ele>
        <time>2015-10-03T07:53:48.306Z</time>
      </trkpt>
      <trkpt lat="45.29113" lon="4.20077">
        <ele>725.45833333333</ele>
        <time>2015-10-03T07:53:49.332Z</time>
      </trkpt>
      <trkpt lat="45.2911" lon="4.20082">
        <ele>725.8</ele>
        <time>2015-10-03T07:53:51.360Z</time>
      </trkpt>
      <trkpt lat="45.29108" lon="4.20093">
        <ele>726.45833333333</ele>
        <time>2015-10-03T07:53:55.362Z</time>
      </trkpt>
      <trkpt lat="45.29107" lon="4.20104">
        <ele>727.04</ele>
        <time>2015-10-03T07:53:59.328Z</time>
      </trkpt>
      <trkpt lat="45.29107" lon="4.20106">
        <ele>727.07692307692</ele>
        <time>2015-10-03T07:54:00.337Z</time>
      </trkpt>
      <trkpt lat="45.29108" lon="4.20114">
        <ele>727.46153846154</ele>
        <time>2015-10-03T07:54:03.330Z</time>
      </trkpt>
      <trkpt lat="45.29108" lon="4.20114">
        <ele>727.61538461538</ele>
        <time>2015-10-03T07:54:04.325Z</time>
      </trkpt>
      <trkpt lat="45.29108" lon="4.20116">
        <ele>727.73076923077</ele>
        <time>2015-10-03T07:54:05.293Z</time>
      </trkpt>
      <trkpt lat="45.29108" lon="4.20118">
        <ele>727.96</ele>
        <time>2015-10-03T07:54:06.687Z</time>
      </trkpt>
      <trkpt lat="45.29108" lon="4.20121">
        <ele>728.03846153846</ele>
        <time>2015-10-03T07:54:07.269Z</time>
      </trkpt>
      <trkpt lat="45.29108" lon="4.20123">
        <ele>728.2</ele>
        <time>2015-10-03T07:54:08.282Z</time>
      </trkpt>
      <trkpt lat="45.29108" lon="4.20125">
        <ele>728.36</ele>
        <time>2015-10-03T07:54:09.280Z</time>
      </trkpt>
      <trkpt lat="45.29109" lon="4.20127">
        <ele>728.46153846154</ele>
        <time>2015-10-03T07:54:10.287Z</time>
      </trkpt>
      <trkpt lat="45.29109" lon="4.20129">
        <ele>728.76</ele>
        <time>2015-10-03T07:54:11.317Z</time>
      </trkpt>
      <trkpt lat="45.29108" lon="4.20132">
        <ele>728.92</ele>
        <time>2015-10-03T07:54:12.357Z</time>
      </trkpt>
      <trkpt lat="45.29107" lon="4.20145">
        <ele>729.23076923077</ele>
        <time>2015-10-03T07:54:16.325Z</time>
      </trkpt>
      <trkpt lat="45.29106" lon="4.20148">
        <ele>729.38461538462</ele>
        <time>2015-10-03T07:54:17.329Z</time>
      </trkpt>
      <trkpt lat="45.29105" lon="4.20155">
        <ele>729.73076923077</ele>
        <time>2015-10-03T07:54:19.332Z</time>
      </trkpt>
      <trkpt lat="45.29104" lon="4.20158">
        <ele>729.88461538462</ele>
        <time>2015-10-03T07:54:20.317Z</time>
      </trkpt>
      <trkpt lat="45.29103" lon="4.20163">
        <ele>730.03846153846</ele>
        <time>2015-10-03T07:54:22.310Z</time>
      </trkpt>
      <trkpt lat="45.29102" lon="4.20171">
        <ele>730.5</ele>
        <time>2015-10-03T07:54:25.336Z</time>
      </trkpt>
      <trkpt lat="45.29101" lon="4.20182">
        <ele>731.16</ele>
        <time>2015-10-03T07:54:29.338Z</time>
      </trkpt>
      <trkpt lat="45.29101" lon="4.20185">
        <ele>731.28</ele>
        <time>2015-10-03T07:54:30.376Z</time>
      </trkpt>
      <trkpt lat="45.291" lon="4.20194">
        <ele>731.64</ele>
        <time>2015-10-03T07:54:33.350Z</time>
      </trkpt>
      <trkpt lat="45.29101" lon="4.20202">
        <ele>731.88</ele>
        <time>2015-10-03T07:54:36.366Z</time>
      </trkpt>
      <trkpt lat="45.29101" lon="4.2021">
        <ele>732.24</ele>
        <time>2015-10-03T07:54:39.384Z</time>
      </trkpt>
      <trkpt lat="45.291" lon="4.20222">
        <ele>732.69230769231</ele>
        <time>2015-10-03T07:54:43.329Z</time>
      </trkpt>
      <trkpt lat="45.291" lon="4.20231">
        <ele>732.92307692308</ele>
        <time>2015-10-03T07:54:46.320Z</time>
      </trkpt>
      <trkpt lat="45.29099" lon="4.20241">
        <ele>733.26923076923</ele>
        <time>2015-10-03T07:54:49.326Z</time>
      </trkpt>
      <trkpt lat="45.29099" lon="4.20247">
        <ele>733.52</ele>
        <time>2015-10-03T07:54:51.320Z</time>
      </trkpt>
      <trkpt lat="45.29099" lon="4.20259">
        <ele>733.88461538462</ele>
        <time>2015-10-03T07:54:55.316Z</time>
      </trkpt>
      <trkpt lat="45.29099" lon="4.20265">
        <ele>734.15384615385</ele>
        <time>2015-10-03T07:54:57.332Z</time>
      </trkpt>
      <trkpt lat="45.29099" lon="4.20272">
        <ele>734.30769230769</ele>
        <time>2015-10-03T07:54:59.315Z</time>
      </trkpt>
      <trkpt lat="45.291" lon="4.20279">
        <ele>734.61538461538</ele>
        <time>2015-10-03T07:55:01.324Z</time>
      </trkpt>
      <trkpt lat="45.29102" lon="4.20292">
        <ele>735.07692307692</ele>
        <time>2015-10-03T07:55:05.301Z</time>
      </trkpt>
      <trkpt lat="45.29102" lon="4.20296">
        <ele>735.19230769231</ele>
        <time>2015-10-03T07:55:06.298Z</time>
      </trkpt>
      <trkpt lat="45.29102" lon="4.20298">
        <ele>735.23076923077</ele>
        <time>2015-10-03T07:55:07.297Z</time>
      </trkpt>
      <trkpt lat="45.29102" lon="4.203">
        <ele>735.34615384615</ele>
        <time>2015-10-03T07:55:08.289Z</time>
      </trkpt>
      <trkpt lat="45.29102" lon="4.20307">
        <ele>735.92307692308</ele>
        <time>2015-10-03T07:55:11.312Z</time>
      </trkpt>
      <trkpt lat="45.29102" lon="4.20314">
        <ele>736.34615384615</ele>
        <time>2015-10-03T07:55:14.315Z</time>
      </trkpt>
      <trkpt lat="45.29101" lon="4.20316">
        <ele>736.42307692308</ele>
        <time>2015-10-03T07:55:15.305Z</time>
      </trkpt>
      <trkpt lat="45.29101" lon="4.20328">
        <ele>737.03846153846</ele>
        <time>2015-10-03T07:55:19.295Z</time>
      </trkpt>
      <trkpt lat="45.291" lon="4.20334">
        <ele>737.30769230769</ele>
        <time>2015-10-03T07:55:21.300Z</time>
      </trkpt>
      <trkpt lat="45.29099" lon="4.20344">
        <ele>737.73076923077</ele>
        <time>2015-10-03T07:55:24.310Z</time>
      </trkpt>
      <trkpt lat="45.29098" lon="4.2035">
        <ele>738.03846153846</ele>
        <time>2015-10-03T07:55:26.309Z</time>
      </trkpt>
      <trkpt lat="45.29098" lon="4.20353">
        <ele>738.07692307692</ele>
        <time>2015-10-03T07:55:27.296Z</time>
      </trkpt>
      <trkpt lat="45.29097" lon="4.20363">
        <ele>738.46153846154</ele>
        <time>2015-10-03T07:55:30.296Z</time>
      </trkpt>
      <trkpt lat="45.29096" lon="4.20366">
        <ele>738.64</ele>
        <time>2015-10-03T07:55:31.305Z</time>
      </trkpt>
      <trkpt lat="45.29093" lon="4.20377">
        <ele>739.04166666667</ele>
        <time>2015-10-03T07:55:35.307Z</time>
      </trkpt>
      <trkpt lat="45.29091" lon="4.20386">
        <ele>739.375</ele>
        <time>2015-10-03T07:55:38.312Z</time>
      </trkpt>
      <trkpt lat="45.29086" lon="4.20397">
        <ele>739.72</ele>
        <time>2015-10-03T07:55:42.309Z</time>
      </trkpt>
      <trkpt lat="45.29083" lon="4.20405">
        <ele>739.95833333333</ele>
        <time>2015-10-03T07:55:45.309Z</time>
      </trkpt>
      <trkpt lat="45.2908" lon="4.2041">
        <ele>740.12</ele>
        <time>2015-10-03T07:55:47.296Z</time>
      </trkpt>
      <trkpt lat="45.29076" lon="4.20417">
        <ele>740.4</ele>
        <time>2015-10-03T07:55:50.299Z</time>
      </trkpt>
      <trkpt lat="45.29072" lon="4.20427">
        <ele>740.66666666667</ele>
        <time>2015-10-03T07:55:53.304Z</time>
      </trkpt>
      <trkpt lat="45.29068" lon="4.20437">
        <ele>740.95833333333</ele>
        <time>2015-10-03T07:55:56.308Z</time>
      </trkpt>
      <trkpt lat="45.29061" lon="4.20449">
        <ele>741.23076923077</ele>
        <time>2015-10-03T07:56:00.297Z</time>
      </trkpt>
      <trkpt lat="45.29057" lon="4.20457">
        <ele>741.53846153846</ele>
        <time>2015-10-03T07:56:03.312Z</time>
      </trkpt>
      <trkpt lat="45.29051" lon="4.20469">
        <ele>741.96153846154</ele>
        <time>2015-10-03T07:56:07.309Z</time>
      </trkpt>
      <trkpt lat="45.29047" lon="4.20485">
        <ele>742.48</ele>
        <time>2015-10-03T07:56:11.302Z</time>
      </trkpt>
      <trkpt lat="45.29042" lon="4.20498">
        <ele>742.96</ele>
        <time>2015-10-03T07:56:15.303Z</time>
      </trkpt>
      <trkpt lat="45.29036" lon="4.20508">
        <ele>743.34615384615</ele>
        <time>2015-10-03T07:56:19.303Z</time>
      </trkpt>
      <trkpt lat="45.29033" lon="4.20517">
        <ele>743.73076923077</ele>
        <time>2015-10-03T07:56:22.311Z</time>
      </trkpt>
      <trkpt lat="45.29029" lon="4.20529">
        <ele>744.28</ele>
        <time>2015-10-03T07:56:26.298Z</time>
      </trkpt>
      <trkpt lat="45.29028" lon="4.20532">
        <ele>744.4</ele>
        <time>2015-10-03T07:56:27.302Z</time>
      </trkpt>
      <trkpt lat="45.29028" lon="4.20536">
        <ele>744.46153846154</ele>
        <time>2015-10-03T07:56:28.303Z</time>
      </trkpt>
      <trkpt lat="45.29027" lon="4.20543">
        <ele>744.8</ele>
        <time>2015-10-03T07:56:30.320Z</time>
      </trkpt>
      <trkpt lat="45.29028" lon="4.20547">
        <ele>744.96</ele>
        <time>2015-10-03T07:56:31.326Z</time>
      </trkpt>
      <trkpt lat="45.29028" lon="4.2055">
        <ele>745</ele>
        <time>2015-10-03T07:56:32.300Z</time>
      </trkpt>
      <trkpt lat="45.29029" lon="4.20553">
        <ele>745.07692307692</ele>
        <time>2015-10-03T07:56:33.305Z</time>
      </trkpt>
      <trkpt lat="45.2903" lon="4.20558">
        <ele>745.4</ele>
        <time>2015-10-03T07:56:35.321Z</time>
      </trkpt>
      <trkpt lat="45.29033" lon="4.20569">
        <ele>746.04</ele>
        <time>2015-10-03T07:56:39.314Z</time>
      </trkpt>
      <trkpt lat="45.29035" lon="4.2058">
        <ele>746.72</ele>
        <time>2015-10-03T07:56:43.301Z</time>
      </trkpt>
      <trkpt lat="45.29037" lon="4.2059">
        <ele>747.11538461538</ele>
        <time>2015-10-03T07:56:47.302Z</time>
      </trkpt>
      <trkpt lat="45.29038" lon="4.20597">
        <ele>747.65384615385</ele>
        <time>2015-10-03T07:56:50.282Z</time>
      </trkpt>
      <trkpt lat="45.29039" lon="4.20599">
        <ele>747.80769230769</ele>
        <time>2015-10-03T07:56:51.260Z</time>
      </trkpt>
      <trkpt lat="45.29039" lon="4.206">
        <ele>748</ele>
        <time>2015-10-03T07:56:52.263Z</time>
      </trkpt>
      <trkpt lat="45.29039" lon="4.20604">
        <ele>748.42307692308</ele>
        <time>2015-10-03T07:56:54.264Z</time>
      </trkpt>
      <trkpt lat="45.2904" lon="4.20612">
        <ele>748.92307692308</ele>
        <time>2015-10-03T07:56:57.263Z</time>
      </trkpt>
      <trkpt lat="45.2904" lon="4.20614">
        <ele>749.11538461538</ele>
        <time>2015-10-03T07:56:58.273Z</time>
      </trkpt>
      <trkpt lat="45.29041" lon="4.20617">
        <ele>749.30769230769</ele>
        <time>2015-10-03T07:56:59.286Z</time>
      </trkpt>
      <trkpt lat="45.29041" lon="4.20619">
        <ele>749.5</ele>
        <time>2015-10-03T07:57:00.302Z</time>
      </trkpt>
      <trkpt lat="45.29043" lon="4.20626">
        <ele>750</ele>
        <time>2015-10-03T07:57:02.307Z</time>
      </trkpt>
      <trkpt lat="45.29044" lon="4.20638">
        <ele>750.65384615385</ele>
        <time>2015-10-03T07:57:06.290Z</time>
      </trkpt>
      <trkpt lat="45.29045" lon="4.20641">
        <ele>750.84615384615</ele>
        <time>2015-10-03T07:57:07.296Z</time>
      </trkpt>
      <trkpt lat="45.29045" lon="4.20644">
        <ele>751.16</ele>
        <time>2015-10-03T07:57:08.304Z</time>
      </trkpt>
      <trkpt lat="45.29046" lon="4.20653">
        <ele>751.84615384615</ele>
        <time>2015-10-03T07:57:12.291Z</time>
      </trkpt>
      <trkpt lat="45.29046" lon="4.20654">
        <ele>752.03846153846</ele>
        <time>2015-10-03T07:57:13.270Z</time>
      </trkpt>
      <trkpt lat="45.29046" lon="4.2066">
        <ele>752.64</ele>
        <time>2015-10-03T07:57:16.271Z</time>
      </trkpt>
      <trkpt lat="45.29046" lon="4.20662">
        <ele>752.76</ele>
        <time>2015-10-03T07:57:17.275Z</time>
      </trkpt>
      <trkpt lat="45.29046" lon="4.20667">
        <ele>753.04</ele>
        <time>2015-10-03T07:57:19.266Z</time>
      </trkpt>
      <trkpt lat="45.29046" lon="4.20669">
        <ele>753.2</ele>
        <time>2015-10-03T07:57:20.267Z</time>
      </trkpt>
      <trkpt lat="45.29046" lon="4.20672">
        <ele>753.36</ele>
        <time>2015-10-03T07:57:21.276Z</time>
      </trkpt>
      <trkpt lat="45.29046" lon="4.20674">
        <ele>753.52</ele>
        <time>2015-10-03T07:57:22.272Z</time>
      </trkpt>
      <trkpt lat="45.29046" lon="4.20677">
        <ele>753.68</ele>
        <time>2015-10-03T07:57:23.275Z</time>
      </trkpt>
      <trkpt lat="45.29047" lon="4.20679">
        <ele>753.88</ele>
        <time>2015-10-03T07:57:24.289Z</time>
      </trkpt>
      <trkpt lat="45.29046" lon="4.20684">
        <ele>754.07692307692</ele>
        <time>2015-10-03T07:57:26.280Z</time>
      </trkpt>
      <trkpt lat="45.29046" lon="4.20695">
        <ele>754.48</ele>
        <time>2015-10-03T07:57:29.302Z</time>
      </trkpt>
      <trkpt lat="45.29046" lon="4.20697">
        <ele>754.53846153846</ele>
        <time>2015-10-03T07:57:30.281Z</time>
      </trkpt>
      <trkpt lat="45.29046" lon="4.20699">
        <ele>754.65384615385</ele>
        <time>2015-10-03T07:57:31.263Z</time>
      </trkpt>
      <trkpt lat="45.29046" lon="4.20702">
        <ele>754.76923076923</ele>
        <time>2015-10-03T07:57:32.274Z</time>
      </trkpt>
      <trkpt lat="45.29045" lon="4.20713">
        <ele>755.28</ele>
        <time>2015-10-03T07:57:36.265Z</time>
      </trkpt>
      <trkpt lat="45.29045" lon="4.20721">
        <ele>755.83333333333</ele>
        <time>2015-10-03T07:57:39.271Z</time>
      </trkpt>
      <trkpt lat="45.29044" lon="4.20727">
        <ele>756.125</ele>
        <time>2015-10-03T07:57:41.302Z</time>
      </trkpt>
      <trkpt lat="45.29043" lon="4.20735">
        <ele>756.625</ele>
        <time>2015-10-03T07:57:44.319Z</time>
      </trkpt>
      <trkpt lat="45.29043" lon="4.20741">
        <ele>756.875</ele>
        <time>2015-10-03T07:57:46.312Z</time>
      </trkpt>
      <trkpt lat="45.29042" lon="4.20749">
        <ele>757.25</ele>
        <time>2015-10-03T07:57:49.305Z</time>
      </trkpt>
      <trkpt lat="45.29042" lon="4.20758">
        <ele>757.625</ele>
        <time>2015-10-03T07:57:52.306Z</time>
      </trkpt>
      <trkpt lat="45.29043" lon="4.20773">
        <ele>757.875</ele>
        <time>2015-10-03T07:57:56.304Z</time>
      </trkpt>
      <trkpt lat="45.29044" lon="4.20786">
        <ele>757.91666666667</ele>
        <time>2015-10-03T07:57:59.305Z</time>
      </trkpt>
      <trkpt lat="45.29044" lon="4.20797">
        <ele>757.96</ele>
        <time>2015-10-03T07:58:02.295Z</time>
      </trkpt>
      <trkpt lat="45.29043" lon="4.20801">
        <ele>758</ele>
        <time>2015-10-03T07:58:03.293Z</time>
      </trkpt>
      <trkpt lat="45.29043" lon="4.20805">
        <ele>758</ele>
        <time>2015-10-03T07:58:04.293Z</time>
      </trkpt>
      <trkpt lat="45.29042" lon="4.20809">
        <ele>758.03846153846</ele>
        <time>2015-10-03T07:58:05.293Z</time>
      </trkpt>
      <trkpt lat="45.2904" lon="4.20812">
        <ele>758.11538461538</ele>
        <time>2015-10-03T07:58:06.298Z</time>
      </trkpt>
      <trkpt lat="45.29039" lon="4.20815">
        <ele>758.07692307692</ele>
        <time>2015-10-03T07:58:07.298Z</time>
      </trkpt>
      <trkpt lat="45.29037" lon="4.20822">
        <ele>758.03846153846</ele>
        <time>2015-10-03T07:58:09.305Z</time>
      </trkpt>
      <trkpt lat="45.29031" lon="4.20835">
        <ele>757.96</ele>
        <time>2015-10-03T07:58:13.313Z</time>
      </trkpt>
      <trkpt lat="45.29025" lon="4.20849">
        <ele>757.96153846154</ele>
        <time>2015-10-03T07:58:17.303Z</time>
      </trkpt>
      <trkpt lat="45.29024" lon="4.20853">
        <ele>757.96</ele>
        <time>2015-10-03T07:58:18.308Z</time>
      </trkpt>
      <trkpt lat="45.29022" lon="4.20861">
        <ele>758</ele>
        <time>2015-10-03T07:58:20.290Z</time>
      </trkpt>
      <trkpt lat="45.29019" lon="4.20873">
        <ele>758.16</ele>
        <time>2015-10-03T07:58:23.318Z</time>
      </trkpt>
      <trkpt lat="45.29015" lon="4.20888">
        <ele>758.26923076923</ele>
        <time>2015-10-03T07:58:27.290Z</time>
      </trkpt>
      <trkpt lat="45.29014" lon="4.2089">
        <ele>758.34615384615</ele>
        <time>2015-10-03T07:58:28.281Z</time>
      </trkpt>
      <trkpt lat="45.29013" lon="4.20893">
        <ele>758.38461538462</ele>
        <time>2015-10-03T07:58:29.279Z</time>
      </trkpt>
      <trkpt lat="45.2901" lon="4.20902">
        <ele>758.64</ele>
        <time>2015-10-03T07:58:32.318Z</time>
      </trkpt>
      <trkpt lat="45.29009" lon="4.20907">
        <ele>758.8</ele>
        <time>2015-10-03T07:58:34.314Z</time>
      </trkpt>
      <trkpt lat="45.29008" lon="4.20918">
        <ele>759.38461538462</ele>
        <time>2015-10-03T07:58:38.306Z</time>
      </trkpt>
      <trkpt lat="45.29008" lon="4.2092">
        <ele>759.53846153846</ele>
        <time>2015-10-03T07:58:39.297Z</time>
      </trkpt>
      <trkpt lat="45.29009" lon="4.20922">
        <ele>759.73076923077</ele>
        <time>2015-10-03T07:58:40.297Z</time>
      </trkpt>
      <trkpt lat="45.2901" lon="4.20924">
        <ele>759.96153846154</ele>
        <time>2015-10-03T07:58:41.295Z</time>
      </trkpt>
      <trkpt lat="45.29011" lon="4.20926">
        <ele>760.2</ele>
        <time>2015-10-03T07:58:42.304Z</time>
      </trkpt>
      <trkpt lat="45.29014" lon="4.20929">
        <ele>760.64</ele>
        <time>2015-10-03T07:58:44.307Z</time>
      </trkpt>
      <trkpt lat="45.29015" lon="4.2093">
        <ele>760.80769230769</ele>
        <time>2015-10-03T07:58:45.285Z</time>
      </trkpt>
      <trkpt lat="45.29017" lon="4.20932">
        <ele>761.03846153846</ele>
        <time>2015-10-03T07:58:46.283Z</time>
      </trkpt>
      <trkpt lat="45.29021" lon="4.20935">
        <ele>761.5</ele>
        <time>2015-10-03T07:58:48.301Z</time>
      </trkpt>
      <trkpt lat="45.29023" lon="4.20936">
        <ele>761.73076923077</ele>
        <time>2015-10-03T07:58:49.305Z</time>
      </trkpt>
      <trkpt lat="45.29027" lon="4.20937">
        <ele>762.36</ele>
        <time>2015-10-03T07:58:51.315Z</time>
      </trkpt>
      <trkpt lat="45.29029" lon="4.20938">
        <ele>762.6</ele>
        <time>2015-10-03T07:58:52.306Z</time>
      </trkpt>
      <trkpt lat="45.29029" lon="4.20938">
        <ele>762.8</ele>
        <time>2015-10-03T07:58:53.284Z</time>
      </trkpt>
      <trkpt lat="45.2903" lon="4.20938">
        <ele>762.88461538462</ele>
        <time>2015-10-03T07:58:54.260Z</time>
      </trkpt>
      <trkpt lat="45.29032" lon="4.20939">
        <ele>763.11538461538</ele>
        <time>2015-10-03T07:58:55.263Z</time>
      </trkpt>
      <trkpt lat="45.29032" lon="4.20937">
        <ele>763.34615384615</ele>
        <time>2015-10-03T07:58:56.257Z</time>
      </trkpt>
      <trkpt lat="45.29034" lon="4.20935">
        <ele>763.53846153846</ele>
        <time>2015-10-03T07:58:57.264Z</time>
      </trkpt>
      <trkpt lat="45.29035" lon="4.20934">
        <ele>763.73076923077</ele>
        <time>2015-10-03T07:58:58.269Z</time>
      </trkpt>
      <trkpt lat="45.29037" lon="4.20932">
        <ele>763.96153846154</ele>
        <time>2015-10-03T07:58:59.263Z</time>
      </trkpt>
      <trkpt lat="45.29038" lon="4.20929">
        <ele>764.19230769231</ele>
        <time>2015-10-03T07:59:00.264Z</time>
      </trkpt>
      <trkpt lat="45.29038" lon="4.20926">
        <ele>764.34615384615</ele>
        <time>2015-10-03T07:59:01.267Z</time>
      </trkpt>
      <trkpt lat="45.29036" lon="4.20923">
        <ele>764.46153846154</ele>
        <time>2015-10-03T07:59:02.263Z</time>
      </trkpt>
      <trkpt lat="45.29034" lon="4.20922">
        <ele>764.61538461538</ele>
        <time>2015-10-03T07:59:03.265Z</time>
      </trkpt>
      <trkpt lat="45.29033" lon="4.20923">
        <ele>764.73076923077</ele>
        <time>2015-10-03T07:59:04.260Z</time>
      </trkpt>
      <trkpt lat="45.29032" lon="4.20924">
        <ele>764.92307692308</ele>
        <time>2015-10-03T07:59:05.255Z</time>
      </trkpt>
      <trkpt lat="45.29031" lon="4.20925">
        <ele>765</ele>
        <time>2015-10-03T07:59:06.257Z</time>
      </trkpt>
      <trkpt lat="45.29031" lon="4.20927">
        <ele>765.11538461538</ele>
        <time>2015-10-03T07:59:07.265Z</time>
      </trkpt>
      <trkpt lat="45.29031" lon="4.20928">
        <ele>765.23076923077</ele>
        <time>2015-10-03T07:59:08.258Z</time>
      </trkpt>
      <trkpt lat="45.29031" lon="4.20929">
        <ele>765.34615384615</ele>
        <time>2015-10-03T07:59:09.261Z</time>
      </trkpt>
      <trkpt lat="45.29032" lon="4.2093">
        <ele>765.46153846154</ele>
        <time>2015-10-03T07:59:10.259Z</time>
      </trkpt>
      <trkpt lat="45.29034" lon="4.2093">
        <ele>765.46153846154</ele>
        <time>2015-10-03T07:59:11.263Z</time>
      </trkpt>
      <trkpt lat="45.29035" lon="4.20929">
        <ele>765.53846153846</ele>
        <time>2015-10-03T07:59:12.258Z</time>
      </trkpt>
      <trkpt lat="45.29037" lon="4.20927">
        <ele>765.61538461538</ele>
        <time>2015-10-03T07:59:13.264Z</time>
      </trkpt>
      <trkpt lat="45.29038" lon="4.20925">
        <ele>765.61538461538</ele>
        <time>2015-10-03T07:59:14.262Z</time>
      </trkpt>
      <trkpt lat="45.29039" lon="4.20922">
        <ele>765.65384615385</ele>
        <time>2015-10-03T07:59:15.266Z</time>
      </trkpt>
      <trkpt lat="45.29039" lon="4.20919">
        <ele>765.65384615385</ele>
        <time>2015-10-03T07:59:16.273Z</time>
      </trkpt>
      <trkpt lat="45.29037" lon="4.20916">
        <ele>765.69230769231</ele>
        <time>2015-10-03T07:59:17.266Z</time>
      </trkpt>
      <trkpt lat="45.29035" lon="4.20916">
        <ele>765.73076923077</ele>
        <time>2015-10-03T07:59:18.271Z</time>
      </trkpt>
      <trkpt lat="45.29032" lon="4.20917">
        <ele>765.8</ele>
        <time>2015-10-03T07:59:19.281Z</time>
      </trkpt>
      <trkpt lat="45.2903" lon="4.20919">
        <ele>765.72</ele>
        <time>2015-10-03T07:59:20.281Z</time>
      </trkpt>
      <trkpt lat="45.29029" lon="4.20921">
        <ele>765.72</ele>
        <time>2015-10-03T07:59:21.283Z</time>
      </trkpt>
      <trkpt lat="45.29029" lon="4.20923">
        <ele>765.76</ele>
        <time>2015-10-03T07:59:22.292Z</time>
      </trkpt>
      <trkpt lat="45.29029" lon="4.20924">
        <ele>765.76</ele>
        <time>2015-10-03T07:59:23.282Z</time>
      </trkpt>
      <trkpt lat="45.29028" lon="4.20924">
        <ele>765.72</ele>
        <time>2015-10-03T07:59:24.264Z</time>
      </trkpt>
      <trkpt lat="45.29028" lon="4.20923">
        <ele>765.69230769231</ele>
        <time>2015-10-03T07:59:25.261Z</time>
      </trkpt>
      <trkpt lat="45.29028" lon="4.20923">
        <ele>765.61538461538</ele>
        <time>2015-10-03T07:59:28.263Z</time>
      </trkpt>
      <trkpt lat="45.29029" lon="4.20923">
        <ele>765.61538461538</ele>
        <time>2015-10-03T07:59:32.259Z</time>
      </trkpt>
      <trkpt lat="45.29028" lon="4.20924">
        <ele>765.54166666667</ele>
        <time>2015-10-03T07:59:36.264Z</time>
      </trkpt>
      <trkpt lat="45.29028" lon="4.20925">
        <ele>765.45833333333</ele>
        <time>2015-10-03T07:59:39.268Z</time>
      </trkpt>
      <trkpt lat="45.29028" lon="4.20925">
        <ele>765.4</ele>
        <time>2015-10-03T07:59:43.258Z</time>
      </trkpt>
      <trkpt lat="45.29028" lon="4.20925">
        <ele>765.4</ele>
        <time>2015-10-03T07:59:47.262Z</time>
      </trkpt>
      <trkpt lat="45.29028" lon="4.20925">
        <ele>765.375</ele>
        <time>2015-10-03T07:59:50.274Z</time>
      </trkpt>
      <trkpt lat="45.29028" lon="4.20925">
        <ele>765.375</ele>
        <time>2015-10-03T07:59:53.279Z</time>
      </trkpt>
      <trkpt lat="45.29028" lon="4.20925">
        <ele>765.29166666667</ele>
        <time>2015-10-03T07:59:57.273Z</time>
      </trkpt>
      <trkpt lat="45.29028" lon="4.20925">
        <ele>765.2</ele>
        <time>2015-10-03T08:00:01.271Z</time>
      </trkpt>
      <trkpt lat="45.29028" lon="4.20925">
        <ele>765.16</ele>
        <time>2015-10-03T08:00:05.264Z</time>
      </trkpt>
      <trkpt lat="45.29028" lon="4.20925">
        <ele>765.28</ele>
        <time>2015-10-03T08:00:09.260Z</time>
      </trkpt>
      <trkpt lat="45.29028" lon="4.20925">
        <ele>765.26923076923</ele>
        <time>2015-10-03T08:00:13.259Z</time>
      </trkpt>
      <trkpt lat="45.29028" lon="4.20925">
        <ele>765.32</ele>
        <time>2015-10-03T08:00:16.271Z</time>
      </trkpt>
      <trkpt lat="45.29028" lon="4.20925">
        <ele>765.26923076923</ele>
        <time>2015-10-03T08:00:20.271Z</time>
      </trkpt>
      <trkpt lat="45.29028" lon="4.20925">
        <ele>765.28</ele>
        <time>2015-10-03T08:00:24.283Z</time>
      </trkpt>
      <trkpt lat="45.29028" lon="4.20925">
        <ele>765.26923076923</ele>
        <time>2015-10-03T08:00:28.282Z</time>
      </trkpt>
      <trkpt lat="45.29028" lon="4.20925">
        <ele>765.24</ele>
        <time>2015-10-03T08:00:32.276Z</time>
      </trkpt>
      <trkpt lat="45.29028" lon="4.20925">
        <ele>765.16</ele>
        <time>2015-10-03T08:00:36.265Z</time>
      </trkpt>
      <trkpt lat="45.29028" lon="4.20925">
        <ele>765.16</ele>
        <time>2015-10-03T08:00:39.266Z</time>
      </trkpt>
      <trkpt lat="45.29028" lon="4.20925">
        <ele>765.16</ele>
        <time>2015-10-03T08:00:42.274Z</time>
      </trkpt>
      <trkpt lat="45.29028" lon="4.20925">
        <ele>765.16</ele>
        <time>2015-10-03T08:00:46.283Z</time>
      </trkpt>
      <trkpt lat="45.29028" lon="4.20925">
        <ele>765.15384615385</ele>
        <time>2015-10-03T08:00:50.272Z</time>
      </trkpt>
      <trkpt lat="45.29028" lon="4.20925">
        <ele>765.11538461538</ele>
        <time>2015-10-03T08:00:53.277Z</time>
      </trkpt>
      <trkpt lat="45.29028" lon="4.20925">
        <ele>765.16</ele>
        <time>2015-10-03T08:00:56.281Z</time>
      </trkpt>
      <trkpt lat="45.29028" lon="4.20925">
        <ele>765.16</ele>
        <time>2015-10-03T08:00:59.283Z</time>
      </trkpt>
      <trkpt lat="45.29028" lon="4.20925">
        <ele>765.12</ele>
        <time>2015-10-03T08:01:03.276Z</time>
      </trkpt>
      <trkpt lat="45.29028" lon="4.20925">
        <ele>765.08</ele>
        <time>2015-10-03T08:01:07.276Z</time>
      </trkpt>
      <trkpt lat="45.29028" lon="4.20925">
        <ele>765.07692307692</ele>
        <time>2015-10-03T08:01:11.263Z</time>
      </trkpt>
      <trkpt lat="45.29028" lon="4.20925">
        <ele>765</ele>
        <time>2015-10-03T08:01:14.269Z</time>
      </trkpt>
      <trkpt lat="45.29028" lon="4.20925">
        <ele>765</ele>
        <time>2015-10-03T08:01:17.276Z</time>
      </trkpt>
      <trkpt lat="45.29028" lon="4.20925">
        <ele>764.96153846154</ele>
        <time>2015-10-03T08:01:21.281Z</time>
      </trkpt>
      <trkpt lat="45.29028" lon="4.20925">
        <ele>764.96153846154</ele>
        <time>2015-10-03T08:01:25.266Z</time>
      </trkpt>
      <trkpt lat="45.29028" lon="4.20925">
        <ele>764.96153846154</ele>
        <time>2015-10-03T08:01:28.270Z</time>
      </trkpt>
      <trkpt lat="45.29028" lon="4.20925">
        <ele>764.96</ele>
        <time>2015-10-03T08:01:31.280Z</time>
      </trkpt>
      <trkpt lat="45.29028" lon="4.20925">
        <ele>764.96</ele>
        <time>2015-10-03T08:01:35.280Z</time>
      </trkpt>
      <trkpt lat="45.29028" lon="4.20925">
        <ele>765</ele>
        <time>2015-10-03T08:01:39.277Z</time>
      </trkpt>
      <trkpt lat="45.29028" lon="4.20925">
        <ele>765</ele>
        <time>2015-10-03T08:01:43.265Z</time>
      </trkpt>
      <trkpt lat="45.29028" lon="4.20925">
        <ele>765</ele>
        <time>2015-10-03T08:01:46.274Z</time>
      </trkpt>
      <trkpt lat="45.29028" lon="4.20925">
        <ele>765</ele>
        <time>2015-10-03T08:01:49.283Z</time>
      </trkpt>
      <trkpt lat="45.29028" lon="4.20925">
        <ele>765</ele>
        <time>2015-10-03T08:01:53.278Z</time>
      </trkpt>
      <trkpt lat="45.29028" lon="4.20925">
        <ele>765</ele>
        <time>2015-10-03T08:01:56.281Z</time>
      </trkpt>
      <trkpt lat="45.29028" lon="4.20925">
        <ele>765</ele>
        <time>2015-10-03T08:01:57.281Z</time>
      </trkpt>
      <trkpt lat="45.29028" lon="4.20925">
        <ele>764.95652173913</ele>
        <time>2015-10-03T08:01:59.284Z</time>
      </trkpt>
      <trkpt lat="45.29027" lon="4.20926">
        <ele>764.91666666667</ele>
        <time>2015-10-03T08:02:02.285Z</time>
      </trkpt>
      <trkpt lat="45.29027" lon="4.20929">
        <ele>764.91666666667</ele>
        <time>2015-10-03T08:02:04.303Z</time>
      </trkpt>
      <trkpt lat="45.29027" lon="4.20936">
        <ele>764.88</ele>
        <time>2015-10-03T08:02:07.324Z</time>
      </trkpt>
      <trkpt lat="45.29026" lon="4.20937">
        <ele>764.96153846154</ele>
        <time>2015-10-03T08:02:09.269Z</time>
      </trkpt>
      <trkpt lat="45.29025" lon="4.20938">
        <ele>764.96153846154</ele>
        <time>2015-10-03T08:02:10.270Z</time>
      </trkpt>
      <trkpt lat="45.29023" lon="4.20941">
        <ele>765.04</ele>
        <time>2015-10-03T08:02:12.308Z</time>
      </trkpt>
      <trkpt lat="45.29022" lon="4.20944">
        <ele>765.08</ele>
        <time>2015-10-03T08:02:13.306Z</time>
      </trkpt>
      <trkpt lat="45.29022" lon="4.20947">
        <ele>765.08</ele>
        <time>2015-10-03T08:02:14.300Z</time>
      </trkpt>
      <trkpt lat="45.29022" lon="4.2095">
        <ele>765.12</ele>
        <time>2015-10-03T08:02:15.312Z</time>
      </trkpt>
      <trkpt lat="45.29022" lon="4.20953">
        <ele>765.2</ele>
        <time>2015-10-03T08:02:16.320Z</time>
      </trkpt>
      <trkpt lat="45.29023" lon="4.20955">
        <ele>765.32</ele>
        <time>2015-10-03T08:02:17.316Z</time>
      </trkpt>
      <trkpt lat="45.29022" lon="4.20959">
        <ele>765.44</ele>
        <time>2015-10-03T08:02:18.322Z</time>
      </trkpt>
      <trkpt lat="45.29021" lon="4.20967">
        <ele>765.72</ele>
        <time>2015-10-03T08:02:21.363Z</time>
      </trkpt>
      <trkpt lat="45.2902" lon="4.20973">
        <ele>765.875</ele>
        <time>2015-10-03T08:02:23.348Z</time>
      </trkpt>
      <trkpt lat="45.29019" lon="4.20977">
        <ele>766.16666666667</ele>
        <time>2015-10-03T08:02:25.318Z</time>
      </trkpt>
      <trkpt lat="45.29019" lon="4.20982">
        <ele>766.5</ele>
        <time>2015-10-03T08:02:27.313Z</time>
      </trkpt>
      <trkpt lat="45.29019" lon="4.20984">
        <ele>766.66666666667</ele>
        <time>2015-10-03T08:02:28.308Z</time>
      </trkpt>
      <trkpt lat="45.29018" lon="4.20989">
        <ele>767.08333333333</ele>
        <time>2015-10-03T08:02:30.310Z</time>
      </trkpt>
      <trkpt lat="45.29018" lon="4.20996">
        <ele>767.79166666667</ele>
        <time>2015-10-03T08:02:33.306Z</time>
      </trkpt>
      <trkpt lat="45.29018" lon="4.20998">
        <ele>767.95833333333</ele>
        <time>2015-10-03T08:02:34.300Z</time>
      </trkpt>
      <trkpt lat="45.29019" lon="4.21">
        <ele>768.16666666667</ele>
        <time>2015-10-03T08:02:35.306Z</time>
      </trkpt>
      <trkpt lat="45.29022" lon="4.21004">
        <ele>768.52</ele>
        <time>2015-10-03T08:02:37.289Z</time>
      </trkpt>
      <trkpt lat="45.29026" lon="4.21011">
        <ele>769.04</ele>
        <time>2015-10-03T08:02:40.300Z</time>
      </trkpt>
      <trkpt lat="45.29027" lon="4.21012">
        <ele>769.32</ele>
        <time>2015-10-03T08:02:41.307Z</time>
      </trkpt>
      <trkpt lat="45.29029" lon="4.21013">
        <ele>769.56</ele>
        <time>2015-10-03T08:02:42.308Z</time>
      </trkpt>
      <trkpt lat="45.29031" lon="4.21014">
        <ele>769.72</ele>
        <time>2015-10-03T08:02:43.298Z</time>
      </trkpt>
      <trkpt lat="45.29033" lon="4.21015">
        <ele>769.84</ele>
        <time>2015-10-03T08:02:44.301Z</time>
      </trkpt>
      <trkpt lat="45.29035" lon="4.21014">
        <ele>770.12</ele>
        <time>2015-10-03T08:02:45.318Z</time>
      </trkpt>
      <trkpt lat="45.29037" lon="4.21013">
        <ele>770.36</ele>
        <time>2015-10-03T08:02:46.309Z</time>
      </trkpt>
      <trkpt lat="45.29041" lon="4.21011">
        <ele>770.57692307692</ele>
        <time>2015-10-03T08:02:48.296Z</time>
      </trkpt>
      <trkpt lat="45.29045" lon="4.21008">
        <ele>771.03846153846</ele>
        <time>2015-10-03T08:02:50.306Z</time>
      </trkpt>
      <trkpt lat="45.29049" lon="4.21007">
        <ele>771.38461538462</ele>
        <time>2015-10-03T08:02:52.299Z</time>
      </trkpt>
      <trkpt lat="45.29051" lon="4.21007">
        <ele>771.57692307692</ele>
        <time>2015-10-03T08:02:53.294Z</time>
      </trkpt>
      <trkpt lat="45.29055" lon="4.21006">
        <ele>771.88461538462</ele>
        <time>2015-10-03T08:02:55.292Z</time>
      </trkpt>
      <trkpt lat="45.29057" lon="4.21006">
        <ele>772.15384615385</ele>
        <time>2015-10-03T08:02:56.288Z</time>
      </trkpt>
      <trkpt lat="45.29059" lon="4.21004">
        <ele>772.30769230769</ele>
        <time>2015-10-03T08:02:57.294Z</time>
      </trkpt>
      <trkpt lat="45.29061" lon="4.21003">
        <ele>772.46153846154</ele>
        <time>2015-10-03T08:02:58.302Z</time>
      </trkpt>
      <trkpt lat="45.29062" lon="4.21001">
        <ele>772.65384615385</ele>
        <time>2015-10-03T08:02:59.298Z</time>
      </trkpt>
      <trkpt lat="45.29063" lon="4.20999">
        <ele>772.88461538462</ele>
        <time>2015-10-03T08:03:00.297Z</time>
      </trkpt>
      <trkpt lat="45.29067" lon="4.20992">
        <ele>773.6</ele>
        <time>2015-10-03T08:03:03.298Z</time>
      </trkpt>
      <trkpt lat="45.2907" lon="4.20988">
        <ele>774.12</ele>
        <time>2015-10-03T08:03:05.303Z</time>
      </trkpt>
      <trkpt lat="45.29073" lon="4.2098">
        <ele>774.73076923077</ele>
        <time>2015-10-03T08:03:09.293Z</time>
      </trkpt>
      <trkpt lat="45.29076" lon="4.20977">
        <ele>775.11538461538</ele>
        <time>2015-10-03T08:03:11.296Z</time>
      </trkpt>
      <trkpt lat="45.29079" lon="4.20975">
        <ele>775.5</ele>
        <time>2015-10-03T08:03:13.291Z</time>
      </trkpt>
      <trkpt lat="45.2908" lon="4.20974">
        <ele>775.73076923077</ele>
        <time>2015-10-03T08:03:14.289Z</time>
      </trkpt>
      <trkpt lat="45.29085" lon="4.20972">
        <ele>776.36</ele>
        <time>2015-10-03T08:03:17.311Z</time>
      </trkpt>
      <trkpt lat="45.2909" lon="4.20973">
        <ele>777.16</ele>
        <time>2015-10-03T08:03:21.305Z</time>
      </trkpt>
      <trkpt lat="45.29096" lon="4.20971">
        <ele>777.61538461538</ele>
        <time>2015-10-03T08:03:24.297Z</time>
      </trkpt>
      <trkpt lat="45.29102" lon="4.20966">
        <ele>778.23076923077</ele>
        <time>2015-10-03T08:03:28.292Z</time>
      </trkpt>
      <trkpt lat="45.29107" lon="4.20963">
        <ele>778.76923076923</ele>
        <time>2015-10-03T08:03:31.298Z</time>
      </trkpt>
      <trkpt lat="45.29113" lon="4.20959">
        <ele>779.28</ele>
        <time>2015-10-03T08:03:34.301Z</time>
      </trkpt>
      <trkpt lat="45.29118" lon="4.20955">
        <ele>779.72</ele>
        <time>2015-10-03T08:03:37.310Z</time>
      </trkpt>
      <trkpt lat="45.2912" lon="4.20954">
        <ele>779.88</ele>
        <time>2015-10-03T08:03:38.314Z</time>
      </trkpt>
      <trkpt lat="45.29126" lon="4.20949">
        <ele>780.23076923077</ele>
        <time>2015-10-03T08:03:41.292Z</time>
      </trkpt>
      <trkpt lat="45.29132" lon="4.20945">
        <ele>780.53846153846</ele>
        <time>2015-10-03T08:03:44.293Z</time>
      </trkpt>
      <trkpt lat="45.29141" lon="4.20941">
        <ele>781</ele>
        <time>2015-10-03T08:03:48.334Z</time>
      </trkpt>
      <trkpt lat="45.29145" lon="4.20939">
        <ele>781.12</ele>
        <time>2015-10-03T08:03:50.356Z</time>
      </trkpt>
      <trkpt lat="45.29154" lon="4.20937">
        <ele>781.28</ele>
        <time>2015-10-03T08:03:54.335Z</time>
      </trkpt>
      <trkpt lat="45.29161" lon="4.20937">
        <ele>781.4</ele>
        <time>2015-10-03T08:03:57.301Z</time>
      </trkpt>
      <trkpt lat="45.29167" lon="4.20937">
        <ele>781.52</ele>
        <time>2015-10-03T08:04:00.309Z</time>
      </trkpt>
      <trkpt lat="45.29176" lon="4.20937">
        <ele>781.69230769231</ele>
        <time>2015-10-03T08:04:04.308Z</time>
      </trkpt>
      <trkpt lat="45.29181" lon="4.20937">
        <ele>781.8</ele>
        <time>2015-10-03T08:04:06.306Z</time>
      </trkpt>
      <trkpt lat="45.29188" lon="4.20937">
        <ele>782</ele>
        <time>2015-10-03T08:04:09.314Z</time>
      </trkpt>
      <trkpt lat="45.29197" lon="4.20939">
        <ele>782.19230769231</ele>
        <time>2015-10-03T08:04:13.291Z</time>
      </trkpt>
      <trkpt lat="45.29205" lon="4.2094">
        <ele>782.52</ele>
        <time>2015-10-03T08:04:16.354Z</time>
      </trkpt>
      <trkpt lat="45.29212" lon="4.20942">
        <ele>782.96</ele>
        <time>2015-10-03T08:04:19.356Z</time>
      </trkpt>
      <trkpt lat="45.29221" lon="4.20945">
        <ele>783.375</ele>
        <time>2015-10-03T08:04:23.367Z</time>
      </trkpt>
      <trkpt lat="45.29229" lon="4.20946">
        <ele>783.95833333333</ele>
        <time>2015-10-03T08:04:27.340Z</time>
      </trkpt>
      <trkpt lat="45.29233" lon="4.20948">
        <ele>784.25</ele>
        <time>2015-10-03T08:04:29.346Z</time>
      </trkpt>
      <trkpt lat="45.29235" lon="4.20948">
        <ele>784.41666666667</ele>
        <time>2015-10-03T08:04:30.324Z</time>
      </trkpt>
      <trkpt lat="45.29236" lon="4.20949">
        <ele>784.56</ele>
        <time>2015-10-03T08:04:31.278Z</time>
      </trkpt>
      <trkpt lat="45.29242" lon="4.20952">
        <ele>785.16</ele>
        <time>2015-10-03T08:04:34.303Z</time>
      </trkpt>
      <trkpt lat="45.29245" lon="4.20953">
        <ele>785.36</ele>
        <time>2015-10-03T08:04:35.299Z</time>
      </trkpt>
      <trkpt lat="45.29248" lon="4.20953">
        <ele>785.75</ele>
        <time>2015-10-03T08:04:37.304Z</time>
      </trkpt>
      <trkpt lat="45.29249" lon="4.20954">
        <ele>785.84</ele>
        <time>2015-10-03T08:04:38.281Z</time>
      </trkpt>
      <trkpt lat="45.29251" lon="4.20954">
        <ele>786.04</ele>
        <time>2015-10-03T08:04:39.281Z</time>
      </trkpt>
      <trkpt lat="45.29253" lon="4.20955">
        <ele>786.24</ele>
        <time>2015-10-03T08:04:40.279Z</time>
      </trkpt>
      <trkpt lat="45.2926" lon="4.20957">
        <ele>786.76</ele>
        <time>2015-10-03T08:04:43.292Z</time>
      </trkpt>
      <trkpt lat="45.29265" lon="4.20958">
        <ele>787.04</ele>
        <time>2015-10-03T08:04:45.298Z</time>
      </trkpt>
      <trkpt lat="45.29271" lon="4.20961">
        <ele>787.5</ele>
        <time>2015-10-03T08:04:48.318Z</time>
      </trkpt>
      <trkpt lat="45.2928" lon="4.20962">
        <ele>788.07692307692</ele>
        <time>2015-10-03T08:04:52.297Z</time>
      </trkpt>
      <trkpt lat="45.29288" lon="4.20964">
        <ele>788.48</ele>
        <time>2015-10-03T08:04:55.346Z</time>
      </trkpt>
      <trkpt lat="45.29298" lon="4.20965">
        <ele>788.57692307692</ele>
        <time>2015-10-03T08:04:59.299Z</time>
      </trkpt>
      <trkpt lat="45.29306" lon="4.20966">
        <ele>788.80769230769</ele>
        <time>2015-10-03T08:05:02.304Z</time>
      </trkpt>
      <trkpt lat="45.29313" lon="4.20967">
        <ele>788.92</ele>
        <time>2015-10-03T08:05:05.319Z</time>
      </trkpt>
      <trkpt lat="45.29321" lon="4.20967">
        <ele>788.88</ele>
        <time>2015-10-03T08:05:08.325Z</time>
      </trkpt>
      <trkpt lat="45.29329" lon="4.20969">
        <ele>788.92</ele>
        <time>2015-10-03T08:05:11.363Z</time>
      </trkpt>
      <trkpt lat="45.2934" lon="4.2097">
        <ele>788.72</ele>
        <time>2015-10-03T08:05:15.354Z</time>
      </trkpt>
      <trkpt lat="45.29346" lon="4.20971">
        <ele>788.52</ele>
        <time>2015-10-03T08:05:17.335Z</time>
      </trkpt>
      <trkpt lat="45.29349" lon="4.20972">
        <ele>788.44</ele>
        <time>2015-10-03T08:05:18.322Z</time>
      </trkpt>
      <trkpt lat="45.29361" lon="4.20972">
        <ele>788.32</ele>
        <time>2015-10-03T08:05:21.368Z</time>
      </trkpt>
      <trkpt lat="45.29368" lon="4.20973">
        <ele>788.04</ele>
        <time>2015-10-03T08:05:23.342Z</time>
      </trkpt>
      <trkpt lat="45.29384" lon="4.20974">
        <ele>787.64</ele>
        <time>2015-10-03T08:05:27.311Z</time>
      </trkpt>
      <trkpt lat="45.29397" lon="4.20974">
        <ele>787.34615384615</ele>
        <time>2015-10-03T08:05:30.316Z</time>
      </trkpt>
      <trkpt lat="45.29409" lon="4.20974">
        <ele>787</ele>
        <time>2015-10-03T08:05:33.312Z</time>
      </trkpt>
      <trkpt lat="45.29455" lon="4.20975">
        <ele>786.8</ele>
        <time>2015-10-03T08:05:35.260Z</time>
      </trkpt>
      <trkpt lat="45.29474" lon="4.20978">
        <ele>786.24</ele>
        <time>2015-10-03T08:05:38.286Z</time>
      </trkpt>
      <trkpt lat="45.29479" lon="4.20981">
        <ele>786.12</ele>
        <time>2015-10-03T08:05:39.289Z</time>
      </trkpt>
      <trkpt lat="45.29484" lon="4.20982">
        <ele>785.96</ele>
        <time>2015-10-03T08:05:40.291Z</time>
      </trkpt>
      <trkpt lat="45.29491" lon="4.20982">
        <ele>785.84</ele>
        <time>2015-10-03T08:05:41.296Z</time>
      </trkpt>
      <trkpt lat="45.29496" lon="4.20981">
        <ele>785.68</ele>
        <time>2015-10-03T08:05:42.281Z</time>
      </trkpt>
      <trkpt lat="45.29503" lon="4.20981">
        <ele>785.56</ele>
        <time>2015-10-03T08:05:43.267Z</time>
      </trkpt>
      <trkpt lat="45.29522" lon="4.20981">
        <ele>784.88</ele>
        <time>2015-10-03T08:05:46.274Z</time>
      </trkpt>
      <trkpt lat="45.29529" lon="4.2098">
        <ele>784.56</ele>
        <time>2015-10-03T08:05:47.272Z</time>
      </trkpt>
      <trkpt lat="45.29536" lon="4.2098">
        <ele>784.28</ele>
        <time>2015-10-03T08:05:48.297Z</time>
      </trkpt>
      <trkpt lat="45.29543" lon="4.2098">
        <ele>784.04</ele>
        <time>2015-10-03T08:05:49.303Z</time>
      </trkpt>
      <trkpt lat="45.29564" lon="4.20978">
        <ele>783.08</ele>
        <time>2015-10-03T08:05:52.284Z</time>
      </trkpt>
      <trkpt lat="45.29569" lon="4.20978">
        <ele>782.64</ele>
        <time>2015-10-03T08:05:53.275Z</time>
      </trkpt>
      <trkpt lat="45.29574" lon="4.20979">
        <ele>782.24</ele>
        <time>2015-10-03T08:05:54.271Z</time>
      </trkpt>
      <trkpt lat="45.29578" lon="4.2098">
        <ele>781.88</ele>
        <time>2015-10-03T08:05:55.282Z</time>
      </trkpt>
      <trkpt lat="45.29582" lon="4.20978">
        <ele>781.6</ele>
        <time>2015-10-03T08:05:56.284Z</time>
      </trkpt>
      <trkpt lat="45.29578" lon="4.2099">
        <ele>781.24</ele>
        <time>2015-10-03T08:05:57.272Z</time>
      </trkpt>
      <trkpt lat="45.29578" lon="4.20995">
        <ele>780.92</ele>
        <time>2015-10-03T08:05:58.274Z</time>
      </trkpt>
      <trkpt lat="45.29578" lon="4.20998">
        <ele>780.56</ele>
        <time>2015-10-03T08:05:59.282Z</time>
      </trkpt>
      <trkpt lat="45.29575" lon="4.20999">
        <ele>780.24</ele>
        <time>2015-10-03T08:06:00.285Z</time>
      </trkpt>
      <trkpt lat="45.29574" lon="4.21002">
        <ele>779.96</ele>
        <time>2015-10-03T08:06:01.273Z</time>
      </trkpt>
      <trkpt lat="45.2957" lon="4.21009">
        <ele>779.30769230769</ele>
        <time>2015-10-03T08:06:04.267Z</time>
      </trkpt>
      <trkpt lat="45.29569" lon="4.2101">
        <ele>779.11538461538</ele>
        <time>2015-10-03T08:06:05.276Z</time>
      </trkpt>
      <trkpt lat="45.29568" lon="4.2101">
        <ele>778.92307692308</ele>
        <time>2015-10-03T08:06:06.293Z</time>
      </trkpt>
      <trkpt lat="45.29567" lon="4.21011">
        <ele>778.56</ele>
        <time>2015-10-03T08:06:07.297Z</time>
      </trkpt>
      <trkpt lat="45.29565" lon="4.21014">
        <ele>778.44</ele>
        <time>2015-10-03T08:06:08.289Z</time>
      </trkpt>
      <trkpt lat="45.2956" lon="4.21025">
        <ele>778.15384615385</ele>
        <time>2015-10-03T08:06:12.269Z</time>
      </trkpt>
      <trkpt lat="45.29555" lon="4.21035">
        <ele>778.19230769231</ele>
        <time>2015-10-03T08:06:16.262Z</time>
      </trkpt>
      <trkpt lat="45.2955" lon="4.21045">
        <ele>778.69230769231</ele>
        <time>2015-10-03T08:06:20.264Z</time>
      </trkpt>
      <trkpt lat="45.29544" lon="4.21056">
        <ele>779.375</ele>
        <time>2015-10-03T08:06:24.286Z</time>
      </trkpt>
      <trkpt lat="45.29538" lon="4.21067">
        <ele>780.20833333333</ele>
        <time>2015-10-03T08:06:28.277Z</time>
      </trkpt>
      <trkpt lat="45.29535" lon="4.21074">
        <ele>780.70833333333</ele>
        <time>2015-10-03T08:06:31.303Z</time>
      </trkpt>
      <trkpt lat="45.29532" lon="4.2108">
        <ele>781.16666666667</ele>
        <time>2015-10-03T08:06:34.296Z</time>
      </trkpt>
      <trkpt lat="45.2953" lon="4.21083">
        <ele>781.41666666667</ele>
        <time>2015-10-03T08:06:36.278Z</time>
      </trkpt>
      <trkpt lat="45.29529" lon="4.21085">
        <ele>781.58333333333</ele>
        <time>2015-10-03T08:06:37.276Z</time>
      </trkpt>
      <trkpt lat="45.29527" lon="4.21087">
        <ele>781.79166666667</ele>
        <time>2015-10-03T08:06:38.290Z</time>
      </trkpt>
      <trkpt lat="45.29522" lon="4.21093">
        <ele>782.33333333333</ele>
        <time>2015-10-03T08:06:41.314Z</time>
      </trkpt>
      <trkpt lat="45.2952" lon="4.21095">
        <ele>782.5</ele>
        <time>2015-10-03T08:06:42.313Z</time>
      </trkpt>
      <trkpt lat="45.29518" lon="4.21097">
        <ele>782.625</ele>
        <time>2015-10-03T08:06:43.295Z</time>
      </trkpt>
      <trkpt lat="45.29512" lon="4.21103">
        <ele>782.95833333333</ele>
        <time>2015-10-03T08:06:46.348Z</time>
      </trkpt>
      <trkpt lat="45.29505" lon="4.21111">
        <ele>783.52</ele>
        <time>2015-10-03T08:06:50.308Z</time>
      </trkpt>
      <trkpt lat="45.29499" lon="4.21117">
        <ele>783.8</ele>
        <time>2015-10-03T08:06:53.301Z</time>
      </trkpt>
      <trkpt lat="45.29493" lon="4.21125">
        <ele>784.12</ele>
        <time>2015-10-03T08:06:56.329Z</time>
      </trkpt>
      <trkpt lat="45.29492" lon="4.21127">
        <ele>784.24</ele>
        <time>2015-10-03T08:06:57.354Z</time>
      </trkpt>
      <trkpt lat="45.2949" lon="4.21129">
        <ele>784.36</ele>
        <time>2015-10-03T08:06:58.339Z</time>
      </trkpt>
      <trkpt lat="45.29487" lon="4.21134">
        <ele>784.52</ele>
        <time>2015-10-03T08:07:00.329Z</time>
      </trkpt>
      <trkpt lat="45.29485" lon="4.21137">
        <ele>784.64</ele>
        <time>2015-10-03T08:07:01.310Z</time>
      </trkpt>
      <trkpt lat="45.29482" lon="4.21141">
        <ele>784.61538461538</ele>
        <time>2015-10-03T08:07:02.275Z</time>
      </trkpt>
      <trkpt lat="45.29479" lon="4.21146">
        <ele>784.65384615385</ele>
        <time>2015-10-03T08:07:03.266Z</time>
      </trkpt>
      <trkpt lat="45.29463" lon="4.21171">
        <ele>784.72</ele>
        <time>2015-10-03T08:07:07.263Z</time>
      </trkpt>
      <trkpt lat="45.29457" lon="4.21181">
        <ele>784.76</ele>
        <time>2015-10-03T08:07:09.271Z</time>
      </trkpt>
      <trkpt lat="45.29455" lon="4.21186">
        <ele>784.76</ele>
        <time>2015-10-03T08:07:10.277Z</time>
      </trkpt>
      <trkpt lat="45.29444" lon="4.21204">
        <ele>784.6</ele>
        <time>2015-10-03T08:07:14.270Z</time>
      </trkpt>
      <trkpt lat="45.29441" lon="4.21208">
        <ele>784.56</ele>
        <time>2015-10-03T08:07:15.276Z</time>
      </trkpt>
      <trkpt lat="45.29438" lon="4.21214">
        <ele>784.36</ele>
        <time>2015-10-03T08:07:16.279Z</time>
      </trkpt>
      <trkpt lat="45.2943" lon="4.2123">
        <ele>784.12</ele>
        <time>2015-10-03T08:07:19.301Z</time>
      </trkpt>
      <trkpt lat="45.29424" lon="4.21241">
        <ele>783.92</ele>
        <time>2015-10-03T08:07:21.278Z</time>
      </trkpt>
      <trkpt lat="45.29414" lon="4.21259">
        <ele>783.44</ele>
        <time>2015-10-03T08:07:24.278Z</time>
      </trkpt>
      <trkpt lat="45.29405" lon="4.21278">
        <ele>783</ele>
        <time>2015-10-03T08:07:27.284Z</time>
      </trkpt>
      <trkpt lat="45.29396" lon="4.21298">
        <ele>782.68</ele>
        <time>2015-10-03T08:07:30.283Z</time>
      </trkpt>
      <trkpt lat="45.29388" lon="4.21318">
        <ele>782.24</ele>
        <time>2015-10-03T08:07:33.272Z</time>
      </trkpt>
      <trkpt lat="45.2938" lon="4.21339">
        <ele>781.96153846154</ele>
        <time>2015-10-03T08:07:36.281Z</time>
      </trkpt>
      <trkpt lat="45.29371" lon="4.21367">
        <ele>781.24</ele>
        <time>2015-10-03T08:07:40.294Z</time>
      </trkpt>
      <trkpt lat="45.29363" lon="4.21394">
        <ele>780.80769230769</ele>
        <time>2015-10-03T08:07:44.281Z</time>
      </trkpt>
      <trkpt lat="45.2936" lon="4.21407">
        <ele>780.53846153846</ele>
        <time>2015-10-03T08:07:46.275Z</time>
      </trkpt>
      <trkpt lat="45.29359" lon="4.21412">
        <ele>780.46153846154</ele>
        <time>2015-10-03T08:07:47.280Z</time>
      </trkpt>
      <trkpt lat="45.29358" lon="4.21419">
        <ele>780.36</ele>
        <time>2015-10-03T08:07:48.288Z</time>
      </trkpt>
      <trkpt lat="45.29353" lon="4.21442">
        <ele>780.26923076923</ele>
        <time>2015-10-03T08:07:52.280Z</time>
      </trkpt>
      <trkpt lat="45.29349" lon="4.2146">
        <ele>780.28</ele>
        <time>2015-10-03T08:07:55.308Z</time>
      </trkpt>
      <trkpt lat="45.29344" lon="4.21485">
        <ele>780.38461538462</ele>
        <time>2015-10-03T08:07:59.274Z</time>
      </trkpt>
      <trkpt lat="45.2934" lon="4.21503">
        <ele>780.56</ele>
        <time>2015-10-03T08:08:02.279Z</time>
      </trkpt>
      <trkpt lat="45.29335" lon="4.21519">
        <ele>780.88</ele>
        <time>2015-10-03T08:08:05.296Z</time>
      </trkpt>
      <trkpt lat="45.29329" lon="4.21535">
        <ele>781.28</ele>
        <time>2015-10-03T08:08:08.305Z</time>
      </trkpt>
      <trkpt lat="45.29324" lon="4.2155">
        <ele>781.56</ele>
        <time>2015-10-03T08:08:11.283Z</time>
      </trkpt>
      <trkpt lat="45.29319" lon="4.21569">
        <ele>781.8</ele>
        <time>2015-10-03T08:08:14.295Z</time>
      </trkpt>
      <trkpt lat="45.29318" lon="4.21574">
        <ele>781.88</ele>
        <time>2015-10-03T08:08:15.291Z</time>
      </trkpt>
      <trkpt lat="45.29312" lon="4.21599">
        <ele>781.92</ele>
        <time>2015-10-03T08:08:19.288Z</time>
      </trkpt>
      <trkpt lat="45.2931" lon="4.21605">
        <ele>781.88461538462</ele>
        <time>2015-10-03T08:08:20.288Z</time>
      </trkpt>
      <trkpt lat="45.29308" lon="4.21613">
        <ele>781.92307692308</ele>
        <time>2015-10-03T08:08:21.288Z</time>
      </trkpt>
      <trkpt lat="45.29303" lon="4.21636">
        <ele>781.95833333333</ele>
        <time>2015-10-03T08:08:24.277Z</time>
      </trkpt>
      <trkpt lat="45.29303" lon="4.21643">
        <ele>781.88</ele>
        <time>2015-10-03T08:08:25.269Z</time>
      </trkpt>
      <trkpt lat="45.29305" lon="4.2165">
        <ele>781.8</ele>
        <time>2015-10-03T08:08:26.269Z</time>
      </trkpt>
      <trkpt lat="45.29306" lon="4.21655">
        <ele>781.72</ele>
        <time>2015-10-03T08:08:27.265Z</time>
      </trkpt>
      <trkpt lat="45.2931" lon="4.21669">
        <ele>781.625</ele>
        <time>2015-10-03T08:08:29.291Z</time>
      </trkpt>
      <trkpt lat="45.29311" lon="4.21679">
        <ele>781.52</ele>
        <time>2015-10-03T08:08:30.291Z</time>
      </trkpt>
      <trkpt lat="45.29314" lon="4.21685">
        <ele>781.41666666667</ele>
        <time>2015-10-03T08:08:31.300Z</time>
      </trkpt>
      <trkpt lat="45.29322" lon="4.21703">
        <ele>781.2</ele>
        <time>2015-10-03T08:08:34.274Z</time>
      </trkpt>
      <trkpt lat="45.29328" lon="4.21725">
        <ele>780.76</ele>
        <time>2015-10-03T08:08:37.277Z</time>
      </trkpt>
      <trkpt lat="45.29332" lon="4.21739">
        <ele>780.56</ele>
        <time>2015-10-03T08:08:39.289Z</time>
      </trkpt>
      <trkpt lat="45.29337" lon="4.21759">
        <ele>780.16666666667</ele>
        <time>2015-10-03T08:08:42.291Z</time>
      </trkpt>
      <trkpt lat="45.2934" lon="4.21781">
        <ele>780</ele>
        <time>2015-10-03T08:08:45.273Z</time>
      </trkpt>
      <trkpt lat="45.29341" lon="4.21795">
        <ele>779.79166666667</ele>
        <time>2015-10-03T08:08:47.279Z</time>
      </trkpt>
      <trkpt lat="45.29341" lon="4.21804">
        <ele>779.8</ele>
        <time>2015-10-03T08:08:48.278Z</time>
      </trkpt>
      <trkpt lat="45.29341" lon="4.2181">
        <ele>779.76923076923</ele>
        <time>2015-10-03T08:08:49.277Z</time>
      </trkpt>
      <trkpt lat="45.29339" lon="4.21831">
        <ele>779.76</ele>
        <time>2015-10-03T08:08:52.278Z</time>
      </trkpt>
      <trkpt lat="45.29338" lon="4.21838">
        <ele>779.80769230769</ele>
        <time>2015-10-03T08:08:53.263Z</time>
      </trkpt>
      <trkpt lat="45.29337" lon="4.21844">
        <ele>779.73076923077</ele>
        <time>2015-10-03T08:08:54.277Z</time>
      </trkpt>
      <trkpt lat="45.29336" lon="4.21851">
        <ele>779.76923076923</ele>
        <time>2015-10-03T08:08:55.274Z</time>
      </trkpt>
      <trkpt lat="45.29335" lon="4.21864">
        <ele>779.76923076923</ele>
        <time>2015-10-03T08:08:57.269Z</time>
      </trkpt>
      <trkpt lat="45.29334" lon="4.21871">
        <ele>779.84615384615</ele>
        <time>2015-10-03T08:08:58.273Z</time>
      </trkpt>
      <trkpt lat="45.29331" lon="4.21888">
        <ele>779.92307692308</ele>
        <time>2015-10-03T08:09:01.277Z</time>
      </trkpt>
      <trkpt lat="45.2933" lon="4.21902">
        <ele>780.07692307692</ele>
        <time>2015-10-03T08:09:03.274Z</time>
      </trkpt>
      <trkpt lat="45.29329" lon="4.21919">
        <ele>780.19230769231</ele>
        <time>2015-10-03T08:09:06.276Z</time>
      </trkpt>
      <trkpt lat="45.29328" lon="4.21927">
        <ele>780.34615384615</ele>
        <time>2015-10-03T08:09:08.278Z</time>
      </trkpt>
      <trkpt lat="45.29328" lon="4.21928">
        <ele>780.4</ele>
        <time>2015-10-03T08:09:09.299Z</time>
      </trkpt>
      <trkpt lat="45.29328" lon="4.21932">
        <ele>780.44</ele>
        <time>2015-10-03T08:09:10.301Z</time>
      </trkpt>
      <trkpt lat="45.29327" lon="4.21939">
        <ele>780.42307692308</ele>
        <time>2015-10-03T08:09:11.274Z</time>
      </trkpt>
      <trkpt lat="45.29326" lon="4.21951">
        <ele>780.5</ele>
        <time>2015-10-03T08:09:13.272Z</time>
      </trkpt>
      <trkpt lat="45.29323" lon="4.21974">
        <ele>780.64</ele>
        <time>2015-10-03T08:09:17.265Z</time>
      </trkpt>
      <trkpt lat="45.29323" lon="4.21979">
        <ele>780.66666666667</ele>
        <time>2015-10-03T08:09:18.266Z</time>
      </trkpt>
      <trkpt lat="45.29323" lon="4.21985">
        <ele>780.72</ele>
        <time>2015-10-03T08:09:19.272Z</time>
      </trkpt>
      <trkpt lat="45.29323" lon="4.21999">
        <ele>780.95833333333</ele>
        <time>2015-10-03T08:09:22.285Z</time>
      </trkpt>
      <trkpt lat="45.29323" lon="4.22001">
        <ele>781</ele>
        <time>2015-10-03T08:09:23.292Z</time>
      </trkpt>
      <trkpt lat="45.29322" lon="4.22003">
        <ele>781</ele>
        <time>2015-10-03T08:09:24.294Z</time>
      </trkpt>
      <trkpt lat="45.29322" lon="4.22005">
        <ele>781.04166666667</ele>
        <time>2015-10-03T08:09:25.277Z</time>
      </trkpt>
      <trkpt lat="45.29321" lon="4.22008">
        <ele>781.08333333333</ele>
        <time>2015-10-03T08:09:26.288Z</time>
      </trkpt>
      <trkpt lat="45.2932" lon="4.2201">
        <ele>781.125</ele>
        <time>2015-10-03T08:09:27.294Z</time>
      </trkpt>
      <trkpt lat="45.29315" lon="4.22014">
        <ele>781.16666666667</ele>
        <time>2015-10-03T08:09:29.314Z</time>
      </trkpt>
      <trkpt lat="45.29311" lon="4.22019">
        <ele>781.25</ele>
        <time>2015-10-03T08:09:31.312Z</time>
      </trkpt>
      <trkpt lat="45.29306" lon="4.22027">
        <ele>781.375</ele>
        <time>2015-10-03T08:09:34.347Z</time>
      </trkpt>
      <trkpt lat="45.29304" lon="4.22029">
        <ele>781.45833333333</ele>
        <time>2015-10-03T08:09:35.345Z</time>
      </trkpt>
      <trkpt lat="45.29298" lon="4.22035">
        <ele>781.70833333333</ele>
        <time>2015-10-03T08:09:38.325Z</time>
      </trkpt>
      <trkpt lat="45.29294" lon="4.22044">
        <ele>781.92</ele>
        <time>2015-10-03T08:09:41.289Z</time>
      </trkpt>
      <trkpt lat="45.29294" lon="4.2205">
        <ele>782.04</ele>
        <time>2015-10-03T08:09:42.294Z</time>
      </trkpt>
      <trkpt lat="45.29293" lon="4.22054">
        <ele>782.12</ele>
        <time>2015-10-03T08:09:43.301Z</time>
      </trkpt>
      <trkpt lat="45.2929" lon="4.22061">
        <ele>782.24</ele>
        <time>2015-10-03T08:09:45.336Z</time>
      </trkpt>
      <trkpt lat="45.29288" lon="4.22064">
        <ele>782.32</ele>
        <time>2015-10-03T08:09:46.322Z</time>
      </trkpt>
      <trkpt lat="45.29287" lon="4.22074">
        <ele>782.4</ele>
        <time>2015-10-03T08:09:48.334Z</time>
      </trkpt>
      <trkpt lat="45.2929" lon="4.22092">
        <ele>782.68</ele>
        <time>2015-10-03T08:09:51.342Z</time>
      </trkpt>
      <trkpt lat="45.29292" lon="4.22107">
        <ele>782.92307692308</ele>
        <time>2015-10-03T08:09:54.279Z</time>
      </trkpt>
      <trkpt lat="45.29294" lon="4.22111">
        <ele>782.96153846154</ele>
        <time>2015-10-03T08:09:55.286Z</time>
      </trkpt>
      <trkpt lat="45.29297" lon="4.22116">
        <ele>783.07692307692</ele>
        <time>2015-10-03T08:09:56.284Z</time>
      </trkpt>
      <trkpt lat="45.29302" lon="4.22122">
        <ele>783.19230769231</ele>
        <time>2015-10-03T08:09:57.288Z</time>
      </trkpt>
      <trkpt lat="45.29304" lon="4.22129">
        <ele>783.26923076923</ele>
        <time>2015-10-03T08:09:58.288Z</time>
      </trkpt>
      <trkpt lat="45.29307" lon="4.22147">
        <ele>783.57692307692</ele>
        <time>2015-10-03T08:10:01.276Z</time>
      </trkpt>
      <trkpt lat="45.2931" lon="4.22162">
        <ele>783.92307692308</ele>
        <time>2015-10-03T08:10:04.303Z</time>
      </trkpt>
      <trkpt lat="45.29312" lon="4.22167">
        <ele>784.12</ele>
        <time>2015-10-03T08:10:05.317Z</time>
      </trkpt>
      <trkpt lat="45.29314" lon="4.22175">
        <ele>784.28</ele>
        <time>2015-10-03T08:10:07.323Z</time>
      </trkpt>
      <trkpt lat="45.29316" lon="4.22177">
        <ele>784.4</ele>
        <time>2015-10-03T08:10:08.319Z</time>
      </trkpt>
      <trkpt lat="45.29319" lon="4.22179">
        <ele>784.52</ele>
        <time>2015-10-03T08:10:09.352Z</time>
      </trkpt>
      <trkpt lat="45.29319" lon="4.22183">
        <ele>784.53846153846</ele>
        <time>2015-10-03T08:10:10.332Z</time>
      </trkpt>
      <trkpt lat="45.29318" lon="4.22191">
        <ele>784.69230769231</ele>
        <time>2015-10-03T08:10:11.304Z</time>
      </trkpt>
      <trkpt lat="45.29318" lon="4.22205">
        <ele>784.92307692308</ele>
        <time>2015-10-03T08:10:13.296Z</time>
      </trkpt>
      <trkpt lat="45.29318" lon="4.2221">
        <ele>785.07692307692</ele>
        <time>2015-10-03T08:10:14.299Z</time>
      </trkpt>
      <trkpt lat="45.29317" lon="4.22215">
        <ele>785.26923076923</ele>
        <time>2015-10-03T08:10:15.298Z</time>
      </trkpt>
      <trkpt lat="45.29315" lon="4.22218">
        <ele>785.38461538462</ele>
        <time>2015-10-03T08:10:16.315Z</time>
      </trkpt>
      <trkpt lat="45.29313" lon="4.22221">
        <ele>785.6</ele>
        <time>2015-10-03T08:10:17.320Z</time>
      </trkpt>
      <trkpt lat="45.29312" lon="4.22223">
        <ele>785.76</ele>
        <time>2015-10-03T08:10:18.319Z</time>
      </trkpt>
      <trkpt lat="45.29311" lon="4.22227">
        <ele>785.92</ele>
        <time>2015-10-03T08:10:19.340Z</time>
      </trkpt>
      <trkpt lat="45.29309" lon="4.22243">
        <ele>786.68</ele>
        <time>2015-10-03T08:10:23.877Z</time>
      </trkpt>
      <trkpt lat="45.29307" lon="4.22244">
        <ele>786.84</ele>
        <time>2015-10-03T08:10:24.864Z</time>
      </trkpt>
      <trkpt lat="45.29304" lon="4.22247">
        <ele>786.96</ele>
        <time>2015-10-03T08:10:25.853Z</time>
      </trkpt>
      <trkpt lat="45.29303" lon="4.22252">
        <ele>787.16</ele>
        <time>2015-10-03T08:10:26.832Z</time>
      </trkpt>
      <trkpt lat="45.29302" lon="4.2226">
        <ele>787.48</ele>
        <time>2015-10-03T08:10:28.834Z</time>
      </trkpt>
      <trkpt lat="45.293" lon="4.22272">
        <ele>788.04</ele>
        <time>2015-10-03T08:10:31.800Z</time>
      </trkpt>
      <trkpt lat="45.293" lon="4.22279">
        <ele>788.32</ele>
        <time>2015-10-03T08:10:33.817Z</time>
      </trkpt>
      <trkpt lat="45.293" lon="4.22287">
        <ele>788.76</ele>
        <time>2015-10-03T08:10:35.845Z</time>
      </trkpt>
      <trkpt lat="45.29299" lon="4.2229">
        <ele>788.92</ele>
        <time>2015-10-03T08:10:36.826Z</time>
      </trkpt>
      <trkpt lat="45.29299" lon="4.22294">
        <ele>789.04</ele>
        <time>2015-10-03T08:10:37.836Z</time>
      </trkpt>
      <trkpt lat="45.29298" lon="4.22296">
        <ele>789.24</ele>
        <time>2015-10-03T08:10:38.870Z</time>
      </trkpt>
      <trkpt lat="45.29298" lon="4.22299">
        <ele>789.4</ele>
        <time>2015-10-03T08:10:39.918Z</time>
      </trkpt>
      <trkpt lat="45.29296" lon="4.22315">
        <ele>789.84</ele>
        <time>2015-10-03T08:10:43.893Z</time>
      </trkpt>
      <trkpt lat="45.29293" lon="4.22327">
        <ele>790.16</ele>
        <time>2015-10-03T08:10:46.896Z</time>
      </trkpt>
      <trkpt lat="45.29289" lon="4.22343">
        <ele>790.64</ele>
        <time>2015-10-03T08:10:50.864Z</time>
      </trkpt>
      <trkpt lat="45.29288" lon="4.2235">
        <ele>790.76</ele>
        <time>2015-10-03T08:10:52.849Z</time>
      </trkpt>
      <trkpt lat="45.29287" lon="4.22353">
        <ele>790.80769230769</ele>
        <time>2015-10-03T08:10:53.815Z</time>
      </trkpt>
      <trkpt lat="45.29286" lon="4.22358">
        <ele>790.96153846154</ele>
        <time>2015-10-03T08:10:54.829Z</time>
      </trkpt>
      <trkpt lat="45.29278" lon="4.22393">
        <ele>791.4</ele>
        <time>2015-10-03T08:10:59.797Z</time>
      </trkpt>
      <trkpt lat="45.29278" lon="4.22402">
        <ele>791.58333333333</ele>
        <time>2015-10-03T08:11:01.829Z</time>
      </trkpt>
      <trkpt lat="45.29276" lon="4.22405">
        <ele>791.75</ele>
        <time>2015-10-03T08:11:03.082Z</time>
      </trkpt>
      <trkpt lat="45.29275" lon="4.2241">
        <ele>791.84</ele>
        <time>2015-10-03T08:11:03.809Z</time>
      </trkpt>
      <trkpt lat="45.29275" lon="4.22416">
        <ele>791.88</ele>
        <time>2015-10-03T08:11:04.838Z</time>
      </trkpt>
      <trkpt lat="45.29274" lon="4.22418">
        <ele>792</ele>
        <time>2015-10-03T08:11:05.835Z</time>
      </trkpt>
      <trkpt lat="45.29273" lon="4.22421">
        <ele>792.12</ele>
        <time>2015-10-03T08:11:06.812Z</time>
      </trkpt>
      <trkpt lat="45.29272" lon="4.22424">
        <ele>792.2</ele>
        <time>2015-10-03T08:11:07.815Z</time>
      </trkpt>
      <trkpt lat="45.29271" lon="4.22426">
        <ele>792.32</ele>
        <time>2015-10-03T08:11:08.879Z</time>
      </trkpt>
      <trkpt lat="45.2927" lon="4.22428">
        <ele>792.48</ele>
        <time>2015-10-03T08:11:09.853Z</time>
      </trkpt>
      <trkpt lat="45.29269" lon="4.22434">
        <ele>792.72</ele>
        <time>2015-10-03T08:11:11.844Z</time>
      </trkpt>
      <trkpt lat="45.29266" lon="4.22445">
        <ele>793.08</ele>
        <time>2015-10-03T08:11:14.846Z</time>
      </trkpt>
      <trkpt lat="45.29263" lon="4.22456">
        <ele>793.58333333333</ele>
        <time>2015-10-03T08:11:17.851Z</time>
      </trkpt>
      <trkpt lat="45.29263" lon="4.2246">
        <ele>793.75</ele>
        <time>2015-10-03T08:11:18.841Z</time>
      </trkpt>
      <trkpt lat="45.29262" lon="4.22464">
        <ele>793.79166666667</ele>
        <time>2015-10-03T08:11:19.836Z</time>
      </trkpt>
      <trkpt lat="45.29261" lon="4.22467">
        <ele>793.91666666667</ele>
        <time>2015-10-03T08:11:20.835Z</time>
      </trkpt>
      <trkpt lat="45.29259" lon="4.2247">
        <ele>794.125</ele>
        <time>2015-10-03T08:11:21.862Z</time>
      </trkpt>
      <trkpt lat="45.29257" lon="4.22472">
        <ele>794.20833333333</ele>
        <time>2015-10-03T08:11:22.892Z</time>
      </trkpt>
      <trkpt lat="45.29255" lon="4.22474">
        <ele>794.32</ele>
        <time>2015-10-03T08:11:23.901Z</time>
      </trkpt>
      <trkpt lat="45.29254" lon="4.22478">
        <ele>794.44</ele>
        <time>2015-10-03T08:11:24.917Z</time>
      </trkpt>
      <trkpt lat="45.29253" lon="4.22485">
        <ele>794.52</ele>
        <time>2015-10-03T08:11:25.908Z</time>
      </trkpt>
      <trkpt lat="45.29253" lon="4.22491">
        <ele>794.64</ele>
        <time>2015-10-03T08:11:26.903Z</time>
      </trkpt>
      <trkpt lat="45.29253" lon="4.22502">
        <ele>794.84</ele>
        <time>2015-10-03T08:11:28.875Z</time>
      </trkpt>
      <trkpt lat="45.29253" lon="4.22507">
        <ele>795.04</ele>
        <time>2015-10-03T08:11:29.886Z</time>
      </trkpt>
      <trkpt lat="45.29254" lon="4.2252">
        <ele>795.4</ele>
        <time>2015-10-03T08:11:32.898Z</time>
      </trkpt>
      <trkpt lat="45.29253" lon="4.22524">
        <ele>795.56</ele>
        <time>2015-10-03T08:11:33.909Z</time>
      </trkpt>
      <trkpt lat="45.29253" lon="4.22528">
        <ele>795.68</ele>
        <time>2015-10-03T08:11:34.901Z</time>
      </trkpt>
      <trkpt lat="45.29252" lon="4.22534">
        <ele>795.96</ele>
        <time>2015-10-03T08:11:36.861Z</time>
      </trkpt>
      <trkpt lat="45.29251" lon="4.22537">
        <ele>796.16</ele>
        <time>2015-10-03T08:11:37.872Z</time>
      </trkpt>
      <trkpt lat="45.29251" lon="4.22543">
        <ele>796.36</ele>
        <time>2015-10-03T08:11:39.891Z</time>
      </trkpt>
      <trkpt lat="45.29251" lon="4.22547">
        <ele>796.52</ele>
        <time>2015-10-03T08:11:40.893Z</time>
      </trkpt>
      <trkpt lat="45.29249" lon="4.2256">
        <ele>797.16</ele>
        <time>2015-10-03T08:11:44.850Z</time>
      </trkpt>
      <trkpt lat="45.29248" lon="4.22562">
        <ele>797.32</ele>
        <time>2015-10-03T08:11:45.870Z</time>
      </trkpt>
      <trkpt lat="45.29247" lon="4.22566">
        <ele>797.42307692308</ele>
        <time>2015-10-03T08:11:46.852Z</time>
      </trkpt>
      <trkpt lat="45.29246" lon="4.2257">
        <ele>797.57692307692</ele>
        <time>2015-10-03T08:11:47.857Z</time>
      </trkpt>
      <trkpt lat="45.29246" lon="4.22571">
        <ele>797.76923076923</ele>
        <time>2015-10-03T08:11:48.856Z</time>
      </trkpt>
      <trkpt lat="45.29245" lon="4.22573">
        <ele>797.88461538462</ele>
        <time>2015-10-03T08:11:49.866Z</time>
      </trkpt>
      <trkpt lat="45.29244" lon="4.22577">
        <ele>798.07692307692</ele>
        <time>2015-10-03T08:11:50.876Z</time>
      </trkpt>
      <trkpt lat="45.29244" lon="4.22581">
        <ele>798.30769230769</ele>
        <time>2015-10-03T08:11:51.868Z</time>
      </trkpt>
      <trkpt lat="45.29243" lon="4.22585">
        <ele>798.53846153846</ele>
        <time>2015-10-03T08:11:52.868Z</time>
      </trkpt>
      <trkpt lat="45.29243" lon="4.22588">
        <ele>798.73076923077</ele>
        <time>2015-10-03T08:11:53.875Z</time>
      </trkpt>
      <trkpt lat="45.29242" lon="4.22592">
        <ele>798.96153846154</ele>
        <time>2015-10-03T08:11:54.872Z</time>
      </trkpt>
      <trkpt lat="45.29242" lon="4.22594">
        <ele>799.11538461538</ele>
        <time>2015-10-03T08:11:55.859Z</time>
      </trkpt>
      <trkpt lat="45.29242" lon="4.22596">
        <ele>799.30769230769</ele>
        <time>2015-10-03T08:11:56.858Z</time>
      </trkpt>
      <trkpt lat="45.29241" lon="4.22597">
        <ele>799.53846153846</ele>
        <time>2015-10-03T08:11:57.866Z</time>
      </trkpt>
      <trkpt lat="45.29241" lon="4.22599">
        <ele>799.84615384615</ele>
        <time>2015-10-03T08:11:58.862Z</time>
      </trkpt>
      <trkpt lat="45.29242" lon="4.22601">
        <ele>800.03846153846</ele>
        <time>2015-10-03T08:11:59.869Z</time>
      </trkpt>
      <trkpt lat="45.29245" lon="4.22603">
        <ele>800.26923076923</ele>
        <time>2015-10-03T08:12:00.867Z</time>
      </trkpt>
      <trkpt lat="45.29247" lon="4.22606">
        <ele>800.46153846154</ele>
        <time>2015-10-03T08:12:01.861Z</time>
      </trkpt>
      <trkpt lat="45.29247" lon="4.2261">
        <ele>800.76</ele>
        <time>2015-10-03T08:12:02.890Z</time>
      </trkpt>
      <trkpt lat="45.29248" lon="4.22616">
        <ele>801.03846153846</ele>
        <time>2015-10-03T08:12:04.874Z</time>
      </trkpt>
      <trkpt lat="45.29248" lon="4.22619">
        <ele>801.30769230769</ele>
        <time>2015-10-03T08:12:05.892Z</time>
      </trkpt>
      <trkpt lat="45.29249" lon="4.22621">
        <ele>801.53846153846</ele>
        <time>2015-10-03T08:12:06.900Z</time>
      </trkpt>
      <trkpt lat="45.2925" lon="4.22624">
        <ele>801.76923076923</ele>
        <time>2015-10-03T08:12:07.901Z</time>
      </trkpt>
      <trkpt lat="45.2925" lon="4.22626">
        <ele>802.08</ele>
        <time>2015-10-03T08:12:08.893Z</time>
      </trkpt>
      <trkpt lat="45.29248" lon="4.22628">
        <ele>802.24</ele>
        <time>2015-10-03T08:12:09.896Z</time>
      </trkpt>
      <trkpt lat="45.29246" lon="4.22632">
        <ele>802.44</ele>
        <time>2015-10-03T08:12:10.898Z</time>
      </trkpt>
      <trkpt lat="45.29239" lon="4.22642">
        <ele>803.19230769231</ele>
        <time>2015-10-03T08:12:14.866Z</time>
      </trkpt>
      <trkpt lat="45.29235" lon="4.22647">
        <ele>803.61538461538</ele>
        <time>2015-10-03T08:12:16.822Z</time>
      </trkpt>
      <trkpt lat="45.29232" lon="4.22655">
        <ele>804.16</ele>
        <time>2015-10-03T08:12:19.910Z</time>
      </trkpt>
      <trkpt lat="45.2923" lon="4.22661">
        <ele>804.56</ele>
        <time>2015-10-03T08:12:21.910Z</time>
      </trkpt>
      <trkpt lat="45.29229" lon="4.22667">
        <ele>804.75</ele>
        <time>2015-10-03T08:12:23.902Z</time>
      </trkpt>
      <trkpt lat="45.29229" lon="4.22671">
        <ele>804.91666666667</ele>
        <time>2015-10-03T08:12:24.882Z</time>
      </trkpt>
      <trkpt lat="45.29229" lon="4.22674">
        <ele>805.08333333333</ele>
        <time>2015-10-03T08:12:25.888Z</time>
      </trkpt>
      <trkpt lat="45.29229" lon="4.22677">
        <ele>805.29166666667</ele>
        <time>2015-10-03T08:12:26.910Z</time>
      </trkpt>
      <trkpt lat="45.29228" lon="4.22681">
        <ele>805.375</ele>
        <time>2015-10-03T08:12:27.909Z</time>
      </trkpt>
      <trkpt lat="45.29228" lon="4.22684">
        <ele>805.54166666667</ele>
        <time>2015-10-03T08:12:28.926Z</time>
      </trkpt>
      <trkpt lat="45.29227" lon="4.22687">
        <ele>805.70833333333</ele>
        <time>2015-10-03T08:12:29.921Z</time>
      </trkpt>
      <trkpt lat="45.29226" lon="4.22689">
        <ele>805.83333333333</ele>
        <time>2015-10-03T08:12:30.917Z</time>
      </trkpt>
      <trkpt lat="45.29226" lon="4.22692">
        <ele>805.91666666667</ele>
        <time>2015-10-03T08:12:31.915Z</time>
      </trkpt>
      <trkpt lat="45.29226" lon="4.22695">
        <ele>806.04166666667</ele>
        <time>2015-10-03T08:12:32.934Z</time>
      </trkpt>
      <trkpt lat="45.29226" lon="4.22698">
        <ele>806.25</ele>
        <time>2015-10-03T08:12:33.936Z</time>
      </trkpt>
      <trkpt lat="45.29226" lon="4.22701">
        <ele>806.375</ele>
        <time>2015-10-03T08:12:34.931Z</time>
      </trkpt>
      <trkpt lat="45.29226" lon="4.22704">
        <ele>806.45833333333</ele>
        <time>2015-10-03T08:12:35.934Z</time>
      </trkpt>
      <trkpt lat="45.29224" lon="4.22714">
        <ele>806.875</ele>
        <time>2015-10-03T08:12:39.912Z</time>
      </trkpt>
      <trkpt lat="45.29223" lon="4.2272">
        <ele>807.08333333333</ele>
        <time>2015-10-03T08:12:41.923Z</time>
      </trkpt>
      <trkpt lat="45.29222" lon="4.22732">
        <ele>807.52</ele>
        <time>2015-10-03T08:12:45.878Z</time>
      </trkpt>
      <trkpt lat="45.29222" lon="4.22735">
        <ele>807.64</ele>
        <time>2015-10-03T08:12:46.890Z</time>
      </trkpt>
      <trkpt lat="45.29221" lon="4.22747">
        <ele>808</ele>
        <time>2015-10-03T08:12:50.882Z</time>
      </trkpt>
      <trkpt lat="45.2922" lon="4.22756">
        <ele>808.42307692308</ele>
        <time>2015-10-03T08:12:53.872Z</time>
      </trkpt>
      <trkpt lat="45.29219" lon="4.22758">
        <ele>808.53846153846</ele>
        <time>2015-10-03T08:12:54.872Z</time>
      </trkpt>
      <trkpt lat="45.29217" lon="4.2276">
        <ele>808.69230769231</ele>
        <time>2015-10-03T08:12:55.880Z</time>
      </trkpt>
      <trkpt lat="45.29215" lon="4.22764">
        <ele>808.92307692308</ele>
        <time>2015-10-03T08:12:57.898Z</time>
      </trkpt>
      <trkpt lat="45.29215" lon="4.22766">
        <ele>808.96153846154</ele>
        <time>2015-10-03T08:12:58.888Z</time>
      </trkpt>
      <trkpt lat="45.29214" lon="4.22771">
        <ele>809.23076923077</ele>
        <time>2015-10-03T08:13:00.925Z</time>
      </trkpt>
      <trkpt lat="45.29213" lon="4.22776">
        <ele>809.52</ele>
        <time>2015-10-03T08:13:02.924Z</time>
      </trkpt>
      <trkpt lat="45.29213" lon="4.22778">
        <ele>809.57692307692</ele>
        <time>2015-10-03T08:13:03.916Z</time>
      </trkpt>
      <trkpt lat="45.29212" lon="4.2278">
        <ele>809.65384615385</ele>
        <time>2015-10-03T08:13:04.894Z</time>
      </trkpt>
      <trkpt lat="45.29211" lon="4.22783">
        <ele>809.84</ele>
        <time>2015-10-03T08:13:05.907Z</time>
      </trkpt>
      <trkpt lat="45.29211" lon="4.22786">
        <ele>809.92</ele>
        <time>2015-10-03T08:13:06.943Z</time>
      </trkpt>
      <trkpt lat="45.2921" lon="4.22792">
        <ele>810.08</ele>
        <time>2015-10-03T08:13:08.951Z</time>
      </trkpt>
      <trkpt lat="45.2921" lon="4.22795">
        <ele>810.24</ele>
        <time>2015-10-03T08:13:09.922Z</time>
      </trkpt>
      <trkpt lat="45.29209" lon="4.22801">
        <ele>810.38461538462</ele>
        <time>2015-10-03T08:13:11.869Z</time>
      </trkpt>
      <trkpt lat="45.29208" lon="4.22807">
        <ele>810.6</ele>
        <time>2015-10-03T08:13:13.884Z</time>
      </trkpt>
      <trkpt lat="45.29208" lon="4.2281">
        <ele>810.65384615385</ele>
        <time>2015-10-03T08:13:14.882Z</time>
      </trkpt>
      <trkpt lat="45.29207" lon="4.22812">
        <ele>810.76923076923</ele>
        <time>2015-10-03T08:13:15.876Z</time>
      </trkpt>
      <trkpt lat="45.29208" lon="4.22816">
        <ele>810.84615384615</ele>
        <time>2015-10-03T08:13:16.857Z</time>
      </trkpt>
      <trkpt lat="45.29209" lon="4.22819">
        <ele>810.92307692308</ele>
        <time>2015-10-03T08:13:17.845Z</time>
      </trkpt>
      <trkpt lat="45.29209" lon="4.22823">
        <ele>811.03846153846</ele>
        <time>2015-10-03T08:13:18.853Z</time>
      </trkpt>
      <trkpt lat="45.29209" lon="4.22826">
        <ele>811.11538461538</ele>
        <time>2015-10-03T08:13:19.849Z</time>
      </trkpt>
      <trkpt lat="45.29209" lon="4.22829">
        <ele>811.23076923077</ele>
        <time>2015-10-03T08:13:20.848Z</time>
      </trkpt>
      <trkpt lat="45.29208" lon="4.22832">
        <ele>811.30769230769</ele>
        <time>2015-10-03T08:13:21.854Z</time>
      </trkpt>
      <trkpt lat="45.29205" lon="4.22844">
        <ele>811.73076923077</ele>
        <time>2015-10-03T08:13:25.859Z</time>
      </trkpt>
      <trkpt lat="45.29203" lon="4.22853">
        <ele>812.03846153846</ele>
        <time>2015-10-03T08:13:28.854Z</time>
      </trkpt>
      <trkpt lat="45.29203" lon="4.22856">
        <ele>812.15384615385</ele>
        <time>2015-10-03T08:13:29.854Z</time>
      </trkpt>
      <trkpt lat="45.29203" lon="4.22859">
        <ele>812.30769230769</ele>
        <time>2015-10-03T08:13:30.850Z</time>
      </trkpt>
      <trkpt lat="45.29203" lon="4.22861">
        <ele>812.38461538462</ele>
        <time>2015-10-03T08:13:31.844Z</time>
      </trkpt>
      <trkpt lat="45.29202" lon="4.22863">
        <ele>812.46153846154</ele>
        <time>2015-10-03T08:13:32.846Z</time>
      </trkpt>
      <trkpt lat="45.29201" lon="4.22866">
        <ele>812.61538461538</ele>
        <time>2015-10-03T08:13:33.866Z</time>
      </trkpt>
      <trkpt lat="45.292" lon="4.22868">
        <ele>812.76923076923</ele>
        <time>2015-10-03T08:13:34.855Z</time>
      </trkpt>
      <trkpt lat="45.29198" lon="4.22873">
        <ele>813</ele>
        <time>2015-10-03T08:13:36.844Z</time>
      </trkpt>
      <trkpt lat="45.29195" lon="4.2288">
        <ele>813.46153846154</ele>
        <time>2015-10-03T08:13:39.843Z</time>
      </trkpt>
      <trkpt lat="45.29194" lon="4.22889">
        <ele>813.92307692308</ele>
        <time>2015-10-03T08:13:42.845Z</time>
      </trkpt>
      <trkpt lat="45.29194" lon="4.229">
        <ele>814.42307692308</ele>
        <time>2015-10-03T08:13:46.841Z</time>
      </trkpt>
      <trkpt lat="45.29194" lon="4.22908">
        <ele>814.92307692308</ele>
        <time>2015-10-03T08:13:49.840Z</time>
      </trkpt>
      <trkpt lat="45.29194" lon="4.22911">
        <ele>815.07692307692</ele>
        <time>2015-10-03T08:13:50.823Z</time>
      </trkpt>
      <trkpt lat="45.29194" lon="4.22913">
        <ele>815.23076923077</ele>
        <time>2015-10-03T08:13:51.812Z</time>
      </trkpt>
      <trkpt lat="45.29194" lon="4.22916">
        <ele>815.42307692308</ele>
        <time>2015-10-03T08:13:52.812Z</time>
      </trkpt>
      <trkpt lat="45.29194" lon="4.22918">
        <ele>815.61538461538</ele>
        <time>2015-10-03T08:13:53.820Z</time>
      </trkpt>
      <trkpt lat="45.29195" lon="4.2292">
        <ele>815.73076923077</ele>
        <time>2015-10-03T08:13:54.824Z</time>
      </trkpt>
      <trkpt lat="45.29196" lon="4.22922">
        <ele>815.88461538462</ele>
        <time>2015-10-03T08:13:55.821Z</time>
      </trkpt>
      <trkpt lat="45.29196" lon="4.22924">
        <ele>816</ele>
        <time>2015-10-03T08:13:56.812Z</time>
      </trkpt>
      <trkpt lat="45.29196" lon="4.22926">
        <ele>816.11538461538</ele>
        <time>2015-10-03T08:13:57.797Z</time>
      </trkpt>
      <trkpt lat="45.29198" lon="4.2293">
        <ele>816.30769230769</ele>
        <time>2015-10-03T08:13:58.805Z</time>
      </trkpt>
      <trkpt lat="45.292" lon="4.22932">
        <ele>816.38461538462</ele>
        <time>2015-10-03T08:13:59.800Z</time>
      </trkpt>
      <trkpt lat="45.29202" lon="4.22933">
        <ele>816.73076923077</ele>
        <time>2015-10-03T08:14:02.802Z</time>
      </trkpt>
      <trkpt lat="45.29202" lon="4.22933">
        <ele>817</ele>
        <time>2015-10-03T08:14:06.799Z</time>
      </trkpt>
      <trkpt lat="45.29202" lon="4.22933">
        <ele>817.30769230769</ele>
        <time>2015-10-03T08:14:09.801Z</time>
      </trkpt>
      <trkpt lat="45.29203" lon="4.22933">
        <ele>817.46153846154</ele>
        <time>2015-10-03T08:14:12.812Z</time>
      </trkpt>
      <trkpt lat="45.29203" lon="4.22932">
        <ele>817.53846153846</ele>
        <time>2015-10-03T08:14:16.805Z</time>
      </trkpt>
      <trkpt lat="45.29203" lon="4.22932">
        <ele>817.53846153846</ele>
        <time>2015-10-03T08:14:20.799Z</time>
      </trkpt>
      <trkpt lat="45.29203" lon="4.22933">
        <ele>817.6</ele>
        <time>2015-10-03T08:14:23.802Z</time>
      </trkpt>
      <trkpt lat="45.29203" lon="4.22934">
        <ele>817.5</ele>
        <time>2015-10-03T08:14:26.812Z</time>
      </trkpt>
      <trkpt lat="45.29203" lon="4.22934">
        <ele>817.44</ele>
        <time>2015-10-03T08:14:30.800Z</time>
      </trkpt>
      <trkpt lat="45.29203" lon="4.22934">
        <ele>817.5</ele>
        <time>2015-10-03T08:14:34.806Z</time>
      </trkpt>
      <trkpt lat="45.29203" lon="4.22934">
        <ele>817.45833333333</ele>
        <time>2015-10-03T08:14:38.830Z</time>
      </trkpt>
      <trkpt lat="45.29203" lon="4.22934">
        <ele>817.45833333333</ele>
        <time>2015-10-03T08:14:40.815Z</time>
      </trkpt>
      <trkpt lat="45.29202" lon="4.22934">
        <ele>817.45833333333</ele>
        <time>2015-10-03T08:14:44.818Z</time>
      </trkpt>
      <trkpt lat="45.29202" lon="4.22934">
        <ele>817.48</ele>
        <time>2015-10-03T08:14:47.819Z</time>
      </trkpt>
      <trkpt lat="45.29203" lon="4.22934">
        <ele>817.56</ele>
        <time>2015-10-03T08:14:51.814Z</time>
      </trkpt>
      <trkpt lat="45.29203" lon="4.22934">
        <ele>817.56</ele>
        <time>2015-10-03T08:14:55.808Z</time>
      </trkpt>
      <trkpt lat="45.29203" lon="4.22934">
        <ele>817.48</ele>
        <time>2015-10-03T08:14:58.814Z</time>
      </trkpt>
      <trkpt lat="45.29203" lon="4.22934">
        <ele>817.44</ele>
        <time>2015-10-03T08:15:02.807Z</time>
      </trkpt>
      <trkpt lat="45.29204" lon="4.22934">
        <ele>817.46153846154</ele>
        <time>2015-10-03T08:15:06.806Z</time>
      </trkpt>
      <trkpt lat="45.29204" lon="4.22934">
        <ele>817.53846153846</ele>
        <time>2015-10-03T08:15:09.812Z</time>
      </trkpt>
      <trkpt lat="45.29205" lon="4.22934">
        <ele>817.61538461538</ele>
        <time>2015-10-03T08:15:13.802Z</time>
      </trkpt>
      <trkpt lat="45.29205" lon="4.22934">
        <ele>817.57692307692</ele>
        <time>2015-10-03T08:15:16.812Z</time>
      </trkpt>
      <trkpt lat="45.29205" lon="4.22934">
        <ele>817.6</ele>
        <time>2015-10-03T08:15:19.813Z</time>
      </trkpt>
      <trkpt lat="45.29205" lon="4.22935">
        <ele>817.57692307692</ele>
        <time>2015-10-03T08:15:21.810Z</time>
      </trkpt>
      <trkpt lat="45.29205" lon="4.22935">
        <ele>817.6</ele>
        <time>2015-10-03T08:15:22.816Z</time>
      </trkpt>
      <trkpt lat="45.29205" lon="4.22935">
        <ele>817.6</ele>
        <time>2015-10-03T08:15:23.819Z</time>
      </trkpt>
      <trkpt lat="45.29205" lon="4.22936">
        <ele>817.64</ele>
        <time>2015-10-03T08:15:25.808Z</time>
      </trkpt>
      <trkpt lat="45.29206" lon="4.22937">
        <ele>817.69230769231</ele>
        <time>2015-10-03T08:15:27.804Z</time>
      </trkpt>
      <trkpt lat="45.29206" lon="4.22937">
        <ele>817.72</ele>
        <time>2015-10-03T08:15:28.823Z</time>
      </trkpt>
      <trkpt lat="45.29207" lon="4.22938">
        <ele>817.72</ele>
        <time>2015-10-03T08:15:30.813Z</time>
      </trkpt>
      <trkpt lat="45.29208" lon="4.2294">
        <ele>817.69230769231</ele>
        <time>2015-10-03T08:15:32.818Z</time>
      </trkpt>
      <trkpt lat="45.29209" lon="4.22941">
        <ele>817.68</ele>
        <time>2015-10-03T08:15:33.825Z</time>
      </trkpt>
      <trkpt lat="45.29209" lon="4.22941">
        <ele>817.57692307692</ele>
        <time>2015-10-03T08:15:37.801Z</time>
      </trkpt>
      <trkpt lat="45.2921" lon="4.22941">
        <ele>817.48</ele>
        <time>2015-10-03T08:15:40.809Z</time>
      </trkpt>
      <trkpt lat="45.29211" lon="4.22941">
        <ele>817.46153846154</ele>
        <time>2015-10-03T08:15:41.805Z</time>
      </trkpt>
      <trkpt lat="45.29214" lon="4.22942">
        <ele>817.46153846154</ele>
        <time>2015-10-03T08:15:42.800Z</time>
      </trkpt>
      <trkpt lat="45.29218" lon="4.22943">
        <ele>817.46153846154</ele>
        <time>2015-10-03T08:15:43.824Z</time>
      </trkpt>
      <trkpt lat="45.29223" lon="4.22943">
        <ele>817.36</ele>
        <time>2015-10-03T08:15:44.852Z</time>
      </trkpt>
      <trkpt lat="45.29228" lon="4.22944">
        <ele>817.32</ele>
        <time>2015-10-03T08:15:45.861Z</time>
      </trkpt>
      <trkpt lat="45.29232" lon="4.22946">
        <ele>817.28</ele>
        <time>2015-10-03T08:15:46.882Z</time>
      </trkpt>
      <trkpt lat="45.29236" lon="4.22949">
        <ele>817.24</ele>
        <time>2015-10-03T08:15:47.891Z</time>
      </trkpt>
      <trkpt lat="45.2924" lon="4.22953">
        <ele>817.12</ele>
        <time>2015-10-03T08:15:48.889Z</time>
      </trkpt>
      <trkpt lat="45.29257" lon="4.22941">
        <ele>817.08</ele>
        <time>2015-10-03T08:15:50.803Z</time>
      </trkpt>
      <trkpt lat="45.29263" lon="4.2294">
        <ele>816.91666666667</ele>
        <time>2015-10-03T08:15:51.805Z</time>
      </trkpt>
      <trkpt lat="45.29272" lon="4.22939">
        <ele>816.72</ele>
        <time>2015-10-03T08:15:53.809Z</time>
      </trkpt>
      <trkpt lat="45.29287" lon="4.22934">
        <ele>816.375</ele>
        <time>2015-10-03T08:15:56.812Z</time>
      </trkpt>
      <trkpt lat="45.29291" lon="4.22935">
        <ele>816.36</ele>
        <time>2015-10-03T08:15:57.817Z</time>
      </trkpt>
      <trkpt lat="45.29295" lon="4.22934">
        <ele>816.28</ele>
        <time>2015-10-03T08:15:58.821Z</time>
      </trkpt>
      <trkpt lat="45.293" lon="4.22933">
        <ele>816.20833333333</ele>
        <time>2015-10-03T08:15:59.818Z</time>
      </trkpt>
      <trkpt lat="45.29314" lon="4.2293">
        <ele>816.08333333333</ele>
        <time>2015-10-03T08:16:02.820Z</time>
      </trkpt>
      <trkpt lat="45.29318" lon="4.22928">
        <ele>815.95833333333</ele>
        <time>2015-10-03T08:16:03.812Z</time>
      </trkpt>
      <trkpt lat="45.29327" lon="4.22926">
        <ele>815.92</ele>
        <time>2015-10-03T08:16:05.805Z</time>
      </trkpt>
      <trkpt lat="45.29331" lon="4.22926">
        <ele>815.83333333333</ele>
        <time>2015-10-03T08:16:06.818Z</time>
      </trkpt>
      <trkpt lat="45.29334" lon="4.22925">
        <ele>815.83333333333</ele>
        <time>2015-10-03T08:16:07.818Z</time>
      </trkpt>
      <trkpt lat="45.29336" lon="4.22925">
        <ele>815.83333333333</ele>
        <time>2015-10-03T08:16:08.834Z</time>
      </trkpt>
      <trkpt lat="45.29334" lon="4.22924">
        <ele>815.83333333333</ele>
        <time>2015-10-03T08:16:09.873Z</time>
      </trkpt>
      <trkpt lat="45.29333" lon="4.22925">
        <ele>815.875</ele>
        <time>2015-10-03T08:16:10.911Z</time>
      </trkpt>
      <trkpt lat="45.29332" lon="4.22926">
        <ele>815.96</ele>
        <time>2015-10-03T08:16:11.881Z</time>
      </trkpt>
      <trkpt lat="45.29333" lon="4.22927">
        <ele>816</ele>
        <time>2015-10-03T08:16:12.864Z</time>
      </trkpt>
      <trkpt lat="45.29335" lon="4.22927">
        <ele>816.08</ele>
        <time>2015-10-03T08:16:13.877Z</time>
      </trkpt>
      <trkpt lat="45.29337" lon="4.22928">
        <ele>816.12</ele>
        <time>2015-10-03T08:16:14.886Z</time>
      </trkpt>
      <trkpt lat="45.29337" lon="4.22928">
        <ele>816.2</ele>
        <time>2015-10-03T08:16:15.871Z</time>
      </trkpt>
      <trkpt lat="45.29339" lon="4.2293">
        <ele>816.56</ele>
        <time>2015-10-03T08:16:17.874Z</time>
      </trkpt>
      <trkpt lat="45.29341" lon="4.22932">
        <ele>816.72</ele>
        <time>2015-10-03T08:16:18.865Z</time>
      </trkpt>
      <trkpt lat="45.29344" lon="4.22932">
        <ele>816.88</ele>
        <time>2015-10-03T08:16:19.868Z</time>
      </trkpt>
      <trkpt lat="45.2935" lon="4.22932">
        <ele>817.24</ele>
        <time>2015-10-03T08:16:21.885Z</time>
      </trkpt>
      <trkpt lat="45.29352" lon="4.2293">
        <ele>817.58333333333</ele>
        <time>2015-10-03T08:16:24.862Z</time>
      </trkpt>
      <trkpt lat="45.29353" lon="4.22929">
        <ele>817.79166666667</ele>
        <time>2015-10-03T08:16:25.866Z</time>
      </trkpt>
      <trkpt lat="45.29355" lon="4.22929">
        <ele>817.95833333333</ele>
        <time>2015-10-03T08:16:26.876Z</time>
      </trkpt>
      <trkpt lat="45.29356" lon="4.2293">
        <ele>818.125</ele>
        <time>2015-10-03T08:16:27.856Z</time>
      </trkpt>
      <trkpt lat="45.29357" lon="4.2293">
        <ele>818.45833333333</ele>
        <time>2015-10-03T08:16:28.813Z</time>
      </trkpt>
      <trkpt lat="45.29359" lon="4.22931">
        <ele>818.70833333333</ele>
        <time>2015-10-03T08:16:29.811Z</time>
      </trkpt>
      <trkpt lat="45.29361" lon="4.22932">
        <ele>818.91666666667</ele>
        <time>2015-10-03T08:16:30.812Z</time>
      </trkpt>
      <trkpt lat="45.29367" lon="4.22935">
        <ele>819.36</ele>
        <time>2015-10-03T08:16:32.810Z</time>
      </trkpt>
      <trkpt lat="45.29374" lon="4.22937">
        <ele>819.6</ele>
        <time>2015-10-03T08:16:33.812Z</time>
      </trkpt>
      <trkpt lat="45.29378" lon="4.22938">
        <ele>819.8</ele>
        <time>2015-10-03T08:16:34.805Z</time>
      </trkpt>
      <trkpt lat="45.29381" lon="4.2294">
        <ele>820.08</ele>
        <time>2015-10-03T08:16:35.799Z</time>
      </trkpt>
      <trkpt lat="45.29383" lon="4.22941">
        <ele>820.4</ele>
        <time>2015-10-03T08:16:36.803Z</time>
      </trkpt>
      <trkpt lat="45.29385" lon="4.22943">
        <ele>820.68</ele>
        <time>2015-10-03T08:16:37.831Z</time>
      </trkpt>
      <trkpt lat="45.29387" lon="4.22945">
        <ele>820.96</ele>
        <time>2015-10-03T08:16:38.835Z</time>
      </trkpt>
      <trkpt lat="45.29389" lon="4.22946">
        <ele>821.48</ele>
        <time>2015-10-03T08:16:40.838Z</time>
      </trkpt>
      <trkpt lat="45.29388" lon="4.22945">
        <ele>821.72</ele>
        <time>2015-10-03T08:16:41.852Z</time>
      </trkpt>
      <trkpt lat="45.29387" lon="4.22944">
        <ele>821.92</ele>
        <time>2015-10-03T08:16:42.844Z</time>
      </trkpt>
      <trkpt lat="45.29386" lon="4.22943">
        <ele>822.16</ele>
        <time>2015-10-03T08:16:43.847Z</time>
      </trkpt>
      <trkpt lat="45.29388" lon="4.22943">
        <ele>822.32</ele>
        <time>2015-10-03T08:16:44.834Z</time>
      </trkpt>
      <trkpt lat="45.29393" lon="4.22946">
        <ele>822.84</ele>
        <time>2015-10-03T08:16:46.839Z</time>
      </trkpt>
      <trkpt lat="45.29396" lon="4.22949">
        <ele>823</ele>
        <time>2015-10-03T08:16:47.863Z</time>
      </trkpt>
      <trkpt lat="45.29398" lon="4.22951">
        <ele>823.24</ele>
        <time>2015-10-03T08:16:48.880Z</time>
      </trkpt>
      <trkpt lat="45.29399" lon="4.22951">
        <ele>823.52</ele>
        <time>2015-10-03T08:16:49.886Z</time>
      </trkpt>
      <trkpt lat="45.29399" lon="4.22949">
        <ele>823.68</ele>
        <time>2015-10-03T08:16:50.898Z</time>
      </trkpt>
      <trkpt lat="45.29399" lon="4.22949">
        <ele>823.76923076923</ele>
        <time>2015-10-03T08:16:51.873Z</time>
      </trkpt>
      <trkpt lat="45.29398" lon="4.22949">
        <ele>824.36</ele>
        <time>2015-10-03T08:16:53.894Z</time>
      </trkpt>
      <trkpt lat="45.29398" lon="4.22949">
        <ele>824.96</ele>
        <time>2015-10-03T08:16:56.904Z</time>
      </trkpt>
      <trkpt lat="45.29399" lon="4.2295">
        <ele>825.68</ele>
        <time>2015-10-03T08:16:59.917Z</time>
      </trkpt>
      <trkpt lat="45.29401" lon="4.22952">
        <ele>825.92</ele>
        <time>2015-10-03T08:17:00.899Z</time>
      </trkpt>
      <trkpt lat="45.294" lon="4.22952">
        <ele>826.64</ele>
        <time>2015-10-03T08:17:04.899Z</time>
      </trkpt>
      <trkpt lat="45.294" lon="4.22952">
        <ele>827.28</ele>
        <time>2015-10-03T08:17:07.900Z</time>
      </trkpt>
      <trkpt lat="45.29399" lon="4.22953">
        <ele>827.72</ele>
        <time>2015-10-03T08:17:09.910Z</time>
      </trkpt>
      <trkpt lat="45.29398" lon="4.22955">
        <ele>828</ele>
        <time>2015-10-03T08:17:11.917Z</time>
      </trkpt>
      <trkpt lat="45.29398" lon="4.22956">
        <ele>828.57692307692</ele>
        <time>2015-10-03T08:17:14.875Z</time>
      </trkpt>
      <trkpt lat="45.294" lon="4.22958">
        <ele>828.76923076923</ele>
        <time>2015-10-03T08:17:15.826Z</time>
      </trkpt>
      <trkpt lat="45.29404" lon="4.22962">
        <ele>829.19230769231</ele>
        <time>2015-10-03T08:17:17.839Z</time>
      </trkpt>
      <trkpt lat="45.29406" lon="4.22963">
        <ele>829.38461538462</ele>
        <time>2015-10-03T08:17:18.860Z</time>
      </trkpt>
      <trkpt lat="45.29407" lon="4.22963">
        <ele>829.53846153846</ele>
        <time>2015-10-03T08:17:19.898Z</time>
      </trkpt>
      <trkpt lat="45.29407" lon="4.22963">
        <ele>829.84</ele>
        <time>2015-10-03T08:17:20.903Z</time>
      </trkpt>
      <trkpt lat="45.29408" lon="4.22963">
        <ele>830.04</ele>
        <time>2015-10-03T08:17:21.905Z</time>
      </trkpt>
      <trkpt lat="45.29408" lon="4.22963">
        <ele>830.07692307692</ele>
        <time>2015-10-03T08:17:22.912Z</time>
      </trkpt>
      <trkpt lat="45.29408" lon="4.22963">
        <ele>830.19230769231</ele>
        <time>2015-10-03T08:17:23.869Z</time>
      </trkpt>
      <trkpt lat="45.29408" lon="4.22964">
        <ele>830.38461538462</ele>
        <time>2015-10-03T08:17:24.877Z</time>
      </trkpt>
      <trkpt lat="45.2941" lon="4.22964">
        <ele>830.56</ele>
        <time>2015-10-03T08:17:25.903Z</time>
      </trkpt>
      <trkpt lat="45.29411" lon="4.22965">
        <ele>830.72</ele>
        <time>2015-10-03T08:17:26.899Z</time>
      </trkpt>
      <trkpt lat="45.29412" lon="4.22966">
        <ele>831.15384615385</ele>
        <time>2015-10-03T08:17:29.821Z</time>
      </trkpt>
      <trkpt lat="45.29414" lon="4.22967">
        <ele>831.26923076923</ele>
        <time>2015-10-03T08:17:30.839Z</time>
      </trkpt>
      <trkpt lat="45.29415" lon="4.22969">
        <ele>831.46153846154</ele>
        <time>2015-10-03T08:17:31.890Z</time>
      </trkpt>
      <trkpt lat="45.29416" lon="4.2297">
        <ele>831.61538461538</ele>
        <time>2015-10-03T08:17:32.892Z</time>
      </trkpt>
      <trkpt lat="45.29418" lon="4.22972">
        <ele>831.76923076923</ele>
        <time>2015-10-03T08:17:33.902Z</time>
      </trkpt>
      <trkpt lat="45.2942" lon="4.22973">
        <ele>832</ele>
        <time>2015-10-03T08:17:34.914Z</time>
      </trkpt>
      <trkpt lat="45.29422" lon="4.22974">
        <ele>832.11538461538</ele>
        <time>2015-10-03T08:17:35.890Z</time>
      </trkpt>
      <trkpt lat="45.29423" lon="4.22975">
        <ele>832.26923076923</ele>
        <time>2015-10-03T08:17:36.903Z</time>
      </trkpt>
      <trkpt lat="45.29425" lon="4.22976">
        <ele>832.46153846154</ele>
        <time>2015-10-03T08:17:37.897Z</time>
      </trkpt>
      <trkpt lat="45.29427" lon="4.22977">
        <ele>832.65384615385</ele>
        <time>2015-10-03T08:17:38.897Z</time>
      </trkpt>
      <trkpt lat="45.29429" lon="4.22978">
        <ele>832.76</ele>
        <time>2015-10-03T08:17:39.894Z</time>
      </trkpt>
      <trkpt lat="45.2943" lon="4.22979">
        <ele>832.96</ele>
        <time>2015-10-03T08:17:40.904Z</time>
      </trkpt>
      <trkpt lat="45.29432" lon="4.2298">
        <ele>833.12</ele>
        <time>2015-10-03T08:17:41.896Z</time>
      </trkpt>
      <trkpt lat="45.29434" lon="4.22981">
        <ele>833.28</ele>
        <time>2015-10-03T08:17:42.901Z</time>
      </trkpt>
      <trkpt lat="45.29435" lon="4.22982">
        <ele>833.44</ele>
        <time>2015-10-03T08:17:43.920Z</time>
      </trkpt>
      <trkpt lat="45.29437" lon="4.22982">
        <ele>833.6</ele>
        <time>2015-10-03T08:17:44.912Z</time>
      </trkpt>
      <trkpt lat="45.29439" lon="4.22983">
        <ele>833.65384615385</ele>
        <time>2015-10-03T08:17:45.902Z</time>
      </trkpt>
      <trkpt lat="45.2944" lon="4.22984">
        <ele>833.76923076923</ele>
        <time>2015-10-03T08:17:46.890Z</time>
      </trkpt>
      <trkpt lat="45.29442" lon="4.22984">
        <ele>833.84615384615</ele>
        <time>2015-10-03T08:17:47.901Z</time>
      </trkpt>
      <trkpt lat="45.29443" lon="4.22985">
        <ele>834.08</ele>
        <time>2015-10-03T08:17:48.911Z</time>
      </trkpt>
      <trkpt lat="45.29445" lon="4.22986">
        <ele>834.12</ele>
        <time>2015-10-03T08:17:49.909Z</time>
      </trkpt>
      <trkpt lat="45.29446" lon="4.22986">
        <ele>834.2</ele>
        <time>2015-10-03T08:17:50.917Z</time>
      </trkpt>
      <trkpt lat="45.29448" lon="4.22987">
        <ele>834.36</ele>
        <time>2015-10-03T08:17:51.917Z</time>
      </trkpt>
      <trkpt lat="45.2945" lon="4.22988">
        <ele>834.36</ele>
        <time>2015-10-03T08:17:52.903Z</time>
      </trkpt>
      <trkpt lat="45.29451" lon="4.22988">
        <ele>834.48</ele>
        <time>2015-10-03T08:17:53.918Z</time>
      </trkpt>
      <trkpt lat="45.29453" lon="4.2299">
        <ele>834.56</ele>
        <time>2015-10-03T08:17:54.919Z</time>
      </trkpt>
      <trkpt lat="45.29454" lon="4.22991">
        <ele>834.64</ele>
        <time>2015-10-03T08:17:55.875Z</time>
      </trkpt>
      <trkpt lat="45.29455" lon="4.22992">
        <ele>834.65384615385</ele>
        <time>2015-10-03T08:17:56.878Z</time>
      </trkpt>
      <trkpt lat="45.29456" lon="4.22994">
        <ele>834.72</ele>
        <time>2015-10-03T08:17:57.903Z</time>
      </trkpt>
      <trkpt lat="45.29458" lon="4.22995">
        <ele>834.84</ele>
        <time>2015-10-03T08:17:58.910Z</time>
      </trkpt>
      <trkpt lat="45.29459" lon="4.22997">
        <ele>834.80769230769</ele>
        <time>2015-10-03T08:17:59.912Z</time>
      </trkpt>
      <trkpt lat="45.2946" lon="4.22999">
        <ele>834.88</ele>
        <time>2015-10-03T08:18:00.921Z</time>
      </trkpt>
      <trkpt lat="45.29461" lon="4.23">
        <ele>834.92</ele>
        <time>2015-10-03T08:18:01.928Z</time>
      </trkpt>
      <trkpt lat="45.29462" lon="4.23002">
        <ele>835</ele>
        <time>2015-10-03T08:18:02.931Z</time>
      </trkpt>
      <trkpt lat="45.29464" lon="4.23003">
        <ele>835.08</ele>
        <time>2015-10-03T08:18:03.910Z</time>
      </trkpt>
      <trkpt lat="45.29466" lon="4.23004">
        <ele>835.16</ele>
        <time>2015-10-03T08:18:04.907Z</time>
      </trkpt>
      <trkpt lat="45.29468" lon="4.23004">
        <ele>835.16</ele>
        <time>2015-10-03T08:18:05.919Z</time>
      </trkpt>
      <trkpt lat="45.2947" lon="4.23005">
        <ele>835.2</ele>
        <time>2015-10-03T08:18:06.909Z</time>
      </trkpt>
      <trkpt lat="45.29471" lon="4.23006">
        <ele>835.23076923077</ele>
        <time>2015-10-03T08:18:07.892Z</time>
      </trkpt>
      <trkpt lat="45.29473" lon="4.23007">
        <ele>835.26923076923</ele>
        <time>2015-10-03T08:18:08.870Z</time>
      </trkpt>
      <trkpt lat="45.29474" lon="4.23008">
        <ele>835.23076923077</ele>
        <time>2015-10-03T08:18:09.877Z</time>
      </trkpt>
      <trkpt lat="45.29476" lon="4.23008">
        <ele>835.26923076923</ele>
        <time>2015-10-03T08:18:10.886Z</time>
      </trkpt>
      <trkpt lat="45.29478" lon="4.23007">
        <ele>835.30769230769</ele>
        <time>2015-10-03T08:18:11.877Z</time>
      </trkpt>
      <trkpt lat="45.2948" lon="4.23007">
        <ele>835.34615384615</ele>
        <time>2015-10-03T08:18:12.878Z</time>
      </trkpt>
      <trkpt lat="45.29483" lon="4.23006">
        <ele>835.34615384615</ele>
        <time>2015-10-03T08:18:13.875Z</time>
      </trkpt>
      <trkpt lat="45.29485" lon="4.23006">
        <ele>835.38461538462</ele>
        <time>2015-10-03T08:18:14.864Z</time>
      </trkpt>
      <trkpt lat="45.29486" lon="4.23005">
        <ele>835.38461538462</ele>
        <time>2015-10-03T08:18:15.876Z</time>
      </trkpt>
      <trkpt lat="45.29488" lon="4.23006">
        <ele>835.42307692308</ele>
        <time>2015-10-03T08:18:16.867Z</time>
      </trkpt>
      <trkpt lat="45.2949" lon="4.23006">
        <ele>835.42307692308</ele>
        <time>2015-10-03T08:18:17.875Z</time>
      </trkpt>
      <trkpt lat="45.29492" lon="4.23007">
        <ele>835.46153846154</ele>
        <time>2015-10-03T08:18:18.876Z</time>
      </trkpt>
      <trkpt lat="45.29493" lon="4.23008">
        <ele>835.38461538462</ele>
        <time>2015-10-03T08:18:19.861Z</time>
      </trkpt>
      <trkpt lat="45.29494" lon="4.2301">
        <ele>835.44</ele>
        <time>2015-10-03T08:18:20.886Z</time>
      </trkpt>
      <trkpt lat="45.29496" lon="4.23012">
        <ele>835.48</ele>
        <time>2015-10-03T08:18:21.893Z</time>
      </trkpt>
      <trkpt lat="45.29498" lon="4.23014">
        <ele>835.5</ele>
        <time>2015-10-03T08:18:22.896Z</time>
      </trkpt>
      <trkpt lat="45.29501" lon="4.2302">
        <ele>835.44</ele>
        <time>2015-10-03T08:18:24.888Z</time>
      </trkpt>
      <trkpt lat="45.29503" lon="4.23023">
        <ele>835.52</ele>
        <time>2015-10-03T08:18:25.882Z</time>
      </trkpt>
      <trkpt lat="45.29505" lon="4.23026">
        <ele>835.52</ele>
        <time>2015-10-03T08:18:26.874Z</time>
      </trkpt>
      <trkpt lat="45.29507" lon="4.23029">
        <ele>835.52</ele>
        <time>2015-10-03T08:18:27.851Z</time>
      </trkpt>
      <trkpt lat="45.29509" lon="4.23032">
        <ele>835.48</ele>
        <time>2015-10-03T08:18:28.815Z</time>
      </trkpt>
      <trkpt lat="45.29511" lon="4.23036">
        <ele>835.44</ele>
        <time>2015-10-03T08:18:29.824Z</time>
      </trkpt>
      <trkpt lat="45.29514" lon="4.2304">
        <ele>835.44</ele>
        <time>2015-10-03T08:18:30.829Z</time>
      </trkpt>
      <trkpt lat="45.29516" lon="4.23043">
        <ele>835.4</ele>
        <time>2015-10-03T08:18:31.834Z</time>
      </trkpt>
      <trkpt lat="45.29519" lon="4.23046">
        <ele>835.36</ele>
        <time>2015-10-03T08:18:32.831Z</time>
      </trkpt>
      <trkpt lat="45.29521" lon="4.23049">
        <ele>835.28</ele>
        <time>2015-10-03T08:18:33.826Z</time>
      </trkpt>
      <trkpt lat="45.29524" lon="4.23052">
        <ele>835.2</ele>
        <time>2015-10-03T08:18:34.814Z</time>
      </trkpt>
      <trkpt lat="45.29539" lon="4.23067">
        <ele>835.16</ele>
        <time>2015-10-03T08:18:35.819Z</time>
      </trkpt>
      <trkpt lat="45.29624" lon="4.23124">
        <ele>835</ele>
        <time>2015-10-03T08:18:37.796Z</time>
      </trkpt>
      <trkpt lat="45.2963" lon="4.2313">
        <ele>834.875</ele>
        <time>2015-10-03T08:18:38.811Z</time>
      </trkpt>
      <trkpt lat="45.29638" lon="4.23137">
        <ele>834.79166666667</ele>
        <time>2015-10-03T08:18:39.825Z</time>
      </trkpt>
      <trkpt lat="45.29645" lon="4.23144">
        <ele>834.66666666667</ele>
        <time>2015-10-03T08:18:40.825Z</time>
      </trkpt>
      <trkpt lat="45.29651" lon="4.2315">
        <ele>834.54166666667</ele>
        <time>2015-10-03T08:18:41.824Z</time>
      </trkpt>
      <trkpt lat="45.29658" lon="4.23155">
        <ele>834.375</ele>
        <time>2015-10-03T08:18:42.830Z</time>
      </trkpt>
      <trkpt lat="45.29664" lon="4.23161">
        <ele>834.16666666667</ele>
        <time>2015-10-03T08:18:43.831Z</time>
      </trkpt>
      <trkpt lat="45.2968" lon="4.2317">
        <ele>833.875</ele>
        <time>2015-10-03T08:18:45.826Z</time>
      </trkpt>
      <trkpt lat="45.29708" lon="4.2319">
        <ele>832.8</ele>
        <time>2015-10-03T08:18:49.823Z</time>
      </trkpt>
      <trkpt lat="45.29714" lon="4.23196">
        <ele>832.52</ele>
        <time>2015-10-03T08:18:50.825Z</time>
      </trkpt>
      <trkpt lat="45.29718" lon="4.23205">
        <ele>832.2</ele>
        <time>2015-10-03T08:18:51.818Z</time>
      </trkpt>
      <trkpt lat="45.29728" lon="4.2322">
        <ele>831.41666666667</ele>
        <time>2015-10-03T08:18:53.825Z</time>
      </trkpt>
      <trkpt lat="45.29731" lon="4.23227">
        <ele>831.04166666667</ele>
        <time>2015-10-03T08:18:54.829Z</time>
      </trkpt>
      <trkpt lat="45.29742" lon="4.23245">
        <ele>830.36</ele>
        <time>2015-10-03T08:18:57.825Z</time>
      </trkpt>
      <trkpt lat="45.29752" lon="4.23263">
        <ele>829.45833333333</ele>
        <time>2015-10-03T08:19:00.827Z</time>
      </trkpt>
      <trkpt lat="45.29759" lon="4.23272">
        <ele>829.2</ele>
        <time>2015-10-03T08:19:02.825Z</time>
      </trkpt>
      <trkpt lat="45.29762" lon="4.23276">
        <ele>829.04</ele>
        <time>2015-10-03T08:19:03.823Z</time>
      </trkpt>
      <trkpt lat="45.29764" lon="4.23279">
        <ele>828.88</ele>
        <time>2015-10-03T08:19:04.827Z</time>
      </trkpt>
      <trkpt lat="45.29769" lon="4.23285">
        <ele>828.80769230769</ele>
        <time>2015-10-03T08:19:06.824Z</time>
      </trkpt>
      <trkpt lat="45.29772" lon="4.23286">
        <ele>828.69230769231</ele>
        <time>2015-10-03T08:19:07.824Z</time>
      </trkpt>
      <trkpt lat="45.29778" lon="4.23293">
        <ele>828.57692307692</ele>
        <time>2015-10-03T08:19:10.811Z</time>
      </trkpt>
      <trkpt lat="45.29784" lon="4.23301">
        <ele>828.6</ele>
        <time>2015-10-03T08:19:13.825Z</time>
      </trkpt>
      <trkpt lat="45.29791" lon="4.23308">
        <ele>828.84</ele>
        <time>2015-10-03T08:19:16.850Z</time>
      </trkpt>
      <trkpt lat="45.29798" lon="4.23317">
        <ele>829.30769230769</ele>
        <time>2015-10-03T08:19:20.816Z</time>
      </trkpt>
      <trkpt lat="45.29802" lon="4.23321">
        <ele>829.61538461538</ele>
        <time>2015-10-03T08:19:22.812Z</time>
      </trkpt>
      <trkpt lat="45.29803" lon="4.23322">
        <ele>829.84</ele>
        <time>2015-10-03T08:19:23.822Z</time>
      </trkpt>
      <trkpt lat="45.29805" lon="4.23324">
        <ele>830.24</ele>
        <time>2015-10-03T08:19:25.853Z</time>
      </trkpt>
      <trkpt lat="45.29806" lon="4.23326">
        <ele>830.4</ele>
        <time>2015-10-03T08:19:26.883Z</time>
      </trkpt>
      <trkpt lat="45.2981" lon="4.23331">
        <ele>830.69230769231</ele>
        <time>2015-10-03T08:19:28.820Z</time>
      </trkpt>
      <trkpt lat="45.29811" lon="4.23333">
        <ele>830.96</ele>
        <time>2015-10-03T08:19:29.854Z</time>
      </trkpt>
      <trkpt lat="45.29811" lon="4.23334">
        <ele>831.12</ele>
        <time>2015-10-03T08:19:30.869Z</time>
      </trkpt>
      <trkpt lat="45.29811" lon="4.23336">
        <ele>831.24</ele>
        <time>2015-10-03T08:19:31.857Z</time>
      </trkpt>
      <trkpt lat="45.29812" lon="4.23337">
        <ele>831.4</ele>
        <time>2015-10-03T08:19:32.827Z</time>
      </trkpt>
      <trkpt lat="45.29813" lon="4.23338">
        <ele>831.46153846154</ele>
        <time>2015-10-03T08:19:33.821Z</time>
      </trkpt>
      <trkpt lat="45.29814" lon="4.23341">
        <ele>831.61538461538</ele>
        <time>2015-10-03T08:19:34.818Z</time>
      </trkpt>
      <trkpt lat="45.29817" lon="4.23345">
        <ele>832</ele>
        <time>2015-10-03T08:19:36.828Z</time>
      </trkpt>
      <trkpt lat="45.2982" lon="4.23351">
        <ele>832.64</ele>
        <time>2015-10-03T08:19:39.865Z</time>
      </trkpt>
      <trkpt lat="45.2982" lon="4.23352">
        <ele>832.84</ele>
        <time>2015-10-03T08:19:40.855Z</time>
      </trkpt>
      <trkpt lat="45.29821" lon="4.23354">
        <ele>832.96153846154</ele>
        <time>2015-10-03T08:19:41.830Z</time>
      </trkpt>
      <trkpt lat="45.29822" lon="4.23356">
        <ele>833.24</ele>
        <time>2015-10-03T08:19:42.837Z</time>
      </trkpt>
      <trkpt lat="45.29823" lon="4.23357">
        <ele>833.44</ele>
        <time>2015-10-03T08:19:43.834Z</time>
      </trkpt>
      <trkpt lat="45.29824" lon="4.23359">
        <ele>833.68</ele>
        <time>2015-10-03T08:19:44.829Z</time>
      </trkpt>
      <trkpt lat="45.29824" lon="4.23361">
        <ele>833.92</ele>
        <time>2015-10-03T08:19:45.824Z</time>
      </trkpt>
      <trkpt lat="45.29825" lon="4.23363">
        <ele>834.12</ele>
        <time>2015-10-03T08:19:46.830Z</time>
      </trkpt>
      <trkpt lat="45.29825" lon="4.23366">
        <ele>834.28</ele>
        <time>2015-10-03T08:19:47.860Z</time>
      </trkpt>
      <trkpt lat="45.29825" lon="4.23367">
        <ele>834.48</ele>
        <time>2015-10-03T08:19:48.851Z</time>
      </trkpt>
      <trkpt lat="45.29825" lon="4.23369">
        <ele>834.6</ele>
        <time>2015-10-03T08:19:49.844Z</time>
      </trkpt>
      <trkpt lat="45.29826" lon="4.23372">
        <ele>834.65384615385</ele>
        <time>2015-10-03T08:19:50.831Z</time>
      </trkpt>
      <trkpt lat="45.29827" lon="4.23375">
        <ele>834.80769230769</ele>
        <time>2015-10-03T08:19:51.821Z</time>
      </trkpt>
      <trkpt lat="45.29828" lon="4.23378">
        <ele>835</ele>
        <time>2015-10-03T08:19:52.810Z</time>
      </trkpt>
      <trkpt lat="45.29829" lon="4.23381">
        <ele>835.15384615385</ele>
        <time>2015-10-03T08:19:53.816Z</time>
      </trkpt>
      <trkpt lat="45.2983" lon="4.23384">
        <ele>835.30769230769</ele>
        <time>2015-10-03T08:19:54.819Z</time>
      </trkpt>
      <trkpt lat="45.29834" lon="4.23392">
        <ele>835.76923076923</ele>
        <time>2015-10-03T08:19:57.822Z</time>
      </trkpt>
      <trkpt lat="45.29835" lon="4.23394">
        <ele>836.04</ele>
        <time>2015-10-03T08:19:58.830Z</time>
      </trkpt>
      <trkpt lat="45.29836" lon="4.23396">
        <ele>836.24</ele>
        <time>2015-10-03T08:19:59.846Z</time>
      </trkpt>
      <trkpt lat="45.29836" lon="4.23397">
        <ele>836.4</ele>
        <time>2015-10-03T08:20:00.875Z</time>
      </trkpt>
      <trkpt lat="45.29836" lon="4.23398">
        <ele>836.52</ele>
        <time>2015-10-03T08:20:01.876Z</time>
      </trkpt>
      <trkpt lat="45.29835" lon="4.23401">
        <ele>836.88</ele>
        <time>2015-10-03T08:20:03.862Z</time>
      </trkpt>
      <trkpt lat="45.29837" lon="4.23404">
        <ele>836.96153846154</ele>
        <time>2015-10-03T08:20:04.865Z</time>
      </trkpt>
      <trkpt lat="45.29841" lon="4.2341">
        <ele>837.52</ele>
        <time>2015-10-03T08:20:07.876Z</time>
      </trkpt>
      <trkpt lat="45.29843" lon="4.23417">
        <ele>838.04</ele>
        <time>2015-10-03T08:20:11.867Z</time>
      </trkpt>
      <trkpt lat="45.29845" lon="4.23421">
        <ele>838.30769230769</ele>
        <time>2015-10-03T08:20:13.836Z</time>
      </trkpt>
      <trkpt lat="45.29848" lon="4.23428">
        <ele>839.08</ele>
        <time>2015-10-03T08:20:17.823Z</time>
      </trkpt>
      <trkpt lat="45.2985" lon="4.2343">
        <ele>839.2</ele>
        <time>2015-10-03T08:20:18.850Z</time>
      </trkpt>
      <trkpt lat="45.29851" lon="4.23432">
        <ele>839.36</ele>
        <time>2015-10-03T08:20:19.877Z</time>
      </trkpt>
      <trkpt lat="45.29851" lon="4.23434">
        <ele>839.56</ele>
        <time>2015-10-03T08:20:20.880Z</time>
      </trkpt>
      <trkpt lat="45.29852" lon="4.23435">
        <ele>839.72</ele>
        <time>2015-10-03T08:20:21.852Z</time>
      </trkpt>
      <trkpt lat="45.29853" lon="4.23435">
        <ele>839.84</ele>
        <time>2015-10-03T08:20:22.835Z</time>
      </trkpt>
      <trkpt lat="45.29853" lon="4.23435">
        <ele>839.88461538462</ele>
        <time>2015-10-03T08:20:23.823Z</time>
      </trkpt>
      <trkpt lat="45.29854" lon="4.23436">
        <ele>840.16</ele>
        <time>2015-10-03T08:20:25.809Z</time>
      </trkpt>
      <trkpt lat="45.29854" lon="4.23436">
        <ele>840.48</ele>
        <time>2015-10-03T08:20:28.814Z</time>
      </trkpt>
      <trkpt lat="45.29854" lon="4.23436">
        <ele>840.68</ele>
        <time>2015-10-03T08:20:31.817Z</time>
      </trkpt>
      <trkpt lat="45.29855" lon="4.23436">
        <ele>840.84</ele>
        <time>2015-10-03T08:20:34.819Z</time>
      </trkpt>
      <trkpt lat="45.29856" lon="4.23437">
        <ele>840.96</ele>
        <time>2015-10-03T08:20:37.820Z</time>
      </trkpt>
      <trkpt lat="45.29856" lon="4.23437">
        <ele>840.92</ele>
        <time>2015-10-03T08:20:41.814Z</time>
      </trkpt>
      <trkpt lat="45.29856" lon="4.23437">
        <ele>840.84</ele>
        <time>2015-10-03T08:20:45.808Z</time>
      </trkpt>
      <trkpt lat="45.29856" lon="4.23437">
        <ele>840.8</ele>
        <time>2015-10-03T08:20:48.815Z</time>
      </trkpt>
      <trkpt lat="45.29856" lon="4.23437">
        <ele>840.76</ele>
        <time>2015-10-03T08:20:51.820Z</time>
      </trkpt>
      <trkpt lat="45.29856" lon="4.23437">
        <ele>840.76923076923</ele>
        <time>2015-10-03T08:20:55.816Z</time>
      </trkpt>
      <trkpt lat="45.29856" lon="4.23437">
        <ele>840.76</ele>
        <time>2015-10-03T08:20:58.818Z</time>
      </trkpt>
      <trkpt lat="45.29856" lon="4.23437">
        <ele>840.76923076923</ele>
        <time>2015-10-03T08:21:02.806Z</time>
      </trkpt>
      <trkpt lat="45.29856" lon="4.23437">
        <ele>840.8</ele>
        <time>2015-10-03T08:21:05.818Z</time>
      </trkpt>
      <trkpt lat="45.29856" lon="4.23437">
        <ele>840.92</ele>
        <time>2015-10-03T08:21:09.815Z</time>
      </trkpt>
      <trkpt lat="45.29856" lon="4.23437">
        <ele>840.96153846154</ele>
        <time>2015-10-03T08:21:12.816Z</time>
      </trkpt>
      <trkpt lat="45.29856" lon="4.23437">
        <ele>840.92307692308</ele>
        <time>2015-10-03T08:21:16.804Z</time>
      </trkpt>
      <trkpt lat="45.29856" lon="4.23437">
        <ele>840.84</ele>
        <time>2015-10-03T08:21:19.813Z</time>
      </trkpt>
      <trkpt lat="45.29856" lon="4.23437">
        <ele>840.73076923077</ele>
        <time>2015-10-03T08:21:23.807Z</time>
      </trkpt>
      <trkpt lat="45.29856" lon="4.23437">
        <ele>840.64</ele>
        <time>2015-10-03T08:21:26.817Z</time>
      </trkpt>
      <trkpt lat="45.29856" lon="4.23437">
        <ele>840.53846153846</ele>
        <time>2015-10-03T08:21:30.816Z</time>
      </trkpt>
      <trkpt lat="45.29856" lon="4.23437">
        <ele>840.42307692308</ele>
        <time>2015-10-03T08:21:34.813Z</time>
      </trkpt>
      <trkpt lat="45.29856" lon="4.23437">
        <ele>840.4</ele>
        <time>2015-10-03T08:21:39.323Z</time>
      </trkpt>
      <trkpt lat="45.29856" lon="4.23437">
        <ele>840.44</ele>
        <time>2015-10-03T08:21:42.810Z</time>
      </trkpt>
      <trkpt lat="45.29856" lon="4.23437">
        <ele>840.53846153846</ele>
        <time>2015-10-03T08:21:45.813Z</time>
      </trkpt>
      <trkpt lat="45.29856" lon="4.23437">
        <ele>840.68</ele>
        <time>2015-10-03T08:21:49.812Z</time>
      </trkpt>
      <trkpt lat="45.29856" lon="4.23437">
        <ele>840.80769230769</ele>
        <time>2015-10-03T08:21:53.811Z</time>
      </trkpt>
      <trkpt lat="45.29857" lon="4.23438">
        <ele>840.92</ele>
        <time>2015-10-03T08:21:57.824Z</time>
      </trkpt>
      <trkpt lat="45.29857" lon="4.23438">
        <ele>840.96</ele>
        <time>2015-10-03T08:22:00.819Z</time>
      </trkpt>
      <trkpt lat="45.29858" lon="4.23439">
        <ele>840.96153846154</ele>
        <time>2015-10-03T08:22:01.815Z</time>
      </trkpt>
      <trkpt lat="45.29859" lon="4.23442">
        <ele>840.96153846154</ele>
        <time>2015-10-03T08:22:03.820Z</time>
      </trkpt>
      <trkpt lat="45.2986" lon="4.23445">
        <ele>840.96153846154</ele>
        <time>2015-10-03T08:22:04.819Z</time>
      </trkpt>
      <trkpt lat="45.29862" lon="4.23452">
        <ele>840.92</ele>
        <time>2015-10-03T08:22:06.821Z</time>
      </trkpt>
      <trkpt lat="45.29863" lon="4.23455">
        <ele>840.84</ele>
        <time>2015-10-03T08:22:07.840Z</time>
      </trkpt>
      <trkpt lat="45.29864" lon="4.23458">
        <ele>840.8</ele>
        <time>2015-10-03T08:22:08.868Z</time>
      </trkpt>
      <trkpt lat="45.29864" lon="4.2346">
        <ele>840.76</ele>
        <time>2015-10-03T08:22:09.859Z</time>
      </trkpt>
      <trkpt lat="45.29864" lon="4.23465">
        <ele>840.68</ele>
        <time>2015-10-03T08:22:10.825Z</time>
      </trkpt>
      <trkpt lat="45.29865" lon="4.23471">
        <ele>840.64</ele>
        <time>2015-10-03T08:22:11.821Z</time>
      </trkpt>
      <trkpt lat="45.29865" lon="4.23475">
        <ele>840.56</ele>
        <time>2015-10-03T08:22:12.849Z</time>
      </trkpt>
      <trkpt lat="45.29862" lon="4.23494">
        <ele>840.44</ele>
        <time>2015-10-03T08:22:14.792Z</time>
      </trkpt>
      <trkpt lat="45.29861" lon="4.23495">
        <ele>840.28</ele>
        <time>2015-10-03T08:22:15.813Z</time>
      </trkpt>
      <trkpt lat="45.29862" lon="4.23499">
        <ele>840.08333333333</ele>
        <time>2015-10-03T08:22:16.816Z</time>
      </trkpt>
      <trkpt lat="45.29863" lon="4.23502">
        <ele>839.91666666667</ele>
        <time>2015-10-03T08:22:17.813Z</time>
      </trkpt>
      <trkpt lat="45.29865" lon="4.23506">
        <ele>839.75</ele>
        <time>2015-10-03T08:22:18.827Z</time>
      </trkpt>
      <trkpt lat="45.29868" lon="4.23509">
        <ele>839.58333333333</ele>
        <time>2015-10-03T08:22:19.826Z</time>
      </trkpt>
      <trkpt lat="45.29871" lon="4.23512">
        <ele>839.45833333333</ele>
        <time>2015-10-03T08:22:20.821Z</time>
      </trkpt>
      <trkpt lat="45.29873" lon="4.23514">
        <ele>839.25</ele>
        <time>2015-10-03T08:22:21.818Z</time>
      </trkpt>
      <trkpt lat="45.29876" lon="4.23516">
        <ele>839.08333333333</ele>
        <time>2015-10-03T08:22:22.826Z</time>
      </trkpt>
      <trkpt lat="45.29882" lon="4.23522">
        <ele>838.875</ele>
        <time>2015-10-03T08:22:23.827Z</time>
      </trkpt>
      <trkpt lat="45.29893" lon="4.23531">
        <ele>838.5652173913</ele>
        <time>2015-10-03T08:22:25.846Z</time>
      </trkpt>
      <trkpt lat="45.29904" lon="4.23541">
        <ele>838.16666666667</ele>
        <time>2015-10-03T08:22:27.793Z</time>
      </trkpt>
      <trkpt lat="45.29915" lon="4.2355">
        <ele>837.58333333333</ele>
        <time>2015-10-03T08:22:29.797Z</time>
      </trkpt>
      <trkpt lat="45.29932" lon="4.23565">
        <ele>836.66666666667</ele>
        <time>2015-10-03T08:22:32.802Z</time>
      </trkpt>
      <trkpt lat="45.29949" lon="4.2358">
        <ele>835.75</ele>
        <time>2015-10-03T08:22:35.798Z</time>
      </trkpt>
      <trkpt lat="45.29955" lon="4.23584">
        <ele>835.41666666667</ele>
        <time>2015-10-03T08:22:36.809Z</time>
      </trkpt>
      <trkpt lat="45.29961" lon="4.23587">
        <ele>835.04166666667</ele>
        <time>2015-10-03T08:22:37.824Z</time>
      </trkpt>
      <trkpt lat="45.29967" lon="4.23591">
        <ele>834.66666666667</ele>
        <time>2015-10-03T08:22:38.814Z</time>
      </trkpt>
      <trkpt lat="45.29974" lon="4.23596">
        <ele>834.33333333333</ele>
        <time>2015-10-03T08:22:39.799Z</time>
      </trkpt>
      <trkpt lat="45.29982" lon="4.23597">
        <ele>834</ele>
        <time>2015-10-03T08:22:40.823Z</time>
      </trkpt>
      <trkpt lat="45.29993" lon="4.23597">
        <ele>833.76</ele>
        <time>2015-10-03T08:22:41.810Z</time>
      </trkpt>
      <trkpt lat="45.3" lon="4.23598">
        <ele>833.44</ele>
        <time>2015-10-03T08:22:42.803Z</time>
      </trkpt>
      <trkpt lat="45.30017" lon="4.23598">
        <ele>832.64</ele>
        <time>2015-10-03T08:22:44.800Z</time>
      </trkpt>
      <trkpt lat="45.30024" lon="4.23599">
        <ele>832.2</ele>
        <time>2015-10-03T08:22:45.785Z</time>
      </trkpt>
      <trkpt lat="45.3004" lon="4.236">
        <ele>831.32</ele>
        <time>2015-10-03T08:22:47.823Z</time>
      </trkpt>
      <trkpt lat="45.30064" lon="4.23602">
        <ele>830.19230769231</ele>
        <time>2015-10-03T08:22:50.784Z</time>
      </trkpt>
      <trkpt lat="45.3007" lon="4.23602">
        <ele>829.73076923077</ele>
        <time>2015-10-03T08:22:51.793Z</time>
      </trkpt>
      <trkpt lat="45.30083" lon="4.23603">
        <ele>828.88461538462</ele>
        <time>2015-10-03T08:22:53.782Z</time>
      </trkpt>
      <trkpt lat="45.30102" lon="4.23604">
        <ele>827.56</ele>
        <time>2015-10-03T08:22:56.817Z</time>
      </trkpt>
      <trkpt lat="45.30109" lon="4.23601">
        <ele>827.38461538462</ele>
        <time>2015-10-03T08:22:57.797Z</time>
      </trkpt>
      <trkpt lat="45.30112" lon="4.23594">
        <ele>826.96153846154</ele>
        <time>2015-10-03T08:22:58.780Z</time>
      </trkpt>
      <trkpt lat="45.30117" lon="4.23588">
        <ele>826.61538461538</ele>
        <time>2015-10-03T08:22:59.783Z</time>
      </trkpt>
      <trkpt lat="45.30123" lon="4.23583">
        <ele>826.26923076923</ele>
        <time>2015-10-03T08:23:00.781Z</time>
      </trkpt>
      <trkpt lat="45.30128" lon="4.23583">
        <ele>825.92307692308</ele>
        <time>2015-10-03T08:23:01.788Z</time>
      </trkpt>
      <trkpt lat="45.30136" lon="4.23588">
        <ele>825.26923076923</ele>
        <time>2015-10-03T08:23:03.792Z</time>
      </trkpt>
      <trkpt lat="45.30139" lon="4.23591">
        <ele>825</ele>
        <time>2015-10-03T08:23:04.780Z</time>
      </trkpt>
      <trkpt lat="45.30145" lon="4.23596">
        <ele>824.42307692308</ele>
        <time>2015-10-03T08:23:06.779Z</time>
      </trkpt>
      <trkpt lat="45.30151" lon="4.236">
        <ele>823.92307692308</ele>
        <time>2015-10-03T08:23:08.783Z</time>
      </trkpt>
      <trkpt lat="45.30153" lon="4.23602">
        <ele>823.76923076923</ele>
        <time>2015-10-03T08:23:09.784Z</time>
      </trkpt>
      <trkpt lat="45.30158" lon="4.23611">
        <ele>823.30769230769</ele>
        <time>2015-10-03T08:23:12.798Z</time>
      </trkpt>
      <trkpt lat="45.3016" lon="4.23615">
        <ele>823</ele>
        <time>2015-10-03T08:23:14.797Z</time>
      </trkpt>
      <trkpt lat="45.30159" lon="4.23616">
        <ele>822.88</ele>
        <time>2015-10-03T08:23:15.801Z</time>
      </trkpt>
      <trkpt lat="45.30159" lon="4.23615">
        <ele>822.8</ele>
        <time>2015-10-03T08:23:16.800Z</time>
      </trkpt>
      <trkpt lat="45.30159" lon="4.23615">
        <ele>822.68</ele>
        <time>2015-10-03T08:23:17.783Z</time>
      </trkpt>
      <trkpt lat="45.3016" lon="4.23615">
        <ele>822.53846153846</ele>
        <time>2015-10-03T08:23:21.784Z</time>
      </trkpt>
      <trkpt lat="45.30161" lon="4.23617">
        <ele>822.5</ele>
        <time>2015-10-03T08:23:22.785Z</time>
      </trkpt>
      <trkpt lat="45.30162" lon="4.23618">
        <ele>822.53846153846</ele>
        <time>2015-10-03T08:23:23.779Z</time>
      </trkpt>
      <trkpt lat="45.30165" lon="4.23619">
        <ele>822.53846153846</ele>
        <time>2015-10-03T08:23:24.778Z</time>
      </trkpt>
      <trkpt lat="45.30168" lon="4.23618">
        <ele>822.53846153846</ele>
        <time>2015-10-03T08:23:25.779Z</time>
      </trkpt>
      <trkpt lat="45.30172" lon="4.23617">
        <ele>822.46153846154</ele>
        <time>2015-10-03T08:23:26.784Z</time>
      </trkpt>
      <trkpt lat="45.30175" lon="4.23615">
        <ele>822.46153846154</ele>
        <time>2015-10-03T08:23:27.782Z</time>
      </trkpt>
      <trkpt lat="45.30178" lon="4.23614">
        <ele>822.42307692308</ele>
        <time>2015-10-03T08:23:28.781Z</time>
      </trkpt>
      <trkpt lat="45.30178" lon="4.23613">
        <ele>822.4</ele>
        <time>2015-10-03T08:23:29.798Z</time>
      </trkpt>
      <trkpt lat="45.30176" lon="4.23612">
        <ele>822.4</ele>
        <time>2015-10-03T08:23:30.822Z</time>
      </trkpt>
      <trkpt lat="45.30177" lon="4.23611">
        <ele>822.4</ele>
        <time>2015-10-03T08:23:31.818Z</time>
      </trkpt>
      <trkpt lat="45.30178" lon="4.23611">
        <ele>822.4</ele>
        <time>2015-10-03T08:23:32.801Z</time>
      </trkpt>
      <trkpt lat="45.30182" lon="4.2361">
        <ele>822.42307692308</ele>
        <time>2015-10-03T08:23:33.781Z</time>
      </trkpt>
      <trkpt lat="45.302" lon="4.23604">
        <ele>822.26923076923</ele>
        <time>2015-10-03T08:23:36.779Z</time>
      </trkpt>
      <trkpt lat="45.30243" lon="4.23587">
        <ele>822.24</ele>
        <time>2015-10-03T08:23:41.774Z</time>
      </trkpt>
      <trkpt lat="45.30248" lon="4.23589">
        <ele>822.2</ele>
        <time>2015-10-03T08:23:42.772Z</time>
      </trkpt>
      <trkpt lat="45.30262" lon="4.23588">
        <ele>822.08</ele>
        <time>2015-10-03T08:23:45.779Z</time>
      </trkpt>
      <trkpt lat="45.30283" lon="4.23587">
        <ele>821.68</ele>
        <time>2015-10-03T08:23:49.777Z</time>
      </trkpt>
      <trkpt lat="45.30292" lon="4.23588">
        <ele>821.5</ele>
        <time>2015-10-03T08:23:51.796Z</time>
      </trkpt>
      <trkpt lat="45.30295" lon="4.23587">
        <ele>821.375</ele>
        <time>2015-10-03T08:23:52.793Z</time>
      </trkpt>
      <trkpt lat="45.30295" lon="4.23593">
        <ele>821.28</ele>
        <time>2015-10-03T08:23:54.794Z</time>
      </trkpt>
      <trkpt lat="45.30295" lon="4.23597">
        <ele>821.24</ele>
        <time>2015-10-03T08:23:55.803Z</time>
      </trkpt>
      <trkpt lat="45.30294" lon="4.23602">
        <ele>821.16</ele>
        <time>2015-10-03T08:23:56.799Z</time>
      </trkpt>
      <trkpt lat="45.30293" lon="4.23606">
        <ele>821.08</ele>
        <time>2015-10-03T08:23:57.787Z</time>
      </trkpt>
      <trkpt lat="45.30292" lon="4.2361">
        <ele>820.875</ele>
        <time>2015-10-03T08:23:58.789Z</time>
      </trkpt>
      <trkpt lat="45.30289" lon="4.23624">
        <ele>820.79166666667</ele>
        <time>2015-10-03T08:24:01.793Z</time>
      </trkpt>
      <trkpt lat="45.30287" lon="4.23636">
        <ele>820.58333333333</ele>
        <time>2015-10-03T08:24:03.824Z</time>
      </trkpt>
      <trkpt lat="45.30288" lon="4.23643">
        <ele>820.5</ele>
        <time>2015-10-03T08:24:04.830Z</time>
      </trkpt>
      <trkpt lat="45.30288" lon="4.23654">
        <ele>820.44</ele>
        <time>2015-10-03T08:24:06.790Z</time>
      </trkpt>
      <trkpt lat="45.3029" lon="4.2366">
        <ele>820.4</ele>
        <time>2015-10-03T08:24:07.800Z</time>
      </trkpt>
      <trkpt lat="45.30293" lon="4.23666">
        <ele>820.32</ele>
        <time>2015-10-03T08:24:08.801Z</time>
      </trkpt>
      <trkpt lat="45.30297" lon="4.23674">
        <ele>820.28</ele>
        <time>2015-10-03T08:24:09.797Z</time>
      </trkpt>
      <trkpt lat="45.30301" lon="4.23676">
        <ele>820.24</ele>
        <time>2015-10-03T08:24:10.807Z</time>
      </trkpt>
      <trkpt lat="45.30305" lon="4.23683">
        <ele>820.08</ele>
        <time>2015-10-03T08:24:11.810Z</time>
      </trkpt>
      <trkpt lat="45.30311" lon="4.2369">
        <ele>819.92307692308</ele>
        <time>2015-10-03T08:24:13.779Z</time>
      </trkpt>
      <trkpt lat="45.30314" lon="4.237">
        <ele>819.8</ele>
        <time>2015-10-03T08:24:14.783Z</time>
      </trkpt>
      <trkpt lat="45.30317" lon="4.23706">
        <ele>819.69230769231</ele>
        <time>2015-10-03T08:24:15.784Z</time>
      </trkpt>
      <trkpt lat="45.30318" lon="4.23715">
        <ele>819.53846153846</ele>
        <time>2015-10-03T08:24:16.785Z</time>
      </trkpt>
      <trkpt lat="45.30318" lon="4.23727">
        <ele>819.34615384615</ele>
        <time>2015-10-03T08:24:17.789Z</time>
      </trkpt>
      <trkpt lat="45.30318" lon="4.23738">
        <ele>819.12</ele>
        <time>2015-10-03T08:24:18.803Z</time>
      </trkpt>
      <trkpt lat="45.30317" lon="4.2375">
        <ele>818.88</ele>
        <time>2015-10-03T08:24:19.803Z</time>
      </trkpt>
      <trkpt lat="45.30315" lon="4.23761">
        <ele>818.69230769231</ele>
        <time>2015-10-03T08:24:20.791Z</time>
      </trkpt>
      <trkpt lat="45.30313" lon="4.23771">
        <ele>818.32</ele>
        <time>2015-10-03T08:24:21.809Z</time>
      </trkpt>
      <trkpt lat="45.30312" lon="4.23784">
        <ele>817.80769230769</ele>
        <time>2015-10-03T08:24:23.783Z</time>
      </trkpt>
      <trkpt lat="45.3031" lon="4.23795">
        <ele>817.44</ele>
        <time>2015-10-03T08:24:25.780Z</time>
      </trkpt>
      <trkpt lat="45.30314" lon="4.23799">
        <ele>816.875</ele>
        <time>2015-10-03T08:24:26.803Z</time>
      </trkpt>
      <trkpt lat="45.30318" lon="4.23799">
        <ele>816.64</ele>
        <time>2015-10-03T08:24:27.792Z</time>
      </trkpt>
      <trkpt lat="45.30322" lon="4.238">
        <ele>816.24</ele>
        <time>2015-10-03T08:24:28.791Z</time>
      </trkpt>
      <trkpt lat="45.30329" lon="4.23796">
        <ele>815.88</ele>
        <time>2015-10-03T08:24:29.791Z</time>
      </trkpt>
      <trkpt lat="45.30332" lon="4.23794">
        <ele>815.33333333333</ele>
        <time>2015-10-03T08:24:30.800Z</time>
      </trkpt>
      <trkpt lat="45.30335" lon="4.23792">
        <ele>814.91666666667</ele>
        <time>2015-10-03T08:24:31.798Z</time>
      </trkpt>
      <trkpt lat="45.30339" lon="4.23791">
        <ele>814.64</ele>
        <time>2015-10-03T08:24:32.789Z</time>
      </trkpt>
      <trkpt lat="45.30345" lon="4.23788">
        <ele>814.2</ele>
        <time>2015-10-03T08:24:33.786Z</time>
      </trkpt>
      <trkpt lat="45.30351" lon="4.23786">
        <ele>813.5</ele>
        <time>2015-10-03T08:24:34.798Z</time>
      </trkpt>
      <trkpt lat="45.30354" lon="4.23789">
        <ele>813.24</ele>
        <time>2015-10-03T08:24:35.791Z</time>
      </trkpt>
      <trkpt lat="45.30356" lon="4.23788">
        <ele>812.68</ele>
        <time>2015-10-03T08:24:36.788Z</time>
      </trkpt>
      <trkpt lat="45.30361" lon="4.23792">
        <ele>812.24</ele>
        <time>2015-10-03T08:24:37.783Z</time>
      </trkpt>
      <trkpt lat="45.30366" lon="4.23794">
        <ele>811.45833333333</ele>
        <time>2015-10-03T08:24:38.787Z</time>
      </trkpt>
      <trkpt lat="45.3037" lon="4.23798">
        <ele>811.2</ele>
        <time>2015-10-03T08:24:39.782Z</time>
      </trkpt>
      <trkpt lat="45.30372" lon="4.238">
        <ele>810.68</ele>
        <time>2015-10-03T08:24:40.775Z</time>
      </trkpt>
      <trkpt lat="45.30375" lon="4.23808">
        <ele>809.45833333333</ele>
        <time>2015-10-03T08:24:42.790Z</time>
      </trkpt>
      <trkpt lat="45.30375" lon="4.2381">
        <ele>809.2</ele>
        <time>2015-10-03T08:24:43.793Z</time>
      </trkpt>
      <trkpt lat="45.30376" lon="4.23815">
        <ele>808.72</ele>
        <time>2015-10-03T08:24:44.789Z</time>
      </trkpt>
      <trkpt lat="45.30379" lon="4.2382">
        <ele>808.24</ele>
        <time>2015-10-03T08:24:45.787Z</time>
      </trkpt>
      <trkpt lat="45.30381" lon="4.23824">
        <ele>807.72</ele>
        <time>2015-10-03T08:24:46.789Z</time>
      </trkpt>
      <trkpt lat="45.30385" lon="4.23828">
        <ele>807.04166666667</ele>
        <time>2015-10-03T08:24:47.792Z</time>
      </trkpt>
      <trkpt lat="45.30385" lon="4.23833">
        <ele>806.58333333333</ele>
        <time>2015-10-03T08:24:48.790Z</time>
      </trkpt>
      <trkpt lat="45.30386" lon="4.23836">
        <ele>806.44</ele>
        <time>2015-10-03T08:24:49.780Z</time>
      </trkpt>
      <trkpt lat="45.30387" lon="4.23837">
        <ele>806</ele>
        <time>2015-10-03T08:24:50.808Z</time>
      </trkpt>
      <trkpt lat="45.30387" lon="4.23838">
        <ele>805.6</ele>
        <time>2015-10-03T08:24:51.864Z</time>
      </trkpt>
      <trkpt lat="45.30389" lon="4.23841">
        <ele>804.8</ele>
        <time>2015-10-03T08:24:53.891Z</time>
      </trkpt>
      <trkpt lat="45.3039" lon="4.23844">
        <ele>804.4</ele>
        <time>2015-10-03T08:24:54.850Z</time>
      </trkpt>
      <trkpt lat="45.30408" lon="4.23875">
        <ele>803.96</ele>
        <time>2015-10-03T08:24:56.781Z</time>
      </trkpt>
      <trkpt lat="45.30413" lon="4.23879">
        <ele>803.56</ele>
        <time>2015-10-03T08:24:57.783Z</time>
      </trkpt>
      <trkpt lat="45.30417" lon="4.23883">
        <ele>803.2</ele>
        <time>2015-10-03T08:24:58.785Z</time>
      </trkpt>
      <trkpt lat="45.30419" lon="4.23887">
        <ele>802.8</ele>
        <time>2015-10-03T08:24:59.798Z</time>
      </trkpt>
      <trkpt lat="45.30423" lon="4.23893">
        <ele>802.25</ele>
        <time>2015-10-03T08:25:00.798Z</time>
      </trkpt>
      <trkpt lat="45.30425" lon="4.23898">
        <ele>801.95833333333</ele>
        <time>2015-10-03T08:25:01.795Z</time>
      </trkpt>
      <trkpt lat="45.30428" lon="4.23901">
        <ele>801.625</ele>
        <time>2015-10-03T08:25:02.790Z</time>
      </trkpt>
      <trkpt lat="45.30432" lon="4.23905">
        <ele>801.375</ele>
        <time>2015-10-03T08:25:03.789Z</time>
      </trkpt>
      <trkpt lat="45.30437" lon="4.23911">
        <ele>801.08333333333</ele>
        <time>2015-10-03T08:25:04.802Z</time>
      </trkpt>
      <trkpt lat="45.3044" lon="4.23915">
        <ele>800.83333333333</ele>
        <time>2015-10-03T08:25:05.802Z</time>
      </trkpt>
      <trkpt lat="45.30444" lon="4.23918">
        <ele>800.54166666667</ele>
        <time>2015-10-03T08:25:06.794Z</time>
      </trkpt>
      <trkpt lat="45.30447" lon="4.2392">
        <ele>800.29166666667</ele>
        <time>2015-10-03T08:25:07.798Z</time>
      </trkpt>
      <trkpt lat="45.30449" lon="4.23921">
        <ele>800.08333333333</ele>
        <time>2015-10-03T08:25:08.828Z</time>
      </trkpt>
      <trkpt lat="45.30451" lon="4.23923">
        <ele>799.875</ele>
        <time>2015-10-03T08:25:09.862Z</time>
      </trkpt>
      <trkpt lat="45.30451" lon="4.23923">
        <ele>799.625</ele>
        <time>2015-10-03T08:25:10.875Z</time>
      </trkpt>
      <trkpt lat="45.30451" lon="4.23922">
        <ele>799.5</ele>
        <time>2015-10-03T08:25:11.865Z</time>
      </trkpt>
      <trkpt lat="45.30451" lon="4.23922">
        <ele>799.33333333333</ele>
        <time>2015-10-03T08:25:12.856Z</time>
      </trkpt>
      <trkpt lat="45.30452" lon="4.23923">
        <ele>799.20833333333</ele>
        <time>2015-10-03T08:25:13.854Z</time>
      </trkpt>
      <trkpt lat="45.30454" lon="4.23923">
        <ele>798.91666666667</ele>
        <time>2015-10-03T08:25:14.845Z</time>
      </trkpt>
      <trkpt lat="45.30456" lon="4.23924">
        <ele>798.70833333333</ele>
        <time>2015-10-03T08:25:15.823Z</time>
      </trkpt>
      <trkpt lat="45.30462" lon="4.23926">
        <ele>798.56</ele>
        <time>2015-10-03T08:25:16.801Z</time>
      </trkpt>
      <trkpt lat="45.30471" lon="4.23931">
        <ele>798.24</ele>
        <time>2015-10-03T08:25:17.790Z</time>
      </trkpt>
      <trkpt lat="45.30488" lon="4.23944">
        <ele>797.92</ele>
        <time>2015-10-03T08:25:18.786Z</time>
      </trkpt>
      <trkpt lat="45.30516" lon="4.23972">
        <ele>797.5</ele>
        <time>2015-10-03T08:25:21.734Z</time>
      </trkpt>
      <trkpt lat="45.30518" lon="4.23976">
        <ele>797.08333333333</ele>
        <time>2015-10-03T08:25:22.499Z</time>
      </trkpt>
      <trkpt lat="45.30519" lon="4.23981">
        <ele>796.70833333333</ele>
        <time>2015-10-03T08:25:23.518Z</time>
      </trkpt>
      <trkpt lat="45.30522" lon="4.23983">
        <ele>796.33333333333</ele>
        <time>2015-10-03T08:25:24.505Z</time>
      </trkpt>
      <trkpt lat="45.3052" lon="4.23986">
        <ele>796</ele>
        <time>2015-10-03T08:25:25.511Z</time>
      </trkpt>
      <trkpt lat="45.30519" lon="4.2399">
        <ele>795.66666666667</ele>
        <time>2015-10-03T08:25:26.510Z</time>
      </trkpt>
      <trkpt lat="45.30517" lon="4.23994">
        <ele>795.33333333333</ele>
        <time>2015-10-03T08:25:27.505Z</time>
      </trkpt>
      <trkpt lat="45.30515" lon="4.23996">
        <ele>794.95833333333</ele>
        <time>2015-10-03T08:25:28.507Z</time>
      </trkpt>
      <trkpt lat="45.30514" lon="4.23997">
        <ele>794.54166666667</ele>
        <time>2015-10-03T08:25:29.515Z</time>
      </trkpt>
      <trkpt lat="45.30512" lon="4.23998">
        <ele>794.20833333333</ele>
        <time>2015-10-03T08:25:30.542Z</time>
      </trkpt>
      <trkpt lat="45.30508" lon="4.24002">
        <ele>793.41666666667</ele>
        <time>2015-10-03T08:25:32.541Z</time>
      </trkpt>
      <trkpt lat="45.30506" lon="4.24004">
        <ele>793</ele>
        <time>2015-10-03T08:25:33.536Z</time>
      </trkpt>
      <trkpt lat="45.30505" lon="4.24006">
        <ele>792.58333333333</ele>
        <time>2015-10-03T08:25:34.515Z</time>
      </trkpt>
      <trkpt lat="45.30502" lon="4.2401">
        <ele>792.16666666667</ele>
        <time>2015-10-03T08:25:35.506Z</time>
      </trkpt>
      <trkpt lat="45.30498" lon="4.24014">
        <ele>791.79166666667</ele>
        <time>2015-10-03T08:25:36.496Z</time>
      </trkpt>
      <trkpt lat="45.30494" lon="4.2402">
        <ele>791.375</ele>
        <time>2015-10-03T08:25:37.510Z</time>
      </trkpt>
      <trkpt lat="45.3049" lon="4.24027">
        <ele>790.875</ele>
        <time>2015-10-03T08:25:38.512Z</time>
      </trkpt>
      <trkpt lat="45.30483" lon="4.24049">
        <ele>790.41666666667</ele>
        <time>2015-10-03T08:25:39.511Z</time>
      </trkpt>
      <trkpt lat="45.30469" lon="4.24076">
        <ele>789.39130434783</ele>
        <time>2015-10-03T08:25:42.499Z</time>
      </trkpt>
      <trkpt lat="45.30467" lon="4.24085">
        <ele>789.08695652174</ele>
        <time>2015-10-03T08:25:43.504Z</time>
      </trkpt>
      <trkpt lat="45.30465" lon="4.24095">
        <ele>788.78260869565</ele>
        <time>2015-10-03T08:25:44.509Z</time>
      </trkpt>
      <trkpt lat="45.3046" lon="4.24109">
        <ele>788.44</ele>
        <time>2015-10-03T08:25:46.509Z</time>
      </trkpt>
      <trkpt lat="45.30459" lon="4.24111">
        <ele>788.04166666667</ele>
        <time>2015-10-03T08:25:47.515Z</time>
      </trkpt>
      <trkpt lat="45.30455" lon="4.24123">
        <ele>787.54166666667</ele>
        <time>2015-10-03T08:25:49.528Z</time>
      </trkpt>
      <trkpt lat="45.30453" lon="4.24131">
        <ele>787.20833333333</ele>
        <time>2015-10-03T08:25:50.529Z</time>
      </trkpt>
      <trkpt lat="45.3045" lon="4.24137">
        <ele>786.875</ele>
        <time>2015-10-03T08:25:51.526Z</time>
      </trkpt>
      <trkpt lat="45.30446" lon="4.24146">
        <ele>786.5</ele>
        <time>2015-10-03T08:25:52.524Z</time>
      </trkpt>
      <trkpt lat="45.30442" lon="4.24152">
        <ele>786.16666666667</ele>
        <time>2015-10-03T08:25:53.514Z</time>
      </trkpt>
      <trkpt lat="45.30434" lon="4.24159">
        <ele>785.6</ele>
        <time>2015-10-03T08:25:55.502Z</time>
      </trkpt>
      <trkpt lat="45.30428" lon="4.2416">
        <ele>785.16</ele>
        <time>2015-10-03T08:25:56.504Z</time>
      </trkpt>
      <trkpt lat="45.30424" lon="4.24164">
        <ele>784.76</ele>
        <time>2015-10-03T08:25:57.500Z</time>
      </trkpt>
      <trkpt lat="45.30409" lon="4.24179">
        <ele>783.25</ele>
        <time>2015-10-03T08:26:00.520Z</time>
      </trkpt>
      <trkpt lat="45.30404" lon="4.24182">
        <ele>782.79166666667</ele>
        <time>2015-10-03T08:26:01.523Z</time>
      </trkpt>
      <trkpt lat="45.30398" lon="4.24186">
        <ele>782.25</ele>
        <time>2015-10-03T08:26:02.520Z</time>
      </trkpt>
      <trkpt lat="45.30394" lon="4.24191">
        <ele>781.75</ele>
        <time>2015-10-03T08:26:03.514Z</time>
      </trkpt>
      <trkpt lat="45.3039" lon="4.24195">
        <ele>781.25</ele>
        <time>2015-10-03T08:26:04.524Z</time>
      </trkpt>
      <trkpt lat="45.30386" lon="4.242">
        <ele>780.96</ele>
        <time>2015-10-03T08:26:05.517Z</time>
      </trkpt>
      <trkpt lat="45.30384" lon="4.24206">
        <ele>780.44</ele>
        <time>2015-10-03T08:26:06.517Z</time>
      </trkpt>
      <trkpt lat="45.30383" lon="4.24214">
        <ele>779.92</ele>
        <time>2015-10-03T08:26:07.515Z</time>
      </trkpt>
      <trkpt lat="45.3038" lon="4.24222">
        <ele>779.4</ele>
        <time>2015-10-03T08:26:08.505Z</time>
      </trkpt>
      <trkpt lat="45.30379" lon="4.24221">
        <ele>779.15384615385</ele>
        <time>2015-10-03T08:26:09.501Z</time>
      </trkpt>
      <trkpt lat="45.30377" lon="4.2423">
        <ele>778.65384615385</ele>
        <time>2015-10-03T08:26:10.508Z</time>
      </trkpt>
      <trkpt lat="45.30376" lon="4.24231">
        <ele>777.92</ele>
        <time>2015-10-03T08:26:11.518Z</time>
      </trkpt>
      <trkpt lat="45.30375" lon="4.24241">
        <ele>777.65384615385</ele>
        <time>2015-10-03T08:26:12.515Z</time>
      </trkpt>
      <trkpt lat="45.30373" lon="4.24249">
        <ele>776.84</ele>
        <time>2015-10-03T08:26:13.524Z</time>
      </trkpt>
      <trkpt lat="45.30372" lon="4.24253">
        <ele>776.57692307692</ele>
        <time>2015-10-03T08:26:14.523Z</time>
      </trkpt>
      <trkpt lat="45.30371" lon="4.24256">
        <ele>776</ele>
        <time>2015-10-03T08:26:15.511Z</time>
      </trkpt>
      <trkpt lat="45.30369" lon="4.24263">
        <ele>775</ele>
        <time>2015-10-03T08:26:17.512Z</time>
      </trkpt>
      <trkpt lat="45.30368" lon="4.24265">
        <ele>774.24</ele>
        <time>2015-10-03T08:26:18.528Z</time>
      </trkpt>
      <trkpt lat="45.30366" lon="4.24267">
        <ele>773.8</ele>
        <time>2015-10-03T08:26:19.570Z</time>
      </trkpt>
      <trkpt lat="45.30365" lon="4.24268">
        <ele>773.36</ele>
        <time>2015-10-03T08:26:20.572Z</time>
      </trkpt>
      <trkpt lat="45.30363" lon="4.2427">
        <ele>772.96</ele>
        <time>2015-10-03T08:26:21.566Z</time>
      </trkpt>
      <trkpt lat="45.30363" lon="4.2427">
        <ele>772.52</ele>
        <time>2015-10-03T08:26:22.579Z</time>
      </trkpt>
      <trkpt lat="45.30361" lon="4.24271">
        <ele>772.12</ele>
        <time>2015-10-03T08:26:23.586Z</time>
      </trkpt>
      <trkpt lat="45.30359" lon="4.24272">
        <ele>771.76</ele>
        <time>2015-10-03T08:26:24.565Z</time>
      </trkpt>
      <trkpt lat="45.30351" lon="4.24278">
        <ele>770.80769230769</ele>
        <time>2015-10-03T08:26:28.503Z</time>
      </trkpt>
      <trkpt lat="45.30346" lon="4.24281">
        <ele>770.34615384615</ele>
        <time>2015-10-03T08:26:30.505Z</time>
      </trkpt>
      <trkpt lat="45.30341" lon="4.24286">
        <ele>769.76</ele>
        <time>2015-10-03T08:26:32.573Z</time>
      </trkpt>
      <trkpt lat="45.30339" lon="4.24289">
        <ele>769.52</ele>
        <time>2015-10-03T08:26:33.567Z</time>
      </trkpt>
      <trkpt lat="45.30336" lon="4.24291">
        <ele>769.28</ele>
        <time>2015-10-03T08:26:34.536Z</time>
      </trkpt>
      <trkpt lat="45.30332" lon="4.24293">
        <ele>769.04</ele>
        <time>2015-10-03T08:26:35.546Z</time>
      </trkpt>
      <trkpt lat="45.30328" lon="4.24293">
        <ele>768.84</ele>
        <time>2015-10-03T08:26:36.544Z</time>
      </trkpt>
      <trkpt lat="45.30322" lon="4.24293">
        <ele>768.48</ele>
        <time>2015-10-03T08:26:38.546Z</time>
      </trkpt>
      <trkpt lat="45.3032" lon="4.24292">
        <ele>768.28</ele>
        <time>2015-10-03T08:26:39.580Z</time>
      </trkpt>
      <trkpt lat="45.30317" lon="4.24288">
        <ele>767.92</ele>
        <time>2015-10-03T08:26:41.599Z</time>
      </trkpt>
      <trkpt lat="45.30315" lon="4.24286">
        <ele>767.68</ele>
        <time>2015-10-03T08:26:42.609Z</time>
      </trkpt>
      <trkpt lat="45.30313" lon="4.24285">
        <ele>767.4</ele>
        <time>2015-10-03T08:26:43.568Z</time>
      </trkpt>
      <trkpt lat="45.30311" lon="4.24284">
        <ele>767.12</ele>
        <time>2015-10-03T08:26:44.571Z</time>
      </trkpt>
      <trkpt lat="45.30308" lon="4.24285">
        <ele>766.84</ele>
        <time>2015-10-03T08:26:45.578Z</time>
      </trkpt>
      <trkpt lat="45.30304" lon="4.24286">
        <ele>766.52</ele>
        <time>2015-10-03T08:26:46.578Z</time>
      </trkpt>
      <trkpt lat="45.30297" lon="4.24287">
        <ele>765.92</ele>
        <time>2015-10-03T08:26:48.588Z</time>
      </trkpt>
      <trkpt lat="45.30293" lon="4.24285">
        <ele>765.52</ele>
        <time>2015-10-03T08:26:49.567Z</time>
      </trkpt>
      <trkpt lat="45.30285" lon="4.2428">
        <ele>764.36</ele>
        <time>2015-10-03T08:26:52.569Z</time>
      </trkpt>
      <trkpt lat="45.30282" lon="4.2428">
        <ele>763.92</ele>
        <time>2015-10-03T08:26:53.571Z</time>
      </trkpt>
      <trkpt lat="45.3028" lon="4.2428">
        <ele>763.48</ele>
        <time>2015-10-03T08:26:54.582Z</time>
      </trkpt>
      <trkpt lat="45.30276" lon="4.2428">
        <ele>763.04</ele>
        <time>2015-10-03T08:26:55.570Z</time>
      </trkpt>
      <trkpt lat="45.30272" lon="4.24282">
        <ele>762.56</ele>
        <time>2015-10-03T08:26:56.536Z</time>
      </trkpt>
      <trkpt lat="45.30268" lon="4.24283">
        <ele>762.30769230769</ele>
        <time>2015-10-03T08:26:57.530Z</time>
      </trkpt>
      <trkpt lat="45.30263" lon="4.24282">
        <ele>761.80769230769</ele>
        <time>2015-10-03T08:26:58.540Z</time>
      </trkpt>
      <trkpt lat="45.30258" lon="4.24279">
        <ele>761.16</ele>
        <time>2015-10-03T08:26:59.543Z</time>
      </trkpt>
      <trkpt lat="45.30249" lon="4.24274">
        <ele>760.38461538462</ele>
        <time>2015-10-03T08:27:01.512Z</time>
      </trkpt>
      <trkpt lat="45.30245" lon="4.24273">
        <ele>759.6</ele>
        <time>2015-10-03T08:27:02.523Z</time>
      </trkpt>
      <trkpt lat="45.30241" lon="4.24272">
        <ele>759.34615384615</ele>
        <time>2015-10-03T08:27:03.512Z</time>
      </trkpt>
      <trkpt lat="45.30235" lon="4.2427">
        <ele>758.80769230769</ele>
        <time>2015-10-03T08:27:04.522Z</time>
      </trkpt>
      <trkpt lat="45.30229" lon="4.24267">
        <ele>758.26923076923</ele>
        <time>2015-10-03T08:27:05.531Z</time>
      </trkpt>
      <trkpt lat="45.30222" lon="4.24265">
        <ele>757.69230769231</ele>
        <time>2015-10-03T08:27:06.521Z</time>
      </trkpt>
      <trkpt lat="45.30191" lon="4.24258">
        <ele>756.84</ele>
        <time>2015-10-03T08:27:08.518Z</time>
      </trkpt>
      <trkpt lat="45.30186" lon="4.24258">
        <ele>756.28</ele>
        <time>2015-10-03T08:27:09.504Z</time>
      </trkpt>
      <trkpt lat="45.30177" lon="4.24259">
        <ele>755.72</ele>
        <time>2015-10-03T08:27:10.518Z</time>
      </trkpt>
      <trkpt lat="45.30167" lon="4.24258">
        <ele>755.24</ele>
        <time>2015-10-03T08:27:11.512Z</time>
      </trkpt>
      <trkpt lat="45.30159" lon="4.24257">
        <ele>754.72</ele>
        <time>2015-10-03T08:27:12.511Z</time>
      </trkpt>
      <trkpt lat="45.30154" lon="4.24257">
        <ele>754.2</ele>
        <time>2015-10-03T08:27:13.516Z</time>
      </trkpt>
      <trkpt lat="45.30143" lon="4.24258">
        <ele>753.2</ele>
        <time>2015-10-03T08:27:15.512Z</time>
      </trkpt>
      <trkpt lat="45.30133" lon="4.24264">
        <ele>752.68</ele>
        <time>2015-10-03T08:27:16.520Z</time>
      </trkpt>
      <trkpt lat="45.30126" lon="4.24268">
        <ele>752.2</ele>
        <time>2015-10-03T08:27:17.523Z</time>
      </trkpt>
      <trkpt lat="45.30107" lon="4.24277">
        <ele>751.24</ele>
        <time>2015-10-03T08:27:19.518Z</time>
      </trkpt>
      <trkpt lat="45.30094" lon="4.24286">
        <ele>750.72</ele>
        <time>2015-10-03T08:27:20.527Z</time>
      </trkpt>
      <trkpt lat="45.30084" lon="4.24293">
        <ele>750.24</ele>
        <time>2015-10-03T08:27:21.534Z</time>
      </trkpt>
      <trkpt lat="45.30078" lon="4.24294">
        <ele>749.84</ele>
        <time>2015-10-03T08:27:22.520Z</time>
      </trkpt>
      <trkpt lat="45.3007" lon="4.24299">
        <ele>749.4</ele>
        <time>2015-10-03T08:27:23.521Z</time>
      </trkpt>
      <trkpt lat="45.30053" lon="4.24305">
        <ele>748.52</ele>
        <time>2015-10-03T08:27:25.523Z</time>
      </trkpt>
      <trkpt lat="45.30046" lon="4.24308">
        <ele>747.875</ele>
        <time>2015-10-03T08:27:26.519Z</time>
      </trkpt>
      <trkpt lat="45.30033" lon="4.24313">
        <ele>747.125</ele>
        <time>2015-10-03T08:27:28.519Z</time>
      </trkpt>
      <trkpt lat="45.30027" lon="4.24315">
        <ele>746.96</ele>
        <time>2015-10-03T08:27:29.517Z</time>
      </trkpt>
      <trkpt lat="45.30021" lon="4.24316">
        <ele>746.6</ele>
        <time>2015-10-03T08:27:30.525Z</time>
      </trkpt>
      <trkpt lat="45.30015" lon="4.24316">
        <ele>746.08333333333</ele>
        <time>2015-10-03T08:27:31.525Z</time>
      </trkpt>
      <trkpt lat="45.3001" lon="4.24316">
        <ele>745.92</ele>
        <time>2015-10-03T08:27:32.526Z</time>
      </trkpt>
      <trkpt lat="45.30004" lon="4.24314">
        <ele>745.56</ele>
        <time>2015-10-03T08:27:33.520Z</time>
      </trkpt>
      <trkpt lat="45.3" lon="4.24307">
        <ele>745.2</ele>
        <time>2015-10-03T08:27:34.517Z</time>
      </trkpt>
      <trkpt lat="45.29993" lon="4.24301">
        <ele>744.8</ele>
        <time>2015-10-03T08:27:35.519Z</time>
      </trkpt>
      <trkpt lat="45.29993" lon="4.243">
        <ele>744.53846153846</ele>
        <time>2015-10-03T08:27:36.504Z</time>
      </trkpt>
      <trkpt lat="45.29993" lon="4.24298">
        <ele>744.07692307692</ele>
        <time>2015-10-03T08:27:37.506Z</time>
      </trkpt>
      <trkpt lat="45.29992" lon="4.24298">
        <ele>743.69230769231</ele>
        <time>2015-10-03T08:27:38.499Z</time>
      </trkpt>
      <trkpt lat="45.29989" lon="4.243">
        <ele>743.30769230769</ele>
        <time>2015-10-03T08:27:39.502Z</time>
      </trkpt>
      <trkpt lat="45.29987" lon="4.24302">
        <ele>742.8</ele>
        <time>2015-10-03T08:27:40.513Z</time>
      </trkpt>
      <trkpt lat="45.29986" lon="4.24307">
        <ele>742.61538461538</ele>
        <time>2015-10-03T08:27:41.507Z</time>
      </trkpt>
      <trkpt lat="45.29985" lon="4.24311">
        <ele>742.23076923077</ele>
        <time>2015-10-03T08:27:42.508Z</time>
      </trkpt>
      <trkpt lat="45.29983" lon="4.24315">
        <ele>741.84615384615</ele>
        <time>2015-10-03T08:27:43.508Z</time>
      </trkpt>
      <trkpt lat="45.29979" lon="4.24324">
        <ele>741.07692307692</ele>
        <time>2015-10-03T08:27:45.502Z</time>
      </trkpt>
      <trkpt lat="45.29978" lon="4.24329">
        <ele>740.69230769231</ele>
        <time>2015-10-03T08:27:46.501Z</time>
      </trkpt>
      <trkpt lat="45.29977" lon="4.24335">
        <ele>740.30769230769</ele>
        <time>2015-10-03T08:27:47.502Z</time>
      </trkpt>
      <trkpt lat="45.29977" lon="4.24344">
        <ele>739.84615384615</ele>
        <time>2015-10-03T08:27:48.513Z</time>
      </trkpt>
      <trkpt lat="45.29977" lon="4.24351">
        <ele>739.38461538462</ele>
        <time>2015-10-03T08:27:49.521Z</time>
      </trkpt>
      <trkpt lat="45.29979" lon="4.24367">
        <ele>738.42307692308</ele>
        <time>2015-10-03T08:27:51.502Z</time>
      </trkpt>
      <trkpt lat="45.29981" lon="4.24384">
        <ele>737.42307692308</ele>
        <time>2015-10-03T08:27:53.495Z</time>
      </trkpt>
      <trkpt lat="45.29982" lon="4.24395">
        <ele>736.92307692308</ele>
        <time>2015-10-03T08:27:54.499Z</time>
      </trkpt>
      <trkpt lat="45.29984" lon="4.24415">
        <ele>735.92307692308</ele>
        <time>2015-10-03T08:27:56.497Z</time>
      </trkpt>
      <trkpt lat="45.29986" lon="4.24424">
        <ele>735.42307692308</ele>
        <time>2015-10-03T08:27:57.495Z</time>
      </trkpt>
      <trkpt lat="45.29988" lon="4.24433">
        <ele>734.88461538462</ele>
        <time>2015-10-03T08:27:58.496Z</time>
      </trkpt>
      <trkpt lat="45.2999" lon="4.24438">
        <ele>734.38461538462</ele>
        <time>2015-10-03T08:27:59.506Z</time>
      </trkpt>
      <trkpt lat="45.29992" lon="4.24444">
        <ele>733.92307692308</ele>
        <time>2015-10-03T08:28:00.502Z</time>
      </trkpt>
      <trkpt lat="45.29998" lon="4.24458">
        <ele>733</ele>
        <time>2015-10-03T08:28:02.502Z</time>
      </trkpt>
      <trkpt lat="45.30003" lon="4.24465">
        <ele>732.28</ele>
        <time>2015-10-03T08:28:03.506Z</time>
      </trkpt>
      <trkpt lat="45.30009" lon="4.24472">
        <ele>731.72</ele>
        <time>2015-10-03T08:28:04.507Z</time>
      </trkpt>
      <trkpt lat="45.30011" lon="4.24473">
        <ele>731.38461538462</ele>
        <time>2015-10-03T08:28:05.501Z</time>
      </trkpt>
      <trkpt lat="45.30017" lon="4.24474">
        <ele>730.80769230769</ele>
        <time>2015-10-03T08:28:06.499Z</time>
      </trkpt>
      <trkpt lat="45.30021" lon="4.24472">
        <ele>730.23076923077</ele>
        <time>2015-10-03T08:28:07.505Z</time>
      </trkpt>
      <trkpt lat="45.30025" lon="4.2447">
        <ele>729.65384615385</ele>
        <time>2015-10-03T08:28:08.498Z</time>
      </trkpt>
      <trkpt lat="45.3003" lon="4.24465">
        <ele>729.03846153846</ele>
        <time>2015-10-03T08:28:09.503Z</time>
      </trkpt>
      <trkpt lat="45.30033" lon="4.24462">
        <ele>728.08</ele>
        <time>2015-10-03T08:28:10.504Z</time>
      </trkpt>
      <trkpt lat="45.30036" lon="4.24461">
        <ele>727.48</ele>
        <time>2015-10-03T08:28:11.505Z</time>
      </trkpt>
      <trkpt lat="45.30037" lon="4.24462">
        <ele>727.15384615385</ele>
        <time>2015-10-03T08:28:12.500Z</time>
      </trkpt>
      <trkpt lat="45.30039" lon="4.24461">
        <ele>726.5</ele>
        <time>2015-10-03T08:28:13.493Z</time>
      </trkpt>
      <trkpt lat="45.3004" lon="4.24461">
        <ele>725.88461538462</ele>
        <time>2015-10-03T08:28:14.499Z</time>
      </trkpt>
      <trkpt lat="45.30042" lon="4.24462">
        <ele>724.69230769231</ele>
        <time>2015-10-03T08:28:16.498Z</time>
      </trkpt>
      <trkpt lat="45.3004" lon="4.24465">
        <ele>723.76</ele>
        <time>2015-10-03T08:28:17.521Z</time>
      </trkpt>
      <trkpt lat="45.3004" lon="4.2447">
        <ele>723.12</ele>
        <time>2015-10-03T08:28:18.518Z</time>
      </trkpt>
      <trkpt lat="45.30037" lon="4.2447">
        <ele>722.44</ele>
        <time>2015-10-03T08:28:19.503Z</time>
      </trkpt>
      <trkpt lat="45.30037" lon="4.24477">
        <ele>722.07692307692</ele>
        <time>2015-10-03T08:28:20.498Z</time>
      </trkpt>
      <trkpt lat="45.30034" lon="4.24495">
        <ele>721.04</ele>
        <time>2015-10-03T08:28:21.507Z</time>
      </trkpt>
      <trkpt lat="45.30031" lon="4.24506">
        <ele>720.28</ele>
        <time>2015-10-03T08:28:22.511Z</time>
      </trkpt>
      <trkpt lat="45.3003" lon="4.24519">
        <ele>719.52</ele>
        <time>2015-10-03T08:28:23.504Z</time>
      </trkpt>
      <trkpt lat="45.30027" lon="4.24533">
        <ele>719.11538461538</ele>
        <time>2015-10-03T08:28:24.495Z</time>
      </trkpt>
      <trkpt lat="45.30024" lon="4.24558">
        <ele>717.2</ele>
        <time>2015-10-03T08:28:26.506Z</time>
      </trkpt>
      <trkpt lat="45.30022" lon="4.2458">
        <ele>716.15384615385</ele>
        <time>2015-10-03T08:28:28.506Z</time>
      </trkpt>
      <trkpt lat="45.30025" lon="4.24587">
        <ele>715.5</ele>
        <time>2015-10-03T08:28:29.497Z</time>
      </trkpt>
      <trkpt lat="45.30027" lon="4.24623">
        <ele>713.65384615385</ele>
        <time>2015-10-03T08:28:32.500Z</time>
      </trkpt>
      <trkpt lat="45.30029" lon="4.24635">
        <ele>712.68</ele>
        <time>2015-10-03T08:28:33.502Z</time>
      </trkpt>
      <trkpt lat="45.30028" lon="4.24647">
        <ele>711.96153846154</ele>
        <time>2015-10-03T08:28:35.491Z</time>
      </trkpt>
      <trkpt lat="45.30028" lon="4.24653">
        <ele>711.42307692308</ele>
        <time>2015-10-03T08:28:36.499Z</time>
      </trkpt>
      <trkpt lat="45.30027" lon="4.24666">
        <ele>710.56</ele>
        <time>2015-10-03T08:28:37.501Z</time>
      </trkpt>
      <trkpt lat="45.30026" lon="4.24691">
        <ele>709.12</ele>
        <time>2015-10-03T08:28:40.498Z</time>
      </trkpt>
      <trkpt lat="45.30022" lon="4.24702">
        <ele>708.5</ele>
        <time>2015-10-03T08:28:42.500Z</time>
      </trkpt>
      <trkpt lat="45.30021" lon="4.24706">
        <ele>708.07692307692</ele>
        <time>2015-10-03T08:28:43.508Z</time>
      </trkpt>
      <trkpt lat="45.30018" lon="4.24709">
        <ele>707.65384615385</ele>
        <time>2015-10-03T08:28:44.500Z</time>
      </trkpt>
      <trkpt lat="45.30017" lon="4.24712">
        <ele>707.30769230769</ele>
        <time>2015-10-03T08:28:45.494Z</time>
      </trkpt>
      <trkpt lat="45.30015" lon="4.24716">
        <ele>707</ele>
        <time>2015-10-03T08:28:46.496Z</time>
      </trkpt>
      <trkpt lat="45.30015" lon="4.24718">
        <ele>706.73076923077</ele>
        <time>2015-10-03T08:28:47.502Z</time>
      </trkpt>
      <trkpt lat="45.30014" lon="4.24719">
        <ele>706.5</ele>
        <time>2015-10-03T08:28:48.503Z</time>
      </trkpt>
      <trkpt lat="45.30014" lon="4.2472">
        <ele>706.16</ele>
        <time>2015-10-03T08:28:49.508Z</time>
      </trkpt>
      <trkpt lat="45.30014" lon="4.2472">
        <ele>706</ele>
        <time>2015-10-03T08:28:50.510Z</time>
      </trkpt>
      <trkpt lat="45.30013" lon="4.24722">
        <ele>705.84</ele>
        <time>2015-10-03T08:28:51.521Z</time>
      </trkpt>
      <trkpt lat="45.30013" lon="4.24723">
        <ele>705.68</ele>
        <time>2015-10-03T08:28:52.510Z</time>
      </trkpt>
      <trkpt lat="45.30012" lon="4.24725">
        <ele>705.52</ele>
        <time>2015-10-03T08:28:53.512Z</time>
      </trkpt>
      <trkpt lat="45.30012" lon="4.24727">
        <ele>705.4</ele>
        <time>2015-10-03T08:28:54.514Z</time>
      </trkpt>
      <trkpt lat="45.30011" lon="4.24728">
        <ele>705.28</ele>
        <time>2015-10-03T08:28:55.500Z</time>
      </trkpt>
      <trkpt lat="45.30011" lon="4.24729">
        <ele>705.2</ele>
        <time>2015-10-03T08:28:56.503Z</time>
      </trkpt>
      <trkpt lat="45.3001" lon="4.24729">
        <ele>705.12</ele>
        <time>2015-10-03T08:28:57.506Z</time>
      </trkpt>
      <trkpt lat="45.30009" lon="4.24728">
        <ele>704.76</ele>
        <time>2015-10-03T08:29:00.494Z</time>
      </trkpt>
      <trkpt lat="45.30009" lon="4.2473">
        <ele>704.57692307692</ele>
        <time>2015-10-03T08:29:03.497Z</time>
      </trkpt>
      <trkpt lat="45.30009" lon="4.24731">
        <ele>704.46153846154</ele>
        <time>2015-10-03T08:29:06.498Z</time>
      </trkpt>
      <trkpt lat="45.30009" lon="4.24732">
        <ele>704.44</ele>
        <time>2015-10-03T08:29:07.506Z</time>
      </trkpt>
      <trkpt lat="45.30009" lon="4.24734">
        <ele>704.42307692308</ele>
        <time>2015-10-03T08:29:10.492Z</time>
      </trkpt>
      <trkpt lat="45.30007" lon="4.24734">
        <ele>704.38461538462</ele>
        <time>2015-10-03T08:29:13.501Z</time>
      </trkpt>
      <trkpt lat="45.30006" lon="4.24733">
        <ele>704.42307692308</ele>
        <time>2015-10-03T08:29:15.503Z</time>
      </trkpt>
      <trkpt lat="45.30006" lon="4.24734">
        <ele>704.5</ele>
        <time>2015-10-03T08:29:18.500Z</time>
      </trkpt>
      <trkpt lat="45.30004" lon="4.24735">
        <ele>704.48</ele>
        <time>2015-10-03T08:29:20.505Z</time>
      </trkpt>
      <trkpt lat="45.30002" lon="4.24734">
        <ele>704.48</ele>
        <time>2015-10-03T08:29:21.514Z</time>
      </trkpt>
      <trkpt lat="45.29998" lon="4.24733">
        <ele>704.52</ele>
        <time>2015-10-03T08:29:24.532Z</time>
      </trkpt>
      <trkpt lat="45.29997" lon="4.24734">
        <ele>704.52</ele>
        <time>2015-10-03T08:29:25.527Z</time>
      </trkpt>
      <trkpt lat="45.29997" lon="4.24735">
        <ele>704.6</ele>
        <time>2015-10-03T08:29:26.523Z</time>
      </trkpt>
      <trkpt lat="45.29997" lon="4.24736">
        <ele>704.6</ele>
        <time>2015-10-03T08:29:27.519Z</time>
      </trkpt>
      <trkpt lat="45.29997" lon="4.24736">
        <ele>704.61538461538</ele>
        <time>2015-10-03T08:29:31.498Z</time>
      </trkpt>
      <trkpt lat="45.29998" lon="4.24736">
        <ele>704.57692307692</ele>
        <time>2015-10-03T08:29:33.491Z</time>
      </trkpt>
      <trkpt lat="45.29998" lon="4.24735">
        <ele>704.6</ele>
        <time>2015-10-03T08:29:34.510Z</time>
      </trkpt>
      <trkpt lat="45.29998" lon="4.24735">
        <ele>704.65384615385</ele>
        <time>2015-10-03T08:29:38.490Z</time>
      </trkpt>
      <trkpt lat="45.29998" lon="4.24735">
        <ele>704.76</ele>
        <time>2015-10-03T08:29:41.502Z</time>
      </trkpt>
      <trkpt lat="45.29998" lon="4.24735">
        <ele>704.76</ele>
        <time>2015-10-03T08:29:43.502Z</time>
      </trkpt>
      <trkpt lat="45.29998" lon="4.24735">
        <ele>704.76</ele>
        <time>2015-10-03T08:29:44.505Z</time>
      </trkpt>
      <trkpt lat="45.29999" lon="4.24737">
        <ele>704.76923076923</ele>
        <time>2015-10-03T08:29:45.494Z</time>
      </trkpt>
      <trkpt lat="45.29999" lon="4.24738">
        <ele>704.76923076923</ele>
        <time>2015-10-03T08:29:48.496Z</time>
      </trkpt>
      <trkpt lat="45.3" lon="4.24738">
        <ele>704.76923076923</ele>
        <time>2015-10-03T08:29:51.504Z</time>
      </trkpt>
      <trkpt lat="45.3" lon="4.24738">
        <ele>704.76</ele>
        <time>2015-10-03T08:29:55.499Z</time>
      </trkpt>
      <trkpt lat="45.3" lon="4.24738">
        <ele>704.76</ele>
        <time>2015-10-03T08:29:58.502Z</time>
      </trkpt>
      <trkpt lat="45.3" lon="4.24738">
        <ele>704.69230769231</ele>
        <time>2015-10-03T08:30:02.491Z</time>
      </trkpt>
      <trkpt lat="45.30001" lon="4.24739">
        <ele>704.69230769231</ele>
        <time>2015-10-03T08:30:05.502Z</time>
      </trkpt>
      <trkpt lat="45.30001" lon="4.2474">
        <ele>704.69230769231</ele>
        <time>2015-10-03T08:30:09.501Z</time>
      </trkpt>
      <trkpt lat="45.30001" lon="4.2474">
        <ele>704.69230769231</ele>
        <time>2015-10-03T08:30:13.494Z</time>
      </trkpt>
      <trkpt lat="45.30001" lon="4.2474">
        <ele>704.73076923077</ele>
        <time>2015-10-03T08:30:16.500Z</time>
      </trkpt>
      <trkpt lat="45.30001" lon="4.24741">
        <ele>704.80769230769</ele>
        <time>2015-10-03T08:30:20.494Z</time>
      </trkpt>
      <trkpt lat="45.30002" lon="4.24741">
        <ele>704.80769230769</ele>
        <time>2015-10-03T08:30:23.497Z</time>
      </trkpt>
      <trkpt lat="45.30002" lon="4.24741">
        <ele>704.80769230769</ele>
        <time>2015-10-03T08:30:26.501Z</time>
      </trkpt>
      <trkpt lat="45.30002" lon="4.24741">
        <ele>704.88</ele>
        <time>2015-10-03T08:30:30.508Z</time>
      </trkpt>
      <trkpt lat="45.30002" lon="4.24741">
        <ele>704.92307692308</ele>
        <time>2015-10-03T08:30:34.496Z</time>
      </trkpt>
      <trkpt lat="45.30002" lon="4.24741">
        <ele>704.88</ele>
        <time>2015-10-03T08:30:38.497Z</time>
      </trkpt>
      <trkpt lat="45.30002" lon="4.24741">
        <ele>704.88461538462</ele>
        <time>2015-10-03T08:30:41.498Z</time>
      </trkpt>
      <trkpt lat="45.30002" lon="4.2474">
        <ele>704.88461538462</ele>
        <time>2015-10-03T08:30:44.499Z</time>
      </trkpt>
      <trkpt lat="45.30002" lon="4.2474">
        <ele>704.88</ele>
        <time>2015-10-03T08:30:45.503Z</time>
      </trkpt>
      <trkpt lat="45.30001" lon="4.2474">
        <ele>704.88</ele>
        <time>2015-10-03T08:30:46.499Z</time>
      </trkpt>
      <trkpt lat="45.3" lon="4.24741">
        <ele>704.96</ele>
        <time>2015-10-03T08:30:47.504Z</time>
      </trkpt>
      <trkpt lat="45.29999" lon="4.24742">
        <ele>704.96</ele>
        <time>2015-10-03T08:30:48.506Z</time>
      </trkpt>
      <trkpt lat="45.29998" lon="4.24743">
        <ele>704.96</ele>
        <time>2015-10-03T08:30:49.512Z</time>
      </trkpt>
      <trkpt lat="45.29996" lon="4.24744">
        <ele>704.96153846154</ele>
        <time>2015-10-03T08:30:51.501Z</time>
      </trkpt>
      <trkpt lat="45.29995" lon="4.24744">
        <ele>704.96153846154</ele>
        <time>2015-10-03T08:30:52.492Z</time>
      </trkpt>
      <trkpt lat="45.29993" lon="4.24746">
        <ele>704.96153846154</ele>
        <time>2015-10-03T08:30:53.497Z</time>
      </trkpt>
      <trkpt lat="45.29991" lon="4.24747">
        <ele>704.96</ele>
        <time>2015-10-03T08:30:54.497Z</time>
      </trkpt>
      <trkpt lat="45.2999" lon="4.24748">
        <ele>704.96153846154</ele>
        <time>2015-10-03T08:30:55.496Z</time>
      </trkpt>
      <trkpt lat="45.29989" lon="4.24748">
        <ele>705</ele>
        <time>2015-10-03T08:30:56.507Z</time>
      </trkpt>
      <trkpt lat="45.29989" lon="4.24748">
        <ele>705</ele>
        <time>2015-10-03T08:30:57.504Z</time>
      </trkpt>
      <trkpt lat="45.29987" lon="4.24748">
        <ele>705</ele>
        <time>2015-10-03T08:30:58.499Z</time>
      </trkpt>
      <trkpt lat="45.29986" lon="4.24748">
        <ele>705</ele>
        <time>2015-10-03T08:30:59.518Z</time>
      </trkpt>
      <trkpt lat="45.29985" lon="4.2475">
        <ele>705</ele>
        <time>2015-10-03T08:31:00.531Z</time>
      </trkpt>
      <trkpt lat="45.29985" lon="4.24751">
        <ele>705</ele>
        <time>2015-10-03T08:31:01.546Z</time>
      </trkpt>
      <trkpt lat="45.29984" lon="4.24753">
        <ele>705.08</ele>
        <time>2015-10-03T08:31:02.529Z</time>
      </trkpt>
      <trkpt lat="45.29983" lon="4.24755">
        <ele>705.16</ele>
        <time>2015-10-03T08:31:03.506Z</time>
      </trkpt>
      <trkpt lat="45.29982" lon="4.24757">
        <ele>705.24</ele>
        <time>2015-10-03T08:31:04.509Z</time>
      </trkpt>
      <trkpt lat="45.29981" lon="4.2476">
        <ele>705.28</ele>
        <time>2015-10-03T08:31:05.527Z</time>
      </trkpt>
      <trkpt lat="45.29981" lon="4.24762">
        <ele>705.36</ele>
        <time>2015-10-03T08:31:06.518Z</time>
      </trkpt>
      <trkpt lat="45.2998" lon="4.24764">
        <ele>705.44</ele>
        <time>2015-10-03T08:31:07.519Z</time>
      </trkpt>
      <trkpt lat="45.2998" lon="4.24766">
        <ele>705.48</ele>
        <time>2015-10-03T08:31:08.517Z</time>
      </trkpt>
      <trkpt lat="45.2998" lon="4.24768">
        <ele>705.5</ele>
        <time>2015-10-03T08:31:09.497Z</time>
      </trkpt>
      <trkpt lat="45.2998" lon="4.24768">
        <ele>705.53846153846</ele>
        <time>2015-10-03T08:31:10.497Z</time>
      </trkpt>
      <trkpt lat="45.2998" lon="4.24769">
        <ele>705.57692307692</ele>
        <time>2015-10-03T08:31:11.499Z</time>
      </trkpt>
      <trkpt lat="45.29979" lon="4.24769">
        <ele>705.61538461538</ele>
        <time>2015-10-03T08:31:12.502Z</time>
      </trkpt>
      <trkpt lat="45.29977" lon="4.2477">
        <ele>705.65384615385</ele>
        <time>2015-10-03T08:31:13.498Z</time>
      </trkpt>
      <trkpt lat="45.29976" lon="4.24771">
        <ele>705.69230769231</ele>
        <time>2015-10-03T08:31:14.502Z</time>
      </trkpt>
      <trkpt lat="45.29974" lon="4.24771">
        <ele>705.73076923077</ele>
        <time>2015-10-03T08:31:15.502Z</time>
      </trkpt>
      <trkpt lat="45.29973" lon="4.24771">
        <ele>705.76923076923</ele>
        <time>2015-10-03T08:31:16.500Z</time>
      </trkpt>
      <trkpt lat="45.29972" lon="4.24771">
        <ele>705.84</ele>
        <time>2015-10-03T08:31:17.514Z</time>
      </trkpt>
      <trkpt lat="45.2997" lon="4.24771">
        <ele>705.88</ele>
        <time>2015-10-03T08:31:18.533Z</time>
      </trkpt>
      <trkpt lat="45.29969" lon="4.24772">
        <ele>705.88</ele>
        <time>2015-10-03T08:31:19.519Z</time>
      </trkpt>
      <trkpt lat="45.29967" lon="4.24774">
        <ele>705.96</ele>
        <time>2015-10-03T08:31:20.514Z</time>
      </trkpt>
      <trkpt lat="45.29966" lon="4.24775">
        <ele>705.92</ele>
        <time>2015-10-03T08:31:21.526Z</time>
      </trkpt>
      <trkpt lat="45.29966" lon="4.24777">
        <ele>706</ele>
        <time>2015-10-03T08:31:22.540Z</time>
      </trkpt>
      <trkpt lat="45.29964" lon="4.2478">
        <ele>706</ele>
        <time>2015-10-03T08:31:23.545Z</time>
      </trkpt>
      <trkpt lat="45.29961" lon="4.24781">
        <ele>706.08</ele>
        <time>2015-10-03T08:31:24.532Z</time>
      </trkpt>
      <trkpt lat="45.29958" lon="4.2478">
        <ele>706.2</ele>
        <time>2015-10-03T08:31:25.539Z</time>
      </trkpt>
      <trkpt lat="45.29956" lon="4.24778">
        <ele>706.15384615385</ele>
        <time>2015-10-03T08:31:26.534Z</time>
      </trkpt>
      <trkpt lat="45.29953" lon="4.24776">
        <ele>706.24</ele>
        <time>2015-10-03T08:31:27.538Z</time>
      </trkpt>
      <trkpt lat="45.2995" lon="4.24775">
        <ele>706.24</ele>
        <time>2015-10-03T08:31:28.534Z</time>
      </trkpt>
      <trkpt lat="45.29947" lon="4.24774">
        <ele>706.24</ele>
        <time>2015-10-03T08:31:29.530Z</time>
      </trkpt>
      <trkpt lat="45.29945" lon="4.24772">
        <ele>706.24</ele>
        <time>2015-10-03T08:31:30.538Z</time>
      </trkpt>
      <trkpt lat="45.29944" lon="4.24769">
        <ele>706.28</ele>
        <time>2015-10-03T08:31:31.532Z</time>
      </trkpt>
      <trkpt lat="45.29943" lon="4.24767">
        <ele>706.32</ele>
        <time>2015-10-03T08:31:32.536Z</time>
      </trkpt>
      <trkpt lat="45.29942" lon="4.24765">
        <ele>706.36</ele>
        <time>2015-10-03T08:31:33.535Z</time>
      </trkpt>
      <trkpt lat="45.29941" lon="4.24763">
        <ele>706.4</ele>
        <time>2015-10-03T08:31:34.530Z</time>
      </trkpt>
      <trkpt lat="45.29939" lon="4.2476">
        <ele>706.56</ele>
        <time>2015-10-03T08:31:36.536Z</time>
      </trkpt>
      <trkpt lat="45.29936" lon="4.24758">
        <ele>706.76</ele>
        <time>2015-10-03T08:31:38.529Z</time>
      </trkpt>
      <trkpt lat="45.29934" lon="4.24757">
        <ele>706.84</ele>
        <time>2015-10-03T08:31:39.524Z</time>
      </trkpt>
      <trkpt lat="45.29932" lon="4.24756">
        <ele>706.96</ele>
        <time>2015-10-03T08:31:40.523Z</time>
      </trkpt>
      <trkpt lat="45.29927" lon="4.24753">
        <ele>707.2</ele>
        <time>2015-10-03T08:31:42.543Z</time>
      </trkpt>
      <trkpt lat="45.29924" lon="4.24752">
        <ele>707.30769230769</ele>
        <time>2015-10-03T08:31:43.526Z</time>
      </trkpt>
      <trkpt lat="45.2992" lon="4.24752">
        <ele>707.46153846154</ele>
        <time>2015-10-03T08:31:44.516Z</time>
      </trkpt>
      <trkpt lat="45.29917" lon="4.24752">
        <ele>707.68</ele>
        <time>2015-10-03T08:31:45.519Z</time>
      </trkpt>
      <trkpt lat="45.29911" lon="4.24749">
        <ele>707.88461538462</ele>
        <time>2015-10-03T08:31:47.534Z</time>
      </trkpt>
      <trkpt lat="45.29911" lon="4.24746">
        <ele>708.03846153846</ele>
        <time>2015-10-03T08:31:48.540Z</time>
      </trkpt>
      <trkpt lat="45.29911" lon="4.24744">
        <ele>708.19230769231</ele>
        <time>2015-10-03T08:31:49.532Z</time>
      </trkpt>
      <trkpt lat="45.2991" lon="4.24742">
        <ele>708.32</ele>
        <time>2015-10-03T08:31:50.541Z</time>
      </trkpt>
      <trkpt lat="45.29909" lon="4.24738">
        <ele>708.57692307692</ele>
        <time>2015-10-03T08:31:52.532Z</time>
      </trkpt>
      <trkpt lat="45.29908" lon="4.24736">
        <ele>708.65384615385</ele>
        <time>2015-10-03T08:31:53.514Z</time>
      </trkpt>
      <trkpt lat="45.29908" lon="4.24733">
        <ele>708.73076923077</ele>
        <time>2015-10-03T08:31:54.500Z</time>
      </trkpt>
      <trkpt lat="45.29908" lon="4.24728">
        <ele>708.96153846154</ele>
        <time>2015-10-03T08:31:56.531Z</time>
      </trkpt>
      <trkpt lat="45.29907" lon="4.24722">
        <ele>709.2</ele>
        <time>2015-10-03T08:31:58.545Z</time>
      </trkpt>
      <trkpt lat="45.29907" lon="4.2472">
        <ele>709.28</ele>
        <time>2015-10-03T08:31:59.540Z</time>
      </trkpt>
      <trkpt lat="45.29906" lon="4.24713">
        <ele>709.44</ele>
        <time>2015-10-03T08:32:01.551Z</time>
      </trkpt>
      <trkpt lat="45.29903" lon="4.24704">
        <ele>709.6</ele>
        <time>2015-10-03T08:32:04.543Z</time>
      </trkpt>
      <trkpt lat="45.29902" lon="4.24701">
        <ele>709.68</ele>
        <time>2015-10-03T08:32:05.552Z</time>
      </trkpt>
      <trkpt lat="45.29901" lon="4.24698">
        <ele>709.76</ele>
        <time>2015-10-03T08:32:06.541Z</time>
      </trkpt>
      <trkpt lat="45.29898" lon="4.24688">
        <ele>709.92</ele>
        <time>2015-10-03T08:32:09.543Z</time>
      </trkpt>
      <trkpt lat="45.29896" lon="4.24685">
        <ele>709.92</ele>
        <time>2015-10-03T08:32:10.547Z</time>
      </trkpt>
      <trkpt lat="45.29895" lon="4.24681">
        <ele>710</ele>
        <time>2015-10-03T08:32:11.537Z</time>
      </trkpt>
      <trkpt lat="45.29893" lon="4.24678">
        <ele>710.12</ele>
        <time>2015-10-03T08:32:12.547Z</time>
      </trkpt>
      <trkpt lat="45.2989" lon="4.2467">
        <ele>710.20833333333</ele>
        <time>2015-10-03T08:32:14.543Z</time>
      </trkpt>
      <trkpt lat="45.2989" lon="4.24666">
        <ele>710.25</ele>
        <time>2015-10-03T08:32:15.544Z</time>
      </trkpt>
      <trkpt lat="45.2989" lon="4.24663">
        <ele>710.29166666667</ele>
        <time>2015-10-03T08:32:16.535Z</time>
      </trkpt>
      <trkpt lat="45.2989" lon="4.24656">
        <ele>710.54166666667</ele>
        <time>2015-10-03T08:32:18.546Z</time>
      </trkpt>
      <trkpt lat="45.29889" lon="4.24652">
        <ele>710.625</ele>
        <time>2015-10-03T08:32:19.549Z</time>
      </trkpt>
      <trkpt lat="45.29887" lon="4.24649">
        <ele>710.75</ele>
        <time>2015-10-03T08:32:20.542Z</time>
      </trkpt>
      <trkpt lat="45.29882" lon="4.24643">
        <ele>710.92</ele>
        <time>2015-10-03T08:32:22.543Z</time>
      </trkpt>
      <trkpt lat="45.29875" lon="4.24637">
        <ele>711.04</ele>
        <time>2015-10-03T08:32:24.537Z</time>
      </trkpt>
      <trkpt lat="45.29872" lon="4.24635">
        <ele>711.20833333333</ele>
        <time>2015-10-03T08:32:25.555Z</time>
      </trkpt>
      <trkpt lat="45.29868" lon="4.24634">
        <ele>711.24</ele>
        <time>2015-10-03T08:32:26.549Z</time>
      </trkpt>
      <trkpt lat="45.29864" lon="4.24632">
        <ele>711.5</ele>
        <time>2015-10-03T08:32:27.550Z</time>
      </trkpt>
      <trkpt lat="45.29861" lon="4.2463">
        <ele>711.58333333333</ele>
        <time>2015-10-03T08:32:28.558Z</time>
      </trkpt>
      <trkpt lat="45.29853" lon="4.24626">
        <ele>711.79166666667</ele>
        <time>2015-10-03T08:32:30.554Z</time>
      </trkpt>
      <trkpt lat="45.29849" lon="4.24624">
        <ele>711.91666666667</ele>
        <time>2015-10-03T08:32:31.543Z</time>
      </trkpt>
      <trkpt lat="45.29839" lon="4.24622">
        <ele>712.125</ele>
        <time>2015-10-03T08:32:34.553Z</time>
      </trkpt>
      <trkpt lat="45.29836" lon="4.24621">
        <ele>712.25</ele>
        <time>2015-10-03T08:32:35.552Z</time>
      </trkpt>
      <trkpt lat="45.29833" lon="4.2462">
        <ele>712.25</ele>
        <time>2015-10-03T08:32:36.550Z</time>
      </trkpt>
      <trkpt lat="45.29829" lon="4.24618">
        <ele>712.32</ele>
        <time>2015-10-03T08:32:37.543Z</time>
      </trkpt>
      <trkpt lat="45.29825" lon="4.24617">
        <ele>712.4</ele>
        <time>2015-10-03T08:32:38.541Z</time>
      </trkpt>
      <trkpt lat="45.29822" lon="4.24616">
        <ele>712.38461538462</ele>
        <time>2015-10-03T08:32:39.543Z</time>
      </trkpt>
      <trkpt lat="45.29818" lon="4.24616">
        <ele>712.46153846154</ele>
        <time>2015-10-03T08:32:40.526Z</time>
      </trkpt>
      <trkpt lat="45.29811" lon="4.24617">
        <ele>712.73076923077</ele>
        <time>2015-10-03T08:32:42.531Z</time>
      </trkpt>
      <trkpt lat="45.29807" lon="4.24618">
        <ele>712.76923076923</ele>
        <time>2015-10-03T08:32:43.537Z</time>
      </trkpt>
      <trkpt lat="45.29793" lon="4.24623">
        <ele>713.07692307692</ele>
        <time>2015-10-03T08:32:47.534Z</time>
      </trkpt>
      <trkpt lat="45.29784" lon="4.24627">
        <ele>713.34615384615</ele>
        <time>2015-10-03T08:32:50.537Z</time>
      </trkpt>
      <trkpt lat="45.29781" lon="4.24629">
        <ele>713.34615384615</ele>
        <time>2015-10-03T08:32:51.540Z</time>
      </trkpt>
      <trkpt lat="45.29768" lon="4.24637">
        <ele>713.57692307692</ele>
        <time>2015-10-03T08:32:55.548Z</time>
      </trkpt>
      <trkpt lat="45.29759" lon="4.24643">
        <ele>713.8</ele>
        <time>2015-10-03T08:32:58.553Z</time>
      </trkpt>
      <trkpt lat="45.29756" lon="4.24645">
        <ele>713.80769230769</ele>
        <time>2015-10-03T08:32:59.518Z</time>
      </trkpt>
      <trkpt lat="45.29754" lon="4.24647">
        <ele>713.76923076923</ele>
        <time>2015-10-03T08:33:00.497Z</time>
      </trkpt>
      <trkpt lat="45.29747" lon="4.24655">
        <ele>713.92307692308</ele>
        <time>2015-10-03T08:33:02.497Z</time>
      </trkpt>
      <trkpt lat="45.29736" lon="4.24666">
        <ele>714.07692307692</ele>
        <time>2015-10-03T08:33:05.503Z</time>
      </trkpt>
      <trkpt lat="45.2973" lon="4.24673">
        <ele>714.11538461538</ele>
        <time>2015-10-03T08:33:07.496Z</time>
      </trkpt>
      <trkpt lat="45.29727" lon="4.24675">
        <ele>714.11538461538</ele>
        <time>2015-10-03T08:33:08.523Z</time>
      </trkpt>
      <trkpt lat="45.29718" lon="4.24672">
        <ele>714.12</ele>
        <time>2015-10-03T08:33:10.489Z</time>
      </trkpt>
      <trkpt lat="45.29715" lon="4.24672">
        <ele>714.08</ele>
        <time>2015-10-03T08:33:11.492Z</time>
      </trkpt>
      <trkpt lat="45.29707" lon="4.24677">
        <ele>714.04</ele>
        <time>2015-10-03T08:33:13.495Z</time>
      </trkpt>
      <trkpt lat="45.29703" lon="4.24679">
        <ele>714.04</ele>
        <time>2015-10-03T08:33:14.495Z</time>
      </trkpt>
      <trkpt lat="45.29696" lon="4.24684">
        <ele>714.08</ele>
        <time>2015-10-03T08:33:16.499Z</time>
      </trkpt>
      <trkpt lat="45.29694" lon="4.24688">
        <ele>714.12</ele>
        <time>2015-10-03T08:33:17.500Z</time>
      </trkpt>
      <trkpt lat="45.29691" lon="4.24692">
        <ele>714.08333333333</ele>
        <time>2015-10-03T08:33:19.542Z</time>
      </trkpt>
      <trkpt lat="45.29683" lon="4.247">
        <ele>714.12</ele>
        <time>2015-10-03T08:33:23.541Z</time>
      </trkpt>
      <trkpt lat="45.29678" lon="4.24704">
        <ele>714.125</ele>
        <time>2015-10-03T08:33:25.539Z</time>
      </trkpt>
      <trkpt lat="45.29668" lon="4.24706">
        <ele>714.125</ele>
        <time>2015-10-03T08:33:28.532Z</time>
      </trkpt>
      <trkpt lat="45.29661" lon="4.24706">
        <ele>714.08333333333</ele>
        <time>2015-10-03T08:33:30.533Z</time>
      </trkpt>
      <trkpt lat="45.29649" lon="4.24704">
        <ele>714.12</ele>
        <time>2015-10-03T08:33:34.532Z</time>
      </trkpt>
      <trkpt lat="45.29646" lon="4.24704">
        <ele>714.12</ele>
        <time>2015-10-03T08:33:35.530Z</time>
      </trkpt>
      <trkpt lat="45.29644" lon="4.24703">
        <ele>714.16</ele>
        <time>2015-10-03T08:33:36.533Z</time>
      </trkpt>
      <trkpt lat="45.2964" lon="4.24702">
        <ele>714.24</ele>
        <time>2015-10-03T08:33:37.533Z</time>
      </trkpt>
      <trkpt lat="45.29637" lon="4.24702">
        <ele>714.28</ele>
        <time>2015-10-03T08:33:38.528Z</time>
      </trkpt>
      <trkpt lat="45.29634" lon="4.24701">
        <ele>714.28</ele>
        <time>2015-10-03T08:33:39.519Z</time>
      </trkpt>
      <trkpt lat="45.29631" lon="4.24701">
        <ele>714.28</ele>
        <time>2015-10-03T08:33:40.521Z</time>
      </trkpt>
      <trkpt lat="45.2963" lon="4.24703">
        <ele>714.28</ele>
        <time>2015-10-03T08:33:41.532Z</time>
      </trkpt>
      <trkpt lat="45.29631" lon="4.24705">
        <ele>714.32</ele>
        <time>2015-10-03T08:33:42.538Z</time>
      </trkpt>
      <trkpt lat="45.29631" lon="4.24708">
        <ele>714.4</ele>
        <time>2015-10-03T08:33:43.538Z</time>
      </trkpt>
      <trkpt lat="45.29632" lon="4.2471">
        <ele>714.42307692308</ele>
        <time>2015-10-03T08:33:44.534Z</time>
      </trkpt>
      <trkpt lat="45.29629" lon="4.24711">
        <ele>714.36</ele>
        <time>2015-10-03T08:33:45.543Z</time>
      </trkpt>
      <trkpt lat="45.29624" lon="4.24707">
        <ele>714.44</ele>
        <time>2015-10-03T08:33:46.542Z</time>
      </trkpt>
      <trkpt lat="45.29619" lon="4.24703">
        <ele>714.56</ele>
        <time>2015-10-03T08:33:47.539Z</time>
      </trkpt>
      <trkpt lat="45.29609" lon="4.24697">
        <ele>714.57692307692</ele>
        <time>2015-10-03T08:33:49.535Z</time>
      </trkpt>
      <trkpt lat="45.29595" lon="4.24689">
        <ele>714.88</ele>
        <time>2015-10-03T08:33:52.807Z</time>
      </trkpt>
      <trkpt lat="45.2959" lon="4.24687">
        <ele>714.88</ele>
        <time>2015-10-03T08:33:53.797Z</time>
      </trkpt>
      <trkpt lat="45.2958" lon="4.24685">
        <ele>715.12</ele>
        <time>2015-10-03T08:33:55.791Z</time>
      </trkpt>
      <trkpt lat="45.29566" lon="4.24684">
        <ele>715.36</ele>
        <time>2015-10-03T08:33:58.781Z</time>
      </trkpt>
      <trkpt lat="45.29562" lon="4.24684">
        <ele>715.44</ele>
        <time>2015-10-03T08:33:59.785Z</time>
      </trkpt>
      <trkpt lat="45.29547" lon="4.24681">
        <ele>715.68</ele>
        <time>2015-10-03T08:34:03.788Z</time>
      </trkpt>
      <trkpt lat="45.29538" lon="4.2468">
        <ele>715.84</ele>
        <time>2015-10-03T08:34:06.786Z</time>
      </trkpt>
      <trkpt lat="45.29538" lon="4.24682">
        <ele>715.84</ele>
        <time>2015-10-03T08:34:07.786Z</time>
      </trkpt>
      <trkpt lat="45.29539" lon="4.24686">
        <ele>715.92</ele>
        <time>2015-10-03T08:34:09.790Z</time>
      </trkpt>
      <trkpt lat="45.29537" lon="4.24687">
        <ele>716.04</ele>
        <time>2015-10-03T08:34:10.789Z</time>
      </trkpt>
      <trkpt lat="45.29536" lon="4.24688">
        <ele>716</ele>
        <time>2015-10-03T08:34:11.802Z</time>
      </trkpt>
      <trkpt lat="45.29531" lon="4.24686">
        <ele>716</ele>
        <time>2015-10-03T08:34:12.802Z</time>
      </trkpt>
      <trkpt lat="45.29509" lon="4.24679">
        <ele>716.08333333333</ele>
        <time>2015-10-03T08:34:16.792Z</time>
      </trkpt>
      <trkpt lat="45.29495" lon="4.24674">
        <ele>716.08333333333</ele>
        <time>2015-10-03T08:34:19.804Z</time>
      </trkpt>
      <trkpt lat="45.29491" lon="4.24672">
        <ele>716.08333333333</ele>
        <time>2015-10-03T08:34:20.803Z</time>
      </trkpt>
      <trkpt lat="45.29488" lon="4.24671">
        <ele>716.125</ele>
        <time>2015-10-03T08:34:21.804Z</time>
      </trkpt>
      <trkpt lat="45.29485" lon="4.24671">
        <ele>716.16666666667</ele>
        <time>2015-10-03T08:34:22.799Z</time>
      </trkpt>
      <trkpt lat="45.29483" lon="4.2467">
        <ele>716.08333333333</ele>
        <time>2015-10-03T08:34:23.805Z</time>
      </trkpt>
      <trkpt lat="45.2948" lon="4.24669">
        <ele>716.04166666667</ele>
        <time>2015-10-03T08:34:24.798Z</time>
      </trkpt>
      <trkpt lat="45.29477" lon="4.24667">
        <ele>716.08333333333</ele>
        <time>2015-10-03T08:34:25.811Z</time>
      </trkpt>
      <trkpt lat="45.2947" lon="4.24665">
        <ele>716.16</ele>
        <time>2015-10-03T08:34:27.767Z</time>
      </trkpt>
      <trkpt lat="45.29468" lon="4.24664">
        <ele>716.16</ele>
        <time>2015-10-03T08:34:28.762Z</time>
      </trkpt>
      <trkpt lat="45.29465" lon="4.24662">
        <ele>716.12</ele>
        <time>2015-10-03T08:34:29.773Z</time>
      </trkpt>
      <trkpt lat="45.29462" lon="4.24659">
        <ele>716.24</ele>
        <time>2015-10-03T08:34:30.773Z</time>
      </trkpt>
      <trkpt lat="45.29459" lon="4.24656">
        <ele>716.29166666667</ele>
        <time>2015-10-03T08:34:31.790Z</time>
      </trkpt>
      <trkpt lat="45.29456" lon="4.24653">
        <ele>716.375</ele>
        <time>2015-10-03T08:34:32.794Z</time>
      </trkpt>
      <trkpt lat="45.29454" lon="4.24651">
        <ele>716.45833333333</ele>
        <time>2015-10-03T08:34:33.806Z</time>
      </trkpt>
      <trkpt lat="45.29451" lon="4.24651">
        <ele>716.5</ele>
        <time>2015-10-03T08:34:34.806Z</time>
      </trkpt>
      <trkpt lat="45.29448" lon="4.24653">
        <ele>716.54166666667</ele>
        <time>2015-10-03T08:34:35.816Z</time>
      </trkpt>
      <trkpt lat="45.29445" lon="4.24655">
        <ele>716.6</ele>
        <time>2015-10-03T08:34:36.800Z</time>
      </trkpt>
      <trkpt lat="45.29442" lon="4.24657">
        <ele>716.76</ele>
        <time>2015-10-03T08:34:37.787Z</time>
      </trkpt>
      <trkpt lat="45.29439" lon="4.24658">
        <ele>716.84</ele>
        <time>2015-10-03T08:34:38.793Z</time>
      </trkpt>
      <trkpt lat="45.29437" lon="4.2466">
        <ele>716.84615384615</ele>
        <time>2015-10-03T08:34:39.791Z</time>
      </trkpt>
      <trkpt lat="45.29434" lon="4.24661">
        <ele>716.92</ele>
        <time>2015-10-03T08:34:40.795Z</time>
      </trkpt>
      <trkpt lat="45.29431" lon="4.24663">
        <ele>716.96</ele>
        <time>2015-10-03T08:34:41.794Z</time>
      </trkpt>
      <trkpt lat="45.29421" lon="4.24667">
        <ele>717.15384615385</ele>
        <time>2015-10-03T08:34:44.800Z</time>
      </trkpt>
      <trkpt lat="45.29412" lon="4.24671">
        <ele>717.32</ele>
        <time>2015-10-03T08:34:47.835Z</time>
      </trkpt>
      <trkpt lat="45.29408" lon="4.24672">
        <ele>717.4</ele>
        <time>2015-10-03T08:34:48.822Z</time>
      </trkpt>
      <trkpt lat="45.29405" lon="4.24672">
        <ele>717.44</ele>
        <time>2015-10-03T08:34:49.799Z</time>
      </trkpt>
      <trkpt lat="45.294" lon="4.24675">
        <ele>717.44</ele>
        <time>2015-10-03T08:34:51.812Z</time>
      </trkpt>
      <trkpt lat="45.29399" lon="4.24677">
        <ele>717.48</ele>
        <time>2015-10-03T08:34:52.778Z</time>
      </trkpt>
      <trkpt lat="45.29397" lon="4.24682">
        <ele>717.44</ele>
        <time>2015-10-03T08:34:53.778Z</time>
      </trkpt>
      <trkpt lat="45.29394" lon="4.24687">
        <ele>717.52</ele>
        <time>2015-10-03T08:34:54.806Z</time>
      </trkpt>
      <trkpt lat="45.2939" lon="4.24692">
        <ele>717.4</ele>
        <time>2015-10-03T08:34:55.814Z</time>
      </trkpt>
      <trkpt lat="45.29387" lon="4.24697">
        <ele>717.44</ele>
        <time>2015-10-03T08:34:56.818Z</time>
      </trkpt>
      <trkpt lat="45.29383" lon="4.24702">
        <ele>717.44</ele>
        <time>2015-10-03T08:34:57.828Z</time>
      </trkpt>
      <trkpt lat="45.2938" lon="4.24706">
        <ele>717.48</ele>
        <time>2015-10-03T08:34:58.820Z</time>
      </trkpt>
      <trkpt lat="45.29377" lon="4.24709">
        <ele>717.44</ele>
        <time>2015-10-03T08:35:00.513Z</time>
      </trkpt>
      <trkpt lat="45.29368" lon="4.24722">
        <ele>717.32</ele>
        <time>2015-10-03T08:35:02.844Z</time>
      </trkpt>
      <trkpt lat="45.29366" lon="4.24727">
        <ele>717.32</ele>
        <time>2015-10-03T08:35:03.834Z</time>
      </trkpt>
      <trkpt lat="45.29365" lon="4.24734">
        <ele>717.28</ele>
        <time>2015-10-03T08:35:04.833Z</time>
      </trkpt>
      <trkpt lat="45.29364" lon="4.24746">
        <ele>717.30769230769</ele>
        <time>2015-10-03T08:35:06.785Z</time>
      </trkpt>
      <trkpt lat="45.29364" lon="4.24751">
        <ele>717.30769230769</ele>
        <time>2015-10-03T08:35:07.775Z</time>
      </trkpt>
      <trkpt lat="45.29364" lon="4.24758">
        <ele>717.24</ele>
        <time>2015-10-03T08:35:08.812Z</time>
      </trkpt>
      <trkpt lat="45.29365" lon="4.24765">
        <ele>717.2</ele>
        <time>2015-10-03T08:35:09.851Z</time>
      </trkpt>
      <trkpt lat="45.29365" lon="4.24784">
        <ele>717.12</ele>
        <time>2015-10-03T08:35:12.872Z</time>
      </trkpt>
      <trkpt lat="45.29363" lon="4.24789">
        <ele>717.12</ele>
        <time>2015-10-03T08:35:13.858Z</time>
      </trkpt>
      <trkpt lat="45.2936" lon="4.24793">
        <ele>717.16</ele>
        <time>2015-10-03T08:35:14.879Z</time>
      </trkpt>
      <trkpt lat="45.29357" lon="4.24796">
        <ele>717.2</ele>
        <time>2015-10-03T08:35:15.880Z</time>
      </trkpt>
      <trkpt lat="45.29355" lon="4.24799">
        <ele>717.24</ele>
        <time>2015-10-03T08:35:16.827Z</time>
      </trkpt>
      <trkpt lat="45.29353" lon="4.24804">
        <ele>717.28</ele>
        <time>2015-10-03T08:35:17.791Z</time>
      </trkpt>
      <trkpt lat="45.29353" lon="4.24808">
        <ele>717.4</ele>
        <time>2015-10-03T08:35:18.826Z</time>
      </trkpt>
      <trkpt lat="45.29356" lon="4.24816">
        <ele>717.52</ele>
        <time>2015-10-03T08:35:20.855Z</time>
      </trkpt>
      <trkpt lat="45.2936" lon="4.24818">
        <ele>717.48</ele>
        <time>2015-10-03T08:35:21.853Z</time>
      </trkpt>
      <trkpt lat="45.29364" lon="4.24818">
        <ele>717.52</ele>
        <time>2015-10-03T08:35:22.875Z</time>
      </trkpt>
      <trkpt lat="45.29371" lon="4.24815">
        <ele>717.53846153846</ele>
        <time>2015-10-03T08:35:24.842Z</time>
      </trkpt>
      <trkpt lat="45.29374" lon="4.24813">
        <ele>717.57692307692</ele>
        <time>2015-10-03T08:35:25.867Z</time>
      </trkpt>
      <trkpt lat="45.29386" lon="4.24808">
        <ele>717.53846153846</ele>
        <time>2015-10-03T08:35:29.802Z</time>
      </trkpt>
      <trkpt lat="45.29389" lon="4.24808">
        <ele>717.52</ele>
        <time>2015-10-03T08:35:30.812Z</time>
      </trkpt>
      <trkpt lat="45.29391" lon="4.2481">
        <ele>717.48</ele>
        <time>2015-10-03T08:35:31.850Z</time>
      </trkpt>
      <trkpt lat="45.29393" lon="4.24813">
        <ele>717.48</ele>
        <time>2015-10-03T08:35:32.859Z</time>
      </trkpt>
      <trkpt lat="45.29395" lon="4.24816">
        <ele>717.44</ele>
        <time>2015-10-03T08:35:33.859Z</time>
      </trkpt>
      <trkpt lat="45.29399" lon="4.24822">
        <ele>717.46153846154</ele>
        <time>2015-10-03T08:35:35.856Z</time>
      </trkpt>
      <trkpt lat="45.294" lon="4.24824">
        <ele>717.5</ele>
        <time>2015-10-03T08:35:36.875Z</time>
      </trkpt>
      <trkpt lat="45.29403" lon="4.24831">
        <ele>717.52</ele>
        <time>2015-10-03T08:35:38.894Z</time>
      </trkpt>
      <trkpt lat="45.29405" lon="4.24838">
        <ele>717.42307692308</ele>
        <time>2015-10-03T08:35:40.864Z</time>
      </trkpt>
      <trkpt lat="45.29409" lon="4.24848">
        <ele>717.28</ele>
        <time>2015-10-03T08:35:43.868Z</time>
      </trkpt>
      <trkpt lat="45.29411" lon="4.24855">
        <ele>717.26923076923</ele>
        <time>2015-10-03T08:35:45.854Z</time>
      </trkpt>
      <trkpt lat="45.29414" lon="4.24861">
        <ele>717.23076923077</ele>
        <time>2015-10-03T08:35:47.813Z</time>
      </trkpt>
      <trkpt lat="45.29415" lon="4.24864">
        <ele>717.19230769231</ele>
        <time>2015-10-03T08:35:48.822Z</time>
      </trkpt>
      <trkpt lat="45.29417" lon="4.24867">
        <ele>717.19230769231</ele>
        <time>2015-10-03T08:35:49.824Z</time>
      </trkpt>
      <trkpt lat="45.2942" lon="4.24874">
        <ele>717.15384615385</ele>
        <time>2015-10-03T08:35:51.842Z</time>
      </trkpt>
      <trkpt lat="45.29426" lon="4.24883">
        <ele>717.24</ele>
        <time>2015-10-03T08:35:54.873Z</time>
      </trkpt>
      <trkpt lat="45.29429" lon="4.24889">
        <ele>717.42307692308</ele>
        <time>2015-10-03T08:35:56.846Z</time>
      </trkpt>
      <trkpt lat="45.29431" lon="4.249">
        <ele>717.61538461538</ele>
        <time>2015-10-03T08:35:59.834Z</time>
      </trkpt>
      <trkpt lat="45.2943" lon="4.24903">
        <ele>717.69230769231</ele>
        <time>2015-10-03T08:36:00.844Z</time>
      </trkpt>
      <trkpt lat="45.29429" lon="4.24903">
        <ele>717.73076923077</ele>
        <time>2015-10-03T08:36:01.814Z</time>
      </trkpt>
      <trkpt lat="45.29427" lon="4.24902">
        <ele>717.88461538462</ele>
        <time>2015-10-03T08:36:02.773Z</time>
      </trkpt>
      <trkpt lat="45.29424" lon="4.24902">
        <ele>718.03846153846</ele>
        <time>2015-10-03T08:36:04.789Z</time>
      </trkpt>
      <trkpt lat="45.29423" lon="4.24904">
        <ele>718.19230769231</ele>
        <time>2015-10-03T08:36:05.778Z</time>
      </trkpt>
      <trkpt lat="45.29422" lon="4.24904">
        <ele>718.26923076923</ele>
        <time>2015-10-03T08:36:06.781Z</time>
      </trkpt>
      <trkpt lat="45.29422" lon="4.24906">
        <ele>718.38461538462</ele>
        <time>2015-10-03T08:36:07.781Z</time>
      </trkpt>
      <trkpt lat="45.29422" lon="4.24909">
        <ele>718.5</ele>
        <time>2015-10-03T08:36:08.766Z</time>
      </trkpt>
      <trkpt lat="45.29422" lon="4.24914">
        <ele>718.65384615385</ele>
        <time>2015-10-03T08:36:09.768Z</time>
      </trkpt>
      <trkpt lat="45.29423" lon="4.24919">
        <ele>718.76923076923</ele>
        <time>2015-10-03T08:36:10.796Z</time>
      </trkpt>
      <trkpt lat="45.29425" lon="4.24936">
        <ele>719.20833333333</ele>
        <time>2015-10-03T08:36:14.834Z</time>
      </trkpt>
      <trkpt lat="45.29425" lon="4.2494">
        <ele>719.28</ele>
        <time>2015-10-03T08:36:15.806Z</time>
      </trkpt>
      <trkpt lat="45.29424" lon="4.24944">
        <ele>719.4</ele>
        <time>2015-10-03T08:36:16.797Z</time>
      </trkpt>
      <trkpt lat="45.29422" lon="4.24957">
        <ele>719.76</ele>
        <time>2015-10-03T08:36:19.807Z</time>
      </trkpt>
      <trkpt lat="45.29421" lon="4.24959">
        <ele>719.88</ele>
        <time>2015-10-03T08:36:20.793Z</time>
      </trkpt>
      <trkpt lat="45.2942" lon="4.24961">
        <ele>719.92</ele>
        <time>2015-10-03T08:36:21.787Z</time>
      </trkpt>
      <trkpt lat="45.29418" lon="4.24962">
        <ele>720</ele>
        <time>2015-10-03T08:36:22.791Z</time>
      </trkpt>
      <trkpt lat="45.29415" lon="4.24962">
        <ele>720.04</ele>
        <time>2015-10-03T08:36:23.796Z</time>
      </trkpt>
      <trkpt lat="45.29412" lon="4.24962">
        <ele>720.08</ele>
        <time>2015-10-03T08:36:24.799Z</time>
      </trkpt>
      <trkpt lat="45.2941" lon="4.24961">
        <ele>720.2</ele>
        <time>2015-10-03T08:36:25.809Z</time>
      </trkpt>
      <trkpt lat="45.29401" lon="4.24964">
        <ele>720.29166666667</ele>
        <time>2015-10-03T08:36:28.841Z</time>
      </trkpt>
      <trkpt lat="45.29398" lon="4.24965">
        <ele>720.375</ele>
        <time>2015-10-03T08:36:29.860Z</time>
      </trkpt>
      <trkpt lat="45.29396" lon="4.24967">
        <ele>720.375</ele>
        <time>2015-10-03T08:36:30.875Z</time>
      </trkpt>
      <trkpt lat="45.29385" lon="4.24977">
        <ele>720.58333333333</ele>
        <time>2015-10-03T08:36:34.866Z</time>
      </trkpt>
      <trkpt lat="45.29383" lon="4.2498">
        <ele>720.58333333333</ele>
        <time>2015-10-03T08:36:35.859Z</time>
      </trkpt>
      <trkpt lat="45.29381" lon="4.24983">
        <ele>720.66666666667</ele>
        <time>2015-10-03T08:36:36.869Z</time>
      </trkpt>
      <trkpt lat="45.2938" lon="4.24988">
        <ele>720.68</ele>
        <time>2015-10-03T08:36:37.867Z</time>
      </trkpt>
      <trkpt lat="45.2938" lon="4.24993">
        <ele>720.72</ele>
        <time>2015-10-03T08:36:38.869Z</time>
      </trkpt>
      <trkpt lat="45.2938" lon="4.24998">
        <ele>720.84</ele>
        <time>2015-10-03T08:36:39.872Z</time>
      </trkpt>
      <trkpt lat="45.29381" lon="4.25011">
        <ele>720.88</ele>
        <time>2015-10-03T08:36:42.870Z</time>
      </trkpt>
      <trkpt lat="45.29379" lon="4.25015">
        <ele>721</ele>
        <time>2015-10-03T08:36:43.882Z</time>
      </trkpt>
      <trkpt lat="45.29377" lon="4.25016">
        <ele>721.04</ele>
        <time>2015-10-03T08:36:44.882Z</time>
      </trkpt>
      <trkpt lat="45.29374" lon="4.25017">
        <ele>721.08</ele>
        <time>2015-10-03T08:36:45.883Z</time>
      </trkpt>
      <trkpt lat="45.29372" lon="4.25016">
        <ele>721.12</ele>
        <time>2015-10-03T08:36:46.899Z</time>
      </trkpt>
      <trkpt lat="45.29369" lon="4.25015">
        <ele>721.16</ele>
        <time>2015-10-03T08:36:47.900Z</time>
      </trkpt>
      <trkpt lat="45.29369" lon="4.25015">
        <ele>721.24</ele>
        <time>2015-10-03T08:36:48.835Z</time>
      </trkpt>
      <trkpt lat="45.29369" lon="4.25015">
        <ele>721.19230769231</ele>
        <time>2015-10-03T08:36:49.779Z</time>
      </trkpt>
      <trkpt lat="45.29368" lon="4.25018">
        <ele>721.24</ele>
        <time>2015-10-03T08:36:51.143Z</time>
      </trkpt>
      <trkpt lat="45.29368" lon="4.2502">
        <ele>721.23076923077</ele>
        <time>2015-10-03T08:36:51.768Z</time>
      </trkpt>
      <trkpt lat="45.29369" lon="4.25024">
        <ele>721.23076923077</ele>
        <time>2015-10-03T08:36:52.771Z</time>
      </trkpt>
      <trkpt lat="45.2937" lon="4.25027">
        <ele>721.26923076923</ele>
        <time>2015-10-03T08:36:53.770Z</time>
      </trkpt>
      <trkpt lat="45.29372" lon="4.25031">
        <ele>721.26923076923</ele>
        <time>2015-10-03T08:36:54.767Z</time>
      </trkpt>
      <trkpt lat="45.29373" lon="4.25037">
        <ele>721.23076923077</ele>
        <time>2015-10-03T08:36:55.782Z</time>
      </trkpt>
      <trkpt lat="45.29373" lon="4.25043">
        <ele>721.23076923077</ele>
        <time>2015-10-03T08:36:56.830Z</time>
      </trkpt>
      <trkpt lat="45.29374" lon="4.25047">
        <ele>721.23076923077</ele>
        <time>2015-10-03T08:36:57.809Z</time>
      </trkpt>
      <trkpt lat="45.29375" lon="4.25051">
        <ele>721.26923076923</ele>
        <time>2015-10-03T08:36:58.765Z</time>
      </trkpt>
      <trkpt lat="45.29375" lon="4.2506">
        <ele>721.19230769231</ele>
        <time>2015-10-03T08:37:00.783Z</time>
      </trkpt>
      <trkpt lat="45.29374" lon="4.25064">
        <ele>721.26923076923</ele>
        <time>2015-10-03T08:37:01.807Z</time>
      </trkpt>
      <trkpt lat="45.29373" lon="4.25067">
        <ele>721.26923076923</ele>
        <time>2015-10-03T08:37:02.867Z</time>
      </trkpt>
      <trkpt lat="45.29371" lon="4.25071">
        <ele>721.38461538462</ele>
        <time>2015-10-03T08:37:04.811Z</time>
      </trkpt>
      <trkpt lat="45.29372" lon="4.25072">
        <ele>721.38461538462</ele>
        <time>2015-10-03T08:37:05.788Z</time>
      </trkpt>
      <trkpt lat="45.29372" lon="4.25075">
        <ele>721.46153846154</ele>
        <time>2015-10-03T08:37:06.815Z</time>
      </trkpt>
      <trkpt lat="45.29373" lon="4.25077">
        <ele>721.53846153846</ele>
        <time>2015-10-03T08:37:07.834Z</time>
      </trkpt>
      <trkpt lat="45.29373" lon="4.25079">
        <ele>721.65384615385</ele>
        <time>2015-10-03T08:37:08.844Z</time>
      </trkpt>
      <trkpt lat="45.29374" lon="4.25082">
        <ele>721.69230769231</ele>
        <time>2015-10-03T08:37:09.845Z</time>
      </trkpt>
      <trkpt lat="45.29374" lon="4.25084">
        <ele>721.76923076923</ele>
        <time>2015-10-03T08:37:10.830Z</time>
      </trkpt>
      <trkpt lat="45.29375" lon="4.25091">
        <ele>722.07692307692</ele>
        <time>2015-10-03T08:37:13.795Z</time>
      </trkpt>
      <trkpt lat="45.29375" lon="4.25092">
        <ele>722.32</ele>
        <time>2015-10-03T08:37:14.789Z</time>
      </trkpt>
      <trkpt lat="45.29375" lon="4.25096">
        <ele>722.6</ele>
        <time>2015-10-03T08:37:16.781Z</time>
      </trkpt>
      <trkpt lat="45.29375" lon="4.25097">
        <ele>722.8</ele>
        <time>2015-10-03T08:37:17.785Z</time>
      </trkpt>
      <trkpt lat="45.29374" lon="4.251">
        <ele>722.96</ele>
        <time>2015-10-03T08:37:18.775Z</time>
      </trkpt>
      <trkpt lat="45.29371" lon="4.25108">
        <ele>723.4</ele>
        <time>2015-10-03T08:37:20.802Z</time>
      </trkpt>
      <trkpt lat="45.29367" lon="4.25119">
        <ele>723.96</ele>
        <time>2015-10-03T08:37:23.825Z</time>
      </trkpt>
      <trkpt lat="45.29365" lon="4.25123">
        <ele>724.32</ele>
        <time>2015-10-03T08:37:25.801Z</time>
      </trkpt>
      <trkpt lat="45.29366" lon="4.25123">
        <ele>724.34615384615</ele>
        <time>2015-10-03T08:37:26.779Z</time>
      </trkpt>
      <trkpt lat="45.29366" lon="4.25123">
        <ele>724.5</ele>
        <time>2015-10-03T08:37:27.781Z</time>
      </trkpt>
      <trkpt lat="45.29367" lon="4.25124">
        <ele>724.57692307692</ele>
        <time>2015-10-03T08:37:28.800Z</time>
      </trkpt>
      <trkpt lat="45.29368" lon="4.25128">
        <ele>724.76</ele>
        <time>2015-10-03T08:37:29.824Z</time>
      </trkpt>
      <trkpt lat="45.2937" lon="4.25131">
        <ele>724.92</ele>
        <time>2015-10-03T08:37:30.820Z</time>
      </trkpt>
      <trkpt lat="45.29371" lon="4.25133">
        <ele>724.96</ele>
        <time>2015-10-03T08:37:31.820Z</time>
      </trkpt>
      <trkpt lat="45.29372" lon="4.25134">
        <ele>725</ele>
        <time>2015-10-03T08:37:32.820Z</time>
      </trkpt>
      <trkpt lat="45.29372" lon="4.25133">
        <ele>725.15384615385</ele>
        <time>2015-10-03T08:37:33.799Z</time>
      </trkpt>
      <trkpt lat="45.2937" lon="4.25135">
        <ele>725.38461538462</ele>
        <time>2015-10-03T08:37:35.803Z</time>
      </trkpt>
      <trkpt lat="45.29369" lon="4.25137">
        <ele>725.5</ele>
        <time>2015-10-03T08:37:36.792Z</time>
      </trkpt>
      <trkpt lat="45.29369" lon="4.25139">
        <ele>725.64</ele>
        <time>2015-10-03T08:37:37.807Z</time>
      </trkpt>
      <trkpt lat="45.29369" lon="4.25142">
        <ele>725.68</ele>
        <time>2015-10-03T08:37:38.859Z</time>
      </trkpt>
      <trkpt lat="45.2937" lon="4.25142">
        <ele>725.72</ele>
        <time>2015-10-03T08:37:39.836Z</time>
      </trkpt>
      <trkpt lat="45.2937" lon="4.25143">
        <ele>725.88</ele>
        <time>2015-10-03T08:37:40.788Z</time>
      </trkpt>
      <trkpt lat="45.29369" lon="4.25145">
        <ele>726</ele>
        <time>2015-10-03T08:37:41.820Z</time>
      </trkpt>
      <trkpt lat="45.29367" lon="4.25146">
        <ele>726.04</ele>
        <time>2015-10-03T08:37:42.863Z</time>
      </trkpt>
      <trkpt lat="45.29365" lon="4.2515">
        <ele>726.24</ele>
        <time>2015-10-03T08:37:44.882Z</time>
      </trkpt>
      <trkpt lat="45.29365" lon="4.25152">
        <ele>726.32</ele>
        <time>2015-10-03T08:37:45.854Z</time>
      </trkpt>
      <trkpt lat="45.29364" lon="4.25155">
        <ele>726.30769230769</ele>
        <time>2015-10-03T08:37:46.807Z</time>
      </trkpt>
      <trkpt lat="45.29363" lon="4.25157">
        <ele>726.42307692308</ele>
        <time>2015-10-03T08:37:47.795Z</time>
      </trkpt>
      <trkpt lat="45.29362" lon="4.2516">
        <ele>726.56</ele>
        <time>2015-10-03T08:37:48.845Z</time>
      </trkpt>
      <trkpt lat="45.29361" lon="4.25165">
        <ele>726.84</ele>
        <time>2015-10-03T08:37:50.892Z</time>
      </trkpt>
      <trkpt lat="45.29361" lon="4.25167">
        <ele>726.92</ele>
        <time>2015-10-03T08:37:51.816Z</time>
      </trkpt>
      <trkpt lat="45.29363" lon="4.25169">
        <ele>726.92307692308</ele>
        <time>2015-10-03T08:37:52.781Z</time>
      </trkpt>
      <trkpt lat="45.29364" lon="4.25172">
        <ele>727.12</ele>
        <time>2015-10-03T08:37:53.819Z</time>
      </trkpt>
      <trkpt lat="45.29365" lon="4.25174">
        <ele>727.28</ele>
        <time>2015-10-03T08:37:54.850Z</time>
      </trkpt>
      <trkpt lat="45.29365" lon="4.25177">
        <ele>727.36</ele>
        <time>2015-10-03T08:37:55.830Z</time>
      </trkpt>
      <trkpt lat="45.29366" lon="4.25181">
        <ele>727.6</ele>
        <time>2015-10-03T08:37:57.851Z</time>
      </trkpt>
      <trkpt lat="45.29366" lon="4.25183">
        <ele>727.68</ele>
        <time>2015-10-03T08:37:58.884Z</time>
      </trkpt>
      <trkpt lat="45.29366" lon="4.25185">
        <ele>727.76</ele>
        <time>2015-10-03T08:37:59.875Z</time>
      </trkpt>
      <trkpt lat="45.29365" lon="4.25187">
        <ele>727.84</ele>
        <time>2015-10-03T08:38:00.875Z</time>
      </trkpt>
      <trkpt lat="45.29364" lon="4.25188">
        <ele>727.92</ele>
        <time>2015-10-03T08:38:01.869Z</time>
      </trkpt>
      <trkpt lat="45.29362" lon="4.25192">
        <ele>728.16</ele>
        <time>2015-10-03T08:38:03.881Z</time>
      </trkpt>
      <trkpt lat="45.29362" lon="4.25194">
        <ele>728.28</ele>
        <time>2015-10-03T08:38:04.877Z</time>
      </trkpt>
      <trkpt lat="45.29359" lon="4.25198">
        <ele>728.36</ele>
        <time>2015-10-03T08:38:06.873Z</time>
      </trkpt>
      <trkpt lat="45.29358" lon="4.25202">
        <ele>728.5</ele>
        <time>2015-10-03T08:38:08.855Z</time>
      </trkpt>
      <trkpt lat="45.29355" lon="4.25208">
        <ele>728.84</ele>
        <time>2015-10-03T08:38:11.867Z</time>
      </trkpt>
      <trkpt lat="45.29354" lon="4.25209">
        <ele>728.96</ele>
        <time>2015-10-03T08:38:12.861Z</time>
      </trkpt>
      <trkpt lat="45.29352" lon="4.25211">
        <ele>729</ele>
        <time>2015-10-03T08:38:14.877Z</time>
      </trkpt>
      <trkpt lat="45.29351" lon="4.25212">
        <ele>729.08</ele>
        <time>2015-10-03T08:38:15.884Z</time>
      </trkpt>
      <trkpt lat="45.2935" lon="4.25217">
        <ele>729.45833333333</ele>
        <time>2015-10-03T08:38:17.829Z</time>
      </trkpt>
      <trkpt lat="45.29349" lon="4.25219">
        <ele>729.5</ele>
        <time>2015-10-03T08:38:18.823Z</time>
      </trkpt>
      <trkpt lat="45.29349" lon="4.25223">
        <ele>729.52</ele>
        <time>2015-10-03T08:38:19.834Z</time>
      </trkpt>
      <trkpt lat="45.2935" lon="4.25226">
        <ele>729.66666666667</ele>
        <time>2015-10-03T08:38:20.841Z</time>
      </trkpt>
      <trkpt lat="45.29352" lon="4.2523">
        <ele>729.79166666667</ele>
        <time>2015-10-03T08:38:21.852Z</time>
      </trkpt>
      <trkpt lat="45.29353" lon="4.25234">
        <ele>729.76</ele>
        <time>2015-10-03T08:38:22.851Z</time>
      </trkpt>
      <trkpt lat="45.29354" lon="4.25238">
        <ele>729.92</ele>
        <time>2015-10-03T08:38:23.864Z</time>
      </trkpt>
      <trkpt lat="45.29354" lon="4.25246">
        <ele>730.08</ele>
        <time>2015-10-03T08:38:25.832Z</time>
      </trkpt>
      <trkpt lat="45.29354" lon="4.25249">
        <ele>730.2</ele>
        <time>2015-10-03T08:38:26.840Z</time>
      </trkpt>
      <trkpt lat="45.29353" lon="4.25252">
        <ele>730.24</ele>
        <time>2015-10-03T08:38:27.841Z</time>
      </trkpt>
      <trkpt lat="45.29351" lon="4.25255">
        <ele>730.36</ele>
        <time>2015-10-03T08:38:28.860Z</time>
      </trkpt>
      <trkpt lat="45.2935" lon="4.25258">
        <ele>730.48</ele>
        <time>2015-10-03T08:38:29.855Z</time>
      </trkpt>
      <trkpt lat="45.2935" lon="4.25262">
        <ele>730.56</ele>
        <time>2015-10-03T08:38:30.839Z</time>
      </trkpt>
      <trkpt lat="45.29349" lon="4.25264">
        <ele>730.72</ele>
        <time>2015-10-03T08:38:31.864Z</time>
      </trkpt>
      <trkpt lat="45.29348" lon="4.25267">
        <ele>730.84</ele>
        <time>2015-10-03T08:38:32.853Z</time>
      </trkpt>
      <trkpt lat="45.29347" lon="4.25273">
        <ele>731</ele>
        <time>2015-10-03T08:38:34.831Z</time>
      </trkpt>
      <trkpt lat="45.29346" lon="4.2528">
        <ele>731.2</ele>
        <time>2015-10-03T08:38:36.854Z</time>
      </trkpt>
      <trkpt lat="45.29346" lon="4.25283">
        <ele>731.32</ele>
        <time>2015-10-03T08:38:37.856Z</time>
      </trkpt>
      <trkpt lat="45.29346" lon="4.25285">
        <ele>731.4</ele>
        <time>2015-10-03T08:38:38.873Z</time>
      </trkpt>
      <trkpt lat="45.29346" lon="4.2529">
        <ele>731.53846153846</ele>
        <time>2015-10-03T08:38:40.848Z</time>
      </trkpt>
      <trkpt lat="45.29346" lon="4.25293">
        <ele>731.61538461538</ele>
        <time>2015-10-03T08:38:41.852Z</time>
      </trkpt>
      <trkpt lat="45.29346" lon="4.25296">
        <ele>731.72</ele>
        <time>2015-10-03T08:38:42.850Z</time>
      </trkpt>
      <trkpt lat="45.29346" lon="4.25301">
        <ele>732</ele>
        <time>2015-10-03T08:38:44.857Z</time>
      </trkpt>
      <trkpt lat="45.29345" lon="4.25302">
        <ele>732.08</ele>
        <time>2015-10-03T08:38:45.881Z</time>
      </trkpt>
      <trkpt lat="45.29344" lon="4.25305">
        <ele>732.36</ele>
        <time>2015-10-03T08:38:47.856Z</time>
      </trkpt>
      <trkpt lat="45.29343" lon="4.25307">
        <ele>732.44</ele>
        <time>2015-10-03T08:38:48.882Z</time>
      </trkpt>
      <trkpt lat="45.29342" lon="4.25309">
        <ele>732.56</ele>
        <time>2015-10-03T08:38:49.878Z</time>
      </trkpt>
      <trkpt lat="45.2934" lon="4.2531">
        <ele>732.72</ele>
        <time>2015-10-03T08:38:50.861Z</time>
      </trkpt>
      <trkpt lat="45.29339" lon="4.25312">
        <ele>732.84</ele>
        <time>2015-10-03T08:38:51.872Z</time>
      </trkpt>
      <trkpt lat="45.29338" lon="4.25314">
        <ele>733</ele>
        <time>2015-10-03T08:38:52.873Z</time>
      </trkpt>
      <trkpt lat="45.29338" lon="4.25316">
        <ele>733.12</ele>
        <time>2015-10-03T08:38:53.869Z</time>
      </trkpt>
      <trkpt lat="45.29337" lon="4.25318">
        <ele>733.24</ele>
        <time>2015-10-03T08:38:54.866Z</time>
      </trkpt>
      <trkpt lat="45.29336" lon="4.2532">
        <ele>733.4</ele>
        <time>2015-10-03T08:38:55.861Z</time>
      </trkpt>
      <trkpt lat="45.29334" lon="4.25322">
        <ele>733.5</ele>
        <time>2015-10-03T08:38:56.848Z</time>
      </trkpt>
      <trkpt lat="45.29333" lon="4.25322">
        <ele>733.68</ele>
        <time>2015-10-03T08:38:57.866Z</time>
      </trkpt>
      <trkpt lat="45.29328" lon="4.25325">
        <ele>734.15384615385</ele>
        <time>2015-10-03T08:39:00.855Z</time>
      </trkpt>
      <trkpt lat="45.29326" lon="4.25328">
        <ele>734.56</ele>
        <time>2015-10-03T08:39:02.866Z</time>
      </trkpt>
      <trkpt lat="45.29326" lon="4.25331">
        <ele>734.61538461538</ele>
        <time>2015-10-03T08:39:03.867Z</time>
      </trkpt>
      <trkpt lat="45.29325" lon="4.25335">
        <ele>734.88</ele>
        <time>2015-10-03T08:39:04.862Z</time>
      </trkpt>
      <trkpt lat="45.29323" lon="4.25344">
        <ele>735.28</ele>
        <time>2015-10-03T08:39:07.864Z</time>
      </trkpt>
      <trkpt lat="45.29323" lon="4.25346">
        <ele>735.48</ele>
        <time>2015-10-03T08:39:08.879Z</time>
      </trkpt>
      <trkpt lat="45.29322" lon="4.25348">
        <ele>735.64</ele>
        <time>2015-10-03T08:39:09.883Z</time>
      </trkpt>
      <trkpt lat="45.2932" lon="4.25352">
        <ele>735.80769230769</ele>
        <time>2015-10-03T08:39:11.860Z</time>
      </trkpt>
      <trkpt lat="45.2932" lon="4.25354">
        <ele>736.04</ele>
        <time>2015-10-03T08:39:12.861Z</time>
      </trkpt>
      <trkpt lat="45.29318" lon="4.25361">
        <ele>736.44</ele>
        <time>2015-10-03T08:39:15.864Z</time>
      </trkpt>
      <trkpt lat="45.29316" lon="4.25366">
        <ele>736.61538461538</ele>
        <time>2015-10-03T08:39:17.870Z</time>
      </trkpt>
      <trkpt lat="45.29314" lon="4.25367">
        <ele>736.84</ele>
        <time>2015-10-03T08:39:18.870Z</time>
      </trkpt>
      <trkpt lat="45.29311" lon="4.25372">
        <ele>737.12</ele>
        <time>2015-10-03T08:39:21.881Z</time>
      </trkpt>
      <trkpt lat="45.2931" lon="4.25373">
        <ele>737.23076923077</ele>
        <time>2015-10-03T08:39:22.860Z</time>
      </trkpt>
      <trkpt lat="45.29309" lon="4.25375">
        <ele>737.34615384615</ele>
        <time>2015-10-03T08:39:23.883Z</time>
      </trkpt>
      <trkpt lat="45.29305" lon="4.2538">
        <ele>737.68</ele>
        <time>2015-10-03T08:39:26.865Z</time>
      </trkpt>
      <trkpt lat="45.29304" lon="4.25381">
        <ele>737.76</ele>
        <time>2015-10-03T08:39:27.870Z</time>
      </trkpt>
      <trkpt lat="45.29303" lon="4.25382">
        <ele>737.84615384615</ele>
        <time>2015-10-03T08:39:28.850Z</time>
      </trkpt>
      <trkpt lat="45.29301" lon="4.25384">
        <ele>737.96153846154</ele>
        <time>2015-10-03T08:39:29.836Z</time>
      </trkpt>
      <trkpt lat="45.293" lon="4.25386">
        <ele>738</ele>
        <time>2015-10-03T08:39:30.820Z</time>
      </trkpt>
      <trkpt lat="45.29298" lon="4.25393">
        <ele>738.36</ele>
        <time>2015-10-03T08:39:32.897Z</time>
      </trkpt>
      <trkpt lat="45.29297" lon="4.25398">
        <ele>738.5</ele>
        <time>2015-10-03T08:39:34.880Z</time>
      </trkpt>
      <trkpt lat="45.29294" lon="4.25402">
        <ele>738.88</ele>
        <time>2015-10-03T08:39:36.879Z</time>
      </trkpt>
      <trkpt lat="45.29291" lon="4.25403">
        <ele>739.03846153846</ele>
        <time>2015-10-03T08:39:38.860Z</time>
      </trkpt>
      <trkpt lat="45.2929" lon="4.25405">
        <ele>739.19230769231</ele>
        <time>2015-10-03T08:39:39.868Z</time>
      </trkpt>
      <trkpt lat="45.29289" lon="4.25407">
        <ele>739.36</ele>
        <time>2015-10-03T08:39:40.893Z</time>
      </trkpt>
      <trkpt lat="45.29287" lon="4.25408">
        <ele>739.44</ele>
        <time>2015-10-03T08:39:41.873Z</time>
      </trkpt>
      <trkpt lat="45.29286" lon="4.25409">
        <ele>739.53846153846</ele>
        <time>2015-10-03T08:39:42.869Z</time>
      </trkpt>
      <trkpt lat="45.29285" lon="4.25409">
        <ele>739.76</ele>
        <time>2015-10-03T08:39:43.882Z</time>
      </trkpt>
      <trkpt lat="45.29279" lon="4.25412">
        <ele>740.4</ele>
        <time>2015-10-03T08:39:47.869Z</time>
      </trkpt>
      <trkpt lat="45.29278" lon="4.25414">
        <ele>740.56</ele>
        <time>2015-10-03T08:39:48.885Z</time>
      </trkpt>
      <trkpt lat="45.29275" lon="4.25418">
        <ele>740.80769230769</ele>
        <time>2015-10-03T08:39:50.833Z</time>
      </trkpt>
      <trkpt lat="45.29274" lon="4.2542">
        <ele>740.92307692308</ele>
        <time>2015-10-03T08:39:51.845Z</time>
      </trkpt>
      <trkpt lat="45.2927" lon="4.25424">
        <ele>741.48</ele>
        <time>2015-10-03T08:39:54.851Z</time>
      </trkpt>
      <trkpt lat="45.29267" lon="4.25426">
        <ele>741.8</ele>
        <time>2015-10-03T08:39:56.860Z</time>
      </trkpt>
      <trkpt lat="45.29265" lon="4.25427">
        <ele>741.84615384615</ele>
        <time>2015-10-03T08:39:57.844Z</time>
      </trkpt>
      <trkpt lat="45.29262" lon="4.2543">
        <ele>742.24</ele>
        <time>2015-10-03T08:39:59.906Z</time>
      </trkpt>
      <trkpt lat="45.2926" lon="4.25431">
        <ele>742.4</ele>
        <time>2015-10-03T08:40:00.861Z</time>
      </trkpt>
      <trkpt lat="45.29258" lon="4.25435">
        <ele>742.65384615385</ele>
        <time>2015-10-03T08:40:02.879Z</time>
      </trkpt>
      <trkpt lat="45.29255" lon="4.25437">
        <ele>742.88461538462</ele>
        <time>2015-10-03T08:40:04.840Z</time>
      </trkpt>
      <trkpt lat="45.29254" lon="4.25437">
        <ele>743.03846153846</ele>
        <time>2015-10-03T08:40:05.821Z</time>
      </trkpt>
      <trkpt lat="45.29248" lon="4.25437">
        <ele>743.61538461538</ele>
        <time>2015-10-03T08:40:08.862Z</time>
      </trkpt>
      <trkpt lat="45.29246" lon="4.25437">
        <ele>743.76</ele>
        <time>2015-10-03T08:40:09.872Z</time>
      </trkpt>
      <trkpt lat="45.29244" lon="4.25438">
        <ele>743.88</ele>
        <time>2015-10-03T08:40:10.884Z</time>
      </trkpt>
      <trkpt lat="45.29241" lon="4.2544">
        <ele>744.15384615385</ele>
        <time>2015-10-03T08:40:12.854Z</time>
      </trkpt>
      <trkpt lat="45.29237" lon="4.25442">
        <ele>744.44</ele>
        <time>2015-10-03T08:40:14.850Z</time>
      </trkpt>
      <trkpt lat="45.29235" lon="4.25443">
        <ele>744.64</ele>
        <time>2015-10-03T08:40:15.830Z</time>
      </trkpt>
      <trkpt lat="45.29234" lon="4.25445">
        <ele>744.84</ele>
        <time>2015-10-03T08:40:16.832Z</time>
      </trkpt>
      <trkpt lat="45.29233" lon="4.25446">
        <ele>745.20833333333</ele>
        <time>2015-10-03T08:40:17.856Z</time>
      </trkpt>
      <trkpt lat="45.29232" lon="4.25448">
        <ele>745.45833333333</ele>
        <time>2015-10-03T08:40:18.868Z</time>
      </trkpt>
      <trkpt lat="45.29231" lon="4.2545">
        <ele>745.56</ele>
        <time>2015-10-03T08:40:19.843Z</time>
      </trkpt>
      <trkpt lat="45.2923" lon="4.25451">
        <ele>745.68</ele>
        <time>2015-10-03T08:40:20.855Z</time>
      </trkpt>
      <trkpt lat="45.29228" lon="4.25452">
        <ele>745.88</ele>
        <time>2015-10-03T08:40:21.849Z</time>
      </trkpt>
      <trkpt lat="45.29223" lon="4.25453">
        <ele>746.36</ele>
        <time>2015-10-03T08:40:23.802Z</time>
      </trkpt>
      <trkpt lat="45.29221" lon="4.25454">
        <ele>746.52</ele>
        <time>2015-10-03T08:40:24.804Z</time>
      </trkpt>
      <trkpt lat="45.29219" lon="4.25454">
        <ele>746.64</ele>
        <time>2015-10-03T08:40:25.814Z</time>
      </trkpt>
      <trkpt lat="45.29217" lon="4.25453">
        <ele>746.84</ele>
        <time>2015-10-03T08:40:26.818Z</time>
      </trkpt>
      <trkpt lat="45.29215" lon="4.25454">
        <ele>747</ele>
        <time>2015-10-03T08:40:27.822Z</time>
      </trkpt>
      <trkpt lat="45.29213" lon="4.25455">
        <ele>747.12</ele>
        <time>2015-10-03T08:40:28.828Z</time>
      </trkpt>
      <trkpt lat="45.29212" lon="4.25457">
        <ele>747.5</ele>
        <time>2015-10-03T08:40:29.855Z</time>
      </trkpt>
      <trkpt lat="45.2921" lon="4.25459">
        <ele>747.70833333333</ele>
        <time>2015-10-03T08:40:30.844Z</time>
      </trkpt>
      <trkpt lat="45.29209" lon="4.25461">
        <ele>747.76</ele>
        <time>2015-10-03T08:40:31.825Z</time>
      </trkpt>
      <trkpt lat="45.29206" lon="4.25466">
        <ele>748</ele>
        <time>2015-10-03T08:40:33.831Z</time>
      </trkpt>
      <trkpt lat="45.29204" lon="4.25468">
        <ele>748.2</ele>
        <time>2015-10-03T08:40:34.854Z</time>
      </trkpt>
      <trkpt lat="45.292" lon="4.25472">
        <ele>748.68</ele>
        <time>2015-10-03T08:40:37.836Z</time>
      </trkpt>
      <trkpt lat="45.29199" lon="4.25474">
        <ele>748.8</ele>
        <time>2015-10-03T08:40:38.827Z</time>
      </trkpt>
      <trkpt lat="45.29194" lon="4.2548">
        <ele>749.07692307692</ele>
        <time>2015-10-03T08:40:41.829Z</time>
      </trkpt>
      <trkpt lat="45.29193" lon="4.25481">
        <ele>749.23076923077</ele>
        <time>2015-10-03T08:40:42.849Z</time>
      </trkpt>
      <trkpt lat="45.2919" lon="4.25483">
        <ele>749.6</ele>
        <time>2015-10-03T08:40:44.874Z</time>
      </trkpt>
      <trkpt lat="45.29187" lon="4.25484">
        <ele>750</ele>
        <time>2015-10-03T08:40:46.872Z</time>
      </trkpt>
      <trkpt lat="45.29186" lon="4.25484">
        <ele>750.16</ele>
        <time>2015-10-03T08:40:47.869Z</time>
      </trkpt>
      <trkpt lat="45.29184" lon="4.25485">
        <ele>750.56</ele>
        <time>2015-10-03T08:40:49.851Z</time>
      </trkpt>
      <trkpt lat="45.29183" lon="4.25486">
        <ele>750.76</ele>
        <time>2015-10-03T08:40:50.872Z</time>
      </trkpt>
      <trkpt lat="45.29182" lon="4.25486">
        <ele>750.88</ele>
        <time>2015-10-03T08:40:51.855Z</time>
      </trkpt>
      <trkpt lat="45.29179" lon="4.25488">
        <ele>751.24</ele>
        <time>2015-10-03T08:40:53.858Z</time>
      </trkpt>
      <trkpt lat="45.29178" lon="4.25488">
        <ele>751.30769230769</ele>
        <time>2015-10-03T08:40:54.815Z</time>
      </trkpt>
      <trkpt lat="45.29177" lon="4.25488">
        <ele>751.5</ele>
        <time>2015-10-03T08:40:55.765Z</time>
      </trkpt>
      <trkpt lat="45.29177" lon="4.25487">
        <ele>751.65384615385</ele>
        <time>2015-10-03T08:40:56.782Z</time>
      </trkpt>
      <trkpt lat="45.29176" lon="4.25487">
        <ele>752.07692307692</ele>
        <time>2015-10-03T08:40:58.774Z</time>
      </trkpt>
      <trkpt lat="45.29175" lon="4.25488">
        <ele>752.46153846154</ele>
        <time>2015-10-03T08:41:00.781Z</time>
      </trkpt>
      <trkpt lat="45.29173" lon="4.25489">
        <ele>752.92307692308</ele>
        <time>2015-10-03T08:41:02.777Z</time>
      </trkpt>
      <trkpt lat="45.29169" lon="4.2549">
        <ele>753.69230769231</ele>
        <time>2015-10-03T08:41:05.777Z</time>
      </trkpt>
      <trkpt lat="45.29167" lon="4.2549">
        <ele>753.92307692308</ele>
        <time>2015-10-03T08:41:06.774Z</time>
      </trkpt>
      <trkpt lat="45.29164" lon="4.25491">
        <ele>754.34615384615</ele>
        <time>2015-10-03T08:41:08.770Z</time>
      </trkpt>
      <trkpt lat="45.29162" lon="4.25491">
        <ele>754.76923076923</ele>
        <time>2015-10-03T08:41:10.778Z</time>
      </trkpt>
      <trkpt lat="45.29162" lon="4.25492">
        <ele>755</ele>
        <time>2015-10-03T08:41:11.779Z</time>
      </trkpt>
      <trkpt lat="45.29161" lon="4.25492">
        <ele>755.38461538462</ele>
        <time>2015-10-03T08:41:13.789Z</time>
      </trkpt>
      <trkpt lat="45.29161" lon="4.25493">
        <ele>755.57692307692</ele>
        <time>2015-10-03T08:41:14.773Z</time>
      </trkpt>
      <trkpt lat="45.2916" lon="4.25493">
        <ele>755.76923076923</ele>
        <time>2015-10-03T08:41:15.776Z</time>
      </trkpt>
      <trkpt lat="45.29156" lon="4.25494">
        <ele>756.19230769231</ele>
        <time>2015-10-03T08:41:17.782Z</time>
      </trkpt>
      <trkpt lat="45.29154" lon="4.25495">
        <ele>756.42307692308</ele>
        <time>2015-10-03T08:41:18.797Z</time>
      </trkpt>
      <trkpt lat="45.29151" lon="4.25497">
        <ele>756.8</ele>
        <time>2015-10-03T08:41:19.825Z</time>
      </trkpt>
      <trkpt lat="45.29149" lon="4.25498">
        <ele>756.96</ele>
        <time>2015-10-03T08:41:20.833Z</time>
      </trkpt>
      <trkpt lat="45.29143" lon="4.25501">
        <ele>757.48</ele>
        <time>2015-10-03T08:41:23.872Z</time>
      </trkpt>
      <trkpt lat="45.2914" lon="4.25504">
        <ele>757.92</ele>
        <time>2015-10-03T08:41:25.832Z</time>
      </trkpt>
      <trkpt lat="45.29137" lon="4.25506">
        <ele>758.32</ele>
        <time>2015-10-03T08:41:27.838Z</time>
      </trkpt>
      <trkpt lat="45.29135" lon="4.25506">
        <ele>758.56</ele>
        <time>2015-10-03T08:41:28.829Z</time>
      </trkpt>
      <trkpt lat="45.29132" lon="4.25507">
        <ele>759</ele>
        <time>2015-10-03T08:41:30.850Z</time>
      </trkpt>
      <trkpt lat="45.2913" lon="4.25508">
        <ele>759.2</ele>
        <time>2015-10-03T08:41:31.837Z</time>
      </trkpt>
      <trkpt lat="45.29129" lon="4.25509">
        <ele>759.4</ele>
        <time>2015-10-03T08:41:32.824Z</time>
      </trkpt>
      <trkpt lat="45.29128" lon="4.2551">
        <ele>759.6</ele>
        <time>2015-10-03T08:41:33.833Z</time>
      </trkpt>
      <trkpt lat="45.29125" lon="4.25511">
        <ele>759.92</ele>
        <time>2015-10-03T08:41:35.831Z</time>
      </trkpt>
      <trkpt lat="45.29125" lon="4.25512">
        <ele>760.04</ele>
        <time>2015-10-03T08:41:36.832Z</time>
      </trkpt>
      <trkpt lat="45.29124" lon="4.25513">
        <ele>760.2</ele>
        <time>2015-10-03T08:41:37.852Z</time>
      </trkpt>
      <trkpt lat="45.29121" lon="4.25518">
        <ele>760.68</ele>
        <time>2015-10-03T08:41:40.792Z</time>
      </trkpt>
      <trkpt lat="45.29122" lon="4.25518">
        <ele>760.88</ele>
        <time>2015-10-03T08:41:41.788Z</time>
      </trkpt>
      <trkpt lat="45.29122" lon="4.25519">
        <ele>760.96153846154</ele>
        <time>2015-10-03T08:41:42.772Z</time>
      </trkpt>
      <trkpt lat="45.29123" lon="4.2552">
        <ele>761.26923076923</ele>
        <time>2015-10-03T08:41:44.769Z</time>
      </trkpt>
      <trkpt lat="45.29122" lon="4.25521">
        <ele>761.42307692308</ele>
        <time>2015-10-03T08:41:45.781Z</time>
      </trkpt>
      <trkpt lat="45.2912" lon="4.25522">
        <ele>761.61538461538</ele>
        <time>2015-10-03T08:41:46.806Z</time>
      </trkpt>
      <trkpt lat="45.29119" lon="4.25524">
        <ele>761.80769230769</ele>
        <time>2015-10-03T08:41:47.848Z</time>
      </trkpt>
      <trkpt lat="45.29118" lon="4.25526">
        <ele>761.96153846154</ele>
        <time>2015-10-03T08:41:48.839Z</time>
      </trkpt>
      <trkpt lat="45.29117" lon="4.25528">
        <ele>762.07692307692</ele>
        <time>2015-10-03T08:41:49.839Z</time>
      </trkpt>
      <trkpt lat="45.29116" lon="4.25529">
        <ele>762.23076923077</ele>
        <time>2015-10-03T08:41:50.821Z</time>
      </trkpt>
      <trkpt lat="45.29116" lon="4.25529">
        <ele>762.30769230769</ele>
        <time>2015-10-03T08:41:51.762Z</time>
      </trkpt>
      <trkpt lat="45.29116" lon="4.2553">
        <ele>762.42307692308</ele>
        <time>2015-10-03T08:41:52.781Z</time>
      </trkpt>
      <trkpt lat="45.29116" lon="4.25531">
        <ele>762.53846153846</ele>
        <time>2015-10-03T08:41:53.779Z</time>
      </trkpt>
      <trkpt lat="45.29116" lon="4.25531">
        <ele>762.65384615385</ele>
        <time>2015-10-03T08:41:54.765Z</time>
      </trkpt>
      <trkpt lat="45.29115" lon="4.25532">
        <ele>762.73076923077</ele>
        <time>2015-10-03T08:41:55.769Z</time>
      </trkpt>
      <trkpt lat="45.29111" lon="4.25534">
        <ele>762.84615384615</ele>
        <time>2015-10-03T08:41:57.775Z</time>
      </trkpt>
      <trkpt lat="45.29107" lon="4.25535">
        <ele>763</ele>
        <time>2015-10-03T08:41:59.828Z</time>
      </trkpt>
      <trkpt lat="45.29106" lon="4.25536">
        <ele>763.16</ele>
        <time>2015-10-03T08:42:00.840Z</time>
      </trkpt>
      <trkpt lat="45.29104" lon="4.25537">
        <ele>763.24</ele>
        <time>2015-10-03T08:42:01.839Z</time>
      </trkpt>
      <trkpt lat="45.29102" lon="4.25539">
        <ele>763.26923076923</ele>
        <time>2015-10-03T08:42:02.821Z</time>
      </trkpt>
      <trkpt lat="45.29099" lon="4.25543">
        <ele>763.6</ele>
        <time>2015-10-03T08:42:04.851Z</time>
      </trkpt>
      <trkpt lat="45.29098" lon="4.25545">
        <ele>763.68</ele>
        <time>2015-10-03T08:42:05.840Z</time>
      </trkpt>
      <trkpt lat="45.29096" lon="4.25547">
        <ele>763.76</ele>
        <time>2015-10-03T08:42:06.830Z</time>
      </trkpt>
      <trkpt lat="45.29095" lon="4.25549">
        <ele>763.8</ele>
        <time>2015-10-03T08:42:07.848Z</time>
      </trkpt>
      <trkpt lat="45.29091" lon="4.25555">
        <ele>764.12</ele>
        <time>2015-10-03T08:42:10.893Z</time>
      </trkpt>
      <trkpt lat="45.2909" lon="4.25559">
        <ele>764.24</ele>
        <time>2015-10-03T08:42:11.870Z</time>
      </trkpt>
      <trkpt lat="45.2909" lon="4.25563">
        <ele>764.36</ele>
        <time>2015-10-03T08:42:12.860Z</time>
      </trkpt>
      <trkpt lat="45.29089" lon="4.25569">
        <ele>764.54166666667</ele>
        <time>2015-10-03T08:42:14.879Z</time>
      </trkpt>
      <trkpt lat="45.29088" lon="4.25571">
        <ele>764.58333333333</ele>
        <time>2015-10-03T08:42:15.878Z</time>
      </trkpt>
      <trkpt lat="45.29088" lon="4.25574">
        <ele>764.70833333333</ele>
        <time>2015-10-03T08:42:16.853Z</time>
      </trkpt>
      <trkpt lat="45.29087" lon="4.25582">
        <ele>764.875</ele>
        <time>2015-10-03T08:42:18.806Z</time>
      </trkpt>
      <trkpt lat="45.29087" lon="4.25585">
        <ele>764.875</ele>
        <time>2015-10-03T08:42:19.846Z</time>
      </trkpt>
      <trkpt lat="45.29087" lon="4.25587">
        <ele>764.91666666667</ele>
        <time>2015-10-03T08:42:20.869Z</time>
      </trkpt>
      <trkpt lat="45.29086" lon="4.25589">
        <ele>765</ele>
        <time>2015-10-03T08:42:21.828Z</time>
      </trkpt>
      <trkpt lat="45.29086" lon="4.25592">
        <ele>765.125</ele>
        <time>2015-10-03T08:42:22.800Z</time>
      </trkpt>
      <trkpt lat="45.29085" lon="4.25595">
        <ele>765.20833333333</ele>
        <time>2015-10-03T08:42:23.838Z</time>
      </trkpt>
      <trkpt lat="45.29084" lon="4.25602">
        <ele>765.36</ele>
        <time>2015-10-03T08:42:25.824Z</time>
      </trkpt>
      <trkpt lat="45.29084" lon="4.25605">
        <ele>765.36</ele>
        <time>2015-10-03T08:42:26.808Z</time>
      </trkpt>
      <trkpt lat="45.29084" lon="4.25609">
        <ele>765.4</ele>
        <time>2015-10-03T08:42:27.789Z</time>
      </trkpt>
      <trkpt lat="45.29084" lon="4.25612">
        <ele>765.52</ele>
        <time>2015-10-03T08:42:28.801Z</time>
      </trkpt>
      <trkpt lat="45.29084" lon="4.25615">
        <ele>765.52</ele>
        <time>2015-10-03T08:42:29.811Z</time>
      </trkpt>
      <trkpt lat="45.29083" lon="4.25617">
        <ele>765.56</ele>
        <time>2015-10-03T08:42:30.819Z</time>
      </trkpt>
      <trkpt lat="45.29082" lon="4.25622">
        <ele>765.70833333333</ele>
        <time>2015-10-03T08:42:32.868Z</time>
      </trkpt>
      <trkpt lat="45.29082" lon="4.25625">
        <ele>765.79166666667</ele>
        <time>2015-10-03T08:42:33.853Z</time>
      </trkpt>
      <trkpt lat="45.29081" lon="4.2563">
        <ele>765.84</ele>
        <time>2015-10-03T08:42:35.881Z</time>
      </trkpt>
      <trkpt lat="45.2908" lon="4.25636">
        <ele>765.91666666667</ele>
        <time>2015-10-03T08:42:37.869Z</time>
      </trkpt>
      <trkpt lat="45.2908" lon="4.25639">
        <ele>765.92</ele>
        <time>2015-10-03T08:42:38.871Z</time>
      </trkpt>
      <trkpt lat="45.2908" lon="4.25642">
        <ele>765.96</ele>
        <time>2015-10-03T08:42:39.883Z</time>
      </trkpt>
      <trkpt lat="45.29081" lon="4.25656">
        <ele>766.24</ele>
        <time>2015-10-03T08:42:43.809Z</time>
      </trkpt>
      <trkpt lat="45.29082" lon="4.25665">
        <ele>766.48</ele>
        <time>2015-10-03T08:42:46.861Z</time>
      </trkpt>
      <trkpt lat="45.29083" lon="4.2567">
        <ele>766.64</ele>
        <time>2015-10-03T08:42:48.874Z</time>
      </trkpt>
      <trkpt lat="45.29083" lon="4.25673">
        <ele>766.64</ele>
        <time>2015-10-03T08:42:49.876Z</time>
      </trkpt>
      <trkpt lat="45.29084" lon="4.25678">
        <ele>766.8</ele>
        <time>2015-10-03T08:42:51.863Z</time>
      </trkpt>
      <trkpt lat="45.29084" lon="4.2568">
        <ele>766.92</ele>
        <time>2015-10-03T08:42:52.861Z</time>
      </trkpt>
      <trkpt lat="45.29084" lon="4.25682">
        <ele>766.88</ele>
        <time>2015-10-03T08:42:53.856Z</time>
      </trkpt>
      <trkpt lat="45.29087" lon="4.25689">
        <ele>766.84</ele>
        <time>2015-10-03T08:42:55.862Z</time>
      </trkpt>
      <trkpt lat="45.29089" lon="4.25692">
        <ele>766.76</ele>
        <time>2015-10-03T08:42:56.849Z</time>
      </trkpt>
      <trkpt lat="45.29091" lon="4.25695">
        <ele>766.65384615385</ele>
        <time>2015-10-03T08:42:57.852Z</time>
      </trkpt>
      <trkpt lat="45.29097" lon="4.25703">
        <ele>766.48</ele>
        <time>2015-10-03T08:42:59.878Z</time>
      </trkpt>
      <trkpt lat="45.29102" lon="4.25712">
        <ele>766.26923076923</ele>
        <time>2015-10-03T08:43:01.879Z</time>
      </trkpt>
      <trkpt lat="45.2911" lon="4.25725">
        <ele>765.80769230769</ele>
        <time>2015-10-03T08:43:04.845Z</time>
      </trkpt>
      <trkpt lat="45.29117" lon="4.25734">
        <ele>765.42307692308</ele>
        <time>2015-10-03T08:43:06.853Z</time>
      </trkpt>
      <trkpt lat="45.29121" lon="4.25737">
        <ele>765.16</ele>
        <time>2015-10-03T08:43:07.866Z</time>
      </trkpt>
      <trkpt lat="45.29125" lon="4.25741">
        <ele>764.92</ele>
        <time>2015-10-03T08:43:08.870Z</time>
      </trkpt>
      <trkpt lat="45.29131" lon="4.25747">
        <ele>764.68</ele>
        <time>2015-10-03T08:43:09.878Z</time>
      </trkpt>
      <trkpt lat="45.29134" lon="4.2575">
        <ele>764.48</ele>
        <time>2015-10-03T08:43:10.854Z</time>
      </trkpt>
      <trkpt lat="45.29137" lon="4.25753">
        <ele>764.38461538462</ele>
        <time>2015-10-03T08:43:11.856Z</time>
      </trkpt>
      <trkpt lat="45.2914" lon="4.25755">
        <ele>764.19230769231</ele>
        <time>2015-10-03T08:43:12.850Z</time>
      </trkpt>
      <trkpt lat="45.29143" lon="4.25756">
        <ele>763.96153846154</ele>
        <time>2015-10-03T08:43:13.850Z</time>
      </trkpt>
      <trkpt lat="45.29145" lon="4.25757">
        <ele>763.64</ele>
        <time>2015-10-03T08:43:14.884Z</time>
      </trkpt>
      <trkpt lat="45.29148" lon="4.25759">
        <ele>763.4</ele>
        <time>2015-10-03T08:43:15.894Z</time>
      </trkpt>
      <trkpt lat="45.29151" lon="4.25761">
        <ele>763.12</ele>
        <time>2015-10-03T08:43:16.897Z</time>
      </trkpt>
      <trkpt lat="45.29158" lon="4.25766">
        <ele>762.6</ele>
        <time>2015-10-03T08:43:18.875Z</time>
      </trkpt>
      <trkpt lat="45.2916" lon="4.25768">
        <ele>762.46153846154</ele>
        <time>2015-10-03T08:43:19.868Z</time>
      </trkpt>
      <trkpt lat="45.29163" lon="4.25771">
        <ele>762.19230769231</ele>
        <time>2015-10-03T08:43:20.824Z</time>
      </trkpt>
      <trkpt lat="45.29168" lon="4.25777">
        <ele>761.53846153846</ele>
        <time>2015-10-03T08:43:22.847Z</time>
      </trkpt>
      <trkpt lat="45.2917" lon="4.25778">
        <ele>761.19230769231</ele>
        <time>2015-10-03T08:43:23.825Z</time>
      </trkpt>
      <trkpt lat="45.29171" lon="4.25781">
        <ele>760.84615384615</ele>
        <time>2015-10-03T08:43:24.804Z</time>
      </trkpt>
      <trkpt lat="45.29174" lon="4.25785">
        <ele>760.46153846154</ele>
        <time>2015-10-03T08:43:25.839Z</time>
      </trkpt>
      <trkpt lat="45.29178" lon="4.25792">
        <ele>759.56</ele>
        <time>2015-10-03T08:43:27.872Z</time>
      </trkpt>
      <trkpt lat="45.29179" lon="4.25796">
        <ele>759.12</ele>
        <time>2015-10-03T08:43:28.863Z</time>
      </trkpt>
      <trkpt lat="45.2918" lon="4.258">
        <ele>758.72</ele>
        <time>2015-10-03T08:43:29.852Z</time>
      </trkpt>
      <trkpt lat="45.29181" lon="4.25803">
        <ele>758.2</ele>
        <time>2015-10-03T08:43:30.879Z</time>
      </trkpt>
      <trkpt lat="45.29182" lon="4.25805">
        <ele>757.68</ele>
        <time>2015-10-03T08:43:31.882Z</time>
      </trkpt>
      <trkpt lat="45.29183" lon="4.25807">
        <ele>757.2</ele>
        <time>2015-10-03T08:43:32.878Z</time>
      </trkpt>
      <trkpt lat="45.29184" lon="4.2581">
        <ele>756.88461538462</ele>
        <time>2015-10-03T08:43:33.864Z</time>
      </trkpt>
      <trkpt lat="45.29186" lon="4.25812">
        <ele>756.30769230769</ele>
        <time>2015-10-03T08:43:34.821Z</time>
      </trkpt>
      <trkpt lat="45.29189" lon="4.25817">
        <ele>755.19230769231</ele>
        <time>2015-10-03T08:43:36.823Z</time>
      </trkpt>
      <trkpt lat="45.2919" lon="4.25819">
        <ele>754.65384615385</ele>
        <time>2015-10-03T08:43:37.778Z</time>
      </trkpt>
      <trkpt lat="45.2919" lon="4.2582">
        <ele>754.03846153846</ele>
        <time>2015-10-03T08:43:38.783Z</time>
      </trkpt>
      <trkpt lat="45.29191" lon="4.25823">
        <ele>753.42307692308</ele>
        <time>2015-10-03T08:43:39.773Z</time>
      </trkpt>
      <trkpt lat="45.29191" lon="4.25827">
        <ele>752.76923076923</ele>
        <time>2015-10-03T08:43:40.813Z</time>
      </trkpt>
      <trkpt lat="45.29191" lon="4.2583">
        <ele>752.11538461538</ele>
        <time>2015-10-03T08:43:41.856Z</time>
      </trkpt>
      <trkpt lat="45.29193" lon="4.25834">
        <ele>751.46153846154</ele>
        <time>2015-10-03T08:43:42.849Z</time>
      </trkpt>
      <trkpt lat="45.29195" lon="4.25844">
        <ele>749.12</ele>
        <time>2015-10-03T08:43:45.836Z</time>
      </trkpt>
      <trkpt lat="45.29196" lon="4.25847">
        <ele>748.52</ele>
        <time>2015-10-03T08:43:46.839Z</time>
      </trkpt>
      <trkpt lat="45.29197" lon="4.25854">
        <ele>747.32</ele>
        <time>2015-10-03T08:43:48.881Z</time>
      </trkpt>
      <trkpt lat="45.29197" lon="4.25858">
        <ele>746.72</ele>
        <time>2015-10-03T08:43:49.864Z</time>
      </trkpt>
      <trkpt lat="45.29196" lon="4.25861">
        <ele>746.16</ele>
        <time>2015-10-03T08:43:50.878Z</time>
      </trkpt>
      <trkpt lat="45.29195" lon="4.25865">
        <ele>745.6</ele>
        <time>2015-10-03T08:43:51.889Z</time>
      </trkpt>
      <trkpt lat="45.29192" lon="4.25871">
        <ele>744.72</ele>
        <time>2015-10-03T08:43:53.893Z</time>
      </trkpt>
      <trkpt lat="45.29187" lon="4.25881">
        <ele>743.53846153846</ele>
        <time>2015-10-03T08:43:57.871Z</time>
      </trkpt>
      <trkpt lat="45.29185" lon="4.25883">
        <ele>742.96</ele>
        <time>2015-10-03T08:43:58.890Z</time>
      </trkpt>
      <trkpt lat="45.2918" lon="4.2589">
        <ele>742.16</ele>
        <time>2015-10-03T08:44:02.835Z</time>
      </trkpt>
      <trkpt lat="45.29178" lon="4.25892">
        <ele>742.04</ele>
        <time>2015-10-03T08:44:03.850Z</time>
      </trkpt>
      <trkpt lat="45.29175" lon="4.25896">
        <ele>741.88</ele>
        <time>2015-10-03T08:44:05.870Z</time>
      </trkpt>
      <trkpt lat="45.29171" lon="4.25902">
        <ele>741.76</ele>
        <time>2015-10-03T08:44:08.858Z</time>
      </trkpt>
      <trkpt lat="45.2917" lon="4.25905">
        <ele>741.84615384615</ele>
        <time>2015-10-03T08:44:09.860Z</time>
      </trkpt>
      <trkpt lat="45.29169" lon="4.25908">
        <ele>741.88</ele>
        <time>2015-10-03T08:44:10.861Z</time>
      </trkpt>
      <trkpt lat="45.29167" lon="4.25915">
        <ele>741.96153846154</ele>
        <time>2015-10-03T08:44:12.854Z</time>
      </trkpt>
      <trkpt lat="45.29165" lon="4.25925">
        <ele>742.2</ele>
        <time>2015-10-03T08:44:15.868Z</time>
      </trkpt>
      <trkpt lat="45.2916" lon="4.25935">
        <ele>742.52</ele>
        <time>2015-10-03T08:44:18.872Z</time>
      </trkpt>
      <trkpt lat="45.29159" lon="4.25938">
        <ele>742.66666666667</ele>
        <time>2015-10-03T08:44:19.909Z</time>
      </trkpt>
      <trkpt lat="45.29155" lon="4.25944">
        <ele>742.83333333333</ele>
        <time>2015-10-03T08:44:21.871Z</time>
      </trkpt>
      <trkpt lat="45.29153" lon="4.25947">
        <ele>742.88</ele>
        <time>2015-10-03T08:44:22.868Z</time>
      </trkpt>
      <trkpt lat="45.29152" lon="4.2595">
        <ele>743</ele>
        <time>2015-10-03T08:44:23.880Z</time>
      </trkpt>
      <trkpt lat="45.29151" lon="4.25954">
        <ele>743.08</ele>
        <time>2015-10-03T08:44:24.874Z</time>
      </trkpt>
      <trkpt lat="45.2915" lon="4.25958">
        <ele>743.125</ele>
        <time>2015-10-03T08:44:25.875Z</time>
      </trkpt>
      <trkpt lat="45.29149" lon="4.25967">
        <ele>743.16666666667</ele>
        <time>2015-10-03T08:44:27.866Z</time>
      </trkpt>
      <trkpt lat="45.2915" lon="4.25979">
        <ele>743.08333333333</ele>
        <time>2015-10-03T08:44:30.888Z</time>
      </trkpt>
      <trkpt lat="45.29151" lon="4.25987">
        <ele>743.04166666667</ele>
        <time>2015-10-03T08:44:32.872Z</time>
      </trkpt>
      <trkpt lat="45.29151" lon="4.2599">
        <ele>743.08333333333</ele>
        <time>2015-10-03T08:44:33.868Z</time>
      </trkpt>
      <trkpt lat="45.2915" lon="4.25992">
        <ele>743.04166666667</ele>
        <time>2015-10-03T08:44:34.879Z</time>
      </trkpt>
      <trkpt lat="45.29149" lon="4.25995">
        <ele>743</ele>
        <time>2015-10-03T08:44:35.883Z</time>
      </trkpt>
      <trkpt lat="45.29149" lon="4.25998">
        <ele>743.04</ele>
        <time>2015-10-03T08:44:36.821Z</time>
      </trkpt>
      <trkpt lat="45.29148" lon="4.26001">
        <ele>743</ele>
        <time>2015-10-03T08:44:37.815Z</time>
      </trkpt>
      <trkpt lat="45.29147" lon="4.2601">
        <ele>743.07692307692</ele>
        <time>2015-10-03T08:44:40.865Z</time>
      </trkpt>
      <trkpt lat="45.29146" lon="4.26011">
        <ele>743.19230769231</ele>
        <time>2015-10-03T08:44:41.820Z</time>
      </trkpt>
      <trkpt lat="45.29146" lon="4.26011">
        <ele>743.19230769231</ele>
        <time>2015-10-03T08:44:42.773Z</time>
      </trkpt>
      <trkpt lat="45.29145" lon="4.26012">
        <ele>743.26923076923</ele>
        <time>2015-10-03T08:44:43.785Z</time>
      </trkpt>
      <trkpt lat="45.29142" lon="4.26015">
        <ele>743.38461538462</ele>
        <time>2015-10-03T08:44:46.795Z</time>
      </trkpt>
      <trkpt lat="45.2914" lon="4.26019">
        <ele>743.46153846154</ele>
        <time>2015-10-03T08:44:47.862Z</time>
      </trkpt>
      <trkpt lat="45.2914" lon="4.26023">
        <ele>743.53846153846</ele>
        <time>2015-10-03T08:44:48.861Z</time>
      </trkpt>
      <trkpt lat="45.2914" lon="4.26028">
        <ele>743.61538461538</ele>
        <time>2015-10-03T08:44:49.849Z</time>
      </trkpt>
      <trkpt lat="45.29141" lon="4.26032">
        <ele>743.76923076923</ele>
        <time>2015-10-03T08:44:50.873Z</time>
      </trkpt>
      <trkpt lat="45.29142" lon="4.26037">
        <ele>743.88461538462</ele>
        <time>2015-10-03T08:44:51.877Z</time>
      </trkpt>
      <trkpt lat="45.29141" lon="4.26041">
        <ele>744</ele>
        <time>2015-10-03T08:44:52.866Z</time>
      </trkpt>
      <trkpt lat="45.2914" lon="4.26045">
        <ele>744.07692307692</ele>
        <time>2015-10-03T08:44:53.860Z</time>
      </trkpt>
      <trkpt lat="45.29139" lon="4.26047">
        <ele>744.23076923077</ele>
        <time>2015-10-03T08:44:54.867Z</time>
      </trkpt>
      <trkpt lat="45.29138" lon="4.26049">
        <ele>744.46153846154</ele>
        <time>2015-10-03T08:44:55.866Z</time>
      </trkpt>
      <trkpt lat="45.29139" lon="4.26052">
        <ele>744.65384615385</ele>
        <time>2015-10-03T08:44:56.873Z</time>
      </trkpt>
      <trkpt lat="45.29138" lon="4.26056">
        <ele>745.12</ele>
        <time>2015-10-03T08:44:58.886Z</time>
      </trkpt>
      <trkpt lat="45.29137" lon="4.26057">
        <ele>745.36</ele>
        <time>2015-10-03T08:44:59.894Z</time>
      </trkpt>
      <trkpt lat="45.29134" lon="4.26059">
        <ele>746.04</ele>
        <time>2015-10-03T08:45:02.875Z</time>
      </trkpt>
      <trkpt lat="45.29134" lon="4.2606">
        <ele>746.24</ele>
        <time>2015-10-03T08:45:03.860Z</time>
      </trkpt>
      <trkpt lat="45.29137" lon="4.2606">
        <ele>746.34615384615</ele>
        <time>2015-10-03T08:45:04.855Z</time>
      </trkpt>
      <trkpt lat="45.29138" lon="4.26063">
        <ele>747.12</ele>
        <time>2015-10-03T08:45:08.802Z</time>
      </trkpt>
      <trkpt lat="45.29138" lon="4.26064">
        <ele>747.52</ele>
        <time>2015-10-03T08:45:10.775Z</time>
      </trkpt>
      <trkpt lat="45.29136" lon="4.26066">
        <ele>747.68</ele>
        <time>2015-10-03T08:45:11.807Z</time>
      </trkpt>
      <trkpt lat="45.29134" lon="4.26068">
        <ele>747.73076923077</ele>
        <time>2015-10-03T08:45:12.851Z</time>
      </trkpt>
      <trkpt lat="45.29133" lon="4.26071">
        <ele>747.88461538462</ele>
        <time>2015-10-03T08:45:13.853Z</time>
      </trkpt>
      <trkpt lat="45.29132" lon="4.26074">
        <ele>748</ele>
        <time>2015-10-03T08:45:14.827Z</time>
      </trkpt>
      <trkpt lat="45.29133" lon="4.26078">
        <ele>748.15384615385</ele>
        <time>2015-10-03T08:45:15.833Z</time>
      </trkpt>
      <trkpt lat="45.29135" lon="4.26081">
        <ele>748.23076923077</ele>
        <time>2015-10-03T08:45:16.837Z</time>
      </trkpt>
      <trkpt lat="45.29137" lon="4.26084">
        <ele>748.44</ele>
        <time>2015-10-03T08:45:17.872Z</time>
      </trkpt>
      <trkpt lat="45.29139" lon="4.26087">
        <ele>748.53846153846</ele>
        <time>2015-10-03T08:45:18.848Z</time>
      </trkpt>
      <trkpt lat="45.29141" lon="4.26089">
        <ele>748.76923076923</ele>
        <time>2015-10-03T08:45:19.815Z</time>
      </trkpt>
      <trkpt lat="45.29146" lon="4.26092">
        <ele>749.03846153846</ele>
        <time>2015-10-03T08:45:21.848Z</time>
      </trkpt>
      <trkpt lat="45.29148" lon="4.26093">
        <ele>749.11538461538</ele>
        <time>2015-10-03T08:45:22.864Z</time>
      </trkpt>
      <trkpt lat="45.2915" lon="4.26093">
        <ele>749.26923076923</ele>
        <time>2015-10-03T08:45:23.855Z</time>
      </trkpt>
      <trkpt lat="45.29151" lon="4.26094">
        <ele>749.38461538462</ele>
        <time>2015-10-03T08:45:24.834Z</time>
      </trkpt>
      <trkpt lat="45.29153" lon="4.26094">
        <ele>749.5</ele>
        <time>2015-10-03T08:45:25.833Z</time>
      </trkpt>
      <trkpt lat="45.29154" lon="4.26096">
        <ele>749.65384615385</ele>
        <time>2015-10-03T08:45:26.832Z</time>
      </trkpt>
      <trkpt lat="45.29155" lon="4.26097">
        <ele>749.76923076923</ele>
        <time>2015-10-03T08:45:27.839Z</time>
      </trkpt>
      <trkpt lat="45.29156" lon="4.26099">
        <ele>749.92307692308</ele>
        <time>2015-10-03T08:45:28.829Z</time>
      </trkpt>
      <trkpt lat="45.29156" lon="4.26102">
        <ele>750.07692307692</ele>
        <time>2015-10-03T08:45:29.811Z</time>
      </trkpt>
      <trkpt lat="45.29155" lon="4.26104">
        <ele>750.23076923077</ele>
        <time>2015-10-03T08:45:30.819Z</time>
      </trkpt>
      <trkpt lat="45.29155" lon="4.26106">
        <ele>750.42307692308</ele>
        <time>2015-10-03T08:45:31.803Z</time>
      </trkpt>
      <trkpt lat="45.29155" lon="4.26109">
        <ele>750.53846153846</ele>
        <time>2015-10-03T08:45:32.794Z</time>
      </trkpt>
      <trkpt lat="45.29156" lon="4.26112">
        <ele>751.04</ele>
        <time>2015-10-03T08:45:34.803Z</time>
      </trkpt>
      <trkpt lat="45.29156" lon="4.26112">
        <ele>751.16</ele>
        <time>2015-10-03T08:45:35.792Z</time>
      </trkpt>
      <trkpt lat="45.29156" lon="4.26114">
        <ele>751.23076923077</ele>
        <time>2015-10-03T08:45:36.782Z</time>
      </trkpt>
      <trkpt lat="45.29155" lon="4.26116">
        <ele>751.34615384615</ele>
        <time>2015-10-03T08:45:37.766Z</time>
      </trkpt>
      <trkpt lat="45.29153" lon="4.26117">
        <ele>751.46153846154</ele>
        <time>2015-10-03T08:45:38.770Z</time>
      </trkpt>
      <trkpt lat="45.29151" lon="4.26118">
        <ele>751.61538461538</ele>
        <time>2015-10-03T08:45:39.784Z</time>
      </trkpt>
      <trkpt lat="45.29148" lon="4.26118">
        <ele>751.76923076923</ele>
        <time>2015-10-03T08:45:40.787Z</time>
      </trkpt>
      <trkpt lat="45.29146" lon="4.26117">
        <ele>751.88461538462</ele>
        <time>2015-10-03T08:45:41.770Z</time>
      </trkpt>
      <trkpt lat="45.29145" lon="4.26115">
        <ele>752.03846153846</ele>
        <time>2015-10-03T08:45:42.760Z</time>
      </trkpt>
      <trkpt lat="45.29144" lon="4.26114">
        <ele>752.19230769231</ele>
        <time>2015-10-03T08:45:43.753Z</time>
      </trkpt>
      <trkpt lat="45.29144" lon="4.26112">
        <ele>752.23076923077</ele>
        <time>2015-10-03T08:45:44.761Z</time>
      </trkpt>
      <trkpt lat="45.29144" lon="4.26111">
        <ele>752.30769230769</ele>
        <time>2015-10-03T08:45:45.757Z</time>
      </trkpt>
      <trkpt lat="45.29144" lon="4.26112">
        <ele>752.38461538462</ele>
        <time>2015-10-03T08:45:47.759Z</time>
      </trkpt>
      <trkpt lat="45.29144" lon="4.26114">
        <ele>752.46153846154</ele>
        <time>2015-10-03T08:45:48.768Z</time>
      </trkpt>
      <trkpt lat="45.29143" lon="4.26112">
        <ele>752.5</ele>
        <time>2015-10-03T08:45:49.782Z</time>
      </trkpt>
      <trkpt lat="45.29142" lon="4.2611">
        <ele>752.53846153846</ele>
        <time>2015-10-03T08:45:51.770Z</time>
      </trkpt>
      <trkpt lat="45.29142" lon="4.2611">
        <ele>752.53846153846</ele>
        <time>2015-10-03T08:45:52.758Z</time>
      </trkpt>
      <trkpt lat="45.29144" lon="4.2611">
        <ele>752.5</ele>
        <time>2015-10-03T08:45:55.760Z</time>
      </trkpt>
      <trkpt lat="45.29144" lon="4.26109">
        <ele>752.46153846154</ele>
        <time>2015-10-03T08:45:56.761Z</time>
      </trkpt>
      <trkpt lat="45.29145" lon="4.26108">
        <ele>752.42307692308</ele>
        <time>2015-10-03T08:45:57.767Z</time>
      </trkpt>
      <trkpt lat="45.29146" lon="4.26107">
        <ele>752.42307692308</ele>
        <time>2015-10-03T08:45:59.758Z</time>
      </trkpt>
      <trkpt lat="45.29148" lon="4.26108">
        <ele>752.38461538462</ele>
        <time>2015-10-03T08:46:01.758Z</time>
      </trkpt>
      <trkpt lat="45.29149" lon="4.26107">
        <ele>752.34615384615</ele>
        <time>2015-10-03T08:46:03.758Z</time>
      </trkpt>
      <trkpt lat="45.2915" lon="4.26106">
        <ele>752.2</ele>
        <time>2015-10-03T08:46:07.763Z</time>
      </trkpt>
      <trkpt lat="45.2915" lon="4.26105">
        <ele>752.11538461538</ele>
        <time>2015-10-03T08:46:11.753Z</time>
      </trkpt>
      <trkpt lat="45.2915" lon="4.26105">
        <ele>752.12</ele>
        <time>2015-10-03T08:46:15.754Z</time>
      </trkpt>
      <trkpt lat="45.2915" lon="4.26105">
        <ele>752</ele>
        <time>2015-10-03T08:46:19.747Z</time>
      </trkpt>
      <trkpt lat="45.2915" lon="4.26105">
        <ele>752</ele>
        <time>2015-10-03T08:46:22.759Z</time>
      </trkpt>
      <trkpt lat="45.2915" lon="4.26105">
        <ele>751.92</ele>
        <time>2015-10-03T08:46:26.755Z</time>
      </trkpt>
      <trkpt lat="45.2915" lon="4.26105">
        <ele>751.91666666667</ele>
        <time>2015-10-03T08:46:30.759Z</time>
      </trkpt>
      <trkpt lat="45.2915" lon="4.26104">
        <ele>751.92</ele>
        <time>2015-10-03T08:46:34.759Z</time>
      </trkpt>
      <trkpt lat="45.2915" lon="4.26102">
        <ele>751.92</ele>
        <time>2015-10-03T08:46:35.758Z</time>
      </trkpt>
      <trkpt lat="45.29149" lon="4.26101">
        <ele>751.92</ele>
        <time>2015-10-03T08:46:38.765Z</time>
      </trkpt>
      <trkpt lat="45.29149" lon="4.26101">
        <ele>751.96</ele>
        <time>2015-10-03T08:46:42.764Z</time>
      </trkpt>
      <trkpt lat="45.29149" lon="4.26101">
        <ele>751.96</ele>
        <time>2015-10-03T08:46:46.759Z</time>
      </trkpt>
      <trkpt lat="45.29149" lon="4.26101">
        <ele>751.96</ele>
        <time>2015-10-03T08:46:50.755Z</time>
      </trkpt>
      <trkpt lat="45.29149" lon="4.26101">
        <ele>751.96</ele>
        <time>2015-10-03T08:46:53.766Z</time>
      </trkpt>
      <trkpt lat="45.29149" lon="4.26101">
        <ele>751.96153846154</ele>
        <time>2015-10-03T08:46:57.754Z</time>
      </trkpt>
      <trkpt lat="45.29149" lon="4.26101">
        <ele>751.96153846154</ele>
        <time>2015-10-03T08:47:00.758Z</time>
      </trkpt>
      <trkpt lat="45.2915" lon="4.26101">
        <ele>751.96153846154</ele>
        <time>2015-10-03T08:47:04.753Z</time>
      </trkpt>
      <trkpt lat="45.2915" lon="4.26101">
        <ele>751.96153846154</ele>
        <time>2015-10-03T08:47:07.758Z</time>
      </trkpt>
      <trkpt lat="45.2915" lon="4.26101">
        <ele>752</ele>
        <time>2015-10-03T08:47:10.760Z</time>
      </trkpt>
      <trkpt lat="45.2915" lon="4.26101">
        <ele>751.96153846154</ele>
        <time>2015-10-03T08:47:14.752Z</time>
      </trkpt>
      <trkpt lat="45.2915" lon="4.26101">
        <ele>751.92307692308</ele>
        <time>2015-10-03T08:47:17.754Z</time>
      </trkpt>
      <trkpt lat="45.2915" lon="4.26101">
        <ele>751.92</ele>
        <time>2015-10-03T08:47:21.756Z</time>
      </trkpt>
      <trkpt lat="45.2915" lon="4.26101">
        <ele>751.92307692308</ele>
        <time>2015-10-03T08:47:25.754Z</time>
      </trkpt>
      <trkpt lat="45.2915" lon="4.26101">
        <ele>751.88</ele>
        <time>2015-10-03T08:47:28.760Z</time>
      </trkpt>
      <trkpt lat="45.29151" lon="4.26103">
        <ele>751.84</ele>
        <time>2015-10-03T08:47:31.763Z</time>
      </trkpt>
      <trkpt lat="45.29152" lon="4.26103">
        <ele>751.84615384615</ele>
        <time>2015-10-03T08:47:35.751Z</time>
      </trkpt>
      <trkpt lat="45.29152" lon="4.26103">
        <ele>751.88</ele>
        <time>2015-10-03T08:47:38.759Z</time>
      </trkpt>
      <trkpt lat="45.29152" lon="4.26103">
        <ele>751.92</ele>
        <time>2015-10-03T08:47:41.760Z</time>
      </trkpt>
      <trkpt lat="45.29152" lon="4.26103">
        <ele>751.92</ele>
        <time>2015-10-03T08:47:45.756Z</time>
      </trkpt>
      <trkpt lat="45.29152" lon="4.26103">
        <ele>751.92</ele>
        <time>2015-10-03T08:47:48.758Z</time>
      </trkpt>
      <trkpt lat="45.29152" lon="4.26103">
        <ele>751.92307692308</ele>
        <time>2015-10-03T08:47:52.754Z</time>
      </trkpt>
      <trkpt lat="45.29152" lon="4.26103">
        <ele>751.96153846154</ele>
        <time>2015-10-03T08:47:56.757Z</time>
      </trkpt>
      <trkpt lat="45.29153" lon="4.26103">
        <ele>751.96</ele>
        <time>2015-10-03T08:48:00.755Z</time>
      </trkpt>
      <trkpt lat="45.29153" lon="4.26102">
        <ele>751.96153846154</ele>
        <time>2015-10-03T08:48:04.753Z</time>
      </trkpt>
      <trkpt lat="45.29153" lon="4.26102">
        <ele>751.96</ele>
        <time>2015-10-03T08:48:07.760Z</time>
      </trkpt>
      <trkpt lat="45.29153" lon="4.26102">
        <ele>751.96</ele>
        <time>2015-10-03T08:48:11.764Z</time>
      </trkpt>
      <trkpt lat="45.29152" lon="4.26101">
        <ele>751.95833333333</ele>
        <time>2015-10-03T08:48:15.762Z</time>
      </trkpt>
      <trkpt lat="45.29152" lon="4.26101">
        <ele>752</ele>
        <time>2015-10-03T08:48:16.764Z</time>
      </trkpt>
      <trkpt lat="45.29152" lon="4.26101">
        <ele>752.08333333333</ele>
        <time>2015-10-03T08:48:17.762Z</time>
      </trkpt>
      <trkpt lat="45.29151" lon="4.26101">
        <ele>752.20833333333</ele>
        <time>2015-10-03T08:48:18.760Z</time>
      </trkpt>
      <trkpt lat="45.29149" lon="4.261">
        <ele>752.25</ele>
        <time>2015-10-03T08:48:19.762Z</time>
      </trkpt>
      <trkpt lat="45.29145" lon="4.26099">
        <ele>752.375</ele>
        <time>2015-10-03T08:48:22.787Z</time>
      </trkpt>
      <trkpt lat="45.29143" lon="4.26099">
        <ele>752.41666666667</ele>
        <time>2015-10-03T08:48:23.818Z</time>
      </trkpt>
      <trkpt lat="45.29142" lon="4.26099">
        <ele>752.45833333333</ele>
        <time>2015-10-03T08:48:24.811Z</time>
      </trkpt>
      <trkpt lat="45.2914" lon="4.26099">
        <ele>752.5</ele>
        <time>2015-10-03T08:48:25.782Z</time>
      </trkpt>
      <trkpt lat="45.29139" lon="4.26101">
        <ele>752.54166666667</ele>
        <time>2015-10-03T08:48:26.764Z</time>
      </trkpt>
      <trkpt lat="45.29137" lon="4.26104">
        <ele>752.625</ele>
        <time>2015-10-03T08:48:27.771Z</time>
      </trkpt>
      <trkpt lat="45.29136" lon="4.26108">
        <ele>752.66666666667</ele>
        <time>2015-10-03T08:48:28.769Z</time>
      </trkpt>
      <trkpt lat="45.29134" lon="4.26112">
        <ele>752.75</ele>
        <time>2015-10-03T08:48:29.774Z</time>
      </trkpt>
      <trkpt lat="45.29134" lon="4.26116">
        <ele>752.79166666667</ele>
        <time>2015-10-03T08:48:30.810Z</time>
      </trkpt>
      <trkpt lat="45.29133" lon="4.2612">
        <ele>752.875</ele>
        <time>2015-10-03T08:48:31.854Z</time>
      </trkpt>
      <trkpt lat="45.29131" lon="4.26122">
        <ele>752.875</ele>
        <time>2015-10-03T08:48:32.872Z</time>
      </trkpt>
      <trkpt lat="45.2913" lon="4.26125">
        <ele>752.95833333333</ele>
        <time>2015-10-03T08:48:33.865Z</time>
      </trkpt>
      <trkpt lat="45.29128" lon="4.26127">
        <ele>752.91666666667</ele>
        <time>2015-10-03T08:48:34.863Z</time>
      </trkpt>
      <trkpt lat="45.29127" lon="4.2613">
        <ele>753</ele>
        <time>2015-10-03T08:48:35.863Z</time>
      </trkpt>
      <trkpt lat="45.29124" lon="4.26136">
        <ele>753.16666666667</ele>
        <time>2015-10-03T08:48:37.873Z</time>
      </trkpt>
      <trkpt lat="45.29123" lon="4.26139">
        <ele>753.20833333333</ele>
        <time>2015-10-03T08:48:38.893Z</time>
      </trkpt>
      <trkpt lat="45.29121" lon="4.26146">
        <ele>753.32</ele>
        <time>2015-10-03T08:48:40.852Z</time>
      </trkpt>
      <trkpt lat="45.29119" lon="4.26148">
        <ele>753.4</ele>
        <time>2015-10-03T08:48:41.850Z</time>
      </trkpt>
      <trkpt lat="45.29117" lon="4.2615">
        <ele>753.32</ele>
        <time>2015-10-03T08:48:42.877Z</time>
      </trkpt>
      <trkpt lat="45.29115" lon="4.26153">
        <ele>753.36</ele>
        <time>2015-10-03T08:48:43.881Z</time>
      </trkpt>
      <trkpt lat="45.29113" lon="4.26155">
        <ele>753.4</ele>
        <time>2015-10-03T08:48:44.870Z</time>
      </trkpt>
      <trkpt lat="45.29111" lon="4.26159">
        <ele>753.48</ele>
        <time>2015-10-03T08:48:45.859Z</time>
      </trkpt>
      <trkpt lat="45.29108" lon="4.26165">
        <ele>753.6</ele>
        <time>2015-10-03T08:48:47.862Z</time>
      </trkpt>
      <trkpt lat="45.29103" lon="4.26175">
        <ele>753.8</ele>
        <time>2015-10-03T08:48:50.872Z</time>
      </trkpt>
      <trkpt lat="45.29097" lon="4.26188">
        <ele>754.08</ele>
        <time>2015-10-03T08:48:54.855Z</time>
      </trkpt>
      <trkpt lat="45.29095" lon="4.26191">
        <ele>754.16</ele>
        <time>2015-10-03T08:48:55.858Z</time>
      </trkpt>
      <trkpt lat="45.29091" lon="4.26203">
        <ele>754.34615384615</ele>
        <time>2015-10-03T08:48:58.845Z</time>
      </trkpt>
      <trkpt lat="45.2909" lon="4.26206">
        <ele>754.56</ele>
        <time>2015-10-03T08:48:59.865Z</time>
      </trkpt>
      <trkpt lat="45.29088" lon="4.2621">
        <ele>754.64</ele>
        <time>2015-10-03T08:49:00.874Z</time>
      </trkpt>
      <trkpt lat="45.29085" lon="4.26217">
        <ele>754.76</ele>
        <time>2015-10-03T08:49:02.874Z</time>
      </trkpt>
      <trkpt lat="45.29078" lon="4.26232">
        <ele>755.04</ele>
        <time>2015-10-03T08:49:06.858Z</time>
      </trkpt>
      <trkpt lat="45.29074" lon="4.26244">
        <ele>755.30769230769</ele>
        <time>2015-10-03T08:49:09.867Z</time>
      </trkpt>
      <trkpt lat="45.29071" lon="4.26256">
        <ele>755.6</ele>
        <time>2015-10-03T08:49:12.876Z</time>
      </trkpt>
      <trkpt lat="45.29069" lon="4.26264">
        <ele>755.76923076923</ele>
        <time>2015-10-03T08:49:14.844Z</time>
      </trkpt>
      <trkpt lat="45.29065" lon="4.26274">
        <ele>756.16</ele>
        <time>2015-10-03T08:49:17.884Z</time>
      </trkpt>
      <trkpt lat="45.29061" lon="4.26289">
        <ele>756.57692307692</ele>
        <time>2015-10-03T08:49:21.849Z</time>
      </trkpt>
      <trkpt lat="45.2906" lon="4.26295">
        <ele>757</ele>
        <time>2015-10-03T08:49:23.888Z</time>
      </trkpt>
      <trkpt lat="45.29059" lon="4.26298">
        <ele>757.12</ele>
        <time>2015-10-03T08:49:24.885Z</time>
      </trkpt>
      <trkpt lat="45.29057" lon="4.263">
        <ele>757.23076923077</ele>
        <time>2015-10-03T08:49:25.863Z</time>
      </trkpt>
      <trkpt lat="45.29053" lon="4.26309">
        <ele>757.8</ele>
        <time>2015-10-03T08:49:28.881Z</time>
      </trkpt>
      <trkpt lat="45.29051" lon="4.26315">
        <ele>758.11538461538</ele>
        <time>2015-10-03T08:49:30.851Z</time>
      </trkpt>
      <trkpt lat="45.2905" lon="4.26318">
        <ele>758.26923076923</ele>
        <time>2015-10-03T08:49:31.836Z</time>
      </trkpt>
      <trkpt lat="45.29048" lon="4.26326">
        <ele>758.92307692308</ele>
        <time>2015-10-03T08:49:34.811Z</time>
      </trkpt>
      <trkpt lat="45.29047" lon="4.26328">
        <ele>759.15384615385</ele>
        <time>2015-10-03T08:49:35.819Z</time>
      </trkpt>
      <trkpt lat="45.29046" lon="4.26333">
        <ele>759.61538461538</ele>
        <time>2015-10-03T08:49:37.842Z</time>
      </trkpt>
      <trkpt lat="45.29046" lon="4.26335">
        <ele>759.92</ele>
        <time>2015-10-03T08:49:38.871Z</time>
      </trkpt>
      <trkpt lat="45.29045" lon="4.26346">
        <ele>760.61538461538</ele>
        <time>2015-10-03T08:49:42.847Z</time>
      </trkpt>
      <trkpt lat="45.29043" lon="4.26351">
        <ele>761.2</ele>
        <time>2015-10-03T08:49:44.864Z</time>
      </trkpt>
      <trkpt lat="45.29041" lon="4.2636">
        <ele>761.76923076923</ele>
        <time>2015-10-03T08:49:47.852Z</time>
      </trkpt>
      <trkpt lat="45.29038" lon="4.26369">
        <ele>762.38461538462</ele>
        <time>2015-10-03T08:49:50.863Z</time>
      </trkpt>
      <trkpt lat="45.29036" lon="4.26374">
        <ele>762.88461538462</ele>
        <time>2015-10-03T08:49:52.853Z</time>
      </trkpt>
      <trkpt lat="45.29032" lon="4.2638">
        <ele>763.6</ele>
        <time>2015-10-03T08:49:55.860Z</time>
      </trkpt>
      <trkpt lat="45.29031" lon="4.26381">
        <ele>763.8</ele>
        <time>2015-10-03T08:49:56.860Z</time>
      </trkpt>
      <trkpt lat="45.2903" lon="4.26382">
        <ele>764.04</ele>
        <time>2015-10-03T08:49:57.841Z</time>
      </trkpt>
      <trkpt lat="45.29029" lon="4.26382">
        <ele>764.24</ele>
        <time>2015-10-03T08:49:58.850Z</time>
      </trkpt>
      <trkpt lat="45.29028" lon="4.26383">
        <ele>764.36</ele>
        <time>2015-10-03T08:49:59.861Z</time>
      </trkpt>
      <trkpt lat="45.29027" lon="4.26384">
        <ele>764.6</ele>
        <time>2015-10-03T08:50:00.873Z</time>
      </trkpt>
      <trkpt lat="45.29022" lon="4.2639">
        <ele>765.30769230769</ele>
        <time>2015-10-03T08:50:04.814Z</time>
      </trkpt>
      <trkpt lat="45.29019" lon="4.26392">
        <ele>765.84615384615</ele>
        <time>2015-10-03T08:50:06.867Z</time>
      </trkpt>
      <trkpt lat="45.29019" lon="4.26395">
        <ele>766.08</ele>
        <time>2015-10-03T08:50:07.869Z</time>
      </trkpt>
      <trkpt lat="45.29017" lon="4.26399">
        <ele>766.26923076923</ele>
        <time>2015-10-03T08:50:09.862Z</time>
      </trkpt>
      <trkpt lat="45.29016" lon="4.26401">
        <ele>766.56</ele>
        <time>2015-10-03T08:50:10.891Z</time>
      </trkpt>
      <trkpt lat="45.29013" lon="4.26404">
        <ele>766.92</ele>
        <time>2015-10-03T08:50:12.863Z</time>
      </trkpt>
      <trkpt lat="45.29012" lon="4.26405">
        <ele>767.12</ele>
        <time>2015-10-03T08:50:13.865Z</time>
      </trkpt>
      <trkpt lat="45.29009" lon="4.26406">
        <ele>767.32</ele>
        <time>2015-10-03T08:50:15.862Z</time>
      </trkpt>
      <trkpt lat="45.29007" lon="4.26406">
        <ele>767.48</ele>
        <time>2015-10-03T08:50:16.891Z</time>
      </trkpt>
      <trkpt lat="45.29006" lon="4.26407">
        <ele>767.66666666667</ele>
        <time>2015-10-03T08:50:17.883Z</time>
      </trkpt>
      <trkpt lat="45.29004" lon="4.26408">
        <ele>767.83333333333</ele>
        <time>2015-10-03T08:50:18.878Z</time>
      </trkpt>
      <trkpt lat="45.29004" lon="4.2641">
        <ele>768.04166666667</ele>
        <time>2015-10-03T08:50:19.891Z</time>
      </trkpt>
      <trkpt lat="45.29003" lon="4.26415">
        <ele>768.29166666667</ele>
        <time>2015-10-03T08:50:21.884Z</time>
      </trkpt>
      <trkpt lat="45.29002" lon="4.26417">
        <ele>768.45833333333</ele>
        <time>2015-10-03T08:50:22.865Z</time>
      </trkpt>
      <trkpt lat="45.29" lon="4.26421">
        <ele>768.64</ele>
        <time>2015-10-03T08:50:24.855Z</time>
      </trkpt>
      <trkpt lat="45.28997" lon="4.26424">
        <ele>769.08333333333</ele>
        <time>2015-10-03T08:50:27.891Z</time>
      </trkpt>
      <trkpt lat="45.28996" lon="4.26425">
        <ele>769.32</ele>
        <time>2015-10-03T08:50:29.789Z</time>
      </trkpt>
      <trkpt lat="45.28994" lon="4.26427">
        <ele>769.6</ele>
        <time>2015-10-03T08:50:31.852Z</time>
      </trkpt>
      <trkpt lat="45.28993" lon="4.26427">
        <ele>769.72</ele>
        <time>2015-10-03T08:50:32.825Z</time>
      </trkpt>
      <trkpt lat="45.28993" lon="4.26429">
        <ele>769.84</ele>
        <time>2015-10-03T08:50:33.802Z</time>
      </trkpt>
      <trkpt lat="45.28992" lon="4.2643">
        <ele>770</ele>
        <time>2015-10-03T08:50:34.801Z</time>
      </trkpt>
      <trkpt lat="45.28991" lon="4.2643">
        <ele>770.16</ele>
        <time>2015-10-03T08:50:35.802Z</time>
      </trkpt>
      <trkpt lat="45.28989" lon="4.26431">
        <ele>770.32</ele>
        <time>2015-10-03T08:50:36.864Z</time>
      </trkpt>
      <trkpt lat="45.28988" lon="4.26431">
        <ele>770.48</ele>
        <time>2015-10-03T08:50:37.836Z</time>
      </trkpt>
      <trkpt lat="45.28987" lon="4.26432">
        <ele>770.64</ele>
        <time>2015-10-03T08:50:38.783Z</time>
      </trkpt>
      <trkpt lat="45.28986" lon="4.26433">
        <ele>770.8</ele>
        <time>2015-10-03T08:50:39.783Z</time>
      </trkpt>
      <trkpt lat="45.28985" lon="4.26434">
        <ele>770.88461538462</ele>
        <time>2015-10-03T08:50:40.788Z</time>
      </trkpt>
      <trkpt lat="45.28984" lon="4.26435">
        <ele>771</ele>
        <time>2015-10-03T08:50:41.775Z</time>
      </trkpt>
      <trkpt lat="45.28983" lon="4.26436">
        <ele>771.15384615385</ele>
        <time>2015-10-03T08:50:42.773Z</time>
      </trkpt>
      <trkpt lat="45.2898" lon="4.26438">
        <ele>771.5</ele>
        <time>2015-10-03T08:50:44.778Z</time>
      </trkpt>
      <trkpt lat="45.28976" lon="4.26443">
        <ele>771.96153846154</ele>
        <time>2015-10-03T08:50:47.773Z</time>
      </trkpt>
      <trkpt lat="45.2897" lon="4.26449">
        <ele>772.46153846154</ele>
        <time>2015-10-03T08:50:50.863Z</time>
      </trkpt>
      <trkpt lat="45.28964" lon="4.26455">
        <ele>773.04</ele>
        <time>2015-10-03T08:50:53.872Z</time>
      </trkpt>
      <trkpt lat="45.28961" lon="4.26458">
        <ele>773.28</ele>
        <time>2015-10-03T08:50:55.884Z</time>
      </trkpt>
      <trkpt lat="45.28959" lon="4.2646">
        <ele>773.36</ele>
        <time>2015-10-03T08:50:56.863Z</time>
      </trkpt>
      <trkpt lat="45.28958" lon="4.26463">
        <ele>773.44</ele>
        <time>2015-10-03T08:50:57.861Z</time>
      </trkpt>
      <trkpt lat="45.28955" lon="4.26468">
        <ele>773.68</ele>
        <time>2015-10-03T08:50:59.806Z</time>
      </trkpt>
      <trkpt lat="45.28954" lon="4.26469">
        <ele>773.69230769231</ele>
        <time>2015-10-03T08:51:00.776Z</time>
      </trkpt>
      <trkpt lat="45.28952" lon="4.26471">
        <ele>773.73076923077</ele>
        <time>2015-10-03T08:51:01.807Z</time>
      </trkpt>
      <trkpt lat="45.28946" lon="4.26475">
        <ele>773.8</ele>
        <time>2015-10-03T08:51:04.878Z</time>
      </trkpt>
      <trkpt lat="45.28945" lon="4.26477">
        <ele>773.88</ele>
        <time>2015-10-03T08:51:05.888Z</time>
      </trkpt>
      <trkpt lat="45.28942" lon="4.26481">
        <ele>773.88</ele>
        <time>2015-10-03T08:51:07.864Z</time>
      </trkpt>
      <trkpt lat="45.28941" lon="4.26482">
        <ele>773.84</ele>
        <time>2015-10-03T08:51:08.839Z</time>
      </trkpt>
      <trkpt lat="45.28941" lon="4.26482">
        <ele>773.84</ele>
        <time>2015-10-03T08:51:09.803Z</time>
      </trkpt>
      <trkpt lat="45.28942" lon="4.26482">
        <ele>773.80769230769</ele>
        <time>2015-10-03T08:51:10.769Z</time>
      </trkpt>
      <trkpt lat="45.28946" lon="4.26481">
        <ele>773.76923076923</ele>
        <time>2015-10-03T08:51:13.776Z</time>
      </trkpt>
      <trkpt lat="45.28947" lon="4.26481">
        <ele>773.65384615385</ele>
        <time>2015-10-03T08:51:15.775Z</time>
      </trkpt>
      <trkpt lat="45.28948" lon="4.26482">
        <ele>773.5</ele>
        <time>2015-10-03T08:51:18.811Z</time>
      </trkpt>
      <trkpt lat="45.28949" lon="4.26481">
        <ele>773.30769230769</ele>
        <time>2015-10-03T08:51:22.769Z</time>
      </trkpt>
      <trkpt lat="45.28949" lon="4.26481">
        <ele>773.15384615385</ele>
        <time>2015-10-03T08:51:26.752Z</time>
      </trkpt>
      <trkpt lat="45.28949" lon="4.2648">
        <ele>773.23076923077</ele>
        <time>2015-10-03T08:51:29.763Z</time>
      </trkpt>
      <trkpt lat="45.28949" lon="4.2648">
        <ele>773.23076923077</ele>
        <time>2015-10-03T08:51:32.770Z</time>
      </trkpt>
      <trkpt lat="45.28949" lon="4.2648">
        <ele>773.32</ele>
        <time>2015-10-03T08:51:35.783Z</time>
      </trkpt>
      <trkpt lat="45.28949" lon="4.26481">
        <ele>773.32</ele>
        <time>2015-10-03T08:51:39.769Z</time>
      </trkpt>
      <trkpt lat="45.28949" lon="4.26481">
        <ele>773.34615384615</ele>
        <time>2015-10-03T08:51:43.766Z</time>
      </trkpt>
      <trkpt lat="45.28949" lon="4.26481">
        <ele>773.42307692308</ele>
        <time>2015-10-03T08:51:47.763Z</time>
      </trkpt>
      <trkpt lat="45.28949" lon="4.26482">
        <ele>773.48</ele>
        <time>2015-10-03T08:51:48.770Z</time>
      </trkpt>
      <trkpt lat="45.2895" lon="4.26483">
        <ele>773.5</ele>
        <time>2015-10-03T08:51:49.761Z</time>
      </trkpt>
      <trkpt lat="45.2895" lon="4.26483">
        <ele>773.61538461538</ele>
        <time>2015-10-03T08:51:53.757Z</time>
      </trkpt>
      <trkpt lat="45.2895" lon="4.26483">
        <ele>773.52</ele>
        <time>2015-10-03T08:51:56.773Z</time>
      </trkpt>
      <trkpt lat="45.2895" lon="4.26484">
        <ele>773.48</ele>
        <time>2015-10-03T08:51:58.774Z</time>
      </trkpt>
      <trkpt lat="45.28951" lon="4.26486">
        <ele>773.46153846154</ele>
        <time>2015-10-03T08:52:01.766Z</time>
      </trkpt>
      <trkpt lat="45.28951" lon="4.26486">
        <ele>773.56</ele>
        <time>2015-10-03T08:52:04.779Z</time>
      </trkpt>
      <trkpt lat="45.28952" lon="4.26487">
        <ele>773.68</ele>
        <time>2015-10-03T08:52:08.777Z</time>
      </trkpt>
      <trkpt lat="45.28952" lon="4.26487">
        <ele>773.72</ele>
        <time>2015-10-03T08:52:10.786Z</time>
      </trkpt>
      <trkpt lat="45.28951" lon="4.26487">
        <ele>773.72</ele>
        <time>2015-10-03T08:52:15.767Z</time>
      </trkpt>
      <trkpt lat="45.28951" lon="4.26487">
        <ele>773.625</ele>
        <time>2015-10-03T08:52:18.772Z</time>
      </trkpt>
      <trkpt lat="45.2895" lon="4.26486">
        <ele>773.625</ele>
        <time>2015-10-03T08:52:19.791Z</time>
      </trkpt>
      <trkpt lat="45.28948" lon="4.26487">
        <ele>773.79166666667</ele>
        <time>2015-10-03T08:52:20.808Z</time>
      </trkpt>
      <trkpt lat="45.28947" lon="4.26487">
        <ele>773.83333333333</ele>
        <time>2015-10-03T08:52:21.775Z</time>
      </trkpt>
      <trkpt lat="45.28947" lon="4.26487">
        <ele>773.76</ele>
        <time>2015-10-03T08:52:22.763Z</time>
      </trkpt>
      <trkpt lat="45.28945" lon="4.26488">
        <ele>773.79166666667</ele>
        <time>2015-10-03T08:52:23.780Z</time>
      </trkpt>
      <trkpt lat="45.28943" lon="4.26489">
        <ele>773.79166666667</ele>
        <time>2015-10-03T08:52:24.786Z</time>
      </trkpt>
      <trkpt lat="45.28942" lon="4.2649">
        <ele>773.75</ele>
        <time>2015-10-03T08:52:25.786Z</time>
      </trkpt>
      <trkpt lat="45.2894" lon="4.26491">
        <ele>773.75</ele>
        <time>2015-10-03T08:52:26.851Z</time>
      </trkpt>
      <trkpt lat="45.28937" lon="4.26491">
        <ele>773.66666666667</ele>
        <time>2015-10-03T08:52:27.842Z</time>
      </trkpt>
      <trkpt lat="45.28935" lon="4.26491">
        <ele>773.58333333333</ele>
        <time>2015-10-03T08:52:28.821Z</time>
      </trkpt>
      <trkpt lat="45.28933" lon="4.26492">
        <ele>773.5</ele>
        <time>2015-10-03T08:52:29.852Z</time>
      </trkpt>
      <trkpt lat="45.2893" lon="4.26494">
        <ele>773.45833333333</ele>
        <time>2015-10-03T08:52:30.843Z</time>
      </trkpt>
      <trkpt lat="45.28927" lon="4.26495">
        <ele>773.29166666667</ele>
        <time>2015-10-03T08:52:31.842Z</time>
      </trkpt>
      <trkpt lat="45.28921" lon="4.26498">
        <ele>772.83333333333</ele>
        <time>2015-10-03T08:52:33.834Z</time>
      </trkpt>
      <trkpt lat="45.2892" lon="4.26501">
        <ele>772.625</ele>
        <time>2015-10-03T08:52:34.845Z</time>
      </trkpt>
      <trkpt lat="45.28918" lon="4.26504">
        <ele>772.29166666667</ele>
        <time>2015-10-03T08:52:35.852Z</time>
      </trkpt>
      <trkpt lat="45.28915" lon="4.2651">
        <ele>771.75</ele>
        <time>2015-10-03T08:52:37.849Z</time>
      </trkpt>
      <trkpt lat="45.28914" lon="4.26514">
        <ele>771.41666666667</ele>
        <time>2015-10-03T08:52:38.835Z</time>
      </trkpt>
      <trkpt lat="45.28913" lon="4.26519">
        <ele>771.2</ele>
        <time>2015-10-03T08:52:39.855Z</time>
      </trkpt>
      <trkpt lat="45.28911" lon="4.26534">
        <ele>770.16</ele>
        <time>2015-10-03T08:52:42.855Z</time>
      </trkpt>
      <trkpt lat="45.28911" lon="4.2654">
        <ele>769.8</ele>
        <time>2015-10-03T08:52:43.854Z</time>
      </trkpt>
      <trkpt lat="45.28911" lon="4.2655">
        <ele>768.96</ele>
        <time>2015-10-03T08:52:45.854Z</time>
      </trkpt>
      <trkpt lat="45.2891" lon="4.26556">
        <ele>768.48</ele>
        <time>2015-10-03T08:52:46.857Z</time>
      </trkpt>
      <trkpt lat="45.28911" lon="4.2656">
        <ele>768.08</ele>
        <time>2015-10-03T08:52:47.818Z</time>
      </trkpt>
      <trkpt lat="45.28911" lon="4.26563">
        <ele>767.88461538462</ele>
        <time>2015-10-03T08:52:48.766Z</time>
      </trkpt>
      <trkpt lat="45.28911" lon="4.26566">
        <ele>767.46153846154</ele>
        <time>2015-10-03T08:52:49.778Z</time>
      </trkpt>
      <trkpt lat="45.2891" lon="4.26569">
        <ele>767.03846153846</ele>
        <time>2015-10-03T08:52:50.770Z</time>
      </trkpt>
      <trkpt lat="45.2891" lon="4.26572">
        <ele>766.57692307692</ele>
        <time>2015-10-03T08:52:51.770Z</time>
      </trkpt>
      <trkpt lat="45.28909" lon="4.26574">
        <ele>766.11538461538</ele>
        <time>2015-10-03T08:52:52.783Z</time>
      </trkpt>
      <trkpt lat="45.2891" lon="4.26577">
        <ele>765.76923076923</ele>
        <time>2015-10-03T08:52:53.790Z</time>
      </trkpt>
      <trkpt lat="45.28909" lon="4.26577">
        <ele>765.38461538462</ele>
        <time>2015-10-03T08:52:54.813Z</time>
      </trkpt>
      <trkpt lat="45.28908" lon="4.26576">
        <ele>764.92307692308</ele>
        <time>2015-10-03T08:52:55.843Z</time>
      </trkpt>
      <trkpt lat="45.28908" lon="4.26575">
        <ele>764.24</ele>
        <time>2015-10-03T08:52:56.862Z</time>
      </trkpt>
      <trkpt lat="45.28907" lon="4.26574">
        <ele>763.92</ele>
        <time>2015-10-03T08:52:57.849Z</time>
      </trkpt>
      <trkpt lat="45.28907" lon="4.26574">
        <ele>763.76923076923</ele>
        <time>2015-10-03T08:52:58.818Z</time>
      </trkpt>
      <trkpt lat="45.28905" lon="4.26573">
        <ele>763.42307692308</ele>
        <time>2015-10-03T08:52:59.787Z</time>
      </trkpt>
      <trkpt lat="45.28903" lon="4.2657">
        <ele>763.07692307692</ele>
        <time>2015-10-03T08:53:00.781Z</time>
      </trkpt>
      <trkpt lat="45.28902" lon="4.26568">
        <ele>762.84615384615</ele>
        <time>2015-10-03T08:53:01.799Z</time>
      </trkpt>
      <trkpt lat="45.28901" lon="4.26566">
        <ele>762.53846153846</ele>
        <time>2015-10-03T08:53:02.843Z</time>
      </trkpt>
      <trkpt lat="45.289" lon="4.26563">
        <ele>762.12</ele>
        <time>2015-10-03T08:53:03.867Z</time>
      </trkpt>
      <trkpt lat="45.28899" lon="4.2656">
        <ele>761.8</ele>
        <time>2015-10-03T08:53:04.867Z</time>
      </trkpt>
      <trkpt lat="45.28898" lon="4.26555">
        <ele>761.2</ele>
        <time>2015-10-03T08:53:06.863Z</time>
      </trkpt>
      <trkpt lat="45.28898" lon="4.2655">
        <ele>760.69230769231</ele>
        <time>2015-10-03T08:53:08.810Z</time>
      </trkpt>
      <trkpt lat="45.28898" lon="4.26548">
        <ele>760.34615384615</ele>
        <time>2015-10-03T08:53:09.818Z</time>
      </trkpt>
      <trkpt lat="45.28895" lon="4.26545">
        <ele>760</ele>
        <time>2015-10-03T08:53:10.838Z</time>
      </trkpt>
      <trkpt lat="45.28892" lon="4.26542">
        <ele>759.61538461538</ele>
        <time>2015-10-03T08:53:11.833Z</time>
      </trkpt>
      <trkpt lat="45.28888" lon="4.26541">
        <ele>759.26923076923</ele>
        <time>2015-10-03T08:53:12.806Z</time>
      </trkpt>
      <trkpt lat="45.28882" lon="4.26538">
        <ele>758.36</ele>
        <time>2015-10-03T08:53:14.784Z</time>
      </trkpt>
      <trkpt lat="45.2888" lon="4.26538">
        <ele>758.11538461538</ele>
        <time>2015-10-03T08:53:15.754Z</time>
      </trkpt>
      <trkpt lat="45.28873" lon="4.26537">
        <ele>757</ele>
        <time>2015-10-03T08:53:18.779Z</time>
      </trkpt>
      <trkpt lat="45.28867" lon="4.26536">
        <ele>756.11538461538</ele>
        <time>2015-10-03T08:53:20.819Z</time>
      </trkpt>
      <trkpt lat="45.28859" lon="4.26533">
        <ele>755.38461538462</ele>
        <time>2015-10-03T08:53:22.098Z</time>
      </trkpt>
      <trkpt lat="45.28844" lon="4.26528">
        <ele>753.88461538462</ele>
        <time>2015-10-03T08:53:26.074Z</time>
      </trkpt>
      <trkpt lat="45.2884" lon="4.26527">
        <ele>753.5</ele>
        <time>2015-10-03T08:53:27.067Z</time>
      </trkpt>
      <trkpt lat="45.28836" lon="4.26526">
        <ele>753.07692307692</ele>
        <time>2015-10-03T08:53:28.094Z</time>
      </trkpt>
      <trkpt lat="45.28832" lon="4.26524">
        <ele>752.69230769231</ele>
        <time>2015-10-03T08:53:29.089Z</time>
      </trkpt>
      <trkpt lat="45.28827" lon="4.26523">
        <ele>752.34615384615</ele>
        <time>2015-10-03T08:53:30.074Z</time>
      </trkpt>
      <trkpt lat="45.28823" lon="4.26523">
        <ele>752.03846153846</ele>
        <time>2015-10-03T08:53:31.110Z</time>
      </trkpt>
      <trkpt lat="45.28819" lon="4.26523">
        <ele>751.61538461538</ele>
        <time>2015-10-03T08:53:32.123Z</time>
      </trkpt>
      <trkpt lat="45.28815" lon="4.26523">
        <ele>751.23076923077</ele>
        <time>2015-10-03T08:53:33.102Z</time>
      </trkpt>
      <trkpt lat="45.28812" lon="4.26522">
        <ele>750.88461538462</ele>
        <time>2015-10-03T08:53:34.064Z</time>
      </trkpt>
      <trkpt lat="45.28809" lon="4.26522">
        <ele>750.57692307692</ele>
        <time>2015-10-03T08:53:35.052Z</time>
      </trkpt>
      <trkpt lat="45.28805" lon="4.26522">
        <ele>750.26923076923</ele>
        <time>2015-10-03T08:53:36.080Z</time>
      </trkpt>
      <trkpt lat="45.28802" lon="4.26522">
        <ele>750</ele>
        <time>2015-10-03T08:53:37.104Z</time>
      </trkpt>
      <trkpt lat="45.28797" lon="4.26523">
        <ele>749.42307692308</ele>
        <time>2015-10-03T08:53:39.052Z</time>
      </trkpt>
      <trkpt lat="45.28795" lon="4.26523">
        <ele>749.19230769231</ele>
        <time>2015-10-03T08:53:40.040Z</time>
      </trkpt>
      <trkpt lat="45.28793" lon="4.26524">
        <ele>748.92307692308</ele>
        <time>2015-10-03T08:53:41.054Z</time>
      </trkpt>
      <trkpt lat="45.28788" lon="4.26525">
        <ele>748.42307692308</ele>
        <time>2015-10-03T08:53:43.048Z</time>
      </trkpt>
      <trkpt lat="45.28784" lon="4.26526">
        <ele>747.92307692308</ele>
        <time>2015-10-03T08:53:45.047Z</time>
      </trkpt>
      <trkpt lat="45.28781" lon="4.26526">
        <ele>747.73076923077</ele>
        <time>2015-10-03T08:53:46.044Z</time>
      </trkpt>
      <trkpt lat="45.28778" lon="4.26526">
        <ele>747.5</ele>
        <time>2015-10-03T08:53:47.047Z</time>
      </trkpt>
      <trkpt lat="45.28773" lon="4.26526">
        <ele>746.88461538462</ele>
        <time>2015-10-03T08:53:49.051Z</time>
      </trkpt>
      <trkpt lat="45.28771" lon="4.26527">
        <ele>746.69230769231</ele>
        <time>2015-10-03T08:53:50.059Z</time>
      </trkpt>
      <trkpt lat="45.28769" lon="4.26528">
        <ele>746.38461538462</ele>
        <time>2015-10-03T08:53:51.049Z</time>
      </trkpt>
      <trkpt lat="45.28768" lon="4.2653">
        <ele>746.15384615385</ele>
        <time>2015-10-03T08:53:52.062Z</time>
      </trkpt>
      <trkpt lat="45.28766" lon="4.26531">
        <ele>745.88461538462</ele>
        <time>2015-10-03T08:53:53.059Z</time>
      </trkpt>
      <trkpt lat="45.28763" lon="4.26532">
        <ele>745.69230769231</ele>
        <time>2015-10-03T08:53:54.056Z</time>
      </trkpt>
      <trkpt lat="45.28759" lon="4.26533">
        <ele>745.32</ele>
        <time>2015-10-03T08:53:55.080Z</time>
      </trkpt>
      <trkpt lat="45.28754" lon="4.26533">
        <ele>745.08</ele>
        <time>2015-10-03T08:53:56.347Z</time>
      </trkpt>
      <trkpt lat="45.2875" lon="4.26534">
        <ele>744.96153846154</ele>
        <time>2015-10-03T08:53:57.103Z</time>
      </trkpt>
      <trkpt lat="45.28746" lon="4.26534">
        <ele>744.80769230769</ele>
        <time>2015-10-03T08:53:58.101Z</time>
      </trkpt>
      <trkpt lat="45.28738" lon="4.26533">
        <ele>744.28</ele>
        <time>2015-10-03T08:54:00.100Z</time>
      </trkpt>
      <trkpt lat="45.28731" lon="4.26533">
        <ele>744</ele>
        <time>2015-10-03T08:54:02.090Z</time>
      </trkpt>
      <trkpt lat="45.28728" lon="4.26531">
        <ele>743.76923076923</ele>
        <time>2015-10-03T08:54:03.083Z</time>
      </trkpt>
      <trkpt lat="45.28726" lon="4.2653">
        <ele>743.64</ele>
        <time>2015-10-03T08:54:04.080Z</time>
      </trkpt>
      <trkpt lat="45.28725" lon="4.26529">
        <ele>743.52</ele>
        <time>2015-10-03T08:54:05.093Z</time>
      </trkpt>
      <trkpt lat="45.28724" lon="4.2653">
        <ele>743.32</ele>
        <time>2015-10-03T08:54:06.115Z</time>
      </trkpt>
      <trkpt lat="45.28722" lon="4.26531">
        <ele>743.24</ele>
        <time>2015-10-03T08:54:07.102Z</time>
      </trkpt>
      <trkpt lat="45.28719" lon="4.26532">
        <ele>743.16</ele>
        <time>2015-10-03T08:54:08.090Z</time>
      </trkpt>
      <trkpt lat="45.28716" lon="4.26532">
        <ele>743.08</ele>
        <time>2015-10-03T08:54:09.092Z</time>
      </trkpt>
      <trkpt lat="45.28713" lon="4.26533">
        <ele>742.96</ele>
        <time>2015-10-03T08:54:10.103Z</time>
      </trkpt>
      <trkpt lat="45.2871" lon="4.26535">
        <ele>742.84</ele>
        <time>2015-10-03T08:54:11.101Z</time>
      </trkpt>
      <trkpt lat="45.28708" lon="4.26537">
        <ele>742.68</ele>
        <time>2015-10-03T08:54:12.118Z</time>
      </trkpt>
      <trkpt lat="45.28706" lon="4.2654">
        <ele>742.68</ele>
        <time>2015-10-03T08:54:13.117Z</time>
      </trkpt>
      <trkpt lat="45.28699" lon="4.26545">
        <ele>742.54166666667</ele>
        <time>2015-10-03T08:54:15.100Z</time>
      </trkpt>
      <trkpt lat="45.28691" lon="4.26549">
        <ele>742.45833333333</ele>
        <time>2015-10-03T08:54:17.118Z</time>
      </trkpt>
      <trkpt lat="45.28683" lon="4.26552">
        <ele>742.375</ele>
        <time>2015-10-03T08:54:19.102Z</time>
      </trkpt>
      <trkpt lat="45.28679" lon="4.26553">
        <ele>742.33333333333</ele>
        <time>2015-10-03T08:54:20.101Z</time>
      </trkpt>
      <trkpt lat="45.28676" lon="4.26555">
        <ele>742.44</ele>
        <time>2015-10-03T08:54:21.087Z</time>
      </trkpt>
      <trkpt lat="45.28669" lon="4.26558">
        <ele>742.48</ele>
        <time>2015-10-03T08:54:23.087Z</time>
      </trkpt>
      <trkpt lat="45.28663" lon="4.2656">
        <ele>742.68</ele>
        <time>2015-10-03T08:54:25.098Z</time>
      </trkpt>
      <trkpt lat="45.2865" lon="4.26565">
        <ele>743</ele>
        <time>2015-10-03T08:54:29.094Z</time>
      </trkpt>
      <trkpt lat="45.28637" lon="4.2657">
        <ele>743.2</ele>
        <time>2015-10-03T08:54:33.089Z</time>
      </trkpt>
      <trkpt lat="45.28625" lon="4.26575">
        <ele>743.45833333333</ele>
        <time>2015-10-03T08:54:36.111Z</time>
      </trkpt>
      <trkpt lat="45.28614" lon="4.26581">
        <ele>743.68</ele>
        <time>2015-10-03T08:54:39.112Z</time>
      </trkpt>
      <trkpt lat="45.2861" lon="4.26583">
        <ele>743.76</ele>
        <time>2015-10-03T08:54:40.112Z</time>
      </trkpt>
      <trkpt lat="45.28606" lon="4.26585">
        <ele>743.96</ele>
        <time>2015-10-03T08:54:41.109Z</time>
      </trkpt>
      <trkpt lat="45.28595" lon="4.26593">
        <ele>744.08</ele>
        <time>2015-10-03T08:54:44.116Z</time>
      </trkpt>
      <trkpt lat="45.28588" lon="4.26598">
        <ele>744.2</ele>
        <time>2015-10-03T08:54:46.107Z</time>
      </trkpt>
      <trkpt lat="45.28577" lon="4.26606">
        <ele>744.32</ele>
        <time>2015-10-03T08:54:49.109Z</time>
      </trkpt>
      <trkpt lat="45.28569" lon="4.26613">
        <ele>744.28</ele>
        <time>2015-10-03T08:54:52.101Z</time>
      </trkpt>
      <trkpt lat="45.28563" lon="4.26618">
        <ele>744.4</ele>
        <time>2015-10-03T08:54:54.102Z</time>
      </trkpt>
      <trkpt lat="45.28561" lon="4.26619">
        <ele>744.38461538462</ele>
        <time>2015-10-03T08:54:55.075Z</time>
      </trkpt>
      <trkpt lat="45.28559" lon="4.26621">
        <ele>744.42307692308</ele>
        <time>2015-10-03T08:54:56.064Z</time>
      </trkpt>
      <trkpt lat="45.28556" lon="4.26622">
        <ele>744.4</ele>
        <time>2015-10-03T08:54:57.087Z</time>
      </trkpt>
      <trkpt lat="45.28554" lon="4.26623">
        <ele>744.56</ele>
        <time>2015-10-03T08:54:58.104Z</time>
      </trkpt>
      <trkpt lat="45.2854" lon="4.26626">
        <ele>744.69230769231</ele>
        <time>2015-10-03T08:55:02.097Z</time>
      </trkpt>
      <trkpt lat="45.28531" lon="4.26627">
        <ele>744.80769230769</ele>
        <time>2015-10-03T08:55:05.091Z</time>
      </trkpt>
      <trkpt lat="45.28526" lon="4.26627">
        <ele>744.96153846154</ele>
        <time>2015-10-03T08:55:07.086Z</time>
      </trkpt>
      <trkpt lat="45.28517" lon="4.26627">
        <ele>745.23076923077</ele>
        <time>2015-10-03T08:55:10.066Z</time>
      </trkpt>
      <trkpt lat="45.28509" lon="4.26626">
        <ele>745.46153846154</ele>
        <time>2015-10-03T08:55:13.082Z</time>
      </trkpt>
      <trkpt lat="45.28508" lon="4.26626">
        <ele>745.53846153846</ele>
        <time>2015-10-03T08:55:14.062Z</time>
      </trkpt>
      <trkpt lat="45.28506" lon="4.26626">
        <ele>745.61538461538</ele>
        <time>2015-10-03T08:55:15.055Z</time>
      </trkpt>
      <trkpt lat="45.28497" lon="4.26625">
        <ele>745.96153846154</ele>
        <time>2015-10-03T08:55:18.097Z</time>
      </trkpt>
      <trkpt lat="45.28494" lon="4.26625">
        <ele>746.03846153846</ele>
        <time>2015-10-03T08:55:19.101Z</time>
      </trkpt>
      <trkpt lat="45.28486" lon="4.26625">
        <ele>746.4</ele>
        <time>2015-10-03T08:55:22.100Z</time>
      </trkpt>
      <trkpt lat="45.28478" lon="4.26624">
        <ele>746.72</ele>
        <time>2015-10-03T08:55:25.115Z</time>
      </trkpt>
      <trkpt lat="45.28469" lon="4.26624">
        <ele>747.04</ele>
        <time>2015-10-03T08:55:28.120Z</time>
      </trkpt>
      <trkpt lat="45.28463" lon="4.26625">
        <ele>747.32</ele>
        <time>2015-10-03T08:55:30.103Z</time>
      </trkpt>
      <trkpt lat="45.28457" lon="4.26627">
        <ele>747.44</ele>
        <time>2015-10-03T08:55:32.114Z</time>
      </trkpt>
      <trkpt lat="45.28454" lon="4.26628">
        <ele>747.56</ele>
        <time>2015-10-03T08:55:33.104Z</time>
      </trkpt>
      <trkpt lat="45.28448" lon="4.26631">
        <ele>747.88</ele>
        <time>2015-10-03T08:55:35.111Z</time>
      </trkpt>
      <trkpt lat="45.28443" lon="4.26634">
        <ele>748.16</ele>
        <time>2015-10-03T08:55:37.097Z</time>
      </trkpt>
      <trkpt lat="45.28441" lon="4.26636">
        <ele>748.24</ele>
        <time>2015-10-03T08:55:38.111Z</time>
      </trkpt>
      <trkpt lat="45.28438" lon="4.26637">
        <ele>748.44</ele>
        <time>2015-10-03T08:55:39.120Z</time>
      </trkpt>
      <trkpt lat="45.28436" lon="4.26639">
        <ele>748.6</ele>
        <time>2015-10-03T08:55:40.115Z</time>
      </trkpt>
      <trkpt lat="45.28433" lon="4.2664">
        <ele>748.6</ele>
        <time>2015-10-03T08:55:41.128Z</time>
      </trkpt>
      <trkpt lat="45.28431" lon="4.26641">
        <ele>748.76</ele>
        <time>2015-10-03T08:55:42.135Z</time>
      </trkpt>
      <trkpt lat="45.28426" lon="4.26644">
        <ele>749</ele>
        <time>2015-10-03T08:55:44.097Z</time>
      </trkpt>
      <trkpt lat="45.28421" lon="4.26645">
        <ele>749.4</ele>
        <time>2015-10-03T08:55:46.105Z</time>
      </trkpt>
      <trkpt lat="45.28418" lon="4.26647">
        <ele>749.44</ele>
        <time>2015-10-03T08:55:47.113Z</time>
      </trkpt>
      <trkpt lat="45.28413" lon="4.26649">
        <ele>749.61538461538</ele>
        <time>2015-10-03T08:55:49.104Z</time>
      </trkpt>
      <trkpt lat="45.28408" lon="4.2665">
        <ele>749.80769230769</ele>
        <time>2015-10-03T08:55:51.112Z</time>
      </trkpt>
      <trkpt lat="45.284" lon="4.26651">
        <ele>750.15384615385</ele>
        <time>2015-10-03T08:55:54.096Z</time>
      </trkpt>
      <trkpt lat="45.28392" lon="4.26652">
        <ele>750.46153846154</ele>
        <time>2015-10-03T08:55:57.088Z</time>
      </trkpt>
      <trkpt lat="45.28391" lon="4.26651">
        <ele>750.57692307692</ele>
        <time>2015-10-03T08:55:58.074Z</time>
      </trkpt>
      <trkpt lat="45.28389" lon="4.26651">
        <ele>750.65384615385</ele>
        <time>2015-10-03T08:55:59.051Z</time>
      </trkpt>
      <trkpt lat="45.28386" lon="4.2665">
        <ele>750.65384615385</ele>
        <time>2015-10-03T08:56:00.068Z</time>
      </trkpt>
      <trkpt lat="45.28382" lon="4.26651">
        <ele>750.76</ele>
        <time>2015-10-03T08:56:02.101Z</time>
      </trkpt>
      <trkpt lat="45.28379" lon="4.26652">
        <ele>751.03846153846</ele>
        <time>2015-10-03T08:56:04.056Z</time>
      </trkpt>
      <trkpt lat="45.28378" lon="4.26652">
        <ele>751.07692307692</ele>
        <time>2015-10-03T08:56:05.048Z</time>
      </trkpt>
      <trkpt lat="45.28377" lon="4.26652">
        <ele>751.11538461538</ele>
        <time>2015-10-03T08:56:06.049Z</time>
      </trkpt>
      <trkpt lat="45.28376" lon="4.26652">
        <ele>751.26923076923</ele>
        <time>2015-10-03T08:56:07.054Z</time>
      </trkpt>
      <trkpt lat="45.28375" lon="4.26653">
        <ele>751.26923076923</ele>
        <time>2015-10-03T08:56:08.051Z</time>
      </trkpt>
      <trkpt lat="45.28375" lon="4.26653">
        <ele>751.34615384615</ele>
        <time>2015-10-03T08:56:09.059Z</time>
      </trkpt>
      <trkpt lat="45.28374" lon="4.26653">
        <ele>751.46153846154</ele>
        <time>2015-10-03T08:56:10.046Z</time>
      </trkpt>
      <trkpt lat="45.28373" lon="4.26654">
        <ele>751.5</ele>
        <time>2015-10-03T08:56:11.051Z</time>
      </trkpt>
      <trkpt lat="45.28372" lon="4.26654">
        <ele>751.5</ele>
        <time>2015-10-03T08:56:12.043Z</time>
      </trkpt>
      <trkpt lat="45.28371" lon="4.26655">
        <ele>751.61538461538</ele>
        <time>2015-10-03T08:56:13.051Z</time>
      </trkpt>
      <trkpt lat="45.2837" lon="4.26656">
        <ele>751.88</ele>
        <time>2015-10-03T08:56:17.044Z</time>
      </trkpt>
      <trkpt lat="45.2837" lon="4.26656">
        <ele>751.96</ele>
        <time>2015-10-03T08:56:20.050Z</time>
      </trkpt>
      <trkpt lat="45.2837" lon="4.26656">
        <ele>752.12</ele>
        <time>2015-10-03T08:56:24.034Z</time>
      </trkpt>
      <trkpt lat="45.2837" lon="4.26656">
        <ele>752.24</ele>
        <time>2015-10-03T08:56:27.044Z</time>
      </trkpt>
      <trkpt lat="45.2837" lon="4.26656">
        <ele>752.25</ele>
        <time>2015-10-03T08:56:31.050Z</time>
      </trkpt>
      <trkpt lat="45.2837" lon="4.26656">
        <ele>752.24</ele>
        <time>2015-10-03T08:56:35.044Z</time>
      </trkpt>
      <trkpt lat="45.2837" lon="4.26656">
        <ele>752.24</ele>
        <time>2015-10-03T08:56:38.046Z</time>
      </trkpt>
      <trkpt lat="45.2837" lon="4.26656">
        <ele>752.2</ele>
        <time>2015-10-03T08:56:41.047Z</time>
      </trkpt>
      <trkpt lat="45.2837" lon="4.26656">
        <ele>752.16</ele>
        <time>2015-10-03T08:56:44.051Z</time>
      </trkpt>
      <trkpt lat="45.2837" lon="4.26656">
        <ele>752.24</ele>
        <time>2015-10-03T08:56:48.043Z</time>
      </trkpt>
      <trkpt lat="45.2837" lon="4.26656">
        <ele>752.24</ele>
        <time>2015-10-03T08:56:51.044Z</time>
      </trkpt>
      <trkpt lat="45.2837" lon="4.26656">
        <ele>752.30769230769</ele>
        <time>2015-10-03T08:56:55.037Z</time>
      </trkpt>
      <trkpt lat="45.2837" lon="4.26656">
        <ele>752.24</ele>
        <time>2015-10-03T08:56:57.054Z</time>
      </trkpt>
      <trkpt lat="45.28371" lon="4.26657">
        <ele>752.24</ele>
        <time>2015-10-03T08:56:58.049Z</time>
      </trkpt>
      <trkpt lat="45.28371" lon="4.26658">
        <ele>752.2</ele>
        <time>2015-10-03T08:57:02.049Z</time>
      </trkpt>
      <trkpt lat="45.28371" lon="4.26658">
        <ele>752.26923076923</ele>
        <time>2015-10-03T08:57:06.040Z</time>
      </trkpt>
      <trkpt lat="45.28371" lon="4.26658">
        <ele>752.26923076923</ele>
        <time>2015-10-03T08:57:09.042Z</time>
      </trkpt>
      <trkpt lat="45.28371" lon="4.26658">
        <ele>752.24</ele>
        <time>2015-10-03T08:57:12.045Z</time>
      </trkpt>
      <trkpt lat="45.28371" lon="4.26658">
        <ele>752.28</ele>
        <time>2015-10-03T08:57:15.050Z</time>
      </trkpt>
      <trkpt lat="45.28371" lon="4.26658">
        <ele>752.23076923077</ele>
        <time>2015-10-03T08:57:19.042Z</time>
      </trkpt>
      <trkpt lat="45.28371" lon="4.26658">
        <ele>752.30769230769</ele>
        <time>2015-10-03T08:57:23.048Z</time>
      </trkpt>
      <trkpt lat="45.28371" lon="4.26659">
        <ele>752.38461538462</ele>
        <time>2015-10-03T08:57:27.043Z</time>
      </trkpt>
      <trkpt lat="45.28371" lon="4.26659">
        <ele>752.36</ele>
        <time>2015-10-03T08:57:31.043Z</time>
      </trkpt>
      <trkpt lat="45.2837" lon="4.26658">
        <ele>752.48</ele>
        <time>2015-10-03T08:57:34.044Z</time>
      </trkpt>
      <trkpt lat="45.28369" lon="4.26658">
        <ele>752.56</ele>
        <time>2015-10-03T08:57:37.051Z</time>
      </trkpt>
      <trkpt lat="45.28369" lon="4.26658">
        <ele>752.65384615385</ele>
        <time>2015-10-03T08:57:41.037Z</time>
      </trkpt>
      <trkpt lat="45.28369" lon="4.26658">
        <ele>752.73076923077</ele>
        <time>2015-10-03T08:57:44.040Z</time>
      </trkpt>
      <trkpt lat="45.28369" lon="4.26658">
        <ele>752.8</ele>
        <time>2015-10-03T08:57:47.047Z</time>
      </trkpt>
      <trkpt lat="45.28369" lon="4.26658">
        <ele>752.84615384615</ele>
        <time>2015-10-03T08:57:51.041Z</time>
      </trkpt>
      <trkpt lat="45.28369" lon="4.26658">
        <ele>752.92307692308</ele>
        <time>2015-10-03T08:57:54.042Z</time>
      </trkpt>
      <trkpt lat="45.28368" lon="4.26658">
        <ele>753</ele>
        <time>2015-10-03T08:57:58.041Z</time>
      </trkpt>
      <trkpt lat="45.28368" lon="4.26658">
        <ele>753</ele>
        <time>2015-10-03T08:58:02.038Z</time>
      </trkpt>
      <trkpt lat="45.28368" lon="4.26658">
        <ele>752.96153846154</ele>
        <time>2015-10-03T08:58:05.045Z</time>
      </trkpt>
      <trkpt lat="45.28368" lon="4.26658">
        <ele>752.96</ele>
        <time>2015-10-03T08:58:08.054Z</time>
      </trkpt>
      <trkpt lat="45.28368" lon="4.26658">
        <ele>753</ele>
        <time>2015-10-03T08:58:12.038Z</time>
      </trkpt>
      <trkpt lat="45.28368" lon="4.26658">
        <ele>753</ele>
        <time>2015-10-03T08:58:16.060Z</time>
      </trkpt>
      <trkpt lat="45.28369" lon="4.26659">
        <ele>753</ele>
        <time>2015-10-03T08:58:19.069Z</time>
      </trkpt>
      <trkpt lat="45.28369" lon="4.26659">
        <ele>753.04166666667</ele>
        <time>2015-10-03T08:58:22.070Z</time>
      </trkpt>
      <trkpt lat="45.28369" lon="4.26659">
        <ele>753.08333333333</ele>
        <time>2015-10-03T08:58:26.070Z</time>
      </trkpt>
      <trkpt lat="45.28369" lon="4.26659">
        <ele>753.08333333333</ele>
        <time>2015-10-03T08:58:29.071Z</time>
      </trkpt>
      <trkpt lat="45.28369" lon="4.26659">
        <ele>753.16666666667</ele>
        <time>2015-10-03T08:58:32.082Z</time>
      </trkpt>
      <trkpt lat="45.28369" lon="4.26659">
        <ele>753.20833333333</ele>
        <time>2015-10-03T08:58:35.103Z</time>
      </trkpt>
      <trkpt lat="45.28368" lon="4.26659">
        <ele>753.29166666667</ele>
        <time>2015-10-03T08:58:39.071Z</time>
      </trkpt>
      <trkpt lat="45.28368" lon="4.26659">
        <ele>753.26923076923</ele>
        <time>2015-10-03T08:58:43.062Z</time>
      </trkpt>
      <trkpt lat="45.28368" lon="4.26659">
        <ele>753.38461538462</ele>
        <time>2015-10-03T08:58:46.063Z</time>
      </trkpt>
      <trkpt lat="45.28367" lon="4.2666">
        <ele>753.30769230769</ele>
        <time>2015-10-03T08:58:49.067Z</time>
      </trkpt>
      <trkpt lat="45.28367" lon="4.2666">
        <ele>753.42307692308</ele>
        <time>2015-10-03T08:58:53.066Z</time>
      </trkpt>
      <trkpt lat="45.28367" lon="4.2666">
        <ele>753.5</ele>
        <time>2015-10-03T08:58:57.060Z</time>
      </trkpt>
      <trkpt lat="45.28367" lon="4.2666">
        <ele>753.5</ele>
        <time>2015-10-03T08:59:00.068Z</time>
      </trkpt>
      <trkpt lat="45.28367" lon="4.2666">
        <ele>753.46153846154</ele>
        <time>2015-10-03T08:59:04.063Z</time>
      </trkpt>
      <trkpt lat="45.28367" lon="4.2666">
        <ele>753.48</ele>
        <time>2015-10-03T08:59:07.078Z</time>
      </trkpt>
      <trkpt lat="45.28367" lon="4.2666">
        <ele>753.46153846154</ele>
        <time>2015-10-03T08:59:11.061Z</time>
      </trkpt>
      <trkpt lat="45.28367" lon="4.2666">
        <ele>753.48</ele>
        <time>2015-10-03T08:59:14.075Z</time>
      </trkpt>
      <trkpt lat="45.28367" lon="4.2666">
        <ele>753.36</ele>
        <time>2015-10-03T08:59:18.070Z</time>
      </trkpt>
      <trkpt lat="45.28367" lon="4.2666">
        <ele>753.32</ele>
        <time>2015-10-03T08:59:21.089Z</time>
      </trkpt>
      <trkpt lat="45.28367" lon="4.2666">
        <ele>753.34615384615</ele>
        <time>2015-10-03T08:59:25.061Z</time>
      </trkpt>
      <trkpt lat="45.28367" lon="4.2666">
        <ele>753.26923076923</ele>
        <time>2015-10-03T08:59:29.063Z</time>
      </trkpt>
      <trkpt lat="45.28367" lon="4.2666">
        <ele>753.28</ele>
        <time>2015-10-03T08:59:32.065Z</time>
      </trkpt>
      <trkpt lat="45.28367" lon="4.2666">
        <ele>753.29166666667</ele>
        <time>2015-10-03T08:59:36.071Z</time>
      </trkpt>
      <trkpt lat="45.28367" lon="4.2666">
        <ele>753.24</ele>
        <time>2015-10-03T08:59:40.070Z</time>
      </trkpt>
      <trkpt lat="45.28367" lon="4.2666">
        <ele>753.32</ele>
        <time>2015-10-03T08:59:44.078Z</time>
      </trkpt>
      <trkpt lat="45.28367" lon="4.2666">
        <ele>753.41666666667</ele>
        <time>2015-10-03T08:59:48.075Z</time>
      </trkpt>
      <trkpt lat="45.28367" lon="4.26661">
        <ele>753.45833333333</ele>
        <time>2015-10-03T08:59:50.077Z</time>
      </trkpt>
      <trkpt lat="45.28366" lon="4.26661">
        <ele>753.5</ele>
        <time>2015-10-03T08:59:51.081Z</time>
      </trkpt>
      <trkpt lat="45.28366" lon="4.26662">
        <ele>753.54166666667</ele>
        <time>2015-10-03T08:59:52.099Z</time>
      </trkpt>
      <trkpt lat="45.28365" lon="4.26663">
        <ele>753.5</ele>
        <time>2015-10-03T08:59:53.108Z</time>
      </trkpt>
      <trkpt lat="45.28365" lon="4.26664">
        <ele>753.5</ele>
        <time>2015-10-03T08:59:54.086Z</time>
      </trkpt>
      <trkpt lat="45.28364" lon="4.26665">
        <ele>753.5</ele>
        <time>2015-10-03T08:59:55.093Z</time>
      </trkpt>
      <trkpt lat="45.28363" lon="4.26665">
        <ele>753.52</ele>
        <time>2015-10-03T08:59:56.088Z</time>
      </trkpt>
      <trkpt lat="45.28361" lon="4.26666">
        <ele>753.56</ele>
        <time>2015-10-03T08:59:57.093Z</time>
      </trkpt>
      <trkpt lat="45.28359" lon="4.26666">
        <ele>753.52</ele>
        <time>2015-10-03T08:59:58.075Z</time>
      </trkpt>
      <trkpt lat="45.28356" lon="4.26667">
        <ele>753.52</ele>
        <time>2015-10-03T08:59:59.070Z</time>
      </trkpt>
      <trkpt lat="45.28354" lon="4.26668">
        <ele>753.44</ele>
        <time>2015-10-03T09:00:01.071Z</time>
      </trkpt>
      <trkpt lat="45.28352" lon="4.26669">
        <ele>753.36</ele>
        <time>2015-10-03T09:00:02.041Z</time>
      </trkpt>
      <trkpt lat="45.28349" lon="4.26671">
        <ele>753.4</ele>
        <time>2015-10-03T09:00:03.049Z</time>
      </trkpt>
      <trkpt lat="45.28347" lon="4.26672">
        <ele>753.4</ele>
        <time>2015-10-03T09:00:04.044Z</time>
      </trkpt>
      <trkpt lat="45.28344" lon="4.26675">
        <ele>753.36</ele>
        <time>2015-10-03T09:00:05.059Z</time>
      </trkpt>
      <trkpt lat="45.28342" lon="4.26677">
        <ele>753.375</ele>
        <time>2015-10-03T09:00:06.073Z</time>
      </trkpt>
      <trkpt lat="45.2834" lon="4.26679">
        <ele>753.375</ele>
        <time>2015-10-03T09:00:07.087Z</time>
      </trkpt>
      <trkpt lat="45.28337" lon="4.26681">
        <ele>753.29166666667</ele>
        <time>2015-10-03T09:00:08.080Z</time>
      </trkpt>
      <trkpt lat="45.28336" lon="4.26682">
        <ele>753.24</ele>
        <time>2015-10-03T09:00:09.065Z</time>
      </trkpt>
      <trkpt lat="45.28335" lon="4.26685">
        <ele>753.16</ele>
        <time>2015-10-03T09:00:10.068Z</time>
      </trkpt>
      <trkpt lat="45.28334" lon="4.26687">
        <ele>753.08</ele>
        <time>2015-10-03T09:00:11.068Z</time>
      </trkpt>
      <trkpt lat="45.28331" lon="4.2669">
        <ele>752.96</ele>
        <time>2015-10-03T09:00:12.049Z</time>
      </trkpt>
      <trkpt lat="45.28327" lon="4.26694">
        <ele>752.84</ele>
        <time>2015-10-03T09:00:13.043Z</time>
      </trkpt>
      <trkpt lat="45.28323" lon="4.26699">
        <ele>752.64</ele>
        <time>2015-10-03T09:00:16.047Z</time>
      </trkpt>
      <trkpt lat="45.28319" lon="4.26704">
        <ele>752.52</ele>
        <time>2015-10-03T09:00:17.047Z</time>
      </trkpt>
      <trkpt lat="45.28315" lon="4.26707">
        <ele>752.4</ele>
        <time>2015-10-03T09:00:18.044Z</time>
      </trkpt>
      <trkpt lat="45.28311" lon="4.26711">
        <ele>752.36</ele>
        <time>2015-10-03T09:00:19.052Z</time>
      </trkpt>
      <trkpt lat="45.28308" lon="4.26715">
        <ele>752.32</ele>
        <time>2015-10-03T09:00:20.049Z</time>
      </trkpt>
      <trkpt lat="45.28302" lon="4.2672">
        <ele>752.16</ele>
        <time>2015-10-03T09:00:22.051Z</time>
      </trkpt>
      <trkpt lat="45.28299" lon="4.26722">
        <ele>752.04</ele>
        <time>2015-10-03T09:00:23.045Z</time>
      </trkpt>
      <trkpt lat="45.28297" lon="4.26724">
        <ele>751.96</ele>
        <time>2015-10-03T09:00:24.046Z</time>
      </trkpt>
      <trkpt lat="45.28294" lon="4.26725">
        <ele>751.84</ele>
        <time>2015-10-03T09:00:25.047Z</time>
      </trkpt>
      <trkpt lat="45.28292" lon="4.26726">
        <ele>751.84615384615</ele>
        <time>2015-10-03T09:00:26.056Z</time>
      </trkpt>
      <trkpt lat="45.2829" lon="4.26728">
        <ele>751.84</ele>
        <time>2015-10-03T09:00:27.050Z</time>
      </trkpt>
      <trkpt lat="45.28287" lon="4.2673">
        <ele>751.68</ele>
        <time>2015-10-03T09:00:28.059Z</time>
      </trkpt>
      <trkpt lat="45.28285" lon="4.26732">
        <ele>751.52</ele>
        <time>2015-10-03T09:00:29.052Z</time>
      </trkpt>
      <trkpt lat="45.28283" lon="4.26733">
        <ele>751.42307692308</ele>
        <time>2015-10-03T09:00:30.045Z</time>
      </trkpt>
      <trkpt lat="45.28281" lon="4.26735">
        <ele>751.30769230769</ele>
        <time>2015-10-03T09:00:31.044Z</time>
      </trkpt>
      <trkpt lat="45.28279" lon="4.26736">
        <ele>751.19230769231</ele>
        <time>2015-10-03T09:00:32.042Z</time>
      </trkpt>
      <trkpt lat="45.28277" lon="4.26738">
        <ele>751.07692307692</ele>
        <time>2015-10-03T09:00:33.048Z</time>
      </trkpt>
      <trkpt lat="45.28275" lon="4.26739">
        <ele>751</ele>
        <time>2015-10-03T09:00:34.036Z</time>
      </trkpt>
      <trkpt lat="45.28273" lon="4.26741">
        <ele>750.92307692308</ele>
        <time>2015-10-03T09:00:35.052Z</time>
      </trkpt>
      <trkpt lat="45.28271" lon="4.26742">
        <ele>750.88461538462</ele>
        <time>2015-10-03T09:00:36.047Z</time>
      </trkpt>
      <trkpt lat="45.2827" lon="4.26743">
        <ele>750.76</ele>
        <time>2015-10-03T09:00:37.055Z</time>
      </trkpt>
      <trkpt lat="45.28266" lon="4.26744">
        <ele>750.48</ele>
        <time>2015-10-03T09:00:39.047Z</time>
      </trkpt>
      <trkpt lat="45.28265" lon="4.26743">
        <ele>750.32</ele>
        <time>2015-10-03T09:00:40.045Z</time>
      </trkpt>
      <trkpt lat="45.28264" lon="4.26742">
        <ele>750.28</ele>
        <time>2015-10-03T09:00:41.048Z</time>
      </trkpt>
      <trkpt lat="45.28265" lon="4.26741">
        <ele>750.30769230769</ele>
        <time>2015-10-03T09:00:42.046Z</time>
      </trkpt>
      <trkpt lat="45.28265" lon="4.26739">
        <ele>750.28</ele>
        <time>2015-10-03T09:00:43.047Z</time>
      </trkpt>
      <trkpt lat="45.28266" lon="4.26738">
        <ele>750.30769230769</ele>
        <time>2015-10-03T09:00:44.051Z</time>
      </trkpt>
      <trkpt lat="45.28267" lon="4.26738">
        <ele>750.23076923077</ele>
        <time>2015-10-03T09:00:46.052Z</time>
      </trkpt>
      <trkpt lat="45.28268" lon="4.26737">
        <ele>750.26923076923</ele>
        <time>2015-10-03T09:00:48.042Z</time>
      </trkpt>
      <trkpt lat="45.28268" lon="4.26736">
        <ele>750.36</ele>
        <time>2015-10-03T09:00:50.050Z</time>
      </trkpt>
      <trkpt lat="45.28268" lon="4.26735">
        <ele>750.42307692308</ele>
        <time>2015-10-03T09:00:52.044Z</time>
      </trkpt>
      <trkpt lat="45.28268" lon="4.26734">
        <ele>750.5</ele>
        <time>2015-10-03T09:00:54.046Z</time>
      </trkpt>
      <trkpt lat="45.28267" lon="4.26734">
        <ele>750.76</ele>
        <time>2015-10-03T09:00:55.064Z</time>
      </trkpt>
      <trkpt lat="45.28266" lon="4.26731">
        <ele>751.12</ele>
        <time>2015-10-03T09:00:57.102Z</time>
      </trkpt>
      <trkpt lat="45.28265" lon="4.2673">
        <ele>751.24</ele>
        <time>2015-10-03T09:00:58.106Z</time>
      </trkpt>
      <trkpt lat="45.28264" lon="4.26729">
        <ele>751.4</ele>
        <time>2015-10-03T09:00:59.109Z</time>
      </trkpt>
      <trkpt lat="45.28261" lon="4.26725">
        <ele>751.76</ele>
        <time>2015-10-03T09:01:01.103Z</time>
      </trkpt>
      <trkpt lat="45.2826" lon="4.26724">
        <ele>752.04</ele>
        <time>2015-10-03T09:01:02.115Z</time>
      </trkpt>
      <trkpt lat="45.28259" lon="4.26722">
        <ele>752.28</ele>
        <time>2015-10-03T09:01:03.104Z</time>
      </trkpt>
      <trkpt lat="45.28259" lon="4.2672">
        <ele>752.56</ele>
        <time>2015-10-03T09:01:04.117Z</time>
      </trkpt>
      <trkpt lat="45.28258" lon="4.26719">
        <ele>753</ele>
        <time>2015-10-03T09:01:06.107Z</time>
      </trkpt>
      <trkpt lat="45.28257" lon="4.26718">
        <ele>753.24</ele>
        <time>2015-10-03T09:01:07.104Z</time>
      </trkpt>
      <trkpt lat="45.2825" lon="4.26713">
        <ele>754.2</ele>
        <time>2015-10-03T09:01:11.099Z</time>
      </trkpt>
      <trkpt lat="45.28248" lon="4.26711">
        <ele>754.36</ele>
        <time>2015-10-03T09:01:12.112Z</time>
      </trkpt>
      <trkpt lat="45.28247" lon="4.26709">
        <ele>754.52</ele>
        <time>2015-10-03T09:01:13.106Z</time>
      </trkpt>
      <trkpt lat="45.28247" lon="4.26709">
        <ele>754.8</ele>
        <time>2015-10-03T09:01:14.095Z</time>
      </trkpt>
      <trkpt lat="45.28247" lon="4.26708">
        <ele>755.08</ele>
        <time>2015-10-03T09:01:15.106Z</time>
      </trkpt>
      <trkpt lat="45.28248" lon="4.26708">
        <ele>755.4</ele>
        <time>2015-10-03T09:01:16.096Z</time>
      </trkpt>
      <trkpt lat="45.28249" lon="4.26706">
        <ele>755.68</ele>
        <time>2015-10-03T09:01:17.095Z</time>
      </trkpt>
      <trkpt lat="45.28248" lon="4.26704">
        <ele>755.96</ele>
        <time>2015-10-03T09:01:18.105Z</time>
      </trkpt>
      <trkpt lat="45.28245" lon="4.26699">
        <ele>756.48</ele>
        <time>2015-10-03T09:01:20.096Z</time>
      </trkpt>
      <trkpt lat="45.28242" lon="4.26696">
        <ele>756.88461538462</ele>
        <time>2015-10-03T09:01:22.076Z</time>
      </trkpt>
      <trkpt lat="45.28241" lon="4.26695">
        <ele>757.11538461538</ele>
        <time>2015-10-03T09:01:23.097Z</time>
      </trkpt>
      <trkpt lat="45.2824" lon="4.26696">
        <ele>757.42307692308</ele>
        <time>2015-10-03T09:01:24.102Z</time>
      </trkpt>
      <trkpt lat="45.28238" lon="4.26697">
        <ele>757.69230769231</ele>
        <time>2015-10-03T09:01:25.104Z</time>
      </trkpt>
      <trkpt lat="45.28236" lon="4.26697">
        <ele>757.88461538462</ele>
        <time>2015-10-03T09:01:26.092Z</time>
      </trkpt>
      <trkpt lat="45.28234" lon="4.26697">
        <ele>758.11538461538</ele>
        <time>2015-10-03T09:01:27.070Z</time>
      </trkpt>
      <trkpt lat="45.28232" lon="4.26696">
        <ele>758.30769230769</ele>
        <time>2015-10-03T09:01:28.059Z</time>
      </trkpt>
      <trkpt lat="45.28231" lon="4.26694">
        <ele>758.5</ele>
        <time>2015-10-03T09:01:29.070Z</time>
      </trkpt>
      <trkpt lat="45.2823" lon="4.26692">
        <ele>758.69230769231</ele>
        <time>2015-10-03T09:01:30.091Z</time>
      </trkpt>
      <trkpt lat="45.28229" lon="4.26691">
        <ele>759.04</ele>
        <time>2015-10-03T09:01:31.110Z</time>
      </trkpt>
      <trkpt lat="45.28229" lon="4.2669">
        <ele>759.11538461538</ele>
        <time>2015-10-03T09:01:32.078Z</time>
      </trkpt>
      <trkpt lat="45.28228" lon="4.26689">
        <ele>759.23076923077</ele>
        <time>2015-10-03T09:01:33.050Z</time>
      </trkpt>
      <trkpt lat="45.28228" lon="4.26689">
        <ele>759.42307692308</ele>
        <time>2015-10-03T09:01:34.050Z</time>
      </trkpt>
      <trkpt lat="45.28226" lon="4.26688">
        <ele>759.69230769231</ele>
        <time>2015-10-03T09:01:35.052Z</time>
      </trkpt>
      <trkpt lat="45.28225" lon="4.26686">
        <ele>759.92307692308</ele>
        <time>2015-10-03T09:01:36.070Z</time>
      </trkpt>
      <trkpt lat="45.28223" lon="4.26684">
        <ele>760.15384615385</ele>
        <time>2015-10-03T09:01:37.069Z</time>
      </trkpt>
      <trkpt lat="45.28221" lon="4.26682">
        <ele>760.38461538462</ele>
        <time>2015-10-03T09:01:38.068Z</time>
      </trkpt>
      <trkpt lat="45.28219" lon="4.2668">
        <ele>760.57692307692</ele>
        <time>2015-10-03T09:01:39.082Z</time>
      </trkpt>
      <trkpt lat="45.28216" lon="4.26679">
        <ele>760.76</ele>
        <time>2015-10-03T09:01:40.120Z</time>
      </trkpt>
      <trkpt lat="45.28214" lon="4.26679">
        <ele>760.76</ele>
        <time>2015-10-03T09:01:41.125Z</time>
      </trkpt>
      <trkpt lat="45.28205" lon="4.26677">
        <ele>760.92</ele>
        <time>2015-10-03T09:01:44.160Z</time>
      </trkpt>
      <trkpt lat="45.28194" lon="4.26674">
        <ele>760.8</ele>
        <time>2015-10-03T09:01:48.145Z</time>
      </trkpt>
      <trkpt lat="45.28191" lon="4.26674">
        <ele>760.68</ele>
        <time>2015-10-03T09:01:49.141Z</time>
      </trkpt>
      <trkpt lat="45.28189" lon="4.26674">
        <ele>760.6</ele>
        <time>2015-10-03T09:01:50.153Z</time>
      </trkpt>
      <trkpt lat="45.28177" lon="4.26672">
        <ele>760.12</ele>
        <time>2015-10-03T09:01:54.149Z</time>
      </trkpt>
      <trkpt lat="45.28171" lon="4.26672">
        <ele>759.92</ele>
        <time>2015-10-03T09:01:56.128Z</time>
      </trkpt>
      <trkpt lat="45.28169" lon="4.26673">
        <ele>759.84615384615</ele>
        <time>2015-10-03T09:01:57.078Z</time>
      </trkpt>
      <trkpt lat="45.28167" lon="4.26673">
        <ele>759.73076923077</ele>
        <time>2015-10-03T09:01:58.045Z</time>
      </trkpt>
      <trkpt lat="45.28161" lon="4.26674">
        <ele>759.36</ele>
        <time>2015-10-03T09:02:01.039Z</time>
      </trkpt>
      <trkpt lat="45.28159" lon="4.26674">
        <ele>759.12</ele>
        <time>2015-10-03T09:02:02.046Z</time>
      </trkpt>
      <trkpt lat="45.28156" lon="4.26676">
        <ele>758.88</ele>
        <time>2015-10-03T09:02:03.049Z</time>
      </trkpt>
      <trkpt lat="45.28155" lon="4.26677">
        <ele>758.68</ele>
        <time>2015-10-03T09:02:04.041Z</time>
      </trkpt>
      <trkpt lat="45.28153" lon="4.26678">
        <ele>758.56</ele>
        <time>2015-10-03T09:02:05.072Z</time>
      </trkpt>
      <trkpt lat="45.2815" lon="4.26678">
        <ele>758.29166666667</ele>
        <time>2015-10-03T09:02:06.141Z</time>
      </trkpt>
      <trkpt lat="45.28148" lon="4.26677">
        <ele>758.2</ele>
        <time>2015-10-03T09:02:07.113Z</time>
      </trkpt>
      <trkpt lat="45.28145" lon="4.26677">
        <ele>758.04</ele>
        <time>2015-10-03T09:02:08.063Z</time>
      </trkpt>
      <trkpt lat="45.28143" lon="4.26677">
        <ele>757.92</ele>
        <time>2015-10-03T09:02:09.059Z</time>
      </trkpt>
      <trkpt lat="45.28142" lon="4.26677">
        <ele>757.84</ele>
        <time>2015-10-03T09:02:10.045Z</time>
      </trkpt>
      <trkpt lat="45.2814" lon="4.26677">
        <ele>757.64</ele>
        <time>2015-10-03T09:02:11.063Z</time>
      </trkpt>
      <trkpt lat="45.28137" lon="4.26677">
        <ele>757.56</ele>
        <time>2015-10-03T09:02:12.058Z</time>
      </trkpt>
      <trkpt lat="45.28134" lon="4.26676">
        <ele>757.4</ele>
        <time>2015-10-03T09:02:13.053Z</time>
      </trkpt>
      <trkpt lat="45.28133" lon="4.26676">
        <ele>757.32</ele>
        <time>2015-10-03T09:02:14.043Z</time>
      </trkpt>
      <trkpt lat="45.28131" lon="4.26675">
        <ele>757.2</ele>
        <time>2015-10-03T09:02:15.044Z</time>
      </trkpt>
      <trkpt lat="45.28129" lon="4.26675">
        <ele>757.16</ele>
        <time>2015-10-03T09:02:16.044Z</time>
      </trkpt>
      <trkpt lat="45.28127" lon="4.26675">
        <ele>757</ele>
        <time>2015-10-03T09:02:17.042Z</time>
      </trkpt>
      <trkpt lat="45.28124" lon="4.26675">
        <ele>756.96</ele>
        <time>2015-10-03T09:02:18.034Z</time>
      </trkpt>
      <trkpt lat="45.28119" lon="4.26674">
        <ele>756.88</ele>
        <time>2015-10-03T09:02:20.043Z</time>
      </trkpt>
      <trkpt lat="45.28117" lon="4.26674">
        <ele>756.92</ele>
        <time>2015-10-03T09:02:21.057Z</time>
      </trkpt>
      <trkpt lat="45.28114" lon="4.26674">
        <ele>756.83333333333</ele>
        <time>2015-10-03T09:02:22.080Z</time>
      </trkpt>
      <trkpt lat="45.28111" lon="4.26674">
        <ele>756.79166666667</ele>
        <time>2015-10-03T09:02:23.066Z</time>
      </trkpt>
      <trkpt lat="45.28109" lon="4.26675">
        <ele>756.70833333333</ele>
        <time>2015-10-03T09:02:24.060Z</time>
      </trkpt>
      <trkpt lat="45.28107" lon="4.26676">
        <ele>756.68</ele>
        <time>2015-10-03T09:02:25.053Z</time>
      </trkpt>
      <trkpt lat="45.28105" lon="4.26677">
        <ele>756.6</ele>
        <time>2015-10-03T09:02:26.042Z</time>
      </trkpt>
      <trkpt lat="45.28098" lon="4.26679">
        <ele>756.52</ele>
        <time>2015-10-03T09:02:28.055Z</time>
      </trkpt>
      <trkpt lat="45.28094" lon="4.26679">
        <ele>756.48</ele>
        <time>2015-10-03T09:02:29.045Z</time>
      </trkpt>
      <trkpt lat="45.28091" lon="4.26679">
        <ele>756.46153846154</ele>
        <time>2015-10-03T09:02:30.043Z</time>
      </trkpt>
      <trkpt lat="45.28087" lon="4.2668">
        <ele>756.38461538462</ele>
        <time>2015-10-03T09:02:31.044Z</time>
      </trkpt>
      <trkpt lat="45.28084" lon="4.26681">
        <ele>756.30769230769</ele>
        <time>2015-10-03T09:02:32.066Z</time>
      </trkpt>
      <trkpt lat="45.28083" lon="4.26682">
        <ele>756.26923076923</ele>
        <time>2015-10-03T09:02:33.061Z</time>
      </trkpt>
      <trkpt lat="45.28082" lon="4.26684">
        <ele>756.19230769231</ele>
        <time>2015-10-03T09:02:34.047Z</time>
      </trkpt>
      <trkpt lat="45.2808" lon="4.26686">
        <ele>756</ele>
        <time>2015-10-03T09:02:35.054Z</time>
      </trkpt>
      <trkpt lat="45.28078" lon="4.26688">
        <ele>755.92307692308</ele>
        <time>2015-10-03T09:02:36.047Z</time>
      </trkpt>
      <trkpt lat="45.28076" lon="4.26689">
        <ele>755.84615384615</ele>
        <time>2015-10-03T09:02:37.046Z</time>
      </trkpt>
      <trkpt lat="45.28075" lon="4.26691">
        <ele>755.69230769231</ele>
        <time>2015-10-03T09:02:38.049Z</time>
      </trkpt>
      <trkpt lat="45.28073" lon="4.26692">
        <ele>755.48</ele>
        <time>2015-10-03T09:02:39.052Z</time>
      </trkpt>
      <trkpt lat="45.2807" lon="4.26694">
        <ele>755.36</ele>
        <time>2015-10-03T09:02:40.081Z</time>
      </trkpt>
      <trkpt lat="45.28067" lon="4.26695">
        <ele>755.12</ele>
        <time>2015-10-03T09:02:41.056Z</time>
      </trkpt>
      <trkpt lat="45.28064" lon="4.26696">
        <ele>755.04</ele>
        <time>2015-10-03T09:02:42.057Z</time>
      </trkpt>
      <trkpt lat="45.2806" lon="4.26696">
        <ele>754.84</ele>
        <time>2015-10-03T09:02:43.046Z</time>
      </trkpt>
      <trkpt lat="45.28057" lon="4.26697">
        <ele>754.73076923077</ele>
        <time>2015-10-03T09:02:44.054Z</time>
      </trkpt>
      <trkpt lat="45.28055" lon="4.26698">
        <ele>754.48</ele>
        <time>2015-10-03T09:02:45.054Z</time>
      </trkpt>
      <trkpt lat="45.28053" lon="4.26699">
        <ele>754.42307692308</ele>
        <time>2015-10-03T09:02:46.054Z</time>
      </trkpt>
      <trkpt lat="45.28051" lon="4.26701">
        <ele>754.19230769231</ele>
        <time>2015-10-03T09:02:47.058Z</time>
      </trkpt>
      <trkpt lat="45.2805" lon="4.26703">
        <ele>754</ele>
        <time>2015-10-03T09:02:48.040Z</time>
      </trkpt>
      <trkpt lat="45.28046" lon="4.26708">
        <ele>753.56</ele>
        <time>2015-10-03T09:02:50.089Z</time>
      </trkpt>
      <trkpt lat="45.28043" lon="4.26713">
        <ele>753.24</ele>
        <time>2015-10-03T09:02:52.080Z</time>
      </trkpt>
      <trkpt lat="45.28042" lon="4.26715">
        <ele>753.19230769231</ele>
        <time>2015-10-03T09:02:53.049Z</time>
      </trkpt>
      <trkpt lat="45.28041" lon="4.26718">
        <ele>753</ele>
        <time>2015-10-03T09:02:54.063Z</time>
      </trkpt>
      <trkpt lat="45.2804" lon="4.2672">
        <ele>752.88</ele>
        <time>2015-10-03T09:02:55.077Z</time>
      </trkpt>
      <trkpt lat="45.28038" lon="4.26723">
        <ele>752.76</ele>
        <time>2015-10-03T09:02:56.110Z</time>
      </trkpt>
      <trkpt lat="45.28035" lon="4.26726">
        <ele>752.6</ele>
        <time>2015-10-03T09:02:57.150Z</time>
      </trkpt>
      <trkpt lat="45.28033" lon="4.2673">
        <ele>752.52</ele>
        <time>2015-10-03T09:02:58.124Z</time>
      </trkpt>
      <trkpt lat="45.28025" lon="4.26739">
        <ele>752.48</ele>
        <time>2015-10-03T09:03:01.122Z</time>
      </trkpt>
      <trkpt lat="45.28022" lon="4.26742">
        <ele>752.56</ele>
        <time>2015-10-03T09:03:02.117Z</time>
      </trkpt>
      <trkpt lat="45.28013" lon="4.26751">
        <ele>753</ele>
        <time>2015-10-03T09:03:06.113Z</time>
      </trkpt>
      <trkpt lat="45.28011" lon="4.26753">
        <ele>753</ele>
        <time>2015-10-03T09:03:07.104Z</time>
      </trkpt>
      <trkpt lat="45.28011" lon="4.26755">
        <ele>753.12</ele>
        <time>2015-10-03T09:03:08.097Z</time>
      </trkpt>
      <trkpt lat="45.2801" lon="4.26756">
        <ele>753.24</ele>
        <time>2015-10-03T09:03:09.085Z</time>
      </trkpt>
      <trkpt lat="45.2801" lon="4.26758">
        <ele>753.38461538462</ele>
        <time>2015-10-03T09:03:10.046Z</time>
      </trkpt>
      <trkpt lat="45.2801" lon="4.2676">
        <ele>753.84</ele>
        <time>2015-10-03T09:03:12.098Z</time>
      </trkpt>
      <trkpt lat="45.2801" lon="4.26761">
        <ele>754.04</ele>
        <time>2015-10-03T09:03:13.144Z</time>
      </trkpt>
      <trkpt lat="45.28008" lon="4.26763">
        <ele>754.28</ele>
        <time>2015-10-03T09:03:14.124Z</time>
      </trkpt>
      <trkpt lat="45.28006" lon="4.26764">
        <ele>754.44</ele>
        <time>2015-10-03T09:03:15.099Z</time>
      </trkpt>
      <trkpt lat="45.28003" lon="4.26766">
        <ele>754.64</ele>
        <time>2015-10-03T09:03:16.113Z</time>
      </trkpt>
      <trkpt lat="45.27997" lon="4.26769">
        <ele>755.04</ele>
        <time>2015-10-03T09:03:18.142Z</time>
      </trkpt>
      <trkpt lat="45.27995" lon="4.26771">
        <ele>755.2</ele>
        <time>2015-10-03T09:03:19.136Z</time>
      </trkpt>
      <trkpt lat="45.27994" lon="4.26772">
        <ele>755.4</ele>
        <time>2015-10-03T09:03:20.087Z</time>
      </trkpt>
      <trkpt lat="45.27991" lon="4.26773">
        <ele>755.42307692308</ele>
        <time>2015-10-03T09:03:21.081Z</time>
      </trkpt>
      <trkpt lat="45.27989" lon="4.26776">
        <ele>755.65384615385</ele>
        <time>2015-10-03T09:03:22.107Z</time>
      </trkpt>
      <trkpt lat="45.27986" lon="4.26778">
        <ele>755.92307692308</ele>
        <time>2015-10-03T09:03:23.096Z</time>
      </trkpt>
      <trkpt lat="45.27984" lon="4.2678">
        <ele>756.2</ele>
        <time>2015-10-03T09:03:24.088Z</time>
      </trkpt>
      <trkpt lat="45.27982" lon="4.26783">
        <ele>756.23076923077</ele>
        <time>2015-10-03T09:03:25.119Z</time>
      </trkpt>
      <trkpt lat="45.27977" lon="4.26794">
        <ele>756.53846153846</ele>
        <time>2015-10-03T09:03:28.106Z</time>
      </trkpt>
      <trkpt lat="45.27976" lon="4.26797">
        <ele>756.64</ele>
        <time>2015-10-03T09:03:29.136Z</time>
      </trkpt>
      <trkpt lat="45.27973" lon="4.26803">
        <ele>756.84</ele>
        <time>2015-10-03T09:03:31.155Z</time>
      </trkpt>
      <trkpt lat="45.27972" lon="4.26806">
        <ele>757.08</ele>
        <time>2015-10-03T09:03:32.144Z</time>
      </trkpt>
      <trkpt lat="45.2797" lon="4.26818">
        <ele>757.24</ele>
        <time>2015-10-03T09:03:35.117Z</time>
      </trkpt>
      <trkpt lat="45.27968" lon="4.26824">
        <ele>757.26923076923</ele>
        <time>2015-10-03T09:03:37.094Z</time>
      </trkpt>
      <trkpt lat="45.27967" lon="4.26828">
        <ele>757.30769230769</ele>
        <time>2015-10-03T09:03:38.115Z</time>
      </trkpt>
      <trkpt lat="45.27965" lon="4.26836">
        <ele>757.36</ele>
        <time>2015-10-03T09:03:40.109Z</time>
      </trkpt>
      <trkpt lat="45.27964" lon="4.26839">
        <ele>757.32</ele>
        <time>2015-10-03T09:03:41.126Z</time>
      </trkpt>
      <trkpt lat="45.27963" lon="4.26843">
        <ele>757.32</ele>
        <time>2015-10-03T09:03:42.144Z</time>
      </trkpt>
      <trkpt lat="45.27961" lon="4.26851">
        <ele>757.42307692308</ele>
        <time>2015-10-03T09:03:44.096Z</time>
      </trkpt>
      <trkpt lat="45.2796" lon="4.26854">
        <ele>757.46153846154</ele>
        <time>2015-10-03T09:03:45.057Z</time>
      </trkpt>
      <trkpt lat="45.27958" lon="4.26858">
        <ele>757.52</ele>
        <time>2015-10-03T09:03:46.084Z</time>
      </trkpt>
      <trkpt lat="45.27954" lon="4.26868">
        <ele>757.48</ele>
        <time>2015-10-03T09:03:49.099Z</time>
      </trkpt>
      <trkpt lat="45.27952" lon="4.26871">
        <ele>757.52</ele>
        <time>2015-10-03T09:03:50.134Z</time>
      </trkpt>
      <trkpt lat="45.27951" lon="4.26874">
        <ele>757.57692307692</ele>
        <time>2015-10-03T09:03:51.137Z</time>
      </trkpt>
      <trkpt lat="45.2795" lon="4.2688">
        <ele>757.73076923077</ele>
        <time>2015-10-03T09:03:53.095Z</time>
      </trkpt>
      <trkpt lat="45.27949" lon="4.26882">
        <ele>757.73076923077</ele>
        <time>2015-10-03T09:03:54.073Z</time>
      </trkpt>
      <trkpt lat="45.27948" lon="4.26885">
        <ele>757.84615384615</ele>
        <time>2015-10-03T09:03:55.074Z</time>
      </trkpt>
      <trkpt lat="45.27948" lon="4.26886">
        <ele>757.84615384615</ele>
        <time>2015-10-03T09:03:56.070Z</time>
      </trkpt>
      <trkpt lat="45.27947" lon="4.26887">
        <ele>757.88461538462</ele>
        <time>2015-10-03T09:03:57.059Z</time>
      </trkpt>
      <trkpt lat="45.27946" lon="4.26889">
        <ele>757.96153846154</ele>
        <time>2015-10-03T09:03:58.082Z</time>
      </trkpt>
      <trkpt lat="45.27941" lon="4.26896">
        <ele>758.16666666667</ele>
        <time>2015-10-03T09:04:01.103Z</time>
      </trkpt>
      <trkpt lat="45.27939" lon="4.26898">
        <ele>758.16666666667</ele>
        <time>2015-10-03T09:04:02.147Z</time>
      </trkpt>
      <trkpt lat="45.27939" lon="4.26899">
        <ele>758.24</ele>
        <time>2015-10-03T09:04:03.106Z</time>
      </trkpt>
      <trkpt lat="45.27938" lon="4.26901">
        <ele>758.24</ele>
        <time>2015-10-03T09:04:04.063Z</time>
      </trkpt>
      <trkpt lat="45.27934" lon="4.26907">
        <ele>758.28</ele>
        <time>2015-10-03T09:04:06.126Z</time>
      </trkpt>
      <trkpt lat="45.27932" lon="4.2691">
        <ele>758.36</ele>
        <time>2015-10-03T09:04:07.083Z</time>
      </trkpt>
      <trkpt lat="45.27927" lon="4.26918">
        <ele>758.375</ele>
        <time>2015-10-03T09:04:10.060Z</time>
      </trkpt>
      <trkpt lat="45.27925" lon="4.26921">
        <ele>758.4</ele>
        <time>2015-10-03T09:04:12.049Z</time>
      </trkpt>
      <trkpt lat="45.27923" lon="4.26923">
        <ele>758.36</ele>
        <time>2015-10-03T09:04:13.059Z</time>
      </trkpt>
      <trkpt lat="45.27919" lon="4.26928">
        <ele>758.28</ele>
        <time>2015-10-03T09:04:15.080Z</time>
      </trkpt>
      <trkpt lat="45.27917" lon="4.26931">
        <ele>758.36</ele>
        <time>2015-10-03T09:04:16.131Z</time>
      </trkpt>
      <trkpt lat="45.27915" lon="4.26939">
        <ele>758.33333333333</ele>
        <time>2015-10-03T09:04:18.140Z</time>
      </trkpt>
      <trkpt lat="45.27913" lon="4.26943">
        <ele>758.375</ele>
        <time>2015-10-03T09:04:19.159Z</time>
      </trkpt>
      <trkpt lat="45.2791" lon="4.26948">
        <ele>758.5</ele>
        <time>2015-10-03T09:04:21.149Z</time>
      </trkpt>
      <trkpt lat="45.27909" lon="4.26951">
        <ele>758.58333333333</ele>
        <time>2015-10-03T09:04:22.094Z</time>
      </trkpt>
      <trkpt lat="45.27907" lon="4.26957">
        <ele>758.58333333333</ele>
        <time>2015-10-03T09:04:24.134Z</time>
      </trkpt>
      <trkpt lat="45.27906" lon="4.26962">
        <ele>758.8</ele>
        <time>2015-10-03T09:04:26.131Z</time>
      </trkpt>
      <trkpt lat="45.27906" lon="4.26968">
        <ele>758.84</ele>
        <time>2015-10-03T09:04:28.119Z</time>
      </trkpt>
      <trkpt lat="45.27905" lon="4.26974">
        <ele>759.04</ele>
        <time>2015-10-03T09:04:30.139Z</time>
      </trkpt>
      <trkpt lat="45.27904" lon="4.26979">
        <ele>759.28</ele>
        <time>2015-10-03T09:04:32.105Z</time>
      </trkpt>
      <trkpt lat="45.27904" lon="4.26981">
        <ele>759.44</ele>
        <time>2015-10-03T09:04:33.085Z</time>
      </trkpt>
      <trkpt lat="45.27904" lon="4.26984">
        <ele>759.6</ele>
        <time>2015-10-03T09:04:34.101Z</time>
      </trkpt>
      <trkpt lat="45.27904" lon="4.26987">
        <ele>759.8</ele>
        <time>2015-10-03T09:04:35.108Z</time>
      </trkpt>
      <trkpt lat="45.27904" lon="4.26994">
        <ele>760.48</ele>
        <time>2015-10-03T09:04:38.129Z</time>
      </trkpt>
      <trkpt lat="45.27904" lon="4.26996">
        <ele>760.8</ele>
        <time>2015-10-03T09:04:39.109Z</time>
      </trkpt>
      <trkpt lat="45.27904" lon="4.26998">
        <ele>761.12</ele>
        <time>2015-10-03T09:04:40.103Z</time>
      </trkpt>
      <trkpt lat="45.27903" lon="4.27001">
        <ele>761.30769230769</ele>
        <time>2015-10-03T09:04:42.077Z</time>
      </trkpt>
      <trkpt lat="45.27903" lon="4.27002">
        <ele>761.46153846154</ele>
        <time>2015-10-03T09:04:43.072Z</time>
      </trkpt>
      <trkpt lat="45.27903" lon="4.27004">
        <ele>761.65384615385</ele>
        <time>2015-10-03T09:04:44.097Z</time>
      </trkpt>
      <trkpt lat="45.27902" lon="4.27004">
        <ele>761.84615384615</ele>
        <time>2015-10-03T09:04:45.066Z</time>
      </trkpt>
      <trkpt lat="45.27903" lon="4.27002">
        <ele>762</ele>
        <time>2015-10-03T09:04:46.048Z</time>
      </trkpt>
      <trkpt lat="45.27903" lon="4.26998">
        <ele>762.46153846154</ele>
        <time>2015-10-03T09:04:49.051Z</time>
      </trkpt>
      <trkpt lat="45.27904" lon="4.26998">
        <ele>763</ele>
        <time>2015-10-03T09:04:53.040Z</time>
      </trkpt>
      <trkpt lat="45.27903" lon="4.26998">
        <ele>763.5</ele>
        <time>2015-10-03T09:04:56.044Z</time>
      </trkpt>
      <trkpt lat="45.27903" lon="4.26999">
        <ele>763.88461538462</ele>
        <time>2015-10-03T09:04:59.063Z</time>
      </trkpt>
      <trkpt lat="45.27903" lon="4.27002">
        <ele>764.03846153846</ele>
        <time>2015-10-03T09:05:02.037Z</time>
      </trkpt>
      <trkpt lat="45.27901" lon="4.27002">
        <ele>764.12</ele>
        <time>2015-10-03T09:05:04.126Z</time>
      </trkpt>
      <trkpt lat="45.27901" lon="4.27002">
        <ele>764.12</ele>
        <time>2015-10-03T09:05:05.127Z</time>
      </trkpt>
      <trkpt lat="45.27902" lon="4.27001">
        <ele>764.42307692308</ele>
        <time>2015-10-03T09:05:09.047Z</time>
      </trkpt>
      <trkpt lat="45.27902" lon="4.27001">
        <ele>764.57692307692</ele>
        <time>2015-10-03T09:05:13.046Z</time>
      </trkpt>
      <trkpt lat="45.27902" lon="4.27002">
        <ele>764.61538461538</ele>
        <time>2015-10-03T09:05:14.048Z</time>
      </trkpt>
      <trkpt lat="45.27901" lon="4.27004">
        <ele>764.68</ele>
        <time>2015-10-03T09:05:15.043Z</time>
      </trkpt>
      <trkpt lat="45.27901" lon="4.27007">
        <ele>764.72</ele>
        <time>2015-10-03T09:05:16.050Z</time>
      </trkpt>
      <trkpt lat="45.27901" lon="4.27014">
        <ele>764.96</ele>
        <time>2015-10-03T09:05:19.098Z</time>
      </trkpt>
      <trkpt lat="45.279" lon="4.27015">
        <ele>765.08</ele>
        <time>2015-10-03T09:05:20.133Z</time>
      </trkpt>
      <trkpt lat="45.27899" lon="4.27016">
        <ele>765.16</ele>
        <time>2015-10-03T09:05:21.140Z</time>
      </trkpt>
      <trkpt lat="45.27898" lon="4.27017">
        <ele>765.2</ele>
        <time>2015-10-03T09:05:22.116Z</time>
      </trkpt>
      <trkpt lat="45.27898" lon="4.27016">
        <ele>765.28</ele>
        <time>2015-10-03T09:05:23.123Z</time>
      </trkpt>
      <trkpt lat="45.27898" lon="4.27016">
        <ele>765.24</ele>
        <time>2015-10-03T09:05:24.101Z</time>
      </trkpt>
      <trkpt lat="45.27898" lon="4.27015">
        <ele>765.32</ele>
        <time>2015-10-03T09:05:25.056Z</time>
      </trkpt>
      <trkpt lat="45.27899" lon="4.27014">
        <ele>765.44</ele>
        <time>2015-10-03T09:05:27.061Z</time>
      </trkpt>
      <trkpt lat="45.27899" lon="4.27014">
        <ele>765.5</ele>
        <time>2015-10-03T09:05:28.051Z</time>
      </trkpt>
      <trkpt lat="45.27899" lon="4.27014">
        <ele>765.57692307692</ele>
        <time>2015-10-03T09:05:29.065Z</time>
      </trkpt>
      <trkpt lat="45.279" lon="4.27013">
        <ele>765.84</ele>
        <time>2015-10-03T09:05:33.055Z</time>
      </trkpt>
      <trkpt lat="45.27899" lon="4.27014">
        <ele>765.88</ele>
        <time>2015-10-03T09:05:35.052Z</time>
      </trkpt>
      <trkpt lat="45.27897" lon="4.27014">
        <ele>765.96153846154</ele>
        <time>2015-10-03T09:05:36.040Z</time>
      </trkpt>
      <trkpt lat="45.27895" lon="4.27016">
        <ele>766.12</ele>
        <time>2015-10-03T09:05:37.049Z</time>
      </trkpt>
      <trkpt lat="45.27891" lon="4.27021">
        <ele>766.36</ele>
        <time>2015-10-03T09:05:39.056Z</time>
      </trkpt>
      <trkpt lat="45.2789" lon="4.27023">
        <ele>766.48</ele>
        <time>2015-10-03T09:05:40.090Z</time>
      </trkpt>
      <trkpt lat="45.27889" lon="4.27026">
        <ele>766.56</ele>
        <time>2015-10-03T09:05:41.112Z</time>
      </trkpt>
      <trkpt lat="45.27888" lon="4.27028">
        <ele>766.68</ele>
        <time>2015-10-03T09:05:42.094Z</time>
      </trkpt>
      <trkpt lat="45.27886" lon="4.27031">
        <ele>766.72</ele>
        <time>2015-10-03T09:05:43.113Z</time>
      </trkpt>
      <trkpt lat="45.27885" lon="4.27033">
        <ele>766.84</ele>
        <time>2015-10-03T09:05:44.138Z</time>
      </trkpt>
      <trkpt lat="45.27884" lon="4.27036">
        <ele>766.92</ele>
        <time>2015-10-03T09:05:45.142Z</time>
      </trkpt>
      <trkpt lat="45.27883" lon="4.27041">
        <ele>767.19230769231</ele>
        <time>2015-10-03T09:05:47.110Z</time>
      </trkpt>
      <trkpt lat="45.27881" lon="4.27045">
        <ele>767.64</ele>
        <time>2015-10-03T09:05:49.137Z</time>
      </trkpt>
      <trkpt lat="45.27881" lon="4.27046">
        <ele>767.84</ele>
        <time>2015-10-03T09:05:50.145Z</time>
      </trkpt>
      <trkpt lat="45.2788" lon="4.27047">
        <ele>768</ele>
        <time>2015-10-03T09:05:51.135Z</time>
      </trkpt>
      <trkpt lat="45.27879" lon="4.27052">
        <ele>768.44</ele>
        <time>2015-10-03T09:05:53.126Z</time>
      </trkpt>
      <trkpt lat="45.27879" lon="4.27054">
        <ele>768.6</ele>
        <time>2015-10-03T09:05:54.112Z</time>
      </trkpt>
      <trkpt lat="45.2788" lon="4.27056">
        <ele>768.76</ele>
        <time>2015-10-03T09:05:55.132Z</time>
      </trkpt>
      <trkpt lat="45.2788" lon="4.27058">
        <ele>768.96</ele>
        <time>2015-10-03T09:05:56.139Z</time>
      </trkpt>
      <trkpt lat="45.27881" lon="4.2706">
        <ele>769.16</ele>
        <time>2015-10-03T09:05:57.131Z</time>
      </trkpt>
      <trkpt lat="45.27881" lon="4.27062">
        <ele>769.4</ele>
        <time>2015-10-03T09:05:58.150Z</time>
      </trkpt>
      <trkpt lat="45.27882" lon="4.27065">
        <ele>769.72</ele>
        <time>2015-10-03T09:05:59.150Z</time>
      </trkpt>
      <trkpt lat="45.27882" lon="4.27068">
        <ele>770.08333333333</ele>
        <time>2015-10-03T09:06:01.098Z</time>
      </trkpt>
      <trkpt lat="45.27882" lon="4.27069">
        <ele>770.29166666667</ele>
        <time>2015-10-03T09:06:02.104Z</time>
      </trkpt>
      <trkpt lat="45.27882" lon="4.2707">
        <ele>770.5</ele>
        <time>2015-10-03T09:06:03.113Z</time>
      </trkpt>
      <trkpt lat="45.27882" lon="4.27071">
        <ele>770.75</ele>
        <time>2015-10-03T09:06:04.120Z</time>
      </trkpt>
      <trkpt lat="45.27881" lon="4.27072">
        <ele>770.84</ele>
        <time>2015-10-03T09:06:05.089Z</time>
      </trkpt>
      <trkpt lat="45.27881" lon="4.27073">
        <ele>771.45833333333</ele>
        <time>2015-10-03T09:06:07.095Z</time>
      </trkpt>
      <trkpt lat="45.27882" lon="4.27074">
        <ele>772.04</ele>
        <time>2015-10-03T09:06:11.073Z</time>
      </trkpt>
      <trkpt lat="45.27882" lon="4.27074">
        <ele>772.52</ele>
        <time>2015-10-03T09:06:15.049Z</time>
      </trkpt>
      <trkpt lat="45.27882" lon="4.27074">
        <ele>772.64</ele>
        <time>2015-10-03T09:06:17.045Z</time>
      </trkpt>
      <trkpt lat="45.27881" lon="4.27074">
        <ele>772.72</ele>
        <time>2015-10-03T09:06:18.045Z</time>
      </trkpt>
      <trkpt lat="45.27881" lon="4.27074">
        <ele>773.04</ele>
        <time>2015-10-03T09:06:22.047Z</time>
      </trkpt>
      <trkpt lat="45.27881" lon="4.27074">
        <ele>773.08</ele>
        <time>2015-10-03T09:06:25.051Z</time>
      </trkpt>
      <trkpt lat="45.27881" lon="4.27074">
        <ele>773.11538461538</ele>
        <time>2015-10-03T09:06:28.055Z</time>
      </trkpt>
      <trkpt lat="45.27881" lon="4.27074">
        <ele>773.11538461538</ele>
        <time>2015-10-03T09:06:29.051Z</time>
      </trkpt>
      <trkpt lat="45.2788" lon="4.27075">
        <ele>773.11538461538</ele>
        <time>2015-10-03T09:06:30.062Z</time>
      </trkpt>
      <trkpt lat="45.27879" lon="4.27077">
        <ele>773.15384615385</ele>
        <time>2015-10-03T09:06:31.083Z</time>
      </trkpt>
      <trkpt lat="45.27879" lon="4.27079">
        <ele>773.15384615385</ele>
        <time>2015-10-03T09:06:32.049Z</time>
      </trkpt>
      <trkpt lat="45.27878" lon="4.27082">
        <ele>773.30769230769</ele>
        <time>2015-10-03T09:06:34.042Z</time>
      </trkpt>
      <trkpt lat="45.27877" lon="4.27085">
        <ele>773.34615384615</ele>
        <time>2015-10-03T09:06:35.046Z</time>
      </trkpt>
      <trkpt lat="45.27877" lon="4.27087">
        <ele>773.46153846154</ele>
        <time>2015-10-03T09:06:36.044Z</time>
      </trkpt>
      <trkpt lat="45.27877" lon="4.2709">
        <ele>773.56</ele>
        <time>2015-10-03T09:06:37.053Z</time>
      </trkpt>
      <trkpt lat="45.27876" lon="4.27091">
        <ele>773.61538461538</ele>
        <time>2015-10-03T09:06:38.054Z</time>
      </trkpt>
      <trkpt lat="45.27876" lon="4.27092">
        <ele>773.69230769231</ele>
        <time>2015-10-03T09:06:39.043Z</time>
      </trkpt>
      <trkpt lat="45.27875" lon="4.27093">
        <ele>773.84615384615</ele>
        <time>2015-10-03T09:06:40.047Z</time>
      </trkpt>
      <trkpt lat="45.27875" lon="4.27093">
        <ele>774.04</ele>
        <time>2015-10-03T09:06:41.053Z</time>
      </trkpt>
      <trkpt lat="45.27875" lon="4.27093">
        <ele>774.15384615385</ele>
        <time>2015-10-03T09:06:42.041Z</time>
      </trkpt>
      <trkpt lat="45.27875" lon="4.27093">
        <ele>774.26923076923</ele>
        <time>2015-10-03T09:06:43.043Z</time>
      </trkpt>
      <trkpt lat="45.27875" lon="4.27094">
        <ele>774.56</ele>
        <time>2015-10-03T09:06:45.049Z</time>
      </trkpt>
      <trkpt lat="45.27875" lon="4.27096">
        <ele>774.72</ele>
        <time>2015-10-03T09:06:46.056Z</time>
      </trkpt>
      <trkpt lat="45.27875" lon="4.27097">
        <ele>774.92</ele>
        <time>2015-10-03T09:06:47.056Z</time>
      </trkpt>
      <trkpt lat="45.27874" lon="4.27099">
        <ele>775.28</ele>
        <time>2015-10-03T09:06:49.044Z</time>
      </trkpt>
      <trkpt lat="45.27874" lon="4.27101">
        <ele>775.64</ele>
        <time>2015-10-03T09:06:51.062Z</time>
      </trkpt>
      <trkpt lat="45.27874" lon="4.27102">
        <ele>775.8</ele>
        <time>2015-10-03T09:06:52.087Z</time>
      </trkpt>
      <trkpt lat="45.27875" lon="4.27105">
        <ele>775.96</ele>
        <time>2015-10-03T09:06:53.094Z</time>
      </trkpt>
      <trkpt lat="45.27875" lon="4.27106">
        <ele>776.2</ele>
        <time>2015-10-03T09:06:54.081Z</time>
      </trkpt>
      <trkpt lat="45.27874" lon="4.27109">
        <ele>776.56</ele>
        <time>2015-10-03T09:06:56.093Z</time>
      </trkpt>
      <trkpt lat="45.27874" lon="4.27111">
        <ele>776.72</ele>
        <time>2015-10-03T09:06:57.086Z</time>
      </trkpt>
      <trkpt lat="45.27874" lon="4.27113">
        <ele>777.08</ele>
        <time>2015-10-03T09:06:59.105Z</time>
      </trkpt>
      <trkpt lat="45.27873" lon="4.27115">
        <ele>777.36</ele>
        <time>2015-10-03T09:07:01.089Z</time>
      </trkpt>
      <trkpt lat="45.27872" lon="4.27116">
        <ele>777.68</ele>
        <time>2015-10-03T09:07:03.082Z</time>
      </trkpt>
      <trkpt lat="45.27871" lon="4.27119">
        <ele>777.96</ele>
        <time>2015-10-03T09:07:05.090Z</time>
      </trkpt>
      <trkpt lat="45.27871" lon="4.27119">
        <ele>778.08</ele>
        <time>2015-10-03T09:07:07.097Z</time>
      </trkpt>
      <trkpt lat="45.2787" lon="4.2712">
        <ele>778.4</ele>
        <time>2015-10-03T09:07:09.097Z</time>
      </trkpt>
      <trkpt lat="45.2787" lon="4.27121">
        <ele>778.48</ele>
        <time>2015-10-03T09:07:10.099Z</time>
      </trkpt>
      <trkpt lat="45.2787" lon="4.27121">
        <ele>778.6</ele>
        <time>2015-10-03T09:07:11.091Z</time>
      </trkpt>
      <trkpt lat="45.2787" lon="4.27123">
        <ele>778.72</ele>
        <time>2015-10-03T09:07:12.073Z</time>
      </trkpt>
      <trkpt lat="45.27869" lon="4.27125">
        <ele>778.84</ele>
        <time>2015-10-03T09:07:14.097Z</time>
      </trkpt>
      <trkpt lat="45.27868" lon="4.27126">
        <ele>779.16</ele>
        <time>2015-10-03T09:07:16.086Z</time>
      </trkpt>
      <trkpt lat="45.27868" lon="4.27127">
        <ele>779.28</ele>
        <time>2015-10-03T09:07:17.097Z</time>
      </trkpt>
      <trkpt lat="45.27866" lon="4.27131">
        <ele>779.80769230769</ele>
        <time>2015-10-03T09:07:21.093Z</time>
      </trkpt>
      <trkpt lat="45.27863" lon="4.27136">
        <ele>780.19230769231</ele>
        <time>2015-10-03T09:07:24.092Z</time>
      </trkpt>
      <trkpt lat="45.27863" lon="4.27138">
        <ele>780.30769230769</ele>
        <time>2015-10-03T09:07:25.088Z</time>
      </trkpt>
      <trkpt lat="45.27862" lon="4.2714">
        <ele>780.5</ele>
        <time>2015-10-03T09:07:26.079Z</time>
      </trkpt>
      <trkpt lat="45.27862" lon="4.27141">
        <ele>780.69230769231</ele>
        <time>2015-10-03T09:07:27.077Z</time>
      </trkpt>
      <trkpt lat="45.27861" lon="4.27143">
        <ele>780.92</ele>
        <time>2015-10-03T09:07:28.083Z</time>
      </trkpt>
      <trkpt lat="45.27861" lon="4.27144">
        <ele>781.08</ele>
        <time>2015-10-03T09:07:29.091Z</time>
      </trkpt>
      <trkpt lat="45.2786" lon="4.27145">
        <ele>781.11538461538</ele>
        <time>2015-10-03T09:07:30.087Z</time>
      </trkpt>
      <trkpt lat="45.2786" lon="4.27146">
        <ele>781.23076923077</ele>
        <time>2015-10-03T09:07:31.088Z</time>
      </trkpt>
      <trkpt lat="45.27859" lon="4.27147">
        <ele>781.42307692308</ele>
        <time>2015-10-03T09:07:32.081Z</time>
      </trkpt>
      <trkpt lat="45.27859" lon="4.27148">
        <ele>781.57692307692</ele>
        <time>2015-10-03T09:07:33.077Z</time>
      </trkpt>
      <trkpt lat="45.27858" lon="4.27149">
        <ele>781.73076923077</ele>
        <time>2015-10-03T09:07:34.080Z</time>
      </trkpt>
      <trkpt lat="45.27856" lon="4.27151">
        <ele>782.15384615385</ele>
        <time>2015-10-03T09:07:36.088Z</time>
      </trkpt>
      <trkpt lat="45.27855" lon="4.27152">
        <ele>782.56</ele>
        <time>2015-10-03T09:07:38.083Z</time>
      </trkpt>
      <trkpt lat="45.27854" lon="4.27153">
        <ele>782.65384615385</ele>
        <time>2015-10-03T09:07:39.069Z</time>
      </trkpt>
      <trkpt lat="45.27852" lon="4.27154">
        <ele>783.04</ele>
        <time>2015-10-03T09:07:41.100Z</time>
      </trkpt>
      <trkpt lat="45.2785" lon="4.27156">
        <ele>783.32</ele>
        <time>2015-10-03T09:07:43.149Z</time>
      </trkpt>
      <trkpt lat="45.27848" lon="4.27159">
        <ele>783.64</ele>
        <time>2015-10-03T09:07:45.104Z</time>
      </trkpt>
      <trkpt lat="45.27848" lon="4.2716">
        <ele>783.76</ele>
        <time>2015-10-03T09:07:46.137Z</time>
      </trkpt>
      <trkpt lat="45.27847" lon="4.27162">
        <ele>783.92</ele>
        <time>2015-10-03T09:07:47.115Z</time>
      </trkpt>
      <trkpt lat="45.27847" lon="4.27163">
        <ele>784</ele>
        <time>2015-10-03T09:07:48.084Z</time>
      </trkpt>
      <trkpt lat="45.27846" lon="4.27164">
        <ele>784.19230769231</ele>
        <time>2015-10-03T09:07:49.077Z</time>
      </trkpt>
      <trkpt lat="45.27846" lon="4.27165">
        <ele>784.44</ele>
        <time>2015-10-03T09:07:50.107Z</time>
      </trkpt>
      <trkpt lat="45.27845" lon="4.27166">
        <ele>784.56</ele>
        <time>2015-10-03T09:07:51.113Z</time>
      </trkpt>
      <trkpt lat="45.27845" lon="4.27167">
        <ele>784.68</ele>
        <time>2015-10-03T09:07:52.097Z</time>
      </trkpt>
      <trkpt lat="45.27844" lon="4.2717">
        <ele>785</ele>
        <time>2015-10-03T09:07:54.114Z</time>
      </trkpt>
      <trkpt lat="45.27843" lon="4.27172">
        <ele>785.4</ele>
        <time>2015-10-03T09:07:56.092Z</time>
      </trkpt>
      <trkpt lat="45.27842" lon="4.27173">
        <ele>785.46153846154</ele>
        <time>2015-10-03T09:07:57.081Z</time>
      </trkpt>
      <trkpt lat="45.27841" lon="4.27175">
        <ele>785.88461538462</ele>
        <time>2015-10-03T09:07:59.077Z</time>
      </trkpt>
      <trkpt lat="45.27839" lon="4.27179">
        <ele>786.30769230769</ele>
        <time>2015-10-03T09:08:02.113Z</time>
      </trkpt>
      <trkpt lat="45.27838" lon="4.27182">
        <ele>786.72</ele>
        <time>2015-10-03T09:08:04.133Z</time>
      </trkpt>
      <trkpt lat="45.27838" lon="4.27183">
        <ele>786.84</ele>
        <time>2015-10-03T09:08:05.111Z</time>
      </trkpt>
      <trkpt lat="45.27837" lon="4.27187">
        <ele>787.11538461538</ele>
        <time>2015-10-03T09:08:07.110Z</time>
      </trkpt>
      <trkpt lat="45.27837" lon="4.27189">
        <ele>787.30769230769</ele>
        <time>2015-10-03T09:08:08.114Z</time>
      </trkpt>
      <trkpt lat="45.27836" lon="4.27191">
        <ele>787.46153846154</ele>
        <time>2015-10-03T09:08:09.116Z</time>
      </trkpt>
      <trkpt lat="45.27836" lon="4.27192">
        <ele>787.61538461538</ele>
        <time>2015-10-03T09:08:10.090Z</time>
      </trkpt>
      <trkpt lat="45.27835" lon="4.27193">
        <ele>787.76923076923</ele>
        <time>2015-10-03T09:08:11.080Z</time>
      </trkpt>
      <trkpt lat="45.27835" lon="4.27194">
        <ele>787.84615384615</ele>
        <time>2015-10-03T09:08:12.094Z</time>
      </trkpt>
      <trkpt lat="45.27833" lon="4.27194">
        <ele>788.24</ele>
        <time>2015-10-03T09:08:14.105Z</time>
      </trkpt>
      <trkpt lat="45.27833" lon="4.27194">
        <ele>788.34615384615</ele>
        <time>2015-10-03T09:08:15.072Z</time>
      </trkpt>
      <trkpt lat="45.27832" lon="4.27195">
        <ele>788.34615384615</ele>
        <time>2015-10-03T09:08:16.076Z</time>
      </trkpt>
      <trkpt lat="45.27832" lon="4.27197">
        <ele>788.5</ele>
        <time>2015-10-03T09:08:17.075Z</time>
      </trkpt>
      <trkpt lat="45.27831" lon="4.27201">
        <ele>788.96153846154</ele>
        <time>2015-10-03T09:08:20.078Z</time>
      </trkpt>
      <trkpt lat="45.2783" lon="4.27202">
        <ele>789.23076923077</ele>
        <time>2015-10-03T09:08:22.079Z</time>
      </trkpt>
      <trkpt lat="45.27828" lon="4.27203">
        <ele>789.52</ele>
        <time>2015-10-03T09:08:24.086Z</time>
      </trkpt>
      <trkpt lat="45.27825" lon="4.27206">
        <ele>789.88461538462</ele>
        <time>2015-10-03T09:08:28.076Z</time>
      </trkpt>
      <trkpt lat="45.27824" lon="4.27207">
        <ele>790</ele>
        <time>2015-10-03T09:08:29.086Z</time>
      </trkpt>
      <trkpt lat="45.27822" lon="4.2721">
        <ele>790.23076923077</ele>
        <time>2015-10-03T09:08:31.091Z</time>
      </trkpt>
      <trkpt lat="45.27822" lon="4.27211">
        <ele>790.34615384615</ele>
        <time>2015-10-03T09:08:32.087Z</time>
      </trkpt>
      <trkpt lat="45.27821" lon="4.27212">
        <ele>790.38461538462</ele>
        <time>2015-10-03T09:08:33.072Z</time>
      </trkpt>
      <trkpt lat="45.27821" lon="4.27213">
        <ele>790.5</ele>
        <time>2015-10-03T09:08:34.087Z</time>
      </trkpt>
      <trkpt lat="45.2782" lon="4.27214">
        <ele>790.65384615385</ele>
        <time>2015-10-03T09:08:35.087Z</time>
      </trkpt>
      <trkpt lat="45.27819" lon="4.27215">
        <ele>790.69230769231</ele>
        <time>2015-10-03T09:08:36.078Z</time>
      </trkpt>
      <trkpt lat="45.27818" lon="4.27217">
        <ele>790.80769230769</ele>
        <time>2015-10-03T09:08:37.073Z</time>
      </trkpt>
      <trkpt lat="45.27817" lon="4.2722">
        <ele>791</ele>
        <time>2015-10-03T09:08:38.070Z</time>
      </trkpt>
      <trkpt lat="45.27816" lon="4.27223">
        <ele>791.11538461538</ele>
        <time>2015-10-03T09:08:39.075Z</time>
      </trkpt>
      <trkpt lat="45.27816" lon="4.27227">
        <ele>791.2</ele>
        <time>2015-10-03T09:08:40.083Z</time>
      </trkpt>
      <trkpt lat="45.27815" lon="4.27229">
        <ele>791.44</ele>
        <time>2015-10-03T09:08:41.083Z</time>
      </trkpt>
      <trkpt lat="45.27815" lon="4.27231">
        <ele>791.6</ele>
        <time>2015-10-03T09:08:42.078Z</time>
      </trkpt>
      <trkpt lat="45.27813" lon="4.27233">
        <ele>791.68</ele>
        <time>2015-10-03T09:08:43.080Z</time>
      </trkpt>
      <trkpt lat="45.27811" lon="4.27237">
        <ele>792.07692307692</ele>
        <time>2015-10-03T09:08:46.069Z</time>
      </trkpt>
      <trkpt lat="45.27809" lon="4.27239">
        <ele>792.30769230769</ele>
        <time>2015-10-03T09:08:48.075Z</time>
      </trkpt>
      <trkpt lat="45.27807" lon="4.27243">
        <ele>792.69230769231</ele>
        <time>2015-10-03T09:08:51.070Z</time>
      </trkpt>
      <trkpt lat="45.27807" lon="4.27244">
        <ele>792.84</ele>
        <time>2015-10-03T09:08:52.082Z</time>
      </trkpt>
      <trkpt lat="45.27807" lon="4.27245">
        <ele>793.08</ele>
        <time>2015-10-03T09:08:53.099Z</time>
      </trkpt>
      <trkpt lat="45.27806" lon="4.27245">
        <ele>793.28</ele>
        <time>2015-10-03T09:08:54.100Z</time>
      </trkpt>
      <trkpt lat="45.27806" lon="4.27244">
        <ele>793.44</ele>
        <time>2015-10-03T09:08:55.094Z</time>
      </trkpt>
      <trkpt lat="45.27808" lon="4.27242">
        <ele>793.96153846154</ele>
        <time>2015-10-03T09:08:59.055Z</time>
      </trkpt>
      <trkpt lat="45.27807" lon="4.27244">
        <ele>794.19230769231</ele>
        <time>2015-10-03T09:09:01.060Z</time>
      </trkpt>
      <trkpt lat="45.27805" lon="4.27246">
        <ele>794.46153846154</ele>
        <time>2015-10-03T09:09:03.042Z</time>
      </trkpt>
      <trkpt lat="45.27804" lon="4.27246">
        <ele>794.57692307692</ele>
        <time>2015-10-03T09:09:04.054Z</time>
      </trkpt>
      <trkpt lat="45.27803" lon="4.27246">
        <ele>794.69230769231</ele>
        <time>2015-10-03T09:09:05.081Z</time>
      </trkpt>
      <trkpt lat="45.27802" lon="4.27246">
        <ele>794.84615384615</ele>
        <time>2015-10-03T09:09:06.071Z</time>
      </trkpt>
      <trkpt lat="45.278" lon="4.27245">
        <ele>794.92307692308</ele>
        <time>2015-10-03T09:09:07.056Z</time>
      </trkpt>
      <trkpt lat="45.27799" lon="4.27243">
        <ele>795.08</ele>
        <time>2015-10-03T09:09:08.085Z</time>
      </trkpt>
      <trkpt lat="45.27798" lon="4.27242">
        <ele>795.07692307692</ele>
        <time>2015-10-03T09:09:09.081Z</time>
      </trkpt>
      <trkpt lat="45.27796" lon="4.27243">
        <ele>795.07692307692</ele>
        <time>2015-10-03T09:09:10.064Z</time>
      </trkpt>
      <trkpt lat="45.27796" lon="4.27244">
        <ele>795.16</ele>
        <time>2015-10-03T09:09:11.079Z</time>
      </trkpt>
      <trkpt lat="45.27796" lon="4.27246">
        <ele>795.24</ele>
        <time>2015-10-03T09:09:12.076Z</time>
      </trkpt>
      <trkpt lat="45.27797" lon="4.27247">
        <ele>795.26923076923</ele>
        <time>2015-10-03T09:09:13.065Z</time>
      </trkpt>
      <trkpt lat="45.27799" lon="4.2725">
        <ele>795.30769230769</ele>
        <time>2015-10-03T09:09:14.065Z</time>
      </trkpt>
      <trkpt lat="45.278" lon="4.2725">
        <ele>795.38461538462</ele>
        <time>2015-10-03T09:09:15.045Z</time>
      </trkpt>
      <trkpt lat="45.27801" lon="4.27251">
        <ele>795.46153846154</ele>
        <time>2015-10-03T09:09:16.045Z</time>
      </trkpt>
      <trkpt lat="45.27801" lon="4.27251">
        <ele>795.46153846154</ele>
        <time>2015-10-03T09:09:17.044Z</time>
      </trkpt>
      <trkpt lat="45.27801" lon="4.2725">
        <ele>795.5</ele>
        <time>2015-10-03T09:09:18.038Z</time>
      </trkpt>
      <trkpt lat="45.27802" lon="4.2725">
        <ele>795.57692307692</ele>
        <time>2015-10-03T09:09:19.046Z</time>
      </trkpt>
      <trkpt lat="45.27803" lon="4.27249">
        <ele>795.61538461538</ele>
        <time>2015-10-03T09:09:20.049Z</time>
      </trkpt>
      <trkpt lat="45.27802" lon="4.27248">
        <ele>795.69230769231</ele>
        <time>2015-10-03T09:09:21.053Z</time>
      </trkpt>
      <trkpt lat="45.278" lon="4.27248">
        <ele>795.76</ele>
        <time>2015-10-03T09:09:22.053Z</time>
      </trkpt>
      <trkpt lat="45.27799" lon="4.27249">
        <ele>795.8</ele>
        <time>2015-10-03T09:09:23.059Z</time>
      </trkpt>
      <trkpt lat="45.27797" lon="4.27251">
        <ele>795.92</ele>
        <time>2015-10-03T09:09:24.080Z</time>
      </trkpt>
      <trkpt lat="45.27796" lon="4.27252">
        <ele>795.96</ele>
        <time>2015-10-03T09:09:25.084Z</time>
      </trkpt>
      <trkpt lat="45.27795" lon="4.27252">
        <ele>796</ele>
        <time>2015-10-03T09:09:26.060Z</time>
      </trkpt>
      <trkpt lat="45.27793" lon="4.27253">
        <ele>796.12</ele>
        <time>2015-10-03T09:09:27.112Z</time>
      </trkpt>
      <trkpt lat="45.27792" lon="4.27253">
        <ele>796.24</ele>
        <time>2015-10-03T09:09:28.111Z</time>
      </trkpt>
      <trkpt lat="45.27791" lon="4.27253">
        <ele>796.28</ele>
        <time>2015-10-03T09:09:29.072Z</time>
      </trkpt>
      <trkpt lat="45.2779" lon="4.27254">
        <ele>796.4</ele>
        <time>2015-10-03T09:09:30.138Z</time>
      </trkpt>
      <trkpt lat="45.27788" lon="4.27256">
        <ele>796.5</ele>
        <time>2015-10-03T09:09:31.065Z</time>
      </trkpt>
      <trkpt lat="45.27787" lon="4.27257">
        <ele>796.6</ele>
        <time>2015-10-03T09:09:32.077Z</time>
      </trkpt>
      <trkpt lat="45.27785" lon="4.27259">
        <ele>796.73076923077</ele>
        <time>2015-10-03T09:09:33.084Z</time>
      </trkpt>
      <trkpt lat="45.27784" lon="4.27261">
        <ele>797</ele>
        <time>2015-10-03T09:09:34.105Z</time>
      </trkpt>
      <trkpt lat="45.27781" lon="4.27263">
        <ele>797.28</ele>
        <time>2015-10-03T09:09:36.082Z</time>
      </trkpt>
      <trkpt lat="45.27779" lon="4.27268">
        <ele>797.84</ele>
        <time>2015-10-03T09:09:39.084Z</time>
      </trkpt>
      <trkpt lat="45.27777" lon="4.2727">
        <ele>798.28</ele>
        <time>2015-10-03T09:09:41.078Z</time>
      </trkpt>
      <trkpt lat="45.27774" lon="4.27277">
        <ele>799.24</ele>
        <time>2015-10-03T09:09:45.059Z</time>
      </trkpt>
      <trkpt lat="45.27773" lon="4.27278">
        <ele>799.48</ele>
        <time>2015-10-03T09:09:46.055Z</time>
      </trkpt>
      <trkpt lat="45.2777" lon="4.27283">
        <ele>800.11538461538</ele>
        <time>2015-10-03T09:09:49.079Z</time>
      </trkpt>
      <trkpt lat="45.27769" lon="4.27285">
        <ele>800.57692307692</ele>
        <time>2015-10-03T09:09:51.043Z</time>
      </trkpt>
      <trkpt lat="45.27769" lon="4.27286">
        <ele>800.88461538462</ele>
        <time>2015-10-03T09:09:52.048Z</time>
      </trkpt>
      <trkpt lat="45.27767" lon="4.27292">
        <ele>801.53846153846</ele>
        <time>2015-10-03T09:09:55.085Z</time>
      </trkpt>
      <trkpt lat="45.27765" lon="4.27294">
        <ele>802.03846153846</ele>
        <time>2015-10-03T09:09:57.048Z</time>
      </trkpt>
      <trkpt lat="45.27765" lon="4.27295">
        <ele>802.26923076923</ele>
        <time>2015-10-03T09:09:58.046Z</time>
      </trkpt>
      <trkpt lat="45.27764" lon="4.27297">
        <ele>802.46153846154</ele>
        <time>2015-10-03T09:09:59.046Z</time>
      </trkpt>
      <trkpt lat="45.27763" lon="4.27299">
        <ele>802.92307692308</ele>
        <time>2015-10-03T09:10:01.062Z</time>
      </trkpt>
      <trkpt lat="45.27763" lon="4.27301">
        <ele>803.26923076923</ele>
        <time>2015-10-03T09:10:02.038Z</time>
      </trkpt>
      <trkpt lat="45.27762" lon="4.27302">
        <ele>803.53846153846</ele>
        <time>2015-10-03T09:10:03.042Z</time>
      </trkpt>
      <trkpt lat="45.27761" lon="4.27302">
        <ele>803.80769230769</ele>
        <time>2015-10-03T09:10:04.037Z</time>
      </trkpt>
      <trkpt lat="45.27759" lon="4.27303">
        <ele>804.19230769231</ele>
        <time>2015-10-03T09:10:06.043Z</time>
      </trkpt>
      <trkpt lat="45.27758" lon="4.27303">
        <ele>804.46153846154</ele>
        <time>2015-10-03T09:10:08.049Z</time>
      </trkpt>
      <trkpt lat="45.27754" lon="4.27302">
        <ele>805</ele>
        <time>2015-10-03T09:10:11.056Z</time>
      </trkpt>
      <trkpt lat="45.27753" lon="4.27301">
        <ele>805</ele>
        <time>2015-10-03T09:10:12.050Z</time>
      </trkpt>
      <trkpt lat="45.27751" lon="4.273">
        <ele>805.19230769231</ele>
        <time>2015-10-03T09:10:14.050Z</time>
      </trkpt>
      <trkpt lat="45.2775" lon="4.273">
        <ele>805.30769230769</ele>
        <time>2015-10-03T09:10:15.052Z</time>
      </trkpt>
      <trkpt lat="45.27748" lon="4.273">
        <ele>805.46153846154</ele>
        <time>2015-10-03T09:10:15.309Z</time>
      </trkpt>
      <trkpt lat="45.27747" lon="4.27301">
        <ele>805.61538461538</ele>
        <time>2015-10-03T09:10:16.290Z</time>
      </trkpt>
      <trkpt lat="45.27746" lon="4.27303">
        <ele>805.73076923077</ele>
        <time>2015-10-03T09:10:17.293Z</time>
      </trkpt>
      <trkpt lat="45.27744" lon="4.27304">
        <ele>805.96153846154</ele>
        <time>2015-10-03T09:10:18.305Z</time>
      </trkpt>
      <trkpt lat="45.27743" lon="4.27305">
        <ele>806.11538461538</ele>
        <time>2015-10-03T09:10:19.318Z</time>
      </trkpt>
      <trkpt lat="45.27742" lon="4.27306">
        <ele>806.19230769231</ele>
        <time>2015-10-03T09:10:20.299Z</time>
      </trkpt>
      <trkpt lat="45.2774" lon="4.27306">
        <ele>806.30769230769</ele>
        <time>2015-10-03T09:10:21.306Z</time>
      </trkpt>
      <trkpt lat="45.27737" lon="4.27307">
        <ele>806.57692307692</ele>
        <time>2015-10-03T09:10:23.306Z</time>
      </trkpt>
      <trkpt lat="45.27731" lon="4.27309">
        <ele>806.96153846154</ele>
        <time>2015-10-03T09:10:26.331Z</time>
      </trkpt>
      <trkpt lat="45.27727" lon="4.2731">
        <ele>807.11538461538</ele>
        <time>2015-10-03T09:10:28.336Z</time>
      </trkpt>
      <trkpt lat="45.27726" lon="4.27311">
        <ele>807.15384615385</ele>
        <time>2015-10-03T09:10:29.344Z</time>
      </trkpt>
      <trkpt lat="45.27724" lon="4.27312">
        <ele>807.23076923077</ele>
        <time>2015-10-03T09:10:30.361Z</time>
      </trkpt>
      <trkpt lat="45.27719" lon="4.27313">
        <ele>807.53846153846</ele>
        <time>2015-10-03T09:10:33.395Z</time>
      </trkpt>
      <trkpt lat="45.27714" lon="4.27313">
        <ele>807.84615384615</ele>
        <time>2015-10-03T09:10:36.387Z</time>
      </trkpt>
      <trkpt lat="45.27715" lon="4.27313">
        <ele>808</ele>
        <time>2015-10-03T09:10:37.333Z</time>
      </trkpt>
      <trkpt lat="45.27715" lon="4.27312">
        <ele>808.11538461538</ele>
        <time>2015-10-03T09:10:38.321Z</time>
      </trkpt>
      <trkpt lat="45.27715" lon="4.27312">
        <ele>808.26923076923</ele>
        <time>2015-10-03T09:10:39.320Z</time>
      </trkpt>
      <trkpt lat="45.27714" lon="4.27312">
        <ele>808.48</ele>
        <time>2015-10-03T09:10:40.329Z</time>
      </trkpt>
      <trkpt lat="45.27713" lon="4.27311">
        <ele>808.52</ele>
        <time>2015-10-03T09:10:41.366Z</time>
      </trkpt>
      <trkpt lat="45.27712" lon="4.2731">
        <ele>808.64</ele>
        <time>2015-10-03T09:10:43.349Z</time>
      </trkpt>
      <trkpt lat="45.27713" lon="4.2731">
        <ele>809</ele>
        <time>2015-10-03T09:10:46.307Z</time>
      </trkpt>
      <trkpt lat="45.27713" lon="4.27311">
        <ele>809.16</ele>
        <time>2015-10-03T09:10:48.312Z</time>
      </trkpt>
      <trkpt lat="45.27713" lon="4.27312">
        <ele>809.2</ele>
        <time>2015-10-03T09:10:49.327Z</time>
      </trkpt>
      <trkpt lat="45.27712" lon="4.27311">
        <ele>809.23076923077</ele>
        <time>2015-10-03T09:10:51.309Z</time>
      </trkpt>
      <trkpt lat="45.27712" lon="4.27312">
        <ele>809.26923076923</ele>
        <time>2015-10-03T09:10:52.297Z</time>
      </trkpt>
      <trkpt lat="45.27712" lon="4.27311">
        <ele>809.30769230769</ele>
        <time>2015-10-03T09:10:54.294Z</time>
      </trkpt>
      <trkpt lat="45.27713" lon="4.27311">
        <ele>809.65384615385</ele>
        <time>2015-10-03T09:10:57.323Z</time>
      </trkpt>
      <trkpt lat="45.27713" lon="4.27311">
        <ele>809.84615384615</ele>
        <time>2015-10-03T09:11:01.302Z</time>
      </trkpt>
      <trkpt lat="45.27713" lon="4.27311">
        <ele>809.92307692308</ele>
        <time>2015-10-03T09:11:02.297Z</time>
      </trkpt>
      <trkpt lat="45.27712" lon="4.27311">
        <ele>810</ele>
        <time>2015-10-03T09:11:03.298Z</time>
      </trkpt>
      <trkpt lat="45.27713" lon="4.27311">
        <ele>810</ele>
        <time>2015-10-03T09:11:04.310Z</time>
      </trkpt>
      <trkpt lat="45.27714" lon="4.2731">
        <ele>810.08</ele>
        <time>2015-10-03T09:11:05.347Z</time>
      </trkpt>
      <trkpt lat="45.27713" lon="4.27309">
        <ele>810.16</ele>
        <time>2015-10-03T09:11:06.372Z</time>
      </trkpt>
      <trkpt lat="45.27715" lon="4.27312">
        <ele>810.24</ele>
        <time>2015-10-03T09:11:08.378Z</time>
      </trkpt>
      <trkpt lat="45.27716" lon="4.27313">
        <ele>810.2</ele>
        <time>2015-10-03T09:11:09.408Z</time>
      </trkpt>
      <trkpt lat="45.27717" lon="4.27313">
        <ele>810.2</ele>
        <time>2015-10-03T09:11:10.362Z</time>
      </trkpt>
      <trkpt lat="45.27715" lon="4.27312">
        <ele>810.15384615385</ele>
        <time>2015-10-03T09:11:14.312Z</time>
      </trkpt>
      <trkpt lat="45.27714" lon="4.27312">
        <ele>810.2</ele>
        <time>2015-10-03T09:11:18.309Z</time>
      </trkpt>
      <trkpt lat="45.27715" lon="4.27312">
        <ele>810.2</ele>
        <time>2015-10-03T09:11:19.300Z</time>
      </trkpt>
      <trkpt lat="45.27715" lon="4.27312">
        <ele>810.2</ele>
        <time>2015-10-03T09:11:20.313Z</time>
      </trkpt>
      <trkpt lat="45.27715" lon="4.27312">
        <ele>810.15384615385</ele>
        <time>2015-10-03T09:11:24.302Z</time>
      </trkpt>
      <trkpt lat="45.27715" lon="4.27312">
        <ele>810.12</ele>
        <time>2015-10-03T09:11:27.309Z</time>
      </trkpt>
      <trkpt lat="45.27715" lon="4.27312">
        <ele>810.11538461538</ele>
        <time>2015-10-03T09:11:31.306Z</time>
      </trkpt>
      <trkpt lat="45.27715" lon="4.27312">
        <ele>810</ele>
        <time>2015-10-03T09:11:34.310Z</time>
      </trkpt>
      <trkpt lat="45.27715" lon="4.27311">
        <ele>809.96153846154</ele>
        <time>2015-10-03T09:11:38.308Z</time>
      </trkpt>
      <trkpt lat="45.27715" lon="4.27312">
        <ele>810</ele>
        <time>2015-10-03T09:11:40.317Z</time>
      </trkpt>
      <trkpt lat="45.27715" lon="4.27312">
        <ele>810</ele>
        <time>2015-10-03T09:11:41.304Z</time>
      </trkpt>
      <trkpt lat="45.27715" lon="4.27312">
        <ele>809.88</ele>
        <time>2015-10-03T09:11:44.308Z</time>
      </trkpt>
      <trkpt lat="45.27714" lon="4.27312">
        <ele>809.84</ele>
        <time>2015-10-03T09:11:47.316Z</time>
      </trkpt>
      <trkpt lat="45.27713" lon="4.27312">
        <ele>809.8</ele>
        <time>2015-10-03T09:11:51.311Z</time>
      </trkpt>
      <trkpt lat="45.27713" lon="4.27312">
        <ele>809.76</ele>
        <time>2015-10-03T09:11:55.314Z</time>
      </trkpt>
      <trkpt lat="45.27713" lon="4.27312">
        <ele>809.6</ele>
        <time>2015-10-03T09:11:58.318Z</time>
      </trkpt>
      <trkpt lat="45.27713" lon="4.27313">
        <ele>809.65384615385</ele>
        <time>2015-10-03T09:11:59.306Z</time>
      </trkpt>
      <trkpt lat="45.27713" lon="4.27313">
        <ele>809.64</ele>
        <time>2015-10-03T09:12:00.318Z</time>
      </trkpt>
      <trkpt lat="45.27713" lon="4.27313">
        <ele>809.61538461538</ele>
        <time>2015-10-03T09:12:02.302Z</time>
      </trkpt>
      <trkpt lat="45.27712" lon="4.27313">
        <ele>809.68</ele>
        <time>2015-10-03T09:12:03.315Z</time>
      </trkpt>
      <trkpt lat="45.27712" lon="4.27313">
        <ele>809.65384615385</ele>
        <time>2015-10-03T09:12:07.301Z</time>
      </trkpt>
      <trkpt lat="45.27713" lon="4.27313">
        <ele>809.69230769231</ele>
        <time>2015-10-03T09:12:11.302Z</time>
      </trkpt>
      <trkpt lat="45.27713" lon="4.27313">
        <ele>809.68</ele>
        <time>2015-10-03T09:12:14.307Z</time>
      </trkpt>
      <trkpt lat="45.27713" lon="4.27313">
        <ele>809.72</ele>
        <time>2015-10-03T09:12:18.301Z</time>
      </trkpt>
      <trkpt lat="45.27713" lon="4.27313">
        <ele>809.69230769231</ele>
        <time>2015-10-03T09:12:22.312Z</time>
      </trkpt>
      <trkpt lat="45.27713" lon="4.27313">
        <ele>809.88</ele>
        <time>2015-10-03T09:12:26.303Z</time>
      </trkpt>
      <trkpt lat="45.27713" lon="4.27312">
        <ele>809.80769230769</ele>
        <time>2015-10-03T09:12:30.313Z</time>
      </trkpt>
      <trkpt lat="45.27713" lon="4.27312">
        <ele>809.88</ele>
        <time>2015-10-03T09:12:34.313Z</time>
      </trkpt>
      <trkpt lat="45.27713" lon="4.27312">
        <ele>809.92</ele>
        <time>2015-10-03T09:12:38.322Z</time>
      </trkpt>
      <trkpt lat="45.27713" lon="4.27313">
        <ele>809.88</ele>
        <time>2015-10-03T09:12:42.317Z</time>
      </trkpt>
      <trkpt lat="45.27712" lon="4.27313">
        <ele>809.84</ele>
        <time>2015-10-03T09:12:46.305Z</time>
      </trkpt>
      <trkpt lat="45.27712" lon="4.27313">
        <ele>809.88461538462</ele>
        <time>2015-10-03T09:12:50.297Z</time>
      </trkpt>
      <trkpt lat="45.27712" lon="4.27313">
        <ele>809.88</ele>
        <time>2015-10-03T09:12:53.304Z</time>
      </trkpt>
      <trkpt lat="45.27712" lon="4.27313">
        <ele>809.84</ele>
        <time>2015-10-03T09:12:56.310Z</time>
      </trkpt>
      <trkpt lat="45.27712" lon="4.27312">
        <ele>809.84</ele>
        <time>2015-10-03T09:12:59.321Z</time>
      </trkpt>
      <trkpt lat="45.27712" lon="4.27312">
        <ele>809.88461538462</ele>
        <time>2015-10-03T09:13:03.302Z</time>
      </trkpt>
      <trkpt lat="45.27713" lon="4.27312">
        <ele>809.88461538462</ele>
        <time>2015-10-03T09:13:04.298Z</time>
      </trkpt>
      <trkpt lat="45.27713" lon="4.27312">
        <ele>809.88</ele>
        <time>2015-10-03T09:13:05.314Z</time>
      </trkpt>
      <trkpt lat="45.27712" lon="4.27311">
        <ele>809.96</ele>
        <time>2015-10-03T09:13:09.305Z</time>
      </trkpt>
      <trkpt lat="45.27712" lon="4.27311">
        <ele>810</ele>
        <time>2015-10-03T09:13:12.311Z</time>
      </trkpt>
      <trkpt lat="45.27712" lon="4.27311">
        <ele>809.96</ele>
        <time>2015-10-03T09:13:14.306Z</time>
      </trkpt>
      <trkpt lat="45.27711" lon="4.27312">
        <ele>809.96</ele>
        <time>2015-10-03T09:13:15.329Z</time>
      </trkpt>
      <trkpt lat="45.27708" lon="4.27313">
        <ele>810</ele>
        <time>2015-10-03T09:13:17.306Z</time>
      </trkpt>
      <trkpt lat="45.27707" lon="4.27314">
        <ele>809.96</ele>
        <time>2015-10-03T09:13:18.321Z</time>
      </trkpt>
      <trkpt lat="45.27704" lon="4.27316">
        <ele>810.08</ele>
        <time>2015-10-03T09:13:20.313Z</time>
      </trkpt>
      <trkpt lat="45.27702" lon="4.27316">
        <ele>810.11538461538</ele>
        <time>2015-10-03T09:13:21.304Z</time>
      </trkpt>
      <trkpt lat="45.27701" lon="4.27316">
        <ele>810.15384615385</ele>
        <time>2015-10-03T09:13:22.309Z</time>
      </trkpt>
      <trkpt lat="45.277" lon="4.27315">
        <ele>810.12</ele>
        <time>2015-10-03T09:13:23.328Z</time>
      </trkpt>
      <trkpt lat="45.27698" lon="4.27314">
        <ele>810.08</ele>
        <time>2015-10-03T09:13:24.368Z</time>
      </trkpt>
      <trkpt lat="45.27697" lon="4.27314">
        <ele>810.24</ele>
        <time>2015-10-03T09:13:25.334Z</time>
      </trkpt>
      <trkpt lat="45.27696" lon="4.27312">
        <ele>810.36</ele>
        <time>2015-10-03T09:13:26.326Z</time>
      </trkpt>
      <trkpt lat="45.27695" lon="4.2731">
        <ele>810.44</ele>
        <time>2015-10-03T09:13:27.333Z</time>
      </trkpt>
      <trkpt lat="45.27694" lon="4.27308">
        <ele>810.56</ele>
        <time>2015-10-03T09:13:28.316Z</time>
      </trkpt>
      <trkpt lat="45.27693" lon="4.27306">
        <ele>810.68</ele>
        <time>2015-10-03T09:13:29.350Z</time>
      </trkpt>
      <trkpt lat="45.27692" lon="4.27304">
        <ele>810.8</ele>
        <time>2015-10-03T09:13:30.373Z</time>
      </trkpt>
      <trkpt lat="45.2769" lon="4.27302">
        <ele>810.92</ele>
        <time>2015-10-03T09:13:31.380Z</time>
      </trkpt>
      <trkpt lat="45.27689" lon="4.27301">
        <ele>811</ele>
        <time>2015-10-03T09:13:32.366Z</time>
      </trkpt>
      <trkpt lat="45.27687" lon="4.273">
        <ele>811.24</ele>
        <time>2015-10-03T09:13:33.364Z</time>
      </trkpt>
      <trkpt lat="45.27685" lon="4.27299">
        <ele>811.36</ele>
        <time>2015-10-03T09:13:34.394Z</time>
      </trkpt>
      <trkpt lat="45.27683" lon="4.27299">
        <ele>811.48</ele>
        <time>2015-10-03T09:13:35.396Z</time>
      </trkpt>
      <trkpt lat="45.27683" lon="4.27299">
        <ele>811.6</ele>
        <time>2015-10-03T09:13:36.349Z</time>
      </trkpt>
      <trkpt lat="45.27682" lon="4.27299">
        <ele>811.68</ele>
        <time>2015-10-03T09:13:37.312Z</time>
      </trkpt>
      <trkpt lat="45.2768" lon="4.27299">
        <ele>811.88</ele>
        <time>2015-10-03T09:13:38.308Z</time>
      </trkpt>
      <trkpt lat="45.27678" lon="4.27299">
        <ele>811.96</ele>
        <time>2015-10-03T09:13:39.337Z</time>
      </trkpt>
      <trkpt lat="45.27675" lon="4.27298">
        <ele>812.12</ele>
        <time>2015-10-03T09:13:40.373Z</time>
      </trkpt>
      <trkpt lat="45.27667" lon="4.27296">
        <ele>812.52</ele>
        <time>2015-10-03T09:13:43.378Z</time>
      </trkpt>
      <trkpt lat="45.2766" lon="4.27294">
        <ele>812.8</ele>
        <time>2015-10-03T09:13:46.382Z</time>
      </trkpt>
      <trkpt lat="45.27651" lon="4.27291">
        <ele>813.24</ele>
        <time>2015-10-03T09:13:49.390Z</time>
      </trkpt>
      <trkpt lat="45.2764" lon="4.27287">
        <ele>813.32</ele>
        <time>2015-10-03T09:13:53.395Z</time>
      </trkpt>
      <trkpt lat="45.27637" lon="4.27285">
        <ele>813.36</ele>
        <time>2015-10-03T09:13:54.364Z</time>
      </trkpt>
      <trkpt lat="45.27634" lon="4.27283">
        <ele>813.30769230769</ele>
        <time>2015-10-03T09:13:55.340Z</time>
      </trkpt>
      <trkpt lat="45.27627" lon="4.27276">
        <ele>813.36</ele>
        <time>2015-10-03T09:13:58.391Z</time>
      </trkpt>
      <trkpt lat="45.27619" lon="4.27269">
        <ele>813.52</ele>
        <time>2015-10-03T09:14:01.412Z</time>
      </trkpt>
      <trkpt lat="45.27617" lon="4.27267">
        <ele>813.52</ele>
        <time>2015-10-03T09:14:02.386Z</time>
      </trkpt>
      <trkpt lat="45.27615" lon="4.27264">
        <ele>813.6</ele>
        <time>2015-10-03T09:14:03.383Z</time>
      </trkpt>
      <trkpt lat="45.27613" lon="4.27262">
        <ele>813.64</ele>
        <time>2015-10-03T09:14:04.399Z</time>
      </trkpt>
      <trkpt lat="45.27611" lon="4.27259">
        <ele>813.64</ele>
        <time>2015-10-03T09:14:05.407Z</time>
      </trkpt>
      <trkpt lat="45.27604" lon="4.27251">
        <ele>813.8</ele>
        <time>2015-10-03T09:14:08.419Z</time>
      </trkpt>
      <trkpt lat="45.27601" lon="4.27249">
        <ele>813.84</ele>
        <time>2015-10-03T09:14:09.405Z</time>
      </trkpt>
      <trkpt lat="45.27599" lon="4.27247">
        <ele>813.92307692308</ele>
        <time>2015-10-03T09:14:10.390Z</time>
      </trkpt>
      <trkpt lat="45.27594" lon="4.27242">
        <ele>814.12</ele>
        <time>2015-10-03T09:14:12.432Z</time>
      </trkpt>
      <trkpt lat="45.27591" lon="4.27239">
        <ele>814.24</ele>
        <time>2015-10-03T09:14:13.426Z</time>
      </trkpt>
      <trkpt lat="45.2759" lon="4.27236">
        <ele>814.28</ele>
        <time>2015-10-03T09:14:14.407Z</time>
      </trkpt>
      <trkpt lat="45.27586" lon="4.27228">
        <ele>814.48</ele>
        <time>2015-10-03T09:14:17.413Z</time>
      </trkpt>
      <trkpt lat="45.27584" lon="4.27226">
        <ele>814.56</ele>
        <time>2015-10-03T09:14:18.421Z</time>
      </trkpt>
      <trkpt lat="45.27581" lon="4.27223">
        <ele>814.72</ele>
        <time>2015-10-03T09:14:20.398Z</time>
      </trkpt>
      <trkpt lat="45.27578" lon="4.2722">
        <ele>814.96</ele>
        <time>2015-10-03T09:14:22.415Z</time>
      </trkpt>
      <trkpt lat="45.27571" lon="4.27213">
        <ele>815.46153846154</ele>
        <time>2015-10-03T09:14:26.350Z</time>
      </trkpt>
      <trkpt lat="45.27566" lon="4.27208">
        <ele>815.73076923077</ele>
        <time>2015-10-03T09:14:29.394Z</time>
      </trkpt>
      <trkpt lat="45.27564" lon="4.27205">
        <ele>815.96153846154</ele>
        <time>2015-10-03T09:14:31.355Z</time>
      </trkpt>
      <trkpt lat="45.27562" lon="4.27204">
        <ele>816.07692307692</ele>
        <time>2015-10-03T09:14:32.321Z</time>
      </trkpt>
      <trkpt lat="45.27555" lon="4.27195">
        <ele>816.53846153846</ele>
        <time>2015-10-03T09:14:36.315Z</time>
      </trkpt>
      <trkpt lat="45.27553" lon="4.27193">
        <ele>816.65384615385</ele>
        <time>2015-10-03T09:14:37.347Z</time>
      </trkpt>
      <trkpt lat="45.27553" lon="4.27192">
        <ele>816.76923076923</ele>
        <time>2015-10-03T09:14:38.333Z</time>
      </trkpt>
      <trkpt lat="45.27551" lon="4.2719">
        <ele>816.84615384615</ele>
        <time>2015-10-03T09:14:39.302Z</time>
      </trkpt>
      <trkpt lat="45.27547" lon="4.27185">
        <ele>817.08</ele>
        <time>2015-10-03T09:14:41.305Z</time>
      </trkpt>
      <trkpt lat="45.27543" lon="4.27182">
        <ele>817.32</ele>
        <time>2015-10-03T09:14:43.303Z</time>
      </trkpt>
      <trkpt lat="45.27542" lon="4.2718">
        <ele>817.52</ele>
        <time>2015-10-03T09:14:44.315Z</time>
      </trkpt>
      <trkpt lat="45.2754" lon="4.27179">
        <ele>817.68</ele>
        <time>2015-10-03T09:14:45.307Z</time>
      </trkpt>
      <trkpt lat="45.27539" lon="4.27177">
        <ele>817.88</ele>
        <time>2015-10-03T09:14:46.314Z</time>
      </trkpt>
      <trkpt lat="45.27537" lon="4.27175">
        <ele>818.08</ele>
        <time>2015-10-03T09:14:47.325Z</time>
      </trkpt>
      <trkpt lat="45.27533" lon="4.2717">
        <ele>818.28</ele>
        <time>2015-10-03T09:14:50.331Z</time>
      </trkpt>
      <trkpt lat="45.27532" lon="4.27169">
        <ele>818.32</ele>
        <time>2015-10-03T09:14:51.318Z</time>
      </trkpt>
      <trkpt lat="45.27531" lon="4.27168">
        <ele>818.36</ele>
        <time>2015-10-03T09:14:52.332Z</time>
      </trkpt>
      <trkpt lat="45.2753" lon="4.27166">
        <ele>818.48</ele>
        <time>2015-10-03T09:14:53.313Z</time>
      </trkpt>
      <trkpt lat="45.27529" lon="4.27164">
        <ele>818.56</ele>
        <time>2015-10-03T09:14:54.300Z</time>
      </trkpt>
      <trkpt lat="45.27527" lon="4.27162">
        <ele>818.68</ele>
        <time>2015-10-03T09:14:55.302Z</time>
      </trkpt>
      <trkpt lat="45.27526" lon="4.2716">
        <ele>818.84</ele>
        <time>2015-10-03T09:14:56.306Z</time>
      </trkpt>
      <trkpt lat="45.27522" lon="4.27155">
        <ele>819.20833333333</ele>
        <time>2015-10-03T09:14:59.365Z</time>
      </trkpt>
      <trkpt lat="45.27521" lon="4.27154">
        <ele>819.33333333333</ele>
        <time>2015-10-03T09:15:00.315Z</time>
      </trkpt>
      <trkpt lat="45.27519" lon="4.27151">
        <ele>819.52</ele>
        <time>2015-10-03T09:15:03.299Z</time>
      </trkpt>
      <trkpt lat="45.27518" lon="4.2715">
        <ele>819.64</ele>
        <time>2015-10-03T09:15:04.291Z</time>
      </trkpt>
      <trkpt lat="45.27516" lon="4.27147">
        <ele>819.92</ele>
        <time>2015-10-03T09:15:06.315Z</time>
      </trkpt>
      <trkpt lat="45.27514" lon="4.27142">
        <ele>820</ele>
        <time>2015-10-03T09:15:08.338Z</time>
      </trkpt>
      <trkpt lat="45.27514" lon="4.27139">
        <ele>820.03846153846</ele>
        <time>2015-10-03T09:15:09.312Z</time>
      </trkpt>
      <trkpt lat="45.27514" lon="4.27136">
        <ele>820.12</ele>
        <time>2015-10-03T09:15:10.319Z</time>
      </trkpt>
      <trkpt lat="45.27515" lon="4.27134">
        <ele>820.11538461538</ele>
        <time>2015-10-03T09:15:11.300Z</time>
      </trkpt>
      <trkpt lat="45.27515" lon="4.27133">
        <ele>820.15384615385</ele>
        <time>2015-10-03T09:15:12.300Z</time>
      </trkpt>
      <trkpt lat="45.27515" lon="4.27133">
        <ele>820.26923076923</ele>
        <time>2015-10-03T09:15:13.307Z</time>
      </trkpt>
      <trkpt lat="45.27514" lon="4.27131">
        <ele>820.34615384615</ele>
        <time>2015-10-03T09:15:14.298Z</time>
      </trkpt>
      <trkpt lat="45.27514" lon="4.27129">
        <ele>820.42307692308</ele>
        <time>2015-10-03T09:15:15.297Z</time>
      </trkpt>
      <trkpt lat="45.27514" lon="4.27127">
        <ele>820.53846153846</ele>
        <time>2015-10-03T09:15:16.316Z</time>
      </trkpt>
      <trkpt lat="45.27513" lon="4.27124">
        <ele>820.65384615385</ele>
        <time>2015-10-03T09:15:17.319Z</time>
      </trkpt>
      <trkpt lat="45.27513" lon="4.27122">
        <ele>820.73076923077</ele>
        <time>2015-10-03T09:15:18.306Z</time>
      </trkpt>
      <trkpt lat="45.27513" lon="4.2712">
        <ele>820.88</ele>
        <time>2015-10-03T09:15:19.305Z</time>
      </trkpt>
      <trkpt lat="45.27512" lon="4.27114">
        <ele>821.08</ele>
        <time>2015-10-03T09:15:21.314Z</time>
      </trkpt>
      <trkpt lat="45.27512" lon="4.27113">
        <ele>821.07692307692</ele>
        <time>2015-10-03T09:15:22.297Z</time>
      </trkpt>
      <trkpt lat="45.27511" lon="4.2711">
        <ele>821.07692307692</ele>
        <time>2015-10-03T09:15:23.302Z</time>
      </trkpt>
      <trkpt lat="45.2751" lon="4.27101">
        <ele>821.16</ele>
        <time>2015-10-03T09:15:26.302Z</time>
      </trkpt>
      <trkpt lat="45.2751" lon="4.27098">
        <ele>821.24</ele>
        <time>2015-10-03T09:15:27.319Z</time>
      </trkpt>
      <trkpt lat="45.27509" lon="4.27093">
        <ele>821.2</ele>
        <time>2015-10-03T09:15:29.334Z</time>
      </trkpt>
      <trkpt lat="45.27508" lon="4.27091">
        <ele>821.16</ele>
        <time>2015-10-03T09:15:30.308Z</time>
      </trkpt>
      <trkpt lat="45.27507" lon="4.27082">
        <ele>821.26923076923</ele>
        <time>2015-10-03T09:15:33.323Z</time>
      </trkpt>
      <trkpt lat="45.27505" lon="4.27071">
        <ele>821.4</ele>
        <time>2015-10-03T09:15:37.316Z</time>
      </trkpt>
      <trkpt lat="45.27503" lon="4.27063">
        <ele>821.44</ele>
        <time>2015-10-03T09:15:40.303Z</time>
      </trkpt>
      <trkpt lat="45.27502" lon="4.27059">
        <ele>821.5</ele>
        <time>2015-10-03T09:15:42.307Z</time>
      </trkpt>
      <trkpt lat="45.27501" lon="4.27056">
        <ele>821.52</ele>
        <time>2015-10-03T09:15:43.321Z</time>
      </trkpt>
      <trkpt lat="45.27501" lon="4.27053">
        <ele>821.44</ele>
        <time>2015-10-03T09:15:44.317Z</time>
      </trkpt>
      <trkpt lat="45.27499" lon="4.27046">
        <ele>821.36</ele>
        <time>2015-10-03T09:15:46.323Z</time>
      </trkpt>
      <trkpt lat="45.27496" lon="4.27035">
        <ele>821.44</ele>
        <time>2015-10-03T09:15:49.311Z</time>
      </trkpt>
      <trkpt lat="45.27496" lon="4.27032">
        <ele>821.48</ele>
        <time>2015-10-03T09:15:50.335Z</time>
      </trkpt>
      <trkpt lat="45.27495" lon="4.2703">
        <ele>821.48</ele>
        <time>2015-10-03T09:15:51.325Z</time>
      </trkpt>
      <trkpt lat="45.27495" lon="4.27028">
        <ele>821.5</ele>
        <time>2015-10-03T09:15:52.302Z</time>
      </trkpt>
      <trkpt lat="45.27494" lon="4.27022">
        <ele>821.5</ele>
        <time>2015-10-03T09:15:54.310Z</time>
      </trkpt>
      <trkpt lat="45.27494" lon="4.2702">
        <ele>821.56</ele>
        <time>2015-10-03T09:15:55.310Z</time>
      </trkpt>
      <trkpt lat="45.27494" lon="4.27017">
        <ele>821.52</ele>
        <time>2015-10-03T09:15:56.316Z</time>
      </trkpt>
      <trkpt lat="45.27493" lon="4.27005">
        <ele>821.53846153846</ele>
        <time>2015-10-03T09:15:59.307Z</time>
      </trkpt>
      <trkpt lat="45.27491" lon="4.26997">
        <ele>821.52</ele>
        <time>2015-10-03T09:16:01.349Z</time>
      </trkpt>
      <trkpt lat="45.27489" lon="4.26994">
        <ele>821.44</ele>
        <time>2015-10-03T09:16:02.389Z</time>
      </trkpt>
      <trkpt lat="45.27486" lon="4.26987">
        <ele>821.24</ele>
        <time>2015-10-03T09:16:04.390Z</time>
      </trkpt>
      <trkpt lat="45.27485" lon="4.26983">
        <ele>821.16</ele>
        <time>2015-10-03T09:16:05.440Z</time>
      </trkpt>
      <trkpt lat="45.27484" lon="4.2698">
        <ele>821.08</ele>
        <time>2015-10-03T09:16:06.424Z</time>
      </trkpt>
      <trkpt lat="45.27483" lon="4.26977">
        <ele>820.96</ele>
        <time>2015-10-03T09:16:07.413Z</time>
      </trkpt>
      <trkpt lat="45.2748" lon="4.26975">
        <ele>820.84</ele>
        <time>2015-10-03T09:16:08.417Z</time>
      </trkpt>
      <trkpt lat="45.27479" lon="4.26972">
        <ele>820.84</ele>
        <time>2015-10-03T09:16:09.377Z</time>
      </trkpt>
      <trkpt lat="45.27477" lon="4.26969">
        <ele>820.76</ele>
        <time>2015-10-03T09:16:10.359Z</time>
      </trkpt>
      <trkpt lat="45.27475" lon="4.26966">
        <ele>820.68</ele>
        <time>2015-10-03T09:16:11.357Z</time>
      </trkpt>
      <trkpt lat="45.2747" lon="4.26954">
        <ele>820.4</ele>
        <time>2015-10-03T09:16:14.394Z</time>
      </trkpt>
      <trkpt lat="45.27469" lon="4.26951">
        <ele>820.32</ele>
        <time>2015-10-03T09:16:15.399Z</time>
      </trkpt>
      <trkpt lat="45.27467" lon="4.26947">
        <ele>820.24</ele>
        <time>2015-10-03T09:16:16.402Z</time>
      </trkpt>
      <trkpt lat="45.27465" lon="4.26943">
        <ele>820.12</ele>
        <time>2015-10-03T09:16:17.359Z</time>
      </trkpt>
      <trkpt lat="45.27464" lon="4.26939">
        <ele>820.07692307692</ele>
        <time>2015-10-03T09:16:18.301Z</time>
      </trkpt>
      <trkpt lat="45.27462" lon="4.26934">
        <ele>819.92</ele>
        <time>2015-10-03T09:16:19.319Z</time>
      </trkpt>
      <trkpt lat="45.27459" lon="4.2693">
        <ele>819.84</ele>
        <time>2015-10-03T09:16:20.318Z</time>
      </trkpt>
      <trkpt lat="45.27457" lon="4.26926">
        <ele>819.73076923077</ele>
        <time>2015-10-03T09:16:21.313Z</time>
      </trkpt>
      <trkpt lat="45.27455" lon="4.26922">
        <ele>819.61538461538</ele>
        <time>2015-10-03T09:16:22.312Z</time>
      </trkpt>
      <trkpt lat="45.27453" lon="4.26917">
        <ele>819.42307692308</ele>
        <time>2015-10-03T09:16:23.308Z</time>
      </trkpt>
      <trkpt lat="45.27449" lon="4.26909">
        <ele>819.04</ele>
        <time>2015-10-03T09:16:25.390Z</time>
      </trkpt>
      <trkpt lat="45.27447" lon="4.26902">
        <ele>818.88461538462</ele>
        <time>2015-10-03T09:16:27.333Z</time>
      </trkpt>
      <trkpt lat="45.27446" lon="4.26899">
        <ele>818.76923076923</ele>
        <time>2015-10-03T09:16:28.317Z</time>
      </trkpt>
      <trkpt lat="45.27445" lon="4.26894">
        <ele>818.69230769231</ele>
        <time>2015-10-03T09:16:29.319Z</time>
      </trkpt>
      <trkpt lat="45.27443" lon="4.26889">
        <ele>818.5</ele>
        <time>2015-10-03T09:16:30.359Z</time>
      </trkpt>
      <trkpt lat="45.27439" lon="4.26878">
        <ele>818</ele>
        <time>2015-10-03T09:16:33.402Z</time>
      </trkpt>
      <trkpt lat="45.27438" lon="4.26876">
        <ele>817.84615384615</ele>
        <time>2015-10-03T09:16:34.360Z</time>
      </trkpt>
      <trkpt lat="45.27437" lon="4.26872">
        <ele>817.65384615385</ele>
        <time>2015-10-03T09:16:35.323Z</time>
      </trkpt>
      <trkpt lat="45.27436" lon="4.26867">
        <ele>817.46153846154</ele>
        <time>2015-10-03T09:16:36.336Z</time>
      </trkpt>
      <trkpt lat="45.27437" lon="4.26863">
        <ele>817.30769230769</ele>
        <time>2015-10-03T09:16:37.328Z</time>
      </trkpt>
      <trkpt lat="45.2742" lon="4.26837">
        <ele>817.08</ele>
        <time>2015-10-03T09:16:39.302Z</time>
      </trkpt>
      <trkpt lat="45.2741" lon="4.26823">
        <ele>816.625</ele>
        <time>2015-10-03T09:16:42.315Z</time>
      </trkpt>
      <trkpt lat="45.27409" lon="4.26818">
        <ele>816.41666666667</ele>
        <time>2015-10-03T09:16:43.301Z</time>
      </trkpt>
      <trkpt lat="45.27407" lon="4.26815">
        <ele>816.20833333333</ele>
        <time>2015-10-03T09:16:44.305Z</time>
      </trkpt>
      <trkpt lat="45.27405" lon="4.26812">
        <ele>816.04166666667</ele>
        <time>2015-10-03T09:16:45.307Z</time>
      </trkpt>
      <trkpt lat="45.27403" lon="4.26809">
        <ele>815.78260869565</ele>
        <time>2015-10-03T09:16:46.347Z</time>
      </trkpt>
      <trkpt lat="45.27394" lon="4.268">
        <ele>815.30434782609</ele>
        <time>2015-10-03T09:16:49.396Z</time>
      </trkpt>
      <trkpt lat="45.27393" lon="4.26797">
        <ele>815.13043478261</ele>
        <time>2015-10-03T09:16:50.421Z</time>
      </trkpt>
      <trkpt lat="45.27392" lon="4.26795">
        <ele>815</ele>
        <time>2015-10-03T09:16:51.423Z</time>
      </trkpt>
      <trkpt lat="45.27391" lon="4.26794">
        <ele>814.82608695652</ele>
        <time>2015-10-03T09:16:52.362Z</time>
      </trkpt>
      <trkpt lat="45.2739" lon="4.26791">
        <ele>814.73913043478</ele>
        <time>2015-10-03T09:16:53.358Z</time>
      </trkpt>
      <trkpt lat="45.27384" lon="4.26781">
        <ele>814.47826086957</ele>
        <time>2015-10-03T09:16:56.398Z</time>
      </trkpt>
      <trkpt lat="45.27382" lon="4.26777">
        <ele>814.54166666667</ele>
        <time>2015-10-03T09:16:57.396Z</time>
      </trkpt>
      <trkpt lat="45.27379" lon="4.26771">
        <ele>814.4347826087</ele>
        <time>2015-10-03T09:16:59.369Z</time>
      </trkpt>
      <trkpt lat="45.27374" lon="4.26762">
        <ele>814.52173913043</ele>
        <time>2015-10-03T09:17:02.392Z</time>
      </trkpt>
      <trkpt lat="45.27373" lon="4.26759">
        <ele>814.54166666667</ele>
        <time>2015-10-03T09:17:03.402Z</time>
      </trkpt>
      <trkpt lat="45.27372" lon="4.26754">
        <ele>814.58333333333</ele>
        <time>2015-10-03T09:17:05.375Z</time>
      </trkpt>
      <trkpt lat="45.27376" lon="4.26749">
        <ele>814.76</ele>
        <time>2015-10-03T09:17:07.360Z</time>
      </trkpt>
      <trkpt lat="45.27375" lon="4.26747">
        <ele>814.84</ele>
        <time>2015-10-03T09:17:08.359Z</time>
      </trkpt>
      <trkpt lat="45.27373" lon="4.26747">
        <ele>814.92</ele>
        <time>2015-10-03T09:17:09.391Z</time>
      </trkpt>
      <trkpt lat="45.2737" lon="4.26747">
        <ele>814.96</ele>
        <time>2015-10-03T09:17:10.376Z</time>
      </trkpt>
      <trkpt lat="45.27365" lon="4.26744">
        <ele>815.07692307692</ele>
        <time>2015-10-03T09:17:12.377Z</time>
      </trkpt>
      <trkpt lat="45.27362" lon="4.26742">
        <ele>815.19230769231</ele>
        <time>2015-10-03T09:17:13.383Z</time>
      </trkpt>
      <trkpt lat="45.27361" lon="4.26739">
        <ele>815.30769230769</ele>
        <time>2015-10-03T09:17:14.373Z</time>
      </trkpt>
      <trkpt lat="45.27359" lon="4.26736">
        <ele>815.38461538462</ele>
        <time>2015-10-03T09:17:15.361Z</time>
      </trkpt>
      <trkpt lat="45.27358" lon="4.26734">
        <ele>815.5</ele>
        <time>2015-10-03T09:17:16.368Z</time>
      </trkpt>
      <trkpt lat="45.27356" lon="4.26732">
        <ele>815.64</ele>
        <time>2015-10-03T09:17:17.382Z</time>
      </trkpt>
      <trkpt lat="45.27344" lon="4.26724">
        <ele>815.96153846154</ele>
        <time>2015-10-03T09:17:21.361Z</time>
      </trkpt>
      <trkpt lat="45.27335" lon="4.26721">
        <ele>816.23076923077</ele>
        <time>2015-10-03T09:17:24.347Z</time>
      </trkpt>
      <trkpt lat="45.27333" lon="4.26719">
        <ele>816.34615384615</ele>
        <time>2015-10-03T09:17:25.343Z</time>
      </trkpt>
      <trkpt lat="45.2733" lon="4.26719">
        <ele>816.38461538462</ele>
        <time>2015-10-03T09:17:26.323Z</time>
      </trkpt>
      <trkpt lat="45.27325" lon="4.26719">
        <ele>816.5</ele>
        <time>2015-10-03T09:17:28.351Z</time>
      </trkpt>
      <trkpt lat="45.27324" lon="4.26719">
        <ele>816.57692307692</ele>
        <time>2015-10-03T09:17:29.315Z</time>
      </trkpt>
      <trkpt lat="45.27322" lon="4.26719">
        <ele>816.65384615385</ele>
        <time>2015-10-03T09:17:30.317Z</time>
      </trkpt>
      <trkpt lat="45.27319" lon="4.26719">
        <ele>816.69230769231</ele>
        <time>2015-10-03T09:17:31.357Z</time>
      </trkpt>
      <trkpt lat="45.27317" lon="4.26717">
        <ele>816.76923076923</ele>
        <time>2015-10-03T09:17:32.338Z</time>
      </trkpt>
      <trkpt lat="45.27314" lon="4.26717">
        <ele>816.80769230769</ele>
        <time>2015-10-03T09:17:33.327Z</time>
      </trkpt>
      <trkpt lat="45.2731" lon="4.26718">
        <ele>816.84615384615</ele>
        <time>2015-10-03T09:17:34.358Z</time>
      </trkpt>
      <trkpt lat="45.27303" lon="4.2672">
        <ele>817</ele>
        <time>2015-10-03T09:17:36.377Z</time>
      </trkpt>
      <trkpt lat="45.273" lon="4.2672">
        <ele>817.03846153846</ele>
        <time>2015-10-03T09:17:37.377Z</time>
      </trkpt>
      <trkpt lat="45.27297" lon="4.26721">
        <ele>817</ele>
        <time>2015-10-03T09:17:38.375Z</time>
      </trkpt>
      <trkpt lat="45.27294" lon="4.26722">
        <ele>817.03846153846</ele>
        <time>2015-10-03T09:17:39.359Z</time>
      </trkpt>
      <trkpt lat="45.27287" lon="4.26723">
        <ele>817.19230769231</ele>
        <time>2015-10-03T09:17:42.372Z</time>
      </trkpt>
      <trkpt lat="45.27285" lon="4.26724">
        <ele>817.23076923077</ele>
        <time>2015-10-03T09:17:43.374Z</time>
      </trkpt>
      <trkpt lat="45.27282" lon="4.26725">
        <ele>817.28</ele>
        <time>2015-10-03T09:17:45.377Z</time>
      </trkpt>
      <trkpt lat="45.27277" lon="4.26725">
        <ele>817.32</ele>
        <time>2015-10-03T09:17:47.370Z</time>
      </trkpt>
      <trkpt lat="45.27274" lon="4.26724">
        <ele>817.32</ele>
        <time>2015-10-03T09:17:48.357Z</time>
      </trkpt>
      <trkpt lat="45.27269" lon="4.26724">
        <ele>817.32</ele>
        <time>2015-10-03T09:17:50.372Z</time>
      </trkpt>
      <trkpt lat="45.27264" lon="4.26725">
        <ele>817.44</ele>
        <time>2015-10-03T09:17:52.377Z</time>
      </trkpt>
      <trkpt lat="45.27255" lon="4.2673">
        <ele>817.42307692308</ele>
        <time>2015-10-03T09:17:56.298Z</time>
      </trkpt>
      <trkpt lat="45.27252" lon="4.26731">
        <ele>817.46153846154</ele>
        <time>2015-10-03T09:17:57.296Z</time>
      </trkpt>
      <trkpt lat="45.27248" lon="4.26734">
        <ele>817.42307692308</ele>
        <time>2015-10-03T09:17:59.342Z</time>
      </trkpt>
      <trkpt lat="45.27245" lon="4.26735">
        <ele>817.46153846154</ele>
        <time>2015-10-03T09:18:00.341Z</time>
      </trkpt>
      <trkpt lat="45.27243" lon="4.26736">
        <ele>817.57692307692</ele>
        <time>2015-10-03T09:18:01.339Z</time>
      </trkpt>
      <trkpt lat="45.2724" lon="4.26736">
        <ele>817.61538461538</ele>
        <time>2015-10-03T09:18:02.350Z</time>
      </trkpt>
      <trkpt lat="45.27237" lon="4.26736">
        <ele>817.61538461538</ele>
        <time>2015-10-03T09:18:03.343Z</time>
      </trkpt>
      <trkpt lat="45.2723" lon="4.26733">
        <ele>817.84</ele>
        <time>2015-10-03T09:18:06.356Z</time>
      </trkpt>
      <trkpt lat="45.27227" lon="4.26731">
        <ele>817.88</ele>
        <time>2015-10-03T09:18:07.346Z</time>
      </trkpt>
      <trkpt lat="45.27223" lon="4.26728">
        <ele>818.04</ele>
        <time>2015-10-03T09:18:09.341Z</time>
      </trkpt>
      <trkpt lat="45.27217" lon="4.26726">
        <ele>818.36</ele>
        <time>2015-10-03T09:18:12.349Z</time>
      </trkpt>
      <trkpt lat="45.27209" lon="4.26724">
        <ele>818.84</ele>
        <time>2015-10-03T09:18:16.341Z</time>
      </trkpt>
      <trkpt lat="45.27203" lon="4.26721">
        <ele>819.24</ele>
        <time>2015-10-03T09:18:19.312Z</time>
      </trkpt>
      <trkpt lat="45.27201" lon="4.26721">
        <ele>819.32</ele>
        <time>2015-10-03T09:18:20.309Z</time>
      </trkpt>
      <trkpt lat="45.27199" lon="4.26721">
        <ele>819.58333333333</ele>
        <time>2015-10-03T09:18:21.312Z</time>
      </trkpt>
      <trkpt lat="45.27192" lon="4.26719">
        <ele>819.88</ele>
        <time>2015-10-03T09:18:24.311Z</time>
      </trkpt>
      <trkpt lat="45.27191" lon="4.26719">
        <ele>820.04</ele>
        <time>2015-10-03T09:18:25.299Z</time>
      </trkpt>
      <trkpt lat="45.27188" lon="4.26718">
        <ele>820.2</ele>
        <time>2015-10-03T09:18:26.305Z</time>
      </trkpt>
      <trkpt lat="45.27186" lon="4.26717">
        <ele>820.36</ele>
        <time>2015-10-03T09:18:27.335Z</time>
      </trkpt>
      <trkpt lat="45.27178" lon="4.26714">
        <ele>820.72</ele>
        <time>2015-10-03T09:18:30.332Z</time>
      </trkpt>
      <trkpt lat="45.27176" lon="4.26713">
        <ele>820.80769230769</ele>
        <time>2015-10-03T09:18:31.316Z</time>
      </trkpt>
      <trkpt lat="45.27175" lon="4.26712">
        <ele>820.88461538462</ele>
        <time>2015-10-03T09:18:32.296Z</time>
      </trkpt>
      <trkpt lat="45.27174" lon="4.26712">
        <ele>821.03846153846</ele>
        <time>2015-10-03T09:18:33.297Z</time>
      </trkpt>
      <trkpt lat="45.27172" lon="4.26712">
        <ele>821.19230769231</ele>
        <time>2015-10-03T09:18:34.309Z</time>
      </trkpt>
      <trkpt lat="45.27169" lon="4.26711">
        <ele>821.38461538462</ele>
        <time>2015-10-03T09:18:36.300Z</time>
      </trkpt>
      <trkpt lat="45.27168" lon="4.2671">
        <ele>821.53846153846</ele>
        <time>2015-10-03T09:18:37.305Z</time>
      </trkpt>
      <trkpt lat="45.27167" lon="4.26709">
        <ele>821.69230769231</ele>
        <time>2015-10-03T09:18:38.300Z</time>
      </trkpt>
      <trkpt lat="45.27166" lon="4.26708">
        <ele>821.84615384615</ele>
        <time>2015-10-03T09:18:39.295Z</time>
      </trkpt>
      <trkpt lat="45.27165" lon="4.26707">
        <ele>822.03846153846</ele>
        <time>2015-10-03T09:18:40.295Z</time>
      </trkpt>
      <trkpt lat="45.27164" lon="4.26706">
        <ele>822.23076923077</ele>
        <time>2015-10-03T09:18:41.298Z</time>
      </trkpt>
      <trkpt lat="45.27162" lon="4.26705">
        <ele>822.42307692308</ele>
        <time>2015-10-03T09:18:42.303Z</time>
      </trkpt>
      <trkpt lat="45.2716" lon="4.26704">
        <ele>822.57692307692</ele>
        <time>2015-10-03T09:18:43.306Z</time>
      </trkpt>
      <trkpt lat="45.27158" lon="4.26705">
        <ele>822.76</ele>
        <time>2015-10-03T09:18:44.314Z</time>
      </trkpt>
      <trkpt lat="45.27156" lon="4.26705">
        <ele>823</ele>
        <time>2015-10-03T09:18:45.342Z</time>
      </trkpt>
      <trkpt lat="45.27155" lon="4.26705">
        <ele>823.2</ele>
        <time>2015-10-03T09:18:46.323Z</time>
      </trkpt>
      <trkpt lat="45.27154" lon="4.26705">
        <ele>823.34615384615</ele>
        <time>2015-10-03T09:18:47.300Z</time>
      </trkpt>
      <trkpt lat="45.27153" lon="4.26705">
        <ele>823.53846153846</ele>
        <time>2015-10-03T09:18:48.316Z</time>
      </trkpt>
      <trkpt lat="45.27152" lon="4.26704">
        <ele>823.88</ele>
        <time>2015-10-03T09:18:49.319Z</time>
      </trkpt>
      <trkpt lat="45.27151" lon="4.26704">
        <ele>824.12</ele>
        <time>2015-10-03T09:18:50.332Z</time>
      </trkpt>
      <trkpt lat="45.2715" lon="4.26704">
        <ele>824.32</ele>
        <time>2015-10-03T09:18:51.331Z</time>
      </trkpt>
      <trkpt lat="45.27149" lon="4.26704">
        <ele>824.38461538462</ele>
        <time>2015-10-03T09:18:52.304Z</time>
      </trkpt>
      <trkpt lat="45.27147" lon="4.26704">
        <ele>824.5</ele>
        <time>2015-10-03T09:18:53.302Z</time>
      </trkpt>
      <trkpt lat="45.27147" lon="4.26704">
        <ele>824.65384615385</ele>
        <time>2015-10-03T09:18:54.309Z</time>
      </trkpt>
      <trkpt lat="45.27145" lon="4.26703">
        <ele>824.84615384615</ele>
        <time>2015-10-03T09:18:55.296Z</time>
      </trkpt>
      <trkpt lat="45.27144" lon="4.26702">
        <ele>825.07692307692</ele>
        <time>2015-10-03T09:18:56.305Z</time>
      </trkpt>
      <trkpt lat="45.27143" lon="4.26702">
        <ele>825.36</ele>
        <time>2015-10-03T09:18:57.303Z</time>
      </trkpt>
      <trkpt lat="45.27142" lon="4.26701">
        <ele>825.48</ele>
        <time>2015-10-03T09:18:58.303Z</time>
      </trkpt>
      <trkpt lat="45.27141" lon="4.26699">
        <ele>825.64</ele>
        <time>2015-10-03T09:18:59.315Z</time>
      </trkpt>
      <trkpt lat="45.27138" lon="4.26697">
        <ele>825.84</ele>
        <time>2015-10-03T09:19:00.336Z</time>
      </trkpt>
      <trkpt lat="45.27135" lon="4.26695">
        <ele>826</ele>
        <time>2015-10-03T09:19:01.368Z</time>
      </trkpt>
      <trkpt lat="45.27132" lon="4.26696">
        <ele>826.12</ele>
        <time>2015-10-03T09:19:02.390Z</time>
      </trkpt>
      <trkpt lat="45.27129" lon="4.26696">
        <ele>826.2</ele>
        <time>2015-10-03T09:19:03.402Z</time>
      </trkpt>
      <trkpt lat="45.27125" lon="4.26697">
        <ele>826.28</ele>
        <time>2015-10-03T09:19:04.398Z</time>
      </trkpt>
      <trkpt lat="45.27122" lon="4.26698">
        <ele>826.36</ele>
        <time>2015-10-03T09:19:05.380Z</time>
      </trkpt>
      <trkpt lat="45.27111" lon="4.267">
        <ele>826.68</ele>
        <time>2015-10-03T09:19:08.388Z</time>
      </trkpt>
      <trkpt lat="45.27108" lon="4.267">
        <ele>826.84</ele>
        <time>2015-10-03T09:19:09.384Z</time>
      </trkpt>
      <trkpt lat="45.27101" lon="4.26701">
        <ele>826.88</ele>
        <time>2015-10-03T09:19:11.358Z</time>
      </trkpt>
      <trkpt lat="45.27098" lon="4.26703">
        <ele>826.96</ele>
        <time>2015-10-03T09:19:12.369Z</time>
      </trkpt>
      <trkpt lat="45.2709" lon="4.26709">
        <ele>827.08</ele>
        <time>2015-10-03T09:19:15.378Z</time>
      </trkpt>
      <trkpt lat="45.2708" lon="4.26716">
        <ele>827.36</ele>
        <time>2015-10-03T09:19:19.334Z</time>
      </trkpt>
      <trkpt lat="45.27078" lon="4.26718">
        <ele>827.44</ele>
        <time>2015-10-03T09:19:20.332Z</time>
      </trkpt>
      <trkpt lat="45.27076" lon="4.2672">
        <ele>827.48</ele>
        <time>2015-10-03T09:19:21.354Z</time>
      </trkpt>
      <trkpt lat="45.2707" lon="4.26726">
        <ele>827.68</ele>
        <time>2015-10-03T09:19:24.364Z</time>
      </trkpt>
      <trkpt lat="45.27064" lon="4.26733">
        <ele>827.80769230769</ele>
        <time>2015-10-03T09:19:27.388Z</time>
      </trkpt>
      <trkpt lat="45.27062" lon="4.26735">
        <ele>827.88461538462</ele>
        <time>2015-10-03T09:19:28.374Z</time>
      </trkpt>
      <trkpt lat="45.27057" lon="4.26737">
        <ele>828.11538461538</ele>
        <time>2015-10-03T09:19:30.380Z</time>
      </trkpt>
      <trkpt lat="45.27055" lon="4.26738">
        <ele>828.15384615385</ele>
        <time>2015-10-03T09:19:31.363Z</time>
      </trkpt>
      <trkpt lat="45.27052" lon="4.26741">
        <ele>828.26923076923</ele>
        <time>2015-10-03T09:19:33.331Z</time>
      </trkpt>
      <trkpt lat="45.2705" lon="4.26742">
        <ele>828.34615384615</ele>
        <time>2015-10-03T09:19:34.311Z</time>
      </trkpt>
      <trkpt lat="45.27044" lon="4.26745">
        <ele>828.76923076923</ele>
        <time>2015-10-03T09:19:37.369Z</time>
      </trkpt>
      <trkpt lat="45.27042" lon="4.26745">
        <ele>828.76923076923</ele>
        <time>2015-10-03T09:19:38.372Z</time>
      </trkpt>
      <trkpt lat="45.2704" lon="4.26744">
        <ele>828.76923076923</ele>
        <time>2015-10-03T09:19:39.358Z</time>
      </trkpt>
      <trkpt lat="45.27038" lon="4.26742">
        <ele>828.84615384615</ele>
        <time>2015-10-03T09:19:40.357Z</time>
      </trkpt>
      <trkpt lat="45.27036" lon="4.2674">
        <ele>828.88461538462</ele>
        <time>2015-10-03T09:19:41.359Z</time>
      </trkpt>
      <trkpt lat="45.27033" lon="4.26736">
        <ele>829.15384615385</ele>
        <time>2015-10-03T09:19:43.326Z</time>
      </trkpt>
      <trkpt lat="45.27032" lon="4.26734">
        <ele>829.26923076923</ele>
        <time>2015-10-03T09:19:44.328Z</time>
      </trkpt>
      <trkpt lat="45.27031" lon="4.26733">
        <ele>829.4</ele>
        <time>2015-10-03T09:19:45.349Z</time>
      </trkpt>
      <trkpt lat="45.27028" lon="4.26728">
        <ele>829.61538461538</ele>
        <time>2015-10-03T09:19:47.350Z</time>
      </trkpt>
      <trkpt lat="45.27027" lon="4.26724">
        <ele>829.92</ele>
        <time>2015-10-03T09:19:49.944Z</time>
      </trkpt>
      <trkpt lat="45.27026" lon="4.26723">
        <ele>830.04</ele>
        <time>2015-10-03T09:19:50.943Z</time>
      </trkpt>
      <trkpt lat="45.27026" lon="4.2672">
        <ele>830.16</ele>
        <time>2015-10-03T09:19:51.933Z</time>
      </trkpt>
      <trkpt lat="45.27026" lon="4.2672">
        <ele>830.32</ele>
        <time>2015-10-03T09:19:52.896Z</time>
      </trkpt>
      <trkpt lat="45.27028" lon="4.2672">
        <ele>830.44</ele>
        <time>2015-10-03T09:19:53.896Z</time>
      </trkpt>
      <trkpt lat="45.27029" lon="4.26719">
        <ele>830.52</ele>
        <time>2015-10-03T09:19:54.927Z</time>
      </trkpt>
      <trkpt lat="45.27029" lon="4.26717">
        <ele>830.64</ele>
        <time>2015-10-03T09:19:55.933Z</time>
      </trkpt>
      <trkpt lat="45.27029" lon="4.26714">
        <ele>830.8</ele>
        <time>2015-10-03T09:19:56.932Z</time>
      </trkpt>
      <trkpt lat="45.27029" lon="4.26712">
        <ele>830.96</ele>
        <time>2015-10-03T09:19:57.944Z</time>
      </trkpt>
      <trkpt lat="45.27028" lon="4.26704">
        <ele>831.44</ele>
        <time>2015-10-03T09:20:01.930Z</time>
      </trkpt>
      <trkpt lat="45.27027" lon="4.26697">
        <ele>832.2</ele>
        <time>2015-10-03T09:20:04.933Z</time>
      </trkpt>
      <trkpt lat="45.27026" lon="4.26693">
        <ele>832.72</ele>
        <time>2015-10-03T09:20:06.941Z</time>
      </trkpt>
      <trkpt lat="45.27025" lon="4.26691">
        <ele>832.92</ele>
        <time>2015-10-03T09:20:07.928Z</time>
      </trkpt>
      <trkpt lat="45.27022" lon="4.26687">
        <ele>833.32</ele>
        <time>2015-10-03T09:20:09.889Z</time>
      </trkpt>
      <trkpt lat="45.2702" lon="4.26683">
        <ele>833.68</ele>
        <time>2015-10-03T09:20:11.899Z</time>
      </trkpt>
      <trkpt lat="45.27019" lon="4.26681">
        <ele>833.84</ele>
        <time>2015-10-03T09:20:12.933Z</time>
      </trkpt>
      <trkpt lat="45.27016" lon="4.26676">
        <ele>834.38461538462</ele>
        <time>2015-10-03T09:20:15.942Z</time>
      </trkpt>
      <trkpt lat="45.27016" lon="4.26674">
        <ele>834.72</ele>
        <time>2015-10-03T09:20:16.952Z</time>
      </trkpt>
      <trkpt lat="45.27012" lon="4.26667">
        <ele>835.15384615385</ele>
        <time>2015-10-03T09:20:19.922Z</time>
      </trkpt>
      <trkpt lat="45.2701" lon="4.26665">
        <ele>835.34615384615</ele>
        <time>2015-10-03T09:20:20.927Z</time>
      </trkpt>
      <trkpt lat="45.27009" lon="4.26664">
        <ele>835.57692307692</ele>
        <time>2015-10-03T09:20:21.928Z</time>
      </trkpt>
      <trkpt lat="45.27007" lon="4.26662">
        <ele>835.76923076923</ele>
        <time>2015-10-03T09:20:22.940Z</time>
      </trkpt>
      <trkpt lat="45.27006" lon="4.2666">
        <ele>835.96153846154</ele>
        <time>2015-10-03T09:20:23.933Z</time>
      </trkpt>
      <trkpt lat="45.27003" lon="4.26654">
        <ele>836.64</ele>
        <time>2015-10-03T09:20:26.946Z</time>
      </trkpt>
      <trkpt lat="45.27" lon="4.26649">
        <ele>836.84615384615</ele>
        <time>2015-10-03T09:20:28.924Z</time>
      </trkpt>
      <trkpt lat="45.27" lon="4.26647">
        <ele>837.04</ele>
        <time>2015-10-03T09:20:29.938Z</time>
      </trkpt>
      <trkpt lat="45.26999" lon="4.26645">
        <ele>837.2</ele>
        <time>2015-10-03T09:20:30.957Z</time>
      </trkpt>
      <trkpt lat="45.26997" lon="4.26642">
        <ele>837.26923076923</ele>
        <time>2015-10-03T09:20:31.940Z</time>
      </trkpt>
      <trkpt lat="45.26993" lon="4.26637">
        <ele>837.72</ele>
        <time>2015-10-03T09:20:34.921Z</time>
      </trkpt>
      <trkpt lat="45.26993" lon="4.26635">
        <ele>837.88</ele>
        <time>2015-10-03T09:20:35.925Z</time>
      </trkpt>
      <trkpt lat="45.26991" lon="4.26632">
        <ele>838.03846153846</ele>
        <time>2015-10-03T09:20:37.923Z</time>
      </trkpt>
      <trkpt lat="45.2699" lon="4.2663">
        <ele>838.19230769231</ele>
        <time>2015-10-03T09:20:38.937Z</time>
      </trkpt>
      <trkpt lat="45.26989" lon="4.26628">
        <ele>838.32</ele>
        <time>2015-10-03T09:20:39.926Z</time>
      </trkpt>
      <trkpt lat="45.26986" lon="4.26624">
        <ele>838.44</ele>
        <time>2015-10-03T09:20:41.936Z</time>
      </trkpt>
      <trkpt lat="45.26981" lon="4.26619">
        <ele>839.04166666667</ele>
        <time>2015-10-03T09:20:44.926Z</time>
      </trkpt>
      <trkpt lat="45.26977" lon="4.26614">
        <ele>839.375</ele>
        <time>2015-10-03T09:20:47.973Z</time>
      </trkpt>
      <trkpt lat="45.26973" lon="4.26607">
        <ele>839.83333333333</ele>
        <time>2015-10-03T09:20:51.950Z</time>
      </trkpt>
      <trkpt lat="45.26969" lon="4.26602">
        <ele>840.25</ele>
        <time>2015-10-03T09:20:54.958Z</time>
      </trkpt>
      <trkpt lat="45.26967" lon="4.266">
        <ele>840.4</ele>
        <time>2015-10-03T09:20:56.934Z</time>
      </trkpt>
      <trkpt lat="45.26967" lon="4.26599">
        <ele>840.52</ele>
        <time>2015-10-03T09:20:57.906Z</time>
      </trkpt>
      <trkpt lat="45.26964" lon="4.26595">
        <ele>840.79166666667</ele>
        <time>2015-10-03T09:20:59.934Z</time>
      </trkpt>
      <trkpt lat="45.2696" lon="4.2659">
        <ele>841.08333333333</ele>
        <time>2015-10-03T09:21:02.945Z</time>
      </trkpt>
      <trkpt lat="45.26954" lon="4.26582">
        <ele>841.48</ele>
        <time>2015-10-03T09:21:06.946Z</time>
      </trkpt>
      <trkpt lat="45.26952" lon="4.26579">
        <ele>841.64</ele>
        <time>2015-10-03T09:21:08.939Z</time>
      </trkpt>
      <trkpt lat="45.26951" lon="4.26577">
        <ele>841.68</ele>
        <time>2015-10-03T09:21:09.929Z</time>
      </trkpt>
      <trkpt lat="45.26947" lon="4.26573">
        <ele>841.92307692308</ele>
        <time>2015-10-03T09:21:12.958Z</time>
      </trkpt>
      <trkpt lat="45.26946" lon="4.26571">
        <ele>842</ele>
        <time>2015-10-03T09:21:13.956Z</time>
      </trkpt>
      <trkpt lat="45.26944" lon="4.2657">
        <ele>842.11538461538</ele>
        <time>2015-10-03T09:21:14.948Z</time>
      </trkpt>
      <trkpt lat="45.26943" lon="4.26568">
        <ele>842.32</ele>
        <time>2015-10-03T09:21:15.945Z</time>
      </trkpt>
      <trkpt lat="45.26941" lon="4.26566">
        <ele>842.30769230769</ele>
        <time>2015-10-03T09:21:16.937Z</time>
      </trkpt>
      <trkpt lat="45.2694" lon="4.26563">
        <ele>842.38461538462</ele>
        <time>2015-10-03T09:21:17.956Z</time>
      </trkpt>
      <trkpt lat="45.26937" lon="4.26558">
        <ele>842.53846153846</ele>
        <time>2015-10-03T09:21:19.957Z</time>
      </trkpt>
      <trkpt lat="45.26935" lon="4.26553">
        <ele>842.65384615385</ele>
        <time>2015-10-03T09:21:21.933Z</time>
      </trkpt>
      <trkpt lat="45.26935" lon="4.26551">
        <ele>842.72</ele>
        <time>2015-10-03T09:21:22.942Z</time>
      </trkpt>
      <trkpt lat="45.26934" lon="4.26548">
        <ele>842.8</ele>
        <time>2015-10-03T09:21:23.957Z</time>
      </trkpt>
      <trkpt lat="45.26935" lon="4.26545">
        <ele>842.88</ele>
        <time>2015-10-03T09:21:24.950Z</time>
      </trkpt>
      <trkpt lat="45.26935" lon="4.26543">
        <ele>842.88461538462</ele>
        <time>2015-10-03T09:21:25.937Z</time>
      </trkpt>
      <trkpt lat="45.26936" lon="4.26541">
        <ele>843</ele>
        <time>2015-10-03T09:21:26.939Z</time>
      </trkpt>
      <trkpt lat="45.26938" lon="4.26533">
        <ele>843.16</ele>
        <time>2015-10-03T09:21:29.954Z</time>
      </trkpt>
      <trkpt lat="45.26938" lon="4.2653">
        <ele>843.2</ele>
        <time>2015-10-03T09:21:30.952Z</time>
      </trkpt>
      <trkpt lat="45.26938" lon="4.26528">
        <ele>843.19230769231</ele>
        <time>2015-10-03T09:21:31.932Z</time>
      </trkpt>
      <trkpt lat="45.26938" lon="4.26526">
        <ele>843.23076923077</ele>
        <time>2015-10-03T09:21:32.926Z</time>
      </trkpt>
      <trkpt lat="45.26937" lon="4.26524">
        <ele>843.28</ele>
        <time>2015-10-03T09:21:33.947Z</time>
      </trkpt>
      <trkpt lat="45.26935" lon="4.26521">
        <ele>843.36</ele>
        <time>2015-10-03T09:21:34.952Z</time>
      </trkpt>
      <trkpt lat="45.26933" lon="4.26519">
        <ele>843.36</ele>
        <time>2015-10-03T09:21:35.947Z</time>
      </trkpt>
      <trkpt lat="45.26931" lon="4.26517">
        <ele>843.42307692308</ele>
        <time>2015-10-03T09:21:36.931Z</time>
      </trkpt>
      <trkpt lat="45.26929" lon="4.26516">
        <ele>843.5</ele>
        <time>2015-10-03T09:21:37.950Z</time>
      </trkpt>
      <trkpt lat="45.26922" lon="4.26512">
        <ele>843.69230769231</ele>
        <time>2015-10-03T09:21:40.943Z</time>
      </trkpt>
      <trkpt lat="45.26914" lon="4.26507">
        <ele>844</ele>
        <time>2015-10-03T09:21:44.949Z</time>
      </trkpt>
      <trkpt lat="45.26912" lon="4.26505">
        <ele>844.19230769231</ele>
        <time>2015-10-03T09:21:46.919Z</time>
      </trkpt>
      <trkpt lat="45.2691" lon="4.26504">
        <ele>844.26923076923</ele>
        <time>2015-10-03T09:21:47.897Z</time>
      </trkpt>
      <trkpt lat="45.26904" lon="4.265">
        <ele>844.6</ele>
        <time>2015-10-03T09:21:50.944Z</time>
      </trkpt>
      <trkpt lat="45.26895" lon="4.26495">
        <ele>845</ele>
        <time>2015-10-03T09:21:54.935Z</time>
      </trkpt>
      <trkpt lat="45.26887" lon="4.26491">
        <ele>845.5</ele>
        <time>2015-10-03T09:21:58.909Z</time>
      </trkpt>
      <trkpt lat="45.26885" lon="4.2649">
        <ele>845.61538461538</ele>
        <time>2015-10-03T09:21:59.906Z</time>
      </trkpt>
      <trkpt lat="45.26881" lon="4.26487">
        <ele>845.92</ele>
        <time>2015-10-03T09:22:01.935Z</time>
      </trkpt>
      <trkpt lat="45.26878" lon="4.26484">
        <ele>846.08</ele>
        <time>2015-10-03T09:22:04.016Z</time>
      </trkpt>
      <trkpt lat="45.26874" lon="4.2648">
        <ele>846.26923076923</ele>
        <time>2015-10-03T09:22:05.912Z</time>
      </trkpt>
      <trkpt lat="45.2687" lon="4.26476">
        <ele>846.6</ele>
        <time>2015-10-03T09:22:08.963Z</time>
      </trkpt>
      <trkpt lat="45.26864" lon="4.26469">
        <ele>846.92</ele>
        <time>2015-10-03T09:22:12.952Z</time>
      </trkpt>
      <trkpt lat="45.2686" lon="4.26465">
        <ele>847.03846153846</ele>
        <time>2015-10-03T09:22:14.942Z</time>
      </trkpt>
      <trkpt lat="45.26858" lon="4.26464">
        <ele>847.16</ele>
        <time>2015-10-03T09:22:15.951Z</time>
      </trkpt>
      <trkpt lat="45.26856" lon="4.26464">
        <ele>847.28</ele>
        <time>2015-10-03T09:22:16.937Z</time>
      </trkpt>
      <trkpt lat="45.26849" lon="4.26462">
        <ele>847.69230769231</ele>
        <time>2015-10-03T09:22:20.936Z</time>
      </trkpt>
      <trkpt lat="45.26843" lon="4.26459">
        <ele>848.12</ele>
        <time>2015-10-03T09:22:23.938Z</time>
      </trkpt>
      <trkpt lat="45.26842" lon="4.26457">
        <ele>848.24</ele>
        <time>2015-10-03T09:22:24.953Z</time>
      </trkpt>
      <trkpt lat="45.26839" lon="4.26454">
        <ele>848.5</ele>
        <time>2015-10-03T09:22:26.928Z</time>
      </trkpt>
      <trkpt lat="45.26838" lon="4.26453">
        <ele>848.61538461538</ele>
        <time>2015-10-03T09:22:27.937Z</time>
      </trkpt>
      <trkpt lat="45.26836" lon="4.26451">
        <ele>848.76923076923</ele>
        <time>2015-10-03T09:22:28.925Z</time>
      </trkpt>
      <trkpt lat="45.26832" lon="4.26445">
        <ele>849.36</ele>
        <time>2015-10-03T09:22:31.961Z</time>
      </trkpt>
      <trkpt lat="45.26826" lon="4.26439">
        <ele>850.08</ele>
        <time>2015-10-03T09:22:35.962Z</time>
      </trkpt>
      <trkpt lat="45.26819" lon="4.26433">
        <ele>850.80769230769</ele>
        <time>2015-10-03T09:22:39.940Z</time>
      </trkpt>
      <trkpt lat="45.26814" lon="4.26429">
        <ele>851.41666666667</ele>
        <time>2015-10-03T09:22:42.968Z</time>
      </trkpt>
      <trkpt lat="45.26808" lon="4.26423">
        <ele>852.33333333333</ele>
        <time>2015-10-03T09:22:46.961Z</time>
      </trkpt>
      <trkpt lat="45.26807" lon="4.26422">
        <ele>852.44</ele>
        <time>2015-10-03T09:22:47.937Z</time>
      </trkpt>
      <trkpt lat="45.26805" lon="4.26422">
        <ele>852.64</ele>
        <time>2015-10-03T09:22:48.927Z</time>
      </trkpt>
      <trkpt lat="45.26803" lon="4.26422">
        <ele>853.12</ele>
        <time>2015-10-03T09:22:50.900Z</time>
      </trkpt>
      <trkpt lat="45.26802" lon="4.26421">
        <ele>853.36</ele>
        <time>2015-10-03T09:22:51.901Z</time>
      </trkpt>
      <trkpt lat="45.26801" lon="4.26421">
        <ele>853.64</ele>
        <time>2015-10-03T09:22:52.928Z</time>
      </trkpt>
      <trkpt lat="45.268" lon="4.2642">
        <ele>854.04166666667</ele>
        <time>2015-10-03T09:22:53.958Z</time>
      </trkpt>
      <trkpt lat="45.26796" lon="4.26418">
        <ele>854.83333333333</ele>
        <time>2015-10-03T09:22:56.975Z</time>
      </trkpt>
      <trkpt lat="45.26795" lon="4.26417">
        <ele>854.96</ele>
        <time>2015-10-03T09:22:57.937Z</time>
      </trkpt>
      <trkpt lat="45.26795" lon="4.26417">
        <ele>855.28</ele>
        <time>2015-10-03T09:22:58.917Z</time>
      </trkpt>
      <trkpt lat="45.26795" lon="4.26417">
        <ele>855.52</ele>
        <time>2015-10-03T09:22:59.907Z</time>
      </trkpt>
      <trkpt lat="45.26794" lon="4.26417">
        <ele>855.8</ele>
        <time>2015-10-03T09:23:00.931Z</time>
      </trkpt>
      <trkpt lat="45.26792" lon="4.26417">
        <ele>856.04</ele>
        <time>2015-10-03T09:23:01.952Z</time>
      </trkpt>
      <trkpt lat="45.26791" lon="4.26416">
        <ele>856.41666666667</ele>
        <time>2015-10-03T09:23:02.951Z</time>
      </trkpt>
      <trkpt lat="45.2679" lon="4.26415">
        <ele>856.56</ele>
        <time>2015-10-03T09:23:03.931Z</time>
      </trkpt>
      <trkpt lat="45.26789" lon="4.26415">
        <ele>856.8</ele>
        <time>2015-10-03T09:23:04.884Z</time>
      </trkpt>
      <trkpt lat="45.26788" lon="4.26415">
        <ele>857.04</ele>
        <time>2015-10-03T09:23:05.891Z</time>
      </trkpt>
      <trkpt lat="45.26786" lon="4.26414">
        <ele>857.42307692308</ele>
        <time>2015-10-03T09:23:07.910Z</time>
      </trkpt>
      <trkpt lat="45.26785" lon="4.26413">
        <ele>857.65384615385</ele>
        <time>2015-10-03T09:23:08.922Z</time>
      </trkpt>
      <trkpt lat="45.26784" lon="4.26412">
        <ele>857.88461538462</ele>
        <time>2015-10-03T09:23:09.928Z</time>
      </trkpt>
      <trkpt lat="45.26784" lon="4.2641">
        <ele>858.03846153846</ele>
        <time>2015-10-03T09:23:10.926Z</time>
      </trkpt>
      <trkpt lat="45.26783" lon="4.26409">
        <ele>858.23076923077</ele>
        <time>2015-10-03T09:23:11.897Z</time>
      </trkpt>
      <trkpt lat="45.26783" lon="4.26409">
        <ele>858.42307692308</ele>
        <time>2015-10-03T09:23:12.890Z</time>
      </trkpt>
      <trkpt lat="45.26782" lon="4.26409">
        <ele>858.84615384615</ele>
        <time>2015-10-03T09:23:14.903Z</time>
      </trkpt>
      <trkpt lat="45.2678" lon="4.26408">
        <ele>859.30769230769</ele>
        <time>2015-10-03T09:23:17.888Z</time>
      </trkpt>
      <trkpt lat="45.26779" lon="4.26407">
        <ele>859.65384615385</ele>
        <time>2015-10-03T09:23:19.894Z</time>
      </trkpt>
      <trkpt lat="45.26777" lon="4.26406">
        <ele>860.11538461538</ele>
        <time>2015-10-03T09:23:22.890Z</time>
      </trkpt>
      <trkpt lat="45.26777" lon="4.26405">
        <ele>860.61538461538</ele>
        <time>2015-10-03T09:23:25.893Z</time>
      </trkpt>
      <trkpt lat="45.26776" lon="4.26404">
        <ele>860.76923076923</ele>
        <time>2015-10-03T09:23:26.891Z</time>
      </trkpt>
      <trkpt lat="45.26776" lon="4.26403">
        <ele>860.92307692308</ele>
        <time>2015-10-03T09:23:27.894Z</time>
      </trkpt>
      <trkpt lat="45.26775" lon="4.26402">
        <ele>861.07692307692</ele>
        <time>2015-10-03T09:23:28.894Z</time>
      </trkpt>
      <trkpt lat="45.26775" lon="4.26401">
        <ele>861.28</ele>
        <time>2015-10-03T09:23:29.891Z</time>
      </trkpt>
      <trkpt lat="45.26775" lon="4.26399">
        <ele>861.44</ele>
        <time>2015-10-03T09:23:30.916Z</time>
      </trkpt>
      <trkpt lat="45.26775" lon="4.26399">
        <ele>861.6</ele>
        <time>2015-10-03T09:23:31.907Z</time>
      </trkpt>
      <trkpt lat="45.26775" lon="4.26399">
        <ele>861.69230769231</ele>
        <time>2015-10-03T09:23:32.888Z</time>
      </trkpt>
      <trkpt lat="45.26774" lon="4.26399">
        <ele>861.84615384615</ele>
        <time>2015-10-03T09:23:33.895Z</time>
      </trkpt>
      <trkpt lat="45.26775" lon="4.26398">
        <ele>862</ele>
        <time>2015-10-03T09:23:34.896Z</time>
      </trkpt>
      <trkpt lat="45.26775" lon="4.26397">
        <ele>862.15384615385</ele>
        <time>2015-10-03T09:23:35.886Z</time>
      </trkpt>
      <trkpt lat="45.26774" lon="4.26396">
        <ele>862.5</ele>
        <time>2015-10-03T09:23:37.888Z</time>
      </trkpt>
      <trkpt lat="45.26774" lon="4.26394">
        <ele>862.88</ele>
        <time>2015-10-03T09:23:39.906Z</time>
      </trkpt>
      <trkpt lat="45.26774" lon="4.26392">
        <ele>863.16</ele>
        <time>2015-10-03T09:23:41.908Z</time>
      </trkpt>
      <trkpt lat="45.26775" lon="4.26391">
        <ele>863.34615384615</ele>
        <time>2015-10-03T09:23:43.893Z</time>
      </trkpt>
      <trkpt lat="45.26776" lon="4.26386">
        <ele>863.76923076923</ele>
        <time>2015-10-03T09:23:47.888Z</time>
      </trkpt>
      <trkpt lat="45.26776" lon="4.26385">
        <ele>864</ele>
        <time>2015-10-03T09:23:48.891Z</time>
      </trkpt>
      <trkpt lat="45.26776" lon="4.26383">
        <ele>864.03846153846</ele>
        <time>2015-10-03T09:23:49.889Z</time>
      </trkpt>
      <trkpt lat="45.26777" lon="4.26381">
        <ele>864.2</ele>
        <time>2015-10-03T09:23:50.895Z</time>
      </trkpt>
      <trkpt lat="45.26777" lon="4.26379">
        <ele>864.28</ele>
        <time>2015-10-03T09:23:51.900Z</time>
      </trkpt>
      <trkpt lat="45.26778" lon="4.26377">
        <ele>864.36</ele>
        <time>2015-10-03T09:23:52.909Z</time>
      </trkpt>
      <trkpt lat="45.26778" lon="4.26375">
        <ele>864.48</ele>
        <time>2015-10-03T09:23:53.898Z</time>
      </trkpt>
      <trkpt lat="45.26777" lon="4.26373">
        <ele>864.53846153846</ele>
        <time>2015-10-03T09:23:54.891Z</time>
      </trkpt>
      <trkpt lat="45.26777" lon="4.2637">
        <ele>864.65384615385</ele>
        <time>2015-10-03T09:23:55.886Z</time>
      </trkpt>
      <trkpt lat="45.26775" lon="4.26368">
        <ele>864.8</ele>
        <time>2015-10-03T09:23:56.912Z</time>
      </trkpt>
      <trkpt lat="45.26774" lon="4.26365">
        <ele>864.88</ele>
        <time>2015-10-03T09:23:57.981Z</time>
      </trkpt>
      <trkpt lat="45.26774" lon="4.26362">
        <ele>864.96</ele>
        <time>2015-10-03T09:23:59.016Z</time>
      </trkpt>
      <trkpt lat="45.26774" lon="4.2636">
        <ele>865.04</ele>
        <time>2015-10-03T09:24:00.009Z</time>
      </trkpt>
      <trkpt lat="45.26775" lon="4.26358">
        <ele>865.12</ele>
        <time>2015-10-03T09:24:00.982Z</time>
      </trkpt>
      <trkpt lat="45.26776" lon="4.26355">
        <ele>865.24</ele>
        <time>2015-10-03T09:24:01.970Z</time>
      </trkpt>
      <trkpt lat="45.26776" lon="4.26352">
        <ele>865.36</ele>
        <time>2015-10-03T09:24:02.949Z</time>
      </trkpt>
      <trkpt lat="45.26776" lon="4.26349">
        <ele>865.48</ele>
        <time>2015-10-03T09:24:03.959Z</time>
      </trkpt>
      <trkpt lat="45.26776" lon="4.26346">
        <ele>865.6</ele>
        <time>2015-10-03T09:24:04.975Z</time>
      </trkpt>
      <trkpt lat="45.26775" lon="4.26341">
        <ele>865.84</ele>
        <time>2015-10-03T09:24:06.969Z</time>
      </trkpt>
      <trkpt lat="45.26776" lon="4.26334">
        <ele>866.2</ele>
        <time>2015-10-03T09:24:09.970Z</time>
      </trkpt>
      <trkpt lat="45.26776" lon="4.26333">
        <ele>866.28</ele>
        <time>2015-10-03T09:24:10.942Z</time>
      </trkpt>
      <trkpt lat="45.26776" lon="4.26332">
        <ele>866.44</ele>
        <time>2015-10-03T09:24:11.918Z</time>
      </trkpt>
      <trkpt lat="45.26776" lon="4.26325">
        <ele>866.76</ele>
        <time>2015-10-03T09:24:14.971Z</time>
      </trkpt>
      <trkpt lat="45.26776" lon="4.26323">
        <ele>866.84</ele>
        <time>2015-10-03T09:24:15.997Z</time>
      </trkpt>
      <trkpt lat="45.26777" lon="4.2632">
        <ele>866.96</ele>
        <time>2015-10-03T09:24:16.994Z</time>
      </trkpt>
      <trkpt lat="45.26778" lon="4.26318">
        <ele>867.04</ele>
        <time>2015-10-03T09:24:17.977Z</time>
      </trkpt>
      <trkpt lat="45.26779" lon="4.26314">
        <ele>867.2</ele>
        <time>2015-10-03T09:24:19.962Z</time>
      </trkpt>
      <trkpt lat="45.26779" lon="4.26311">
        <ele>867.2</ele>
        <time>2015-10-03T09:24:20.976Z</time>
      </trkpt>
      <trkpt lat="45.26778" lon="4.26303">
        <ele>867.34615384615</ele>
        <time>2015-10-03T09:24:23.977Z</time>
      </trkpt>
      <trkpt lat="45.26778" lon="4.26297">
        <ele>867.53846153846</ele>
        <time>2015-10-03T09:24:25.975Z</time>
      </trkpt>
      <trkpt lat="45.26777" lon="4.26293">
        <ele>867.64</ele>
        <time>2015-10-03T09:24:26.972Z</time>
      </trkpt>
      <trkpt lat="45.26776" lon="4.2629">
        <ele>867.64</ele>
        <time>2015-10-03T09:24:27.987Z</time>
      </trkpt>
      <trkpt lat="45.26775" lon="4.26288">
        <ele>867.72</ele>
        <time>2015-10-03T09:24:29.008Z</time>
      </trkpt>
      <trkpt lat="45.26773" lon="4.26282">
        <ele>867.84615384615</ele>
        <time>2015-10-03T09:24:30.966Z</time>
      </trkpt>
      <trkpt lat="45.26773" lon="4.26279">
        <ele>867.88461538462</ele>
        <time>2015-10-03T09:24:31.966Z</time>
      </trkpt>
      <trkpt lat="45.26774" lon="4.26276">
        <ele>867.92307692308</ele>
        <time>2015-10-03T09:24:32.948Z</time>
      </trkpt>
      <trkpt lat="45.26776" lon="4.26271">
        <ele>868</ele>
        <time>2015-10-03T09:24:34.975Z</time>
      </trkpt>
      <trkpt lat="45.26777" lon="4.26268">
        <ele>868.08</ele>
        <time>2015-10-03T09:24:35.976Z</time>
      </trkpt>
      <trkpt lat="45.26778" lon="4.26265">
        <ele>868.08</ele>
        <time>2015-10-03T09:24:36.977Z</time>
      </trkpt>
      <trkpt lat="45.26778" lon="4.26262">
        <ele>868.04</ele>
        <time>2015-10-03T09:24:37.959Z</time>
      </trkpt>
      <trkpt lat="45.26777" lon="4.26259">
        <ele>868.08</ele>
        <time>2015-10-03T09:24:38.960Z</time>
      </trkpt>
      <trkpt lat="45.26775" lon="4.26248">
        <ele>868.12</ele>
        <time>2015-10-03T09:24:41.990Z</time>
      </trkpt>
      <trkpt lat="45.26773" lon="4.26245">
        <ele>868.08</ele>
        <time>2015-10-03T09:24:42.967Z</time>
      </trkpt>
      <trkpt lat="45.26772" lon="4.26242">
        <ele>868.08</ele>
        <time>2015-10-03T09:24:43.944Z</time>
      </trkpt>
      <trkpt lat="45.26769" lon="4.26231">
        <ele>868.08333333333</ele>
        <time>2015-10-03T09:24:46.981Z</time>
      </trkpt>
      <trkpt lat="45.26765" lon="4.2622">
        <ele>868.04</ele>
        <time>2015-10-03T09:24:49.982Z</time>
      </trkpt>
      <trkpt lat="45.26763" lon="4.26218">
        <ele>867.96</ele>
        <time>2015-10-03T09:24:50.962Z</time>
      </trkpt>
      <trkpt lat="45.26761" lon="4.26215">
        <ele>867.96</ele>
        <time>2015-10-03T09:24:51.971Z</time>
      </trkpt>
      <trkpt lat="45.2676" lon="4.26212">
        <ele>867.96</ele>
        <time>2015-10-03T09:24:52.965Z</time>
      </trkpt>
      <trkpt lat="45.26759" lon="4.26209">
        <ele>868</ele>
        <time>2015-10-03T09:24:53.961Z</time>
      </trkpt>
      <trkpt lat="45.26758" lon="4.26205">
        <ele>867.96</ele>
        <time>2015-10-03T09:24:54.976Z</time>
      </trkpt>
      <trkpt lat="45.26756" lon="4.26201">
        <ele>867.875</ele>
        <time>2015-10-03T09:24:55.977Z</time>
      </trkpt>
      <trkpt lat="45.26754" lon="4.26198">
        <ele>867.83333333333</ele>
        <time>2015-10-03T09:24:56.974Z</time>
      </trkpt>
      <trkpt lat="45.26752" lon="4.26195">
        <ele>867.83333333333</ele>
        <time>2015-10-03T09:24:57.970Z</time>
      </trkpt>
      <trkpt lat="45.2675" lon="4.26192">
        <ele>867.83333333333</ele>
        <time>2015-10-03T09:24:58.975Z</time>
      </trkpt>
      <trkpt lat="45.26743" lon="4.26181">
        <ele>867.83333333333</ele>
        <time>2015-10-03T09:25:01.993Z</time>
      </trkpt>
      <trkpt lat="45.26741" lon="4.26179">
        <ele>867.84</ele>
        <time>2015-10-03T09:25:02.939Z</time>
      </trkpt>
      <trkpt lat="45.26739" lon="4.26176">
        <ele>867.88</ele>
        <time>2015-10-03T09:25:03.884Z</time>
      </trkpt>
      <trkpt lat="45.26735" lon="4.26171">
        <ele>867.8</ele>
        <time>2015-10-03T09:25:05.900Z</time>
      </trkpt>
      <trkpt lat="45.26734" lon="4.26169">
        <ele>867.76923076923</ele>
        <time>2015-10-03T09:25:06.897Z</time>
      </trkpt>
      <trkpt lat="45.26732" lon="4.26166">
        <ele>867.73076923077</ele>
        <time>2015-10-03T09:25:07.943Z</time>
      </trkpt>
      <trkpt lat="45.26731" lon="4.26163">
        <ele>867.76</ele>
        <time>2015-10-03T09:25:08.976Z</time>
      </trkpt>
      <trkpt lat="45.2673" lon="4.26161">
        <ele>867.76923076923</ele>
        <time>2015-10-03T09:25:09.949Z</time>
      </trkpt>
      <trkpt lat="45.26729" lon="4.2616">
        <ele>867.73076923077</ele>
        <time>2015-10-03T09:25:10.898Z</time>
      </trkpt>
      <trkpt lat="45.26727" lon="4.26158">
        <ele>867.76923076923</ele>
        <time>2015-10-03T09:25:11.897Z</time>
      </trkpt>
      <trkpt lat="45.26724" lon="4.26155">
        <ele>867.80769230769</ele>
        <time>2015-10-03T09:25:12.907Z</time>
      </trkpt>
      <trkpt lat="45.26721" lon="4.26153">
        <ele>867.80769230769</ele>
        <time>2015-10-03T09:25:13.923Z</time>
      </trkpt>
      <trkpt lat="45.26714" lon="4.26148">
        <ele>867.84</ele>
        <time>2015-10-03T09:25:15.987Z</time>
      </trkpt>
      <trkpt lat="45.26712" lon="4.26146">
        <ele>867.84</ele>
        <time>2015-10-03T09:25:16.994Z</time>
      </trkpt>
      <trkpt lat="45.26705" lon="4.26141">
        <ele>867.80769230769</ele>
        <time>2015-10-03T09:25:18.948Z</time>
      </trkpt>
      <trkpt lat="45.26702" lon="4.26139">
        <ele>867.80769230769</ele>
        <time>2015-10-03T09:25:19.972Z</time>
      </trkpt>
      <trkpt lat="45.267" lon="4.26137">
        <ele>867.80769230769</ele>
        <time>2015-10-03T09:25:20.955Z</time>
      </trkpt>
      <trkpt lat="45.26697" lon="4.26136">
        <ele>867.80769230769</ele>
        <time>2015-10-03T09:25:21.906Z</time>
      </trkpt>
      <trkpt lat="45.26695" lon="4.26134">
        <ele>867.88461538462</ele>
        <time>2015-10-03T09:25:22.897Z</time>
      </trkpt>
      <trkpt lat="45.26693" lon="4.26132">
        <ele>867.88461538462</ele>
        <time>2015-10-03T09:25:23.898Z</time>
      </trkpt>
      <trkpt lat="45.2669" lon="4.26129">
        <ele>867.88461538462</ele>
        <time>2015-10-03T09:25:24.893Z</time>
      </trkpt>
      <trkpt lat="45.26685" lon="4.26124">
        <ele>867.88461538462</ele>
        <time>2015-10-03T09:25:26.935Z</time>
      </trkpt>
      <trkpt lat="45.26683" lon="4.26121">
        <ele>867.84</ele>
        <time>2015-10-03T09:25:27.966Z</time>
      </trkpt>
      <trkpt lat="45.2668" lon="4.26115">
        <ele>867.84</ele>
        <time>2015-10-03T09:25:29.994Z</time>
      </trkpt>
      <trkpt lat="45.26677" lon="4.26109">
        <ele>867.88</ele>
        <time>2015-10-03T09:25:31.973Z</time>
      </trkpt>
      <trkpt lat="45.26674" lon="4.26106">
        <ele>867.88</ele>
        <time>2015-10-03T09:25:32.975Z</time>
      </trkpt>
      <trkpt lat="45.26671" lon="4.26101">
        <ele>867.88</ele>
        <time>2015-10-03T09:25:34.993Z</time>
      </trkpt>
      <trkpt lat="45.2667" lon="4.26097">
        <ele>867.92</ele>
        <time>2015-10-03T09:25:35.975Z</time>
      </trkpt>
      <trkpt lat="45.26669" lon="4.26093">
        <ele>867.88</ele>
        <time>2015-10-03T09:25:36.965Z</time>
      </trkpt>
      <trkpt lat="45.26669" lon="4.26086">
        <ele>867.92</ele>
        <time>2015-10-03T09:25:38.973Z</time>
      </trkpt>
      <trkpt lat="45.26669" lon="4.26074">
        <ele>868.03846153846</ele>
        <time>2015-10-03T09:25:41.993Z</time>
      </trkpt>
      <trkpt lat="45.2667" lon="4.26067">
        <ele>868.12</ele>
        <time>2015-10-03T09:25:43.972Z</time>
      </trkpt>
      <trkpt lat="45.2667" lon="4.26064">
        <ele>868.16</ele>
        <time>2015-10-03T09:25:44.988Z</time>
      </trkpt>
      <trkpt lat="45.2667" lon="4.26061">
        <ele>868.24</ele>
        <time>2015-10-03T09:25:45.968Z</time>
      </trkpt>
      <trkpt lat="45.26669" lon="4.26058">
        <ele>868.28</ele>
        <time>2015-10-03T09:25:46.961Z</time>
      </trkpt>
      <trkpt lat="45.26668" lon="4.26055">
        <ele>868.24</ele>
        <time>2015-10-03T09:25:47.949Z</time>
      </trkpt>
      <trkpt lat="45.26668" lon="4.26051">
        <ele>868.32</ele>
        <time>2015-10-03T09:25:48.958Z</time>
      </trkpt>
      <trkpt lat="45.26668" lon="4.26047">
        <ele>868.4</ele>
        <time>2015-10-03T09:25:49.953Z</time>
      </trkpt>
      <trkpt lat="45.2667" lon="4.26035">
        <ele>868.68</ele>
        <time>2015-10-03T09:25:52.976Z</time>
      </trkpt>
      <trkpt lat="45.26671" lon="4.2602">
        <ele>869.07692307692</ele>
        <time>2015-10-03T09:25:56.934Z</time>
      </trkpt>
      <trkpt lat="45.26672" lon="4.26016">
        <ele>869.23076923077</ele>
        <time>2015-10-03T09:25:57.937Z</time>
      </trkpt>
      <trkpt lat="45.26671" lon="4.26014">
        <ele>869.42307692308</ele>
        <time>2015-10-03T09:25:58.915Z</time>
      </trkpt>
      <trkpt lat="45.26671" lon="4.26011">
        <ele>869.57692307692</ele>
        <time>2015-10-03T09:25:59.901Z</time>
      </trkpt>
      <trkpt lat="45.26673" lon="4.25998">
        <ele>870.11538461538</ele>
        <time>2015-10-03T09:26:02.955Z</time>
      </trkpt>
      <trkpt lat="45.26673" lon="4.25994">
        <ele>870.30769230769</ele>
        <time>2015-10-03T09:26:03.942Z</time>
      </trkpt>
      <trkpt lat="45.26672" lon="4.25991">
        <ele>870.46153846154</ele>
        <time>2015-10-03T09:26:04.933Z</time>
      </trkpt>
      <trkpt lat="45.26672" lon="4.25984">
        <ele>870.76923076923</ele>
        <time>2015-10-03T09:26:06.954Z</time>
      </trkpt>
      <trkpt lat="45.26671" lon="4.25977">
        <ele>871.19230769231</ele>
        <time>2015-10-03T09:26:08.934Z</time>
      </trkpt>
      <trkpt lat="45.26671" lon="4.25973">
        <ele>871.42307692308</ele>
        <time>2015-10-03T09:26:09.929Z</time>
      </trkpt>
      <trkpt lat="45.26672" lon="4.2597">
        <ele>871.57692307692</ele>
        <time>2015-10-03T09:26:10.931Z</time>
      </trkpt>
      <trkpt lat="45.26673" lon="4.25965">
        <ele>871.96153846154</ele>
        <time>2015-10-03T09:26:12.933Z</time>
      </trkpt>
      <trkpt lat="45.26673" lon="4.25963">
        <ele>872.26923076923</ele>
        <time>2015-10-03T09:26:13.901Z</time>
      </trkpt>
      <trkpt lat="45.26672" lon="4.25961">
        <ele>872.46153846154</ele>
        <time>2015-10-03T09:26:14.886Z</time>
      </trkpt>
      <trkpt lat="45.26672" lon="4.25958">
        <ele>872.69230769231</ele>
        <time>2015-10-03T09:26:15.898Z</time>
      </trkpt>
      <trkpt lat="45.26672" lon="4.25952">
        <ele>873.11538461538</ele>
        <time>2015-10-03T09:26:17.936Z</time>
      </trkpt>
      <trkpt lat="45.26675" lon="4.2594">
        <ele>874.04</ele>
        <time>2015-10-03T09:26:21.939Z</time>
      </trkpt>
      <trkpt lat="45.26676" lon="4.25937">
        <ele>874.24</ele>
        <time>2015-10-03T09:26:22.948Z</time>
      </trkpt>
      <trkpt lat="45.26676" lon="4.25934">
        <ele>874.44</ele>
        <time>2015-10-03T09:26:23.943Z</time>
      </trkpt>
      <trkpt lat="45.26677" lon="4.25925">
        <ele>875.08</ele>
        <time>2015-10-03T09:26:26.947Z</time>
      </trkpt>
      <trkpt lat="45.26678" lon="4.25919">
        <ele>875.48</ele>
        <time>2015-10-03T09:26:28.948Z</time>
      </trkpt>
      <trkpt lat="45.26678" lon="4.25913">
        <ele>875.96</ele>
        <time>2015-10-03T09:26:30.974Z</time>
      </trkpt>
      <trkpt lat="45.26679" lon="4.2591">
        <ele>876.07692307692</ele>
        <time>2015-10-03T09:26:31.934Z</time>
      </trkpt>
      <trkpt lat="45.26679" lon="4.25907">
        <ele>876.30769230769</ele>
        <time>2015-10-03T09:26:32.936Z</time>
      </trkpt>
      <trkpt lat="45.26679" lon="4.25905">
        <ele>876.52</ele>
        <time>2015-10-03T09:26:33.950Z</time>
      </trkpt>
      <trkpt lat="45.26679" lon="4.25902">
        <ele>876.72</ele>
        <time>2015-10-03T09:26:34.953Z</time>
      </trkpt>
      <trkpt lat="45.26679" lon="4.25899">
        <ele>876.96</ele>
        <time>2015-10-03T09:26:35.946Z</time>
      </trkpt>
      <trkpt lat="45.26679" lon="4.25897">
        <ele>877.16</ele>
        <time>2015-10-03T09:26:36.944Z</time>
      </trkpt>
      <trkpt lat="45.2668" lon="4.25896">
        <ele>877.28</ele>
        <time>2015-10-03T09:26:37.955Z</time>
      </trkpt>
      <trkpt lat="45.26682" lon="4.25894">
        <ele>877.32</ele>
        <time>2015-10-03T09:26:38.970Z</time>
      </trkpt>
      <trkpt lat="45.26687" lon="4.25889">
        <ele>877.625</ele>
        <time>2015-10-03T09:26:42.021Z</time>
      </trkpt>
      <trkpt lat="45.26689" lon="4.25887">
        <ele>877.79166666667</ele>
        <time>2015-10-03T09:26:42.984Z</time>
      </trkpt>
      <trkpt lat="45.2669" lon="4.25886">
        <ele>877.91666666667</ele>
        <time>2015-10-03T09:26:43.941Z</time>
      </trkpt>
      <trkpt lat="45.26693" lon="4.25883">
        <ele>878.08</ele>
        <time>2015-10-03T09:26:45.926Z</time>
      </trkpt>
      <trkpt lat="45.26694" lon="4.25881">
        <ele>878.2</ele>
        <time>2015-10-03T09:26:46.888Z</time>
      </trkpt>
      <trkpt lat="45.26694" lon="4.25879">
        <ele>878.32</ele>
        <time>2015-10-03T09:26:47.894Z</time>
      </trkpt>
      <trkpt lat="45.26696" lon="4.25875">
        <ele>878.48</ele>
        <time>2015-10-03T09:26:49.878Z</time>
      </trkpt>
      <trkpt lat="45.26697" lon="4.25874">
        <ele>878.52</ele>
        <time>2015-10-03T09:26:50.897Z</time>
      </trkpt>
      <trkpt lat="45.26697" lon="4.25872">
        <ele>878.6</ele>
        <time>2015-10-03T09:26:51.892Z</time>
      </trkpt>
      <trkpt lat="45.26698" lon="4.2587">
        <ele>878.6</ele>
        <time>2015-10-03T09:26:54.909Z</time>
      </trkpt>
      <trkpt lat="45.26698" lon="4.25868">
        <ele>878.44</ele>
        <time>2015-10-03T09:26:57.879Z</time>
      </trkpt>
      <trkpt lat="45.26698" lon="4.25867">
        <ele>878.36</ele>
        <time>2015-10-03T09:26:58.888Z</time>
      </trkpt>
      <trkpt lat="45.26699" lon="4.25865">
        <ele>878.24</ele>
        <time>2015-10-03T09:27:02.884Z</time>
      </trkpt>
      <trkpt lat="45.26699" lon="4.25865">
        <ele>878.23076923077</ele>
        <time>2015-10-03T09:27:06.874Z</time>
      </trkpt>
      <trkpt lat="45.26699" lon="4.25865">
        <ele>878.15384615385</ele>
        <time>2015-10-03T09:27:09.876Z</time>
      </trkpt>
      <trkpt lat="45.26698" lon="4.25865">
        <ele>878.03846153846</ele>
        <time>2015-10-03T09:27:12.877Z</time>
      </trkpt>
      <trkpt lat="45.26698" lon="4.25865">
        <ele>877.92307692308</ele>
        <time>2015-10-03T09:27:15.893Z</time>
      </trkpt>
      <trkpt lat="45.26698" lon="4.25865">
        <ele>877.88461538462</ele>
        <time>2015-10-03T09:27:19.880Z</time>
      </trkpt>
      <trkpt lat="45.26698" lon="4.25865">
        <ele>877.92</ele>
        <time>2015-10-03T09:27:22.882Z</time>
      </trkpt>
      <trkpt lat="45.26698" lon="4.25865">
        <ele>877.96</ele>
        <time>2015-10-03T09:27:25.894Z</time>
      </trkpt>
      <trkpt lat="45.26698" lon="4.25865">
        <ele>877.96</ele>
        <time>2015-10-03T09:27:29.890Z</time>
      </trkpt>
      <trkpt lat="45.26698" lon="4.25865">
        <ele>878</ele>
        <time>2015-10-03T09:27:33.879Z</time>
      </trkpt>
      <trkpt lat="45.26698" lon="4.25865">
        <ele>877.96</ele>
        <time>2015-10-03T09:27:36.888Z</time>
      </trkpt>
      <trkpt lat="45.26697" lon="4.25864">
        <ele>877.96153846154</ele>
        <time>2015-10-03T09:27:40.889Z</time>
      </trkpt>
      <trkpt lat="45.26697" lon="4.25864">
        <ele>877.88</ele>
        <time>2015-10-03T09:27:44.884Z</time>
      </trkpt>
      <trkpt lat="45.26697" lon="4.25864">
        <ele>877.84</ele>
        <time>2015-10-03T09:27:48.885Z</time>
      </trkpt>
      <trkpt lat="45.26697" lon="4.25864">
        <ele>877.69230769231</ele>
        <time>2015-10-03T09:27:52.878Z</time>
      </trkpt>
      <trkpt lat="45.26697" lon="4.25864">
        <ele>877.56</ele>
        <time>2015-10-03T09:27:55.893Z</time>
      </trkpt>
      <trkpt lat="45.26697" lon="4.25864">
        <ele>877.52</ele>
        <time>2015-10-03T09:27:59.878Z</time>
      </trkpt>
      <trkpt lat="45.26697" lon="4.25864">
        <ele>877.48</ele>
        <time>2015-10-03T09:28:02.897Z</time>
      </trkpt>
      <trkpt lat="45.26697" lon="4.25864">
        <ele>877.34615384615</ele>
        <time>2015-10-03T09:28:06.887Z</time>
      </trkpt>
      <trkpt lat="45.26697" lon="4.25865">
        <ele>877.32</ele>
        <time>2015-10-03T09:28:09.894Z</time>
      </trkpt>
      <trkpt lat="45.26697" lon="4.25865">
        <ele>877.32</ele>
        <time>2015-10-03T09:28:13.899Z</time>
      </trkpt>
      <trkpt lat="45.26696" lon="4.25864">
        <ele>877.36</ele>
        <time>2015-10-03T09:28:17.900Z</time>
      </trkpt>
      <trkpt lat="45.26695" lon="4.25864">
        <ele>877.30769230769</ele>
        <time>2015-10-03T09:28:21.881Z</time>
      </trkpt>
      <trkpt lat="45.26694" lon="4.25864">
        <ele>877.2</ele>
        <time>2015-10-03T09:28:24.890Z</time>
      </trkpt>
      <trkpt lat="45.26694" lon="4.25864">
        <ele>877.16</ele>
        <time>2015-10-03T09:28:28.886Z</time>
      </trkpt>
      <trkpt lat="45.26694" lon="4.25864">
        <ele>877.03846153846</ele>
        <time>2015-10-03T09:28:32.890Z</time>
      </trkpt>
      <trkpt lat="45.26693" lon="4.25863">
        <ele>876.88</ele>
        <time>2015-10-03T09:28:35.910Z</time>
      </trkpt>
      <trkpt lat="45.26693" lon="4.25861">
        <ele>876.84</ele>
        <time>2015-10-03T09:28:37.918Z</time>
      </trkpt>
      <trkpt lat="45.26694" lon="4.25859">
        <ele>876.8</ele>
        <time>2015-10-03T09:28:38.929Z</time>
      </trkpt>
      <trkpt lat="45.26694" lon="4.25858">
        <ele>876.76</ele>
        <time>2015-10-03T09:28:39.897Z</time>
      </trkpt>
      <trkpt lat="45.26697" lon="4.25853">
        <ele>876.64</ele>
        <time>2015-10-03T09:28:42.900Z</time>
      </trkpt>
      <trkpt lat="45.26697" lon="4.25851">
        <ele>876.6</ele>
        <time>2015-10-03T09:28:43.888Z</time>
      </trkpt>
      <trkpt lat="45.26698" lon="4.25848">
        <ele>876.54166666667</ele>
        <time>2015-10-03T09:28:44.888Z</time>
      </trkpt>
      <trkpt lat="45.26699" lon="4.25845">
        <ele>876.54166666667</ele>
        <time>2015-10-03T09:28:45.920Z</time>
      </trkpt>
      <trkpt lat="45.26699" lon="4.25841">
        <ele>876.45833333333</ele>
        <time>2015-10-03T09:28:46.955Z</time>
      </trkpt>
      <trkpt lat="45.267" lon="4.25838">
        <ele>876.375</ele>
        <time>2015-10-03T09:28:47.983Z</time>
      </trkpt>
      <trkpt lat="45.26701" lon="4.25835">
        <ele>876.33333333333</ele>
        <time>2015-10-03T09:28:48.965Z</time>
      </trkpt>
      <trkpt lat="45.26702" lon="4.25831">
        <ele>876.25</ele>
        <time>2015-10-03T09:28:49.963Z</time>
      </trkpt>
      <trkpt lat="45.26703" lon="4.25828">
        <ele>876.16666666667</ele>
        <time>2015-10-03T09:28:50.981Z</time>
      </trkpt>
      <trkpt lat="45.26705" lon="4.25825">
        <ele>876.04166666667</ele>
        <time>2015-10-03T09:28:51.997Z</time>
      </trkpt>
      <trkpt lat="45.26705" lon="4.25822">
        <ele>875.91666666667</ele>
        <time>2015-10-03T09:28:52.939Z</time>
      </trkpt>
      <trkpt lat="45.26706" lon="4.25818">
        <ele>875.83333333333</ele>
        <time>2015-10-03T09:28:53.898Z</time>
      </trkpt>
      <trkpt lat="45.26706" lon="4.25815">
        <ele>875.75</ele>
        <time>2015-10-03T09:28:54.903Z</time>
      </trkpt>
      <trkpt lat="45.26705" lon="4.25812">
        <ele>875.625</ele>
        <time>2015-10-03T09:28:55.900Z</time>
      </trkpt>
      <trkpt lat="45.26704" lon="4.2581">
        <ele>875.5</ele>
        <time>2015-10-03T09:28:56.911Z</time>
      </trkpt>
      <trkpt lat="45.26702" lon="4.25809">
        <ele>875.375</ele>
        <time>2015-10-03T09:28:57.909Z</time>
      </trkpt>
      <trkpt lat="45.26698" lon="4.25807">
        <ele>875.25</ele>
        <time>2015-10-03T09:28:58.914Z</time>
      </trkpt>
      <trkpt lat="45.26693" lon="4.25804">
        <ele>875.16666666667</ele>
        <time>2015-10-03T09:28:59.906Z</time>
      </trkpt>
      <trkpt lat="45.26689" lon="4.25804">
        <ele>875.08</ele>
        <time>2015-10-03T09:29:00.899Z</time>
      </trkpt>
      <trkpt lat="45.26685" lon="4.25804">
        <ele>875</ele>
        <time>2015-10-03T09:29:01.886Z</time>
      </trkpt>
      <trkpt lat="45.26672" lon="4.25804">
        <ele>874.41666666667</ele>
        <time>2015-10-03T09:29:04.902Z</time>
      </trkpt>
      <trkpt lat="45.26668" lon="4.25803">
        <ele>874.36</ele>
        <time>2015-10-03T09:29:05.902Z</time>
      </trkpt>
      <trkpt lat="45.26665" lon="4.25803">
        <ele>874.30769230769</ele>
        <time>2015-10-03T09:29:06.904Z</time>
      </trkpt>
      <trkpt lat="45.26651" lon="4.25804">
        <ele>873.76923076923</ele>
        <time>2015-10-03T09:29:10.896Z</time>
      </trkpt>
      <trkpt lat="45.26644" lon="4.25805">
        <ele>873.46153846154</ele>
        <time>2015-10-03T09:29:12.899Z</time>
      </trkpt>
      <trkpt lat="45.2664" lon="4.25807">
        <ele>873.34615384615</ele>
        <time>2015-10-03T09:29:13.904Z</time>
      </trkpt>
      <trkpt lat="45.26635" lon="4.25809">
        <ele>873.11538461538</ele>
        <time>2015-10-03T09:29:14.902Z</time>
      </trkpt>
      <trkpt lat="45.26624" lon="4.25812">
        <ele>872.76923076923</ele>
        <time>2015-10-03T09:29:16.895Z</time>
      </trkpt>
      <trkpt lat="45.26606" lon="4.25816">
        <ele>872.32</ele>
        <time>2015-10-03T09:29:19.889Z</time>
      </trkpt>
      <trkpt lat="45.26601" lon="4.25815">
        <ele>872.12</ele>
        <time>2015-10-03T09:29:20.880Z</time>
      </trkpt>
      <trkpt lat="45.26591" lon="4.25815">
        <ele>871.96</ele>
        <time>2015-10-03T09:29:21.904Z</time>
      </trkpt>
      <trkpt lat="45.26585" lon="4.25811">
        <ele>871.76</ele>
        <time>2015-10-03T09:29:22.893Z</time>
      </trkpt>
      <trkpt lat="45.26566" lon="4.258">
        <ele>870.91666666667</ele>
        <time>2015-10-03T09:29:25.901Z</time>
      </trkpt>
      <trkpt lat="45.26562" lon="4.25793">
        <ele>870.625</ele>
        <time>2015-10-03T09:29:26.903Z</time>
      </trkpt>
      <trkpt lat="45.26556" lon="4.25788">
        <ele>870.4</ele>
        <time>2015-10-03T09:29:27.890Z</time>
      </trkpt>
      <trkpt lat="45.2654" lon="4.25766">
        <ele>869.4</ele>
        <time>2015-10-03T09:29:30.898Z</time>
      </trkpt>
      <trkpt lat="45.26524" lon="4.25748">
        <ele>868.32</ele>
        <time>2015-10-03T09:29:33.893Z</time>
      </trkpt>
      <trkpt lat="45.26517" lon="4.25741">
        <ele>867.75</ele>
        <time>2015-10-03T09:29:34.897Z</time>
      </trkpt>
      <trkpt lat="45.26509" lon="4.25731">
        <ele>867.2</ele>
        <time>2015-10-03T09:29:36.896Z</time>
      </trkpt>
      <trkpt lat="45.26505" lon="4.25727">
        <ele>866.8</ele>
        <time>2015-10-03T09:29:37.891Z</time>
      </trkpt>
      <trkpt lat="45.26495" lon="4.25717">
        <ele>866.08</ele>
        <time>2015-10-03T09:29:39.893Z</time>
      </trkpt>
      <trkpt lat="45.26488" lon="4.25707">
        <ele>865.20833333333</ele>
        <time>2015-10-03T09:29:41.898Z</time>
      </trkpt>
      <trkpt lat="45.26485" lon="4.25703">
        <ele>865</ele>
        <time>2015-10-03T09:29:42.897Z</time>
      </trkpt>
      <trkpt lat="45.26478" lon="4.25687">
        <ele>863.8</ele>
        <time>2015-10-03T09:29:45.889Z</time>
      </trkpt>
      <trkpt lat="45.26477" lon="4.25683">
        <ele>863.57692307692</ele>
        <time>2015-10-03T09:29:46.899Z</time>
      </trkpt>
      <trkpt lat="45.26472" lon="4.25673">
        <ele>862.52</ele>
        <time>2015-10-03T09:29:48.891Z</time>
      </trkpt>
      <trkpt lat="45.26471" lon="4.25669">
        <ele>862.30769230769</ele>
        <time>2015-10-03T09:29:49.884Z</time>
      </trkpt>
      <trkpt lat="45.26469" lon="4.25666">
        <ele>861.92307692308</ele>
        <time>2015-10-03T09:29:50.889Z</time>
      </trkpt>
      <trkpt lat="45.26467" lon="4.25663">
        <ele>861.53846153846</ele>
        <time>2015-10-03T09:29:51.892Z</time>
      </trkpt>
      <trkpt lat="45.26463" lon="4.25653">
        <ele>860.32</ele>
        <time>2015-10-03T09:29:54.920Z</time>
      </trkpt>
      <trkpt lat="45.26462" lon="4.2565">
        <ele>860</ele>
        <time>2015-10-03T09:29:55.928Z</time>
      </trkpt>
      <trkpt lat="45.26458" lon="4.25647">
        <ele>859.04</ele>
        <time>2015-10-03T09:29:58.898Z</time>
      </trkpt>
      <trkpt lat="45.26456" lon="4.25647">
        <ele>858.92307692308</ele>
        <time>2015-10-03T09:29:59.897Z</time>
      </trkpt>
      <trkpt lat="45.26455" lon="4.25647">
        <ele>858.44</ele>
        <time>2015-10-03T09:30:00.899Z</time>
      </trkpt>
      <trkpt lat="45.26453" lon="4.25649">
        <ele>858.12</ele>
        <time>2015-10-03T09:30:01.902Z</time>
      </trkpt>
      <trkpt lat="45.26451" lon="4.2565">
        <ele>857.84</ele>
        <time>2015-10-03T09:30:02.897Z</time>
      </trkpt>
      <trkpt lat="45.2645" lon="4.25651">
        <ele>857.56</ele>
        <time>2015-10-03T09:30:03.895Z</time>
      </trkpt>
      <trkpt lat="45.26451" lon="4.25652">
        <ele>857.24</ele>
        <time>2015-10-03T09:30:04.894Z</time>
      </trkpt>
      <trkpt lat="45.26452" lon="4.25653">
        <ele>856.42307692308</ele>
        <time>2015-10-03T09:30:08.893Z</time>
      </trkpt>
      <trkpt lat="45.26452" lon="4.25651">
        <ele>856.07692307692</ele>
        <time>2015-10-03T09:30:10.889Z</time>
      </trkpt>
      <trkpt lat="45.26452" lon="4.25651">
        <ele>855.92307692308</ele>
        <time>2015-10-03T09:30:11.895Z</time>
      </trkpt>
      <trkpt lat="45.26452" lon="4.25651">
        <ele>855.56</ele>
        <time>2015-10-03T09:30:14.893Z</time>
      </trkpt>
      <trkpt lat="45.26453" lon="4.25651">
        <ele>855.5</ele>
        <time>2015-10-03T09:30:16.883Z</time>
      </trkpt>
      <trkpt lat="45.26453" lon="4.25649">
        <ele>855.38461538462</ele>
        <time>2015-10-03T09:30:17.881Z</time>
      </trkpt>
      <trkpt lat="45.26453" lon="4.25647">
        <ele>855.26923076923</ele>
        <time>2015-10-03T09:30:18.890Z</time>
      </trkpt>
      <trkpt lat="45.26451" lon="4.25645">
        <ele>855.26923076923</ele>
        <time>2015-10-03T09:30:19.896Z</time>
      </trkpt>
      <trkpt lat="45.26448" lon="4.25643">
        <ele>855.16</ele>
        <time>2015-10-03T09:30:20.931Z</time>
      </trkpt>
      <trkpt lat="45.26447" lon="4.25641">
        <ele>855.08</ele>
        <time>2015-10-03T09:30:21.924Z</time>
      </trkpt>
      <trkpt lat="45.26445" lon="4.25639">
        <ele>855.04</ele>
        <time>2015-10-03T09:30:22.905Z</time>
      </trkpt>
      <trkpt lat="45.26444" lon="4.25638">
        <ele>855</ele>
        <time>2015-10-03T09:30:23.911Z</time>
      </trkpt>
      <trkpt lat="45.26443" lon="4.25638">
        <ele>854.92</ele>
        <time>2015-10-03T09:30:24.913Z</time>
      </trkpt>
      <trkpt lat="45.26442" lon="4.25639">
        <ele>854.88</ele>
        <time>2015-10-03T09:30:25.917Z</time>
      </trkpt>
      <trkpt lat="45.26443" lon="4.25639">
        <ele>854.8</ele>
        <time>2015-10-03T09:30:26.921Z</time>
      </trkpt>
      <trkpt lat="45.26444" lon="4.2564">
        <ele>854.76</ele>
        <time>2015-10-03T09:30:27.910Z</time>
      </trkpt>
      <trkpt lat="45.26444" lon="4.25642">
        <ele>854.72</ele>
        <time>2015-10-03T09:30:28.904Z</time>
      </trkpt>
      <trkpt lat="45.26444" lon="4.25642">
        <ele>854.73076923077</ele>
        <time>2015-10-03T09:30:29.892Z</time>
      </trkpt>
      <trkpt lat="45.26444" lon="4.25641">
        <ele>854.65384615385</ele>
        <time>2015-10-03T09:30:33.877Z</time>
      </trkpt>
      <trkpt lat="45.26444" lon="4.25641">
        <ele>854.57692307692</ele>
        <time>2015-10-03T09:30:36.882Z</time>
      </trkpt>
      <trkpt lat="45.26443" lon="4.2564">
        <ele>854.56</ele>
        <time>2015-10-03T09:30:39.911Z</time>
      </trkpt>
      <trkpt lat="45.26443" lon="4.2564">
        <ele>854.52</ele>
        <time>2015-10-03T09:30:43.880Z</time>
      </trkpt>
      <trkpt lat="45.26443" lon="4.25639">
        <ele>854.56</ele>
        <time>2015-10-03T09:30:46.887Z</time>
      </trkpt>
      <trkpt lat="45.26443" lon="4.25639">
        <ele>854.56</ele>
        <time>2015-10-03T09:30:49.890Z</time>
      </trkpt>
      <trkpt lat="45.26443" lon="4.25639">
        <ele>854.76</ele>
        <time>2015-10-03T09:30:53.882Z</time>
      </trkpt>
      <trkpt lat="45.26443" lon="4.25639">
        <ele>854.70833333333</ele>
        <time>2015-10-03T09:30:56.888Z</time>
      </trkpt>
      <trkpt lat="45.26444" lon="4.25641">
        <ele>854.66666666667</ele>
        <time>2015-10-03T09:30:57.893Z</time>
      </trkpt>
      <trkpt lat="45.26445" lon="4.25642">
        <ele>854.66666666667</ele>
        <time>2015-10-03T09:30:58.913Z</time>
      </trkpt>
      <trkpt lat="45.26446" lon="4.25643">
        <ele>854.70833333333</ele>
        <time>2015-10-03T09:30:59.909Z</time>
      </trkpt>
      <trkpt lat="45.26448" lon="4.25644">
        <ele>854.70833333333</ele>
        <time>2015-10-03T09:31:00.914Z</time>
      </trkpt>
      <trkpt lat="45.26448" lon="4.25645">
        <ele>854.75</ele>
        <time>2015-10-03T09:31:01.907Z</time>
      </trkpt>
      <trkpt lat="45.26449" lon="4.25647">
        <ele>854.75</ele>
        <time>2015-10-03T09:31:03.915Z</time>
      </trkpt>
      <trkpt lat="45.26448" lon="4.25648">
        <ele>854.70833333333</ele>
        <time>2015-10-03T09:31:04.913Z</time>
      </trkpt>
      <trkpt lat="45.26448" lon="4.25649">
        <ele>854.76</ele>
        <time>2015-10-03T09:31:06.886Z</time>
      </trkpt>
      <trkpt lat="45.26448" lon="4.2565">
        <ele>854.8</ele>
        <time>2015-10-03T09:31:08.892Z</time>
      </trkpt>
      <trkpt lat="45.26447" lon="4.25652">
        <ele>854.8</ele>
        <time>2015-10-03T09:31:09.905Z</time>
      </trkpt>
      <trkpt lat="45.26447" lon="4.25653">
        <ele>854.8</ele>
        <time>2015-10-03T09:31:10.906Z</time>
      </trkpt>
      <trkpt lat="45.26446" lon="4.25653">
        <ele>854.8</ele>
        <time>2015-10-03T09:31:11.888Z</time>
      </trkpt>
      <trkpt lat="45.26446" lon="4.25652">
        <ele>854.88461538462</ele>
        <time>2015-10-03T09:31:15.869Z</time>
      </trkpt>
      <trkpt lat="45.26446" lon="4.25652">
        <ele>854.92307692308</ele>
        <time>2015-10-03T09:31:17.878Z</time>
      </trkpt>
      <trkpt lat="45.26446" lon="4.25652">
        <ele>854.92</ele>
        <time>2015-10-03T09:31:18.885Z</time>
      </trkpt>
      <trkpt lat="45.26446" lon="4.25653">
        <ele>855.11538461538</ele>
        <time>2015-10-03T09:31:22.884Z</time>
      </trkpt>
      <trkpt lat="45.26447" lon="4.25654">
        <ele>855.26923076923</ele>
        <time>2015-10-03T09:31:26.877Z</time>
      </trkpt>
      <trkpt lat="45.26447" lon="4.25654">
        <ele>855.38461538462</ele>
        <time>2015-10-03T09:31:29.879Z</time>
      </trkpt>
      <trkpt lat="45.26447" lon="4.25654">
        <ele>855.4</ele>
        <time>2015-10-03T09:31:32.883Z</time>
      </trkpt>
      <trkpt lat="45.26447" lon="4.25653">
        <ele>855.42307692308</ele>
        <time>2015-10-03T09:31:36.881Z</time>
      </trkpt>
      <trkpt lat="45.26447" lon="4.25653">
        <ele>855.44</ele>
        <time>2015-10-03T09:31:40.875Z</time>
      </trkpt>
      <trkpt lat="45.26447" lon="4.25654">
        <ele>855.42307692308</ele>
        <time>2015-10-03T09:31:43.885Z</time>
      </trkpt>
      <trkpt lat="45.26447" lon="4.25653">
        <ele>855.44</ele>
        <time>2015-10-03T09:31:46.888Z</time>
      </trkpt>
      <trkpt lat="45.26447" lon="4.25653">
        <ele>855.44</ele>
        <time>2015-10-03T09:31:49.891Z</time>
      </trkpt>
      <trkpt lat="45.26447" lon="4.25654">
        <ele>855.52</ele>
        <time>2015-10-03T09:31:50.896Z</time>
      </trkpt>
      <trkpt lat="45.26447" lon="4.25655">
        <ele>855.48</ele>
        <time>2015-10-03T09:31:51.903Z</time>
      </trkpt>
      <trkpt lat="45.26447" lon="4.25656">
        <ele>855.48</ele>
        <time>2015-10-03T09:31:52.909Z</time>
      </trkpt>
      <trkpt lat="45.26447" lon="4.25658">
        <ele>855.48</ele>
        <time>2015-10-03T09:31:53.911Z</time>
      </trkpt>
      <trkpt lat="45.26446" lon="4.25659">
        <ele>855.48</ele>
        <time>2015-10-03T09:31:54.908Z</time>
      </trkpt>
      <trkpt lat="45.26446" lon="4.25661">
        <ele>855.52</ele>
        <time>2015-10-03T09:31:55.909Z</time>
      </trkpt>
      <trkpt lat="45.26445" lon="4.25661">
        <ele>855.56</ele>
        <time>2015-10-03T09:31:56.906Z</time>
      </trkpt>
      <trkpt lat="45.26442" lon="4.25662">
        <ele>855.6</ele>
        <time>2015-10-03T09:31:59.910Z</time>
      </trkpt>
      <trkpt lat="45.26442" lon="4.25664">
        <ele>855.64</ele>
        <time>2015-10-03T09:32:00.922Z</time>
      </trkpt>
      <trkpt lat="45.26441" lon="4.25665">
        <ele>855.64</ele>
        <time>2015-10-03T09:32:01.919Z</time>
      </trkpt>
      <trkpt lat="45.26441" lon="4.25666">
        <ele>855.72</ele>
        <time>2015-10-03T09:32:02.916Z</time>
      </trkpt>
      <trkpt lat="45.26441" lon="4.25667">
        <ele>855.72</ele>
        <time>2015-10-03T09:32:03.904Z</time>
      </trkpt>
      <trkpt lat="45.26441" lon="4.25668">
        <ele>855.64</ele>
        <time>2015-10-03T09:32:04.890Z</time>
      </trkpt>
      <trkpt lat="45.26441" lon="4.25669">
        <ele>855.48</ele>
        <time>2015-10-03T09:32:05.886Z</time>
      </trkpt>
      <trkpt lat="45.26441" lon="4.25669">
        <ele>855.48</ele>
        <time>2015-10-03T09:32:06.884Z</time>
      </trkpt>
      <trkpt lat="45.26441" lon="4.2567">
        <ele>855.48</ele>
        <time>2015-10-03T09:32:09.886Z</time>
      </trkpt>
      <trkpt lat="45.26441" lon="4.2567">
        <ele>855.52</ele>
        <time>2015-10-03T09:32:12.896Z</time>
      </trkpt>
      <trkpt lat="45.26441" lon="4.25669">
        <ele>855.5</ele>
        <time>2015-10-03T09:32:16.901Z</time>
      </trkpt>
      <trkpt lat="45.26441" lon="4.25668">
        <ele>855.53846153846</ele>
        <time>2015-10-03T09:32:18.893Z</time>
      </trkpt>
      <trkpt lat="45.2644" lon="4.25666">
        <ele>855.5</ele>
        <time>2015-10-03T09:32:20.893Z</time>
      </trkpt>
      <trkpt lat="45.2644" lon="4.25667">
        <ele>855.5</ele>
        <time>2015-10-03T09:32:24.885Z</time>
      </trkpt>
      <trkpt lat="45.26441" lon="4.25668">
        <ele>855.46153846154</ele>
        <time>2015-10-03T09:32:27.888Z</time>
      </trkpt>
      <trkpt lat="45.26441" lon="4.25668">
        <ele>855.46153846154</ele>
        <time>2015-10-03T09:32:28.893Z</time>
      </trkpt>
      <trkpt lat="45.26441" lon="4.25667">
        <ele>855.52</ele>
        <time>2015-10-03T09:32:29.900Z</time>
      </trkpt>
      <trkpt lat="45.26441" lon="4.25666">
        <ele>855.8</ele>
        <time>2015-10-03T09:32:33.880Z</time>
      </trkpt>
      <trkpt lat="45.2644" lon="4.25668">
        <ele>855.8</ele>
        <time>2015-10-03T09:32:35.894Z</time>
      </trkpt>
      <trkpt lat="45.26441" lon="4.25668">
        <ele>855.84</ele>
        <time>2015-10-03T09:32:38.903Z</time>
      </trkpt>
      <trkpt lat="45.26442" lon="4.25668">
        <ele>855.75</ele>
        <time>2015-10-03T09:32:42.894Z</time>
      </trkpt>
      <trkpt lat="45.26442" lon="4.25667">
        <ele>855.8</ele>
        <time>2015-10-03T09:32:44.887Z</time>
      </trkpt>
      <trkpt lat="45.26441" lon="4.25667">
        <ele>855.75</ele>
        <time>2015-10-03T09:32:47.888Z</time>
      </trkpt>
      <trkpt lat="45.2644" lon="4.25667">
        <ele>855.8</ele>
        <time>2015-10-03T09:32:51.879Z</time>
      </trkpt>
      <trkpt lat="45.2644" lon="4.25667">
        <ele>855.72</ele>
        <time>2015-10-03T09:32:54.885Z</time>
      </trkpt>
      <trkpt lat="45.26439" lon="4.25667">
        <ele>855.68</ele>
        <time>2015-10-03T09:32:55.884Z</time>
      </trkpt>
      <trkpt lat="45.26437" lon="4.25667">
        <ele>855.52173913043</ele>
        <time>2015-10-03T09:32:59.898Z</time>
      </trkpt>
      <trkpt lat="45.26437" lon="4.25667">
        <ele>855.41666666667</ele>
        <time>2015-10-03T09:33:03.876Z</time>
      </trkpt>
      <trkpt lat="45.26436" lon="4.25666">
        <ele>855.34782608696</ele>
        <time>2015-10-03T09:33:05.893Z</time>
      </trkpt>
      <trkpt lat="45.26436" lon="4.25665">
        <ele>855.32</ele>
        <time>2015-10-03T09:33:09.885Z</time>
      </trkpt>
      <trkpt lat="45.26436" lon="4.25666">
        <ele>855.29166666667</ele>
        <time>2015-10-03T09:33:11.894Z</time>
      </trkpt>
      <trkpt lat="45.26436" lon="4.25668">
        <ele>855.24</ele>
        <time>2015-10-03T09:33:13.888Z</time>
      </trkpt>
      <trkpt lat="45.26436" lon="4.25668">
        <ele>855.125</ele>
        <time>2015-10-03T09:33:16.895Z</time>
      </trkpt>
      <trkpt lat="45.26436" lon="4.25668">
        <ele>855.16666666667</ele>
        <time>2015-10-03T09:33:20.892Z</time>
      </trkpt>
      <trkpt lat="45.26437" lon="4.25669">
        <ele>855.28</ele>
        <time>2015-10-03T09:33:23.905Z</time>
      </trkpt>
      <trkpt lat="45.26437" lon="4.2567">
        <ele>855.53846153846</ele>
        <time>2015-10-03T09:33:27.887Z</time>
      </trkpt>
      <trkpt lat="45.26437" lon="4.2567">
        <ele>855.76923076923</ele>
        <time>2015-10-03T09:33:31.886Z</time>
      </trkpt>
      <trkpt lat="45.26437" lon="4.25669">
        <ele>855.96</ele>
        <time>2015-10-03T09:33:34.894Z</time>
      </trkpt>
      <trkpt lat="45.26437" lon="4.25669">
        <ele>856.11538461538</ele>
        <time>2015-10-03T09:33:38.882Z</time>
      </trkpt>
      <trkpt lat="45.26437" lon="4.25669">
        <ele>856.23076923077</ele>
        <time>2015-10-03T09:33:41.894Z</time>
      </trkpt>
      <trkpt lat="45.26437" lon="4.25669">
        <ele>856.44</ele>
        <time>2015-10-03T09:33:45.895Z</time>
      </trkpt>
      <trkpt lat="45.26437" lon="4.25669">
        <ele>856.38461538462</ele>
        <time>2015-10-03T09:33:49.890Z</time>
      </trkpt>
      <trkpt lat="45.26438" lon="4.25668">
        <ele>856.2</ele>
        <time>2015-10-03T09:33:53.904Z</time>
      </trkpt>
      <trkpt lat="45.26439" lon="4.25668">
        <ele>856.15384615385</ele>
        <time>2015-10-03T09:33:57.889Z</time>
      </trkpt>
      <trkpt lat="45.26439" lon="4.25667">
        <ele>856.08</ele>
        <time>2015-10-03T09:33:59.890Z</time>
      </trkpt>
      <trkpt lat="45.26439" lon="4.25667">
        <ele>856.2</ele>
        <time>2015-10-03T09:34:03.880Z</time>
      </trkpt>
      <trkpt lat="45.26439" lon="4.25667">
        <ele>856.24</ele>
        <time>2015-10-03T09:34:06.885Z</time>
      </trkpt>
      <trkpt lat="45.26439" lon="4.25667">
        <ele>856.20833333333</ele>
        <time>2015-10-03T09:34:09.889Z</time>
      </trkpt>
      <trkpt lat="45.26439" lon="4.25667">
        <ele>856.2</ele>
        <time>2015-10-03T09:34:13.890Z</time>
      </trkpt>
      <trkpt lat="45.26438" lon="4.25667">
        <ele>856.24</ele>
        <time>2015-10-03T09:34:17.883Z</time>
      </trkpt>
      <trkpt lat="45.26438" lon="4.25667">
        <ele>856.25</ele>
        <time>2015-10-03T09:34:20.890Z</time>
      </trkpt>
      <trkpt lat="45.26438" lon="4.25668">
        <ele>856.26923076923</ele>
        <time>2015-10-03T09:34:24.886Z</time>
      </trkpt>
      <trkpt lat="45.26437" lon="4.25668">
        <ele>856.2</ele>
        <time>2015-10-03T09:34:28.882Z</time>
      </trkpt>
      <trkpt lat="45.26437" lon="4.25668">
        <ele>856.23076923077</ele>
        <time>2015-10-03T09:34:32.877Z</time>
      </trkpt>
      <trkpt lat="45.26437" lon="4.25668">
        <ele>856.32</ele>
        <time>2015-10-03T09:34:35.891Z</time>
      </trkpt>
      <trkpt lat="45.26437" lon="4.25668">
        <ele>856.44</ele>
        <time>2015-10-03T09:34:39.897Z</time>
      </trkpt>
      <trkpt lat="45.26437" lon="4.25668">
        <ele>856.38461538462</ele>
        <time>2015-10-03T09:34:43.888Z</time>
      </trkpt>
      <trkpt lat="45.26437" lon="4.25667">
        <ele>856.42307692308</ele>
        <time>2015-10-03T09:34:47.882Z</time>
      </trkpt>
      <trkpt lat="45.26438" lon="4.25668">
        <ele>856.4</ele>
        <time>2015-10-03T09:34:50.886Z</time>
      </trkpt>
      <trkpt lat="45.26438" lon="4.25669">
        <ele>856.36</ele>
        <time>2015-10-03T09:34:53.895Z</time>
      </trkpt>
      <trkpt lat="45.26438" lon="4.25669">
        <ele>856.36</ele>
        <time>2015-10-03T09:34:54.909Z</time>
      </trkpt>
      <trkpt lat="45.26438" lon="4.2567">
        <ele>856.36</ele>
        <time>2015-10-03T09:34:56.893Z</time>
      </trkpt>
      <trkpt lat="45.26438" lon="4.2567">
        <ele>856.32</ele>
        <time>2015-10-03T09:34:57.893Z</time>
      </trkpt>
      <trkpt lat="45.26438" lon="4.25672">
        <ele>856.29166666667</ele>
        <time>2015-10-03T09:35:00.904Z</time>
      </trkpt>
      <trkpt lat="45.26438" lon="4.25671">
        <ele>856.29166666667</ele>
        <time>2015-10-03T09:35:01.895Z</time>
      </trkpt>
      <trkpt lat="45.26437" lon="4.25671">
        <ele>856.29166666667</ele>
        <time>2015-10-03T09:35:02.899Z</time>
      </trkpt>
      <trkpt lat="45.26438" lon="4.25671">
        <ele>856.32</ele>
        <time>2015-10-03T09:35:05.890Z</time>
      </trkpt>
      <trkpt lat="45.26438" lon="4.2567">
        <ele>856.33333333333</ele>
        <time>2015-10-03T09:35:07.913Z</time>
      </trkpt>
      <trkpt lat="45.26438" lon="4.25669">
        <ele>856.29166666667</ele>
        <time>2015-10-03T09:35:09.898Z</time>
      </trkpt>
      <trkpt lat="45.26437" lon="4.25669">
        <ele>856.33333333333</ele>
        <time>2015-10-03T09:35:13.879Z</time>
      </trkpt>
      <trkpt lat="45.26437" lon="4.25669">
        <ele>856.44</ele>
        <time>2015-10-03T09:35:16.883Z</time>
      </trkpt>
      <trkpt lat="45.26437" lon="4.25669">
        <ele>856.44</ele>
        <time>2015-10-03T09:35:19.887Z</time>
      </trkpt>
      <trkpt lat="45.26437" lon="4.25669">
        <ele>856.48</ele>
        <time>2015-10-03T09:35:23.880Z</time>
      </trkpt>
      <trkpt lat="45.26437" lon="4.25669">
        <ele>856.46153846154</ele>
        <time>2015-10-03T09:35:26.884Z</time>
      </trkpt>
      <trkpt lat="45.26437" lon="4.25669">
        <ele>856.42307692308</ele>
        <time>2015-10-03T09:35:30.874Z</time>
      </trkpt>
      <trkpt lat="45.26438" lon="4.25669">
        <ele>856.46153846154</ele>
        <time>2015-10-03T09:35:33.880Z</time>
      </trkpt>
      <trkpt lat="45.26438" lon="4.25668">
        <ele>856.48</ele>
        <time>2015-10-03T09:35:37.882Z</time>
      </trkpt>
      <trkpt lat="45.26438" lon="4.25668">
        <ele>856.38461538462</ele>
        <time>2015-10-03T09:35:41.878Z</time>
      </trkpt>
      <trkpt lat="45.26437" lon="4.25669">
        <ele>856.36</ele>
        <time>2015-10-03T09:35:45.887Z</time>
      </trkpt>
      <trkpt lat="45.26437" lon="4.25669">
        <ele>856.41666666667</ele>
        <time>2015-10-03T09:35:49.892Z</time>
      </trkpt>
      <trkpt lat="45.26437" lon="4.25669">
        <ele>856.45833333333</ele>
        <time>2015-10-03T09:35:52.897Z</time>
      </trkpt>
      <trkpt lat="45.26437" lon="4.25669">
        <ele>856.45833333333</ele>
        <time>2015-10-03T09:35:53.883Z</time>
      </trkpt>
      <trkpt lat="45.26437" lon="4.25669">
        <ele>856.41666666667</ele>
        <time>2015-10-03T09:35:54.888Z</time>
      </trkpt>
      <trkpt lat="45.26437" lon="4.25669">
        <ele>856.33333333333</ele>
        <time>2015-10-03T09:35:58.886Z</time>
      </trkpt>
      <trkpt lat="45.26437" lon="4.25669">
        <ele>856.41666666667</ele>
        <time>2015-10-03T09:36:02.890Z</time>
      </trkpt>
      <trkpt lat="45.26437" lon="4.25669">
        <ele>856.45833333333</ele>
        <time>2015-10-03T09:36:05.893Z</time>
      </trkpt>
      <trkpt lat="45.26437" lon="4.25669">
        <ele>856.41666666667</ele>
        <time>2015-10-03T09:36:09.883Z</time>
      </trkpt>
      <trkpt lat="45.26437" lon="4.25669">
        <ele>856.32</ele>
        <time>2015-10-03T09:36:13.888Z</time>
      </trkpt>
      <trkpt lat="45.26437" lon="4.25669">
        <ele>856.2</ele>
        <time>2015-10-03T09:36:16.895Z</time>
      </trkpt>
      <trkpt lat="45.26437" lon="4.25669">
        <ele>856.2</ele>
        <time>2015-10-03T09:36:19.900Z</time>
      </trkpt>
      <trkpt lat="45.26437" lon="4.25669">
        <ele>856.2</ele>
        <time>2015-10-03T09:36:23.891Z</time>
      </trkpt>
      <trkpt lat="45.26437" lon="4.25669">
        <ele>856.15384615385</ele>
        <time>2015-10-03T09:36:27.886Z</time>
      </trkpt>
      <trkpt lat="45.26437" lon="4.25669">
        <ele>856.07692307692</ele>
        <time>2015-10-03T09:36:30.891Z</time>
      </trkpt>
      <trkpt lat="45.26437" lon="4.25669">
        <ele>856.12</ele>
        <time>2015-10-03T09:36:34.886Z</time>
      </trkpt>
      <trkpt lat="45.26436" lon="4.25669">
        <ele>856.11538461538</ele>
        <time>2015-10-03T09:36:38.882Z</time>
      </trkpt>
      <trkpt lat="45.26436" lon="4.25669">
        <ele>856.15384615385</ele>
        <time>2015-10-03T09:36:42.887Z</time>
      </trkpt>
      <trkpt lat="45.26436" lon="4.25669">
        <ele>856.12</ele>
        <time>2015-10-03T09:36:45.890Z</time>
      </trkpt>
      <trkpt lat="45.26436" lon="4.25669">
        <ele>856.15384615385</ele>
        <time>2015-10-03T09:36:49.894Z</time>
      </trkpt>
      <trkpt lat="45.26436" lon="4.25669">
        <ele>856.11538461538</ele>
        <time>2015-10-03T09:36:53.869Z</time>
      </trkpt>
      <trkpt lat="45.26436" lon="4.25669">
        <ele>856.11538461538</ele>
        <time>2015-10-03T09:36:56.877Z</time>
      </trkpt>
      <trkpt lat="45.26436" lon="4.25669">
        <ele>856.11538461538</ele>
        <time>2015-10-03T09:36:59.885Z</time>
      </trkpt>
      <trkpt lat="45.26436" lon="4.25669">
        <ele>856.12</ele>
        <time>2015-10-03T09:37:02.889Z</time>
      </trkpt>
      <trkpt lat="45.26436" lon="4.25669">
        <ele>856.08</ele>
        <time>2015-10-03T09:37:06.884Z</time>
      </trkpt>
      <trkpt lat="45.26436" lon="4.25669">
        <ele>856.19230769231</ele>
        <time>2015-10-03T09:37:10.883Z</time>
      </trkpt>
      <trkpt lat="45.26436" lon="4.25669">
        <ele>856.2</ele>
        <time>2015-10-03T09:37:13.888Z</time>
      </trkpt>
      <trkpt lat="45.26436" lon="4.25669">
        <ele>856.32</ele>
        <time>2015-10-03T09:37:17.891Z</time>
      </trkpt>
      <trkpt lat="45.26436" lon="4.2567">
        <ele>856.4</ele>
        <time>2015-10-03T09:37:21.928Z</time>
      </trkpt>
      <trkpt lat="45.26437" lon="4.25672">
        <ele>856.44</ele>
        <time>2015-10-03T09:37:23.969Z</time>
      </trkpt>
      <trkpt lat="45.26438" lon="4.25674">
        <ele>856.4</ele>
        <time>2015-10-03T09:37:24.951Z</time>
      </trkpt>
      <trkpt lat="45.26439" lon="4.25676">
        <ele>856.44</ele>
        <time>2015-10-03T09:37:25.968Z</time>
      </trkpt>
      <trkpt lat="45.26439" lon="4.25677">
        <ele>856.48</ele>
        <time>2015-10-03T09:37:26.923Z</time>
      </trkpt>
      <trkpt lat="45.26439" lon="4.25677">
        <ele>856.6</ele>
        <time>2015-10-03T09:37:30.901Z</time>
      </trkpt>
      <trkpt lat="45.2644" lon="4.25675">
        <ele>856.69230769231</ele>
        <time>2015-10-03T09:37:33.882Z</time>
      </trkpt>
      <trkpt lat="45.2644" lon="4.25674">
        <ele>856.69230769231</ele>
        <time>2015-10-03T09:37:35.883Z</time>
      </trkpt>
      <trkpt lat="45.2644" lon="4.25673">
        <ele>856.68</ele>
        <time>2015-10-03T09:37:36.903Z</time>
      </trkpt>
      <trkpt lat="45.26439" lon="4.25672">
        <ele>856.72</ele>
        <time>2015-10-03T09:37:37.905Z</time>
      </trkpt>
      <trkpt lat="45.2644" lon="4.25671">
        <ele>856.68</ele>
        <time>2015-10-03T09:37:38.898Z</time>
      </trkpt>
      <trkpt lat="45.2644" lon="4.25671">
        <ele>856.69230769231</ele>
        <time>2015-10-03T09:37:39.885Z</time>
      </trkpt>
      <trkpt lat="45.2644" lon="4.25671">
        <ele>856.61538461538</ele>
        <time>2015-10-03T09:37:43.885Z</time>
      </trkpt>
      <trkpt lat="45.2644" lon="4.2567">
        <ele>856.57692307692</ele>
        <time>2015-10-03T09:37:47.886Z</time>
      </trkpt>
      <trkpt lat="45.26439" lon="4.25671">
        <ele>856.57692307692</ele>
        <time>2015-10-03T09:37:51.882Z</time>
      </trkpt>
      <trkpt lat="45.26439" lon="4.25671">
        <ele>856.5</ele>
        <time>2015-10-03T09:37:54.893Z</time>
      </trkpt>
      <trkpt lat="45.26439" lon="4.25671">
        <ele>856.4</ele>
        <time>2015-10-03T09:37:58.883Z</time>
      </trkpt>
      <trkpt lat="45.26439" lon="4.25671">
        <ele>856.34615384615</ele>
        <time>2015-10-03T09:38:01.892Z</time>
      </trkpt>
      <trkpt lat="45.26439" lon="4.25671">
        <ele>856.28</ele>
        <time>2015-10-03T09:38:05.887Z</time>
      </trkpt>
      <trkpt lat="45.26439" lon="4.2567">
        <ele>856.4</ele>
        <time>2015-10-03T09:38:08.890Z</time>
      </trkpt>
      <trkpt lat="45.26439" lon="4.25669">
        <ele>856.52</ele>
        <time>2015-10-03T09:38:12.898Z</time>
      </trkpt>
      <trkpt lat="45.26439" lon="4.25669">
        <ele>856.6</ele>
        <time>2015-10-03T09:38:16.886Z</time>
      </trkpt>
      <trkpt lat="45.26439" lon="4.25669">
        <ele>856.6</ele>
        <time>2015-10-03T09:38:20.898Z</time>
      </trkpt>
      <trkpt lat="45.2644" lon="4.2567">
        <ele>856.64</ele>
        <time>2015-10-03T09:38:24.887Z</time>
      </trkpt>
      <trkpt lat="45.2644" lon="4.25669">
        <ele>856.72</ele>
        <time>2015-10-03T09:38:27.897Z</time>
      </trkpt>
      <trkpt lat="45.2644" lon="4.25669">
        <ele>856.80769230769</ele>
        <time>2015-10-03T09:38:31.882Z</time>
      </trkpt>
      <trkpt lat="45.2644" lon="4.25669">
        <ele>856.8</ele>
        <time>2015-10-03T09:38:34.889Z</time>
      </trkpt>
      <trkpt lat="45.2644" lon="4.25669">
        <ele>856.84</ele>
        <time>2015-10-03T09:38:38.880Z</time>
      </trkpt>
      <trkpt lat="45.2644" lon="4.25669">
        <ele>856.84</ele>
        <time>2015-10-03T09:38:41.894Z</time>
      </trkpt>
      <trkpt lat="45.2644" lon="4.25669">
        <ele>856.96153846154</ele>
        <time>2015-10-03T09:38:45.876Z</time>
      </trkpt>
      <trkpt lat="45.2644" lon="4.2567">
        <ele>857.04</ele>
        <time>2015-10-03T09:38:48.903Z</time>
      </trkpt>
      <trkpt lat="45.2644" lon="4.2567">
        <ele>857.03846153846</ele>
        <time>2015-10-03T09:38:52.895Z</time>
      </trkpt>
      <trkpt lat="45.26439" lon="4.25669">
        <ele>857</ele>
        <time>2015-10-03T09:38:56.895Z</time>
      </trkpt>
      <trkpt lat="45.2644" lon="4.25669">
        <ele>857</ele>
        <time>2015-10-03T09:38:58.908Z</time>
      </trkpt>
      <trkpt lat="45.2644" lon="4.25669">
        <ele>856.96</ele>
        <time>2015-10-03T09:38:59.900Z</time>
      </trkpt>
      <trkpt lat="45.2644" lon="4.25668">
        <ele>856.96153846154</ele>
        <time>2015-10-03T09:39:03.880Z</time>
      </trkpt>
      <trkpt lat="45.2644" lon="4.25668">
        <ele>856.92307692308</ele>
        <time>2015-10-03T09:39:06.887Z</time>
      </trkpt>
      <trkpt lat="45.26439" lon="4.25668">
        <ele>856.88</ele>
        <time>2015-10-03T09:39:09.914Z</time>
      </trkpt>
      <trkpt lat="45.2644" lon="4.25669">
        <ele>856.92</ele>
        <time>2015-10-03T09:39:11.902Z</time>
      </trkpt>
      <trkpt lat="45.26439" lon="4.25668">
        <ele>856.88461538462</ele>
        <time>2015-10-03T09:39:15.880Z</time>
      </trkpt>
      <trkpt lat="45.26439" lon="4.25668">
        <ele>856.88461538462</ele>
        <time>2015-10-03T09:39:18.883Z</time>
      </trkpt>
      <trkpt lat="45.26438" lon="4.25669">
        <ele>856.92307692308</ele>
        <time>2015-10-03T09:39:21.892Z</time>
      </trkpt>
      <trkpt lat="45.26437" lon="4.25669">
        <ele>856.96</ele>
        <time>2015-10-03T09:39:22.901Z</time>
      </trkpt>
      <trkpt lat="45.26437" lon="4.25671">
        <ele>856.96</ele>
        <time>2015-10-03T09:39:26.898Z</time>
      </trkpt>
      <trkpt lat="45.26438" lon="4.25672">
        <ele>856.96</ele>
        <time>2015-10-03T09:39:29.889Z</time>
      </trkpt>
      <trkpt lat="45.26439" lon="4.2567">
        <ele>856.91666666667</ele>
        <time>2015-10-03T09:39:32.889Z</time>
      </trkpt>
      <trkpt lat="45.26439" lon="4.25669">
        <ele>856.875</ele>
        <time>2015-10-03T09:39:35.895Z</time>
      </trkpt>
      <trkpt lat="45.2644" lon="4.25668">
        <ele>856.83333333333</ele>
        <time>2015-10-03T09:39:38.933Z</time>
      </trkpt>
      <trkpt lat="45.2644" lon="4.25667">
        <ele>856.875</ele>
        <time>2015-10-03T09:39:39.909Z</time>
      </trkpt>
      <trkpt lat="45.26443" lon="4.25663">
        <ele>856.875</ele>
        <time>2015-10-03T09:39:43.897Z</time>
      </trkpt>
      <trkpt lat="45.26445" lon="4.25662">
        <ele>856.83333333333</ele>
        <time>2015-10-03T09:39:45.915Z</time>
      </trkpt>
      <trkpt lat="45.26445" lon="4.2566">
        <ele>856.875</ele>
        <time>2015-10-03T09:39:47.924Z</time>
      </trkpt>
      <trkpt lat="45.26445" lon="4.25657">
        <ele>856.91666666667</ele>
        <time>2015-10-03T09:39:49.915Z</time>
      </trkpt>
      <trkpt lat="45.26446" lon="4.25654">
        <ele>856.91666666667</ele>
        <time>2015-10-03T09:39:51.924Z</time>
      </trkpt>
      <trkpt lat="45.26446" lon="4.2565">
        <ele>857</ele>
        <time>2015-10-03T09:39:54.934Z</time>
      </trkpt>
      <trkpt lat="45.26446" lon="4.25648">
        <ele>856.88</ele>
        <time>2015-10-03T09:39:56.962Z</time>
      </trkpt>
      <trkpt lat="45.26446" lon="4.25647">
        <ele>856.96</ele>
        <time>2015-10-03T09:39:57.973Z</time>
      </trkpt>
      <trkpt lat="45.26446" lon="4.25645">
        <ele>857.04</ele>
        <time>2015-10-03T09:39:59.971Z</time>
      </trkpt>
      <trkpt lat="45.26446" lon="4.25643">
        <ele>857.04</ele>
        <time>2015-10-03T09:40:01.982Z</time>
      </trkpt>
      <trkpt lat="45.26445" lon="4.25642">
        <ele>857.04</ele>
        <time>2015-10-03T09:40:02.979Z</time>
      </trkpt>
      <trkpt lat="45.26445" lon="4.2564">
        <ele>857.08</ele>
        <time>2015-10-03T09:40:03.953Z</time>
      </trkpt>
      <trkpt lat="45.26442" lon="4.25638">
        <ele>857.04</ele>
        <time>2015-10-03T09:40:06.952Z</time>
      </trkpt>
      <trkpt lat="45.26441" lon="4.25636">
        <ele>857</ele>
        <time>2015-10-03T09:40:08.940Z</time>
      </trkpt>
      <trkpt lat="45.2644" lon="4.25635">
        <ele>857.04</ele>
        <time>2015-10-03T09:40:09.912Z</time>
      </trkpt>
      <trkpt lat="45.2644" lon="4.25634">
        <ele>857.03846153846</ele>
        <time>2015-10-03T09:40:10.896Z</time>
      </trkpt>
      <trkpt lat="45.2644" lon="4.25635">
        <ele>857</ele>
        <time>2015-10-03T09:40:12.908Z</time>
      </trkpt>
      <trkpt lat="45.26441" lon="4.25636">
        <ele>856.96</ele>
        <time>2015-10-03T09:40:14.922Z</time>
      </trkpt>
      <trkpt lat="45.26442" lon="4.25636">
        <ele>856.96153846154</ele>
        <time>2015-10-03T09:40:16.878Z</time>
      </trkpt>
      <trkpt lat="45.26442" lon="4.25638">
        <ele>856.96153846154</ele>
        <time>2015-10-03T09:40:17.912Z</time>
      </trkpt>
      <trkpt lat="45.26442" lon="4.25639">
        <ele>856.92</ele>
        <time>2015-10-03T09:40:18.959Z</time>
      </trkpt>
      <trkpt lat="45.26441" lon="4.25643">
        <ele>856.88461538462</ele>
        <time>2015-10-03T09:40:21.945Z</time>
      </trkpt>
      <trkpt lat="45.26442" lon="4.25645">
        <ele>856.76923076923</ele>
        <time>2015-10-03T09:40:23.956Z</time>
      </trkpt>
      <trkpt lat="45.26442" lon="4.25645">
        <ele>856.76</ele>
        <time>2015-10-03T09:40:24.998Z</time>
      </trkpt>
      <trkpt lat="45.26443" lon="4.25644">
        <ele>856.72</ele>
        <time>2015-10-03T09:40:28.912Z</time>
      </trkpt>
      <trkpt lat="45.26443" lon="4.25644">
        <ele>856.72</ele>
        <time>2015-10-03T09:40:29.900Z</time>
      </trkpt>
      <trkpt lat="45.26445" lon="4.25648">
        <ele>856.79166666667</ele>
        <time>2015-10-03T09:40:32.974Z</time>
      </trkpt>
      <trkpt lat="45.26446" lon="4.25652">
        <ele>856.58333333333</ele>
        <time>2015-10-03T09:40:36.927Z</time>
      </trkpt>
      <trkpt lat="45.26448" lon="4.25654">
        <ele>856.45833333333</ele>
        <time>2015-10-03T09:40:38.964Z</time>
      </trkpt>
      <trkpt lat="45.26449" lon="4.25655">
        <ele>856.5</ele>
        <time>2015-10-03T09:40:40.956Z</time>
      </trkpt>
      <trkpt lat="45.2645" lon="4.25655">
        <ele>856.5</ele>
        <time>2015-10-03T09:40:41.946Z</time>
      </trkpt>
      <trkpt lat="45.26451" lon="4.25655">
        <ele>856.54166666667</ele>
        <time>2015-10-03T09:40:42.988Z</time>
      </trkpt>
      <trkpt lat="45.26451" lon="4.25655">
        <ele>856.58333333333</ele>
        <time>2015-10-03T09:40:44.006Z</time>
      </trkpt>
      <trkpt lat="45.26451" lon="4.25656">
        <ele>856.6</ele>
        <time>2015-10-03T09:40:46.894Z</time>
      </trkpt>
      <trkpt lat="45.2645" lon="4.25657">
        <ele>856.72</ele>
        <time>2015-10-03T09:40:47.916Z</time>
      </trkpt>
      <trkpt lat="45.26448" lon="4.25657">
        <ele>856.79166666667</ele>
        <time>2015-10-03T09:40:50.007Z</time>
      </trkpt>
      <trkpt lat="45.26447" lon="4.25657">
        <ele>856.83333333333</ele>
        <time>2015-10-03T09:40:51.001Z</time>
      </trkpt>
      <trkpt lat="45.26447" lon="4.25656">
        <ele>856.83333333333</ele>
        <time>2015-10-03T09:40:51.971Z</time>
      </trkpt>
      <trkpt lat="45.26447" lon="4.25654">
        <ele>856.84</ele>
        <time>2015-10-03T09:40:52.942Z</time>
      </trkpt>
      <trkpt lat="45.26447" lon="4.25653">
        <ele>856.84</ele>
        <time>2015-10-03T09:40:53.936Z</time>
      </trkpt>
      <trkpt lat="45.26448" lon="4.25652">
        <ele>856.84</ele>
        <time>2015-10-03T09:40:54.934Z</time>
      </trkpt>
      <trkpt lat="45.2645" lon="4.2565">
        <ele>856.84</ele>
        <time>2015-10-03T09:40:56.959Z</time>
      </trkpt>
      <trkpt lat="45.26451" lon="4.25649">
        <ele>856.84</ele>
        <time>2015-10-03T09:40:57.978Z</time>
      </trkpt>
      <trkpt lat="45.26452" lon="4.25649">
        <ele>856.88</ele>
        <time>2015-10-03T09:40:59.004Z</time>
      </trkpt>
      <trkpt lat="45.26453" lon="4.25648">
        <ele>856.92</ele>
        <time>2015-10-03T09:40:59.991Z</time>
      </trkpt>
      <trkpt lat="45.26454" lon="4.25649">
        <ele>857</ele>
        <time>2015-10-03T09:41:01.962Z</time>
      </trkpt>
      <trkpt lat="45.26456" lon="4.2565">
        <ele>857.16</ele>
        <time>2015-10-03T09:41:03.971Z</time>
      </trkpt>
      <trkpt lat="45.26457" lon="4.2565">
        <ele>857.24</ele>
        <time>2015-10-03T09:41:05.998Z</time>
      </trkpt>
      <trkpt lat="45.26458" lon="4.25648">
        <ele>857.26923076923</ele>
        <time>2015-10-03T09:41:07.956Z</time>
      </trkpt>
      <trkpt lat="45.26459" lon="4.25647">
        <ele>857.23076923077</ele>
        <time>2015-10-03T09:41:08.981Z</time>
      </trkpt>
      <trkpt lat="45.2646" lon="4.25646">
        <ele>857.19230769231</ele>
        <time>2015-10-03T09:41:09.994Z</time>
      </trkpt>
      <trkpt lat="45.2646" lon="4.25645">
        <ele>857.24</ele>
        <time>2015-10-03T09:41:10.957Z</time>
      </trkpt>
      <trkpt lat="45.2646" lon="4.25643">
        <ele>857.2</ele>
        <time>2015-10-03T09:41:11.954Z</time>
      </trkpt>
      <trkpt lat="45.2646" lon="4.25642">
        <ele>857.16</ele>
        <time>2015-10-03T09:41:12.984Z</time>
      </trkpt>
      <trkpt lat="45.2646" lon="4.25641">
        <ele>857.19230769231</ele>
        <time>2015-10-03T09:41:13.946Z</time>
      </trkpt>
      <trkpt lat="45.26459" lon="4.2564">
        <ele>857.15384615385</ele>
        <time>2015-10-03T09:41:14.899Z</time>
      </trkpt>
      <trkpt lat="45.26459" lon="4.2564">
        <ele>857.26923076923</ele>
        <time>2015-10-03T09:41:15.898Z</time>
      </trkpt>
      <trkpt lat="45.26459" lon="4.25639">
        <ele>857.26923076923</ele>
        <time>2015-10-03T09:41:17.895Z</time>
      </trkpt>
      <trkpt lat="45.26459" lon="4.25639">
        <ele>857.26923076923</ele>
        <time>2015-10-03T09:41:18.899Z</time>
      </trkpt>
      <trkpt lat="45.26459" lon="4.25639">
        <ele>857.30769230769</ele>
        <time>2015-10-03T09:41:21.885Z</time>
      </trkpt>
      <trkpt lat="45.26458" lon="4.25638">
        <ele>857.30769230769</ele>
        <time>2015-10-03T09:41:22.891Z</time>
      </trkpt>
      <trkpt lat="45.26458" lon="4.25637">
        <ele>857.30769230769</ele>
        <time>2015-10-03T09:41:23.895Z</time>
      </trkpt>
      <trkpt lat="45.26457" lon="4.25635">
        <ele>857.30769230769</ele>
        <time>2015-10-03T09:41:24.895Z</time>
      </trkpt>
      <trkpt lat="45.26456" lon="4.25633">
        <ele>857.30769230769</ele>
        <time>2015-10-03T09:41:25.899Z</time>
      </trkpt>
      <trkpt lat="45.26456" lon="4.2563">
        <ele>857.30769230769</ele>
        <time>2015-10-03T09:41:26.940Z</time>
      </trkpt>
      <trkpt lat="45.26455" lon="4.25629">
        <ele>857.30769230769</ele>
        <time>2015-10-03T09:41:27.942Z</time>
      </trkpt>
      <trkpt lat="45.26455" lon="4.25627">
        <ele>857.30769230769</ele>
        <time>2015-10-03T09:41:28.903Z</time>
      </trkpt>
      <trkpt lat="45.26454" lon="4.25625">
        <ele>857.26923076923</ele>
        <time>2015-10-03T09:41:29.935Z</time>
      </trkpt>
      <trkpt lat="45.26453" lon="4.25623">
        <ele>857.23076923077</ele>
        <time>2015-10-03T09:41:30.986Z</time>
      </trkpt>
      <trkpt lat="45.26452" lon="4.25622">
        <ele>857.15384615385</ele>
        <time>2015-10-03T09:41:31.954Z</time>
      </trkpt>
      <trkpt lat="45.26451" lon="4.25618">
        <ele>857.11538461538</ele>
        <time>2015-10-03T09:41:32.898Z</time>
      </trkpt>
      <trkpt lat="45.26449" lon="4.25613">
        <ele>857.11538461538</ele>
        <time>2015-10-03T09:41:33.885Z</time>
      </trkpt>
      <trkpt lat="45.26447" lon="4.25606">
        <ele>857.11538461538</ele>
        <time>2015-10-03T09:41:34.883Z</time>
      </trkpt>
      <trkpt lat="45.26445" lon="4.256">
        <ele>857</ele>
        <time>2015-10-03T09:41:35.886Z</time>
      </trkpt>
      <trkpt lat="45.26443" lon="4.25593">
        <ele>856.96153846154</ele>
        <time>2015-10-03T09:41:36.889Z</time>
      </trkpt>
      <trkpt lat="45.26431" lon="4.25564">
        <ele>856.8</ele>
        <time>2015-10-03T09:41:39.879Z</time>
      </trkpt>
      <trkpt lat="45.26428" lon="4.25558">
        <ele>856.84</ele>
        <time>2015-10-03T09:41:40.885Z</time>
      </trkpt>
      <trkpt lat="45.26422" lon="4.25547">
        <ele>856.83333333333</ele>
        <time>2015-10-03T09:41:42.902Z</time>
      </trkpt>
      <trkpt lat="45.2642" lon="4.25542">
        <ele>856.84</ele>
        <time>2015-10-03T09:41:43.897Z</time>
      </trkpt>
      <trkpt lat="45.26414" lon="4.25532">
        <ele>856.75</ele>
        <time>2015-10-03T09:41:45.904Z</time>
      </trkpt>
      <trkpt lat="45.26413" lon="4.25527">
        <ele>856.70833333333</ele>
        <time>2015-10-03T09:41:46.913Z</time>
      </trkpt>
      <trkpt lat="45.26408" lon="4.25516">
        <ele>856.66666666667</ele>
        <time>2015-10-03T09:41:48.901Z</time>
      </trkpt>
      <trkpt lat="45.26407" lon="4.25513">
        <ele>856.66666666667</ele>
        <time>2015-10-03T09:41:49.903Z</time>
      </trkpt>
      <trkpt lat="45.26405" lon="4.25512">
        <ele>856.66666666667</ele>
        <time>2015-10-03T09:41:50.924Z</time>
      </trkpt>
      <trkpt lat="45.26399" lon="4.25506">
        <ele>856.58333333333</ele>
        <time>2015-10-03T09:41:53.991Z</time>
      </trkpt>
      <trkpt lat="45.26396" lon="4.255">
        <ele>856.52</ele>
        <time>2015-10-03T09:41:55.960Z</time>
      </trkpt>
      <trkpt lat="45.26395" lon="4.25496">
        <ele>856.52</ele>
        <time>2015-10-03T09:41:56.909Z</time>
      </trkpt>
      <trkpt lat="45.26391" lon="4.25487">
        <ele>856.5</ele>
        <time>2015-10-03T09:41:58.924Z</time>
      </trkpt>
      <trkpt lat="45.26386" lon="4.25476">
        <ele>856.66666666667</ele>
        <time>2015-10-03T09:42:00.960Z</time>
      </trkpt>
      <trkpt lat="45.26383" lon="4.2547">
        <ele>856.58333333333</ele>
        <time>2015-10-03T09:42:01.952Z</time>
      </trkpt>
      <trkpt lat="45.2638" lon="4.25464">
        <ele>856.66666666667</ele>
        <time>2015-10-03T09:42:02.980Z</time>
      </trkpt>
      <trkpt lat="45.26368" lon="4.25445">
        <ele>856.72</ele>
        <time>2015-10-03T09:42:06.961Z</time>
      </trkpt>
      <trkpt lat="45.26365" lon="4.2544">
        <ele>856.72</ele>
        <time>2015-10-03T09:42:07.965Z</time>
      </trkpt>
      <trkpt lat="45.26363" lon="4.25436">
        <ele>856.8</ele>
        <time>2015-10-03T09:42:08.961Z</time>
      </trkpt>
      <trkpt lat="45.26358" lon="4.25427">
        <ele>856.92</ele>
        <time>2015-10-03T09:42:10.944Z</time>
      </trkpt>
      <trkpt lat="45.26356" lon="4.25424">
        <ele>856.96</ele>
        <time>2015-10-03T09:42:11.955Z</time>
      </trkpt>
      <trkpt lat="45.2635" lon="4.25413">
        <ele>856.92</ele>
        <time>2015-10-03T09:42:14.958Z</time>
      </trkpt>
      <trkpt lat="45.26353" lon="4.25412">
        <ele>856.92</ele>
        <time>2015-10-03T09:42:15.974Z</time>
      </trkpt>
      <trkpt lat="45.26356" lon="4.25409">
        <ele>856.92</ele>
        <time>2015-10-03T09:42:16.984Z</time>
      </trkpt>
      <trkpt lat="45.26359" lon="4.25407">
        <ele>856.92307692308</ele>
        <time>2015-10-03T09:42:17.990Z</time>
      </trkpt>
      <trkpt lat="45.26358" lon="4.25404">
        <ele>857.04</ele>
        <time>2015-10-03T09:42:19.033Z</time>
      </trkpt>
      <trkpt lat="45.26355" lon="4.254">
        <ele>857.12</ele>
        <time>2015-10-03T09:42:20.018Z</time>
      </trkpt>
      <trkpt lat="45.26347" lon="4.25383">
        <ele>857.16</ele>
        <time>2015-10-03T09:42:22.961Z</time>
      </trkpt>
      <trkpt lat="45.26346" lon="4.25383">
        <ele>857.28</ele>
        <time>2015-10-03T09:42:23.966Z</time>
      </trkpt>
      <trkpt lat="45.26348" lon="4.25381">
        <ele>857.24</ele>
        <time>2015-10-03T09:42:24.972Z</time>
      </trkpt>
      <trkpt lat="45.26348" lon="4.25375">
        <ele>857.2</ele>
        <time>2015-10-03T09:42:25.980Z</time>
      </trkpt>
      <trkpt lat="45.26346" lon="4.25368">
        <ele>857.28</ele>
        <time>2015-10-03T09:42:26.975Z</time>
      </trkpt>
      <trkpt lat="45.26344" lon="4.25364">
        <ele>857.16</ele>
        <time>2015-10-03T09:42:27.994Z</time>
      </trkpt>
      <trkpt lat="45.26344" lon="4.25359">
        <ele>857.2</ele>
        <time>2015-10-03T09:42:28.992Z</time>
      </trkpt>
      <trkpt lat="45.26341" lon="4.25352">
        <ele>857.23076923077</ele>
        <time>2015-10-03T09:42:29.960Z</time>
      </trkpt>
      <trkpt lat="45.26338" lon="4.25346">
        <ele>857.15384615385</ele>
        <time>2015-10-03T09:42:30.959Z</time>
      </trkpt>
      <trkpt lat="45.26335" lon="4.2534">
        <ele>857.2</ele>
        <time>2015-10-03T09:42:31.989Z</time>
      </trkpt>
      <trkpt lat="45.26325" lon="4.25322">
        <ele>857.16</ele>
        <time>2015-10-03T09:42:34.959Z</time>
      </trkpt>
      <trkpt lat="45.2632" lon="4.25311">
        <ele>857.12</ele>
        <time>2015-10-03T09:42:36.970Z</time>
      </trkpt>
      <trkpt lat="45.26317" lon="4.25304">
        <ele>857.2</ele>
        <time>2015-10-03T09:42:37.969Z</time>
      </trkpt>
      <trkpt lat="45.26312" lon="4.25288">
        <ele>857.44</ele>
        <time>2015-10-03T09:42:40.984Z</time>
      </trkpt>
      <trkpt lat="45.2631" lon="4.25283">
        <ele>857.44</ele>
        <time>2015-10-03T09:42:41.988Z</time>
      </trkpt>
      <trkpt lat="45.26308" lon="4.2528">
        <ele>857.5</ele>
        <time>2015-10-03T09:42:42.969Z</time>
      </trkpt>
      <trkpt lat="45.26303" lon="4.25271">
        <ele>857.57692307692</ele>
        <time>2015-10-03T09:42:44.953Z</time>
      </trkpt>
      <trkpt lat="45.26301" lon="4.25267">
        <ele>857.69230769231</ele>
        <time>2015-10-03T09:42:45.955Z</time>
      </trkpt>
      <trkpt lat="45.263" lon="4.25262">
        <ele>857.84</ele>
        <time>2015-10-03T09:42:46.973Z</time>
      </trkpt>
      <trkpt lat="45.26296" lon="4.25253">
        <ele>858.07692307692</ele>
        <time>2015-10-03T09:42:48.962Z</time>
      </trkpt>
      <trkpt lat="45.26293" lon="4.25249">
        <ele>858.07692307692</ele>
        <time>2015-10-03T09:42:49.962Z</time>
      </trkpt>
      <trkpt lat="45.26288" lon="4.25243">
        <ele>858.26923076923</ele>
        <time>2015-10-03T09:42:51.957Z</time>
      </trkpt>
      <trkpt lat="45.26282" lon="4.25234">
        <ele>858.61538461538</ele>
        <time>2015-10-03T09:42:54.956Z</time>
      </trkpt>
      <trkpt lat="45.26281" lon="4.2523">
        <ele>858.84</ele>
        <time>2015-10-03T09:42:55.981Z</time>
      </trkpt>
      <trkpt lat="45.2628" lon="4.25225">
        <ele>858.88461538462</ele>
        <time>2015-10-03T09:42:56.973Z</time>
      </trkpt>
      <trkpt lat="45.26276" lon="4.25211">
        <ele>859.15384615385</ele>
        <time>2015-10-03T09:42:59.901Z</time>
      </trkpt>
      <trkpt lat="45.26273" lon="4.25195">
        <ele>859.36</ele>
        <time>2015-10-03T09:43:02.975Z</time>
      </trkpt>
      <trkpt lat="45.26273" lon="4.2519">
        <ele>859.32</ele>
        <time>2015-10-03T09:43:03.993Z</time>
      </trkpt>
      <trkpt lat="45.26273" lon="4.25185">
        <ele>859.4</ele>
        <time>2015-10-03T09:43:04.989Z</time>
      </trkpt>
      <trkpt lat="45.26272" lon="4.25181">
        <ele>859.44</ele>
        <time>2015-10-03T09:43:06.003Z</time>
      </trkpt>
      <trkpt lat="45.26269" lon="4.25177">
        <ele>859.48</ele>
        <time>2015-10-03T09:43:07.005Z</time>
      </trkpt>
      <trkpt lat="45.26265" lon="4.25174">
        <ele>859.52</ele>
        <time>2015-10-03T09:43:07.992Z</time>
      </trkpt>
      <trkpt lat="45.26262" lon="4.25171">
        <ele>859.52</ele>
        <time>2015-10-03T09:43:08.983Z</time>
      </trkpt>
      <trkpt lat="45.26259" lon="4.25167">
        <ele>859.56</ele>
        <time>2015-10-03T09:43:09.969Z</time>
      </trkpt>
      <trkpt lat="45.26254" lon="4.25159">
        <ele>859.5</ele>
        <time>2015-10-03T09:43:11.972Z</time>
      </trkpt>
      <trkpt lat="45.26251" lon="4.25156">
        <ele>859.4</ele>
        <time>2015-10-03T09:43:13.004Z</time>
      </trkpt>
      <trkpt lat="45.26244" lon="4.2515">
        <ele>859.28</ele>
        <time>2015-10-03T09:43:15.015Z</time>
      </trkpt>
      <trkpt lat="45.26232" lon="4.25142">
        <ele>859.12</ele>
        <time>2015-10-03T09:43:17.991Z</time>
      </trkpt>
      <trkpt lat="45.26228" lon="4.25138">
        <ele>859.15384615385</ele>
        <time>2015-10-03T09:43:18.963Z</time>
      </trkpt>
      <trkpt lat="45.26221" lon="4.25131">
        <ele>859.08</ele>
        <time>2015-10-03T09:43:20.985Z</time>
      </trkpt>
      <trkpt lat="45.26206" lon="4.25118">
        <ele>859</ele>
        <time>2015-10-03T09:43:24.928Z</time>
      </trkpt>
      <trkpt lat="45.26192" lon="4.25107">
        <ele>859.03846153846</ele>
        <time>2015-10-03T09:43:28.914Z</time>
      </trkpt>
      <trkpt lat="45.26188" lon="4.25104">
        <ele>859.15384615385</ele>
        <time>2015-10-03T09:43:29.920Z</time>
      </trkpt>
      <trkpt lat="45.26184" lon="4.25102">
        <ele>859.03846153846</ele>
        <time>2015-10-03T09:43:30.913Z</time>
      </trkpt>
      <trkpt lat="45.2618" lon="4.25099">
        <ele>859.07692307692</ele>
        <time>2015-10-03T09:43:31.923Z</time>
      </trkpt>
      <trkpt lat="45.26167" lon="4.25091">
        <ele>859</ele>
        <time>2015-10-03T09:43:34.953Z</time>
      </trkpt>
      <trkpt lat="45.26163" lon="4.25089">
        <ele>859</ele>
        <time>2015-10-03T09:43:35.981Z</time>
      </trkpt>
      <trkpt lat="45.26139" lon="4.25075">
        <ele>859.16</ele>
        <time>2015-10-03T09:43:40.973Z</time>
      </trkpt>
      <trkpt lat="45.26126" lon="4.25068">
        <ele>859.20833333333</ele>
        <time>2015-10-03T09:43:43.974Z</time>
      </trkpt>
      <trkpt lat="45.26112" lon="4.25061">
        <ele>859.08333333333</ele>
        <time>2015-10-03T09:43:47.014Z</time>
      </trkpt>
      <trkpt lat="45.26103" lon="4.25057">
        <ele>858.875</ele>
        <time>2015-10-03T09:43:49.013Z</time>
      </trkpt>
      <trkpt lat="45.26099" lon="4.25053">
        <ele>858.83333333333</ele>
        <time>2015-10-03T09:43:50.015Z</time>
      </trkpt>
      <trkpt lat="45.26096" lon="4.2505">
        <ele>858.79166666667</ele>
        <time>2015-10-03T09:43:51.018Z</time>
      </trkpt>
      <trkpt lat="45.26092" lon="4.25047">
        <ele>858.58333333333</ele>
        <time>2015-10-03T09:43:52.018Z</time>
      </trkpt>
      <trkpt lat="45.26078" lon="4.25033">
        <ele>858.20833333333</ele>
        <time>2015-10-03T09:43:55.980Z</time>
      </trkpt>
      <trkpt lat="45.26068" lon="4.25022">
        <ele>857.79166666667</ele>
        <time>2015-10-03T09:43:58.956Z</time>
      </trkpt>
      <trkpt lat="45.26065" lon="4.25018">
        <ele>857.70833333333</ele>
        <time>2015-10-03T09:43:59.981Z</time>
      </trkpt>
      <trkpt lat="45.2605" lon="4.25002">
        <ele>857</ele>
        <time>2015-10-03T09:44:03.962Z</time>
      </trkpt>
      <trkpt lat="45.26042" lon="4.24994">
        <ele>856.76</ele>
        <time>2015-10-03T09:44:05.977Z</time>
      </trkpt>
      <trkpt lat="45.26039" lon="4.24991">
        <ele>856.52</ele>
        <time>2015-10-03T09:44:06.995Z</time>
      </trkpt>
      <trkpt lat="45.26036" lon="4.24986">
        <ele>856.28</ele>
        <time>2015-10-03T09:44:08.032Z</time>
      </trkpt>
      <trkpt lat="45.26029" lon="4.24978">
        <ele>855.96</ele>
        <time>2015-10-03T09:44:09.989Z</time>
      </trkpt>
      <trkpt lat="45.26026" lon="4.24973">
        <ele>855.84615384615</ele>
        <time>2015-10-03T09:44:11.005Z</time>
      </trkpt>
      <trkpt lat="45.26023" lon="4.24966">
        <ele>855.57692307692</ele>
        <time>2015-10-03T09:44:11.993Z</time>
      </trkpt>
      <trkpt lat="45.26022" lon="4.24962">
        <ele>855.30769230769</ele>
        <time>2015-10-03T09:44:12.989Z</time>
      </trkpt>
      <trkpt lat="45.2602" lon="4.24958">
        <ele>855.07692307692</ele>
        <time>2015-10-03T09:44:13.965Z</time>
      </trkpt>
      <trkpt lat="45.26017" lon="4.24953">
        <ele>854.88461538462</ele>
        <time>2015-10-03T09:44:14.939Z</time>
      </trkpt>
      <trkpt lat="45.26015" lon="4.2495">
        <ele>854.57692307692</ele>
        <time>2015-10-03T09:44:15.909Z</time>
      </trkpt>
      <trkpt lat="45.26011" lon="4.24945">
        <ele>854.26923076923</ele>
        <time>2015-10-03T09:44:16.900Z</time>
      </trkpt>
      <trkpt lat="45.26006" lon="4.2494">
        <ele>854.03846153846</ele>
        <time>2015-10-03T09:44:17.922Z</time>
      </trkpt>
      <trkpt lat="45.25997" lon="4.24932">
        <ele>853.46153846154</ele>
        <time>2015-10-03T09:44:19.920Z</time>
      </trkpt>
      <trkpt lat="45.25992" lon="4.24928">
        <ele>853.19230769231</ele>
        <time>2015-10-03T09:44:20.902Z</time>
      </trkpt>
      <trkpt lat="45.25985" lon="4.24922">
        <ele>852.84615384615</ele>
        <time>2015-10-03T09:44:21.895Z</time>
      </trkpt>
      <trkpt lat="45.25955" lon="4.24899">
        <ele>852.04</ele>
        <time>2015-10-03T09:44:24.878Z</time>
      </trkpt>
      <trkpt lat="45.25948" lon="4.24894">
        <ele>851.72</ele>
        <time>2015-10-03T09:44:25.895Z</time>
      </trkpt>
      <trkpt lat="45.25936" lon="4.2488">
        <ele>850.92</ele>
        <time>2015-10-03T09:44:27.896Z</time>
      </trkpt>
      <trkpt lat="45.25929" lon="4.24872">
        <ele>850.52</ele>
        <time>2015-10-03T09:44:28.895Z</time>
      </trkpt>
      <trkpt lat="45.25927" lon="4.24864">
        <ele>850.16</ele>
        <time>2015-10-03T09:44:29.886Z</time>
      </trkpt>
      <trkpt lat="45.25925" lon="4.24856">
        <ele>849.84</ele>
        <time>2015-10-03T09:44:30.888Z</time>
      </trkpt>
      <trkpt lat="45.25923" lon="4.24848">
        <ele>849.48</ele>
        <time>2015-10-03T09:44:31.904Z</time>
      </trkpt>
      <trkpt lat="45.25921" lon="4.24843">
        <ele>849.16</ele>
        <time>2015-10-03T09:44:32.898Z</time>
      </trkpt>
      <trkpt lat="45.25918" lon="4.24834">
        <ele>848.88</ele>
        <time>2015-10-03T09:44:33.913Z</time>
      </trkpt>
      <trkpt lat="45.25916" lon="4.2483">
        <ele>848.52</ele>
        <time>2015-10-03T09:44:34.916Z</time>
      </trkpt>
      <trkpt lat="45.25916" lon="4.24825">
        <ele>848.24</ele>
        <time>2015-10-03T09:44:35.894Z</time>
      </trkpt>
      <trkpt lat="45.25914" lon="4.24819">
        <ele>847.92</ele>
        <time>2015-10-03T09:44:36.893Z</time>
      </trkpt>
      <trkpt lat="45.25913" lon="4.24807">
        <ele>847.28</ele>
        <time>2015-10-03T09:44:38.907Z</time>
      </trkpt>
      <trkpt lat="45.25912" lon="4.24802">
        <ele>847</ele>
        <time>2015-10-03T09:44:39.915Z</time>
      </trkpt>
      <trkpt lat="45.25911" lon="4.24796">
        <ele>846.72</ele>
        <time>2015-10-03T09:44:40.895Z</time>
      </trkpt>
      <trkpt lat="45.2591" lon="4.24786">
        <ele>846.16</ele>
        <time>2015-10-03T09:44:42.891Z</time>
      </trkpt>
      <trkpt lat="45.2591" lon="4.24782">
        <ele>845.88</ele>
        <time>2015-10-03T09:44:43.882Z</time>
      </trkpt>
      <trkpt lat="45.25909" lon="4.2478">
        <ele>845.64</ele>
        <time>2015-10-03T09:44:44.906Z</time>
      </trkpt>
      <trkpt lat="45.25908" lon="4.24779">
        <ele>845.08333333333</ele>
        <time>2015-10-03T09:44:45.917Z</time>
      </trkpt>
      <trkpt lat="45.25908" lon="4.24775">
        <ele>844.83333333333</ele>
        <time>2015-10-03T09:44:46.898Z</time>
      </trkpt>
      <trkpt lat="45.25907" lon="4.24768">
        <ele>844.68</ele>
        <time>2015-10-03T09:44:47.894Z</time>
      </trkpt>
      <trkpt lat="45.25905" lon="4.24759">
        <ele>844.36</ele>
        <time>2015-10-03T09:44:48.931Z</time>
      </trkpt>
      <trkpt lat="45.259" lon="4.24741">
        <ele>843.8</ele>
        <time>2015-10-03T09:44:50.922Z</time>
      </trkpt>
      <trkpt lat="45.25898" lon="4.24731">
        <ele>843.44</ele>
        <time>2015-10-03T09:44:51.910Z</time>
      </trkpt>
      <trkpt lat="45.25896" lon="4.24721">
        <ele>843.12</ele>
        <time>2015-10-03T09:44:52.898Z</time>
      </trkpt>
      <trkpt lat="45.25894" lon="4.2471">
        <ele>842.88461538462</ele>
        <time>2015-10-03T09:44:53.895Z</time>
      </trkpt>
      <trkpt lat="45.25894" lon="4.24686">
        <ele>842.4</ele>
        <time>2015-10-03T09:44:54.895Z</time>
      </trkpt>
      <trkpt lat="45.25891" lon="4.2466">
        <ele>842.08</ele>
        <time>2015-10-03T09:44:56.888Z</time>
      </trkpt>
      <trkpt lat="45.25889" lon="4.24647">
        <ele>841.68</ele>
        <time>2015-10-03T09:44:57.887Z</time>
      </trkpt>
      <trkpt lat="45.25886" lon="4.24635">
        <ele>841.2</ele>
        <time>2015-10-03T09:44:58.897Z</time>
      </trkpt>
      <trkpt lat="45.25883" lon="4.24626">
        <ele>840.72</ele>
        <time>2015-10-03T09:44:59.891Z</time>
      </trkpt>
      <trkpt lat="45.2588" lon="4.24617">
        <ele>840.28</ele>
        <time>2015-10-03T09:45:00.893Z</time>
      </trkpt>
      <trkpt lat="45.25878" lon="4.2461">
        <ele>839.84</ele>
        <time>2015-10-03T09:45:01.889Z</time>
      </trkpt>
      <trkpt lat="45.25877" lon="4.24604">
        <ele>839.32</ele>
        <time>2015-10-03T09:45:02.897Z</time>
      </trkpt>
      <trkpt lat="45.25876" lon="4.24599">
        <ele>838.88</ele>
        <time>2015-10-03T09:45:03.896Z</time>
      </trkpt>
      <trkpt lat="45.25872" lon="4.24588">
        <ele>837.75</ele>
        <time>2015-10-03T09:45:05.901Z</time>
      </trkpt>
      <trkpt lat="45.2587" lon="4.24583">
        <ele>837.29166666667</ele>
        <time>2015-10-03T09:45:06.901Z</time>
      </trkpt>
      <trkpt lat="45.25866" lon="4.24574">
        <ele>836.5</ele>
        <time>2015-10-03T09:45:08.903Z</time>
      </trkpt>
      <trkpt lat="45.25866" lon="4.24571">
        <ele>836.44</ele>
        <time>2015-10-03T09:45:09.893Z</time>
      </trkpt>
      <trkpt lat="45.25865" lon="4.2457">
        <ele>836.16</ele>
        <time>2015-10-03T09:45:10.910Z</time>
      </trkpt>
      <trkpt lat="45.25864" lon="4.24568">
        <ele>835.75</ele>
        <time>2015-10-03T09:45:11.941Z</time>
      </trkpt>
      <trkpt lat="45.25864" lon="4.24566">
        <ele>835.41666666667</ele>
        <time>2015-10-03T09:45:12.964Z</time>
      </trkpt>
      <trkpt lat="45.25864" lon="4.24566">
        <ele>835.16666666667</ele>
        <time>2015-10-03T09:45:13.968Z</time>
      </trkpt>
      <trkpt lat="45.25864" lon="4.24565">
        <ele>834.95833333333</ele>
        <time>2015-10-03T09:45:14.978Z</time>
      </trkpt>
      <trkpt lat="45.25864" lon="4.24562">
        <ele>834.75</ele>
        <time>2015-10-03T09:45:15.931Z</time>
      </trkpt>
      <trkpt lat="45.25864" lon="4.24558">
        <ele>834.76</ele>
        <time>2015-10-03T09:45:16.889Z</time>
      </trkpt>
      <trkpt lat="45.25863" lon="4.24545">
        <ele>834.58333333333</ele>
        <time>2015-10-03T09:45:19.899Z</time>
      </trkpt>
      <trkpt lat="45.25862" lon="4.24541">
        <ele>834.64</ele>
        <time>2015-10-03T09:45:20.902Z</time>
      </trkpt>
      <trkpt lat="45.25859" lon="4.24528">
        <ele>834.6</ele>
        <time>2015-10-03T09:45:23.909Z</time>
      </trkpt>
      <trkpt lat="45.25856" lon="4.24519">
        <ele>834.88</ele>
        <time>2015-10-03T09:45:25.924Z</time>
      </trkpt>
      <trkpt lat="45.25855" lon="4.24517">
        <ele>834.92</ele>
        <time>2015-10-03T09:45:26.923Z</time>
      </trkpt>
      <trkpt lat="45.25854" lon="4.24515">
        <ele>834.96153846154</ele>
        <time>2015-10-03T09:45:27.889Z</time>
      </trkpt>
      <trkpt lat="45.25854" lon="4.24511">
        <ele>835.24</ele>
        <time>2015-10-03T09:45:28.903Z</time>
      </trkpt>
      <trkpt lat="45.25853" lon="4.24504">
        <ele>835.57692307692</ele>
        <time>2015-10-03T09:45:30.899Z</time>
      </trkpt>
      <trkpt lat="45.25853" lon="4.24501">
        <ele>835.76</ele>
        <time>2015-10-03T09:45:31.906Z</time>
      </trkpt>
      <trkpt lat="45.25853" lon="4.24499">
        <ele>835.92</ele>
        <time>2015-10-03T09:45:32.910Z</time>
      </trkpt>
      <trkpt lat="45.25854" lon="4.2449">
        <ele>836.08</ele>
        <time>2015-10-03T09:45:35.938Z</time>
      </trkpt>
      <trkpt lat="45.25854" lon="4.24487">
        <ele>836.16</ele>
        <time>2015-10-03T09:45:36.953Z</time>
      </trkpt>
      <trkpt lat="45.25855" lon="4.24485">
        <ele>836.23076923077</ele>
        <time>2015-10-03T09:45:37.961Z</time>
      </trkpt>
      <trkpt lat="45.25856" lon="4.24483">
        <ele>836.6</ele>
        <time>2015-10-03T09:45:38.977Z</time>
      </trkpt>
      <trkpt lat="45.25858" lon="4.24477">
        <ele>836.79166666667</ele>
        <time>2015-10-03T09:45:40.964Z</time>
      </trkpt>
      <trkpt lat="45.25859" lon="4.24474">
        <ele>836.875</ele>
        <time>2015-10-03T09:45:41.940Z</time>
      </trkpt>
      <trkpt lat="45.2586" lon="4.24471">
        <ele>836.91666666667</ele>
        <time>2015-10-03T09:45:42.930Z</time>
      </trkpt>
      <trkpt lat="45.25861" lon="4.24469">
        <ele>837.125</ele>
        <time>2015-10-03T09:45:43.950Z</time>
      </trkpt>
      <trkpt lat="45.25862" lon="4.24465">
        <ele>837.25</ele>
        <time>2015-10-03T09:45:44.952Z</time>
      </trkpt>
      <trkpt lat="45.25863" lon="4.24458">
        <ele>837.45833333333</ele>
        <time>2015-10-03T09:45:46.954Z</time>
      </trkpt>
      <trkpt lat="45.25862" lon="4.24449">
        <ele>837.75</ele>
        <time>2015-10-03T09:45:48.928Z</time>
      </trkpt>
      <trkpt lat="45.25861" lon="4.24445">
        <ele>837.875</ele>
        <time>2015-10-03T09:45:49.923Z</time>
      </trkpt>
      <trkpt lat="45.2586" lon="4.24434">
        <ele>838.125</ele>
        <time>2015-10-03T09:45:51.944Z</time>
      </trkpt>
      <trkpt lat="45.25861" lon="4.24429">
        <ele>838.20833333333</ele>
        <time>2015-10-03T09:45:52.933Z</time>
      </trkpt>
      <trkpt lat="45.25865" lon="4.24419">
        <ele>838.25</ele>
        <time>2015-10-03T09:45:54.916Z</time>
      </trkpt>
      <trkpt lat="45.25863" lon="4.24414">
        <ele>838.20833333333</ele>
        <time>2015-10-03T09:45:55.955Z</time>
      </trkpt>
      <trkpt lat="45.2586" lon="4.24409">
        <ele>838.25</ele>
        <time>2015-10-03T09:45:56.975Z</time>
      </trkpt>
      <trkpt lat="45.25858" lon="4.244">
        <ele>838.25</ele>
        <time>2015-10-03T09:45:57.948Z</time>
      </trkpt>
      <trkpt lat="45.25858" lon="4.24392">
        <ele>838.25</ele>
        <time>2015-10-03T09:45:58.964Z</time>
      </trkpt>
      <trkpt lat="45.2586" lon="4.24386">
        <ele>838.25</ele>
        <time>2015-10-03T09:45:59.938Z</time>
      </trkpt>
      <trkpt lat="45.25861" lon="4.24377">
        <ele>838.16</ele>
        <time>2015-10-03T09:46:00.917Z</time>
      </trkpt>
      <trkpt lat="45.25862" lon="4.24368">
        <ele>838.12</ele>
        <time>2015-10-03T09:46:01.946Z</time>
      </trkpt>
      <trkpt lat="45.25863" lon="4.24359">
        <ele>838</ele>
        <time>2015-10-03T09:46:02.956Z</time>
      </trkpt>
      <trkpt lat="45.25864" lon="4.24347">
        <ele>837.92</ele>
        <time>2015-10-03T09:46:03.955Z</time>
      </trkpt>
      <trkpt lat="45.25864" lon="4.24336">
        <ele>837.76</ele>
        <time>2015-10-03T09:46:04.923Z</time>
      </trkpt>
      <trkpt lat="45.25861" lon="4.24327">
        <ele>837.61538461538</ele>
        <time>2015-10-03T09:46:05.955Z</time>
      </trkpt>
      <trkpt lat="45.25858" lon="4.24319">
        <ele>837.6</ele>
        <time>2015-10-03T09:46:06.993Z</time>
      </trkpt>
      <trkpt lat="45.25856" lon="4.24312">
        <ele>837.52</ele>
        <time>2015-10-03T09:46:07.955Z</time>
      </trkpt>
      <trkpt lat="45.25854" lon="4.243">
        <ele>837.12</ele>
        <time>2015-10-03T09:46:09.954Z</time>
      </trkpt>
      <trkpt lat="45.25852" lon="4.24293">
        <ele>836.96</ele>
        <time>2015-10-03T09:46:10.959Z</time>
      </trkpt>
      <trkpt lat="45.2585" lon="4.24287">
        <ele>836.92</ele>
        <time>2015-10-03T09:46:11.979Z</time>
      </trkpt>
      <trkpt lat="45.25849" lon="4.24281">
        <ele>836.68</ele>
        <time>2015-10-03T09:46:12.964Z</time>
      </trkpt>
      <trkpt lat="45.25848" lon="4.24275">
        <ele>836.64</ele>
        <time>2015-10-03T09:46:13.939Z</time>
      </trkpt>
      <trkpt lat="45.25846" lon="4.24265">
        <ele>836.28</ele>
        <time>2015-10-03T09:46:15.975Z</time>
      </trkpt>
      <trkpt lat="45.25846" lon="4.24263">
        <ele>836.2</ele>
        <time>2015-10-03T09:46:16.980Z</time>
      </trkpt>
      <trkpt lat="45.25847" lon="4.24263">
        <ele>836.12</ele>
        <time>2015-10-03T09:46:17.987Z</time>
      </trkpt>
      <trkpt lat="45.25847" lon="4.24265">
        <ele>836</ele>
        <time>2015-10-03T09:46:18.978Z</time>
      </trkpt>
      <trkpt lat="45.25848" lon="4.24265">
        <ele>835.88</ele>
        <time>2015-10-03T09:46:20.996Z</time>
      </trkpt>
      <trkpt lat="45.25849" lon="4.24264">
        <ele>835.92</ele>
        <time>2015-10-03T09:46:21.983Z</time>
      </trkpt>
      <trkpt lat="45.25849" lon="4.24263">
        <ele>835.88</ele>
        <time>2015-10-03T09:46:22.990Z</time>
      </trkpt>
      <trkpt lat="45.2585" lon="4.2426">
        <ele>835.88</ele>
        <time>2015-10-03T09:46:23.980Z</time>
      </trkpt>
      <trkpt lat="45.25851" lon="4.24256">
        <ele>835.92</ele>
        <time>2015-10-03T09:46:24.977Z</time>
      </trkpt>
      <trkpt lat="45.25853" lon="4.24252">
        <ele>835.92</ele>
        <time>2015-10-03T09:46:25.985Z</time>
      </trkpt>
      <trkpt lat="45.25857" lon="4.24247">
        <ele>835.92</ele>
        <time>2015-10-03T09:46:26.971Z</time>
      </trkpt>
      <trkpt lat="45.25863" lon="4.24241">
        <ele>835.96</ele>
        <time>2015-10-03T09:46:28.979Z</time>
      </trkpt>
      <trkpt lat="45.25866" lon="4.24237">
        <ele>836.04</ele>
        <time>2015-10-03T09:46:29.966Z</time>
      </trkpt>
      <trkpt lat="45.25871" lon="4.2423">
        <ele>836.15384615385</ele>
        <time>2015-10-03T09:46:31.983Z</time>
      </trkpt>
      <trkpt lat="45.25879" lon="4.24222">
        <ele>836.24</ele>
        <time>2015-10-03T09:46:33.979Z</time>
      </trkpt>
      <trkpt lat="45.25883" lon="4.24219">
        <ele>836.24</ele>
        <time>2015-10-03T09:46:34.988Z</time>
      </trkpt>
      <trkpt lat="45.25886" lon="4.24216">
        <ele>836.36</ele>
        <time>2015-10-03T09:46:36.005Z</time>
      </trkpt>
      <trkpt lat="45.25892" lon="4.24203">
        <ele>836.24</ele>
        <time>2015-10-03T09:46:39.971Z</time>
      </trkpt>
      <trkpt lat="45.2589" lon="4.24205">
        <ele>836.28</ele>
        <time>2015-10-03T09:46:40.985Z</time>
      </trkpt>
      <trkpt lat="45.25889" lon="4.2421">
        <ele>836.16</ele>
        <time>2015-10-03T09:46:41.986Z</time>
      </trkpt>
      <trkpt lat="45.25892" lon="4.2421">
        <ele>836.19230769231</ele>
        <time>2015-10-03T09:46:42.928Z</time>
      </trkpt>
      <trkpt lat="45.25896" lon="4.24204">
        <ele>836.23076923077</ele>
        <time>2015-10-03T09:46:43.888Z</time>
      </trkpt>
      <trkpt lat="45.25899" lon="4.24199">
        <ele>836.19230769231</ele>
        <time>2015-10-03T09:46:44.904Z</time>
      </trkpt>
      <trkpt lat="45.25904" lon="4.24193">
        <ele>836.07692307692</ele>
        <time>2015-10-03T09:46:45.946Z</time>
      </trkpt>
      <trkpt lat="45.25908" lon="4.24188">
        <ele>836.15384615385</ele>
        <time>2015-10-03T09:46:46.971Z</time>
      </trkpt>
      <trkpt lat="45.25916" lon="4.24177">
        <ele>836.04</ele>
        <time>2015-10-03T09:46:49.007Z</time>
      </trkpt>
      <trkpt lat="45.25919" lon="4.2417">
        <ele>836</ele>
        <time>2015-10-03T09:46:50.016Z</time>
      </trkpt>
      <trkpt lat="45.25921" lon="4.24166">
        <ele>835.96153846154</ele>
        <time>2015-10-03T09:46:50.955Z</time>
      </trkpt>
      <trkpt lat="45.25924" lon="4.24161">
        <ele>835.88461538462</ele>
        <time>2015-10-03T09:46:51.890Z</time>
      </trkpt>
      <trkpt lat="45.25927" lon="4.24155">
        <ele>835.80769230769</ele>
        <time>2015-10-03T09:46:52.898Z</time>
      </trkpt>
      <trkpt lat="45.25934" lon="4.2414">
        <ele>835.57692307692</ele>
        <time>2015-10-03T09:46:54.893Z</time>
      </trkpt>
      <trkpt lat="45.25941" lon="4.24127">
        <ele>835.23076923077</ele>
        <time>2015-10-03T09:46:56.906Z</time>
      </trkpt>
      <trkpt lat="45.2595" lon="4.24108">
        <ele>834.84</ele>
        <time>2015-10-03T09:46:59.873Z</time>
      </trkpt>
      <trkpt lat="45.25952" lon="4.24098">
        <ele>834.48</ele>
        <time>2015-10-03T09:47:01.890Z</time>
      </trkpt>
      <trkpt lat="45.25954" lon="4.2409">
        <ele>834.32</ele>
        <time>2015-10-03T09:47:02.900Z</time>
      </trkpt>
      <trkpt lat="45.25957" lon="4.24083">
        <ele>834.08</ele>
        <time>2015-10-03T09:47:03.915Z</time>
      </trkpt>
      <trkpt lat="45.25957" lon="4.2408">
        <ele>833.92</ele>
        <time>2015-10-03T09:47:04.905Z</time>
      </trkpt>
      <trkpt lat="45.25958" lon="4.24077">
        <ele>833.8</ele>
        <time>2015-10-03T09:47:05.897Z</time>
      </trkpt>
      <trkpt lat="45.25958" lon="4.24073">
        <ele>833.52</ele>
        <time>2015-10-03T09:47:07.894Z</time>
      </trkpt>
      <trkpt lat="45.25958" lon="4.24071">
        <ele>833.125</ele>
        <time>2015-10-03T09:47:08.900Z</time>
      </trkpt>
      <trkpt lat="45.25958" lon="4.24069">
        <ele>832.95833333333</ele>
        <time>2015-10-03T09:47:09.930Z</time>
      </trkpt>
      <trkpt lat="45.25958" lon="4.24066">
        <ele>832.84</ele>
        <time>2015-10-03T09:47:10.923Z</time>
      </trkpt>
      <trkpt lat="45.25958" lon="4.24065">
        <ele>832.68</ele>
        <time>2015-10-03T09:47:11.915Z</time>
      </trkpt>
      <trkpt lat="45.25958" lon="4.24061">
        <ele>832.16</ele>
        <time>2015-10-03T09:47:13.977Z</time>
      </trkpt>
      <trkpt lat="45.25958" lon="4.24057">
        <ele>831.88</ele>
        <time>2015-10-03T09:47:14.947Z</time>
      </trkpt>
      <trkpt lat="45.25959" lon="4.2405">
        <ele>831.6</ele>
        <time>2015-10-03T09:47:15.907Z</time>
      </trkpt>
      <trkpt lat="45.25959" lon="4.24042">
        <ele>831.25</ele>
        <time>2015-10-03T09:47:16.907Z</time>
      </trkpt>
      <trkpt lat="45.25961" lon="4.24033">
        <ele>831.04166666667</ele>
        <time>2015-10-03T09:47:17.911Z</time>
      </trkpt>
      <trkpt lat="45.25964" lon="4.24026">
        <ele>830.83333333333</ele>
        <time>2015-10-03T09:47:18.909Z</time>
      </trkpt>
      <trkpt lat="45.25966" lon="4.2402">
        <ele>830.625</ele>
        <time>2015-10-03T09:47:19.909Z</time>
      </trkpt>
      <trkpt lat="45.25967" lon="4.24016">
        <ele>830.375</ele>
        <time>2015-10-03T09:47:20.916Z</time>
      </trkpt>
      <trkpt lat="45.25969" lon="4.24012">
        <ele>830.28</ele>
        <time>2015-10-03T09:47:21.900Z</time>
      </trkpt>
      <trkpt lat="45.25971" lon="4.24006">
        <ele>829.91666666667</ele>
        <time>2015-10-03T09:47:22.910Z</time>
      </trkpt>
      <trkpt lat="45.25974" lon="4.24001">
        <ele>829.8</ele>
        <time>2015-10-03T09:47:23.906Z</time>
      </trkpt>
      <trkpt lat="45.25976" lon="4.23999">
        <ele>829.6</ele>
        <time>2015-10-03T09:47:24.903Z</time>
      </trkpt>
      <trkpt lat="45.25978" lon="4.23997">
        <ele>829.36</ele>
        <time>2015-10-03T09:47:25.905Z</time>
      </trkpt>
      <trkpt lat="45.2598" lon="4.23996">
        <ele>829.16</ele>
        <time>2015-10-03T09:47:26.915Z</time>
      </trkpt>
      <trkpt lat="45.25983" lon="4.23993">
        <ele>829.03846153846</ele>
        <time>2015-10-03T09:47:27.891Z</time>
      </trkpt>
      <trkpt lat="45.25986" lon="4.2399">
        <ele>828.84615384615</ele>
        <time>2015-10-03T09:47:28.893Z</time>
      </trkpt>
      <trkpt lat="45.25991" lon="4.23986">
        <ele>828.48</ele>
        <time>2015-10-03T09:47:29.908Z</time>
      </trkpt>
      <trkpt lat="45.25995" lon="4.23981">
        <ele>828.28</ele>
        <time>2015-10-03T09:47:30.903Z</time>
      </trkpt>
      <trkpt lat="45.26" lon="4.23976">
        <ele>828.11538461538</ele>
        <time>2015-10-03T09:47:31.891Z</time>
      </trkpt>
      <trkpt lat="45.2601" lon="4.23966">
        <ele>827.84615384615</ele>
        <time>2015-10-03T09:47:32.893Z</time>
      </trkpt>
      <trkpt lat="45.26012" lon="4.23963">
        <ele>827.48</ele>
        <time>2015-10-03T09:47:34.880Z</time>
      </trkpt>
      <trkpt lat="45.26016" lon="4.23959">
        <ele>827.32</ele>
        <time>2015-10-03T09:47:35.884Z</time>
      </trkpt>
      <trkpt lat="45.26023" lon="4.23951">
        <ele>827.12</ele>
        <time>2015-10-03T09:47:36.903Z</time>
      </trkpt>
      <trkpt lat="45.26027" lon="4.23947">
        <ele>826.92</ele>
        <time>2015-10-03T09:47:37.900Z</time>
      </trkpt>
      <trkpt lat="45.26028" lon="4.23948">
        <ele>826.72</ele>
        <time>2015-10-03T09:47:38.896Z</time>
      </trkpt>
      <trkpt lat="45.26034" lon="4.23941">
        <ele>826.6</ele>
        <time>2015-10-03T09:47:39.902Z</time>
      </trkpt>
      <trkpt lat="45.26038" lon="4.23938">
        <ele>826.33333333333</ele>
        <time>2015-10-03T09:47:41.903Z</time>
      </trkpt>
      <trkpt lat="45.26043" lon="4.23932">
        <ele>826.08333333333</ele>
        <time>2015-10-03T09:47:42.894Z</time>
      </trkpt>
      <trkpt lat="45.26047" lon="4.23928">
        <ele>825.95833333333</ele>
        <time>2015-10-03T09:47:43.899Z</time>
      </trkpt>
      <trkpt lat="45.2605" lon="4.23925">
        <ele>825.79166666667</ele>
        <time>2015-10-03T09:47:44.903Z</time>
      </trkpt>
      <trkpt lat="45.26047" lon="4.23923">
        <ele>825.52173913043</ele>
        <time>2015-10-03T09:47:46.980Z</time>
      </trkpt>
      <trkpt lat="45.26046" lon="4.23922">
        <ele>825.4347826087</ele>
        <time>2015-10-03T09:47:47.996Z</time>
      </trkpt>
      <trkpt lat="45.26047" lon="4.23918">
        <ele>825.39130434783</ele>
        <time>2015-10-03T09:47:48.978Z</time>
      </trkpt>
      <trkpt lat="45.26047" lon="4.23915">
        <ele>825.34782608696</ele>
        <time>2015-10-03T09:47:49.960Z</time>
      </trkpt>
      <trkpt lat="45.26047" lon="4.23912">
        <ele>825.26086956522</ele>
        <time>2015-10-03T09:47:50.966Z</time>
      </trkpt>
      <trkpt lat="45.26047" lon="4.2391">
        <ele>825.21739130435</ele>
        <time>2015-10-03T09:47:51.972Z</time>
      </trkpt>
      <trkpt lat="45.26048" lon="4.23906">
        <ele>825.17391304348</ele>
        <time>2015-10-03T09:47:52.951Z</time>
      </trkpt>
      <trkpt lat="45.2605" lon="4.23903">
        <ele>825.17391304348</ele>
        <time>2015-10-03T09:47:53.945Z</time>
      </trkpt>
      <trkpt lat="45.26052" lon="4.23899">
        <ele>825.30434782609</ele>
        <time>2015-10-03T09:47:54.946Z</time>
      </trkpt>
      <trkpt lat="45.26054" lon="4.23894">
        <ele>825.26086956522</ele>
        <time>2015-10-03T09:47:55.952Z</time>
      </trkpt>
      <trkpt lat="45.26055" lon="4.2389">
        <ele>825.26086956522</ele>
        <time>2015-10-03T09:47:56.965Z</time>
      </trkpt>
      <trkpt lat="45.26057" lon="4.23887">
        <ele>825.26086956522</ele>
        <time>2015-10-03T09:47:57.965Z</time>
      </trkpt>
      <trkpt lat="45.2606" lon="4.23885">
        <ele>825.25</ele>
        <time>2015-10-03T09:47:58.968Z</time>
      </trkpt>
      <trkpt lat="45.26062" lon="4.23882">
        <ele>825.25</ele>
        <time>2015-10-03T09:47:59.979Z</time>
      </trkpt>
      <trkpt lat="45.26074" lon="4.2387">
        <ele>825.08333333333</ele>
        <time>2015-10-03T09:48:03.942Z</time>
      </trkpt>
      <trkpt lat="45.26077" lon="4.23866">
        <ele>824.95833333333</ele>
        <time>2015-10-03T09:48:04.912Z</time>
      </trkpt>
      <trkpt lat="45.26079" lon="4.23863">
        <ele>824.92</ele>
        <time>2015-10-03T09:48:05.897Z</time>
      </trkpt>
      <trkpt lat="45.26079" lon="4.23861">
        <ele>824.8</ele>
        <time>2015-10-03T09:48:06.918Z</time>
      </trkpt>
      <trkpt lat="45.2608" lon="4.23858">
        <ele>824.84</ele>
        <time>2015-10-03T09:48:07.911Z</time>
      </trkpt>
      <trkpt lat="45.26083" lon="4.23855">
        <ele>824.80769230769</ele>
        <time>2015-10-03T09:48:08.898Z</time>
      </trkpt>
      <trkpt lat="45.26091" lon="4.23849">
        <ele>824.57692307692</ele>
        <time>2015-10-03T09:48:11.911Z</time>
      </trkpt>
      <trkpt lat="45.26093" lon="4.23846">
        <ele>824.53846153846</ele>
        <time>2015-10-03T09:48:12.923Z</time>
      </trkpt>
      <trkpt lat="45.26095" lon="4.23843">
        <ele>824.46153846154</ele>
        <time>2015-10-03T09:48:13.917Z</time>
      </trkpt>
      <trkpt lat="45.26097" lon="4.23839">
        <ele>824.34615384615</ele>
        <time>2015-10-03T09:48:14.927Z</time>
      </trkpt>
      <trkpt lat="45.26099" lon="4.23836">
        <ele>824.26923076923</ele>
        <time>2015-10-03T09:48:15.918Z</time>
      </trkpt>
      <trkpt lat="45.26101" lon="4.2383">
        <ele>824.23076923077</ele>
        <time>2015-10-03T09:48:16.911Z</time>
      </trkpt>
      <trkpt lat="45.26107" lon="4.23814">
        <ele>823.96153846154</ele>
        <time>2015-10-03T09:48:18.900Z</time>
      </trkpt>
      <trkpt lat="45.26116" lon="4.23792">
        <ele>823.34615384615</ele>
        <time>2015-10-03T09:48:21.921Z</time>
      </trkpt>
      <trkpt lat="45.2615" lon="4.23749">
        <ele>822.41666666667</ele>
        <time>2015-10-03T09:48:27.129Z</time>
      </trkpt>
      <trkpt lat="45.2615" lon="4.23745">
        <ele>822.125</ele>
        <time>2015-10-03T09:48:28.139Z</time>
      </trkpt>
      <trkpt lat="45.26153" lon="4.23739">
        <ele>821.83333333333</ele>
        <time>2015-10-03T09:48:29.154Z</time>
      </trkpt>
      <trkpt lat="45.26158" lon="4.23731">
        <ele>821.25</ele>
        <time>2015-10-03T09:48:31.149Z</time>
      </trkpt>
      <trkpt lat="45.26164" lon="4.2372">
        <ele>820.58333333333</ele>
        <time>2015-10-03T09:48:33.150Z</time>
      </trkpt>
      <trkpt lat="45.26164" lon="4.23713">
        <ele>820.16666666667</ele>
        <time>2015-10-03T09:48:34.150Z</time>
      </trkpt>
      <trkpt lat="45.26162" lon="4.23706">
        <ele>819.70833333333</ele>
        <time>2015-10-03T09:48:35.154Z</time>
      </trkpt>
      <trkpt lat="45.26163" lon="4.23701">
        <ele>819.29166666667</ele>
        <time>2015-10-03T09:48:36.174Z</time>
      </trkpt>
      <trkpt lat="45.26165" lon="4.23695">
        <ele>818.83333333333</ele>
        <time>2015-10-03T09:48:37.158Z</time>
      </trkpt>
      <trkpt lat="45.26168" lon="4.2369">
        <ele>818.33333333333</ele>
        <time>2015-10-03T09:48:38.154Z</time>
      </trkpt>
      <trkpt lat="45.26172" lon="4.23671">
        <ele>817.41666666667</ele>
        <time>2015-10-03T09:48:40.193Z</time>
      </trkpt>
      <trkpt lat="45.26176" lon="4.23659">
        <ele>816.83333333333</ele>
        <time>2015-10-03T09:48:41.155Z</time>
      </trkpt>
      <trkpt lat="45.26177" lon="4.23649">
        <ele>816.29166666667</ele>
        <time>2015-10-03T09:48:42.138Z</time>
      </trkpt>
      <trkpt lat="45.26179" lon="4.23643">
        <ele>815.66666666667</ele>
        <time>2015-10-03T09:48:43.154Z</time>
      </trkpt>
      <trkpt lat="45.26184" lon="4.23634">
        <ele>815.04166666667</ele>
        <time>2015-10-03T09:48:44.160Z</time>
      </trkpt>
      <trkpt lat="45.26187" lon="4.23625">
        <ele>814.45833333333</ele>
        <time>2015-10-03T09:48:45.160Z</time>
      </trkpt>
      <trkpt lat="45.26192" lon="4.23616">
        <ele>813.79166666667</ele>
        <time>2015-10-03T09:48:46.155Z</time>
      </trkpt>
      <trkpt lat="45.26196" lon="4.23598">
        <ele>812.33333333333</ele>
        <time>2015-10-03T09:48:48.150Z</time>
      </trkpt>
      <trkpt lat="45.26201" lon="4.2359">
        <ele>811.66666666667</ele>
        <time>2015-10-03T09:48:49.142Z</time>
      </trkpt>
      <trkpt lat="45.26202" lon="4.23582">
        <ele>810.95833333333</ele>
        <time>2015-10-03T09:48:50.140Z</time>
      </trkpt>
      <trkpt lat="45.26205" lon="4.23574">
        <ele>810.64</ele>
        <time>2015-10-03T09:48:51.151Z</time>
      </trkpt>
      <trkpt lat="45.26212" lon="4.23559">
        <ele>809.32</ele>
        <time>2015-10-03T09:48:53.162Z</time>
      </trkpt>
      <trkpt lat="45.26214" lon="4.23552">
        <ele>808.72</ele>
        <time>2015-10-03T09:48:54.158Z</time>
      </trkpt>
      <trkpt lat="45.26215" lon="4.23546">
        <ele>808.38461538462</ele>
        <time>2015-10-03T09:48:55.151Z</time>
      </trkpt>
      <trkpt lat="45.26217" lon="4.2354">
        <ele>807.52</ele>
        <time>2015-10-03T09:48:56.153Z</time>
      </trkpt>
      <trkpt lat="45.26217" lon="4.23541">
        <ele>807.38461538462</ele>
        <time>2015-10-03T09:48:57.153Z</time>
      </trkpt>
      <trkpt lat="45.26224" lon="4.2354">
        <ele>806.12</ele>
        <time>2015-10-03T09:48:59.163Z</time>
      </trkpt>
      <trkpt lat="45.26226" lon="4.23537">
        <ele>805.76</ele>
        <time>2015-10-03T09:49:00.155Z</time>
      </trkpt>
      <trkpt lat="45.26228" lon="4.23534">
        <ele>805.76923076923</ele>
        <time>2015-10-03T09:49:01.148Z</time>
      </trkpt>
      <trkpt lat="45.26229" lon="4.23533">
        <ele>805.12</ele>
        <time>2015-10-03T09:49:02.159Z</time>
      </trkpt>
      <trkpt lat="45.26229" lon="4.23534">
        <ele>805.07692307692</ele>
        <time>2015-10-03T09:49:03.151Z</time>
      </trkpt>
      <trkpt lat="45.2623" lon="4.23535">
        <ele>804.73076923077</ele>
        <time>2015-10-03T09:49:04.184Z</time>
      </trkpt>
      <trkpt lat="45.2623" lon="4.23534">
        <ele>804.5</ele>
        <time>2015-10-03T09:49:05.183Z</time>
      </trkpt>
      <trkpt lat="45.26231" lon="4.23533">
        <ele>803.96</ele>
        <time>2015-10-03T09:49:06.188Z</time>
      </trkpt>
      <trkpt lat="45.26232" lon="4.23533">
        <ele>803.72</ele>
        <time>2015-10-03T09:49:07.183Z</time>
      </trkpt>
      <trkpt lat="45.26233" lon="4.23532">
        <ele>803.6</ele>
        <time>2015-10-03T09:49:08.193Z</time>
      </trkpt>
      <trkpt lat="45.26234" lon="4.23531">
        <ele>803.52</ele>
        <time>2015-10-03T09:49:09.199Z</time>
      </trkpt>
      <trkpt lat="45.26234" lon="4.2353">
        <ele>803.56</ele>
        <time>2015-10-03T09:49:10.166Z</time>
      </trkpt>
      <trkpt lat="45.26236" lon="4.23529">
        <ele>803.8</ele>
        <time>2015-10-03T09:49:12.161Z</time>
      </trkpt>
      <trkpt lat="45.26236" lon="4.23527">
        <ele>803.92307692308</ele>
        <time>2015-10-03T09:49:13.149Z</time>
      </trkpt>
      <trkpt lat="45.26237" lon="4.23524">
        <ele>804.08</ele>
        <time>2015-10-03T09:49:14.144Z</time>
      </trkpt>
      <trkpt lat="45.26238" lon="4.23522">
        <ele>804.32</ele>
        <time>2015-10-03T09:49:15.158Z</time>
      </trkpt>
      <trkpt lat="45.26238" lon="4.23521">
        <ele>804.48</ele>
        <time>2015-10-03T09:49:16.187Z</time>
      </trkpt>
      <trkpt lat="45.2624" lon="4.23517">
        <ele>804.8</ele>
        <time>2015-10-03T09:49:17.220Z</time>
      </trkpt>
      <trkpt lat="45.26241" lon="4.23512">
        <ele>805.12</ele>
        <time>2015-10-03T09:49:18.225Z</time>
      </trkpt>
      <trkpt lat="45.26243" lon="4.23508">
        <ele>805.36</ele>
        <time>2015-10-03T09:49:19.215Z</time>
      </trkpt>
      <trkpt lat="45.26242" lon="4.23505">
        <ele>805.64</ele>
        <time>2015-10-03T09:49:20.234Z</time>
      </trkpt>
      <trkpt lat="45.26241" lon="4.23503">
        <ele>805.84</ele>
        <time>2015-10-03T09:49:21.250Z</time>
      </trkpt>
      <trkpt lat="45.26239" lon="4.23501">
        <ele>805.96</ele>
        <time>2015-10-03T09:49:22.216Z</time>
      </trkpt>
      <trkpt lat="45.26238" lon="4.23498">
        <ele>806.16</ele>
        <time>2015-10-03T09:49:23.183Z</time>
      </trkpt>
      <trkpt lat="45.26236" lon="4.23496">
        <ele>806.44</ele>
        <time>2015-10-03T09:49:24.189Z</time>
      </trkpt>
      <trkpt lat="45.26235" lon="4.23494">
        <ele>806.6</ele>
        <time>2015-10-03T09:49:25.193Z</time>
      </trkpt>
      <trkpt lat="45.26235" lon="4.23492">
        <ele>806.72</ele>
        <time>2015-10-03T09:49:26.196Z</time>
      </trkpt>
      <trkpt lat="45.26235" lon="4.2349">
        <ele>806.96</ele>
        <time>2015-10-03T09:49:27.170Z</time>
      </trkpt>
      <trkpt lat="45.26234" lon="4.23488">
        <ele>807.2</ele>
        <time>2015-10-03T09:49:28.172Z</time>
      </trkpt>
      <trkpt lat="45.26233" lon="4.23486">
        <ele>807.48</ele>
        <time>2015-10-03T09:49:29.196Z</time>
      </trkpt>
      <trkpt lat="45.26233" lon="4.23484">
        <ele>807.68</ele>
        <time>2015-10-03T09:49:30.206Z</time>
      </trkpt>
      <trkpt lat="45.26231" lon="4.23482">
        <ele>808</ele>
        <time>2015-10-03T09:49:31.207Z</time>
      </trkpt>
      <trkpt lat="45.26229" lon="4.23477">
        <ele>808.76</ele>
        <time>2015-10-03T09:49:34.206Z</time>
      </trkpt>
      <trkpt lat="45.26229" lon="4.23475">
        <ele>808.84</ele>
        <time>2015-10-03T09:49:35.210Z</time>
      </trkpt>
      <trkpt lat="45.26228" lon="4.23473">
        <ele>809.04</ele>
        <time>2015-10-03T09:49:36.214Z</time>
      </trkpt>
      <trkpt lat="45.26227" lon="4.23472">
        <ele>809.24</ele>
        <time>2015-10-03T09:49:37.201Z</time>
      </trkpt>
      <trkpt lat="45.26226" lon="4.2347">
        <ele>809.44</ele>
        <time>2015-10-03T09:49:38.191Z</time>
      </trkpt>
      <trkpt lat="45.26225" lon="4.23469">
        <ele>809.6</ele>
        <time>2015-10-03T09:49:39.167Z</time>
      </trkpt>
      <trkpt lat="45.26224" lon="4.23468">
        <ele>809.8</ele>
        <time>2015-10-03T09:49:40.181Z</time>
      </trkpt>
      <trkpt lat="45.26223" lon="4.23465">
        <ele>809.96</ele>
        <time>2015-10-03T09:49:42.207Z</time>
      </trkpt>
      <trkpt lat="45.26222" lon="4.23463">
        <ele>810.12</ele>
        <time>2015-10-03T09:49:43.178Z</time>
      </trkpt>
      <trkpt lat="45.26222" lon="4.23462">
        <ele>810.24</ele>
        <time>2015-10-03T09:49:44.142Z</time>
      </trkpt>
      <trkpt lat="45.26222" lon="4.23461">
        <ele>810.4</ele>
        <time>2015-10-03T09:49:45.140Z</time>
      </trkpt>
      <trkpt lat="45.26222" lon="4.2346">
        <ele>810.68</ele>
        <time>2015-10-03T09:49:46.148Z</time>
      </trkpt>
      <trkpt lat="45.26222" lon="4.23459">
        <ele>811.24</ele>
        <time>2015-10-03T09:49:48.152Z</time>
      </trkpt>
      <trkpt lat="45.26222" lon="4.23458">
        <ele>811.72</ele>
        <time>2015-10-03T09:49:50.146Z</time>
      </trkpt>
      <trkpt lat="45.26223" lon="4.23458">
        <ele>812</ele>
        <time>2015-10-03T09:49:51.152Z</time>
      </trkpt>
      <trkpt lat="45.26224" lon="4.23457">
        <ele>812.24</ele>
        <time>2015-10-03T09:49:52.161Z</time>
      </trkpt>
      <trkpt lat="45.26225" lon="4.23457">
        <ele>812.48</ele>
        <time>2015-10-03T09:49:53.148Z</time>
      </trkpt>
      <trkpt lat="45.26226" lon="4.23456">
        <ele>812.68</ele>
        <time>2015-10-03T09:49:54.157Z</time>
      </trkpt>
      <trkpt lat="45.26226" lon="4.23454">
        <ele>813.08</ele>
        <time>2015-10-03T09:49:56.154Z</time>
      </trkpt>
      <trkpt lat="45.26227" lon="4.2345">
        <ele>813.64</ele>
        <time>2015-10-03T09:49:59.150Z</time>
      </trkpt>
      <trkpt lat="45.26226" lon="4.23448">
        <ele>814.12</ele>
        <time>2015-10-03T09:50:01.146Z</time>
      </trkpt>
      <trkpt lat="45.26226" lon="4.23447">
        <ele>814.32</ele>
        <time>2015-10-03T09:50:02.150Z</time>
      </trkpt>
      <trkpt lat="45.26226" lon="4.23447">
        <ele>814.6</ele>
        <time>2015-10-03T09:50:04.150Z</time>
      </trkpt>
      <trkpt lat="45.26226" lon="4.23446">
        <ele>814.8</ele>
        <time>2015-10-03T09:50:05.147Z</time>
      </trkpt>
      <trkpt lat="45.26226" lon="4.23444">
        <ele>815.23076923077</ele>
        <time>2015-10-03T09:50:08.149Z</time>
      </trkpt>
      <trkpt lat="45.26226" lon="4.23443">
        <ele>815.46153846154</ele>
        <time>2015-10-03T09:50:10.139Z</time>
      </trkpt>
      <trkpt lat="45.26226" lon="4.23442">
        <ele>815.65384615385</ele>
        <time>2015-10-03T09:50:11.144Z</time>
      </trkpt>
      <trkpt lat="45.26226" lon="4.23441">
        <ele>815.73076923077</ele>
        <time>2015-10-03T09:50:12.145Z</time>
      </trkpt>
      <trkpt lat="45.26226" lon="4.23439">
        <ele>816.04</ele>
        <time>2015-10-03T09:50:14.154Z</time>
      </trkpt>
      <trkpt lat="45.26225" lon="4.23437">
        <ele>816.2</ele>
        <time>2015-10-03T09:50:15.170Z</time>
      </trkpt>
      <trkpt lat="45.26226" lon="4.23434">
        <ele>816.32</ele>
        <time>2015-10-03T09:50:16.194Z</time>
      </trkpt>
      <trkpt lat="45.26226" lon="4.23431">
        <ele>816.4</ele>
        <time>2015-10-03T09:50:17.199Z</time>
      </trkpt>
      <trkpt lat="45.26227" lon="4.23428">
        <ele>816.44</ele>
        <time>2015-10-03T09:50:18.206Z</time>
      </trkpt>
      <trkpt lat="45.26227" lon="4.23426">
        <ele>816.44</ele>
        <time>2015-10-03T09:50:19.218Z</time>
      </trkpt>
      <trkpt lat="45.26228" lon="4.23425">
        <ele>816.56</ele>
        <time>2015-10-03T09:50:20.206Z</time>
      </trkpt>
      <trkpt lat="45.26228" lon="4.23424">
        <ele>816.64</ele>
        <time>2015-10-03T09:50:21.191Z</time>
      </trkpt>
      <trkpt lat="45.26228" lon="4.23422">
        <ele>816.72</ele>
        <time>2015-10-03T09:50:22.198Z</time>
      </trkpt>
      <trkpt lat="45.26228" lon="4.23421">
        <ele>816.8</ele>
        <time>2015-10-03T09:50:23.198Z</time>
      </trkpt>
      <trkpt lat="45.26227" lon="4.2342">
        <ele>816.84</ele>
        <time>2015-10-03T09:50:24.200Z</time>
      </trkpt>
      <trkpt lat="45.26227" lon="4.23418">
        <ele>816.92</ele>
        <time>2015-10-03T09:50:25.203Z</time>
      </trkpt>
      <trkpt lat="45.26228" lon="4.23417">
        <ele>817</ele>
        <time>2015-10-03T09:50:26.205Z</time>
      </trkpt>
      <trkpt lat="45.26229" lon="4.23416">
        <ele>817.08</ele>
        <time>2015-10-03T09:50:27.201Z</time>
      </trkpt>
      <trkpt lat="45.26229" lon="4.23415">
        <ele>817.12</ele>
        <time>2015-10-03T09:50:28.206Z</time>
      </trkpt>
      <trkpt lat="45.26229" lon="4.23413">
        <ele>817.24</ele>
        <time>2015-10-03T09:50:29.214Z</time>
      </trkpt>
      <trkpt lat="45.26229" lon="4.23412">
        <ele>817.32</ele>
        <time>2015-10-03T09:50:30.200Z</time>
      </trkpt>
      <trkpt lat="45.26228" lon="4.23411">
        <ele>817.38461538462</ele>
        <time>2015-10-03T09:50:31.186Z</time>
      </trkpt>
      <trkpt lat="45.26227" lon="4.2341">
        <ele>817.52</ele>
        <time>2015-10-03T09:50:32.198Z</time>
      </trkpt>
      <trkpt lat="45.26227" lon="4.23409">
        <ele>817.52</ele>
        <time>2015-10-03T09:50:33.192Z</time>
      </trkpt>
      <trkpt lat="45.26227" lon="4.23408">
        <ele>817.6</ele>
        <time>2015-10-03T09:50:34.220Z</time>
      </trkpt>
      <trkpt lat="45.26225" lon="4.23407">
        <ele>817.92</ele>
        <time>2015-10-03T09:50:37.205Z</time>
      </trkpt>
      <trkpt lat="45.26223" lon="4.23406">
        <ele>818.12</ele>
        <time>2015-10-03T09:50:40.218Z</time>
      </trkpt>
      <trkpt lat="45.26222" lon="4.23404">
        <ele>818.24</ele>
        <time>2015-10-03T09:50:41.200Z</time>
      </trkpt>
      <trkpt lat="45.26222" lon="4.234">
        <ele>818.46153846154</ele>
        <time>2015-10-03T09:50:43.196Z</time>
      </trkpt>
      <trkpt lat="45.26222" lon="4.23397">
        <ele>818.65384615385</ele>
        <time>2015-10-03T09:50:44.206Z</time>
      </trkpt>
      <trkpt lat="45.26221" lon="4.23397">
        <ele>818.92</ele>
        <time>2015-10-03T09:50:46.202Z</time>
      </trkpt>
      <trkpt lat="45.26222" lon="4.23395">
        <ele>819.03846153846</ele>
        <time>2015-10-03T09:50:47.168Z</time>
      </trkpt>
      <trkpt lat="45.26221" lon="4.23395">
        <ele>819.19230769231</ele>
        <time>2015-10-03T09:50:48.182Z</time>
      </trkpt>
      <trkpt lat="45.26221" lon="4.23394">
        <ele>819.30769230769</ele>
        <time>2015-10-03T09:50:49.179Z</time>
      </trkpt>
      <trkpt lat="45.26222" lon="4.23392">
        <ele>819.5</ele>
        <time>2015-10-03T09:50:50.154Z</time>
      </trkpt>
      <trkpt lat="45.26222" lon="4.23391">
        <ele>819.61538461538</ele>
        <time>2015-10-03T09:50:51.141Z</time>
      </trkpt>
      <trkpt lat="45.26224" lon="4.23386">
        <ele>820</ele>
        <time>2015-10-03T09:50:54.172Z</time>
      </trkpt>
      <trkpt lat="45.26225" lon="4.23385">
        <ele>820.15384615385</ele>
        <time>2015-10-03T09:50:55.171Z</time>
      </trkpt>
      <trkpt lat="45.26225" lon="4.23384">
        <ele>820.30769230769</ele>
        <time>2015-10-03T09:50:56.170Z</time>
      </trkpt>
      <trkpt lat="45.26226" lon="4.23383">
        <ele>820.38461538462</ele>
        <time>2015-10-03T09:50:57.176Z</time>
      </trkpt>
      <trkpt lat="45.26227" lon="4.23383">
        <ele>820.5</ele>
        <time>2015-10-03T09:50:58.160Z</time>
      </trkpt>
      <trkpt lat="45.26228" lon="4.23383">
        <ele>820.69230769231</ele>
        <time>2015-10-03T09:50:59.139Z</time>
      </trkpt>
      <trkpt lat="45.26228" lon="4.23383">
        <ele>820.76923076923</ele>
        <time>2015-10-03T09:51:00.156Z</time>
      </trkpt>
      <trkpt lat="45.26228" lon="4.23383">
        <ele>820.92307692308</ele>
        <time>2015-10-03T09:51:01.157Z</time>
      </trkpt>
      <trkpt lat="45.26228" lon="4.23382">
        <ele>821.07692307692</ele>
        <time>2015-10-03T09:51:02.167Z</time>
      </trkpt>
      <trkpt lat="45.26228" lon="4.23381">
        <ele>821.30769230769</ele>
        <time>2015-10-03T09:51:03.174Z</time>
      </trkpt>
      <trkpt lat="45.26228" lon="4.2338">
        <ele>821.38461538462</ele>
        <time>2015-10-03T09:51:04.149Z</time>
      </trkpt>
      <trkpt lat="45.26229" lon="4.23378">
        <ele>821.46153846154</ele>
        <time>2015-10-03T09:51:05.141Z</time>
      </trkpt>
      <trkpt lat="45.2623" lon="4.23377">
        <ele>821.61538461538</ele>
        <time>2015-10-03T09:51:06.149Z</time>
      </trkpt>
      <trkpt lat="45.2623" lon="4.23375">
        <ele>821.76923076923</ele>
        <time>2015-10-03T09:51:07.165Z</time>
      </trkpt>
      <trkpt lat="45.2623" lon="4.23374">
        <ele>821.92307692308</ele>
        <time>2015-10-03T09:51:08.159Z</time>
      </trkpt>
      <trkpt lat="45.26231" lon="4.23372">
        <ele>822.11538461538</ele>
        <time>2015-10-03T09:51:09.152Z</time>
      </trkpt>
      <trkpt lat="45.26232" lon="4.23371">
        <ele>822.30769230769</ele>
        <time>2015-10-03T09:51:10.162Z</time>
      </trkpt>
      <trkpt lat="45.26232" lon="4.2337">
        <ele>822.6</ele>
        <time>2015-10-03T09:51:11.205Z</time>
      </trkpt>
      <trkpt lat="45.26232" lon="4.23368">
        <ele>822.72</ele>
        <time>2015-10-03T09:51:12.233Z</time>
      </trkpt>
      <trkpt lat="45.26232" lon="4.23366">
        <ele>822.88</ele>
        <time>2015-10-03T09:51:13.195Z</time>
      </trkpt>
      <trkpt lat="45.26232" lon="4.23365">
        <ele>822.96153846154</ele>
        <time>2015-10-03T09:51:14.164Z</time>
      </trkpt>
      <trkpt lat="45.26231" lon="4.23363">
        <ele>823.04</ele>
        <time>2015-10-03T09:51:15.188Z</time>
      </trkpt>
      <trkpt lat="45.26231" lon="4.23361">
        <ele>823.2</ele>
        <time>2015-10-03T09:51:16.224Z</time>
      </trkpt>
      <trkpt lat="45.2623" lon="4.23359">
        <ele>823.4</ele>
        <time>2015-10-03T09:51:17.202Z</time>
      </trkpt>
      <trkpt lat="45.2623" lon="4.23357">
        <ele>823.56</ele>
        <time>2015-10-03T09:51:18.142Z</time>
      </trkpt>
      <trkpt lat="45.26229" lon="4.23355">
        <ele>823.65384615385</ele>
        <time>2015-10-03T09:51:19.153Z</time>
      </trkpt>
      <trkpt lat="45.26229" lon="4.23353">
        <ele>823.80769230769</ele>
        <time>2015-10-03T09:51:20.153Z</time>
      </trkpt>
      <trkpt lat="45.26229" lon="4.23352">
        <ele>824</ele>
        <time>2015-10-03T09:51:21.154Z</time>
      </trkpt>
      <trkpt lat="45.26229" lon="4.2335">
        <ele>824.11538461538</ele>
        <time>2015-10-03T09:51:22.156Z</time>
      </trkpt>
      <trkpt lat="45.26229" lon="4.23348">
        <ele>824.32</ele>
        <time>2015-10-03T09:51:23.161Z</time>
      </trkpt>
      <trkpt lat="45.26229" lon="4.23345">
        <ele>824.44</ele>
        <time>2015-10-03T09:51:24.166Z</time>
      </trkpt>
      <trkpt lat="45.26229" lon="4.23343">
        <ele>824.46153846154</ele>
        <time>2015-10-03T09:51:25.155Z</time>
      </trkpt>
      <trkpt lat="45.26229" lon="4.23341">
        <ele>824.69230769231</ele>
        <time>2015-10-03T09:51:26.155Z</time>
      </trkpt>
      <trkpt lat="45.26229" lon="4.23339">
        <ele>824.80769230769</ele>
        <time>2015-10-03T09:51:27.142Z</time>
      </trkpt>
      <trkpt lat="45.26229" lon="4.23336">
        <ele>824.84615384615</ele>
        <time>2015-10-03T09:51:28.151Z</time>
      </trkpt>
      <trkpt lat="45.26229" lon="4.23334">
        <ele>824.88461538462</ele>
        <time>2015-10-03T09:51:29.144Z</time>
      </trkpt>
      <trkpt lat="45.26229" lon="4.23332">
        <ele>825.2</ele>
        <time>2015-10-03T09:51:30.144Z</time>
      </trkpt>
      <trkpt lat="45.26229" lon="4.2333">
        <ele>825.26923076923</ele>
        <time>2015-10-03T09:51:31.149Z</time>
      </trkpt>
      <trkpt lat="45.26229" lon="4.23328">
        <ele>825.34615384615</ele>
        <time>2015-10-03T09:51:32.157Z</time>
      </trkpt>
      <trkpt lat="45.26229" lon="4.23326">
        <ele>825.52</ele>
        <time>2015-10-03T09:51:33.162Z</time>
      </trkpt>
      <trkpt lat="45.26229" lon="4.23324">
        <ele>825.6</ele>
        <time>2015-10-03T09:51:34.158Z</time>
      </trkpt>
      <trkpt lat="45.26228" lon="4.23322">
        <ele>825.69230769231</ele>
        <time>2015-10-03T09:51:35.157Z</time>
      </trkpt>
      <trkpt lat="45.26228" lon="4.23321">
        <ele>825.73076923077</ele>
        <time>2015-10-03T09:51:36.145Z</time>
      </trkpt>
      <trkpt lat="45.26227" lon="4.23321">
        <ele>825.84615384615</ele>
        <time>2015-10-03T09:51:37.149Z</time>
      </trkpt>
      <trkpt lat="45.26226" lon="4.2332">
        <ele>825.88461538462</ele>
        <time>2015-10-03T09:51:38.157Z</time>
      </trkpt>
      <trkpt lat="45.26224" lon="4.23318">
        <ele>825.92</ele>
        <time>2015-10-03T09:51:39.166Z</time>
      </trkpt>
      <trkpt lat="45.26224" lon="4.23317">
        <ele>825.96153846154</ele>
        <time>2015-10-03T09:51:40.158Z</time>
      </trkpt>
      <trkpt lat="45.26225" lon="4.23315">
        <ele>826.2</ele>
        <time>2015-10-03T09:51:42.163Z</time>
      </trkpt>
      <trkpt lat="45.26225" lon="4.23314">
        <ele>826.20833333333</ele>
        <time>2015-10-03T09:51:43.162Z</time>
      </trkpt>
      <trkpt lat="45.26226" lon="4.23314">
        <ele>826.2</ele>
        <time>2015-10-03T09:51:44.150Z</time>
      </trkpt>
      <trkpt lat="45.26225" lon="4.23316">
        <ele>826.28</ele>
        <time>2015-10-03T09:51:46.153Z</time>
      </trkpt>
      <trkpt lat="45.26224" lon="4.23318">
        <ele>826.48</ele>
        <time>2015-10-03T09:51:50.141Z</time>
      </trkpt>
      <trkpt lat="45.26224" lon="4.23318">
        <ele>826.6</ele>
        <time>2015-10-03T09:51:53.148Z</time>
      </trkpt>
      <trkpt lat="45.26224" lon="4.23318">
        <ele>826.79166666667</ele>
        <time>2015-10-03T09:51:56.150Z</time>
      </trkpt>
      <trkpt lat="45.26224" lon="4.23318">
        <ele>826.56</ele>
        <time>2015-10-03T09:52:00.154Z</time>
      </trkpt>
      <trkpt lat="45.26224" lon="4.23318">
        <ele>826.36</ele>
        <time>2015-10-03T09:52:04.147Z</time>
      </trkpt>
      <trkpt lat="45.26224" lon="4.23318">
        <ele>826.30769230769</ele>
        <time>2015-10-03T09:52:07.150Z</time>
      </trkpt>
      <trkpt lat="45.26224" lon="4.23318">
        <ele>826.19230769231</ele>
        <time>2015-10-03T09:52:11.141Z</time>
      </trkpt>
      <trkpt lat="45.26225" lon="4.23318">
        <ele>826.03846153846</ele>
        <time>2015-10-03T09:52:15.136Z</time>
      </trkpt>
      <trkpt lat="45.26225" lon="4.23318">
        <ele>826</ele>
        <time>2015-10-03T09:52:18.147Z</time>
      </trkpt>
      <trkpt lat="45.26224" lon="4.23318">
        <ele>825.84615384615</ele>
        <time>2015-10-03T09:52:22.143Z</time>
      </trkpt>
      <trkpt lat="45.26224" lon="4.23318">
        <ele>825.80769230769</ele>
        <time>2015-10-03T09:52:25.151Z</time>
      </trkpt>
      <trkpt lat="45.26225" lon="4.23319">
        <ele>825.88</ele>
        <time>2015-10-03T09:52:28.152Z</time>
      </trkpt>
      <trkpt lat="45.26225" lon="4.23319">
        <ele>825.92</ele>
        <time>2015-10-03T09:52:32.153Z</time>
      </trkpt>
      <trkpt lat="45.26225" lon="4.23319">
        <ele>825.92</ele>
        <time>2015-10-03T09:52:35.239Z</time>
      </trkpt>
      <trkpt lat="45.26225" lon="4.23319">
        <ele>825.88461538462</ele>
        <time>2015-10-03T09:52:39.137Z</time>
      </trkpt>
      <trkpt lat="45.26225" lon="4.23319">
        <ele>825.92307692308</ele>
        <time>2015-10-03T09:52:42.138Z</time>
      </trkpt>
      <trkpt lat="45.26225" lon="4.2332">
        <ele>825.76</ele>
        <time>2015-10-03T09:52:45.153Z</time>
      </trkpt>
      <trkpt lat="45.26224" lon="4.2332">
        <ele>825.84615384615</ele>
        <time>2015-10-03T09:52:49.145Z</time>
      </trkpt>
      <trkpt lat="45.26224" lon="4.2332">
        <ele>825.69230769231</ele>
        <time>2015-10-03T09:52:52.153Z</time>
      </trkpt>
      <trkpt lat="45.26225" lon="4.2332">
        <ele>825.68</ele>
        <time>2015-10-03T09:52:56.153Z</time>
      </trkpt>
      <trkpt lat="45.26225" lon="4.2332">
        <ele>825.84615384615</ele>
        <time>2015-10-03T09:53:00.154Z</time>
      </trkpt>
      <trkpt lat="45.26226" lon="4.2332">
        <ele>825.92</ele>
        <time>2015-10-03T09:53:04.148Z</time>
      </trkpt>
      <trkpt lat="45.26226" lon="4.2332">
        <ele>825.92307692308</ele>
        <time>2015-10-03T09:53:08.139Z</time>
      </trkpt>
      <trkpt lat="45.26226" lon="4.23319">
        <ele>826.04</ele>
        <time>2015-10-03T09:53:11.155Z</time>
      </trkpt>
      <trkpt lat="45.26226" lon="4.23319">
        <ele>825.96</ele>
        <time>2015-10-03T09:53:15.150Z</time>
      </trkpt>
      <trkpt lat="45.26226" lon="4.23319">
        <ele>826.03846153846</ele>
        <time>2015-10-03T09:53:19.148Z</time>
      </trkpt>
      <trkpt lat="45.26226" lon="4.23319">
        <ele>825.92</ele>
        <time>2015-10-03T09:53:23.156Z</time>
      </trkpt>
      <trkpt lat="45.26226" lon="4.23319">
        <ele>825.88461538462</ele>
        <time>2015-10-03T09:53:27.147Z</time>
      </trkpt>
      <trkpt lat="45.26226" lon="4.23319">
        <ele>825.84</ele>
        <time>2015-10-03T09:53:31.161Z</time>
      </trkpt>
      <trkpt lat="45.26227" lon="4.23319">
        <ele>825.84</ele>
        <time>2015-10-03T09:53:32.163Z</time>
      </trkpt>
      <trkpt lat="45.26228" lon="4.23317">
        <ele>825.8</ele>
        <time>2015-10-03T09:53:34.163Z</time>
      </trkpt>
      <trkpt lat="45.26229" lon="4.23315">
        <ele>825.80769230769</ele>
        <time>2015-10-03T09:53:35.153Z</time>
      </trkpt>
      <trkpt lat="45.2623" lon="4.23313">
        <ele>825.73076923077</ele>
        <time>2015-10-03T09:53:36.150Z</time>
      </trkpt>
      <trkpt lat="45.2623" lon="4.2331">
        <ele>825.72</ele>
        <time>2015-10-03T09:53:37.151Z</time>
      </trkpt>
      <trkpt lat="45.26231" lon="4.23308">
        <ele>825.76</ele>
        <time>2015-10-03T09:53:38.159Z</time>
      </trkpt>
      <trkpt lat="45.26232" lon="4.23306">
        <ele>825.8</ele>
        <time>2015-10-03T09:53:39.155Z</time>
      </trkpt>
      <trkpt lat="45.26233" lon="4.23302">
        <ele>825.72</ele>
        <time>2015-10-03T09:53:40.152Z</time>
      </trkpt>
      <trkpt lat="45.26234" lon="4.23298">
        <ele>825.68</ele>
        <time>2015-10-03T09:53:41.162Z</time>
      </trkpt>
      <trkpt lat="45.26236" lon="4.23289">
        <ele>825.66666666667</ele>
        <time>2015-10-03T09:53:43.159Z</time>
      </trkpt>
      <trkpt lat="45.26238" lon="4.23281">
        <ele>825.56</ele>
        <time>2015-10-03T09:53:45.153Z</time>
      </trkpt>
      <trkpt lat="45.26242" lon="4.23259">
        <ele>825.375</ele>
        <time>2015-10-03T09:53:49.141Z</time>
      </trkpt>
      <trkpt lat="45.26243" lon="4.23255">
        <ele>825.34782608696</ele>
        <time>2015-10-03T09:53:50.155Z</time>
      </trkpt>
      <trkpt lat="45.26245" lon="4.23251">
        <ele>825.21739130435</ele>
        <time>2015-10-03T09:53:51.151Z</time>
      </trkpt>
      <trkpt lat="45.26247" lon="4.23248">
        <ele>825.17391304348</ele>
        <time>2015-10-03T09:53:52.162Z</time>
      </trkpt>
      <trkpt lat="45.26249" lon="4.23244">
        <ele>825.08695652174</ele>
        <time>2015-10-03T09:53:53.167Z</time>
      </trkpt>
      <trkpt lat="45.26253" lon="4.23239">
        <ele>825.04347826087</ele>
        <time>2015-10-03T09:53:55.159Z</time>
      </trkpt>
      <trkpt lat="45.26253" lon="4.23239">
        <ele>824.91304347826</ele>
        <time>2015-10-03T09:53:56.182Z</time>
      </trkpt>
      <trkpt lat="45.26251" lon="4.23238">
        <ele>824.78260869565</ele>
        <time>2015-10-03T09:53:58.251Z</time>
      </trkpt>
      <trkpt lat="45.26249" lon="4.23238">
        <ele>824.82608695652</ele>
        <time>2015-10-03T09:54:00.233Z</time>
      </trkpt>
      <trkpt lat="45.26249" lon="4.23238">
        <ele>824.86956521739</ele>
        <time>2015-10-03T09:54:01.227Z</time>
      </trkpt>
      <trkpt lat="45.26251" lon="4.23237">
        <ele>824.91304347826</ele>
        <time>2015-10-03T09:54:02.222Z</time>
      </trkpt>
      <trkpt lat="45.26253" lon="4.23235">
        <ele>824.95652173913</ele>
        <time>2015-10-03T09:54:03.198Z</time>
      </trkpt>
      <trkpt lat="45.26254" lon="4.23235">
        <ele>824.95652173913</ele>
        <time>2015-10-03T09:54:04.184Z</time>
      </trkpt>
      <trkpt lat="45.26254" lon="4.23233">
        <ele>825</ele>
        <time>2015-10-03T09:54:05.232Z</time>
      </trkpt>
      <trkpt lat="45.26257" lon="4.23232">
        <ele>825</ele>
        <time>2015-10-03T09:54:06.240Z</time>
      </trkpt>
      <trkpt lat="45.26263" lon="4.2323">
        <ele>825</ele>
        <time>2015-10-03T09:54:08.166Z</time>
      </trkpt>
      <trkpt lat="45.26264" lon="4.23227">
        <ele>825</ele>
        <time>2015-10-03T09:54:09.153Z</time>
      </trkpt>
      <trkpt lat="45.26265" lon="4.23226">
        <ele>825.04166666667</ele>
        <time>2015-10-03T09:54:10.173Z</time>
      </trkpt>
      <trkpt lat="45.26265" lon="4.23224">
        <ele>825.04166666667</ele>
        <time>2015-10-03T09:54:11.166Z</time>
      </trkpt>
      <trkpt lat="45.26265" lon="4.23223">
        <ele>825</ele>
        <time>2015-10-03T09:54:12.159Z</time>
      </trkpt>
      <trkpt lat="45.26266" lon="4.23222">
        <ele>825</ele>
        <time>2015-10-03T09:54:13.174Z</time>
      </trkpt>
      <trkpt lat="45.26267" lon="4.2322">
        <ele>825</ele>
        <time>2015-10-03T09:54:14.162Z</time>
      </trkpt>
      <trkpt lat="45.2627" lon="4.23215">
        <ele>824.92</ele>
        <time>2015-10-03T09:54:15.164Z</time>
      </trkpt>
      <trkpt lat="45.26271" lon="4.23211">
        <ele>824.92</ele>
        <time>2015-10-03T09:54:16.163Z</time>
      </trkpt>
      <trkpt lat="45.26274" lon="4.23193">
        <ele>824.64</ele>
        <time>2015-10-03T09:54:19.187Z</time>
      </trkpt>
      <trkpt lat="45.26276" lon="4.23186">
        <ele>824.44</ele>
        <time>2015-10-03T09:54:20.173Z</time>
      </trkpt>
      <trkpt lat="45.26278" lon="4.2318">
        <ele>824.30769230769</ele>
        <time>2015-10-03T09:54:21.179Z</time>
      </trkpt>
      <trkpt lat="45.26279" lon="4.23173">
        <ele>824.23076923077</ele>
        <time>2015-10-03T09:54:22.196Z</time>
      </trkpt>
      <trkpt lat="45.2628" lon="4.23164">
        <ele>824.03846153846</ele>
        <time>2015-10-03T09:54:23.216Z</time>
      </trkpt>
      <trkpt lat="45.2628" lon="4.23156">
        <ele>823.92307692308</ele>
        <time>2015-10-03T09:54:24.217Z</time>
      </trkpt>
      <trkpt lat="45.26279" lon="4.23149">
        <ele>823.76923076923</ele>
        <time>2015-10-03T09:54:25.175Z</time>
      </trkpt>
      <trkpt lat="45.26278" lon="4.23141">
        <ele>823.53846153846</ele>
        <time>2015-10-03T09:54:26.168Z</time>
      </trkpt>
      <trkpt lat="45.26275" lon="4.23126">
        <ele>823.11538461538</ele>
        <time>2015-10-03T09:54:28.191Z</time>
      </trkpt>
      <trkpt lat="45.26274" lon="4.2312">
        <ele>822.80769230769</ele>
        <time>2015-10-03T09:54:29.163Z</time>
      </trkpt>
      <trkpt lat="45.26274" lon="4.23113">
        <ele>822.57692307692</ele>
        <time>2015-10-03T09:54:30.142Z</time>
      </trkpt>
      <trkpt lat="45.26274" lon="4.23105">
        <ele>822.26923076923</ele>
        <time>2015-10-03T09:54:31.143Z</time>
      </trkpt>
      <trkpt lat="45.26275" lon="4.23097">
        <ele>822.11538461538</ele>
        <time>2015-10-03T09:54:32.143Z</time>
      </trkpt>
      <trkpt lat="45.26295" lon="4.23061">
        <ele>821.8</ele>
        <time>2015-10-03T09:54:34.134Z</time>
      </trkpt>
      <trkpt lat="45.263" lon="4.23057">
        <ele>821.52</ele>
        <time>2015-10-03T09:54:35.135Z</time>
      </trkpt>
      <trkpt lat="45.26303" lon="4.23052">
        <ele>821.24</ele>
        <time>2015-10-03T09:54:36.143Z</time>
      </trkpt>
      <trkpt lat="45.26312" lon="4.23043">
        <ele>820.76</ele>
        <time>2015-10-03T09:54:38.149Z</time>
      </trkpt>
      <trkpt lat="45.26324" lon="4.23036">
        <ele>820.16</ele>
        <time>2015-10-03T09:54:41.150Z</time>
      </trkpt>
      <trkpt lat="45.26328" lon="4.23031">
        <ele>819.96</ele>
        <time>2015-10-03T09:54:42.134Z</time>
      </trkpt>
      <trkpt lat="45.26339" lon="4.23017">
        <ele>819.48</ele>
        <time>2015-10-03T09:54:45.163Z</time>
      </trkpt>
      <trkpt lat="45.26342" lon="4.23011">
        <ele>819.4</ele>
        <time>2015-10-03T09:54:46.169Z</time>
      </trkpt>
      <trkpt lat="45.26351" lon="4.22998">
        <ele>819.16</ele>
        <time>2015-10-03T09:54:49.148Z</time>
      </trkpt>
      <trkpt lat="45.26357" lon="4.22987">
        <ele>818.83333333333</ele>
        <time>2015-10-03T09:54:51.195Z</time>
      </trkpt>
      <trkpt lat="45.26364" lon="4.22975">
        <ele>818.8</ele>
        <time>2015-10-03T09:54:54.140Z</time>
      </trkpt>
      <trkpt lat="45.26365" lon="4.22974">
        <ele>818.66666666667</ele>
        <time>2015-10-03T09:54:55.156Z</time>
      </trkpt>
      <trkpt lat="45.26367" lon="4.22972">
        <ele>818.79166666667</ele>
        <time>2015-10-03T09:54:56.185Z</time>
      </trkpt>
      <trkpt lat="45.26368" lon="4.2297">
        <ele>818.75</ele>
        <time>2015-10-03T09:54:57.180Z</time>
      </trkpt>
      <trkpt lat="45.26369" lon="4.22967">
        <ele>818.68</ele>
        <time>2015-10-03T09:54:58.174Z</time>
      </trkpt>
      <trkpt lat="45.2637" lon="4.22964">
        <ele>818.72</ele>
        <time>2015-10-03T09:54:59.175Z</time>
      </trkpt>
      <trkpt lat="45.26372" lon="4.22956">
        <ele>819.04</ele>
        <time>2015-10-03T09:55:02.180Z</time>
      </trkpt>
      <trkpt lat="45.26376" lon="4.22942">
        <ele>819.28</ele>
        <time>2015-10-03T09:55:05.173Z</time>
      </trkpt>
      <trkpt lat="45.26378" lon="4.22933">
        <ele>819.4</ele>
        <time>2015-10-03T09:55:07.199Z</time>
      </trkpt>
      <trkpt lat="45.26377" lon="4.22927">
        <ele>819.52</ele>
        <time>2015-10-03T09:55:08.233Z</time>
      </trkpt>
      <trkpt lat="45.26378" lon="4.2292">
        <ele>819.6</ele>
        <time>2015-10-03T09:55:09.217Z</time>
      </trkpt>
      <trkpt lat="45.26377" lon="4.22913">
        <ele>819.6</ele>
        <time>2015-10-03T09:55:10.237Z</time>
      </trkpt>
      <trkpt lat="45.26377" lon="4.22904">
        <ele>819.52</ele>
        <time>2015-10-03T09:55:12.266Z</time>
      </trkpt>
      <trkpt lat="45.26379" lon="4.22901">
        <ele>819.6</ele>
        <time>2015-10-03T09:55:13.264Z</time>
      </trkpt>
      <trkpt lat="45.26379" lon="4.22898">
        <ele>819.52</ele>
        <time>2015-10-03T09:55:14.257Z</time>
      </trkpt>
      <trkpt lat="45.26379" lon="4.22896">
        <ele>819.56</ele>
        <time>2015-10-03T09:55:15.256Z</time>
      </trkpt>
      <trkpt lat="45.26382" lon="4.22894">
        <ele>819.48</ele>
        <time>2015-10-03T09:55:16.262Z</time>
      </trkpt>
      <trkpt lat="45.26383" lon="4.22889">
        <ele>819.4</ele>
        <time>2015-10-03T09:55:17.259Z</time>
      </trkpt>
      <trkpt lat="45.26382" lon="4.22886">
        <ele>819.36</ele>
        <time>2015-10-03T09:55:18.260Z</time>
      </trkpt>
      <trkpt lat="45.26381" lon="4.22884">
        <ele>819.28</ele>
        <time>2015-10-03T09:55:19.257Z</time>
      </trkpt>
      <trkpt lat="45.26379" lon="4.22881">
        <ele>819.12</ele>
        <time>2015-10-03T09:55:21.271Z</time>
      </trkpt>
      <trkpt lat="45.2638" lon="4.2288">
        <ele>818.96</ele>
        <time>2015-10-03T09:55:22.266Z</time>
      </trkpt>
      <trkpt lat="45.26381" lon="4.2288">
        <ele>818.96</ele>
        <time>2015-10-03T09:55:23.259Z</time>
      </trkpt>
      <trkpt lat="45.26381" lon="4.22879">
        <ele>818.84</ele>
        <time>2015-10-03T09:55:24.241Z</time>
      </trkpt>
      <trkpt lat="45.26382" lon="4.22872">
        <ele>818.72</ele>
        <time>2015-10-03T09:55:25.236Z</time>
      </trkpt>
      <trkpt lat="45.26427" lon="4.22754">
        <ele>818.6</ele>
        <time>2015-10-03T09:55:27.139Z</time>
      </trkpt>
      <trkpt lat="45.26433" lon="4.22729">
        <ele>818.08</ele>
        <time>2015-10-03T09:55:30.149Z</time>
      </trkpt>
      <trkpt lat="45.26437" lon="4.22709">
        <ele>817.6</ele>
        <time>2015-10-03T09:55:33.155Z</time>
      </trkpt>
      <trkpt lat="45.26439" lon="4.22696">
        <ele>817.48</ele>
        <time>2015-10-03T09:55:34.164Z</time>
      </trkpt>
      <trkpt lat="45.26442" lon="4.22683">
        <ele>817.36</ele>
        <time>2015-10-03T09:55:35.168Z</time>
      </trkpt>
      <trkpt lat="45.26443" lon="4.22672">
        <ele>817.32</ele>
        <time>2015-10-03T09:55:36.179Z</time>
      </trkpt>
      <trkpt lat="45.26445" lon="4.22662">
        <ele>817.24</ele>
        <time>2015-10-03T09:55:37.160Z</time>
      </trkpt>
      <trkpt lat="45.26446" lon="4.22658">
        <ele>817.12</ele>
        <time>2015-10-03T09:55:38.132Z</time>
      </trkpt>
      <trkpt lat="45.26447" lon="4.2265">
        <ele>817.08</ele>
        <time>2015-10-03T09:55:39.135Z</time>
      </trkpt>
      <trkpt lat="45.26447" lon="4.22642">
        <ele>817.2</ele>
        <time>2015-10-03T09:55:40.139Z</time>
      </trkpt>
      <trkpt lat="45.26449" lon="4.22633">
        <ele>817.28</ele>
        <time>2015-10-03T09:55:41.144Z</time>
      </trkpt>
      <trkpt lat="45.26451" lon="4.2262">
        <ele>817.29166666667</ele>
        <time>2015-10-03T09:55:43.136Z</time>
      </trkpt>
      <trkpt lat="45.26453" lon="4.22614">
        <ele>817.29166666667</ele>
        <time>2015-10-03T09:55:44.140Z</time>
      </trkpt>
      <trkpt lat="45.26454" lon="4.22611">
        <ele>817.25</ele>
        <time>2015-10-03T09:55:45.143Z</time>
      </trkpt>
      <trkpt lat="45.26456" lon="4.22604">
        <ele>817.20833333333</ele>
        <time>2015-10-03T09:55:46.144Z</time>
      </trkpt>
      <trkpt lat="45.2646" lon="4.22596">
        <ele>817.33333333333</ele>
        <time>2015-10-03T09:55:47.140Z</time>
      </trkpt>
      <trkpt lat="45.26463" lon="4.22584">
        <ele>817.375</ele>
        <time>2015-10-03T09:55:48.140Z</time>
      </trkpt>
      <trkpt lat="45.26465" lon="4.22574">
        <ele>817.41666666667</ele>
        <time>2015-10-03T09:55:49.152Z</time>
      </trkpt>
      <trkpt lat="45.26467" lon="4.22567">
        <ele>817.33333333333</ele>
        <time>2015-10-03T09:55:50.160Z</time>
      </trkpt>
      <trkpt lat="45.2647" lon="4.22559">
        <ele>817.41666666667</ele>
        <time>2015-10-03T09:55:51.144Z</time>
      </trkpt>
      <trkpt lat="45.26473" lon="4.22544">
        <ele>817.45833333333</ele>
        <time>2015-10-03T09:55:53.141Z</time>
      </trkpt>
      <trkpt lat="45.26475" lon="4.22539">
        <ele>817.52</ele>
        <time>2015-10-03T09:55:54.145Z</time>
      </trkpt>
      <trkpt lat="45.26479" lon="4.2253">
        <ele>817.4</ele>
        <time>2015-10-03T09:55:55.139Z</time>
      </trkpt>
      <trkpt lat="45.26483" lon="4.22523">
        <ele>817.4</ele>
        <time>2015-10-03T09:55:56.140Z</time>
      </trkpt>
      <trkpt lat="45.26486" lon="4.22515">
        <ele>817.4</ele>
        <time>2015-10-03T09:55:57.137Z</time>
      </trkpt>
      <trkpt lat="45.2649" lon="4.2251">
        <ele>817.44</ele>
        <time>2015-10-03T09:55:58.145Z</time>
      </trkpt>
      <trkpt lat="45.26503" lon="4.22485">
        <ele>817.6</ele>
        <time>2015-10-03T09:56:02.134Z</time>
      </trkpt>
      <trkpt lat="45.26509" lon="4.22474">
        <ele>817.79166666667</ele>
        <time>2015-10-03T09:56:04.159Z</time>
      </trkpt>
      <trkpt lat="45.26513" lon="4.22466">
        <ele>817.72</ele>
        <time>2015-10-03T09:56:06.134Z</time>
      </trkpt>
      <trkpt lat="45.26515" lon="4.22463">
        <ele>817.68</ele>
        <time>2015-10-03T09:56:07.137Z</time>
      </trkpt>
      <trkpt lat="45.26517" lon="4.22458">
        <ele>817.8</ele>
        <time>2015-10-03T09:56:08.139Z</time>
      </trkpt>
      <trkpt lat="45.26519" lon="4.2245">
        <ele>817.84615384615</ele>
        <time>2015-10-03T09:56:09.134Z</time>
      </trkpt>
      <trkpt lat="45.26521" lon="4.22442">
        <ele>818.03846153846</ele>
        <time>2015-10-03T09:56:11.143Z</time>
      </trkpt>
      <trkpt lat="45.26521" lon="4.22439">
        <ele>818.12</ele>
        <time>2015-10-03T09:56:12.142Z</time>
      </trkpt>
      <trkpt lat="45.26526" lon="4.22431">
        <ele>818.15384615385</ele>
        <time>2015-10-03T09:56:13.138Z</time>
      </trkpt>
      <trkpt lat="45.26529" lon="4.22425">
        <ele>818.23076923077</ele>
        <time>2015-10-03T09:56:14.140Z</time>
      </trkpt>
      <trkpt lat="45.2653" lon="4.22417">
        <ele>818.26923076923</ele>
        <time>2015-10-03T09:56:15.144Z</time>
      </trkpt>
      <trkpt lat="45.26534" lon="4.22397">
        <ele>818.44</ele>
        <time>2015-10-03T09:56:18.156Z</time>
      </trkpt>
      <trkpt lat="45.26534" lon="4.22386">
        <ele>818.36</ele>
        <time>2015-10-03T09:56:19.156Z</time>
      </trkpt>
      <trkpt lat="45.26535" lon="4.22377">
        <ele>818.4</ele>
        <time>2015-10-03T09:56:20.162Z</time>
      </trkpt>
      <trkpt lat="45.26537" lon="4.22369">
        <ele>818.32</ele>
        <time>2015-10-03T09:56:21.170Z</time>
      </trkpt>
      <trkpt lat="45.26539" lon="4.2236">
        <ele>818.2</ele>
        <time>2015-10-03T09:56:22.153Z</time>
      </trkpt>
      <trkpt lat="45.2654" lon="4.22353">
        <ele>818.04</ele>
        <time>2015-10-03T09:56:23.161Z</time>
      </trkpt>
      <trkpt lat="45.26546" lon="4.22348">
        <ele>817.84</ele>
        <time>2015-10-03T09:56:24.162Z</time>
      </trkpt>
      <trkpt lat="45.26555" lon="4.22337">
        <ele>817.68</ele>
        <time>2015-10-03T09:56:25.154Z</time>
      </trkpt>
      <trkpt lat="45.26565" lon="4.22323">
        <ele>817.16</ele>
        <time>2015-10-03T09:56:27.160Z</time>
      </trkpt>
      <trkpt lat="45.26576" lon="4.22312">
        <ele>816.52</ele>
        <time>2015-10-03T09:56:29.165Z</time>
      </trkpt>
      <trkpt lat="45.26583" lon="4.22306">
        <ele>816.2</ele>
        <time>2015-10-03T09:56:30.170Z</time>
      </trkpt>
      <trkpt lat="45.26589" lon="4.22301">
        <ele>815.8</ele>
        <time>2015-10-03T09:56:31.195Z</time>
      </trkpt>
      <trkpt lat="45.26594" lon="4.22294">
        <ele>815.44</ele>
        <time>2015-10-03T09:56:32.190Z</time>
      </trkpt>
      <trkpt lat="45.266" lon="4.22287">
        <ele>815.15384615385</ele>
        <time>2015-10-03T09:56:33.138Z</time>
      </trkpt>
      <trkpt lat="45.26609" lon="4.22267">
        <ele>814.48</ele>
        <time>2015-10-03T09:56:34.148Z</time>
      </trkpt>
      <trkpt lat="45.26613" lon="4.22258">
        <ele>813.96</ele>
        <time>2015-10-03T09:56:35.172Z</time>
      </trkpt>
      <trkpt lat="45.26617" lon="4.22251">
        <ele>813.48</ele>
        <time>2015-10-03T09:56:36.193Z</time>
      </trkpt>
      <trkpt lat="45.26623" lon="4.22242">
        <ele>813</ele>
        <time>2015-10-03T09:56:37.156Z</time>
      </trkpt>
      <trkpt lat="45.26629" lon="4.22232">
        <ele>812.48</ele>
        <time>2015-10-03T09:56:38.151Z</time>
      </trkpt>
      <trkpt lat="45.26639" lon="4.22218">
        <ele>811.44</ele>
        <time>2015-10-03T09:56:40.165Z</time>
      </trkpt>
      <trkpt lat="45.26643" lon="4.2221">
        <ele>811.23076923077</ele>
        <time>2015-10-03T09:56:41.158Z</time>
      </trkpt>
      <trkpt lat="45.26646" lon="4.22205">
        <ele>810.69230769231</ele>
        <time>2015-10-03T09:56:42.154Z</time>
      </trkpt>
      <trkpt lat="45.2665" lon="4.222">
        <ele>810.15384615385</ele>
        <time>2015-10-03T09:56:43.156Z</time>
      </trkpt>
      <trkpt lat="45.26653" lon="4.22196">
        <ele>809.61538461538</ele>
        <time>2015-10-03T09:56:44.152Z</time>
      </trkpt>
      <trkpt lat="45.26657" lon="4.22188">
        <ele>809.03846153846</ele>
        <time>2015-10-03T09:56:45.153Z</time>
      </trkpt>
      <trkpt lat="45.26664" lon="4.22178">
        <ele>807.8</ele>
        <time>2015-10-03T09:56:47.167Z</time>
      </trkpt>
      <trkpt lat="45.26667" lon="4.22174">
        <ele>807.61538461538</ele>
        <time>2015-10-03T09:56:48.157Z</time>
      </trkpt>
      <trkpt lat="45.26676" lon="4.2216">
        <ele>806.30769230769</ele>
        <time>2015-10-03T09:56:51.162Z</time>
      </trkpt>
      <trkpt lat="45.2668" lon="4.22155">
        <ele>805.88461538462</ele>
        <time>2015-10-03T09:56:52.154Z</time>
      </trkpt>
      <trkpt lat="45.26682" lon="4.22151">
        <ele>805.5</ele>
        <time>2015-10-03T09:56:53.163Z</time>
      </trkpt>
      <trkpt lat="45.26684" lon="4.22148">
        <ele>805.11538461538</ele>
        <time>2015-10-03T09:56:54.156Z</time>
      </trkpt>
      <trkpt lat="45.26685" lon="4.22147">
        <ele>804.69230769231</ele>
        <time>2015-10-03T09:56:55.154Z</time>
      </trkpt>
      <trkpt lat="45.26686" lon="4.22147">
        <ele>804.19230769231</ele>
        <time>2015-10-03T09:56:56.178Z</time>
      </trkpt>
      <trkpt lat="45.26687" lon="4.22146">
        <ele>803.84615384615</ele>
        <time>2015-10-03T09:56:57.172Z</time>
      </trkpt>
      <trkpt lat="45.26689" lon="4.22145">
        <ele>803.16</ele>
        <time>2015-10-03T09:56:58.177Z</time>
      </trkpt>
      <trkpt lat="45.26693" lon="4.22137">
        <ele>802.76</ele>
        <time>2015-10-03T09:56:59.177Z</time>
      </trkpt>
      <trkpt lat="45.26704" lon="4.22121">
        <ele>802.24</ele>
        <time>2015-10-03T09:57:01.142Z</time>
      </trkpt>
      <trkpt lat="45.26706" lon="4.22118">
        <ele>801.72</ele>
        <time>2015-10-03T09:57:02.132Z</time>
      </trkpt>
      <trkpt lat="45.26708" lon="4.22115">
        <ele>801.04166666667</ele>
        <time>2015-10-03T09:57:03.154Z</time>
      </trkpt>
      <trkpt lat="45.26708" lon="4.22113">
        <ele>800.5</ele>
        <time>2015-10-03T09:57:04.159Z</time>
      </trkpt>
      <trkpt lat="45.2671" lon="4.22112">
        <ele>800.24</ele>
        <time>2015-10-03T09:57:05.160Z</time>
      </trkpt>
      <trkpt lat="45.26712" lon="4.22108">
        <ele>799.45833333333</ele>
        <time>2015-10-03T09:57:06.159Z</time>
      </trkpt>
      <trkpt lat="45.26715" lon="4.22102">
        <ele>798.875</ele>
        <time>2015-10-03T09:57:07.161Z</time>
      </trkpt>
      <trkpt lat="45.26717" lon="4.22099">
        <ele>798.64</ele>
        <time>2015-10-03T09:57:08.151Z</time>
      </trkpt>
      <trkpt lat="45.2672" lon="4.22095">
        <ele>797.375</ele>
        <time>2015-10-03T09:57:10.209Z</time>
      </trkpt>
      <trkpt lat="45.26721" lon="4.22092">
        <ele>796.79166666667</ele>
        <time>2015-10-03T09:57:11.221Z</time>
      </trkpt>
      <trkpt lat="45.26723" lon="4.22089">
        <ele>796.20833333333</ele>
        <time>2015-10-03T09:57:12.240Z</time>
      </trkpt>
      <trkpt lat="45.26723" lon="4.22084">
        <ele>795.58333333333</ele>
        <time>2015-10-03T09:57:13.224Z</time>
      </trkpt>
      <trkpt lat="45.26724" lon="4.22078">
        <ele>794.91666666667</ele>
        <time>2015-10-03T09:57:14.174Z</time>
      </trkpt>
      <trkpt lat="45.26724" lon="4.22072">
        <ele>794.48</ele>
        <time>2015-10-03T09:57:15.158Z</time>
      </trkpt>
      <trkpt lat="45.26724" lon="4.22066">
        <ele>793.76</ele>
        <time>2015-10-03T09:57:16.157Z</time>
      </trkpt>
      <trkpt lat="45.26725" lon="4.22061">
        <ele>792.79166666667</ele>
        <time>2015-10-03T09:57:17.155Z</time>
      </trkpt>
      <trkpt lat="45.26726" lon="4.22055">
        <ele>792.44</ele>
        <time>2015-10-03T09:57:18.152Z</time>
      </trkpt>
      <trkpt lat="45.26727" lon="4.2205">
        <ele>791.8</ele>
        <time>2015-10-03T09:57:19.148Z</time>
      </trkpt>
      <trkpt lat="45.26731" lon="4.22036">
        <ele>790.4</ele>
        <time>2015-10-03T09:57:21.152Z</time>
      </trkpt>
      <trkpt lat="45.26739" lon="4.22018">
        <ele>789.41666666667</ele>
        <time>2015-10-03T09:57:23.133Z</time>
      </trkpt>
      <trkpt lat="45.2674" lon="4.22015">
        <ele>788.75</ele>
        <time>2015-10-03T09:57:24.139Z</time>
      </trkpt>
      <trkpt lat="45.2674" lon="4.22012">
        <ele>788.08333333333</ele>
        <time>2015-10-03T09:57:25.148Z</time>
      </trkpt>
      <trkpt lat="45.26741" lon="4.22009">
        <ele>787.58333333333</ele>
        <time>2015-10-03T09:57:26.158Z</time>
      </trkpt>
      <trkpt lat="45.26742" lon="4.22006">
        <ele>787</ele>
        <time>2015-10-03T09:57:27.147Z</time>
      </trkpt>
      <trkpt lat="45.26743" lon="4.22003">
        <ele>786.76</ele>
        <time>2015-10-03T09:57:28.139Z</time>
      </trkpt>
      <trkpt lat="45.26743" lon="4.22002">
        <ele>786.16</ele>
        <time>2015-10-03T09:57:29.139Z</time>
      </trkpt>
      <trkpt lat="45.26746" lon="4.21998">
        <ele>785.64</ele>
        <time>2015-10-03T09:57:30.134Z</time>
      </trkpt>
      <trkpt lat="45.26747" lon="4.21993">
        <ele>784.96</ele>
        <time>2015-10-03T09:57:31.138Z</time>
      </trkpt>
      <trkpt lat="45.26749" lon="4.21991">
        <ele>784.36</ele>
        <time>2015-10-03T09:57:32.138Z</time>
      </trkpt>
      <trkpt lat="45.26749" lon="4.2199">
        <ele>783.8</ele>
        <time>2015-10-03T09:57:33.146Z</time>
      </trkpt>
      <trkpt lat="45.26749" lon="4.21988">
        <ele>783.12</ele>
        <time>2015-10-03T09:57:34.169Z</time>
      </trkpt>
      <trkpt lat="45.2675" lon="4.21985">
        <ele>782.56</ele>
        <time>2015-10-03T09:57:35.196Z</time>
      </trkpt>
      <trkpt lat="45.2675" lon="4.21985">
        <ele>782</ele>
        <time>2015-10-03T09:57:36.217Z</time>
      </trkpt>
      <trkpt lat="45.26749" lon="4.21983">
        <ele>781.52</ele>
        <time>2015-10-03T09:57:37.185Z</time>
      </trkpt>
      <trkpt lat="45.2675" lon="4.21981">
        <ele>780.96</ele>
        <time>2015-10-03T09:57:38.155Z</time>
      </trkpt>
      <trkpt lat="45.26749" lon="4.21979">
        <ele>780.4</ele>
        <time>2015-10-03T09:57:39.143Z</time>
      </trkpt>
      <trkpt lat="45.26749" lon="4.21976">
        <ele>779.92</ele>
        <time>2015-10-03T09:57:40.144Z</time>
      </trkpt>
      <trkpt lat="45.26749" lon="4.21974">
        <ele>779.56</ele>
        <time>2015-10-03T09:57:41.153Z</time>
      </trkpt>
      <trkpt lat="45.26749" lon="4.2197">
        <ele>778.875</ele>
        <time>2015-10-03T09:57:43.144Z</time>
      </trkpt>
      <trkpt lat="45.2675" lon="4.21968">
        <ele>778.21739130435</ele>
        <time>2015-10-03T09:57:44.159Z</time>
      </trkpt>
      <trkpt lat="45.2675" lon="4.21967">
        <ele>777.82608695652</ele>
        <time>2015-10-03T09:57:45.154Z</time>
      </trkpt>
      <trkpt lat="45.26751" lon="4.21963">
        <ele>777.47826086957</ele>
        <time>2015-10-03T09:57:46.158Z</time>
      </trkpt>
      <trkpt lat="45.26753" lon="4.21959">
        <ele>777.29166666667</ele>
        <time>2015-10-03T09:57:47.154Z</time>
      </trkpt>
      <trkpt lat="45.26754" lon="4.21956">
        <ele>776.875</ele>
        <time>2015-10-03T09:57:48.159Z</time>
      </trkpt>
      <trkpt lat="45.26755" lon="4.21952">
        <ele>776.45833333333</ele>
        <time>2015-10-03T09:57:49.164Z</time>
      </trkpt>
      <trkpt lat="45.26756" lon="4.21948">
        <ele>776</ele>
        <time>2015-10-03T09:57:50.153Z</time>
      </trkpt>
      <trkpt lat="45.26756" lon="4.21946">
        <ele>775.76</ele>
        <time>2015-10-03T09:57:51.143Z</time>
      </trkpt>
      <trkpt lat="45.26757" lon="4.21943">
        <ele>775</ele>
        <time>2015-10-03T09:57:52.148Z</time>
      </trkpt>
      <trkpt lat="45.26757" lon="4.21941">
        <ele>774.5</ele>
        <time>2015-10-03T09:57:53.158Z</time>
      </trkpt>
      <trkpt lat="45.26757" lon="4.21939">
        <ele>774.04166666667</ele>
        <time>2015-10-03T09:57:54.158Z</time>
      </trkpt>
      <trkpt lat="45.26758" lon="4.21936">
        <ele>773.54166666667</ele>
        <time>2015-10-03T09:57:55.147Z</time>
      </trkpt>
      <trkpt lat="45.26759" lon="4.21934">
        <ele>773.16666666667</ele>
        <time>2015-10-03T09:57:56.153Z</time>
      </trkpt>
      <trkpt lat="45.2676" lon="4.21931">
        <ele>772.70833333333</ele>
        <time>2015-10-03T09:57:57.155Z</time>
      </trkpt>
      <trkpt lat="45.26762" lon="4.21927">
        <ele>772.25</ele>
        <time>2015-10-03T09:57:58.163Z</time>
      </trkpt>
      <trkpt lat="45.26763" lon="4.21922">
        <ele>772.04</ele>
        <time>2015-10-03T09:57:59.160Z</time>
      </trkpt>
      <trkpt lat="45.26764" lon="4.21918">
        <ele>771.6</ele>
        <time>2015-10-03T09:58:00.165Z</time>
      </trkpt>
      <trkpt lat="45.26765" lon="4.21914">
        <ele>771.16</ele>
        <time>2015-10-03T09:58:01.176Z</time>
      </trkpt>
      <trkpt lat="45.26766" lon="4.21908">
        <ele>770.64</ele>
        <time>2015-10-03T09:58:02.182Z</time>
      </trkpt>
      <trkpt lat="45.26767" lon="4.21905">
        <ele>769.91666666667</ele>
        <time>2015-10-03T09:58:03.184Z</time>
      </trkpt>
      <trkpt lat="45.26769" lon="4.219">
        <ele>768.95833333333</ele>
        <time>2015-10-03T09:58:05.154Z</time>
      </trkpt>
      <trkpt lat="45.2677" lon="4.21895">
        <ele>768.72</ele>
        <time>2015-10-03T09:58:06.153Z</time>
      </trkpt>
      <trkpt lat="45.26772" lon="4.2189">
        <ele>768.24</ele>
        <time>2015-10-03T09:58:07.156Z</time>
      </trkpt>
      <trkpt lat="45.26775" lon="4.21883">
        <ele>767.8</ele>
        <time>2015-10-03T09:58:08.156Z</time>
      </trkpt>
      <trkpt lat="45.26778" lon="4.21875">
        <ele>767.53846153846</ele>
        <time>2015-10-03T09:58:09.152Z</time>
      </trkpt>
      <trkpt lat="45.26786" lon="4.21856">
        <ele>766.46153846154</ele>
        <time>2015-10-03T09:58:11.148Z</time>
      </trkpt>
      <trkpt lat="45.26802" lon="4.21834">
        <ele>765.88461538462</ele>
        <time>2015-10-03T09:58:12.143Z</time>
      </trkpt>
      <trkpt lat="45.26808" lon="4.21814">
        <ele>765</ele>
        <time>2015-10-03T09:58:14.134Z</time>
      </trkpt>
      <trkpt lat="45.26811" lon="4.21805">
        <ele>764.44</ele>
        <time>2015-10-03T09:58:15.132Z</time>
      </trkpt>
      <trkpt lat="45.26813" lon="4.21797">
        <ele>763.84</ele>
        <time>2015-10-03T09:58:16.133Z</time>
      </trkpt>
      <trkpt lat="45.26812" lon="4.21784">
        <ele>763.24</ele>
        <time>2015-10-03T09:58:17.137Z</time>
      </trkpt>
      <trkpt lat="45.26816" lon="4.2176">
        <ele>761.4</ele>
        <time>2015-10-03T09:58:20.140Z</time>
      </trkpt>
      <trkpt lat="45.26818" lon="4.21743">
        <ele>760.12</ele>
        <time>2015-10-03T09:58:22.141Z</time>
      </trkpt>
      <trkpt lat="45.26818" lon="4.21735">
        <ele>759.52</ele>
        <time>2015-10-03T09:58:23.145Z</time>
      </trkpt>
      <trkpt lat="45.2682" lon="4.21726">
        <ele>758.28</ele>
        <time>2015-10-03T09:58:25.147Z</time>
      </trkpt>
      <trkpt lat="45.26823" lon="4.21723">
        <ele>757.68</ele>
        <time>2015-10-03T09:58:26.145Z</time>
      </trkpt>
      <trkpt lat="45.26825" lon="4.21717">
        <ele>756.96</ele>
        <time>2015-10-03T09:58:27.145Z</time>
      </trkpt>
      <trkpt lat="45.26828" lon="4.21716">
        <ele>756.36</ele>
        <time>2015-10-03T09:58:28.146Z</time>
      </trkpt>
      <trkpt lat="45.2683" lon="4.21708">
        <ele>755.72</ele>
        <time>2015-10-03T09:58:29.144Z</time>
      </trkpt>
      <trkpt lat="45.26833" lon="4.21702">
        <ele>755.08</ele>
        <time>2015-10-03T09:58:30.147Z</time>
      </trkpt>
      <trkpt lat="45.26835" lon="4.21695">
        <ele>754.44</ele>
        <time>2015-10-03T09:58:31.153Z</time>
      </trkpt>
      <trkpt lat="45.26836" lon="4.21687">
        <ele>753.76</ele>
        <time>2015-10-03T09:58:32.155Z</time>
      </trkpt>
      <trkpt lat="45.26836" lon="4.21679">
        <ele>753.04</ele>
        <time>2015-10-03T09:58:33.142Z</time>
      </trkpt>
      <trkpt lat="45.26835" lon="4.21671">
        <ele>752.32</ele>
        <time>2015-10-03T09:58:34.131Z</time>
      </trkpt>
      <trkpt lat="45.26833" lon="4.21663">
        <ele>751.68</ele>
        <time>2015-10-03T09:58:35.152Z</time>
      </trkpt>
      <trkpt lat="45.26824" lon="4.21644">
        <ele>749.84</ele>
        <time>2015-10-03T09:58:38.133Z</time>
      </trkpt>
      <trkpt lat="45.26818" lon="4.21633">
        <ele>748.84</ele>
        <time>2015-10-03T09:58:40.142Z</time>
      </trkpt>
      <trkpt lat="45.26816" lon="4.21627">
        <ele>748.69230769231</ele>
        <time>2015-10-03T09:58:41.132Z</time>
      </trkpt>
      <trkpt lat="45.26813" lon="4.21621">
        <ele>748.26923076923</ele>
        <time>2015-10-03T09:58:42.132Z</time>
      </trkpt>
      <trkpt lat="45.26812" lon="4.21617">
        <ele>747.6</ele>
        <time>2015-10-03T09:58:43.144Z</time>
      </trkpt>
      <trkpt lat="45.26808" lon="4.21613">
        <ele>747.2</ele>
        <time>2015-10-03T09:58:44.145Z</time>
      </trkpt>
      <trkpt lat="45.26802" lon="4.21606">
        <ele>746.52</ele>
        <time>2015-10-03T09:58:46.161Z</time>
      </trkpt>
      <trkpt lat="45.268" lon="4.21604">
        <ele>746.2</ele>
        <time>2015-10-03T09:58:47.168Z</time>
      </trkpt>
      <trkpt lat="45.26799" lon="4.21599">
        <ele>745.84</ele>
        <time>2015-10-03T09:58:48.152Z</time>
      </trkpt>
      <trkpt lat="45.26796" lon="4.21594">
        <ele>745.52</ele>
        <time>2015-10-03T09:58:49.154Z</time>
      </trkpt>
      <trkpt lat="45.26794" lon="4.21591">
        <ele>745.28</ele>
        <time>2015-10-03T09:58:50.155Z</time>
      </trkpt>
      <trkpt lat="45.26792" lon="4.21589">
        <ele>745</ele>
        <time>2015-10-03T09:58:51.158Z</time>
      </trkpt>
      <trkpt lat="45.26787" lon="4.21583">
        <ele>744.64</ele>
        <time>2015-10-03T09:58:53.172Z</time>
      </trkpt>
      <trkpt lat="45.26781" lon="4.21577">
        <ele>744.28</ele>
        <time>2015-10-03T09:58:55.171Z</time>
      </trkpt>
      <trkpt lat="45.2678" lon="4.21574">
        <ele>744.26923076923</ele>
        <time>2015-10-03T09:58:56.142Z</time>
      </trkpt>
      <trkpt lat="45.26776" lon="4.2157">
        <ele>743.96</ele>
        <time>2015-10-03T09:58:58.143Z</time>
      </trkpt>
      <trkpt lat="45.26775" lon="4.21567">
        <ele>743.88</ele>
        <time>2015-10-03T09:58:59.141Z</time>
      </trkpt>
      <trkpt lat="45.26774" lon="4.21565">
        <ele>743.84615384615</ele>
        <time>2015-10-03T09:59:00.132Z</time>
      </trkpt>
      <trkpt lat="45.26774" lon="4.21563">
        <ele>743.76923076923</ele>
        <time>2015-10-03T09:59:01.152Z</time>
      </trkpt>
      <trkpt lat="45.26774" lon="4.21563">
        <ele>743.68</ele>
        <time>2015-10-03T09:59:02.151Z</time>
      </trkpt>
      <trkpt lat="45.26774" lon="4.21561">
        <ele>743.6</ele>
        <time>2015-10-03T09:59:03.142Z</time>
      </trkpt>
      <trkpt lat="45.26773" lon="4.21553">
        <ele>743.44</ele>
        <time>2015-10-03T09:59:05.168Z</time>
      </trkpt>
      <trkpt lat="45.26773" lon="4.21548">
        <ele>743.36</ele>
        <time>2015-10-03T09:59:06.145Z</time>
      </trkpt>
      <trkpt lat="45.26773" lon="4.21544">
        <ele>743.36</ele>
        <time>2015-10-03T09:59:07.141Z</time>
      </trkpt>
      <trkpt lat="45.26773" lon="4.21539">
        <ele>743.36</ele>
        <time>2015-10-03T09:59:08.157Z</time>
      </trkpt>
      <trkpt lat="45.26774" lon="4.21535">
        <ele>743.32</ele>
        <time>2015-10-03T09:59:09.154Z</time>
      </trkpt>
      <trkpt lat="45.26774" lon="4.2153">
        <ele>743.30769230769</ele>
        <time>2015-10-03T09:59:10.148Z</time>
      </trkpt>
      <trkpt lat="45.26775" lon="4.21525">
        <ele>743.34615384615</ele>
        <time>2015-10-03T09:59:11.143Z</time>
      </trkpt>
      <trkpt lat="45.26776" lon="4.21511">
        <ele>743.38461538462</ele>
        <time>2015-10-03T09:59:14.135Z</time>
      </trkpt>
      <trkpt lat="45.26776" lon="4.21507">
        <ele>743.38461538462</ele>
        <time>2015-10-03T09:59:15.129Z</time>
      </trkpt>
      <trkpt lat="45.26775" lon="4.21504">
        <ele>743.42307692308</ele>
        <time>2015-10-03T09:59:16.144Z</time>
      </trkpt>
      <trkpt lat="45.26774" lon="4.215">
        <ele>743.46153846154</ele>
        <time>2015-10-03T09:59:17.144Z</time>
      </trkpt>
      <trkpt lat="45.26772" lon="4.21493">
        <ele>743.56</ele>
        <time>2015-10-03T09:59:19.185Z</time>
      </trkpt>
      <trkpt lat="45.26771" lon="4.2149">
        <ele>743.65384615385</ele>
        <time>2015-10-03T09:59:20.159Z</time>
      </trkpt>
      <trkpt lat="45.26769" lon="4.21487">
        <ele>743.76</ele>
        <time>2015-10-03T09:59:21.143Z</time>
      </trkpt>
      <trkpt lat="45.26767" lon="4.21485">
        <ele>743.88</ele>
        <time>2015-10-03T09:59:22.149Z</time>
      </trkpt>
      <trkpt lat="45.26766" lon="4.21483">
        <ele>743.96</ele>
        <time>2015-10-03T09:59:23.179Z</time>
      </trkpt>
      <trkpt lat="45.26766" lon="4.2148">
        <ele>744.12</ele>
        <time>2015-10-03T09:59:25.150Z</time>
      </trkpt>
      <trkpt lat="45.26765" lon="4.21477">
        <ele>744.15384615385</ele>
        <time>2015-10-03T09:59:26.137Z</time>
      </trkpt>
      <trkpt lat="45.26764" lon="4.21474">
        <ele>744.19230769231</ele>
        <time>2015-10-03T09:59:27.150Z</time>
      </trkpt>
      <trkpt lat="45.26764" lon="4.21472">
        <ele>744.32</ele>
        <time>2015-10-03T09:59:28.175Z</time>
      </trkpt>
      <trkpt lat="45.26763" lon="4.21468">
        <ele>744.44</ele>
        <time>2015-10-03T09:59:29.183Z</time>
      </trkpt>
      <trkpt lat="45.26761" lon="4.21465">
        <ele>744.52</ele>
        <time>2015-10-03T09:59:30.184Z</time>
      </trkpt>
      <trkpt lat="45.26756" lon="4.21455">
        <ele>744.8</ele>
        <time>2015-10-03T09:59:33.205Z</time>
      </trkpt>
      <trkpt lat="45.26755" lon="4.21452">
        <ele>745</ele>
        <time>2015-10-03T09:59:34.195Z</time>
      </trkpt>
      <trkpt lat="45.26754" lon="4.21449">
        <ele>745.16</ele>
        <time>2015-10-03T09:59:35.177Z</time>
      </trkpt>
      <trkpt lat="45.2675" lon="4.21443">
        <ele>745.44</ele>
        <time>2015-10-03T09:59:38.187Z</time>
      </trkpt>
      <trkpt lat="45.26748" lon="4.21441">
        <ele>745.6</ele>
        <time>2015-10-03T09:59:39.171Z</time>
      </trkpt>
      <trkpt lat="45.26747" lon="4.2144">
        <ele>745.72</ele>
        <time>2015-10-03T09:59:40.162Z</time>
      </trkpt>
      <trkpt lat="45.26745" lon="4.21438">
        <ele>745.8</ele>
        <time>2015-10-03T09:59:41.171Z</time>
      </trkpt>
      <trkpt lat="45.26742" lon="4.21435">
        <ele>746</ele>
        <time>2015-10-03T09:59:43.169Z</time>
      </trkpt>
      <trkpt lat="45.26741" lon="4.21436">
        <ele>746</ele>
        <time>2015-10-03T09:59:44.163Z</time>
      </trkpt>
      <trkpt lat="45.26739" lon="4.21434">
        <ele>746.04166666667</ele>
        <time>2015-10-03T09:59:45.165Z</time>
      </trkpt>
      <trkpt lat="45.26738" lon="4.21433">
        <ele>746.16666666667</ele>
        <time>2015-10-03T09:59:46.161Z</time>
      </trkpt>
      <trkpt lat="45.26737" lon="4.21434">
        <ele>746.29166666667</ele>
        <time>2015-10-03T09:59:47.163Z</time>
      </trkpt>
      <trkpt lat="45.26735" lon="4.21432">
        <ele>746.41666666667</ele>
        <time>2015-10-03T09:59:48.189Z</time>
      </trkpt>
      <trkpt lat="45.26733" lon="4.21429">
        <ele>746.58333333333</ele>
        <time>2015-10-03T09:59:49.195Z</time>
      </trkpt>
      <trkpt lat="45.26731" lon="4.21427">
        <ele>746.625</ele>
        <time>2015-10-03T09:59:50.164Z</time>
      </trkpt>
      <trkpt lat="45.26729" lon="4.21424">
        <ele>746.75</ele>
        <time>2015-10-03T09:59:51.165Z</time>
      </trkpt>
      <trkpt lat="45.26728" lon="4.2142">
        <ele>746.91666666667</ele>
        <time>2015-10-03T09:59:52.184Z</time>
      </trkpt>
      <trkpt lat="45.26723" lon="4.21407">
        <ele>747.44</ele>
        <time>2015-10-03T09:59:56.175Z</time>
      </trkpt>
      <trkpt lat="45.26723" lon="4.21403">
        <ele>747.56</ele>
        <time>2015-10-03T09:59:57.168Z</time>
      </trkpt>
      <trkpt lat="45.26723" lon="4.21401">
        <ele>747.70833333333</ele>
        <time>2015-10-03T09:59:58.210Z</time>
      </trkpt>
      <trkpt lat="45.26723" lon="4.21398">
        <ele>747.79166666667</ele>
        <time>2015-10-03T09:59:59.204Z</time>
      </trkpt>
      <trkpt lat="45.26723" lon="4.21396">
        <ele>747.88</ele>
        <time>2015-10-03T10:00:00.152Z</time>
      </trkpt>
      <trkpt lat="45.26724" lon="4.21393">
        <ele>748</ele>
        <time>2015-10-03T10:00:01.153Z</time>
      </trkpt>
      <trkpt lat="45.26723" lon="4.21391">
        <ele>748.08</ele>
        <time>2015-10-03T10:00:02.164Z</time>
      </trkpt>
      <trkpt lat="45.26723" lon="4.21389">
        <ele>748.28</ele>
        <time>2015-10-03T10:00:03.173Z</time>
      </trkpt>
      <trkpt lat="45.26723" lon="4.21387">
        <ele>748.44</ele>
        <time>2015-10-03T10:00:04.161Z</time>
      </trkpt>
      <trkpt lat="45.26722" lon="4.21385">
        <ele>748.64</ele>
        <time>2015-10-03T10:00:05.145Z</time>
      </trkpt>
      <trkpt lat="45.26721" lon="4.21381">
        <ele>748.96</ele>
        <time>2015-10-03T10:00:07.154Z</time>
      </trkpt>
      <trkpt lat="45.26721" lon="4.21379">
        <ele>749.07692307692</ele>
        <time>2015-10-03T10:00:08.140Z</time>
      </trkpt>
      <trkpt lat="45.26721" lon="4.21376">
        <ele>749.56</ele>
        <time>2015-10-03T10:00:11.144Z</time>
      </trkpt>
      <trkpt lat="45.26721" lon="4.21375">
        <ele>749.76</ele>
        <time>2015-10-03T10:00:12.144Z</time>
      </trkpt>
      <trkpt lat="45.2672" lon="4.21374">
        <ele>750.16</ele>
        <time>2015-10-03T10:00:14.144Z</time>
      </trkpt>
      <trkpt lat="45.2672" lon="4.21372">
        <ele>750.36</ele>
        <time>2015-10-03T10:00:15.150Z</time>
      </trkpt>
      <trkpt lat="45.26719" lon="4.2137">
        <ele>750.56</ele>
        <time>2015-10-03T10:00:16.142Z</time>
      </trkpt>
      <trkpt lat="45.26719" lon="4.21368">
        <ele>750.8</ele>
        <time>2015-10-03T10:00:17.144Z</time>
      </trkpt>
      <trkpt lat="45.26719" lon="4.21362">
        <ele>751.2</ele>
        <time>2015-10-03T10:00:19.143Z</time>
      </trkpt>
      <trkpt lat="45.2672" lon="4.21358">
        <ele>751.36</ele>
        <time>2015-10-03T10:00:20.142Z</time>
      </trkpt>
      <trkpt lat="45.2672" lon="4.21354">
        <ele>751.44</ele>
        <time>2015-10-03T10:00:21.145Z</time>
      </trkpt>
      <trkpt lat="45.26721" lon="4.2135">
        <ele>751.79166666667</ele>
        <time>2015-10-03T10:00:22.180Z</time>
      </trkpt>
      <trkpt lat="45.26723" lon="4.21344">
        <ele>752</ele>
        <time>2015-10-03T10:00:24.164Z</time>
      </trkpt>
      <trkpt lat="45.26725" lon="4.21341">
        <ele>752.20833333333</ele>
        <time>2015-10-03T10:00:25.182Z</time>
      </trkpt>
      <trkpt lat="45.26727" lon="4.21339">
        <ele>752.29166666667</ele>
        <time>2015-10-03T10:00:26.187Z</time>
      </trkpt>
      <trkpt lat="45.26731" lon="4.21333">
        <ele>752.41666666667</ele>
        <time>2015-10-03T10:00:28.347Z</time>
      </trkpt>
      <trkpt lat="45.26733" lon="4.21329">
        <ele>752.5</ele>
        <time>2015-10-03T10:00:29.356Z</time>
      </trkpt>
      <trkpt lat="45.26735" lon="4.21325">
        <ele>752.5</ele>
        <time>2015-10-03T10:00:30.354Z</time>
      </trkpt>
      <trkpt lat="45.26736" lon="4.21321">
        <ele>752.5</ele>
        <time>2015-10-03T10:00:31.336Z</time>
      </trkpt>
      <trkpt lat="45.26736" lon="4.21317">
        <ele>752.58333333333</ele>
        <time>2015-10-03T10:00:32.339Z</time>
      </trkpt>
      <trkpt lat="45.26736" lon="4.21312">
        <ele>752.625</ele>
        <time>2015-10-03T10:00:33.352Z</time>
      </trkpt>
      <trkpt lat="45.26735" lon="4.21302">
        <ele>752.70833333333</ele>
        <time>2015-10-03T10:00:34.358Z</time>
      </trkpt>
      <trkpt lat="45.26734" lon="4.21292">
        <ele>752.76</ele>
        <time>2015-10-03T10:00:35.357Z</time>
      </trkpt>
      <trkpt lat="45.2673" lon="4.21276">
        <ele>752.72</ele>
        <time>2015-10-03T10:00:37.360Z</time>
      </trkpt>
      <trkpt lat="45.26728" lon="4.21261">
        <ele>752.72</ele>
        <time>2015-10-03T10:00:39.371Z</time>
      </trkpt>
      <trkpt lat="45.26727" lon="4.21249">
        <ele>752.76</ele>
        <time>2015-10-03T10:00:41.351Z</time>
      </trkpt>
      <trkpt lat="45.26727" lon="4.21243">
        <ele>752.64</ele>
        <time>2015-10-03T10:00:42.360Z</time>
      </trkpt>
      <trkpt lat="45.26726" lon="4.21238">
        <ele>752.48</ele>
        <time>2015-10-03T10:00:43.360Z</time>
      </trkpt>
      <trkpt lat="45.26722" lon="4.21235">
        <ele>752.48</ele>
        <time>2015-10-03T10:00:44.354Z</time>
      </trkpt>
      <trkpt lat="45.2672" lon="4.2123">
        <ele>752.52</ele>
        <time>2015-10-03T10:00:45.361Z</time>
      </trkpt>
      <trkpt lat="45.26716" lon="4.21216">
        <ele>752.72</ele>
        <time>2015-10-03T10:00:48.307Z</time>
      </trkpt>
      <trkpt lat="45.26715" lon="4.21213">
        <ele>752.76</ele>
        <time>2015-10-03T10:00:49.307Z</time>
      </trkpt>
      <trkpt lat="45.26713" lon="4.21209">
        <ele>752.8</ele>
        <time>2015-10-03T10:00:50.310Z</time>
      </trkpt>
      <trkpt lat="45.26711" lon="4.21206">
        <ele>752.88</ele>
        <time>2015-10-03T10:00:51.308Z</time>
      </trkpt>
      <trkpt lat="45.26709" lon="4.21204">
        <ele>752.96</ele>
        <time>2015-10-03T10:00:52.299Z</time>
      </trkpt>
      <trkpt lat="45.26707" lon="4.21201">
        <ele>752.92307692308</ele>
        <time>2015-10-03T10:00:53.308Z</time>
      </trkpt>
      <trkpt lat="45.26701" lon="4.21196">
        <ele>753.07692307692</ele>
        <time>2015-10-03T10:00:56.302Z</time>
      </trkpt>
      <trkpt lat="45.26699" lon="4.21195">
        <ele>753.23076923077</ele>
        <time>2015-10-03T10:00:57.306Z</time>
      </trkpt>
      <trkpt lat="45.26697" lon="4.21193">
        <ele>753.34615384615</ele>
        <time>2015-10-03T10:00:58.301Z</time>
      </trkpt>
      <trkpt lat="45.26693" lon="4.21189">
        <ele>753.57692307692</ele>
        <time>2015-10-03T10:01:00.307Z</time>
      </trkpt>
      <trkpt lat="45.26685" lon="4.21182">
        <ele>753.96153846154</ele>
        <time>2015-10-03T10:01:03.320Z</time>
      </trkpt>
      <trkpt lat="45.26679" lon="4.21176">
        <ele>754.19230769231</ele>
        <time>2015-10-03T10:01:06.311Z</time>
      </trkpt>
      <trkpt lat="45.26678" lon="4.21174">
        <ele>754.26923076923</ele>
        <time>2015-10-03T10:01:07.318Z</time>
      </trkpt>
      <trkpt lat="45.26676" lon="4.21171">
        <ele>754.46153846154</ele>
        <time>2015-10-03T10:01:08.341Z</time>
      </trkpt>
      <trkpt lat="45.26675" lon="4.21168">
        <ele>754.76</ele>
        <time>2015-10-03T10:01:09.364Z</time>
      </trkpt>
      <trkpt lat="45.26674" lon="4.21166">
        <ele>754.76923076923</ele>
        <time>2015-10-03T10:01:10.345Z</time>
      </trkpt>
      <trkpt lat="45.26672" lon="4.21162">
        <ele>754.80769230769</ele>
        <time>2015-10-03T10:01:11.305Z</time>
      </trkpt>
      <trkpt lat="45.26668" lon="4.21156">
        <ele>754.84</ele>
        <time>2015-10-03T10:01:13.361Z</time>
      </trkpt>
      <trkpt lat="45.26666" lon="4.21151">
        <ele>754.84</ele>
        <time>2015-10-03T10:01:14.365Z</time>
      </trkpt>
      <trkpt lat="45.26665" lon="4.21147">
        <ele>754.76</ele>
        <time>2015-10-03T10:01:15.346Z</time>
      </trkpt>
      <trkpt lat="45.26664" lon="4.21141">
        <ele>754.68</ele>
        <time>2015-10-03T10:01:16.349Z</time>
      </trkpt>
      <trkpt lat="45.26661" lon="4.21122">
        <ele>754.52</ele>
        <time>2015-10-03T10:01:19.353Z</time>
      </trkpt>
      <trkpt lat="45.26658" lon="4.21116">
        <ele>754.44</ele>
        <time>2015-10-03T10:01:20.375Z</time>
      </trkpt>
      <trkpt lat="45.26654" lon="4.2111">
        <ele>754.32</ele>
        <time>2015-10-03T10:01:21.386Z</time>
      </trkpt>
      <trkpt lat="45.2665" lon="4.21106">
        <ele>754.16</ele>
        <time>2015-10-03T10:01:22.373Z</time>
      </trkpt>
      <trkpt lat="45.26633" lon="4.21095">
        <ele>754</ele>
        <time>2015-10-03T10:01:24.298Z</time>
      </trkpt>
      <trkpt lat="45.26629" lon="4.21092">
        <ele>753.8</ele>
        <time>2015-10-03T10:01:25.297Z</time>
      </trkpt>
      <trkpt lat="45.26625" lon="4.2109">
        <ele>753.5</ele>
        <time>2015-10-03T10:01:26.306Z</time>
      </trkpt>
      <trkpt lat="45.26613" lon="4.21082">
        <ele>753.16</ele>
        <time>2015-10-03T10:01:29.304Z</time>
      </trkpt>
      <trkpt lat="45.26605" lon="4.21079">
        <ele>752.91666666667</ele>
        <time>2015-10-03T10:01:31.327Z</time>
      </trkpt>
      <trkpt lat="45.26598" lon="4.21075">
        <ele>752.92</ele>
        <time>2015-10-03T10:01:33.309Z</time>
      </trkpt>
      <trkpt lat="45.2659" lon="4.21069">
        <ele>752.45833333333</ele>
        <time>2015-10-03T10:01:36.308Z</time>
      </trkpt>
      <trkpt lat="45.26589" lon="4.21068">
        <ele>752.48</ele>
        <time>2015-10-03T10:01:37.307Z</time>
      </trkpt>
      <trkpt lat="45.26587" lon="4.21067">
        <ele>752.44</ele>
        <time>2015-10-03T10:01:38.313Z</time>
      </trkpt>
      <trkpt lat="45.26586" lon="4.21066">
        <ele>752.48</ele>
        <time>2015-10-03T10:01:39.306Z</time>
      </trkpt>
      <trkpt lat="45.26586" lon="4.21065">
        <ele>752.52</ele>
        <time>2015-10-03T10:01:40.304Z</time>
      </trkpt>
      <trkpt lat="45.26584" lon="4.2106">
        <ele>752.76</ele>
        <time>2015-10-03T10:01:43.325Z</time>
      </trkpt>
      <trkpt lat="45.26583" lon="4.21056">
        <ele>753.04</ele>
        <time>2015-10-03T10:01:45.316Z</time>
      </trkpt>
      <trkpt lat="45.26583" lon="4.21055">
        <ele>753.08</ele>
        <time>2015-10-03T10:01:46.306Z</time>
      </trkpt>
      <trkpt lat="45.26582" lon="4.21051">
        <ele>753.4</ele>
        <time>2015-10-03T10:01:48.323Z</time>
      </trkpt>
      <trkpt lat="45.26579" lon="4.21048">
        <ele>753.56</ele>
        <time>2015-10-03T10:01:50.307Z</time>
      </trkpt>
      <trkpt lat="45.26578" lon="4.21046">
        <ele>753.72</ele>
        <time>2015-10-03T10:01:51.317Z</time>
      </trkpt>
      <trkpt lat="45.26575" lon="4.21045">
        <ele>753.84</ele>
        <time>2015-10-03T10:01:53.326Z</time>
      </trkpt>
      <trkpt lat="45.26574" lon="4.21045">
        <ele>753.96</ele>
        <time>2015-10-03T10:01:54.355Z</time>
      </trkpt>
      <trkpt lat="45.26573" lon="4.21045">
        <ele>754</ele>
        <time>2015-10-03T10:01:55.346Z</time>
      </trkpt>
      <trkpt lat="45.26571" lon="4.21044">
        <ele>754</ele>
        <time>2015-10-03T10:01:56.311Z</time>
      </trkpt>
      <trkpt lat="45.26569" lon="4.21043">
        <ele>754.04</ele>
        <time>2015-10-03T10:01:59.317Z</time>
      </trkpt>
      <trkpt lat="45.26569" lon="4.21043">
        <ele>754.2</ele>
        <time>2015-10-03T10:02:01.312Z</time>
      </trkpt>
      <trkpt lat="45.26568" lon="4.21042">
        <ele>754.28</ele>
        <time>2015-10-03T10:02:02.318Z</time>
      </trkpt>
      <trkpt lat="45.26567" lon="4.21041">
        <ele>754.30769230769</ele>
        <time>2015-10-03T10:02:03.306Z</time>
      </trkpt>
      <trkpt lat="45.26563" lon="4.21039">
        <ele>754.28</ele>
        <time>2015-10-03T10:02:05.322Z</time>
      </trkpt>
      <trkpt lat="45.26559" lon="4.21038">
        <ele>754.24</ele>
        <time>2015-10-03T10:02:06.319Z</time>
      </trkpt>
      <trkpt lat="45.26556" lon="4.21039">
        <ele>754.19230769231</ele>
        <time>2015-10-03T10:02:07.322Z</time>
      </trkpt>
      <trkpt lat="45.26553" lon="4.21039">
        <ele>754.15384615385</ele>
        <time>2015-10-03T10:02:08.325Z</time>
      </trkpt>
      <trkpt lat="45.26549" lon="4.2104">
        <ele>754.04</ele>
        <time>2015-10-03T10:02:09.317Z</time>
      </trkpt>
      <trkpt lat="45.26546" lon="4.21041">
        <ele>754</ele>
        <time>2015-10-03T10:02:10.308Z</time>
      </trkpt>
      <trkpt lat="45.26543" lon="4.21042">
        <ele>753.92</ele>
        <time>2015-10-03T10:02:11.307Z</time>
      </trkpt>
      <trkpt lat="45.26539" lon="4.21044">
        <ele>753.76</ele>
        <time>2015-10-03T10:02:12.322Z</time>
      </trkpt>
      <trkpt lat="45.26536" lon="4.21045">
        <ele>753.56</ele>
        <time>2015-10-03T10:02:13.328Z</time>
      </trkpt>
      <trkpt lat="45.26533" lon="4.21048">
        <ele>753.38461538462</ele>
        <time>2015-10-03T10:02:14.319Z</time>
      </trkpt>
      <trkpt lat="45.2653" lon="4.21051">
        <ele>753.26923076923</ele>
        <time>2015-10-03T10:02:15.304Z</time>
      </trkpt>
      <trkpt lat="45.26526" lon="4.21055">
        <ele>753.07692307692</ele>
        <time>2015-10-03T10:02:16.307Z</time>
      </trkpt>
      <trkpt lat="45.26523" lon="4.2106">
        <ele>752.88461538462</ele>
        <time>2015-10-03T10:02:17.304Z</time>
      </trkpt>
      <trkpt lat="45.26512" lon="4.21074">
        <ele>752.30769230769</ele>
        <time>2015-10-03T10:02:19.322Z</time>
      </trkpt>
      <trkpt lat="45.2651" lon="4.21082">
        <ele>752.03846153846</ele>
        <time>2015-10-03T10:02:20.313Z</time>
      </trkpt>
      <trkpt lat="45.26508" lon="4.21086">
        <ele>751.76923076923</ele>
        <time>2015-10-03T10:02:21.304Z</time>
      </trkpt>
      <trkpt lat="45.26505" lon="4.21091">
        <ele>751.46153846154</ele>
        <time>2015-10-03T10:02:22.305Z</time>
      </trkpt>
      <trkpt lat="45.265" lon="4.21096">
        <ele>751.11538461538</ele>
        <time>2015-10-03T10:02:23.299Z</time>
      </trkpt>
      <trkpt lat="45.26497" lon="4.21102">
        <ele>750.76923076923</ele>
        <time>2015-10-03T10:02:24.304Z</time>
      </trkpt>
      <trkpt lat="45.26496" lon="4.21106">
        <ele>750.42307692308</ele>
        <time>2015-10-03T10:02:25.305Z</time>
      </trkpt>
      <trkpt lat="45.26494" lon="4.21108">
        <ele>750</ele>
        <time>2015-10-03T10:02:26.299Z</time>
      </trkpt>
      <trkpt lat="45.26492" lon="4.2111">
        <ele>749.57692307692</ele>
        <time>2015-10-03T10:02:27.309Z</time>
      </trkpt>
      <trkpt lat="45.26489" lon="4.21112">
        <ele>749.03846153846</ele>
        <time>2015-10-03T10:02:28.303Z</time>
      </trkpt>
      <trkpt lat="45.26486" lon="4.21115">
        <ele>748.46153846154</ele>
        <time>2015-10-03T10:02:29.295Z</time>
      </trkpt>
      <trkpt lat="45.26483" lon="4.21116">
        <ele>747.92307692308</ele>
        <time>2015-10-03T10:02:30.302Z</time>
      </trkpt>
      <trkpt lat="45.26479" lon="4.21118">
        <ele>746.84615384615</ele>
        <time>2015-10-03T10:02:32.314Z</time>
      </trkpt>
      <trkpt lat="45.26478" lon="4.21118">
        <ele>745.32</ele>
        <time>2015-10-03T10:02:34.367Z</time>
      </trkpt>
      <trkpt lat="45.26477" lon="4.21118">
        <ele>744.64</ele>
        <time>2015-10-03T10:02:35.349Z</time>
      </trkpt>
      <trkpt lat="45.26474" lon="4.21118">
        <ele>743.96</ele>
        <time>2015-10-03T10:02:36.338Z</time>
      </trkpt>
      <trkpt lat="45.26459" lon="4.21119">
        <ele>743.28</ele>
        <time>2015-10-03T10:02:37.335Z</time>
      </trkpt>
      <trkpt lat="45.26438" lon="4.21114">
        <ele>742.64</ele>
        <time>2015-10-03T10:02:39.300Z</time>
      </trkpt>
      <trkpt lat="45.26435" lon="4.21113">
        <ele>742.04</ele>
        <time>2015-10-03T10:02:40.295Z</time>
      </trkpt>
      <trkpt lat="45.26432" lon="4.21113">
        <ele>741.36</ele>
        <time>2015-10-03T10:02:41.306Z</time>
      </trkpt>
      <trkpt lat="45.2643" lon="4.21113">
        <ele>740.72</ele>
        <time>2015-10-03T10:02:42.296Z</time>
      </trkpt>
      <trkpt lat="45.26428" lon="4.21112">
        <ele>740.04</ele>
        <time>2015-10-03T10:02:43.303Z</time>
      </trkpt>
      <trkpt lat="45.26426" lon="4.21111">
        <ele>739.4</ele>
        <time>2015-10-03T10:02:44.305Z</time>
      </trkpt>
      <trkpt lat="45.26425" lon="4.21111">
        <ele>738.88</ele>
        <time>2015-10-03T10:02:45.304Z</time>
      </trkpt>
      <trkpt lat="45.26425" lon="4.21111">
        <ele>737.91666666667</ele>
        <time>2015-10-03T10:02:46.308Z</time>
      </trkpt>
      <trkpt lat="45.26425" lon="4.21111">
        <ele>737.72</ele>
        <time>2015-10-03T10:02:47.305Z</time>
      </trkpt>
      <trkpt lat="45.26425" lon="4.21109">
        <ele>736.875</ele>
        <time>2015-10-03T10:02:48.312Z</time>
      </trkpt>
      <trkpt lat="45.26422" lon="4.21109">
        <ele>736.375</ele>
        <time>2015-10-03T10:02:49.307Z</time>
      </trkpt>
      <trkpt lat="45.26424" lon="4.21111">
        <ele>735.83333333333</ele>
        <time>2015-10-03T10:02:50.307Z</time>
      </trkpt>
      <trkpt lat="45.26423" lon="4.21112">
        <ele>735.41666666667</ele>
        <time>2015-10-03T10:02:51.313Z</time>
      </trkpt>
      <trkpt lat="45.26424" lon="4.21111">
        <ele>734.83333333333</ele>
        <time>2015-10-03T10:02:53.331Z</time>
      </trkpt>
      <trkpt lat="45.26424" lon="4.2111">
        <ele>734.54166666667</ele>
        <time>2015-10-03T10:02:54.310Z</time>
      </trkpt>
      <trkpt lat="45.26424" lon="4.21109">
        <ele>734.25</ele>
        <time>2015-10-03T10:02:55.307Z</time>
      </trkpt>
      <trkpt lat="45.26424" lon="4.21107">
        <ele>734.2</ele>
        <time>2015-10-03T10:02:57.313Z</time>
      </trkpt>
      <trkpt lat="45.26424" lon="4.21106">
        <ele>734.08</ele>
        <time>2015-10-03T10:02:58.304Z</time>
      </trkpt>
      <trkpt lat="45.26424" lon="4.21105">
        <ele>734.08</ele>
        <time>2015-10-03T10:02:59.305Z</time>
      </trkpt>
      <trkpt lat="45.26423" lon="4.21103">
        <ele>734.12</ele>
        <time>2015-10-03T10:03:00.324Z</time>
      </trkpt>
      <trkpt lat="45.26423" lon="4.21102">
        <ele>734.16</ele>
        <time>2015-10-03T10:03:01.320Z</time>
      </trkpt>
      <trkpt lat="45.26423" lon="4.21101">
        <ele>734.28</ele>
        <time>2015-10-03T10:03:02.315Z</time>
      </trkpt>
      <trkpt lat="45.26422" lon="4.211">
        <ele>734.36</ele>
        <time>2015-10-03T10:03:03.317Z</time>
      </trkpt>
      <trkpt lat="45.26421" lon="4.21099">
        <ele>734.52</ele>
        <time>2015-10-03T10:03:04.332Z</time>
      </trkpt>
      <trkpt lat="45.2642" lon="4.21098">
        <ele>734.68</ele>
        <time>2015-10-03T10:03:05.351Z</time>
      </trkpt>
      <trkpt lat="45.26418" lon="4.21097">
        <ele>735.08</ele>
        <time>2015-10-03T10:03:07.302Z</time>
      </trkpt>
      <trkpt lat="45.26415" lon="4.21097">
        <ele>735.375</ele>
        <time>2015-10-03T10:03:09.317Z</time>
      </trkpt>
      <trkpt lat="45.26414" lon="4.21097">
        <ele>735.58333333333</ele>
        <time>2015-10-03T10:03:10.312Z</time>
      </trkpt>
      <trkpt lat="45.26414" lon="4.21096">
        <ele>735.91666666667</ele>
        <time>2015-10-03T10:03:11.327Z</time>
      </trkpt>
      <trkpt lat="45.26413" lon="4.21097">
        <ele>736.25</ele>
        <time>2015-10-03T10:03:12.329Z</time>
      </trkpt>
      <trkpt lat="45.26412" lon="4.21097">
        <ele>736.54166666667</ele>
        <time>2015-10-03T10:03:13.340Z</time>
      </trkpt>
      <trkpt lat="45.26411" lon="4.21098">
        <ele>736.875</ele>
        <time>2015-10-03T10:03:14.333Z</time>
      </trkpt>
      <trkpt lat="45.2641" lon="4.21097">
        <ele>737.25</ele>
        <time>2015-10-03T10:03:15.317Z</time>
      </trkpt>
      <trkpt lat="45.26409" lon="4.21096">
        <ele>737.54166666667</ele>
        <time>2015-10-03T10:03:16.316Z</time>
      </trkpt>
      <trkpt lat="45.26405" lon="4.21094">
        <ele>737.88</ele>
        <time>2015-10-03T10:03:18.329Z</time>
      </trkpt>
      <trkpt lat="45.26404" lon="4.21093">
        <ele>738.33333333333</ele>
        <time>2015-10-03T10:03:19.386Z</time>
      </trkpt>
      <trkpt lat="45.26403" lon="4.21091">
        <ele>738.70833333333</ele>
        <time>2015-10-03T10:03:20.425Z</time>
      </trkpt>
      <trkpt lat="45.26403" lon="4.21091">
        <ele>738.95833333333</ele>
        <time>2015-10-03T10:03:21.368Z</time>
      </trkpt>
      <trkpt lat="45.26403" lon="4.21091">
        <ele>739.20833333333</ele>
        <time>2015-10-03T10:03:22.321Z</time>
      </trkpt>
      <trkpt lat="45.26402" lon="4.21091">
        <ele>739.45833333333</ele>
        <time>2015-10-03T10:03:23.318Z</time>
      </trkpt>
      <trkpt lat="45.26402" lon="4.2109">
        <ele>740.20833333333</ele>
        <time>2015-10-03T10:03:26.343Z</time>
      </trkpt>
      <trkpt lat="45.26401" lon="4.21088">
        <ele>740.79166666667</ele>
        <time>2015-10-03T10:03:28.378Z</time>
      </trkpt>
      <trkpt lat="45.264" lon="4.21086">
        <ele>741</ele>
        <time>2015-10-03T10:03:29.363Z</time>
      </trkpt>
      <trkpt lat="45.26399" lon="4.21085">
        <ele>741.16</ele>
        <time>2015-10-03T10:03:30.327Z</time>
      </trkpt>
      <trkpt lat="45.26399" lon="4.21084">
        <ele>741.36</ele>
        <time>2015-10-03T10:03:31.325Z</time>
      </trkpt>
      <trkpt lat="45.26397" lon="4.21084">
        <ele>741.70833333333</ele>
        <time>2015-10-03T10:03:32.329Z</time>
      </trkpt>
      <trkpt lat="45.26396" lon="4.21084">
        <ele>741.76</ele>
        <time>2015-10-03T10:03:33.317Z</time>
      </trkpt>
      <trkpt lat="45.26394" lon="4.21084">
        <ele>741.88461538462</ele>
        <time>2015-10-03T10:03:34.309Z</time>
      </trkpt>
      <trkpt lat="45.26393" lon="4.21084">
        <ele>742.36</ele>
        <time>2015-10-03T10:03:35.319Z</time>
      </trkpt>
      <trkpt lat="45.26392" lon="4.21084">
        <ele>742.56</ele>
        <time>2015-10-03T10:03:36.328Z</time>
      </trkpt>
      <trkpt lat="45.2639" lon="4.21083">
        <ele>742.68</ele>
        <time>2015-10-03T10:03:37.338Z</time>
      </trkpt>
      <trkpt lat="45.26389" lon="4.21083">
        <ele>742.76923076923</ele>
        <time>2015-10-03T10:03:38.337Z</time>
      </trkpt>
      <trkpt lat="45.26388" lon="4.21083">
        <ele>743.04</ele>
        <time>2015-10-03T10:03:39.339Z</time>
      </trkpt>
      <trkpt lat="45.26387" lon="4.21083">
        <ele>743.2</ele>
        <time>2015-10-03T10:03:40.328Z</time>
      </trkpt>
      <trkpt lat="45.26386" lon="4.21083">
        <ele>743.36</ele>
        <time>2015-10-03T10:03:41.319Z</time>
      </trkpt>
      <trkpt lat="45.26385" lon="4.21083">
        <ele>743.42307692308</ele>
        <time>2015-10-03T10:03:42.329Z</time>
      </trkpt>
      <trkpt lat="45.26383" lon="4.21083">
        <ele>743.80769230769</ele>
        <time>2015-10-03T10:03:44.340Z</time>
      </trkpt>
      <trkpt lat="45.26382" lon="4.21083">
        <ele>744</ele>
        <time>2015-10-03T10:03:45.338Z</time>
      </trkpt>
      <trkpt lat="45.26381" lon="4.21082">
        <ele>744.07692307692</ele>
        <time>2015-10-03T10:03:46.342Z</time>
      </trkpt>
      <trkpt lat="45.26381" lon="4.21082">
        <ele>744.28</ele>
        <time>2015-10-03T10:03:47.331Z</time>
      </trkpt>
      <trkpt lat="45.26379" lon="4.21082">
        <ele>744.44</ele>
        <time>2015-10-03T10:03:48.332Z</time>
      </trkpt>
      <trkpt lat="45.26378" lon="4.21083">
        <ele>744.48</ele>
        <time>2015-10-03T10:03:49.335Z</time>
      </trkpt>
      <trkpt lat="45.26377" lon="4.21083">
        <ele>744.65384615385</ele>
        <time>2015-10-03T10:03:51.336Z</time>
      </trkpt>
      <trkpt lat="45.26376" lon="4.21083">
        <ele>744.76923076923</ele>
        <time>2015-10-03T10:03:53.337Z</time>
      </trkpt>
      <trkpt lat="45.26374" lon="4.21082">
        <ele>745.04</ele>
        <time>2015-10-03T10:03:56.337Z</time>
      </trkpt>
      <trkpt lat="45.26372" lon="4.21083">
        <ele>745.32</ele>
        <time>2015-10-03T10:03:58.331Z</time>
      </trkpt>
      <trkpt lat="45.26371" lon="4.21083">
        <ele>745.48</ele>
        <time>2015-10-03T10:04:01.349Z</time>
      </trkpt>
      <trkpt lat="45.26371" lon="4.21082">
        <ele>745.5</ele>
        <time>2015-10-03T10:04:02.334Z</time>
      </trkpt>
      <trkpt lat="45.2637" lon="4.21082">
        <ele>745.57692307692</ele>
        <time>2015-10-03T10:04:03.325Z</time>
      </trkpt>
      <trkpt lat="45.2637" lon="4.21082">
        <ele>745.80769230769</ele>
        <time>2015-10-03T10:04:06.304Z</time>
      </trkpt>
      <trkpt lat="45.2637" lon="4.21082">
        <ele>745.96153846154</ele>
        <time>2015-10-03T10:04:10.299Z</time>
      </trkpt>
      <trkpt lat="45.2637" lon="4.21082">
        <ele>746.16</ele>
        <time>2015-10-03T10:04:13.351Z</time>
      </trkpt>
      <trkpt lat="45.26369" lon="4.21081">
        <ele>746.24</ele>
        <time>2015-10-03T10:04:14.353Z</time>
      </trkpt>
      <trkpt lat="45.26368" lon="4.2108">
        <ele>746.28</ele>
        <time>2015-10-03T10:04:15.351Z</time>
      </trkpt>
      <trkpt lat="45.26367" lon="4.21078">
        <ele>746.36</ele>
        <time>2015-10-03T10:04:16.349Z</time>
      </trkpt>
      <trkpt lat="45.26367" lon="4.21076">
        <ele>746.48</ele>
        <time>2015-10-03T10:04:17.348Z</time>
      </trkpt>
      <trkpt lat="45.26365" lon="4.21072">
        <ele>746.72</ele>
        <time>2015-10-03T10:04:20.355Z</time>
      </trkpt>
      <trkpt lat="45.26364" lon="4.21072">
        <ele>746.84</ele>
        <time>2015-10-03T10:04:21.362Z</time>
      </trkpt>
      <trkpt lat="45.26363" lon="4.21073">
        <ele>746.88</ele>
        <time>2015-10-03T10:04:22.368Z</time>
      </trkpt>
      <trkpt lat="45.26364" lon="4.21073">
        <ele>747.04</ele>
        <time>2015-10-03T10:04:24.386Z</time>
      </trkpt>
      <trkpt lat="45.26365" lon="4.21074">
        <ele>747.11538461538</ele>
        <time>2015-10-03T10:04:25.333Z</time>
      </trkpt>
      <trkpt lat="45.26364" lon="4.21074">
        <ele>747.30769230769</ele>
        <time>2015-10-03T10:04:27.303Z</time>
      </trkpt>
      <trkpt lat="45.26363" lon="4.21073">
        <ele>747.52</ele>
        <time>2015-10-03T10:04:29.304Z</time>
      </trkpt>
      <trkpt lat="45.26362" lon="4.21072">
        <ele>747.53846153846</ele>
        <time>2015-10-03T10:04:31.299Z</time>
      </trkpt>
      <trkpt lat="45.26362" lon="4.2107">
        <ele>747.84</ele>
        <time>2015-10-03T10:04:33.307Z</time>
      </trkpt>
      <trkpt lat="45.26362" lon="4.21067">
        <ele>748.12</ele>
        <time>2015-10-03T10:04:35.307Z</time>
      </trkpt>
      <trkpt lat="45.26363" lon="4.21065">
        <ele>748.16</ele>
        <time>2015-10-03T10:04:36.311Z</time>
      </trkpt>
      <trkpt lat="45.26362" lon="4.21063">
        <ele>748.34615384615</ele>
        <time>2015-10-03T10:04:38.306Z</time>
      </trkpt>
      <trkpt lat="45.26361" lon="4.21061">
        <ele>748.61538461538</ele>
        <time>2015-10-03T10:04:40.312Z</time>
      </trkpt>
      <trkpt lat="45.26361" lon="4.21059">
        <ele>748.73076923077</ele>
        <time>2015-10-03T10:04:41.318Z</time>
      </trkpt>
      <trkpt lat="45.26361" lon="4.21056">
        <ele>749.15384615385</ele>
        <time>2015-10-03T10:04:44.362Z</time>
      </trkpt>
      <trkpt lat="45.2636" lon="4.21055">
        <ele>749.28</ele>
        <time>2015-10-03T10:04:45.376Z</time>
      </trkpt>
      <trkpt lat="45.26359" lon="4.21055">
        <ele>749.4</ele>
        <time>2015-10-03T10:04:46.401Z</time>
      </trkpt>
      <trkpt lat="45.26358" lon="4.21054">
        <ele>749.56</ele>
        <time>2015-10-03T10:04:47.412Z</time>
      </trkpt>
      <trkpt lat="45.26357" lon="4.21053">
        <ele>749.57692307692</ele>
        <time>2015-10-03T10:04:48.388Z</time>
      </trkpt>
      <trkpt lat="45.26356" lon="4.21052">
        <ele>749.69230769231</ele>
        <time>2015-10-03T10:04:49.372Z</time>
      </trkpt>
      <trkpt lat="45.26356" lon="4.21049">
        <ele>749.96</ele>
        <time>2015-10-03T10:04:51.392Z</time>
      </trkpt>
      <trkpt lat="45.26356" lon="4.21047">
        <ele>750.04</ele>
        <time>2015-10-03T10:04:52.366Z</time>
      </trkpt>
      <trkpt lat="45.26356" lon="4.21045">
        <ele>750.24</ele>
        <time>2015-10-03T10:04:53.354Z</time>
      </trkpt>
      <trkpt lat="45.26356" lon="4.21043">
        <ele>750.36</ele>
        <time>2015-10-03T10:04:54.354Z</time>
      </trkpt>
      <trkpt lat="45.26356" lon="4.2104">
        <ele>750.56</ele>
        <time>2015-10-03T10:04:55.358Z</time>
      </trkpt>
      <trkpt lat="45.26356" lon="4.21038">
        <ele>750.8</ele>
        <time>2015-10-03T10:04:56.368Z</time>
      </trkpt>
      <trkpt lat="45.26356" lon="4.21036">
        <ele>751</ele>
        <time>2015-10-03T10:04:57.354Z</time>
      </trkpt>
      <trkpt lat="45.26355" lon="4.21034">
        <ele>751.12</ele>
        <time>2015-10-03T10:04:58.352Z</time>
      </trkpt>
      <trkpt lat="45.26355" lon="4.21032">
        <ele>751.2</ele>
        <time>2015-10-03T10:04:59.351Z</time>
      </trkpt>
      <trkpt lat="45.26355" lon="4.21029">
        <ele>751.32</ele>
        <time>2015-10-03T10:05:00.364Z</time>
      </trkpt>
      <trkpt lat="45.26355" lon="4.21027">
        <ele>751.6</ele>
        <time>2015-10-03T10:05:01.371Z</time>
      </trkpt>
      <trkpt lat="45.26355" lon="4.21025">
        <ele>751.8</ele>
        <time>2015-10-03T10:05:02.362Z</time>
      </trkpt>
      <trkpt lat="45.26354" lon="4.21023">
        <ele>751.92</ele>
        <time>2015-10-03T10:05:03.350Z</time>
      </trkpt>
      <trkpt lat="45.26353" lon="4.2102">
        <ele>752</ele>
        <time>2015-10-03T10:05:04.351Z</time>
      </trkpt>
      <trkpt lat="45.26353" lon="4.21018">
        <ele>752.16</ele>
        <time>2015-10-03T10:05:05.355Z</time>
      </trkpt>
      <trkpt lat="45.26352" lon="4.21016">
        <ele>752.4</ele>
        <time>2015-10-03T10:05:06.358Z</time>
      </trkpt>
      <trkpt lat="45.26352" lon="4.21014">
        <ele>752.56</ele>
        <time>2015-10-03T10:05:07.366Z</time>
      </trkpt>
      <trkpt lat="45.2635" lon="4.2101">
        <ele>752.75</ele>
        <time>2015-10-03T10:05:09.365Z</time>
      </trkpt>
      <trkpt lat="45.2635" lon="4.21007">
        <ele>752.84</ele>
        <time>2015-10-03T10:05:10.353Z</time>
      </trkpt>
      <trkpt lat="45.2635" lon="4.21005">
        <ele>753</ele>
        <time>2015-10-03T10:05:11.365Z</time>
      </trkpt>
      <trkpt lat="45.26349" lon="4.21003">
        <ele>753.04</ele>
        <time>2015-10-03T10:05:12.358Z</time>
      </trkpt>
      <trkpt lat="45.2635" lon="4.21002">
        <ele>753.2</ele>
        <time>2015-10-03T10:05:13.354Z</time>
      </trkpt>
      <trkpt lat="45.2635" lon="4.21">
        <ele>753.4</ele>
        <time>2015-10-03T10:05:14.365Z</time>
      </trkpt>
      <trkpt lat="45.26351" lon="4.20999">
        <ele>753.56</ele>
        <time>2015-10-03T10:05:15.358Z</time>
      </trkpt>
      <trkpt lat="45.26352" lon="4.20998">
        <ele>753.64</ele>
        <time>2015-10-03T10:05:16.345Z</time>
      </trkpt>
      <trkpt lat="45.26353" lon="4.20996">
        <ele>753.875</ele>
        <time>2015-10-03T10:05:17.368Z</time>
      </trkpt>
      <trkpt lat="45.26354" lon="4.20994">
        <ele>753.91666666667</ele>
        <time>2015-10-03T10:05:18.358Z</time>
      </trkpt>
      <trkpt lat="45.26354" lon="4.20992">
        <ele>754.04166666667</ele>
        <time>2015-10-03T10:05:19.359Z</time>
      </trkpt>
      <trkpt lat="45.26354" lon="4.20991">
        <ele>754.125</ele>
        <time>2015-10-03T10:05:20.374Z</time>
      </trkpt>
      <trkpt lat="45.26354" lon="4.2099">
        <ele>754.16</ele>
        <time>2015-10-03T10:05:21.356Z</time>
      </trkpt>
      <trkpt lat="45.26354" lon="4.20988">
        <ele>754.16</ele>
        <time>2015-10-03T10:05:22.352Z</time>
      </trkpt>
      <trkpt lat="45.26354" lon="4.20986">
        <ele>754.2</ele>
        <time>2015-10-03T10:05:23.341Z</time>
      </trkpt>
      <trkpt lat="45.26353" lon="4.20984">
        <ele>754.45833333333</ele>
        <time>2015-10-03T10:05:24.355Z</time>
      </trkpt>
      <trkpt lat="45.26352" lon="4.20982">
        <ele>754.6</ele>
        <time>2015-10-03T10:05:25.359Z</time>
      </trkpt>
      <trkpt lat="45.2635" lon="4.2098">
        <ele>754.76</ele>
        <time>2015-10-03T10:05:26.366Z</time>
      </trkpt>
      <trkpt lat="45.26349" lon="4.20978">
        <ele>754.91666666667</ele>
        <time>2015-10-03T10:05:27.370Z</time>
      </trkpt>
      <trkpt lat="45.26349" lon="4.20976">
        <ele>755.125</ele>
        <time>2015-10-03T10:05:28.364Z</time>
      </trkpt>
      <trkpt lat="45.26349" lon="4.20974">
        <ele>755.375</ele>
        <time>2015-10-03T10:05:29.360Z</time>
      </trkpt>
      <trkpt lat="45.26348" lon="4.20973">
        <ele>755.48</ele>
        <time>2015-10-03T10:05:30.345Z</time>
      </trkpt>
      <trkpt lat="45.26348" lon="4.20971">
        <ele>755.64</ele>
        <time>2015-10-03T10:05:31.345Z</time>
      </trkpt>
      <trkpt lat="45.26347" lon="4.20969">
        <ele>755.72</ele>
        <time>2015-10-03T10:05:32.336Z</time>
      </trkpt>
      <trkpt lat="45.26347" lon="4.20966">
        <ele>755.84</ele>
        <time>2015-10-03T10:05:33.348Z</time>
      </trkpt>
      <trkpt lat="45.26346" lon="4.20964">
        <ele>755.96153846154</ele>
        <time>2015-10-03T10:05:34.359Z</time>
      </trkpt>
      <trkpt lat="45.26346" lon="4.20961">
        <ele>756.11538461538</ele>
        <time>2015-10-03T10:05:35.331Z</time>
      </trkpt>
      <trkpt lat="45.26345" lon="4.20959">
        <ele>756.30769230769</ele>
        <time>2015-10-03T10:05:36.327Z</time>
      </trkpt>
      <trkpt lat="45.26344" lon="4.20957">
        <ele>756.57692307692</ele>
        <time>2015-10-03T10:05:37.341Z</time>
      </trkpt>
      <trkpt lat="45.26343" lon="4.20956">
        <ele>756.92</ele>
        <time>2015-10-03T10:05:38.361Z</time>
      </trkpt>
      <trkpt lat="45.26342" lon="4.20955">
        <ele>757.16</ele>
        <time>2015-10-03T10:05:39.378Z</time>
      </trkpt>
      <trkpt lat="45.26341" lon="4.20954">
        <ele>757.44</ele>
        <time>2015-10-03T10:05:40.376Z</time>
      </trkpt>
      <trkpt lat="45.26341" lon="4.20953">
        <ele>757.61538461538</ele>
        <time>2015-10-03T10:05:41.339Z</time>
      </trkpt>
      <trkpt lat="45.26341" lon="4.20952">
        <ele>757.96153846154</ele>
        <time>2015-10-03T10:05:42.316Z</time>
      </trkpt>
      <trkpt lat="45.2634" lon="4.2095">
        <ele>758.30769230769</ele>
        <time>2015-10-03T10:05:43.331Z</time>
      </trkpt>
      <trkpt lat="45.26339" lon="4.20947">
        <ele>758.8</ele>
        <time>2015-10-03T10:05:44.361Z</time>
      </trkpt>
      <trkpt lat="45.26339" lon="4.20945">
        <ele>758.84615384615</ele>
        <time>2015-10-03T10:05:45.368Z</time>
      </trkpt>
      <trkpt lat="45.26339" lon="4.20942">
        <ele>759.28</ele>
        <time>2015-10-03T10:05:46.358Z</time>
      </trkpt>
      <trkpt lat="45.26339" lon="4.2094">
        <ele>759.64</ele>
        <time>2015-10-03T10:05:47.362Z</time>
      </trkpt>
      <trkpt lat="45.2634" lon="4.20937">
        <ele>759.96</ele>
        <time>2015-10-03T10:05:48.350Z</time>
      </trkpt>
      <trkpt lat="45.2634" lon="4.20934">
        <ele>760</ele>
        <time>2015-10-03T10:05:49.334Z</time>
      </trkpt>
      <trkpt lat="45.2634" lon="4.20933">
        <ele>760.23076923077</ele>
        <time>2015-10-03T10:05:50.316Z</time>
      </trkpt>
      <trkpt lat="45.2634" lon="4.20932">
        <ele>760.42307692308</ele>
        <time>2015-10-03T10:05:51.311Z</time>
      </trkpt>
      <trkpt lat="45.2634" lon="4.20931">
        <ele>760.61538461538</ele>
        <time>2015-10-03T10:05:52.306Z</time>
      </trkpt>
      <trkpt lat="45.26341" lon="4.2093">
        <ele>760.80769230769</ele>
        <time>2015-10-03T10:05:53.298Z</time>
      </trkpt>
      <trkpt lat="45.26341" lon="4.20929">
        <ele>760.92307692308</ele>
        <time>2015-10-03T10:05:54.304Z</time>
      </trkpt>
      <trkpt lat="45.26341" lon="4.20928">
        <ele>761.07692307692</ele>
        <time>2015-10-03T10:05:55.306Z</time>
      </trkpt>
      <trkpt lat="45.2634" lon="4.20926">
        <ele>761.23076923077</ele>
        <time>2015-10-03T10:05:56.308Z</time>
      </trkpt>
      <trkpt lat="45.26341" lon="4.20924">
        <ele>761.38461538462</ele>
        <time>2015-10-03T10:05:57.305Z</time>
      </trkpt>
      <trkpt lat="45.26341" lon="4.20922">
        <ele>761.5</ele>
        <time>2015-10-03T10:05:58.310Z</time>
      </trkpt>
      <trkpt lat="45.2634" lon="4.2092">
        <ele>761.65384615385</ele>
        <time>2015-10-03T10:05:59.306Z</time>
      </trkpt>
      <trkpt lat="45.26339" lon="4.20919">
        <ele>761.76923076923</ele>
        <time>2015-10-03T10:06:00.317Z</time>
      </trkpt>
      <trkpt lat="45.26338" lon="4.20917">
        <ele>762</ele>
        <time>2015-10-03T10:06:01.337Z</time>
      </trkpt>
      <trkpt lat="45.26336" lon="4.20917">
        <ele>762.08</ele>
        <time>2015-10-03T10:06:02.352Z</time>
      </trkpt>
      <trkpt lat="45.26335" lon="4.20916">
        <ele>762.2</ele>
        <time>2015-10-03T10:06:03.365Z</time>
      </trkpt>
      <trkpt lat="45.26333" lon="4.20916">
        <ele>762.19230769231</ele>
        <time>2015-10-03T10:06:04.343Z</time>
      </trkpt>
      <trkpt lat="45.26332" lon="4.20917">
        <ele>762.26923076923</ele>
        <time>2015-10-03T10:06:05.315Z</time>
      </trkpt>
      <trkpt lat="45.26331" lon="4.20917">
        <ele>762.30769230769</ele>
        <time>2015-10-03T10:06:06.297Z</time>
      </trkpt>
      <trkpt lat="45.2633" lon="4.20917">
        <ele>762.36</ele>
        <time>2015-10-03T10:06:07.325Z</time>
      </trkpt>
      <trkpt lat="45.26329" lon="4.20918">
        <ele>762.36</ele>
        <time>2015-10-03T10:06:08.351Z</time>
      </trkpt>
      <trkpt lat="45.26328" lon="4.20918">
        <ele>762.38461538462</ele>
        <time>2015-10-03T10:06:09.328Z</time>
      </trkpt>
      <trkpt lat="45.26328" lon="4.20918">
        <ele>762.42307692308</ele>
        <time>2015-10-03T10:06:10.304Z</time>
      </trkpt>
      <trkpt lat="45.26327" lon="4.20918">
        <ele>762.57692307692</ele>
        <time>2015-10-03T10:06:11.309Z</time>
      </trkpt>
      <trkpt lat="45.26326" lon="4.20919">
        <ele>762.69230769231</ele>
        <time>2015-10-03T10:06:12.314Z</time>
      </trkpt>
      <trkpt lat="45.26324" lon="4.20919">
        <ele>762.73076923077</ele>
        <time>2015-10-03T10:06:13.307Z</time>
      </trkpt>
      <trkpt lat="45.26322" lon="4.2092">
        <ele>762.76923076923</ele>
        <time>2015-10-03T10:06:14.308Z</time>
      </trkpt>
      <trkpt lat="45.26321" lon="4.2092">
        <ele>762.92307692308</ele>
        <time>2015-10-03T10:06:15.313Z</time>
      </trkpt>
      <trkpt lat="45.2632" lon="4.20921">
        <ele>763</ele>
        <time>2015-10-03T10:06:16.322Z</time>
      </trkpt>
      <trkpt lat="45.26319" lon="4.20922">
        <ele>763.16</ele>
        <time>2015-10-03T10:06:17.334Z</time>
      </trkpt>
      <trkpt lat="45.26318" lon="4.20924">
        <ele>763.24</ele>
        <time>2015-10-03T10:06:18.342Z</time>
      </trkpt>
      <trkpt lat="45.26318" lon="4.20925">
        <ele>763.36</ele>
        <time>2015-10-03T10:06:19.360Z</time>
      </trkpt>
      <trkpt lat="45.26317" lon="4.20927">
        <ele>763.44</ele>
        <time>2015-10-03T10:06:20.360Z</time>
      </trkpt>
      <trkpt lat="45.26316" lon="4.20929">
        <ele>763.52</ele>
        <time>2015-10-03T10:06:21.364Z</time>
      </trkpt>
      <trkpt lat="45.26315" lon="4.20931">
        <ele>763.68</ele>
        <time>2015-10-03T10:06:22.367Z</time>
      </trkpt>
      <trkpt lat="45.26315" lon="4.20932">
        <ele>763.88</ele>
        <time>2015-10-03T10:06:23.339Z</time>
      </trkpt>
      <trkpt lat="45.26314" lon="4.20933">
        <ele>764.08</ele>
        <time>2015-10-03T10:06:24.320Z</time>
      </trkpt>
      <trkpt lat="45.26314" lon="4.20935">
        <ele>764.16</ele>
        <time>2015-10-03T10:06:25.338Z</time>
      </trkpt>
      <trkpt lat="45.26314" lon="4.20936">
        <ele>764.19230769231</ele>
        <time>2015-10-03T10:06:26.324Z</time>
      </trkpt>
      <trkpt lat="45.26314" lon="4.20937">
        <ele>764.38461538462</ele>
        <time>2015-10-03T10:06:27.300Z</time>
      </trkpt>
      <trkpt lat="45.26313" lon="4.20938">
        <ele>764.5</ele>
        <time>2015-10-03T10:06:28.311Z</time>
      </trkpt>
      <trkpt lat="45.26313" lon="4.20939">
        <ele>764.57692307692</ele>
        <time>2015-10-03T10:06:29.301Z</time>
      </trkpt>
      <trkpt lat="45.26313" lon="4.2094">
        <ele>764.69230769231</ele>
        <time>2015-10-03T10:06:30.313Z</time>
      </trkpt>
      <trkpt lat="45.26312" lon="4.20942">
        <ele>764.88</ele>
        <time>2015-10-03T10:06:31.311Z</time>
      </trkpt>
      <trkpt lat="45.26312" lon="4.20943">
        <ele>764.92307692308</ele>
        <time>2015-10-03T10:06:32.307Z</time>
      </trkpt>
      <trkpt lat="45.26313" lon="4.20944">
        <ele>765</ele>
        <time>2015-10-03T10:06:33.308Z</time>
      </trkpt>
      <trkpt lat="45.26316" lon="4.20945">
        <ele>765.42307692308</ele>
        <time>2015-10-03T10:06:37.299Z</time>
      </trkpt>
      <trkpt lat="45.26316" lon="4.20945">
        <ele>765.73076923077</ele>
        <time>2015-10-03T10:06:40.304Z</time>
      </trkpt>
      <trkpt lat="45.26317" lon="4.20945">
        <ele>765.92307692308</ele>
        <time>2015-10-03T10:06:44.303Z</time>
      </trkpt>
      <trkpt lat="45.26316" lon="4.20946">
        <ele>765.96153846154</ele>
        <time>2015-10-03T10:06:45.298Z</time>
      </trkpt>
      <trkpt lat="45.26315" lon="4.20947">
        <ele>766.03846153846</ele>
        <time>2015-10-03T10:06:46.310Z</time>
      </trkpt>
      <trkpt lat="45.26315" lon="4.20948">
        <ele>766.07692307692</ele>
        <time>2015-10-03T10:06:47.309Z</time>
      </trkpt>
      <trkpt lat="45.26313" lon="4.20951">
        <ele>766.15384615385</ele>
        <time>2015-10-03T10:06:49.314Z</time>
      </trkpt>
      <trkpt lat="45.26311" lon="4.20953">
        <ele>766.07692307692</ele>
        <time>2015-10-03T10:06:50.318Z</time>
      </trkpt>
      <trkpt lat="45.26311" lon="4.20954">
        <ele>766.15384615385</ele>
        <time>2015-10-03T10:06:51.323Z</time>
      </trkpt>
      <trkpt lat="45.2631" lon="4.20955">
        <ele>766.2</ele>
        <time>2015-10-03T10:06:52.324Z</time>
      </trkpt>
      <trkpt lat="45.26308" lon="4.20956">
        <ele>766.24</ele>
        <time>2015-10-03T10:06:53.373Z</time>
      </trkpt>
      <trkpt lat="45.26307" lon="4.20957">
        <ele>766.2</ele>
        <time>2015-10-03T10:06:54.388Z</time>
      </trkpt>
      <trkpt lat="45.26305" lon="4.20958">
        <ele>766.28</ele>
        <time>2015-10-03T10:06:55.396Z</time>
      </trkpt>
      <trkpt lat="45.26304" lon="4.2096">
        <ele>766.36</ele>
        <time>2015-10-03T10:06:56.377Z</time>
      </trkpt>
      <trkpt lat="45.26303" lon="4.20962">
        <ele>766.4</ele>
        <time>2015-10-03T10:06:57.343Z</time>
      </trkpt>
      <trkpt lat="45.26303" lon="4.20965">
        <ele>766.4</ele>
        <time>2015-10-03T10:06:58.355Z</time>
      </trkpt>
      <trkpt lat="45.26303" lon="4.20967">
        <ele>766.44</ele>
        <time>2015-10-03T10:06:59.359Z</time>
      </trkpt>
      <trkpt lat="45.26303" lon="4.20969">
        <ele>766.48</ele>
        <time>2015-10-03T10:07:00.363Z</time>
      </trkpt>
      <trkpt lat="45.26303" lon="4.2097">
        <ele>766.56</ele>
        <time>2015-10-03T10:07:01.359Z</time>
      </trkpt>
      <trkpt lat="45.26304" lon="4.20972">
        <ele>766.6</ele>
        <time>2015-10-03T10:07:02.371Z</time>
      </trkpt>
      <trkpt lat="45.26305" lon="4.20974">
        <ele>766.64</ele>
        <time>2015-10-03T10:07:03.391Z</time>
      </trkpt>
      <trkpt lat="45.26304" lon="4.20976">
        <ele>766.64</ele>
        <time>2015-10-03T10:07:04.382Z</time>
      </trkpt>
      <trkpt lat="45.26304" lon="4.20978">
        <ele>766.68</ele>
        <time>2015-10-03T10:07:05.374Z</time>
      </trkpt>
      <trkpt lat="45.26303" lon="4.2098">
        <ele>766.68</ele>
        <time>2015-10-03T10:07:06.388Z</time>
      </trkpt>
      <trkpt lat="45.26303" lon="4.20982">
        <ele>766.72</ele>
        <time>2015-10-03T10:07:07.398Z</time>
      </trkpt>
      <trkpt lat="45.26299" lon="4.20988">
        <ele>767.04166666667</ele>
        <time>2015-10-03T10:07:11.373Z</time>
      </trkpt>
      <trkpt lat="45.26298" lon="4.20992">
        <ele>767.25</ele>
        <time>2015-10-03T10:07:13.358Z</time>
      </trkpt>
      <trkpt lat="45.26297" lon="4.20994">
        <ele>767.375</ele>
        <time>2015-10-03T10:07:14.349Z</time>
      </trkpt>
      <trkpt lat="45.26296" lon="4.20996">
        <ele>767.625</ele>
        <time>2015-10-03T10:07:15.356Z</time>
      </trkpt>
      <trkpt lat="45.26295" lon="4.20997">
        <ele>767.83333333333</ele>
        <time>2015-10-03T10:07:16.367Z</time>
      </trkpt>
      <trkpt lat="45.26293" lon="4.20999">
        <ele>768</ele>
        <time>2015-10-03T10:07:17.364Z</time>
      </trkpt>
      <trkpt lat="45.26292" lon="4.21">
        <ele>768.16</ele>
        <time>2015-10-03T10:07:18.373Z</time>
      </trkpt>
      <trkpt lat="45.2629" lon="4.21002">
        <ele>768.4</ele>
        <time>2015-10-03T10:07:19.360Z</time>
      </trkpt>
      <trkpt lat="45.2629" lon="4.21004">
        <ele>768.72</ele>
        <time>2015-10-03T10:07:20.356Z</time>
      </trkpt>
      <trkpt lat="45.26289" lon="4.21006">
        <ele>768.92</ele>
        <time>2015-10-03T10:07:21.357Z</time>
      </trkpt>
      <trkpt lat="45.26288" lon="4.21007">
        <ele>769.16666666667</ele>
        <time>2015-10-03T10:07:22.361Z</time>
      </trkpt>
      <trkpt lat="45.26287" lon="4.21009">
        <ele>769.45833333333</ele>
        <time>2015-10-03T10:07:23.367Z</time>
      </trkpt>
      <trkpt lat="45.26285" lon="4.21015">
        <ele>770</ele>
        <time>2015-10-03T10:07:26.407Z</time>
      </trkpt>
      <trkpt lat="45.26284" lon="4.21016">
        <ele>770.20833333333</ele>
        <time>2015-10-03T10:07:27.416Z</time>
      </trkpt>
      <trkpt lat="45.26284" lon="4.21018">
        <ele>770.375</ele>
        <time>2015-10-03T10:07:28.431Z</time>
      </trkpt>
      <trkpt lat="45.26282" lon="4.2102">
        <ele>770.79166666667</ele>
        <time>2015-10-03T10:07:30.409Z</time>
      </trkpt>
      <trkpt lat="45.26278" lon="4.21024">
        <ele>771.4</ele>
        <time>2015-10-03T10:07:33.389Z</time>
      </trkpt>
      <trkpt lat="45.26275" lon="4.21028">
        <ele>772.44</ele>
        <time>2015-10-03T10:07:37.377Z</time>
      </trkpt>
      <trkpt lat="45.26275" lon="4.21029">
        <ele>772.64</ele>
        <time>2015-10-03T10:07:38.361Z</time>
      </trkpt>
      <trkpt lat="45.26274" lon="4.2103">
        <ele>772.76923076923</ele>
        <time>2015-10-03T10:07:39.344Z</time>
      </trkpt>
      <trkpt lat="45.26274" lon="4.21032">
        <ele>773.04</ele>
        <time>2015-10-03T10:07:40.359Z</time>
      </trkpt>
      <trkpt lat="45.26273" lon="4.21034">
        <ele>773.28</ele>
        <time>2015-10-03T10:07:41.395Z</time>
      </trkpt>
      <trkpt lat="45.26273" lon="4.21035">
        <ele>773.48</ele>
        <time>2015-10-03T10:07:42.402Z</time>
      </trkpt>
      <trkpt lat="45.26272" lon="4.21036">
        <ele>773.68</ele>
        <time>2015-10-03T10:07:43.406Z</time>
      </trkpt>
      <trkpt lat="45.26271" lon="4.21038">
        <ele>773.88</ele>
        <time>2015-10-03T10:07:44.377Z</time>
      </trkpt>
      <trkpt lat="45.2627" lon="4.21039">
        <ele>774.04</ele>
        <time>2015-10-03T10:07:45.371Z</time>
      </trkpt>
      <trkpt lat="45.2627" lon="4.2104">
        <ele>774.24</ele>
        <time>2015-10-03T10:07:46.401Z</time>
      </trkpt>
      <trkpt lat="45.26269" lon="4.21042">
        <ele>774.48</ele>
        <time>2015-10-03T10:07:47.388Z</time>
      </trkpt>
      <trkpt lat="45.26269" lon="4.21043">
        <ele>774.61538461538</ele>
        <time>2015-10-03T10:07:48.365Z</time>
      </trkpt>
      <trkpt lat="45.26268" lon="4.21044">
        <ele>774.76923076923</ele>
        <time>2015-10-03T10:07:49.340Z</time>
      </trkpt>
      <trkpt lat="45.26267" lon="4.21046">
        <ele>775.16</ele>
        <time>2015-10-03T10:07:50.796Z</time>
      </trkpt>
      <trkpt lat="45.26265" lon="4.21047">
        <ele>775.26923076923</ele>
        <time>2015-10-03T10:07:51.355Z</time>
      </trkpt>
      <trkpt lat="45.26265" lon="4.21048">
        <ele>775.53846153846</ele>
        <time>2015-10-03T10:07:52.327Z</time>
      </trkpt>
      <trkpt lat="45.26265" lon="4.21048">
        <ele>775.73076923077</ele>
        <time>2015-10-03T10:07:53.304Z</time>
      </trkpt>
      <trkpt lat="45.26265" lon="4.21049">
        <ele>776</ele>
        <time>2015-10-03T10:07:54.314Z</time>
      </trkpt>
      <trkpt lat="45.26264" lon="4.2105">
        <ele>776.26923076923</ele>
        <time>2015-10-03T10:07:55.334Z</time>
      </trkpt>
      <trkpt lat="45.26263" lon="4.21051">
        <ele>776.57692307692</ele>
        <time>2015-10-03T10:07:56.374Z</time>
      </trkpt>
      <trkpt lat="45.26262" lon="4.21052">
        <ele>776.80769230769</ele>
        <time>2015-10-03T10:07:57.366Z</time>
      </trkpt>
      <trkpt lat="45.2626" lon="4.21054">
        <ele>777.36</ele>
        <time>2015-10-03T10:07:59.358Z</time>
      </trkpt>
      <trkpt lat="45.26259" lon="4.21055">
        <ele>777.38461538462</ele>
        <time>2015-10-03T10:08:00.336Z</time>
      </trkpt>
      <trkpt lat="45.26259" lon="4.21055">
        <ele>777.57692307692</ele>
        <time>2015-10-03T10:08:01.334Z</time>
      </trkpt>
      <trkpt lat="45.26258" lon="4.21056">
        <ele>777.80769230769</ele>
        <time>2015-10-03T10:08:02.306Z</time>
      </trkpt>
      <trkpt lat="45.26257" lon="4.21057">
        <ele>778</ele>
        <time>2015-10-03T10:08:03.307Z</time>
      </trkpt>
      <trkpt lat="45.26256" lon="4.21058">
        <ele>778.23076923077</ele>
        <time>2015-10-03T10:08:04.310Z</time>
      </trkpt>
      <trkpt lat="45.26256" lon="4.21059">
        <ele>778.38461538462</ele>
        <time>2015-10-03T10:08:05.329Z</time>
      </trkpt>
      <trkpt lat="45.26255" lon="4.21059">
        <ele>778.57692307692</ele>
        <time>2015-10-03T10:08:06.315Z</time>
      </trkpt>
      <trkpt lat="45.26254" lon="4.2106">
        <ele>778.92307692308</ele>
        <time>2015-10-03T10:08:08.314Z</time>
      </trkpt>
      <trkpt lat="45.26254" lon="4.2106">
        <ele>779.07692307692</ele>
        <time>2015-10-03T10:08:09.305Z</time>
      </trkpt>
      <trkpt lat="45.26252" lon="4.21062">
        <ele>779.42307692308</ele>
        <time>2015-10-03T10:08:11.345Z</time>
      </trkpt>
      <trkpt lat="45.26251" lon="4.21063">
        <ele>779.61538461538</ele>
        <time>2015-10-03T10:08:12.354Z</time>
      </trkpt>
      <trkpt lat="45.26251" lon="4.21064">
        <ele>779.76923076923</ele>
        <time>2015-10-03T10:08:13.324Z</time>
      </trkpt>
      <trkpt lat="45.2625" lon="4.21065">
        <ele>779.92307692308</ele>
        <time>2015-10-03T10:08:14.325Z</time>
      </trkpt>
      <trkpt lat="45.26249" lon="4.21067">
        <ele>780.15384615385</ele>
        <time>2015-10-03T10:08:15.315Z</time>
      </trkpt>
      <trkpt lat="45.26248" lon="4.21068">
        <ele>780.30769230769</ele>
        <time>2015-10-03T10:08:16.324Z</time>
      </trkpt>
      <trkpt lat="45.26247" lon="4.21069">
        <ele>780.52</ele>
        <time>2015-10-03T10:08:17.330Z</time>
      </trkpt>
      <trkpt lat="45.26245" lon="4.21069">
        <ele>780.68</ele>
        <time>2015-10-03T10:08:18.367Z</time>
      </trkpt>
      <trkpt lat="45.26244" lon="4.21069">
        <ele>780.8</ele>
        <time>2015-10-03T10:08:19.388Z</time>
      </trkpt>
      <trkpt lat="45.26243" lon="4.2107">
        <ele>780.88</ele>
        <time>2015-10-03T10:08:20.382Z</time>
      </trkpt>
      <trkpt lat="45.26242" lon="4.2107">
        <ele>780.96153846154</ele>
        <time>2015-10-03T10:08:21.365Z</time>
      </trkpt>
      <trkpt lat="45.2624" lon="4.21071">
        <ele>781.11538461538</ele>
        <time>2015-10-03T10:08:22.347Z</time>
      </trkpt>
      <trkpt lat="45.26239" lon="4.21071">
        <ele>781.26923076923</ele>
        <time>2015-10-03T10:08:23.366Z</time>
      </trkpt>
      <trkpt lat="45.26238" lon="4.21072">
        <ele>781.48</ele>
        <time>2015-10-03T10:08:24.376Z</time>
      </trkpt>
      <trkpt lat="45.26236" lon="4.21072">
        <ele>781.68</ele>
        <time>2015-10-03T10:08:25.359Z</time>
      </trkpt>
      <trkpt lat="45.26236" lon="4.21072">
        <ele>781.84</ele>
        <time>2015-10-03T10:08:26.363Z</time>
      </trkpt>
      <trkpt lat="45.26235" lon="4.21072">
        <ele>782</ele>
        <time>2015-10-03T10:08:27.368Z</time>
      </trkpt>
      <trkpt lat="45.26233" lon="4.21071">
        <ele>782.16</ele>
        <time>2015-10-03T10:08:28.353Z</time>
      </trkpt>
      <trkpt lat="45.26233" lon="4.21071">
        <ele>782.32</ele>
        <time>2015-10-03T10:08:29.365Z</time>
      </trkpt>
      <trkpt lat="45.26232" lon="4.21071">
        <ele>782.48</ele>
        <time>2015-10-03T10:08:30.370Z</time>
      </trkpt>
      <trkpt lat="45.2623" lon="4.21071">
        <ele>782.64</ele>
        <time>2015-10-03T10:08:31.353Z</time>
      </trkpt>
      <trkpt lat="45.2623" lon="4.21071">
        <ele>782.8</ele>
        <time>2015-10-03T10:08:32.328Z</time>
      </trkpt>
      <trkpt lat="45.26229" lon="4.21072">
        <ele>782.84615384615</ele>
        <time>2015-10-03T10:08:33.303Z</time>
      </trkpt>
      <trkpt lat="45.26227" lon="4.21073">
        <ele>783.26923076923</ele>
        <time>2015-10-03T10:08:36.315Z</time>
      </trkpt>
      <trkpt lat="45.26227" lon="4.21073">
        <ele>783.34615384615</ele>
        <time>2015-10-03T10:08:37.318Z</time>
      </trkpt>
      <trkpt lat="45.26226" lon="4.21073">
        <ele>783.56</ele>
        <time>2015-10-03T10:08:38.333Z</time>
      </trkpt>
      <trkpt lat="45.26224" lon="4.21075">
        <ele>783.84</ele>
        <time>2015-10-03T10:08:40.353Z</time>
      </trkpt>
      <trkpt lat="45.26222" lon="4.21076">
        <ele>784.2</ele>
        <time>2015-10-03T10:08:42.337Z</time>
      </trkpt>
      <trkpt lat="45.26222" lon="4.21076">
        <ele>784.26923076923</ele>
        <time>2015-10-03T10:08:43.319Z</time>
      </trkpt>
      <trkpt lat="45.26221" lon="4.21077">
        <ele>784.42307692308</ele>
        <time>2015-10-03T10:08:44.311Z</time>
      </trkpt>
      <trkpt lat="45.26218" lon="4.21078">
        <ele>784.76923076923</ele>
        <time>2015-10-03T10:08:46.307Z</time>
      </trkpt>
      <trkpt lat="45.26217" lon="4.21079">
        <ele>784.92307692308</ele>
        <time>2015-10-03T10:08:47.318Z</time>
      </trkpt>
      <trkpt lat="45.26216" lon="4.2108">
        <ele>785.07692307692</ele>
        <time>2015-10-03T10:08:48.326Z</time>
      </trkpt>
      <trkpt lat="45.26215" lon="4.21081">
        <ele>785.26923076923</ele>
        <time>2015-10-03T10:08:49.317Z</time>
      </trkpt>
      <trkpt lat="45.26213" lon="4.21082">
        <ele>785.42307692308</ele>
        <time>2015-10-03T10:08:50.337Z</time>
      </trkpt>
      <trkpt lat="45.26212" lon="4.21082">
        <ele>785.61538461538</ele>
        <time>2015-10-03T10:08:51.327Z</time>
      </trkpt>
      <trkpt lat="45.26211" lon="4.21083">
        <ele>785.80769230769</ele>
        <time>2015-10-03T10:08:52.309Z</time>
      </trkpt>
      <trkpt lat="45.26209" lon="4.21083">
        <ele>785.96153846154</ele>
        <time>2015-10-03T10:08:53.306Z</time>
      </trkpt>
      <trkpt lat="45.26208" lon="4.21084">
        <ele>786.15384615385</ele>
        <time>2015-10-03T10:08:54.295Z</time>
      </trkpt>
      <trkpt lat="45.26207" lon="4.21085">
        <ele>786.34615384615</ele>
        <time>2015-10-03T10:08:55.298Z</time>
      </trkpt>
      <trkpt lat="45.26205" lon="4.21085">
        <ele>786.57692307692</ele>
        <time>2015-10-03T10:08:56.309Z</time>
      </trkpt>
      <trkpt lat="45.26204" lon="4.21085">
        <ele>786.76923076923</ele>
        <time>2015-10-03T10:08:57.301Z</time>
      </trkpt>
      <trkpt lat="45.26203" lon="4.21085">
        <ele>787</ele>
        <time>2015-10-03T10:08:58.306Z</time>
      </trkpt>
      <trkpt lat="45.26202" lon="4.21086">
        <ele>787.2</ele>
        <time>2015-10-03T10:08:59.307Z</time>
      </trkpt>
      <trkpt lat="45.262" lon="4.21087">
        <ele>787.30769230769</ele>
        <time>2015-10-03T10:09:00.300Z</time>
      </trkpt>
      <trkpt lat="45.26199" lon="4.21087">
        <ele>787.46153846154</ele>
        <time>2015-10-03T10:09:01.304Z</time>
      </trkpt>
      <trkpt lat="45.26199" lon="4.21088">
        <ele>787.65384615385</ele>
        <time>2015-10-03T10:09:02.306Z</time>
      </trkpt>
      <trkpt lat="45.26198" lon="4.21089">
        <ele>787.84615384615</ele>
        <time>2015-10-03T10:09:03.305Z</time>
      </trkpt>
      <trkpt lat="45.26197" lon="4.21091">
        <ele>788</ele>
        <time>2015-10-03T10:09:04.302Z</time>
      </trkpt>
      <trkpt lat="45.26195" lon="4.21092">
        <ele>788.19230769231</ele>
        <time>2015-10-03T10:09:05.313Z</time>
      </trkpt>
      <trkpt lat="45.26194" lon="4.21093">
        <ele>788.38461538462</ele>
        <time>2015-10-03T10:09:06.308Z</time>
      </trkpt>
      <trkpt lat="45.26193" lon="4.21095">
        <ele>788.53846153846</ele>
        <time>2015-10-03T10:09:07.303Z</time>
      </trkpt>
      <trkpt lat="45.2619" lon="4.21098">
        <ele>788.8</ele>
        <time>2015-10-03T10:09:09.303Z</time>
      </trkpt>
      <trkpt lat="45.26189" lon="4.21099">
        <ele>789.04166666667</ele>
        <time>2015-10-03T10:09:10.311Z</time>
      </trkpt>
      <trkpt lat="45.26187" lon="4.21101">
        <ele>789.24</ele>
        <time>2015-10-03T10:09:12.311Z</time>
      </trkpt>
      <trkpt lat="45.26186" lon="4.21102">
        <ele>789.4</ele>
        <time>2015-10-03T10:09:13.305Z</time>
      </trkpt>
      <trkpt lat="45.26185" lon="4.21103">
        <ele>789.6</ele>
        <time>2015-10-03T10:09:14.309Z</time>
      </trkpt>
      <trkpt lat="45.26184" lon="4.21104">
        <ele>789.72</ele>
        <time>2015-10-03T10:09:15.304Z</time>
      </trkpt>
      <trkpt lat="45.26183" lon="4.21105">
        <ele>789.88</ele>
        <time>2015-10-03T10:09:16.304Z</time>
      </trkpt>
      <trkpt lat="45.26182" lon="4.21106">
        <ele>790.08333333333</ele>
        <time>2015-10-03T10:09:17.316Z</time>
      </trkpt>
      <trkpt lat="45.26181" lon="4.21106">
        <ele>790.25</ele>
        <time>2015-10-03T10:09:18.324Z</time>
      </trkpt>
      <trkpt lat="45.26181" lon="4.21107">
        <ele>790.375</ele>
        <time>2015-10-03T10:09:19.329Z</time>
      </trkpt>
      <trkpt lat="45.2618" lon="4.21108">
        <ele>790.54166666667</ele>
        <time>2015-10-03T10:09:20.322Z</time>
      </trkpt>
      <trkpt lat="45.26179" lon="4.2111">
        <ele>790.66666666667</ele>
        <time>2015-10-03T10:09:21.321Z</time>
      </trkpt>
      <trkpt lat="45.26178" lon="4.21111">
        <ele>790.83333333333</ele>
        <time>2015-10-03T10:09:22.319Z</time>
      </trkpt>
      <trkpt lat="45.26177" lon="4.21113">
        <ele>791.08333333333</ele>
        <time>2015-10-03T10:09:23.311Z</time>
      </trkpt>
      <trkpt lat="45.26176" lon="4.21114">
        <ele>791.2</ele>
        <time>2015-10-03T10:09:24.305Z</time>
      </trkpt>
      <trkpt lat="45.26175" lon="4.21115">
        <ele>791.5</ele>
        <time>2015-10-03T10:09:25.317Z</time>
      </trkpt>
      <trkpt lat="45.26174" lon="4.21115">
        <ele>791.70833333333</ele>
        <time>2015-10-03T10:09:26.314Z</time>
      </trkpt>
      <trkpt lat="45.26173" lon="4.21116">
        <ele>791.91666666667</ele>
        <time>2015-10-03T10:09:27.309Z</time>
      </trkpt>
      <trkpt lat="45.26171" lon="4.21117">
        <ele>792.125</ele>
        <time>2015-10-03T10:09:28.317Z</time>
      </trkpt>
      <trkpt lat="45.2617" lon="4.21118">
        <ele>792.33333333333</ele>
        <time>2015-10-03T10:09:29.328Z</time>
      </trkpt>
      <trkpt lat="45.26169" lon="4.21119">
        <ele>792.44</ele>
        <time>2015-10-03T10:09:30.312Z</time>
      </trkpt>
      <trkpt lat="45.26169" lon="4.2112">
        <ele>792.6</ele>
        <time>2015-10-03T10:09:31.302Z</time>
      </trkpt>
      <trkpt lat="45.26168" lon="4.21121">
        <ele>792.79166666667</ele>
        <time>2015-10-03T10:09:32.332Z</time>
      </trkpt>
      <trkpt lat="45.26167" lon="4.21122">
        <ele>792.88</ele>
        <time>2015-10-03T10:09:33.345Z</time>
      </trkpt>
      <trkpt lat="45.26166" lon="4.21123">
        <ele>793.12</ele>
        <time>2015-10-03T10:09:34.370Z</time>
      </trkpt>
      <trkpt lat="45.26165" lon="4.21124">
        <ele>793.4</ele>
        <time>2015-10-03T10:09:35.345Z</time>
      </trkpt>
      <trkpt lat="45.26164" lon="4.21125">
        <ele>793.68</ele>
        <time>2015-10-03T10:09:36.330Z</time>
      </trkpt>
      <trkpt lat="45.26163" lon="4.21126">
        <ele>793.92</ele>
        <time>2015-10-03T10:09:37.349Z</time>
      </trkpt>
      <trkpt lat="45.26162" lon="4.21127">
        <ele>794.12</ele>
        <time>2015-10-03T10:09:38.368Z</time>
      </trkpt>
      <trkpt lat="45.26161" lon="4.21128">
        <ele>794.32</ele>
        <time>2015-10-03T10:09:39.361Z</time>
      </trkpt>
      <trkpt lat="45.2616" lon="4.21129">
        <ele>794.52</ele>
        <time>2015-10-03T10:09:40.355Z</time>
      </trkpt>
      <trkpt lat="45.26159" lon="4.2113">
        <ele>794.72</ele>
        <time>2015-10-03T10:09:41.367Z</time>
      </trkpt>
      <trkpt lat="45.26158" lon="4.21132">
        <ele>794.88</ele>
        <time>2015-10-03T10:09:42.364Z</time>
      </trkpt>
      <trkpt lat="45.26157" lon="4.21133">
        <ele>795.04</ele>
        <time>2015-10-03T10:09:43.373Z</time>
      </trkpt>
      <trkpt lat="45.26156" lon="4.21134">
        <ele>795.24</ele>
        <time>2015-10-03T10:09:44.372Z</time>
      </trkpt>
      <trkpt lat="45.26155" lon="4.21135">
        <ele>795.4</ele>
        <time>2015-10-03T10:09:45.375Z</time>
      </trkpt>
      <trkpt lat="45.26153" lon="4.21136">
        <ele>795.56</ele>
        <time>2015-10-03T10:09:46.367Z</time>
      </trkpt>
      <trkpt lat="45.26152" lon="4.21136">
        <ele>795.68</ele>
        <time>2015-10-03T10:09:47.366Z</time>
      </trkpt>
      <trkpt lat="45.26151" lon="4.21137">
        <ele>795.76</ele>
        <time>2015-10-03T10:09:48.365Z</time>
      </trkpt>
      <trkpt lat="45.26149" lon="4.21138">
        <ele>795.92</ele>
        <time>2015-10-03T10:09:49.360Z</time>
      </trkpt>
      <trkpt lat="45.26148" lon="4.21138">
        <ele>796.04</ele>
        <time>2015-10-03T10:09:50.370Z</time>
      </trkpt>
      <trkpt lat="45.26147" lon="4.21138">
        <ele>796.2</ele>
        <time>2015-10-03T10:09:51.374Z</time>
      </trkpt>
      <trkpt lat="45.26146" lon="4.21138">
        <ele>796.32</ele>
        <time>2015-10-03T10:09:52.379Z</time>
      </trkpt>
      <trkpt lat="45.26145" lon="4.21138">
        <ele>796.44</ele>
        <time>2015-10-03T10:09:53.352Z</time>
      </trkpt>
      <trkpt lat="45.26144" lon="4.21139">
        <ele>796.5</ele>
        <time>2015-10-03T10:09:54.325Z</time>
      </trkpt>
      <trkpt lat="45.26143" lon="4.2114">
        <ele>796.64</ele>
        <time>2015-10-03T10:09:55.341Z</time>
      </trkpt>
      <trkpt lat="45.26141" lon="4.21141">
        <ele>796.8</ele>
        <time>2015-10-03T10:09:56.364Z</time>
      </trkpt>
      <trkpt lat="45.2614" lon="4.21142">
        <ele>797</ele>
        <time>2015-10-03T10:09:57.366Z</time>
      </trkpt>
      <trkpt lat="45.26138" lon="4.21143">
        <ele>797.12</ele>
        <time>2015-10-03T10:09:58.355Z</time>
      </trkpt>
      <trkpt lat="45.26137" lon="4.21144">
        <ele>797.15384615385</ele>
        <time>2015-10-03T10:09:59.364Z</time>
      </trkpt>
      <trkpt lat="45.26135" lon="4.21146">
        <ele>797.2</ele>
        <time>2015-10-03T10:10:00.360Z</time>
      </trkpt>
      <trkpt lat="45.26134" lon="4.21147">
        <ele>797.32</ele>
        <time>2015-10-03T10:10:01.379Z</time>
      </trkpt>
      <trkpt lat="45.26132" lon="4.21148">
        <ele>797.4</ele>
        <time>2015-10-03T10:10:02.389Z</time>
      </trkpt>
      <trkpt lat="45.2613" lon="4.21149">
        <ele>797.52</ele>
        <time>2015-10-03T10:10:03.376Z</time>
      </trkpt>
      <trkpt lat="45.26128" lon="4.2115">
        <ele>797.56</ele>
        <time>2015-10-03T10:10:04.367Z</time>
      </trkpt>
      <trkpt lat="45.26127" lon="4.21152">
        <ele>797.68</ele>
        <time>2015-10-03T10:10:05.378Z</time>
      </trkpt>
      <trkpt lat="45.26125" lon="4.21153">
        <ele>797.76923076923</ele>
        <time>2015-10-03T10:10:06.364Z</time>
      </trkpt>
      <trkpt lat="45.26123" lon="4.21154">
        <ele>797.96</ele>
        <time>2015-10-03T10:10:07.372Z</time>
      </trkpt>
      <trkpt lat="45.26122" lon="4.21155">
        <ele>798.04</ele>
        <time>2015-10-03T10:10:08.377Z</time>
      </trkpt>
      <trkpt lat="45.2612" lon="4.21156">
        <ele>798.11538461538</ele>
        <time>2015-10-03T10:10:09.363Z</time>
      </trkpt>
      <trkpt lat="45.26118" lon="4.21157">
        <ele>798.23076923077</ele>
        <time>2015-10-03T10:10:10.363Z</time>
      </trkpt>
      <trkpt lat="45.26117" lon="4.21158">
        <ele>798.4</ele>
        <time>2015-10-03T10:10:11.389Z</time>
      </trkpt>
      <trkpt lat="45.26115" lon="4.2116">
        <ele>798.56</ele>
        <time>2015-10-03T10:10:12.409Z</time>
      </trkpt>
      <trkpt lat="45.26114" lon="4.21161">
        <ele>798.68</ele>
        <time>2015-10-03T10:10:13.408Z</time>
      </trkpt>
      <trkpt lat="45.26107" lon="4.21166">
        <ele>798.96153846154</ele>
        <time>2015-10-03T10:10:17.354Z</time>
      </trkpt>
      <trkpt lat="45.26101" lon="4.21171">
        <ele>799.44</ele>
        <time>2015-10-03T10:10:20.360Z</time>
      </trkpt>
      <trkpt lat="45.26096" lon="4.21175">
        <ele>799.84</ele>
        <time>2015-10-03T10:10:23.364Z</time>
      </trkpt>
      <trkpt lat="45.26089" lon="4.21182">
        <ele>800.26923076923</ele>
        <time>2015-10-03T10:10:27.373Z</time>
      </trkpt>
      <trkpt lat="45.26085" lon="4.21187">
        <ele>800.84</ele>
        <time>2015-10-03T10:10:30.391Z</time>
      </trkpt>
      <trkpt lat="45.26083" lon="4.21189">
        <ele>800.92</ele>
        <time>2015-10-03T10:10:31.376Z</time>
      </trkpt>
      <trkpt lat="45.26081" lon="4.2119">
        <ele>801.04</ele>
        <time>2015-10-03T10:10:32.377Z</time>
      </trkpt>
      <trkpt lat="45.26079" lon="4.21192">
        <ele>801.2</ele>
        <time>2015-10-03T10:10:33.378Z</time>
      </trkpt>
      <trkpt lat="45.26075" lon="4.21194">
        <ele>801.34615384615</ele>
        <time>2015-10-03T10:10:35.353Z</time>
      </trkpt>
      <trkpt lat="45.26073" lon="4.21195">
        <ele>801.5</ele>
        <time>2015-10-03T10:10:36.379Z</time>
      </trkpt>
      <trkpt lat="45.26071" lon="4.21197">
        <ele>801.57692307692</ele>
        <time>2015-10-03T10:10:37.378Z</time>
      </trkpt>
      <trkpt lat="45.2607" lon="4.21199">
        <ele>801.69230769231</ele>
        <time>2015-10-03T10:10:38.379Z</time>
      </trkpt>
      <trkpt lat="45.26069" lon="4.21201">
        <ele>801.80769230769</ele>
        <time>2015-10-03T10:10:39.359Z</time>
      </trkpt>
      <trkpt lat="45.26064" lon="4.21208">
        <ele>802.12</ele>
        <time>2015-10-03T10:10:42.364Z</time>
      </trkpt>
      <trkpt lat="45.26059" lon="4.21216">
        <ele>802.30769230769</ele>
        <time>2015-10-03T10:10:46.359Z</time>
      </trkpt>
      <trkpt lat="45.26053" lon="4.21226">
        <ele>802.56</ele>
        <time>2015-10-03T10:10:50.378Z</time>
      </trkpt>
      <trkpt lat="45.2605" lon="4.21231">
        <ele>802.64</ele>
        <time>2015-10-03T10:10:52.408Z</time>
      </trkpt>
      <trkpt lat="45.26047" lon="4.21236">
        <ele>802.76923076923</ele>
        <time>2015-10-03T10:10:54.406Z</time>
      </trkpt>
      <trkpt lat="45.26041" lon="4.21246">
        <ele>803.03846153846</ele>
        <time>2015-10-03T10:10:58.357Z</time>
      </trkpt>
      <trkpt lat="45.26037" lon="4.21255">
        <ele>803.30769230769</ele>
        <time>2015-10-03T10:11:01.360Z</time>
      </trkpt>
      <trkpt lat="45.26033" lon="4.21263">
        <ele>803.6</ele>
        <time>2015-10-03T10:11:04.365Z</time>
      </trkpt>
      <trkpt lat="45.26029" lon="4.21271">
        <ele>804.16</ele>
        <time>2015-10-03T10:11:07.369Z</time>
      </trkpt>
      <trkpt lat="45.26027" lon="4.21276">
        <ele>804.4</ele>
        <time>2015-10-03T10:11:09.353Z</time>
      </trkpt>
      <trkpt lat="45.26023" lon="4.21284">
        <ele>804.8</ele>
        <time>2015-10-03T10:11:12.365Z</time>
      </trkpt>
      <trkpt lat="45.26019" lon="4.21291">
        <ele>805.33333333333</ele>
        <time>2015-10-03T10:11:15.386Z</time>
      </trkpt>
      <trkpt lat="45.26014" lon="4.21299">
        <ele>805.64</ele>
        <time>2015-10-03T10:11:18.397Z</time>
      </trkpt>
      <trkpt lat="45.26009" lon="4.21307">
        <ele>806.25</ele>
        <time>2015-10-03T10:11:21.418Z</time>
      </trkpt>
      <trkpt lat="45.26004" lon="4.21314">
        <ele>806.625</ele>
        <time>2015-10-03T10:11:24.429Z</time>
      </trkpt>
      <trkpt lat="45.26" lon="4.21317">
        <ele>806.79166666667</ele>
        <time>2015-10-03T10:11:26.420Z</time>
      </trkpt>
      <trkpt lat="45.25995" lon="4.2132">
        <ele>807.125</ele>
        <time>2015-10-03T10:11:28.396Z</time>
      </trkpt>
      <trkpt lat="45.25987" lon="4.21326">
        <ele>807.5</ele>
        <time>2015-10-03T10:11:32.399Z</time>
      </trkpt>
      <trkpt lat="45.25979" lon="4.21331">
        <ele>807.8</ele>
        <time>2015-10-03T10:11:36.382Z</time>
      </trkpt>
      <trkpt lat="45.25972" lon="4.21335">
        <ele>807.88</ele>
        <time>2015-10-03T10:11:39.405Z</time>
      </trkpt>
      <trkpt lat="45.25963" lon="4.2134">
        <ele>808</ele>
        <time>2015-10-03T10:11:43.364Z</time>
      </trkpt>
      <trkpt lat="45.25955" lon="4.21344">
        <ele>807.96153846154</ele>
        <time>2015-10-03T10:11:46.409Z</time>
      </trkpt>
      <trkpt lat="45.25953" lon="4.21345">
        <ele>807.80769230769</ele>
        <time>2015-10-03T10:11:47.356Z</time>
      </trkpt>
      <trkpt lat="45.25951" lon="4.21346">
        <ele>807.80769230769</ele>
        <time>2015-10-03T10:11:48.327Z</time>
      </trkpt>
      <trkpt lat="45.25947" lon="4.21348">
        <ele>807.73076923077</ele>
        <time>2015-10-03T10:11:50.326Z</time>
      </trkpt>
      <trkpt lat="45.25943" lon="4.21351">
        <ele>807.69230769231</ele>
        <time>2015-10-03T10:11:51.318Z</time>
      </trkpt>
      <trkpt lat="45.25937" lon="4.21355">
        <ele>807.57692307692</ele>
        <time>2015-10-03T10:11:53.319Z</time>
      </trkpt>
      <trkpt lat="45.25934" lon="4.21356">
        <ele>807.46153846154</ele>
        <time>2015-10-03T10:11:54.323Z</time>
      </trkpt>
      <trkpt lat="45.25932" lon="4.21357">
        <ele>807.38461538462</ele>
        <time>2015-10-03T10:11:55.338Z</time>
      </trkpt>
      <trkpt lat="45.2593" lon="4.21356">
        <ele>807.19230769231</ele>
        <time>2015-10-03T10:11:56.360Z</time>
      </trkpt>
      <trkpt lat="45.25928" lon="4.21355">
        <ele>807.03846153846</ele>
        <time>2015-10-03T10:11:57.383Z</time>
      </trkpt>
      <trkpt lat="45.25927" lon="4.21353">
        <ele>806.8</ele>
        <time>2015-10-03T10:11:58.406Z</time>
      </trkpt>
      <trkpt lat="45.25922" lon="4.21343">
        <ele>806.42307692308</ele>
        <time>2015-10-03T10:12:02.400Z</time>
      </trkpt>
      <trkpt lat="45.25921" lon="4.21341">
        <ele>806.38461538462</ele>
        <time>2015-10-03T10:12:03.389Z</time>
      </trkpt>
      <trkpt lat="45.25919" lon="4.21339">
        <ele>806.30769230769</ele>
        <time>2015-10-03T10:12:04.340Z</time>
      </trkpt>
      <trkpt lat="45.25918" lon="4.21338">
        <ele>806.23076923077</ele>
        <time>2015-10-03T10:12:05.321Z</time>
      </trkpt>
      <trkpt lat="45.25917" lon="4.21335">
        <ele>806.15384615385</ele>
        <time>2015-10-03T10:12:06.343Z</time>
      </trkpt>
      <trkpt lat="45.25913" lon="4.21328">
        <ele>805.96</ele>
        <time>2015-10-03T10:12:08.418Z</time>
      </trkpt>
      <trkpt lat="45.25911" lon="4.21327">
        <ele>805.88</ele>
        <time>2015-10-03T10:12:09.416Z</time>
      </trkpt>
      <trkpt lat="45.25909" lon="4.21327">
        <ele>805.84615384615</ele>
        <time>2015-10-03T10:12:10.356Z</time>
      </trkpt>
      <trkpt lat="45.25908" lon="4.21328">
        <ele>805.76923076923</ele>
        <time>2015-10-03T10:12:11.317Z</time>
      </trkpt>
      <trkpt lat="45.25907" lon="4.21328">
        <ele>805.76923076923</ele>
        <time>2015-10-03T10:12:13.303Z</time>
      </trkpt>
      <trkpt lat="45.25907" lon="4.21328">
        <ele>805.73076923077</ele>
        <time>2015-10-03T10:12:14.311Z</time>
      </trkpt>
      <trkpt lat="45.25907" lon="4.21328">
        <ele>805.65384615385</ele>
        <time>2015-10-03T10:12:15.322Z</time>
      </trkpt>
      <trkpt lat="45.25906" lon="4.21328">
        <ele>805.61538461538</ele>
        <time>2015-10-03T10:12:16.307Z</time>
      </trkpt>
      <trkpt lat="45.25906" lon="4.21328">
        <ele>805.53846153846</ele>
        <time>2015-10-03T10:12:17.313Z</time>
      </trkpt>
      <trkpt lat="45.25905" lon="4.21328">
        <ele>805.5</ele>
        <time>2015-10-03T10:12:18.309Z</time>
      </trkpt>
      <trkpt lat="45.25905" lon="4.21328">
        <ele>805.42307692308</ele>
        <time>2015-10-03T10:12:22.322Z</time>
      </trkpt>
      <trkpt lat="45.25905" lon="4.21328">
        <ele>805.46153846154</ele>
        <time>2015-10-03T10:12:26.313Z</time>
      </trkpt>
      <trkpt lat="45.25905" lon="4.21328">
        <ele>805.30769230769</ele>
        <time>2015-10-03T10:12:30.292Z</time>
      </trkpt>
      <trkpt lat="45.25905" lon="4.21328">
        <ele>805.26923076923</ele>
        <time>2015-10-03T10:12:33.307Z</time>
      </trkpt>
      <trkpt lat="45.25905" lon="4.21328">
        <ele>805.30769230769</ele>
        <time>2015-10-03T10:12:37.299Z</time>
      </trkpt>
      <trkpt lat="45.25904" lon="4.21328">
        <ele>805.16</ele>
        <time>2015-10-03T10:12:39.314Z</time>
      </trkpt>
      <trkpt lat="45.25905" lon="4.21327">
        <ele>805.11538461538</ele>
        <time>2015-10-03T10:12:42.310Z</time>
      </trkpt>
      <trkpt lat="45.25905" lon="4.21327">
        <ele>805.15384615385</ele>
        <time>2015-10-03T10:12:43.309Z</time>
      </trkpt>
      <trkpt lat="45.25905" lon="4.21327">
        <ele>805.11538461538</ele>
        <time>2015-10-03T10:12:44.303Z</time>
      </trkpt>
      <trkpt lat="45.25905" lon="4.21327">
        <ele>805.15384615385</ele>
        <time>2015-10-03T10:12:47.316Z</time>
      </trkpt>
      <trkpt lat="45.25905" lon="4.21328">
        <ele>805.15384615385</ele>
        <time>2015-10-03T10:12:51.306Z</time>
      </trkpt>
      <trkpt lat="45.25905" lon="4.21328">
        <ele>805.12</ele>
        <time>2015-10-03T10:12:54.317Z</time>
      </trkpt>
      <trkpt lat="45.25905" lon="4.21328">
        <ele>805.08</ele>
        <time>2015-10-03T10:12:58.312Z</time>
      </trkpt>
      <trkpt lat="45.25905" lon="4.21328">
        <ele>804.96</ele>
        <time>2015-10-03T10:13:01.313Z</time>
      </trkpt>
      <trkpt lat="45.25904" lon="4.21328">
        <ele>805</ele>
        <time>2015-10-03T10:13:05.306Z</time>
      </trkpt>
      <trkpt lat="45.25904" lon="4.21328">
        <ele>804.88</ele>
        <time>2015-10-03T10:13:09.302Z</time>
      </trkpt>
      <trkpt lat="45.25904" lon="4.21328">
        <ele>804.88</ele>
        <time>2015-10-03T10:13:12.303Z</time>
      </trkpt>
      <trkpt lat="45.25904" lon="4.21328">
        <ele>804.8</ele>
        <time>2015-10-03T10:13:15.305Z</time>
      </trkpt>
      <trkpt lat="45.25904" lon="4.21328">
        <ele>804.8</ele>
        <time>2015-10-03T10:13:18.308Z</time>
      </trkpt>
      <trkpt lat="45.25904" lon="4.21328">
        <ele>804.875</ele>
        <time>2015-10-03T10:13:21.316Z</time>
      </trkpt>
      <trkpt lat="45.25904" lon="4.21328">
        <ele>805.04</ele>
        <time>2015-10-03T10:13:25.300Z</time>
      </trkpt>
      <trkpt lat="45.25904" lon="4.21328">
        <ele>805.28</ele>
        <time>2015-10-03T10:13:28.301Z</time>
      </trkpt>
      <trkpt lat="45.25904" lon="4.21328">
        <ele>805.5</ele>
        <time>2015-10-03T10:13:31.327Z</time>
      </trkpt>
      <trkpt lat="45.25904" lon="4.21328">
        <ele>805.72</ele>
        <time>2015-10-03T10:13:35.306Z</time>
      </trkpt>
      <trkpt lat="45.25904" lon="4.21327">
        <ele>805.69230769231</ele>
        <time>2015-10-03T10:13:38.311Z</time>
      </trkpt>
      <trkpt lat="45.25904" lon="4.21327">
        <ele>805.72</ele>
        <time>2015-10-03T10:13:41.317Z</time>
      </trkpt>
      <trkpt lat="45.25904" lon="4.21327">
        <ele>805.61538461538</ele>
        <time>2015-10-03T10:13:45.304Z</time>
      </trkpt>
      <trkpt lat="45.25903" lon="4.21326">
        <ele>805.57692307692</ele>
        <time>2015-10-03T10:13:48.311Z</time>
      </trkpt>
      <trkpt lat="45.25903" lon="4.21326">
        <ele>805.36</ele>
        <time>2015-10-03T10:13:52.316Z</time>
      </trkpt>
      <trkpt lat="45.25903" lon="4.21326">
        <ele>805.15384615385</ele>
        <time>2015-10-03T10:13:56.305Z</time>
      </trkpt>
      <trkpt lat="45.25903" lon="4.21326">
        <ele>805</ele>
        <time>2015-10-03T10:13:59.310Z</time>
      </trkpt>
      <trkpt lat="45.25903" lon="4.21327">
        <ele>804.92307692308</ele>
        <time>2015-10-03T10:14:03.303Z</time>
      </trkpt>
      <trkpt lat="45.25903" lon="4.21326">
        <ele>804.80769230769</ele>
        <time>2015-10-03T10:14:07.305Z</time>
      </trkpt>
      <trkpt lat="45.25903" lon="4.21326">
        <ele>804.76</ele>
        <time>2015-10-03T10:14:11.315Z</time>
      </trkpt>
      <trkpt lat="45.25903" lon="4.21326">
        <ele>804.69230769231</ele>
        <time>2015-10-03T10:14:15.303Z</time>
      </trkpt>
      <trkpt lat="45.25903" lon="4.21326">
        <ele>804.65384615385</ele>
        <time>2015-10-03T10:14:18.310Z</time>
      </trkpt>
      <trkpt lat="45.25903" lon="4.21326">
        <ele>804.6</ele>
        <time>2015-10-03T10:14:22.307Z</time>
      </trkpt>
      <trkpt lat="45.25903" lon="4.21326">
        <ele>804.52</ele>
        <time>2015-10-03T10:14:25.312Z</time>
      </trkpt>
      <trkpt lat="45.25903" lon="4.21326">
        <ele>804.4</ele>
        <time>2015-10-03T10:14:28.318Z</time>
      </trkpt>
      <trkpt lat="45.25903" lon="4.21326">
        <ele>804.34615384615</ele>
        <time>2015-10-03T10:14:32.301Z</time>
      </trkpt>
      <trkpt lat="45.25903" lon="4.21326">
        <ele>804.32</ele>
        <time>2015-10-03T10:14:35.303Z</time>
      </trkpt>
      <trkpt lat="45.25903" lon="4.21326">
        <ele>804.24</ele>
        <time>2015-10-03T10:14:38.306Z</time>
      </trkpt>
      <trkpt lat="45.25903" lon="4.21326">
        <ele>804.12</ele>
        <time>2015-10-03T10:14:42.324Z</time>
      </trkpt>
      <trkpt lat="45.25903" lon="4.21326">
        <ele>804.03846153846</ele>
        <time>2015-10-03T10:14:46.302Z</time>
      </trkpt>
      <trkpt lat="45.25903" lon="4.21326">
        <ele>803.92307692308</ele>
        <time>2015-10-03T10:14:50.290Z</time>
      </trkpt>
      <trkpt lat="45.25903" lon="4.21326">
        <ele>803.92307692308</ele>
        <time>2015-10-03T10:14:53.298Z</time>
      </trkpt>
      <trkpt lat="45.25903" lon="4.21326">
        <ele>803.92</ele>
        <time>2015-10-03T10:14:56.325Z</time>
      </trkpt>
      <trkpt lat="45.25903" lon="4.21326">
        <ele>804</ele>
        <time>2015-10-03T10:15:00.304Z</time>
      </trkpt>
      <trkpt lat="45.25903" lon="4.21326">
        <ele>804.07692307692</ele>
        <time>2015-10-03T10:15:03.305Z</time>
      </trkpt>
      <trkpt lat="45.25903" lon="4.21326">
        <ele>804.12</ele>
        <time>2015-10-03T10:15:06.312Z</time>
      </trkpt>
      <trkpt lat="45.25903" lon="4.21326">
        <ele>804.16666666667</ele>
        <time>2015-10-03T10:15:10.315Z</time>
      </trkpt>
      <trkpt lat="45.25903" lon="4.21326">
        <ele>804.29166666667</ele>
        <time>2015-10-03T10:15:14.306Z</time>
      </trkpt>
      <trkpt lat="45.25903" lon="4.21326">
        <ele>804.375</ele>
        <time>2015-10-03T10:15:18.301Z</time>
      </trkpt>
      <trkpt lat="45.25903" lon="4.21326">
        <ele>804.36</ele>
        <time>2015-10-03T10:15:21.315Z</time>
      </trkpt>
      <trkpt lat="45.25903" lon="4.21326">
        <ele>804.44</ele>
        <time>2015-10-03T10:15:25.299Z</time>
      </trkpt>
      <trkpt lat="45.25903" lon="4.21325">
        <ele>804.375</ele>
        <time>2015-10-03T10:15:28.311Z</time>
      </trkpt>
      <trkpt lat="45.25903" lon="4.21325">
        <ele>804.375</ele>
        <time>2015-10-03T10:15:31.319Z</time>
      </trkpt>
      <trkpt lat="45.25903" lon="4.21325">
        <ele>804.4</ele>
        <time>2015-10-03T10:15:35.316Z</time>
      </trkpt>
      <trkpt lat="45.25903" lon="4.21325">
        <ele>804.32</ele>
        <time>2015-10-03T10:15:39.307Z</time>
      </trkpt>
      <trkpt lat="45.25903" lon="4.21325">
        <ele>804.28</ele>
        <time>2015-10-03T10:15:42.311Z</time>
      </trkpt>
      <trkpt lat="45.25903" lon="4.21324">
        <ele>804.24</ele>
        <time>2015-10-03T10:15:44.318Z</time>
      </trkpt>
      <trkpt lat="45.25903" lon="4.21323">
        <ele>804.23076923077</ele>
        <time>2015-10-03T10:15:46.314Z</time>
      </trkpt>
      <trkpt lat="45.25903" lon="4.21323">
        <ele>804.2</ele>
        <time>2015-10-03T10:15:48.326Z</time>
      </trkpt>
      <trkpt lat="45.25902" lon="4.21321">
        <ele>804.12</ele>
        <time>2015-10-03T10:15:50.311Z</time>
      </trkpt>
      <trkpt lat="45.25902" lon="4.21319">
        <ele>804.12</ele>
        <time>2015-10-03T10:15:51.318Z</time>
      </trkpt>
      <trkpt lat="45.25901" lon="4.21317">
        <ele>804.08</ele>
        <time>2015-10-03T10:15:52.413Z</time>
      </trkpt>
      <trkpt lat="45.25901" lon="4.21315">
        <ele>804.07692307692</ele>
        <time>2015-10-03T10:15:53.307Z</time>
      </trkpt>
      <trkpt lat="45.259" lon="4.21311">
        <ele>804.11538461538</ele>
        <time>2015-10-03T10:15:55.304Z</time>
      </trkpt>
      <trkpt lat="45.25899" lon="4.21309">
        <ele>804.07692307692</ele>
        <time>2015-10-03T10:15:56.313Z</time>
      </trkpt>
      <trkpt lat="45.25898" lon="4.21307">
        <ele>804.08</ele>
        <time>2015-10-03T10:15:57.312Z</time>
      </trkpt>
      <trkpt lat="45.25897" lon="4.21304">
        <ele>804.08</ele>
        <time>2015-10-03T10:15:58.323Z</time>
      </trkpt>
      <trkpt lat="45.25896" lon="4.21302">
        <ele>804.07692307692</ele>
        <time>2015-10-03T10:15:59.315Z</time>
      </trkpt>
      <trkpt lat="45.25895" lon="4.21299">
        <ele>804</ele>
        <time>2015-10-03T10:16:00.318Z</time>
      </trkpt>
      <trkpt lat="45.25894" lon="4.21296">
        <ele>803.92</ele>
        <time>2015-10-03T10:16:01.314Z</time>
      </trkpt>
      <trkpt lat="45.25894" lon="4.21294">
        <ele>803.92307692308</ele>
        <time>2015-10-03T10:16:02.317Z</time>
      </trkpt>
      <trkpt lat="45.25893" lon="4.21291">
        <ele>803.88</ele>
        <time>2015-10-03T10:16:03.319Z</time>
      </trkpt>
      <trkpt lat="45.25892" lon="4.21288">
        <ele>803.8</ele>
        <time>2015-10-03T10:16:04.316Z</time>
      </trkpt>
      <trkpt lat="45.25891" lon="4.21284">
        <ele>803.76</ele>
        <time>2015-10-03T10:16:05.318Z</time>
      </trkpt>
      <trkpt lat="45.2589" lon="4.21281">
        <ele>803.76</ele>
        <time>2015-10-03T10:16:06.319Z</time>
      </trkpt>
      <trkpt lat="45.25889" lon="4.21277">
        <ele>803.76</ele>
        <time>2015-10-03T10:16:07.321Z</time>
      </trkpt>
      <trkpt lat="45.25889" lon="4.21273">
        <ele>803.73076923077</ele>
        <time>2015-10-03T10:16:08.316Z</time>
      </trkpt>
      <trkpt lat="45.25888" lon="4.21268">
        <ele>803.68</ele>
        <time>2015-10-03T10:16:09.322Z</time>
      </trkpt>
      <trkpt lat="45.25888" lon="4.21252">
        <ele>803.48</ele>
        <time>2015-10-03T10:16:12.330Z</time>
      </trkpt>
      <trkpt lat="45.25891" lon="4.21238">
        <ele>803.4</ele>
        <time>2015-10-03T10:16:14.297Z</time>
      </trkpt>
      <trkpt lat="45.25893" lon="4.21232">
        <ele>803.32</ele>
        <time>2015-10-03T10:16:15.294Z</time>
      </trkpt>
      <trkpt lat="45.25895" lon="4.21227">
        <ele>803.24</ele>
        <time>2015-10-03T10:16:16.299Z</time>
      </trkpt>
      <trkpt lat="45.25899" lon="4.21221">
        <ele>803.16</ele>
        <time>2015-10-03T10:16:17.309Z</time>
      </trkpt>
      <trkpt lat="45.25903" lon="4.21215">
        <ele>803.04166666667</ele>
        <time>2015-10-03T10:16:18.313Z</time>
      </trkpt>
      <trkpt lat="45.2591" lon="4.21203">
        <ele>802.75</ele>
        <time>2015-10-03T10:16:20.317Z</time>
      </trkpt>
      <trkpt lat="45.25914" lon="4.21196">
        <ele>802.625</ele>
        <time>2015-10-03T10:16:21.314Z</time>
      </trkpt>
      <trkpt lat="45.25922" lon="4.21183">
        <ele>802.36</ele>
        <time>2015-10-03T10:16:23.314Z</time>
      </trkpt>
      <trkpt lat="45.25925" lon="4.21175">
        <ele>802.16</ele>
        <time>2015-10-03T10:16:24.305Z</time>
      </trkpt>
      <trkpt lat="45.25927" lon="4.21166">
        <ele>801.92</ele>
        <time>2015-10-03T10:16:25.302Z</time>
      </trkpt>
      <trkpt lat="45.25931" lon="4.21149">
        <ele>801.56</ele>
        <time>2015-10-03T10:16:27.316Z</time>
      </trkpt>
      <trkpt lat="45.25936" lon="4.21122">
        <ele>800.88</ele>
        <time>2015-10-03T10:16:30.317Z</time>
      </trkpt>
      <trkpt lat="45.25938" lon="4.21103">
        <ele>800.4</ele>
        <time>2015-10-03T10:16:32.314Z</time>
      </trkpt>
      <trkpt lat="45.25937" lon="4.21093">
        <ele>800.12</ele>
        <time>2015-10-03T10:16:33.305Z</time>
      </trkpt>
      <trkpt lat="45.25936" lon="4.21084">
        <ele>799.88</ele>
        <time>2015-10-03T10:16:34.306Z</time>
      </trkpt>
      <trkpt lat="45.25932" lon="4.21064">
        <ele>799.16666666667</ele>
        <time>2015-10-03T10:16:36.317Z</time>
      </trkpt>
      <trkpt lat="45.25928" lon="4.21043">
        <ele>798.72</ele>
        <time>2015-10-03T10:16:38.307Z</time>
      </trkpt>
      <trkpt lat="45.25926" lon="4.21012">
        <ele>797.76</ele>
        <time>2015-10-03T10:16:41.302Z</time>
      </trkpt>
      <trkpt lat="45.25927" lon="4.21001">
        <ele>797.57692307692</ele>
        <time>2015-10-03T10:16:42.306Z</time>
      </trkpt>
      <trkpt lat="45.2593" lon="4.2099">
        <ele>797.19230769231</ele>
        <time>2015-10-03T10:16:43.309Z</time>
      </trkpt>
      <trkpt lat="45.25934" lon="4.20981">
        <ele>796.64</ele>
        <time>2015-10-03T10:16:44.317Z</time>
      </trkpt>
      <trkpt lat="45.25943" lon="4.20962">
        <ele>795.8</ele>
        <time>2015-10-03T10:16:46.315Z</time>
      </trkpt>
      <trkpt lat="45.25949" lon="4.20953">
        <ele>795.36</ele>
        <time>2015-10-03T10:16:47.312Z</time>
      </trkpt>
      <trkpt lat="45.25961" lon="4.20933">
        <ele>794.69230769231</ele>
        <time>2015-10-03T10:16:49.299Z</time>
      </trkpt>
      <trkpt lat="45.25966" lon="4.20923">
        <ele>794.08</ele>
        <time>2015-10-03T10:16:50.308Z</time>
      </trkpt>
      <trkpt lat="45.25975" lon="4.20899">
        <ele>793.30769230769</ele>
        <time>2015-10-03T10:16:52.311Z</time>
      </trkpt>
      <trkpt lat="45.25981" lon="4.20869">
        <ele>792</ele>
        <time>2015-10-03T10:16:54.318Z</time>
      </trkpt>
      <trkpt lat="45.25983" lon="4.20851">
        <ele>791.44</ele>
        <time>2015-10-03T10:16:55.336Z</time>
      </trkpt>
      <trkpt lat="45.25983" lon="4.20837">
        <ele>790.88</ele>
        <time>2015-10-03T10:16:56.328Z</time>
      </trkpt>
      <trkpt lat="45.25982" lon="4.20821">
        <ele>790.28</ele>
        <time>2015-10-03T10:16:57.318Z</time>
      </trkpt>
      <trkpt lat="45.25978" lon="4.20791">
        <ele>789.04</ele>
        <time>2015-10-03T10:16:59.319Z</time>
      </trkpt>
      <trkpt lat="45.25972" lon="4.2075">
        <ele>787.2</ele>
        <time>2015-10-03T10:17:02.315Z</time>
      </trkpt>
      <trkpt lat="45.2597" lon="4.20724">
        <ele>786.15384615385</ele>
        <time>2015-10-03T10:17:04.309Z</time>
      </trkpt>
      <trkpt lat="45.25969" lon="4.207">
        <ele>784.6</ele>
        <time>2015-10-03T10:17:06.325Z</time>
      </trkpt>
      <trkpt lat="45.25971" lon="4.20678">
        <ele>783.36</ele>
        <time>2015-10-03T10:17:08.327Z</time>
      </trkpt>
      <trkpt lat="45.2597" lon="4.20667">
        <ele>782.45833333333</ele>
        <time>2015-10-03T10:17:10.322Z</time>
      </trkpt>
      <trkpt lat="45.25969" lon="4.20661">
        <ele>781.83333333333</ele>
        <time>2015-10-03T10:17:11.317Z</time>
      </trkpt>
      <trkpt lat="45.25968" lon="4.20647">
        <ele>780.125</ele>
        <time>2015-10-03T10:17:14.328Z</time>
      </trkpt>
      <trkpt lat="45.25967" lon="4.20644">
        <ele>779.58333333333</ele>
        <time>2015-10-03T10:17:15.319Z</time>
      </trkpt>
      <trkpt lat="45.25969" lon="4.20642">
        <ele>779.36</ele>
        <time>2015-10-03T10:17:16.313Z</time>
      </trkpt>
      <trkpt lat="45.2597" lon="4.20639">
        <ele>778.58333333333</ele>
        <time>2015-10-03T10:17:17.313Z</time>
      </trkpt>
      <trkpt lat="45.2597" lon="4.20639">
        <ele>778.08333333333</ele>
        <time>2015-10-03T10:17:18.334Z</time>
      </trkpt>
      <trkpt lat="45.25972" lon="4.20637">
        <ele>777.625</ele>
        <time>2015-10-03T10:17:19.325Z</time>
      </trkpt>
      <trkpt lat="45.25975" lon="4.20634">
        <ele>777.4</ele>
        <time>2015-10-03T10:17:20.316Z</time>
      </trkpt>
      <trkpt lat="45.2598" lon="4.20628">
        <ele>776.96</ele>
        <time>2015-10-03T10:17:21.327Z</time>
      </trkpt>
      <trkpt lat="45.25985" lon="4.20615">
        <ele>776.16666666667</ele>
        <time>2015-10-03T10:17:22.334Z</time>
      </trkpt>
      <trkpt lat="45.25993" lon="4.20602">
        <ele>775.625</ele>
        <time>2015-10-03T10:17:24.295Z</time>
      </trkpt>
      <trkpt lat="45.25998" lon="4.20594">
        <ele>775.125</ele>
        <time>2015-10-03T10:17:25.298Z</time>
      </trkpt>
      <trkpt lat="45.26008" lon="4.20582">
        <ele>773.82608695652</ele>
        <time>2015-10-03T10:17:27.328Z</time>
      </trkpt>
      <trkpt lat="45.26013" lon="4.20571">
        <ele>773.39130434783</ele>
        <time>2015-10-03T10:17:28.321Z</time>
      </trkpt>
      <trkpt lat="45.26029" lon="4.20547">
        <ele>772.04166666667</ele>
        <time>2015-10-03T10:17:31.321Z</time>
      </trkpt>
      <trkpt lat="45.26034" lon="4.20537">
        <ele>771.45833333333</ele>
        <time>2015-10-03T10:17:32.324Z</time>
      </trkpt>
      <trkpt lat="45.26056" lon="4.20493">
        <ele>769.25</ele>
        <time>2015-10-03T10:17:36.318Z</time>
      </trkpt>
      <trkpt lat="45.26061" lon="4.20484">
        <ele>768.70833333333</ele>
        <time>2015-10-03T10:17:37.336Z</time>
      </trkpt>
      <trkpt lat="45.26081" lon="4.20448">
        <ele>766.45833333333</ele>
        <time>2015-10-03T10:17:41.333Z</time>
      </trkpt>
      <trkpt lat="45.26101" lon="4.20409">
        <ele>764.32</ele>
        <time>2015-10-03T10:17:45.316Z</time>
      </trkpt>
      <trkpt lat="45.26106" lon="4.20398">
        <ele>763.375</ele>
        <time>2015-10-03T10:17:46.328Z</time>
      </trkpt>
      <trkpt lat="45.26112" lon="4.20389">
        <ele>763.16</ele>
        <time>2015-10-03T10:17:47.331Z</time>
      </trkpt>
      <trkpt lat="45.26116" lon="4.20381">
        <ele>762.64</ele>
        <time>2015-10-03T10:17:48.323Z</time>
      </trkpt>
      <trkpt lat="45.26126" lon="4.20365">
        <ele>761.68</ele>
        <time>2015-10-03T10:17:50.320Z</time>
      </trkpt>
      <trkpt lat="45.26131" lon="4.20357">
        <ele>761.42307692308</ele>
        <time>2015-10-03T10:17:51.306Z</time>
      </trkpt>
      <trkpt lat="45.26141" lon="4.20338">
        <ele>760.24</ele>
        <time>2015-10-03T10:17:53.324Z</time>
      </trkpt>
      <trkpt lat="45.26145" lon="4.20329">
        <ele>760.03846153846</ele>
        <time>2015-10-03T10:17:54.325Z</time>
      </trkpt>
      <trkpt lat="45.26156" lon="4.20312">
        <ele>759</ele>
        <time>2015-10-03T10:17:56.336Z</time>
      </trkpt>
      <trkpt lat="45.26169" lon="4.20299">
        <ele>758.38461538462</ele>
        <time>2015-10-03T10:17:58.314Z</time>
      </trkpt>
      <trkpt lat="45.26177" lon="4.20291">
        <ele>758</ele>
        <time>2015-10-03T10:17:59.308Z</time>
      </trkpt>
      <trkpt lat="45.26183" lon="4.20284">
        <ele>757.4</ele>
        <time>2015-10-03T10:18:00.305Z</time>
      </trkpt>
      <trkpt lat="45.26194" lon="4.20273">
        <ele>756.96153846154</ele>
        <time>2015-10-03T10:18:02.305Z</time>
      </trkpt>
      <trkpt lat="45.26197" lon="4.20266">
        <ele>756.57692307692</ele>
        <time>2015-10-03T10:18:03.305Z</time>
      </trkpt>
      <trkpt lat="45.26204" lon="4.2026">
        <ele>756.19230769231</ele>
        <time>2015-10-03T10:18:04.311Z</time>
      </trkpt>
      <trkpt lat="45.26211" lon="4.20253">
        <ele>755.76923076923</ele>
        <time>2015-10-03T10:18:05.315Z</time>
      </trkpt>
      <trkpt lat="45.26219" lon="4.20247">
        <ele>755.42307692308</ele>
        <time>2015-10-03T10:18:06.313Z</time>
      </trkpt>
      <trkpt lat="45.26224" lon="4.20241">
        <ele>755.07692307692</ele>
        <time>2015-10-03T10:18:07.315Z</time>
      </trkpt>
      <trkpt lat="45.26227" lon="4.20239">
        <ele>754.76923076923</ele>
        <time>2015-10-03T10:18:08.325Z</time>
      </trkpt>
      <trkpt lat="45.26229" lon="4.20237">
        <ele>754.28</ele>
        <time>2015-10-03T10:18:09.321Z</time>
      </trkpt>
      <trkpt lat="45.26231" lon="4.20237">
        <ele>753.96</ele>
        <time>2015-10-03T10:18:10.317Z</time>
      </trkpt>
      <trkpt lat="45.26231" lon="4.20236">
        <ele>753.80769230769</ele>
        <time>2015-10-03T10:18:11.317Z</time>
      </trkpt>
      <trkpt lat="45.26233" lon="4.20236">
        <ele>753.23076923077</ele>
        <time>2015-10-03T10:18:13.320Z</time>
      </trkpt>
      <trkpt lat="45.26233" lon="4.20236">
        <ele>752.96153846154</ele>
        <time>2015-10-03T10:18:14.312Z</time>
      </trkpt>
      <trkpt lat="45.26233" lon="4.20234">
        <ele>751.96153846154</ele>
        <time>2015-10-03T10:18:18.309Z</time>
      </trkpt>
      <trkpt lat="45.26233" lon="4.20233">
        <ele>751.03846153846</ele>
        <time>2015-10-03T10:18:22.303Z</time>
      </trkpt>
      <trkpt lat="45.26233" lon="4.20233">
        <ele>750.5</ele>
        <time>2015-10-03T10:18:25.304Z</time>
      </trkpt>
      <trkpt lat="45.26233" lon="4.20233">
        <ele>749.8</ele>
        <time>2015-10-03T10:18:28.317Z</time>
      </trkpt>
      <trkpt lat="45.26233" lon="4.20233">
        <ele>749.46153846154</ele>
        <time>2015-10-03T10:18:32.313Z</time>
      </trkpt>
      <trkpt lat="45.26233" lon="4.20233">
        <ele>749.19230769231</ele>
        <time>2015-10-03T10:18:36.300Z</time>
      </trkpt>
      <trkpt lat="45.26233" lon="4.20233">
        <ele>749.07692307692</ele>
        <time>2015-10-03T10:18:39.312Z</time>
      </trkpt>
      <trkpt lat="45.26233" lon="4.20233">
        <ele>748.92307692308</ele>
        <time>2015-10-03T10:18:43.304Z</time>
      </trkpt>
      <trkpt lat="45.26233" lon="4.20233">
        <ele>748.8</ele>
        <time>2015-10-03T10:18:47.304Z</time>
      </trkpt>
      <trkpt lat="45.26233" lon="4.20233">
        <ele>748.76</ele>
        <time>2015-10-03T10:18:50.324Z</time>
      </trkpt>
      <trkpt lat="45.26235" lon="4.20234">
        <ele>748.76</ele>
        <time>2015-10-03T10:18:51.325Z</time>
      </trkpt>
      <trkpt lat="45.2624" lon="4.20237">
        <ele>748.76</ele>
        <time>2015-10-03T10:18:52.329Z</time>
      </trkpt>
      <trkpt lat="45.26243" lon="4.20238">
        <ele>748.76</ele>
        <time>2015-10-03T10:18:53.333Z</time>
      </trkpt>
      <trkpt lat="45.26245" lon="4.2024">
        <ele>748.72</ele>
        <time>2015-10-03T10:18:54.317Z</time>
      </trkpt>
      <trkpt lat="45.26249" lon="4.2024">
        <ele>748.68</ele>
        <time>2015-10-03T10:18:55.317Z</time>
      </trkpt>
      <trkpt lat="45.26253" lon="4.20239">
        <ele>748.64</ele>
        <time>2015-10-03T10:18:56.344Z</time>
      </trkpt>
      <trkpt lat="45.26255" lon="4.2024">
        <ele>748.56</ele>
        <time>2015-10-03T10:18:57.337Z</time>
      </trkpt>
      <trkpt lat="45.2626" lon="4.2024">
        <ele>748.44</ele>
        <time>2015-10-03T10:18:58.338Z</time>
      </trkpt>
      <trkpt lat="45.26264" lon="4.20241">
        <ele>748.32</ele>
        <time>2015-10-03T10:18:59.322Z</time>
      </trkpt>
      <trkpt lat="45.26268" lon="4.20241">
        <ele>748.24</ele>
        <time>2015-10-03T10:19:00.316Z</time>
      </trkpt>
      <trkpt lat="45.26272" lon="4.20239">
        <ele>748.16</ele>
        <time>2015-10-03T10:19:01.323Z</time>
      </trkpt>
      <trkpt lat="45.26275" lon="4.20239">
        <ele>748</ele>
        <time>2015-10-03T10:19:02.368Z</time>
      </trkpt>
      <trkpt lat="45.26279" lon="4.20238">
        <ele>747.88</ele>
        <time>2015-10-03T10:19:03.377Z</time>
      </trkpt>
      <trkpt lat="45.26282" lon="4.20239">
        <ele>747.72</ele>
        <time>2015-10-03T10:19:04.318Z</time>
      </trkpt>
      <trkpt lat="45.26284" lon="4.20239">
        <ele>747.65384615385</ele>
        <time>2015-10-03T10:19:05.309Z</time>
      </trkpt>
      <trkpt lat="45.2629" lon="4.20241">
        <ele>747.28</ele>
        <time>2015-10-03T10:19:07.315Z</time>
      </trkpt>
      <trkpt lat="45.26294" lon="4.20242">
        <ele>747.08</ele>
        <time>2015-10-03T10:19:08.313Z</time>
      </trkpt>
      <trkpt lat="45.26299" lon="4.20241">
        <ele>746.79166666667</ele>
        <time>2015-10-03T10:19:10.326Z</time>
      </trkpt>
      <trkpt lat="45.263" lon="4.2024">
        <ele>746.58333333333</ele>
        <time>2015-10-03T10:19:11.346Z</time>
      </trkpt>
      <trkpt lat="45.26302" lon="4.20237">
        <ele>745.83333333333</ele>
        <time>2015-10-03T10:19:14.335Z</time>
      </trkpt>
      <trkpt lat="45.26307" lon="4.20236">
        <ele>745.64</ele>
        <time>2015-10-03T10:19:15.318Z</time>
      </trkpt>
      <trkpt lat="45.26313" lon="4.20236">
        <ele>745.36</ele>
        <time>2015-10-03T10:19:16.298Z</time>
      </trkpt>
      <trkpt lat="45.26319" lon="4.20234">
        <ele>745</ele>
        <time>2015-10-03T10:19:17.301Z</time>
      </trkpt>
      <trkpt lat="45.26339" lon="4.20231">
        <ele>743.72</ele>
        <time>2015-10-03T10:19:20.305Z</time>
      </trkpt>
      <trkpt lat="45.26377" lon="4.20221">
        <ele>743.125</ele>
        <time>2015-10-03T10:19:22.296Z</time>
      </trkpt>
      <trkpt lat="45.26384" lon="4.20217">
        <ele>742.66666666667</ele>
        <time>2015-10-03T10:19:23.309Z</time>
      </trkpt>
      <trkpt lat="45.26392" lon="4.20216">
        <ele>742.25</ele>
        <time>2015-10-03T10:19:24.317Z</time>
      </trkpt>
      <trkpt lat="45.26407" lon="4.20215">
        <ele>741.41666666667</ele>
        <time>2015-10-03T10:19:26.315Z</time>
      </trkpt>
      <trkpt lat="45.26416" lon="4.20214">
        <ele>740.91666666667</ele>
        <time>2015-10-03T10:19:27.317Z</time>
      </trkpt>
      <trkpt lat="45.26423" lon="4.20208">
        <ele>740.41666666667</ele>
        <time>2015-10-03T10:19:28.313Z</time>
      </trkpt>
      <trkpt lat="45.26441" lon="4.20198">
        <ele>739</ele>
        <time>2015-10-03T10:19:30.315Z</time>
      </trkpt>
      <trkpt lat="45.26449" lon="4.20193">
        <ele>738.66666666667</ele>
        <time>2015-10-03T10:19:31.317Z</time>
      </trkpt>
      <trkpt lat="45.26456" lon="4.20187">
        <ele>738.125</ele>
        <time>2015-10-03T10:19:32.313Z</time>
      </trkpt>
      <trkpt lat="45.2647" lon="4.20182">
        <ele>736.875</ele>
        <time>2015-10-03T10:19:34.320Z</time>
      </trkpt>
      <trkpt lat="45.26476" lon="4.2018">
        <ele>736.56</ele>
        <time>2015-10-03T10:19:35.313Z</time>
      </trkpt>
      <trkpt lat="45.26482" lon="4.20181">
        <ele>735.92</ele>
        <time>2015-10-03T10:19:36.313Z</time>
      </trkpt>
      <trkpt lat="45.26488" lon="4.20171">
        <ele>735.4</ele>
        <time>2015-10-03T10:19:37.321Z</time>
      </trkpt>
      <trkpt lat="45.26494" lon="4.20166">
        <ele>734.5</ele>
        <time>2015-10-03T10:19:38.334Z</time>
      </trkpt>
      <trkpt lat="45.26498" lon="4.20159">
        <ele>734.2</ele>
        <time>2015-10-03T10:19:39.317Z</time>
      </trkpt>
      <trkpt lat="45.26504" lon="4.20158">
        <ele>733.56</ele>
        <time>2015-10-03T10:19:40.312Z</time>
      </trkpt>
      <trkpt lat="45.26512" lon="4.20153">
        <ele>732.08333333333</ele>
        <time>2015-10-03T10:19:42.325Z</time>
      </trkpt>
      <trkpt lat="45.26522" lon="4.20149">
        <ele>731.45833333333</ele>
        <time>2015-10-03T10:19:43.327Z</time>
      </trkpt>
      <trkpt lat="45.26529" lon="4.20146">
        <ele>731.16</ele>
        <time>2015-10-03T10:19:44.319Z</time>
      </trkpt>
      <trkpt lat="45.26535" lon="4.20143">
        <ele>730.6</ele>
        <time>2015-10-03T10:19:45.305Z</time>
      </trkpt>
      <trkpt lat="45.26544" lon="4.20141">
        <ele>729.44</ele>
        <time>2015-10-03T10:19:47.318Z</time>
      </trkpt>
      <trkpt lat="45.2655" lon="4.20134">
        <ele>728.88</ele>
        <time>2015-10-03T10:19:48.313Z</time>
      </trkpt>
      <trkpt lat="45.26558" lon="4.20129">
        <ele>728.61538461538</ele>
        <time>2015-10-03T10:19:49.317Z</time>
      </trkpt>
      <trkpt lat="45.26562" lon="4.20122">
        <ele>727.72</ele>
        <time>2015-10-03T10:19:50.325Z</time>
      </trkpt>
      <trkpt lat="45.26577" lon="4.20101">
        <ele>726.52</ele>
        <time>2015-10-03T10:19:52.320Z</time>
      </trkpt>
      <trkpt lat="45.26583" lon="4.20087">
        <ele>725.96</ele>
        <time>2015-10-03T10:19:53.316Z</time>
      </trkpt>
      <trkpt lat="45.26587" lon="4.20079">
        <ele>725.61538461538</ele>
        <time>2015-10-03T10:19:54.309Z</time>
      </trkpt>
      <trkpt lat="45.26595" lon="4.20064">
        <ele>725.03846153846</ele>
        <time>2015-10-03T10:19:55.308Z</time>
      </trkpt>
      <trkpt lat="45.266" lon="4.20048">
        <ele>724.46153846154</ele>
        <time>2015-10-03T10:19:56.313Z</time>
      </trkpt>
      <trkpt lat="45.26604" lon="4.20042">
        <ele>723.92307692308</ele>
        <time>2015-10-03T10:19:57.313Z</time>
      </trkpt>
      <trkpt lat="45.26609" lon="4.20035">
        <ele>723.34615384615</ele>
        <time>2015-10-03T10:19:58.324Z</time>
      </trkpt>
      <trkpt lat="45.26614" lon="4.2003">
        <ele>722.6</ele>
        <time>2015-10-03T10:19:59.323Z</time>
      </trkpt>
      <trkpt lat="45.26619" lon="4.20026">
        <ele>722.08</ele>
        <time>2015-10-03T10:20:00.323Z</time>
      </trkpt>
      <trkpt lat="45.26624" lon="4.20024">
        <ele>721.6</ele>
        <time>2015-10-03T10:20:01.318Z</time>
      </trkpt>
      <trkpt lat="45.26628" lon="4.20027">
        <ele>721.34615384615</ele>
        <time>2015-10-03T10:20:02.316Z</time>
      </trkpt>
      <trkpt lat="45.26633" lon="4.20026">
        <ele>720.73076923077</ele>
        <time>2015-10-03T10:20:03.315Z</time>
      </trkpt>
      <trkpt lat="45.26636" lon="4.20024">
        <ele>719.92</ele>
        <time>2015-10-03T10:20:04.320Z</time>
      </trkpt>
      <trkpt lat="45.2664" lon="4.20021">
        <ele>719.4</ele>
        <time>2015-10-03T10:20:05.322Z</time>
      </trkpt>
      <trkpt lat="45.26642" lon="4.20018">
        <ele>719.19230769231</ele>
        <time>2015-10-03T10:20:06.313Z</time>
      </trkpt>
      <trkpt lat="45.26644" lon="4.20017">
        <ele>718.69230769231</ele>
        <time>2015-10-03T10:20:07.308Z</time>
      </trkpt>
      <trkpt lat="45.26645" lon="4.20017">
        <ele>718.23076923077</ele>
        <time>2015-10-03T10:20:08.311Z</time>
      </trkpt>
      <trkpt lat="45.26648" lon="4.20016">
        <ele>717.16</ele>
        <time>2015-10-03T10:20:10.307Z</time>
      </trkpt>
      <trkpt lat="45.26648" lon="4.20014">
        <ele>716.76</ele>
        <time>2015-10-03T10:20:11.317Z</time>
      </trkpt>
      <trkpt lat="45.2665" lon="4.20012">
        <ele>716.36</ele>
        <time>2015-10-03T10:20:12.320Z</time>
      </trkpt>
      <trkpt lat="45.26651" lon="4.20007">
        <ele>716</ele>
        <time>2015-10-03T10:20:13.326Z</time>
      </trkpt>
      <trkpt lat="45.2665" lon="4.20005">
        <ele>715.32</ele>
        <time>2015-10-03T10:20:15.345Z</time>
      </trkpt>
      <trkpt lat="45.2665" lon="4.20005">
        <ele>715.04</ele>
        <time>2015-10-03T10:20:16.367Z</time>
      </trkpt>
      <trkpt lat="45.26648" lon="4.20005">
        <ele>714.52</ele>
        <time>2015-10-03T10:20:18.326Z</time>
      </trkpt>
      <trkpt lat="45.26648" lon="4.20005">
        <ele>714.4</ele>
        <time>2015-10-03T10:20:19.313Z</time>
      </trkpt>
      <trkpt lat="45.26648" lon="4.20005">
        <ele>713.80769230769</ele>
        <time>2015-10-03T10:20:23.291Z</time>
      </trkpt>
      <trkpt lat="45.26648" lon="4.20005">
        <ele>713.30769230769</ele>
        <time>2015-10-03T10:20:26.304Z</time>
      </trkpt>
      <trkpt lat="45.26649" lon="4.20006">
        <ele>713.08</ele>
        <time>2015-10-03T10:20:27.317Z</time>
      </trkpt>
      <trkpt lat="45.26653" lon="4.2001">
        <ele>712.8</ele>
        <time>2015-10-03T10:20:30.323Z</time>
      </trkpt>
      <trkpt lat="45.26654" lon="4.2001">
        <ele>712.68</ele>
        <time>2015-10-03T10:20:31.318Z</time>
      </trkpt>
      <trkpt lat="45.2665" lon="4.19948">
        <ele>712.69230769231</ele>
        <time>2015-10-03T10:20:32.308Z</time>
      </trkpt>
      <trkpt lat="45.26645" lon="4.19941">
        <ele>712.64</ele>
        <time>2015-10-03T10:20:33.343Z</time>
      </trkpt>
      <trkpt lat="45.26642" lon="4.19936">
        <ele>712.56</ele>
        <time>2015-10-03T10:20:34.343Z</time>
      </trkpt>
      <trkpt lat="45.26638" lon="4.19934">
        <ele>712.6</ele>
        <time>2015-10-03T10:20:35.340Z</time>
      </trkpt>
      <trkpt lat="45.26635" lon="4.19933">
        <ele>712.64</ele>
        <time>2015-10-03T10:20:36.353Z</time>
      </trkpt>
      <trkpt lat="45.26632" lon="4.19933">
        <ele>712.68</ele>
        <time>2015-10-03T10:20:37.364Z</time>
      </trkpt>
      <trkpt lat="45.2663" lon="4.19933">
        <ele>712.76</ele>
        <time>2015-10-03T10:20:38.351Z</time>
      </trkpt>
      <trkpt lat="45.26627" lon="4.19933">
        <ele>712.84</ele>
        <time>2015-10-03T10:20:39.402Z</time>
      </trkpt>
      <trkpt lat="45.26625" lon="4.19933">
        <ele>712.88</ele>
        <time>2015-10-03T10:20:40.420Z</time>
      </trkpt>
      <trkpt lat="45.26622" lon="4.19932">
        <ele>713</ele>
        <time>2015-10-03T10:20:41.373Z</time>
      </trkpt>
      <trkpt lat="45.2662" lon="4.1993">
        <ele>713.07692307692</ele>
        <time>2015-10-03T10:20:42.359Z</time>
      </trkpt>
      <trkpt lat="45.26617" lon="4.19931">
        <ele>713.16</ele>
        <time>2015-10-03T10:20:43.352Z</time>
      </trkpt>
      <trkpt lat="45.26616" lon="4.19932">
        <ele>713.23076923077</ele>
        <time>2015-10-03T10:20:44.265Z</time>
      </trkpt>
      <trkpt lat="45.26614" lon="4.19933">
        <ele>713.23076923077</ele>
        <time>2015-10-03T10:20:45.273Z</time>
      </trkpt>
      <trkpt lat="45.26613" lon="4.19934">
        <ele>713.38461538462</ele>
        <time>2015-10-03T10:20:46.265Z</time>
      </trkpt>
      <trkpt lat="45.26611" lon="4.19935">
        <ele>713.42307692308</ele>
        <time>2015-10-03T10:20:47.264Z</time>
      </trkpt>
      <trkpt lat="45.2661" lon="4.19936">
        <ele>713.61538461538</ele>
        <time>2015-10-03T10:20:48.254Z</time>
      </trkpt>
      <trkpt lat="45.26609" lon="4.19938">
        <ele>713.73076923077</ele>
        <time>2015-10-03T10:20:49.257Z</time>
      </trkpt>
      <trkpt lat="45.26605" lon="4.19943">
        <ele>714.15384615385</ele>
        <time>2015-10-03T10:20:52.254Z</time>
      </trkpt>
      <trkpt lat="45.26604" lon="4.19944">
        <ele>714.30769230769</ele>
        <time>2015-10-03T10:20:53.260Z</time>
      </trkpt>
      <trkpt lat="45.26603" lon="4.19946">
        <ele>714.5</ele>
        <time>2015-10-03T10:20:54.252Z</time>
      </trkpt>
      <trkpt lat="45.26602" lon="4.19946">
        <ele>714.69230769231</ele>
        <time>2015-10-03T10:20:55.237Z</time>
      </trkpt>
      <trkpt lat="45.266" lon="4.19947">
        <ele>714.96153846154</ele>
        <time>2015-10-03T10:20:56.236Z</time>
      </trkpt>
      <trkpt lat="45.26592" lon="4.19949">
        <ele>715.61538461538</ele>
        <time>2015-10-03T10:20:59.292Z</time>
      </trkpt>
      <trkpt lat="45.2659" lon="4.19949">
        <ele>715.88461538462</ele>
        <time>2015-10-03T10:21:00.272Z</time>
      </trkpt>
      <trkpt lat="45.26589" lon="4.19948">
        <ele>716.03846153846</ele>
        <time>2015-10-03T10:21:01.260Z</time>
      </trkpt>
      <trkpt lat="45.26588" lon="4.19947">
        <ele>716.19230769231</ele>
        <time>2015-10-03T10:21:02.259Z</time>
      </trkpt>
      <trkpt lat="45.26586" lon="4.19945">
        <ele>716.53846153846</ele>
        <time>2015-10-03T10:21:04.275Z</time>
      </trkpt>
      <trkpt lat="45.26586" lon="4.19944">
        <ele>716.69230769231</ele>
        <time>2015-10-03T10:21:05.258Z</time>
      </trkpt>
      <trkpt lat="45.26586" lon="4.19943">
        <ele>716.84615384615</ele>
        <time>2015-10-03T10:21:06.242Z</time>
      </trkpt>
      <trkpt lat="45.26585" lon="4.19942">
        <ele>716.96153846154</ele>
        <time>2015-10-03T10:21:07.253Z</time>
      </trkpt>
      <trkpt lat="45.26584" lon="4.19939">
        <ele>717.625</ele>
        <time>2015-10-03T10:21:10.287Z</time>
      </trkpt>
      <trkpt lat="45.26583" lon="4.19937">
        <ele>717.79166666667</ele>
        <time>2015-10-03T10:21:11.286Z</time>
      </trkpt>
      <trkpt lat="45.26582" lon="4.19936">
        <ele>718</ele>
        <time>2015-10-03T10:21:12.279Z</time>
      </trkpt>
      <trkpt lat="45.26581" lon="4.19935">
        <ele>718.16666666667</ele>
        <time>2015-10-03T10:21:13.284Z</time>
      </trkpt>
      <trkpt lat="45.26581" lon="4.19933">
        <ele>718.41666666667</ele>
        <time>2015-10-03T10:21:14.285Z</time>
      </trkpt>
      <trkpt lat="45.26581" lon="4.19931">
        <ele>718.625</ele>
        <time>2015-10-03T10:21:15.296Z</time>
      </trkpt>
      <trkpt lat="45.2658" lon="4.19929">
        <ele>718.75</ele>
        <time>2015-10-03T10:21:16.299Z</time>
      </trkpt>
      <trkpt lat="45.26577" lon="4.19921">
        <ele>719.41666666667</ele>
        <time>2015-10-03T10:21:20.285Z</time>
      </trkpt>
      <trkpt lat="45.26577" lon="4.1992">
        <ele>719.5</ele>
        <time>2015-10-03T10:21:21.290Z</time>
      </trkpt>
      <trkpt lat="45.26576" lon="4.19918">
        <ele>719.58333333333</ele>
        <time>2015-10-03T10:21:22.273Z</time>
      </trkpt>
      <trkpt lat="45.26574" lon="4.19914">
        <ele>719.76</ele>
        <time>2015-10-03T10:21:24.281Z</time>
      </trkpt>
      <trkpt lat="45.26573" lon="4.19911">
        <ele>720</ele>
        <time>2015-10-03T10:21:26.304Z</time>
      </trkpt>
      <trkpt lat="45.26571" lon="4.19907">
        <ele>720.20833333333</ele>
        <time>2015-10-03T10:21:28.314Z</time>
      </trkpt>
      <trkpt lat="45.26568" lon="4.19904">
        <ele>720.45833333333</ele>
        <time>2015-10-03T10:21:30.295Z</time>
      </trkpt>
      <trkpt lat="45.26564" lon="4.19897">
        <ele>720.72</ele>
        <time>2015-10-03T10:21:34.230Z</time>
      </trkpt>
      <trkpt lat="45.2656" lon="4.19891">
        <ele>720.96</ele>
        <time>2015-10-03T10:21:37.296Z</time>
      </trkpt>
      <trkpt lat="45.26559" lon="4.19889">
        <ele>721.04</ele>
        <time>2015-10-03T10:21:38.306Z</time>
      </trkpt>
      <trkpt lat="45.26557" lon="4.19888">
        <ele>721.12</ele>
        <time>2015-10-03T10:21:39.344Z</time>
      </trkpt>
      <trkpt lat="45.26556" lon="4.19886">
        <ele>721.16</ele>
        <time>2015-10-03T10:21:40.359Z</time>
      </trkpt>
      <trkpt lat="45.26552" lon="4.19881">
        <ele>721.5</ele>
        <time>2015-10-03T10:21:43.268Z</time>
      </trkpt>
      <trkpt lat="45.26548" lon="4.19877">
        <ele>721.65384615385</ele>
        <time>2015-10-03T10:21:46.277Z</time>
      </trkpt>
      <trkpt lat="45.26546" lon="4.19877">
        <ele>721.73076923077</ele>
        <time>2015-10-03T10:21:47.267Z</time>
      </trkpt>
      <trkpt lat="45.26541" lon="4.19876">
        <ele>721.96153846154</ele>
        <time>2015-10-03T10:21:50.276Z</time>
      </trkpt>
      <trkpt lat="45.26535" lon="4.19874">
        <ele>722.24</ele>
        <time>2015-10-03T10:21:53.315Z</time>
      </trkpt>
      <trkpt lat="45.26533" lon="4.19874">
        <ele>722.28</ele>
        <time>2015-10-03T10:21:54.327Z</time>
      </trkpt>
      <trkpt lat="45.26531" lon="4.19874">
        <ele>722.26923076923</ele>
        <time>2015-10-03T10:21:55.287Z</time>
      </trkpt>
      <trkpt lat="45.26525" lon="4.19875">
        <ele>722.72</ele>
        <time>2015-10-03T10:21:58.296Z</time>
      </trkpt>
      <trkpt lat="45.2652" lon="4.19875">
        <ele>722.88</ele>
        <time>2015-10-03T10:22:01.338Z</time>
      </trkpt>
      <trkpt lat="45.26518" lon="4.19876">
        <ele>722.92</ele>
        <time>2015-10-03T10:22:02.319Z</time>
      </trkpt>
      <trkpt lat="45.26511" lon="4.19881">
        <ele>723.32</ele>
        <time>2015-10-03T10:22:06.340Z</time>
      </trkpt>
      <trkpt lat="45.2651" lon="4.19882">
        <ele>723.44</ele>
        <time>2015-10-03T10:22:07.316Z</time>
      </trkpt>
      <trkpt lat="45.26506" lon="4.19884">
        <ele>723.6</ele>
        <time>2015-10-03T10:22:09.317Z</time>
      </trkpt>
      <trkpt lat="45.26504" lon="4.19885">
        <ele>723.72</ele>
        <time>2015-10-03T10:22:10.320Z</time>
      </trkpt>
      <trkpt lat="45.26499" lon="4.19888">
        <ele>724.04</ele>
        <time>2015-10-03T10:22:13.324Z</time>
      </trkpt>
      <trkpt lat="45.26492" lon="4.1989">
        <ele>724.4</ele>
        <time>2015-10-03T10:22:17.322Z</time>
      </trkpt>
      <trkpt lat="45.2649" lon="4.1989">
        <ele>724.56</ele>
        <time>2015-10-03T10:22:18.335Z</time>
      </trkpt>
      <trkpt lat="45.26484" lon="4.1989">
        <ele>725.04</ele>
        <time>2015-10-03T10:22:21.315Z</time>
      </trkpt>
      <trkpt lat="45.26482" lon="4.19892">
        <ele>725.16</ele>
        <time>2015-10-03T10:22:22.308Z</time>
      </trkpt>
      <trkpt lat="45.26478" lon="4.19894">
        <ele>725.44</ele>
        <time>2015-10-03T10:22:24.308Z</time>
      </trkpt>
      <trkpt lat="45.26475" lon="4.19897">
        <ele>725.53846153846</ele>
        <time>2015-10-03T10:22:26.319Z</time>
      </trkpt>
      <trkpt lat="45.26473" lon="4.19898">
        <ele>725.64</ele>
        <time>2015-10-03T10:22:27.332Z</time>
      </trkpt>
      <trkpt lat="45.26471" lon="4.19899">
        <ele>725.76</ele>
        <time>2015-10-03T10:22:28.344Z</time>
      </trkpt>
      <trkpt lat="45.26464" lon="4.19902">
        <ele>726.11538461538</ele>
        <time>2015-10-03T10:22:32.292Z</time>
      </trkpt>
      <trkpt lat="45.2646" lon="4.19905">
        <ele>726.61538461538</ele>
        <time>2015-10-03T10:22:35.297Z</time>
      </trkpt>
      <trkpt lat="45.26454" lon="4.19909">
        <ele>727.19230769231</ele>
        <time>2015-10-03T10:22:39.280Z</time>
      </trkpt>
      <trkpt lat="45.26451" lon="4.19911">
        <ele>727.5</ele>
        <time>2015-10-03T10:22:41.313Z</time>
      </trkpt>
      <trkpt lat="45.26445" lon="4.19914">
        <ele>728.03846153846</ele>
        <time>2015-10-03T10:22:44.327Z</time>
      </trkpt>
      <trkpt lat="45.26438" lon="4.19919">
        <ele>728.84</ele>
        <time>2015-10-03T10:22:48.294Z</time>
      </trkpt>
      <trkpt lat="45.26434" lon="4.19922">
        <ele>729.46153846154</ele>
        <time>2015-10-03T10:22:51.259Z</time>
      </trkpt>
      <trkpt lat="45.26433" lon="4.19923">
        <ele>729.69230769231</ele>
        <time>2015-10-03T10:22:52.234Z</time>
      </trkpt>
      <trkpt lat="45.26429" lon="4.19926">
        <ele>730.26923076923</ele>
        <time>2015-10-03T10:22:55.220Z</time>
      </trkpt>
      <trkpt lat="45.26427" lon="4.19926">
        <ele>730.5</ele>
        <time>2015-10-03T10:22:56.217Z</time>
      </trkpt>
      <trkpt lat="45.26426" lon="4.19927">
        <ele>730.73076923077</ele>
        <time>2015-10-03T10:22:57.229Z</time>
      </trkpt>
      <trkpt lat="45.26425" lon="4.19927">
        <ele>730.88461538462</ele>
        <time>2015-10-03T10:22:58.228Z</time>
      </trkpt>
      <trkpt lat="45.26424" lon="4.19927">
        <ele>731</ele>
        <time>2015-10-03T10:22:59.225Z</time>
      </trkpt>
      <trkpt lat="45.26419" lon="4.19929">
        <ele>731.34615384615</ele>
        <time>2015-10-03T10:23:02.224Z</time>
      </trkpt>
      <trkpt lat="45.26417" lon="4.1993">
        <ele>731.46153846154</ele>
        <time>2015-10-03T10:23:03.224Z</time>
      </trkpt>
      <trkpt lat="45.26412" lon="4.1993">
        <ele>731.61538461538</ele>
        <time>2015-10-03T10:23:05.229Z</time>
      </trkpt>
      <trkpt lat="45.26407" lon="4.19931">
        <ele>731.80769230769</ele>
        <time>2015-10-03T10:23:07.236Z</time>
      </trkpt>
      <trkpt lat="45.26405" lon="4.19931">
        <ele>731.88461538462</ele>
        <time>2015-10-03T10:23:08.232Z</time>
      </trkpt>
      <trkpt lat="45.26402" lon="4.19931">
        <ele>731.96</ele>
        <time>2015-10-03T10:23:10.259Z</time>
      </trkpt>
      <trkpt lat="45.26397" lon="4.19932">
        <ele>731.92</ele>
        <time>2015-10-03T10:23:12.227Z</time>
      </trkpt>
      <trkpt lat="45.26395" lon="4.19932">
        <ele>731.92</ele>
        <time>2015-10-03T10:23:13.225Z</time>
      </trkpt>
      <trkpt lat="45.26392" lon="4.19933">
        <ele>731.8</ele>
        <time>2015-10-03T10:23:15.228Z</time>
      </trkpt>
      <trkpt lat="45.26389" lon="4.19933">
        <ele>731.75</ele>
        <time>2015-10-03T10:23:17.288Z</time>
      </trkpt>
      <trkpt lat="45.26388" lon="4.19932">
        <ele>731.79166666667</ele>
        <time>2015-10-03T10:23:18.307Z</time>
      </trkpt>
      <trkpt lat="45.26387" lon="4.19932">
        <ele>731.70833333333</ele>
        <time>2015-10-03T10:23:19.290Z</time>
      </trkpt>
      <trkpt lat="45.26383" lon="4.1993">
        <ele>731.625</ele>
        <time>2015-10-03T10:23:22.325Z</time>
      </trkpt>
      <trkpt lat="45.26381" lon="4.19928">
        <ele>731.625</ele>
        <time>2015-10-03T10:23:24.330Z</time>
      </trkpt>
      <trkpt lat="45.26375" lon="4.19925">
        <ele>731.70833333333</ele>
        <time>2015-10-03T10:23:28.299Z</time>
      </trkpt>
      <trkpt lat="45.26372" lon="4.19923">
        <ele>731.83333333333</ele>
        <time>2015-10-03T10:23:30.319Z</time>
      </trkpt>
      <trkpt lat="45.26367" lon="4.1992">
        <ele>731.95833333333</ele>
        <time>2015-10-03T10:23:33.326Z</time>
      </trkpt>
      <trkpt lat="45.26363" lon="4.19915">
        <ele>732.16</ele>
        <time>2015-10-03T10:23:36.318Z</time>
      </trkpt>
      <trkpt lat="45.2636" lon="4.19911">
        <ele>732.4</ele>
        <time>2015-10-03T10:23:38.310Z</time>
      </trkpt>
      <trkpt lat="45.26353" lon="4.19902">
        <ele>732.68</ele>
        <time>2015-10-03T10:23:42.305Z</time>
      </trkpt>
      <trkpt lat="45.26348" lon="4.19892">
        <ele>733.04</ele>
        <time>2015-10-03T10:23:46.303Z</time>
      </trkpt>
      <trkpt lat="45.26346" lon="4.19886">
        <ele>733.19230769231</ele>
        <time>2015-10-03T10:23:48.311Z</time>
      </trkpt>
      <trkpt lat="45.26345" lon="4.19883">
        <ele>733.23076923077</ele>
        <time>2015-10-03T10:23:49.312Z</time>
      </trkpt>
      <trkpt lat="45.26344" lon="4.1988">
        <ele>733.30769230769</ele>
        <time>2015-10-03T10:23:50.309Z</time>
      </trkpt>
      <trkpt lat="45.26341" lon="4.19869">
        <ele>733.69230769231</ele>
        <time>2015-10-03T10:23:54.301Z</time>
      </trkpt>
      <trkpt lat="45.26338" lon="4.19857">
        <ele>734.15384615385</ele>
        <time>2015-10-03T10:23:58.303Z</time>
      </trkpt>
      <trkpt lat="45.26336" lon="4.19848">
        <ele>734.36</ele>
        <time>2015-10-03T10:24:01.319Z</time>
      </trkpt>
      <trkpt lat="45.26334" lon="4.19838">
        <ele>734.64</ele>
        <time>2015-10-03T10:24:04.324Z</time>
      </trkpt>
      <trkpt lat="45.26332" lon="4.19832">
        <ele>734.69230769231</ele>
        <time>2015-10-03T10:24:06.296Z</time>
      </trkpt>
      <trkpt lat="45.26331" lon="4.19829">
        <ele>734.84615384615</ele>
        <time>2015-10-03T10:24:07.296Z</time>
      </trkpt>
      <trkpt lat="45.2633" lon="4.19819">
        <ele>735.16</ele>
        <time>2015-10-03T10:24:10.305Z</time>
      </trkpt>
      <trkpt lat="45.26328" lon="4.1981">
        <ele>735.52</ele>
        <time>2015-10-03T10:24:13.324Z</time>
      </trkpt>
      <trkpt lat="45.26325" lon="4.19798">
        <ele>736.16</ele>
        <time>2015-10-03T10:24:17.324Z</time>
      </trkpt>
      <trkpt lat="45.26322" lon="4.19785">
        <ele>736.72</ele>
        <time>2015-10-03T10:24:21.303Z</time>
      </trkpt>
      <trkpt lat="45.26319" lon="4.19774">
        <ele>737.04</ele>
        <time>2015-10-03T10:24:24.333Z</time>
      </trkpt>
      <trkpt lat="45.26317" lon="4.19762">
        <ele>737.44</ele>
        <time>2015-10-03T10:24:27.338Z</time>
      </trkpt>
      <trkpt lat="45.26313" lon="4.19752">
        <ele>737.72</ele>
        <time>2015-10-03T10:24:30.318Z</time>
      </trkpt>
      <trkpt lat="45.26311" lon="4.19748">
        <ele>737.80769230769</ele>
        <time>2015-10-03T10:24:31.296Z</time>
      </trkpt>
      <trkpt lat="45.26308" lon="4.19742">
        <ele>738</ele>
        <time>2015-10-03T10:24:33.294Z</time>
      </trkpt>
      <trkpt lat="45.26307" lon="4.19739">
        <ele>738.15384615385</ele>
        <time>2015-10-03T10:24:34.295Z</time>
      </trkpt>
      <trkpt lat="45.26302" lon="4.19729">
        <ele>738.46153846154</ele>
        <time>2015-10-03T10:24:37.309Z</time>
      </trkpt>
      <trkpt lat="45.26299" lon="4.19722">
        <ele>738.61538461538</ele>
        <time>2015-10-03T10:24:39.302Z</time>
      </trkpt>
      <trkpt lat="45.26294" lon="4.19712">
        <ele>738.84615384615</ele>
        <time>2015-10-03T10:24:42.316Z</time>
      </trkpt>
      <trkpt lat="45.26291" lon="4.19706">
        <ele>738.96</ele>
        <time>2015-10-03T10:24:44.307Z</time>
      </trkpt>
      <trkpt lat="45.26284" lon="4.19693">
        <ele>739.28</ele>
        <time>2015-10-03T10:24:48.317Z</time>
      </trkpt>
      <trkpt lat="45.26283" lon="4.19691">
        <ele>739.34615384615</ele>
        <time>2015-10-03T10:24:49.304Z</time>
      </trkpt>
      <trkpt lat="45.26284" lon="4.19689">
        <ele>739.46153846154</ele>
        <time>2015-10-03T10:24:50.261Z</time>
      </trkpt>
      <trkpt lat="45.26283" lon="4.19686">
        <ele>739.57692307692</ele>
        <time>2015-10-03T10:24:51.253Z</time>
      </trkpt>
      <trkpt lat="45.26281" lon="4.19684">
        <ele>739.61538461538</ele>
        <time>2015-10-03T10:24:52.280Z</time>
      </trkpt>
      <trkpt lat="45.26275" lon="4.19676">
        <ele>740</ele>
        <time>2015-10-03T10:24:55.276Z</time>
      </trkpt>
      <trkpt lat="45.26274" lon="4.19673">
        <ele>740.19230769231</ele>
        <time>2015-10-03T10:24:56.296Z</time>
      </trkpt>
      <trkpt lat="45.26269" lon="4.19666">
        <ele>740.56</ele>
        <time>2015-10-03T10:24:59.316Z</time>
      </trkpt>
      <trkpt lat="45.26268" lon="4.19663">
        <ele>740.64</ele>
        <time>2015-10-03T10:25:00.300Z</time>
      </trkpt>
      <trkpt lat="45.26266" lon="4.19661">
        <ele>740.76</ele>
        <time>2015-10-03T10:25:01.331Z</time>
      </trkpt>
      <trkpt lat="45.26264" lon="4.1966">
        <ele>740.88</ele>
        <time>2015-10-03T10:25:02.325Z</time>
      </trkpt>
      <trkpt lat="45.2626" lon="4.19658">
        <ele>741.19230769231</ele>
        <time>2015-10-03T10:25:04.282Z</time>
      </trkpt>
      <trkpt lat="45.26258" lon="4.19657">
        <ele>741.30769230769</ele>
        <time>2015-10-03T10:25:05.306Z</time>
      </trkpt>
      <trkpt lat="45.26254" lon="4.19653">
        <ele>741.64</ele>
        <time>2015-10-03T10:25:07.337Z</time>
      </trkpt>
      <trkpt lat="45.26254" lon="4.19652">
        <ele>741.76</ele>
        <time>2015-10-03T10:25:08.340Z</time>
      </trkpt>
      <trkpt lat="45.26253" lon="4.19652">
        <ele>741.92</ele>
        <time>2015-10-03T10:25:10.254Z</time>
      </trkpt>
      <trkpt lat="45.26252" lon="4.19652">
        <ele>742.24</ele>
        <time>2015-10-03T10:25:12.225Z</time>
      </trkpt>
      <trkpt lat="45.26252" lon="4.19651">
        <ele>742.36</ele>
        <time>2015-10-03T10:25:13.249Z</time>
      </trkpt>
      <trkpt lat="45.26251" lon="4.19649">
        <ele>742.44</ele>
        <time>2015-10-03T10:25:14.285Z</time>
      </trkpt>
      <trkpt lat="45.26249" lon="4.19649">
        <ele>742.58333333333</ele>
        <time>2015-10-03T10:25:15.326Z</time>
      </trkpt>
      <trkpt lat="45.26249" lon="4.19653">
        <ele>742.625</ele>
        <time>2015-10-03T10:25:16.288Z</time>
      </trkpt>
      <trkpt lat="45.26249" lon="4.19655">
        <ele>742.64</ele>
        <time>2015-10-03T10:25:17.224Z</time>
      </trkpt>
      <trkpt lat="45.26249" lon="4.19658">
        <ele>742.92</ele>
        <time>2015-10-03T10:25:20.234Z</time>
      </trkpt>
      <trkpt lat="45.26249" lon="4.19659">
        <ele>743</ele>
        <time>2015-10-03T10:25:21.239Z</time>
      </trkpt>
      <trkpt lat="45.26249" lon="4.1966">
        <ele>743.04</ele>
        <time>2015-10-03T10:25:22.234Z</time>
      </trkpt>
      <trkpt lat="45.26249" lon="4.1966">
        <ele>743.12</ele>
        <time>2015-10-03T10:25:23.229Z</time>
      </trkpt>
      <trkpt lat="45.26249" lon="4.19661">
        <ele>743.36</ele>
        <time>2015-10-03T10:25:27.223Z</time>
      </trkpt>
      <trkpt lat="45.26249" lon="4.19662">
        <ele>743.36</ele>
        <time>2015-10-03T10:25:30.224Z</time>
      </trkpt>
      <trkpt lat="45.26249" lon="4.19664">
        <ele>743.32</ele>
        <time>2015-10-03T10:25:33.248Z</time>
      </trkpt>
      <trkpt lat="45.26249" lon="4.19664">
        <ele>743.32</ele>
        <time>2015-10-03T10:25:34.242Z</time>
      </trkpt>
      <trkpt lat="45.26249" lon="4.19665">
        <ele>743.34615384615</ele>
        <time>2015-10-03T10:25:35.243Z</time>
      </trkpt>
      <trkpt lat="45.26249" lon="4.19666">
        <ele>743.26923076923</ele>
        <time>2015-10-03T10:25:39.228Z</time>
      </trkpt>
      <trkpt lat="45.26249" lon="4.19666">
        <ele>743.30769230769</ele>
        <time>2015-10-03T10:25:43.227Z</time>
      </trkpt>
      <trkpt lat="45.26249" lon="4.19666">
        <ele>743.23076923077</ele>
        <time>2015-10-03T10:25:47.234Z</time>
      </trkpt>
      <trkpt lat="45.2625" lon="4.19666">
        <ele>743.16</ele>
        <time>2015-10-03T10:25:50.290Z</time>
      </trkpt>
      <trkpt lat="45.2625" lon="4.19666">
        <ele>743</ele>
        <time>2015-10-03T10:25:54.215Z</time>
      </trkpt>
      <trkpt lat="45.2625" lon="4.19666">
        <ele>742.88461538462</ele>
        <time>2015-10-03T10:25:57.223Z</time>
      </trkpt>
      <trkpt lat="45.2625" lon="4.19666">
        <ele>742.84615384615</ele>
        <time>2015-10-03T10:26:01.221Z</time>
      </trkpt>
      <trkpt lat="45.2625" lon="4.19666">
        <ele>742.84</ele>
        <time>2015-10-03T10:26:04.230Z</time>
      </trkpt>
      <trkpt lat="45.2625" lon="4.19666">
        <ele>743.03846153846</ele>
        <time>2015-10-03T10:26:08.221Z</time>
      </trkpt>
      <trkpt lat="45.2625" lon="4.19666">
        <ele>743.16</ele>
        <time>2015-10-03T10:26:11.240Z</time>
      </trkpt>
      <trkpt lat="45.2625" lon="4.19666">
        <ele>743.23076923077</ele>
        <time>2015-10-03T10:26:15.222Z</time>
      </trkpt>
      <trkpt lat="45.26251" lon="4.19665">
        <ele>743.4</ele>
        <time>2015-10-03T10:26:18.249Z</time>
      </trkpt>
      <trkpt lat="45.26249" lon="4.19665">
        <ele>743.48</ele>
        <time>2015-10-03T10:26:19.252Z</time>
      </trkpt>
      <trkpt lat="45.26248" lon="4.19663">
        <ele>743.52</ele>
        <time>2015-10-03T10:26:20.288Z</time>
      </trkpt>
      <trkpt lat="45.26247" lon="4.19661">
        <ele>743.56</ele>
        <time>2015-10-03T10:26:21.312Z</time>
      </trkpt>
      <trkpt lat="45.26247" lon="4.19661">
        <ele>743.56</ele>
        <time>2015-10-03T10:26:22.299Z</time>
      </trkpt>
      <trkpt lat="45.26249" lon="4.19662">
        <ele>743.6</ele>
        <time>2015-10-03T10:26:24.254Z</time>
      </trkpt>
      <trkpt lat="45.2625" lon="4.19662">
        <ele>743.68</ele>
        <time>2015-10-03T10:26:25.300Z</time>
      </trkpt>
      <trkpt lat="45.26252" lon="4.19662">
        <ele>743.68</ele>
        <time>2015-10-03T10:26:26.273Z</time>
      </trkpt>
      <trkpt lat="45.26253" lon="4.19662">
        <ele>743.68</ele>
        <time>2015-10-03T10:26:27.252Z</time>
      </trkpt>
      <trkpt lat="45.26256" lon="4.19661">
        <ele>743.64</ele>
        <time>2015-10-03T10:26:28.307Z</time>
      </trkpt>
      <trkpt lat="45.26258" lon="4.1966">
        <ele>743.68</ele>
        <time>2015-10-03T10:26:29.328Z</time>
      </trkpt>
      <trkpt lat="45.2626" lon="4.19658">
        <ele>743.6</ele>
        <time>2015-10-03T10:26:30.319Z</time>
      </trkpt>
      <trkpt lat="45.26262" lon="4.19656">
        <ele>743.6</ele>
        <time>2015-10-03T10:26:31.306Z</time>
      </trkpt>
      <trkpt lat="45.26263" lon="4.19655">
        <ele>743.56</ele>
        <time>2015-10-03T10:26:32.302Z</time>
      </trkpt>
      <trkpt lat="45.26265" lon="4.19653">
        <ele>743.56</ele>
        <time>2015-10-03T10:26:33.323Z</time>
      </trkpt>
      <trkpt lat="45.26267" lon="4.19651">
        <ele>743.56</ele>
        <time>2015-10-03T10:26:34.346Z</time>
      </trkpt>
      <trkpt lat="45.26269" lon="4.1965">
        <ele>743.56</ele>
        <time>2015-10-03T10:26:35.348Z</time>
      </trkpt>
      <trkpt lat="45.26272" lon="4.19647">
        <ele>743.52</ele>
        <time>2015-10-03T10:26:37.296Z</time>
      </trkpt>
      <trkpt lat="45.26272" lon="4.19646">
        <ele>743.52</ele>
        <time>2015-10-03T10:26:38.276Z</time>
      </trkpt>
      <trkpt lat="45.26274" lon="4.19646">
        <ele>743.52</ele>
        <time>2015-10-03T10:26:39.244Z</time>
      </trkpt>
      <trkpt lat="45.26275" lon="4.19646">
        <ele>743.52</ele>
        <time>2015-10-03T10:26:40.254Z</time>
      </trkpt>
      <trkpt lat="45.26277" lon="4.19645">
        <ele>743.56</ele>
        <time>2015-10-03T10:26:41.287Z</time>
      </trkpt>
      <trkpt lat="45.26278" lon="4.19644">
        <ele>743.6</ele>
        <time>2015-10-03T10:26:42.267Z</time>
      </trkpt>
      <trkpt lat="45.26279" lon="4.19642">
        <ele>743.57692307692</ele>
        <time>2015-10-03T10:26:43.241Z</time>
      </trkpt>
      <trkpt lat="45.2628" lon="4.1964">
        <ele>743.57692307692</ele>
        <time>2015-10-03T10:26:44.233Z</time>
      </trkpt>
      <trkpt lat="45.26281" lon="4.19639">
        <ele>743.53846153846</ele>
        <time>2015-10-03T10:26:45.234Z</time>
      </trkpt>
      <trkpt lat="45.26282" lon="4.19638">
        <ele>743.57692307692</ele>
        <time>2015-10-03T10:26:46.232Z</time>
      </trkpt>
      <trkpt lat="45.26284" lon="4.19635">
        <ele>743.61538461538</ele>
        <time>2015-10-03T10:26:48.223Z</time>
      </trkpt>
      <trkpt lat="45.26285" lon="4.19634">
        <ele>743.61538461538</ele>
        <time>2015-10-03T10:26:49.229Z</time>
      </trkpt>
      <trkpt lat="45.26287" lon="4.19632">
        <ele>743.57692307692</ele>
        <time>2015-10-03T10:26:50.232Z</time>
      </trkpt>
      <trkpt lat="45.26289" lon="4.1963">
        <ele>743.53846153846</ele>
        <time>2015-10-03T10:26:51.247Z</time>
      </trkpt>
      <trkpt lat="45.26292" lon="4.19627">
        <ele>743.56</ele>
        <time>2015-10-03T10:26:52.258Z</time>
      </trkpt>
      <trkpt lat="45.26294" lon="4.19624">
        <ele>743.53846153846</ele>
        <time>2015-10-03T10:26:53.247Z</time>
      </trkpt>
      <trkpt lat="45.26297" lon="4.19621">
        <ele>743.53846153846</ele>
        <time>2015-10-03T10:26:54.259Z</time>
      </trkpt>
      <trkpt lat="45.26298" lon="4.19619">
        <ele>743.5</ele>
        <time>2015-10-03T10:26:55.257Z</time>
      </trkpt>
      <trkpt lat="45.26299" lon="4.19617">
        <ele>743.46153846154</ele>
        <time>2015-10-03T10:26:56.240Z</time>
      </trkpt>
      <trkpt lat="45.26301" lon="4.19615">
        <ele>743.42307692308</ele>
        <time>2015-10-03T10:26:57.231Z</time>
      </trkpt>
      <trkpt lat="45.26303" lon="4.19611">
        <ele>743.38461538462</ele>
        <time>2015-10-03T10:26:58.238Z</time>
      </trkpt>
      <trkpt lat="45.26306" lon="4.19608">
        <ele>743.19230769231</ele>
        <time>2015-10-03T10:26:59.234Z</time>
      </trkpt>
      <trkpt lat="45.26309" lon="4.19605">
        <ele>743.15384615385</ele>
        <time>2015-10-03T10:27:00.263Z</time>
      </trkpt>
      <trkpt lat="45.26311" lon="4.19603">
        <ele>743.11538461538</ele>
        <time>2015-10-03T10:27:01.308Z</time>
      </trkpt>
      <trkpt lat="45.26317" lon="4.19597">
        <ele>743.04</ele>
        <time>2015-10-03T10:27:03.292Z</time>
      </trkpt>
      <trkpt lat="45.26319" lon="4.19594">
        <ele>743</ele>
        <time>2015-10-03T10:27:04.270Z</time>
      </trkpt>
      <trkpt lat="45.26322" lon="4.1959">
        <ele>742.96153846154</ele>
        <time>2015-10-03T10:27:05.236Z</time>
      </trkpt>
      <trkpt lat="45.26323" lon="4.19587">
        <ele>742.96153846154</ele>
        <time>2015-10-03T10:27:06.239Z</time>
      </trkpt>
      <trkpt lat="45.26324" lon="4.19584">
        <ele>742.88461538462</ele>
        <time>2015-10-03T10:27:07.238Z</time>
      </trkpt>
      <trkpt lat="45.26326" lon="4.19579">
        <ele>742.73076923077</ele>
        <time>2015-10-03T10:27:08.238Z</time>
      </trkpt>
      <trkpt lat="45.26331" lon="4.19568">
        <ele>742.66666666667</ele>
        <time>2015-10-03T10:27:10.236Z</time>
      </trkpt>
      <trkpt lat="45.26337" lon="4.19558">
        <ele>742.52</ele>
        <time>2015-10-03T10:27:12.212Z</time>
      </trkpt>
      <trkpt lat="45.26339" lon="4.19552">
        <ele>742.44</ele>
        <time>2015-10-03T10:27:13.220Z</time>
      </trkpt>
      <trkpt lat="45.26341" lon="4.19546">
        <ele>742.25</ele>
        <time>2015-10-03T10:27:14.243Z</time>
      </trkpt>
      <trkpt lat="45.26347" lon="4.19512">
        <ele>741.83333333333</ele>
        <time>2015-10-03T10:27:18.231Z</time>
      </trkpt>
      <trkpt lat="45.26349" lon="4.19508">
        <ele>741.66666666667</ele>
        <time>2015-10-03T10:27:19.235Z</time>
      </trkpt>
      <trkpt lat="45.2635" lon="4.19504">
        <ele>741.5</ele>
        <time>2015-10-03T10:27:20.229Z</time>
      </trkpt>
      <trkpt lat="45.26353" lon="4.19496">
        <ele>741.16666666667</ele>
        <time>2015-10-03T10:27:22.229Z</time>
      </trkpt>
      <trkpt lat="45.26353" lon="4.19495">
        <ele>740.91666666667</ele>
        <time>2015-10-03T10:27:23.226Z</time>
      </trkpt>
      <trkpt lat="45.26354" lon="4.19493">
        <ele>740.66666666667</ele>
        <time>2015-10-03T10:27:24.217Z</time>
      </trkpt>
      <trkpt lat="45.26355" lon="4.19489">
        <ele>740.54166666667</ele>
        <time>2015-10-03T10:27:25.238Z</time>
      </trkpt>
      <trkpt lat="45.26355" lon="4.19486">
        <ele>740.29166666667</ele>
        <time>2015-10-03T10:27:26.290Z</time>
      </trkpt>
      <trkpt lat="45.26355" lon="4.19485">
        <ele>740.04166666667</ele>
        <time>2015-10-03T10:27:27.290Z</time>
      </trkpt>
      <trkpt lat="45.26356" lon="4.19482">
        <ele>739.79166666667</ele>
        <time>2015-10-03T10:27:28.248Z</time>
      </trkpt>
      <trkpt lat="45.26357" lon="4.19479">
        <ele>739.54166666667</ele>
        <time>2015-10-03T10:27:29.245Z</time>
      </trkpt>
      <trkpt lat="45.26358" lon="4.19476">
        <ele>739.17391304348</ele>
        <time>2015-10-03T10:27:30.255Z</time>
      </trkpt>
      <trkpt lat="45.26362" lon="4.19464">
        <ele>738.33333333333</ele>
        <time>2015-10-03T10:27:33.229Z</time>
      </trkpt>
      <trkpt lat="45.26367" lon="4.19449">
        <ele>737.44</ele>
        <time>2015-10-03T10:27:36.228Z</time>
      </trkpt>
      <trkpt lat="45.26369" lon="4.19446">
        <ele>736.875</ele>
        <time>2015-10-03T10:27:37.234Z</time>
      </trkpt>
      <trkpt lat="45.2637" lon="4.19442">
        <ele>736.5</ele>
        <time>2015-10-03T10:27:38.230Z</time>
      </trkpt>
      <trkpt lat="45.26372" lon="4.19438">
        <ele>736.32</ele>
        <time>2015-10-03T10:27:39.223Z</time>
      </trkpt>
      <trkpt lat="45.26374" lon="4.19435">
        <ele>735.96</ele>
        <time>2015-10-03T10:27:40.220Z</time>
      </trkpt>
      <trkpt lat="45.26376" lon="4.19432">
        <ele>735.6</ele>
        <time>2015-10-03T10:27:41.228Z</time>
      </trkpt>
      <trkpt lat="45.26377" lon="4.19429">
        <ele>735.24</ele>
        <time>2015-10-03T10:27:42.216Z</time>
      </trkpt>
      <trkpt lat="45.2638" lon="4.19425">
        <ele>735.07692307692</ele>
        <time>2015-10-03T10:27:43.231Z</time>
      </trkpt>
      <trkpt lat="45.26385" lon="4.19417">
        <ele>734.38461538462</ele>
        <time>2015-10-03T10:27:45.222Z</time>
      </trkpt>
      <trkpt lat="45.2639" lon="4.19411">
        <ele>733.73076923077</ele>
        <time>2015-10-03T10:27:47.229Z</time>
      </trkpt>
      <trkpt lat="45.26393" lon="4.19409">
        <ele>733.38461538462</ele>
        <time>2015-10-03T10:27:48.221Z</time>
      </trkpt>
      <trkpt lat="45.26395" lon="4.19409">
        <ele>732.92</ele>
        <time>2015-10-03T10:27:49.231Z</time>
      </trkpt>
      <trkpt lat="45.26399" lon="4.19408">
        <ele>732.76923076923</ele>
        <time>2015-10-03T10:27:50.235Z</time>
      </trkpt>
      <trkpt lat="45.26406" lon="4.19406">
        <ele>732.11538461538</ele>
        <time>2015-10-03T10:27:52.224Z</time>
      </trkpt>
      <trkpt lat="45.26408" lon="4.19404">
        <ele>731.80769230769</ele>
        <time>2015-10-03T10:27:53.219Z</time>
      </trkpt>
      <trkpt lat="45.26411" lon="4.19403">
        <ele>731.46153846154</ele>
        <time>2015-10-03T10:27:54.225Z</time>
      </trkpt>
      <trkpt lat="45.26414" lon="4.19401">
        <ele>731.07692307692</ele>
        <time>2015-10-03T10:27:55.231Z</time>
      </trkpt>
      <trkpt lat="45.26416" lon="4.19398">
        <ele>730.73076923077</ele>
        <time>2015-10-03T10:27:56.228Z</time>
      </trkpt>
      <trkpt lat="45.26419" lon="4.19394">
        <ele>730.24</ele>
        <time>2015-10-03T10:27:57.241Z</time>
      </trkpt>
      <trkpt lat="45.26421" lon="4.19391">
        <ele>729.96</ele>
        <time>2015-10-03T10:27:58.241Z</time>
      </trkpt>
      <trkpt lat="45.26422" lon="4.19388">
        <ele>729.72</ele>
        <time>2015-10-03T10:27:59.253Z</time>
      </trkpt>
      <trkpt lat="45.26425" lon="4.19384">
        <ele>729.48</ele>
        <time>2015-10-03T10:28:00.278Z</time>
      </trkpt>
      <trkpt lat="45.26428" lon="4.19382">
        <ele>729.2</ele>
        <time>2015-10-03T10:28:01.303Z</time>
      </trkpt>
      <trkpt lat="45.2643" lon="4.19378">
        <ele>728.92</ele>
        <time>2015-10-03T10:28:02.288Z</time>
      </trkpt>
      <trkpt lat="45.26432" lon="4.19374">
        <ele>728.64</ele>
        <time>2015-10-03T10:28:03.295Z</time>
      </trkpt>
      <trkpt lat="45.26433" lon="4.1937">
        <ele>728.36</ele>
        <time>2015-10-03T10:28:04.316Z</time>
      </trkpt>
      <trkpt lat="45.26435" lon="4.19366">
        <ele>728.16</ele>
        <time>2015-10-03T10:28:05.296Z</time>
      </trkpt>
      <trkpt lat="45.26436" lon="4.19362">
        <ele>727.92</ele>
        <time>2015-10-03T10:28:06.299Z</time>
      </trkpt>
      <trkpt lat="45.26437" lon="4.19357">
        <ele>727.64</ele>
        <time>2015-10-03T10:28:07.307Z</time>
      </trkpt>
      <trkpt lat="45.26437" lon="4.19353">
        <ele>727.36</ele>
        <time>2015-10-03T10:28:08.329Z</time>
      </trkpt>
      <trkpt lat="45.26438" lon="4.19351">
        <ele>727.04</ele>
        <time>2015-10-03T10:28:09.325Z</time>
      </trkpt>
      <trkpt lat="45.26439" lon="4.1935">
        <ele>726.8</ele>
        <time>2015-10-03T10:28:10.327Z</time>
      </trkpt>
      <trkpt lat="45.2644" lon="4.19346">
        <ele>726.52</ele>
        <time>2015-10-03T10:28:11.318Z</time>
      </trkpt>
      <trkpt lat="45.26441" lon="4.19343">
        <ele>726.24</ele>
        <time>2015-10-03T10:28:12.305Z</time>
      </trkpt>
      <trkpt lat="45.26442" lon="4.1934">
        <ele>726</ele>
        <time>2015-10-03T10:28:13.309Z</time>
      </trkpt>
      <trkpt lat="45.26444" lon="4.19335">
        <ele>725.48</ele>
        <time>2015-10-03T10:28:15.310Z</time>
      </trkpt>
      <trkpt lat="45.26446" lon="4.19329">
        <ele>724.88</ele>
        <time>2015-10-03T10:28:17.317Z</time>
      </trkpt>
      <trkpt lat="45.26448" lon="4.19328">
        <ele>724.56</ele>
        <time>2015-10-03T10:28:18.316Z</time>
      </trkpt>
      <trkpt lat="45.26452" lon="4.19325">
        <ele>723.96</ele>
        <time>2015-10-03T10:28:20.271Z</time>
      </trkpt>
      <trkpt lat="45.26452" lon="4.19325">
        <ele>723.80769230769</ele>
        <time>2015-10-03T10:28:21.227Z</time>
      </trkpt>
      <trkpt lat="45.26452" lon="4.19323">
        <ele>723.53846153846</ele>
        <time>2015-10-03T10:28:22.222Z</time>
      </trkpt>
      <trkpt lat="45.26453" lon="4.19322">
        <ele>723.23076923077</ele>
        <time>2015-10-03T10:28:23.224Z</time>
      </trkpt>
      <trkpt lat="45.26456" lon="4.19316">
        <ele>722.30769230769</ele>
        <time>2015-10-03T10:28:26.232Z</time>
      </trkpt>
      <trkpt lat="45.26459" lon="4.19312">
        <ele>721.73076923077</ele>
        <time>2015-10-03T10:28:28.238Z</time>
      </trkpt>
      <trkpt lat="45.26461" lon="4.1931">
        <ele>721.46153846154</ele>
        <time>2015-10-03T10:28:29.233Z</time>
      </trkpt>
      <trkpt lat="45.26463" lon="4.19309">
        <ele>721.19230769231</ele>
        <time>2015-10-03T10:28:30.234Z</time>
      </trkpt>
      <trkpt lat="45.26467" lon="4.19306">
        <ele>720.65384615385</ele>
        <time>2015-10-03T10:28:32.225Z</time>
      </trkpt>
      <trkpt lat="45.2647" lon="4.19304">
        <ele>720.42307692308</ele>
        <time>2015-10-03T10:28:33.225Z</time>
      </trkpt>
      <trkpt lat="45.26472" lon="4.19302">
        <ele>720.23076923077</ele>
        <time>2015-10-03T10:28:34.230Z</time>
      </trkpt>
      <trkpt lat="45.26473" lon="4.193">
        <ele>720.07692307692</ele>
        <time>2015-10-03T10:28:35.233Z</time>
      </trkpt>
      <trkpt lat="45.26475" lon="4.19299">
        <ele>719.84615384615</ele>
        <time>2015-10-03T10:28:36.246Z</time>
      </trkpt>
      <trkpt lat="45.26478" lon="4.19299">
        <ele>719.65384615385</ele>
        <time>2015-10-03T10:28:37.233Z</time>
      </trkpt>
      <trkpt lat="45.26486" lon="4.19299">
        <ele>719.19230769231</ele>
        <time>2015-10-03T10:28:39.224Z</time>
      </trkpt>
      <trkpt lat="45.26499" lon="4.19291">
        <ele>718.8</ele>
        <time>2015-10-03T10:28:41.207Z</time>
      </trkpt>
      <trkpt lat="45.26502" lon="4.19288">
        <ele>718.56</ele>
        <time>2015-10-03T10:28:42.206Z</time>
      </trkpt>
      <trkpt lat="45.26503" lon="4.19283">
        <ele>718.32</ele>
        <time>2015-10-03T10:28:43.239Z</time>
      </trkpt>
      <trkpt lat="45.26505" lon="4.19281">
        <ele>718.08</ele>
        <time>2015-10-03T10:28:44.222Z</time>
      </trkpt>
      <trkpt lat="45.26505" lon="4.19277">
        <ele>717.88</ele>
        <time>2015-10-03T10:28:45.214Z</time>
      </trkpt>
      <trkpt lat="45.26506" lon="4.19272">
        <ele>717.64</ele>
        <time>2015-10-03T10:28:46.209Z</time>
      </trkpt>
      <trkpt lat="45.26511" lon="4.19261">
        <ele>717.08333333333</ele>
        <time>2015-10-03T10:28:48.225Z</time>
      </trkpt>
      <trkpt lat="45.26516" lon="4.19258">
        <ele>716.83333333333</ele>
        <time>2015-10-03T10:28:49.228Z</time>
      </trkpt>
      <trkpt lat="45.26519" lon="4.19254">
        <ele>716.625</ele>
        <time>2015-10-03T10:28:50.227Z</time>
      </trkpt>
      <trkpt lat="45.26522" lon="4.19249">
        <ele>716.375</ele>
        <time>2015-10-03T10:28:51.235Z</time>
      </trkpt>
      <trkpt lat="45.26524" lon="4.19244">
        <ele>716.125</ele>
        <time>2015-10-03T10:28:52.240Z</time>
      </trkpt>
      <trkpt lat="45.26524" lon="4.19241">
        <ele>715.83333333333</ele>
        <time>2015-10-03T10:28:53.300Z</time>
      </trkpt>
      <trkpt lat="45.26523" lon="4.1924">
        <ele>715.54166666667</ele>
        <time>2015-10-03T10:28:54.280Z</time>
      </trkpt>
      <trkpt lat="45.26523" lon="4.19237">
        <ele>715.25</ele>
        <time>2015-10-03T10:28:55.242Z</time>
      </trkpt>
      <trkpt lat="45.26522" lon="4.19233">
        <ele>715.08</ele>
        <time>2015-10-03T10:28:56.230Z</time>
      </trkpt>
      <trkpt lat="45.26522" lon="4.1923">
        <ele>714.72</ele>
        <time>2015-10-03T10:28:57.217Z</time>
      </trkpt>
      <trkpt lat="45.26522" lon="4.19227">
        <ele>714.4</ele>
        <time>2015-10-03T10:28:58.222Z</time>
      </trkpt>
      <trkpt lat="45.26522" lon="4.19224">
        <ele>713.875</ele>
        <time>2015-10-03T10:28:59.238Z</time>
      </trkpt>
      <trkpt lat="45.26521" lon="4.19218">
        <ele>713.08333333333</ele>
        <time>2015-10-03T10:29:01.247Z</time>
      </trkpt>
      <trkpt lat="45.2652" lon="4.19216">
        <ele>712.66666666667</ele>
        <time>2015-10-03T10:29:02.239Z</time>
      </trkpt>
      <trkpt lat="45.26519" lon="4.19213">
        <ele>712.29166666667</ele>
        <time>2015-10-03T10:29:03.274Z</time>
      </trkpt>
      <trkpt lat="45.26518" lon="4.1921">
        <ele>711.875</ele>
        <time>2015-10-03T10:29:04.318Z</time>
      </trkpt>
      <trkpt lat="45.26518" lon="4.19208">
        <ele>711.64</ele>
        <time>2015-10-03T10:29:05.340Z</time>
      </trkpt>
      <trkpt lat="45.26518" lon="4.19206">
        <ele>711.28</ele>
        <time>2015-10-03T10:29:06.269Z</time>
      </trkpt>
      <trkpt lat="45.26518" lon="4.19202">
        <ele>710.92</ele>
        <time>2015-10-03T10:29:07.232Z</time>
      </trkpt>
      <trkpt lat="45.26518" lon="4.19198">
        <ele>710.52</ele>
        <time>2015-10-03T10:29:08.240Z</time>
      </trkpt>
      <trkpt lat="45.26518" lon="4.19193">
        <ele>710.12</ele>
        <time>2015-10-03T10:29:09.240Z</time>
      </trkpt>
      <trkpt lat="45.26518" lon="4.19186">
        <ele>709.54166666667</ele>
        <time>2015-10-03T10:29:11.222Z</time>
      </trkpt>
      <trkpt lat="45.26516" lon="4.19184">
        <ele>709.36</ele>
        <time>2015-10-03T10:29:12.216Z</time>
      </trkpt>
      <trkpt lat="45.26515" lon="4.19182">
        <ele>708.79166666667</ele>
        <time>2015-10-03T10:29:13.226Z</time>
      </trkpt>
      <trkpt lat="45.26513" lon="4.19181">
        <ele>708.6</ele>
        <time>2015-10-03T10:29:14.217Z</time>
      </trkpt>
      <trkpt lat="45.26512" lon="4.19177">
        <ele>708.2</ele>
        <time>2015-10-03T10:29:15.209Z</time>
      </trkpt>
      <trkpt lat="45.26511" lon="4.19173">
        <ele>707.76</ele>
        <time>2015-10-03T10:29:16.216Z</time>
      </trkpt>
      <trkpt lat="45.26509" lon="4.19167">
        <ele>707.36</ele>
        <time>2015-10-03T10:29:17.219Z</time>
      </trkpt>
      <trkpt lat="45.26507" lon="4.19162">
        <ele>706.96</ele>
        <time>2015-10-03T10:29:18.218Z</time>
      </trkpt>
      <trkpt lat="45.26506" lon="4.19158">
        <ele>706.6</ele>
        <time>2015-10-03T10:29:19.221Z</time>
      </trkpt>
      <trkpt lat="45.26505" lon="4.19153">
        <ele>706.24</ele>
        <time>2015-10-03T10:29:20.216Z</time>
      </trkpt>
      <trkpt lat="45.26503" lon="4.19143">
        <ele>705.25</ele>
        <time>2015-10-03T10:29:22.236Z</time>
      </trkpt>
      <trkpt lat="45.26501" lon="4.19139">
        <ele>704.875</ele>
        <time>2015-10-03T10:29:23.229Z</time>
      </trkpt>
      <trkpt lat="45.26498" lon="4.19136">
        <ele>704.68</ele>
        <time>2015-10-03T10:29:24.234Z</time>
      </trkpt>
      <trkpt lat="45.26494" lon="4.19134">
        <ele>704.28</ele>
        <time>2015-10-03T10:29:25.233Z</time>
      </trkpt>
      <trkpt lat="45.26489" lon="4.19132">
        <ele>703.88</ele>
        <time>2015-10-03T10:29:26.239Z</time>
      </trkpt>
      <trkpt lat="45.26485" lon="4.1913">
        <ele>703.48</ele>
        <time>2015-10-03T10:29:27.230Z</time>
      </trkpt>
      <trkpt lat="45.26482" lon="4.19129">
        <ele>703.2</ele>
        <time>2015-10-03T10:29:28.233Z</time>
      </trkpt>
      <trkpt lat="45.26478" lon="4.19129">
        <ele>702.84</ele>
        <time>2015-10-03T10:29:29.228Z</time>
      </trkpt>
      <trkpt lat="45.26475" lon="4.19128">
        <ele>702.6</ele>
        <time>2015-10-03T10:29:30.230Z</time>
      </trkpt>
      <trkpt lat="45.26471" lon="4.19127">
        <ele>702.16</ele>
        <time>2015-10-03T10:29:32.227Z</time>
      </trkpt>
      <trkpt lat="45.26467" lon="4.19127">
        <ele>701.96</ele>
        <time>2015-10-03T10:29:33.227Z</time>
      </trkpt>
      <trkpt lat="45.26455" lon="4.19128">
        <ele>701.52</ele>
        <time>2015-10-03T10:29:36.256Z</time>
      </trkpt>
      <trkpt lat="45.26452" lon="4.19129">
        <ele>701.36</ele>
        <time>2015-10-03T10:29:37.230Z</time>
      </trkpt>
      <trkpt lat="45.26449" lon="4.19131">
        <ele>701.2</ele>
        <time>2015-10-03T10:29:38.228Z</time>
      </trkpt>
      <trkpt lat="45.26446" lon="4.19133">
        <ele>701.04</ele>
        <time>2015-10-03T10:29:39.230Z</time>
      </trkpt>
      <trkpt lat="45.26444" lon="4.19134">
        <ele>700.96</ele>
        <time>2015-10-03T10:29:40.230Z</time>
      </trkpt>
      <trkpt lat="45.26442" lon="4.19134">
        <ele>700.88</ele>
        <time>2015-10-03T10:29:41.234Z</time>
      </trkpt>
      <trkpt lat="45.2644" lon="4.19134">
        <ele>700.8</ele>
        <time>2015-10-03T10:29:42.225Z</time>
      </trkpt>
      <trkpt lat="45.26438" lon="4.19133">
        <ele>700.76</ele>
        <time>2015-10-03T10:29:43.228Z</time>
      </trkpt>
      <trkpt lat="45.26436" lon="4.19132">
        <ele>700.64</ele>
        <time>2015-10-03T10:29:44.225Z</time>
      </trkpt>
      <trkpt lat="45.26428" lon="4.1913">
        <ele>700.56</ele>
        <time>2015-10-03T10:29:46.232Z</time>
      </trkpt>
      <trkpt lat="45.26422" lon="4.1913">
        <ele>700.56</ele>
        <time>2015-10-03T10:29:47.237Z</time>
      </trkpt>
      <trkpt lat="45.2642" lon="4.1913">
        <ele>700.48</ele>
        <time>2015-10-03T10:29:48.285Z</time>
      </trkpt>
      <trkpt lat="45.26418" lon="4.19127">
        <ele>700.52</ele>
        <time>2015-10-03T10:29:49.298Z</time>
      </trkpt>
      <trkpt lat="45.26415" lon="4.19127">
        <ele>700.48</ele>
        <time>2015-10-03T10:29:50.294Z</time>
      </trkpt>
      <trkpt lat="45.26411" lon="4.19127">
        <ele>700.52</ele>
        <time>2015-10-03T10:29:51.283Z</time>
      </trkpt>
      <trkpt lat="45.26407" lon="4.19128">
        <ele>700.6</ele>
        <time>2015-10-03T10:29:52.286Z</time>
      </trkpt>
      <trkpt lat="45.26403" lon="4.19128">
        <ele>700.56</ele>
        <time>2015-10-03T10:29:53.273Z</time>
      </trkpt>
      <trkpt lat="45.26397" lon="4.19126">
        <ele>700.56</ele>
        <time>2015-10-03T10:29:55.297Z</time>
      </trkpt>
      <trkpt lat="45.26396" lon="4.19124">
        <ele>700.56</ele>
        <time>2015-10-03T10:29:56.318Z</time>
      </trkpt>
      <trkpt lat="45.26395" lon="4.19122">
        <ele>700.48</ele>
        <time>2015-10-03T10:29:57.317Z</time>
      </trkpt>
      <trkpt lat="45.26393" lon="4.19123">
        <ele>700.44</ele>
        <time>2015-10-03T10:29:58.311Z</time>
      </trkpt>
      <trkpt lat="45.26391" lon="4.19125">
        <ele>700.4</ele>
        <time>2015-10-03T10:29:59.322Z</time>
      </trkpt>
      <trkpt lat="45.26388" lon="4.19126">
        <ele>700.32</ele>
        <time>2015-10-03T10:30:00.309Z</time>
      </trkpt>
      <trkpt lat="45.26379" lon="4.19123">
        <ele>700.2</ele>
        <time>2015-10-03T10:30:03.304Z</time>
      </trkpt>
      <trkpt lat="45.26376" lon="4.19123">
        <ele>700.24</ele>
        <time>2015-10-03T10:30:04.310Z</time>
      </trkpt>
      <trkpt lat="45.26374" lon="4.19123">
        <ele>700.24</ele>
        <time>2015-10-03T10:30:05.307Z</time>
      </trkpt>
      <trkpt lat="45.26371" lon="4.19123">
        <ele>700.2</ele>
        <time>2015-10-03T10:30:06.306Z</time>
      </trkpt>
      <trkpt lat="45.26368" lon="4.19123">
        <ele>700.2</ele>
        <time>2015-10-03T10:30:07.290Z</time>
      </trkpt>
      <trkpt lat="45.26365" lon="4.19123">
        <ele>700.2</ele>
        <time>2015-10-03T10:30:08.266Z</time>
      </trkpt>
      <trkpt lat="45.26358" lon="4.19123">
        <ele>700.24</ele>
        <time>2015-10-03T10:30:11.244Z</time>
      </trkpt>
      <trkpt lat="45.26352" lon="4.19123">
        <ele>700.23076923077</ele>
        <time>2015-10-03T10:30:13.248Z</time>
      </trkpt>
      <trkpt lat="45.2635" lon="4.19121">
        <ele>700.26923076923</ele>
        <time>2015-10-03T10:30:14.252Z</time>
      </trkpt>
      <trkpt lat="45.26348" lon="4.19118">
        <ele>700.23076923077</ele>
        <time>2015-10-03T10:30:15.258Z</time>
      </trkpt>
      <trkpt lat="45.26348" lon="4.19114">
        <ele>700.30769230769</ele>
        <time>2015-10-03T10:30:16.251Z</time>
      </trkpt>
      <trkpt lat="45.26349" lon="4.19108">
        <ele>700.44</ele>
        <time>2015-10-03T10:30:19.270Z</time>
      </trkpt>
      <trkpt lat="45.26348" lon="4.19107">
        <ele>700.46153846154</ele>
        <time>2015-10-03T10:30:20.290Z</time>
      </trkpt>
      <trkpt lat="45.26348" lon="4.19105">
        <ele>700.53846153846</ele>
        <time>2015-10-03T10:30:21.287Z</time>
      </trkpt>
      <trkpt lat="45.26349" lon="4.19103">
        <ele>700.61538461538</ele>
        <time>2015-10-03T10:30:23.258Z</time>
      </trkpt>
      <trkpt lat="45.26348" lon="4.19104">
        <ele>700.69230769231</ele>
        <time>2015-10-03T10:30:24.261Z</time>
      </trkpt>
      <trkpt lat="45.26345" lon="4.19107">
        <ele>700.76923076923</ele>
        <time>2015-10-03T10:30:25.268Z</time>
      </trkpt>
      <trkpt lat="45.26342" lon="4.19109">
        <ele>700.80769230769</ele>
        <time>2015-10-03T10:30:26.260Z</time>
      </trkpt>
      <trkpt lat="45.26343" lon="4.19108">
        <ele>700.92307692308</ele>
        <time>2015-10-03T10:30:27.258Z</time>
      </trkpt>
      <trkpt lat="45.26345" lon="4.19106">
        <ele>701</ele>
        <time>2015-10-03T10:30:28.261Z</time>
      </trkpt>
      <trkpt lat="45.26347" lon="4.19104">
        <ele>700.96</ele>
        <time>2015-10-03T10:30:29.327Z</time>
      </trkpt>
      <trkpt lat="45.26348" lon="4.19101">
        <ele>701</ele>
        <time>2015-10-03T10:30:30.356Z</time>
      </trkpt>
      <trkpt lat="45.26349" lon="4.19098">
        <ele>701.12</ele>
        <time>2015-10-03T10:30:31.354Z</time>
      </trkpt>
      <trkpt lat="45.2635" lon="4.19096">
        <ele>701.16</ele>
        <time>2015-10-03T10:30:32.338Z</time>
      </trkpt>
      <trkpt lat="45.26352" lon="4.19095">
        <ele>701.16</ele>
        <time>2015-10-03T10:30:33.332Z</time>
      </trkpt>
      <trkpt lat="45.26355" lon="4.19094">
        <ele>701.16</ele>
        <time>2015-10-03T10:30:34.320Z</time>
      </trkpt>
      <trkpt lat="45.26356" lon="4.19091">
        <ele>701.16</ele>
        <time>2015-10-03T10:30:35.355Z</time>
      </trkpt>
      <trkpt lat="45.26357" lon="4.19092">
        <ele>701.2</ele>
        <time>2015-10-03T10:30:36.369Z</time>
      </trkpt>
      <trkpt lat="45.26359" lon="4.19094">
        <ele>701.16</ele>
        <time>2015-10-03T10:30:37.378Z</time>
      </trkpt>
      <trkpt lat="45.26361" lon="4.1909">
        <ele>701.2</ele>
        <time>2015-10-03T10:30:38.365Z</time>
      </trkpt>
      <trkpt lat="45.26361" lon="4.19085">
        <ele>701.28</ele>
        <time>2015-10-03T10:30:39.370Z</time>
      </trkpt>
      <trkpt lat="45.26362" lon="4.1908">
        <ele>701.28</ele>
        <time>2015-10-03T10:30:40.371Z</time>
      </trkpt>
      <trkpt lat="45.26364" lon="4.19063">
        <ele>701.16</ele>
        <time>2015-10-03T10:30:43.362Z</time>
      </trkpt>
      <trkpt lat="45.26363" lon="4.19052">
        <ele>701.2</ele>
        <time>2015-10-03T10:30:45.383Z</time>
      </trkpt>
      <trkpt lat="45.26362" lon="4.19042">
        <ele>701.16</ele>
        <time>2015-10-03T10:30:47.318Z</time>
      </trkpt>
      <trkpt lat="45.26362" lon="4.19037">
        <ele>701.12</ele>
        <time>2015-10-03T10:30:48.283Z</time>
      </trkpt>
      <trkpt lat="45.26363" lon="4.19028">
        <ele>701</ele>
        <time>2015-10-03T10:30:50.381Z</time>
      </trkpt>
      <trkpt lat="45.26364" lon="4.19023">
        <ele>701</ele>
        <time>2015-10-03T10:30:51.397Z</time>
      </trkpt>
      <trkpt lat="45.26365" lon="4.19012">
        <ele>700.84</ele>
        <time>2015-10-03T10:30:53.339Z</time>
      </trkpt>
      <trkpt lat="45.26366" lon="4.19007">
        <ele>700.92</ele>
        <time>2015-10-03T10:30:54.342Z</time>
      </trkpt>
      <trkpt lat="45.26367" lon="4.19001">
        <ele>700.96153846154</ele>
        <time>2015-10-03T10:30:55.339Z</time>
      </trkpt>
      <trkpt lat="45.26368" lon="4.18996">
        <ele>700.92307692308</ele>
        <time>2015-10-03T10:30:56.335Z</time>
      </trkpt>
      <trkpt lat="45.26367" lon="4.1899">
        <ele>700.88461538462</ele>
        <time>2015-10-03T10:30:57.326Z</time>
      </trkpt>
      <trkpt lat="45.26367" lon="4.18984">
        <ele>700.80769230769</ele>
        <time>2015-10-03T10:30:58.328Z</time>
      </trkpt>
      <trkpt lat="45.26366" lon="4.18979">
        <ele>700.84</ele>
        <time>2015-10-03T10:30:59.329Z</time>
      </trkpt>
      <trkpt lat="45.26365" lon="4.18974">
        <ele>700.92</ele>
        <time>2015-10-03T10:31:00.392Z</time>
      </trkpt>
      <trkpt lat="45.26361" lon="4.18959">
        <ele>700.96153846154</ele>
        <time>2015-10-03T10:31:03.349Z</time>
      </trkpt>
      <trkpt lat="45.26359" lon="4.18948">
        <ele>700.88461538462</ele>
        <time>2015-10-03T10:31:05.347Z</time>
      </trkpt>
      <trkpt lat="45.26356" lon="4.18932">
        <ele>700.8</ele>
        <time>2015-10-03T10:31:08.399Z</time>
      </trkpt>
      <trkpt lat="45.26355" lon="4.18928">
        <ele>700.76923076923</ele>
        <time>2015-10-03T10:31:09.345Z</time>
      </trkpt>
      <trkpt lat="45.2635" lon="4.18917">
        <ele>700.68</ele>
        <time>2015-10-03T10:31:11.343Z</time>
      </trkpt>
      <trkpt lat="45.26344" lon="4.18906">
        <ele>700.66666666667</ele>
        <time>2015-10-03T10:31:13.339Z</time>
      </trkpt>
      <trkpt lat="45.2634" lon="4.18901">
        <ele>700.70833333333</ele>
        <time>2015-10-03T10:31:14.338Z</time>
      </trkpt>
      <trkpt lat="45.26337" lon="4.18897">
        <ele>700.72</ele>
        <time>2015-10-03T10:31:15.324Z</time>
      </trkpt>
      <trkpt lat="45.26336" lon="4.18895">
        <ele>700.72</ele>
        <time>2015-10-03T10:31:16.303Z</time>
      </trkpt>
      <trkpt lat="45.26332" lon="4.18892">
        <ele>700.76</ele>
        <time>2015-10-03T10:31:18.269Z</time>
      </trkpt>
      <trkpt lat="45.26329" lon="4.18891">
        <ele>700.8</ele>
        <time>2015-10-03T10:31:19.270Z</time>
      </trkpt>
      <trkpt lat="45.26325" lon="4.18891">
        <ele>700.8</ele>
        <time>2015-10-03T10:31:20.275Z</time>
      </trkpt>
      <trkpt lat="45.26313" lon="4.1889">
        <ele>700.76</ele>
        <time>2015-10-03T10:31:23.281Z</time>
      </trkpt>
      <trkpt lat="45.2631" lon="4.18888">
        <ele>700.84</ele>
        <time>2015-10-03T10:31:24.287Z</time>
      </trkpt>
      <trkpt lat="45.26307" lon="4.18886">
        <ele>700.88</ele>
        <time>2015-10-03T10:31:25.287Z</time>
      </trkpt>
      <trkpt lat="45.26303" lon="4.18883">
        <ele>700.84</ele>
        <time>2015-10-03T10:31:26.304Z</time>
      </trkpt>
      <trkpt lat="45.263" lon="4.1888">
        <ele>700.88</ele>
        <time>2015-10-03T10:31:27.286Z</time>
      </trkpt>
      <trkpt lat="45.26297" lon="4.18877">
        <ele>700.96</ele>
        <time>2015-10-03T10:31:28.274Z</time>
      </trkpt>
      <trkpt lat="45.26293" lon="4.18874">
        <ele>701</ele>
        <time>2015-10-03T10:31:29.281Z</time>
      </trkpt>
      <trkpt lat="45.26288" lon="4.1887">
        <ele>701.04</ele>
        <time>2015-10-03T10:31:31.274Z</time>
      </trkpt>
      <trkpt lat="45.26285" lon="4.18868">
        <ele>701.16</ele>
        <time>2015-10-03T10:31:32.286Z</time>
      </trkpt>
      <trkpt lat="45.26282" lon="4.18867">
        <ele>701.12</ele>
        <time>2015-10-03T10:31:33.291Z</time>
      </trkpt>
      <trkpt lat="45.26281" lon="4.18866">
        <ele>701.24</ele>
        <time>2015-10-03T10:31:34.287Z</time>
      </trkpt>
      <trkpt lat="45.26279" lon="4.18865">
        <ele>701.24</ele>
        <time>2015-10-03T10:31:35.281Z</time>
      </trkpt>
      <trkpt lat="45.26277" lon="4.18863">
        <ele>701.23076923077</ele>
        <time>2015-10-03T10:31:36.275Z</time>
      </trkpt>
      <trkpt lat="45.26275" lon="4.1886">
        <ele>701.30769230769</ele>
        <time>2015-10-03T10:31:37.286Z</time>
      </trkpt>
      <trkpt lat="45.26273" lon="4.18856">
        <ele>701.34615384615</ele>
        <time>2015-10-03T10:31:38.277Z</time>
      </trkpt>
      <trkpt lat="45.26269" lon="4.18848">
        <ele>701.38461538462</ele>
        <time>2015-10-03T10:31:40.276Z</time>
      </trkpt>
      <trkpt lat="45.26267" lon="4.18845">
        <ele>701.38461538462</ele>
        <time>2015-10-03T10:31:41.299Z</time>
      </trkpt>
      <trkpt lat="45.26264" lon="4.18838">
        <ele>701.44</ele>
        <time>2015-10-03T10:31:43.278Z</time>
      </trkpt>
      <trkpt lat="45.26262" lon="4.18833">
        <ele>701.48</ele>
        <time>2015-10-03T10:31:44.280Z</time>
      </trkpt>
      <trkpt lat="45.26258" lon="4.18823">
        <ele>701.42307692308</ele>
        <time>2015-10-03T10:31:46.281Z</time>
      </trkpt>
      <trkpt lat="45.26256" lon="4.1882">
        <ele>701.38461538462</ele>
        <time>2015-10-03T10:31:47.286Z</time>
      </trkpt>
      <trkpt lat="45.26254" lon="4.18817">
        <ele>701.44</ele>
        <time>2015-10-03T10:31:48.298Z</time>
      </trkpt>
      <trkpt lat="45.2625" lon="4.18812">
        <ele>701.28</ele>
        <time>2015-10-03T10:31:50.305Z</time>
      </trkpt>
      <trkpt lat="45.26245" lon="4.18803">
        <ele>701.28</ele>
        <time>2015-10-03T10:31:52.363Z</time>
      </trkpt>
      <trkpt lat="45.26242" lon="4.18799">
        <ele>701.2</ele>
        <time>2015-10-03T10:31:53.372Z</time>
      </trkpt>
      <trkpt lat="45.26238" lon="4.18796">
        <ele>701.12</ele>
        <time>2015-10-03T10:31:54.365Z</time>
      </trkpt>
      <trkpt lat="45.26234" lon="4.18794">
        <ele>701.16</ele>
        <time>2015-10-03T10:31:55.389Z</time>
      </trkpt>
      <trkpt lat="45.2623" lon="4.18793">
        <ele>701.16</ele>
        <time>2015-10-03T10:31:56.386Z</time>
      </trkpt>
      <trkpt lat="45.26216" lon="4.18787">
        <ele>701.12</ele>
        <time>2015-10-03T10:31:59.382Z</time>
      </trkpt>
      <trkpt lat="45.26211" lon="4.18785">
        <ele>701.16</ele>
        <time>2015-10-03T10:32:00.378Z</time>
      </trkpt>
      <trkpt lat="45.26202" lon="4.18782">
        <ele>701.08</ele>
        <time>2015-10-03T10:32:02.346Z</time>
      </trkpt>
      <trkpt lat="45.26198" lon="4.18781">
        <ele>701.12</ele>
        <time>2015-10-03T10:32:03.360Z</time>
      </trkpt>
      <trkpt lat="45.26195" lon="4.1878">
        <ele>701.16</ele>
        <time>2015-10-03T10:32:04.332Z</time>
      </trkpt>
      <trkpt lat="45.26194" lon="4.1878">
        <ele>701.12</ele>
        <time>2015-10-03T10:32:05.286Z</time>
      </trkpt>
      <trkpt lat="45.26192" lon="4.18779">
        <ele>701.19230769231</ele>
        <time>2015-10-03T10:32:06.274Z</time>
      </trkpt>
      <trkpt lat="45.2619" lon="4.18778">
        <ele>701.23076923077</ele>
        <time>2015-10-03T10:32:07.276Z</time>
      </trkpt>
      <trkpt lat="45.26188" lon="4.18777">
        <ele>701.24</ele>
        <time>2015-10-03T10:32:08.305Z</time>
      </trkpt>
      <trkpt lat="45.26184" lon="4.18778">
        <ele>701.16</ele>
        <time>2015-10-03T10:32:09.327Z</time>
      </trkpt>
      <trkpt lat="45.26178" lon="4.18777">
        <ele>701.24</ele>
        <time>2015-10-03T10:32:10.326Z</time>
      </trkpt>
      <trkpt lat="45.26173" lon="4.18776">
        <ele>701.2</ele>
        <time>2015-10-03T10:32:11.329Z</time>
      </trkpt>
      <trkpt lat="45.26162" lon="4.18778">
        <ele>701.16</ele>
        <time>2015-10-03T10:32:13.342Z</time>
      </trkpt>
      <trkpt lat="45.26147" lon="4.18783">
        <ele>701.32</ele>
        <time>2015-10-03T10:32:16.339Z</time>
      </trkpt>
      <trkpt lat="45.26143" lon="4.18785">
        <ele>701.34615384615</ele>
        <time>2015-10-03T10:32:17.333Z</time>
      </trkpt>
      <trkpt lat="45.26138" lon="4.18787">
        <ele>701.34615384615</ele>
        <time>2015-10-03T10:32:18.350Z</time>
      </trkpt>
      <trkpt lat="45.26133" lon="4.18788">
        <ele>701.34615384615</ele>
        <time>2015-10-03T10:32:19.362Z</time>
      </trkpt>
      <trkpt lat="45.26124" lon="4.1879">
        <ele>701.46153846154</ele>
        <time>2015-10-03T10:32:21.334Z</time>
      </trkpt>
      <trkpt lat="45.2612" lon="4.18792">
        <ele>701.46153846154</ele>
        <time>2015-10-03T10:32:22.344Z</time>
      </trkpt>
      <trkpt lat="45.26116" lon="4.18794">
        <ele>701.52</ele>
        <time>2015-10-03T10:32:23.371Z</time>
      </trkpt>
      <trkpt lat="45.26112" lon="4.18796">
        <ele>701.57692307692</ele>
        <time>2015-10-03T10:32:24.366Z</time>
      </trkpt>
      <trkpt lat="45.26109" lon="4.18796">
        <ele>701.57692307692</ele>
        <time>2015-10-03T10:32:25.355Z</time>
      </trkpt>
      <trkpt lat="45.26105" lon="4.18796">
        <ele>701.57692307692</ele>
        <time>2015-10-03T10:32:26.311Z</time>
      </trkpt>
      <trkpt lat="45.26101" lon="4.18797">
        <ele>701.65384615385</ele>
        <time>2015-10-03T10:32:27.321Z</time>
      </trkpt>
      <trkpt lat="45.26087" lon="4.18797">
        <ele>701.64</ele>
        <time>2015-10-03T10:32:30.334Z</time>
      </trkpt>
      <trkpt lat="45.26075" lon="4.18797">
        <ele>701.48</ele>
        <time>2015-10-03T10:32:33.347Z</time>
      </trkpt>
      <trkpt lat="45.26073" lon="4.18797">
        <ele>701.5</ele>
        <time>2015-10-03T10:32:34.305Z</time>
      </trkpt>
      <trkpt lat="45.2607" lon="4.18798">
        <ele>701.53846153846</ele>
        <time>2015-10-03T10:32:35.269Z</time>
      </trkpt>
      <trkpt lat="45.26068" lon="4.188">
        <ele>701.53846153846</ele>
        <time>2015-10-03T10:32:36.297Z</time>
      </trkpt>
      <trkpt lat="45.26064" lon="4.18804">
        <ele>701.5</ele>
        <time>2015-10-03T10:32:38.276Z</time>
      </trkpt>
      <trkpt lat="45.26061" lon="4.18807">
        <ele>701.5</ele>
        <time>2015-10-03T10:32:39.275Z</time>
      </trkpt>
      <trkpt lat="45.26057" lon="4.18811">
        <ele>701.53846153846</ele>
        <time>2015-10-03T10:32:40.271Z</time>
      </trkpt>
      <trkpt lat="45.26052" lon="4.18817">
        <ele>701.46153846154</ele>
        <time>2015-10-03T10:32:41.267Z</time>
      </trkpt>
      <trkpt lat="45.26043" lon="4.18827">
        <ele>701.42307692308</ele>
        <time>2015-10-03T10:32:43.294Z</time>
      </trkpt>
      <trkpt lat="45.2603" lon="4.1883">
        <ele>701.48</ele>
        <time>2015-10-03T10:32:45.263Z</time>
      </trkpt>
      <trkpt lat="45.26027" lon="4.18835">
        <ele>701.44</ele>
        <time>2015-10-03T10:32:46.271Z</time>
      </trkpt>
      <trkpt lat="45.26019" lon="4.18839">
        <ele>701.44</ele>
        <time>2015-10-03T10:32:47.279Z</time>
      </trkpt>
      <trkpt lat="45.26014" lon="4.18842">
        <ele>701.4</ele>
        <time>2015-10-03T10:32:48.287Z</time>
      </trkpt>
      <trkpt lat="45.26008" lon="4.18843">
        <ele>701.36</ele>
        <time>2015-10-03T10:32:49.286Z</time>
      </trkpt>
      <trkpt lat="45.26006" lon="4.18847">
        <ele>701.24</ele>
        <time>2015-10-03T10:32:50.300Z</time>
      </trkpt>
      <trkpt lat="45.26005" lon="4.18846">
        <ele>701.24</ele>
        <time>2015-10-03T10:32:51.286Z</time>
      </trkpt>
      <trkpt lat="45.26002" lon="4.18853">
        <ele>701.28</ele>
        <time>2015-10-03T10:32:52.288Z</time>
      </trkpt>
      <trkpt lat="45.25996" lon="4.18852">
        <ele>701.2</ele>
        <time>2015-10-03T10:32:53.293Z</time>
      </trkpt>
      <trkpt lat="45.25993" lon="4.18859">
        <ele>701.24</ele>
        <time>2015-10-03T10:32:54.299Z</time>
      </trkpt>
      <trkpt lat="45.25992" lon="4.18861">
        <ele>701.16</ele>
        <time>2015-10-03T10:32:55.290Z</time>
      </trkpt>
      <trkpt lat="45.2599" lon="4.18862">
        <ele>701.24</ele>
        <time>2015-10-03T10:32:57.329Z</time>
      </trkpt>
      <trkpt lat="45.25988" lon="4.18863">
        <ele>701.16</ele>
        <time>2015-10-03T10:32:58.329Z</time>
      </trkpt>
      <trkpt lat="45.25987" lon="4.18865">
        <ele>701.16666666667</ele>
        <time>2015-10-03T10:32:59.317Z</time>
      </trkpt>
      <trkpt lat="45.25983" lon="4.18867">
        <ele>701.125</ele>
        <time>2015-10-03T10:33:00.319Z</time>
      </trkpt>
      <trkpt lat="45.25975" lon="4.18871">
        <ele>701.08</ele>
        <time>2015-10-03T10:33:02.281Z</time>
      </trkpt>
      <trkpt lat="45.25972" lon="4.18873">
        <ele>701.08</ele>
        <time>2015-10-03T10:33:03.270Z</time>
      </trkpt>
      <trkpt lat="45.2597" lon="4.18876">
        <ele>701.12</ele>
        <time>2015-10-03T10:33:04.274Z</time>
      </trkpt>
      <trkpt lat="45.25958" lon="4.18887">
        <ele>700.95833333333</ele>
        <time>2015-10-03T10:33:07.347Z</time>
      </trkpt>
      <trkpt lat="45.25948" lon="4.18896">
        <ele>700.88</ele>
        <time>2015-10-03T10:33:10.363Z</time>
      </trkpt>
      <trkpt lat="45.25947" lon="4.18903">
        <ele>700.83333333333</ele>
        <time>2015-10-03T10:33:12.330Z</time>
      </trkpt>
      <trkpt lat="45.25947" lon="4.18906">
        <ele>700.875</ele>
        <time>2015-10-03T10:33:13.328Z</time>
      </trkpt>
      <trkpt lat="45.25943" lon="4.18912">
        <ele>700.95833333333</ele>
        <time>2015-10-03T10:33:15.357Z</time>
      </trkpt>
      <trkpt lat="45.25938" lon="4.18915">
        <ele>700.95833333333</ele>
        <time>2015-10-03T10:33:16.368Z</time>
      </trkpt>
      <trkpt lat="45.25924" lon="4.18923">
        <ele>701.04166666667</ele>
        <time>2015-10-03T10:33:19.341Z</time>
      </trkpt>
      <trkpt lat="45.25919" lon="4.18926">
        <ele>701.08333333333</ele>
        <time>2015-10-03T10:33:20.341Z</time>
      </trkpt>
      <trkpt lat="45.25913" lon="4.18929">
        <ele>701.08333333333</ele>
        <time>2015-10-03T10:33:21.366Z</time>
      </trkpt>
      <trkpt lat="45.25909" lon="4.18932">
        <ele>701.125</ele>
        <time>2015-10-03T10:33:22.380Z</time>
      </trkpt>
      <trkpt lat="45.25905" lon="4.18935">
        <ele>701.16666666667</ele>
        <time>2015-10-03T10:33:23.362Z</time>
      </trkpt>
      <trkpt lat="45.25894" lon="4.18939">
        <ele>701.20833333333</ele>
        <time>2015-10-03T10:33:25.362Z</time>
      </trkpt>
      <trkpt lat="45.25889" lon="4.18941">
        <ele>701.125</ele>
        <time>2015-10-03T10:33:26.347Z</time>
      </trkpt>
      <trkpt lat="45.25886" lon="4.18943">
        <ele>701.20833333333</ele>
        <time>2015-10-03T10:33:27.319Z</time>
      </trkpt>
      <trkpt lat="45.25884" lon="4.18944">
        <ele>701.20833333333</ele>
        <time>2015-10-03T10:33:28.279Z</time>
      </trkpt>
      <trkpt lat="45.25882" lon="4.18946">
        <ele>701.25</ele>
        <time>2015-10-03T10:33:29.294Z</time>
      </trkpt>
      <trkpt lat="45.25878" lon="4.1895">
        <ele>701.24</ele>
        <time>2015-10-03T10:33:30.286Z</time>
      </trkpt>
      <trkpt lat="45.25872" lon="4.18954">
        <ele>701.28</ele>
        <time>2015-10-03T10:33:31.305Z</time>
      </trkpt>
      <trkpt lat="45.25867" lon="4.18956">
        <ele>701.28</ele>
        <time>2015-10-03T10:33:32.322Z</time>
      </trkpt>
      <trkpt lat="45.25861" lon="4.18958">
        <ele>701.29166666667</ele>
        <time>2015-10-03T10:33:33.326Z</time>
      </trkpt>
      <trkpt lat="45.25856" lon="4.18962">
        <ele>701.28</ele>
        <time>2015-10-03T10:33:34.335Z</time>
      </trkpt>
      <trkpt lat="45.25851" lon="4.18965">
        <ele>701.28</ele>
        <time>2015-10-03T10:33:35.326Z</time>
      </trkpt>
      <trkpt lat="45.25841" lon="4.18972">
        <ele>701.19230769231</ele>
        <time>2015-10-03T10:33:37.329Z</time>
      </trkpt>
      <trkpt lat="45.25832" lon="4.1898">
        <ele>701.15384615385</ele>
        <time>2015-10-03T10:33:39.335Z</time>
      </trkpt>
      <trkpt lat="45.25829" lon="4.18986">
        <ele>701.12</ele>
        <time>2015-10-03T10:33:40.780Z</time>
      </trkpt>
      <trkpt lat="45.25819" lon="4.19003">
        <ele>700.92</ele>
        <time>2015-10-03T10:33:43.805Z</time>
      </trkpt>
      <trkpt lat="45.25814" lon="4.19017">
        <ele>700.84</ele>
        <time>2015-10-03T10:33:45.857Z</time>
      </trkpt>
      <trkpt lat="45.25814" lon="4.19025">
        <ele>700.76</ele>
        <time>2015-10-03T10:33:46.859Z</time>
      </trkpt>
      <trkpt lat="45.25814" lon="4.19033">
        <ele>700.72</ele>
        <time>2015-10-03T10:33:47.847Z</time>
      </trkpt>
      <trkpt lat="45.25812" lon="4.19046">
        <ele>700.64</ele>
        <time>2015-10-03T10:33:49.837Z</time>
      </trkpt>
      <trkpt lat="45.25812" lon="4.19051">
        <ele>700.6</ele>
        <time>2015-10-03T10:33:50.838Z</time>
      </trkpt>
      <trkpt lat="45.25812" lon="4.19062">
        <ele>700.52</ele>
        <time>2015-10-03T10:33:52.836Z</time>
      </trkpt>
      <trkpt lat="45.25812" lon="4.19067">
        <ele>700.52</ele>
        <time>2015-10-03T10:33:53.830Z</time>
      </trkpt>
      <trkpt lat="45.25809" lon="4.19073">
        <ele>700.44</ele>
        <time>2015-10-03T10:33:55.818Z</time>
      </trkpt>
      <trkpt lat="45.25805" lon="4.19077">
        <ele>700.32</ele>
        <time>2015-10-03T10:33:57.826Z</time>
      </trkpt>
      <trkpt lat="45.25804" lon="4.19077">
        <ele>700.32</ele>
        <time>2015-10-03T10:33:58.818Z</time>
      </trkpt>
      <trkpt lat="45.25803" lon="4.19079">
        <ele>700.28</ele>
        <time>2015-10-03T10:33:59.822Z</time>
      </trkpt>
      <trkpt lat="45.258" lon="4.19082">
        <ele>700.16</ele>
        <time>2015-10-03T10:34:01.844Z</time>
      </trkpt>
      <trkpt lat="45.25798" lon="4.19081">
        <ele>700</ele>
        <time>2015-10-03T10:34:02.837Z</time>
      </trkpt>
      <trkpt lat="45.25799" lon="4.19083">
        <ele>699.84</ele>
        <time>2015-10-03T10:34:03.829Z</time>
      </trkpt>
      <trkpt lat="45.25801" lon="4.19086">
        <ele>699.56</ele>
        <time>2015-10-03T10:34:04.825Z</time>
      </trkpt>
      <trkpt lat="45.258" lon="4.19088">
        <ele>699.36</ele>
        <time>2015-10-03T10:34:05.819Z</time>
      </trkpt>
      <trkpt lat="45.25799" lon="4.19091">
        <ele>699.16</ele>
        <time>2015-10-03T10:34:06.833Z</time>
      </trkpt>
      <trkpt lat="45.25799" lon="4.19092">
        <ele>698.88</ele>
        <time>2015-10-03T10:34:07.807Z</time>
      </trkpt>
      <trkpt lat="45.25796" lon="4.19089">
        <ele>698.69230769231</ele>
        <time>2015-10-03T10:34:08.802Z</time>
      </trkpt>
      <trkpt lat="45.25796" lon="4.19085">
        <ele>698.5</ele>
        <time>2015-10-03T10:34:09.788Z</time>
      </trkpt>
      <trkpt lat="45.25796" lon="4.19079">
        <ele>698.07692307692</ele>
        <time>2015-10-03T10:34:11.751Z</time>
      </trkpt>
      <trkpt lat="45.25796" lon="4.19077">
        <ele>697.84615384615</ele>
        <time>2015-10-03T10:34:12.745Z</time>
      </trkpt>
      <trkpt lat="45.25794" lon="4.19075">
        <ele>697.57692307692</ele>
        <time>2015-10-03T10:34:13.745Z</time>
      </trkpt>
      <trkpt lat="45.25793" lon="4.19075">
        <ele>697.34615384615</ele>
        <time>2015-10-03T10:34:14.745Z</time>
      </trkpt>
      <trkpt lat="45.25791" lon="4.19076">
        <ele>697.07692307692</ele>
        <time>2015-10-03T10:34:15.737Z</time>
      </trkpt>
      <trkpt lat="45.2579" lon="4.19077">
        <ele>696.76923076923</ele>
        <time>2015-10-03T10:34:16.755Z</time>
      </trkpt>
      <trkpt lat="45.25789" lon="4.19079">
        <ele>696.5</ele>
        <time>2015-10-03T10:34:17.753Z</time>
      </trkpt>
      <trkpt lat="45.25788" lon="4.19081">
        <ele>695.92307692308</ele>
        <time>2015-10-03T10:34:19.729Z</time>
      </trkpt>
      <trkpt lat="45.25787" lon="4.19081">
        <ele>695.53846153846</ele>
        <time>2015-10-03T10:34:20.742Z</time>
      </trkpt>
      <trkpt lat="45.25786" lon="4.19082">
        <ele>695.30769230769</ele>
        <time>2015-10-03T10:34:21.745Z</time>
      </trkpt>
      <trkpt lat="45.25785" lon="4.19082">
        <ele>695.03846153846</ele>
        <time>2015-10-03T10:34:22.741Z</time>
      </trkpt>
      <trkpt lat="45.25783" lon="4.19082">
        <ele>694.5</ele>
        <time>2015-10-03T10:34:24.766Z</time>
      </trkpt>
      <trkpt lat="45.25782" lon="4.19083">
        <ele>694.19230769231</ele>
        <time>2015-10-03T10:34:25.735Z</time>
      </trkpt>
      <trkpt lat="45.25781" lon="4.19084">
        <ele>693.69230769231</ele>
        <time>2015-10-03T10:34:27.731Z</time>
      </trkpt>
      <trkpt lat="45.2578" lon="4.19085">
        <ele>693.30769230769</ele>
        <time>2015-10-03T10:34:29.757Z</time>
      </trkpt>
      <trkpt lat="45.25779" lon="4.19085">
        <ele>693.15384615385</ele>
        <time>2015-10-03T10:34:30.753Z</time>
      </trkpt>
      <trkpt lat="45.25778" lon="4.19086">
        <ele>693</ele>
        <time>2015-10-03T10:34:31.733Z</time>
      </trkpt>
      <trkpt lat="45.25777" lon="4.19086">
        <ele>692.88461538462</ele>
        <time>2015-10-03T10:34:32.736Z</time>
      </trkpt>
      <trkpt lat="45.25776" lon="4.19086">
        <ele>692.76923076923</ele>
        <time>2015-10-03T10:34:33.735Z</time>
      </trkpt>
      <trkpt lat="45.25773" lon="4.19086">
        <ele>692.65384615385</ele>
        <time>2015-10-03T10:34:34.755Z</time>
      </trkpt>
      <trkpt lat="45.2577" lon="4.19084">
        <ele>692.48</ele>
        <time>2015-10-03T10:34:35.777Z</time>
      </trkpt>
      <trkpt lat="45.25768" lon="4.19082">
        <ele>692.32</ele>
        <time>2015-10-03T10:34:36.815Z</time>
      </trkpt>
      <trkpt lat="45.25766" lon="4.19081">
        <ele>692.2</ele>
        <time>2015-10-03T10:34:37.820Z</time>
      </trkpt>
      <trkpt lat="45.25764" lon="4.19081">
        <ele>692</ele>
        <time>2015-10-03T10:34:38.833Z</time>
      </trkpt>
      <trkpt lat="45.25761" lon="4.19082">
        <ele>691.88</ele>
        <time>2015-10-03T10:34:39.808Z</time>
      </trkpt>
      <trkpt lat="45.25759" lon="4.19083">
        <ele>691.76</ele>
        <time>2015-10-03T10:34:40.796Z</time>
      </trkpt>
      <trkpt lat="45.25758" lon="4.19084">
        <ele>691.64</ele>
        <time>2015-10-03T10:34:41.801Z</time>
      </trkpt>
      <trkpt lat="45.25757" lon="4.19085">
        <ele>691.56</ele>
        <time>2015-10-03T10:34:42.776Z</time>
      </trkpt>
      <trkpt lat="45.25755" lon="4.19087">
        <ele>691.48</ele>
        <time>2015-10-03T10:34:43.770Z</time>
      </trkpt>
      <trkpt lat="45.25754" lon="4.19088">
        <ele>691.44</ele>
        <time>2015-10-03T10:34:44.811Z</time>
      </trkpt>
      <trkpt lat="45.25754" lon="4.19089">
        <ele>691.4</ele>
        <time>2015-10-03T10:34:45.787Z</time>
      </trkpt>
      <trkpt lat="45.25754" lon="4.19089">
        <ele>691.4</ele>
        <time>2015-10-03T10:34:46.766Z</time>
      </trkpt>
      <trkpt lat="45.25753" lon="4.19088">
        <ele>691.28</ele>
        <time>2015-10-03T10:34:47.824Z</time>
      </trkpt>
      <trkpt lat="45.25752" lon="4.19084">
        <ele>691.08</ele>
        <time>2015-10-03T10:34:49.778Z</time>
      </trkpt>
      <trkpt lat="45.25753" lon="4.19084">
        <ele>691</ele>
        <time>2015-10-03T10:34:50.741Z</time>
      </trkpt>
      <trkpt lat="45.25754" lon="4.19085">
        <ele>690.84</ele>
        <time>2015-10-03T10:34:52.733Z</time>
      </trkpt>
      <trkpt lat="45.25755" lon="4.19085">
        <ele>690.76923076923</ele>
        <time>2015-10-03T10:34:54.736Z</time>
      </trkpt>
      <trkpt lat="45.25757" lon="4.19085">
        <ele>690.6</ele>
        <time>2015-10-03T10:34:56.734Z</time>
      </trkpt>
      <trkpt lat="45.25759" lon="4.19085">
        <ele>690.46153846154</ele>
        <time>2015-10-03T10:34:59.738Z</time>
      </trkpt>
      <trkpt lat="45.25759" lon="4.19085">
        <ele>690.26923076923</ele>
        <time>2015-10-03T10:35:03.736Z</time>
      </trkpt>
      <trkpt lat="45.2576" lon="4.19084">
        <ele>690.26923076923</ele>
        <time>2015-10-03T10:35:06.745Z</time>
      </trkpt>
      <trkpt lat="45.2576" lon="4.19084">
        <ele>690.15384615385</ele>
        <time>2015-10-03T10:35:10.746Z</time>
      </trkpt>
      <trkpt lat="45.2576" lon="4.19084">
        <ele>690</ele>
        <time>2015-10-03T10:35:14.724Z</time>
      </trkpt>
      <trkpt lat="45.2576" lon="4.19084">
        <ele>690.04166666667</ele>
        <time>2015-10-03T10:35:17.735Z</time>
      </trkpt>
      <trkpt lat="45.2576" lon="4.19084">
        <ele>690.04166666667</ele>
        <time>2015-10-03T10:35:21.743Z</time>
      </trkpt>
      <trkpt lat="45.2576" lon="4.19084">
        <ele>690.04166666667</ele>
        <time>2015-10-03T10:35:24.745Z</time>
      </trkpt>
      <trkpt lat="45.25759" lon="4.19085">
        <ele>690.04166666667</ele>
        <time>2015-10-03T10:35:26.756Z</time>
      </trkpt>
      <trkpt lat="45.25757" lon="4.19087">
        <ele>690.08333333333</ele>
        <time>2015-10-03T10:35:27.789Z</time>
      </trkpt>
      <trkpt lat="45.25756" lon="4.19088">
        <ele>690.125</ele>
        <time>2015-10-03T10:35:28.825Z</time>
      </trkpt>
      <trkpt lat="45.25754" lon="4.19089">
        <ele>690.125</ele>
        <time>2015-10-03T10:35:29.789Z</time>
      </trkpt>
      <trkpt lat="45.25754" lon="4.19089">
        <ele>690.16</ele>
        <time>2015-10-03T10:35:30.746Z</time>
      </trkpt>
      <trkpt lat="45.25756" lon="4.19087">
        <ele>690.16666666667</ele>
        <time>2015-10-03T10:35:32.748Z</time>
      </trkpt>
      <trkpt lat="45.25757" lon="4.19084">
        <ele>690.04</ele>
        <time>2015-10-03T10:35:36.748Z</time>
      </trkpt>
      <trkpt lat="45.25758" lon="4.19083">
        <ele>690.04</ele>
        <time>2015-10-03T10:35:40.740Z</time>
      </trkpt>
      <trkpt lat="45.25758" lon="4.19083">
        <ele>689.96153846154</ele>
        <time>2015-10-03T10:35:43.742Z</time>
      </trkpt>
      <trkpt lat="45.25758" lon="4.19083">
        <ele>689.88</ele>
        <time>2015-10-03T10:35:46.745Z</time>
      </trkpt>
      <trkpt lat="45.25757" lon="4.19082">
        <ele>689.80769230769</ele>
        <time>2015-10-03T10:35:50.735Z</time>
      </trkpt>
      <trkpt lat="45.25756" lon="4.19082">
        <ele>689.76</ele>
        <time>2015-10-03T10:35:52.890Z</time>
      </trkpt>
      <trkpt lat="45.25756" lon="4.19081">
        <ele>689.76923076923</ele>
        <time>2015-10-03T10:35:54.728Z</time>
      </trkpt>
      <trkpt lat="45.25756" lon="4.19081">
        <ele>689.76923076923</ele>
        <time>2015-10-03T10:35:57.730Z</time>
      </trkpt>
      <trkpt lat="45.25755" lon="4.19081">
        <ele>689.76</ele>
        <time>2015-10-03T10:35:58.738Z</time>
      </trkpt>
      <trkpt lat="45.25754" lon="4.19081">
        <ele>689.80769230769</ele>
        <time>2015-10-03T10:36:00.743Z</time>
      </trkpt>
      <trkpt lat="45.25753" lon="4.19082">
        <ele>689.84615384615</ele>
        <time>2015-10-03T10:36:01.743Z</time>
      </trkpt>
      <trkpt lat="45.25752" lon="4.19083">
        <ele>689.80769230769</ele>
        <time>2015-10-03T10:36:02.730Z</time>
      </trkpt>
      <trkpt lat="45.2575" lon="4.19084">
        <ele>689.80769230769</ele>
        <time>2015-10-03T10:36:03.734Z</time>
      </trkpt>
      <trkpt lat="45.25747" lon="4.19086">
        <ele>689.76</ele>
        <time>2015-10-03T10:36:04.735Z</time>
      </trkpt>
      <trkpt lat="45.25744" lon="4.19089">
        <ele>689.72</ele>
        <time>2015-10-03T10:36:05.742Z</time>
      </trkpt>
      <trkpt lat="45.25742" lon="4.19092">
        <ele>689.69230769231</ele>
        <time>2015-10-03T10:36:06.740Z</time>
      </trkpt>
      <trkpt lat="45.25739" lon="4.19096">
        <ele>689.61538461538</ele>
        <time>2015-10-03T10:36:07.729Z</time>
      </trkpt>
      <trkpt lat="45.25737" lon="4.191">
        <ele>689.57692307692</ele>
        <time>2015-10-03T10:36:08.724Z</time>
      </trkpt>
      <trkpt lat="45.25735" lon="4.19103">
        <ele>689.57692307692</ele>
        <time>2015-10-03T10:36:09.733Z</time>
      </trkpt>
      <trkpt lat="45.25733" lon="4.19112">
        <ele>689.64</ele>
        <time>2015-10-03T10:36:11.725Z</time>
      </trkpt>
      <trkpt lat="45.25726" lon="4.1912">
        <ele>689.5</ele>
        <time>2015-10-03T10:36:14.747Z</time>
      </trkpt>
      <trkpt lat="45.25727" lon="4.19124">
        <ele>689.45833333333</ele>
        <time>2015-10-03T10:36:15.748Z</time>
      </trkpt>
      <trkpt lat="45.25727" lon="4.19136">
        <ele>689.45833333333</ele>
        <time>2015-10-03T10:36:16.745Z</time>
      </trkpt>
      <trkpt lat="45.25729" lon="4.19145">
        <ele>689.4</ele>
        <time>2015-10-03T10:36:17.747Z</time>
      </trkpt>
      <trkpt lat="45.2573" lon="4.19149">
        <ele>689.33333333333</ele>
        <time>2015-10-03T10:36:18.756Z</time>
      </trkpt>
      <trkpt lat="45.25729" lon="4.19152">
        <ele>689.16666666667</ele>
        <time>2015-10-03T10:36:19.755Z</time>
      </trkpt>
      <trkpt lat="45.25728" lon="4.19154">
        <ele>689.16666666667</ele>
        <time>2015-10-03T10:36:20.769Z</time>
      </trkpt>
      <trkpt lat="45.25726" lon="4.19156">
        <ele>689.08333333333</ele>
        <time>2015-10-03T10:36:21.814Z</time>
      </trkpt>
      <trkpt lat="45.25722" lon="4.1916">
        <ele>689.04166666667</ele>
        <time>2015-10-03T10:36:23.809Z</time>
      </trkpt>
      <trkpt lat="45.2572" lon="4.19162">
        <ele>689</ele>
        <time>2015-10-03T10:36:24.816Z</time>
      </trkpt>
      <trkpt lat="45.25714" lon="4.19167">
        <ele>688.95833333333</ele>
        <time>2015-10-03T10:36:27.801Z</time>
      </trkpt>
      <trkpt lat="45.25711" lon="4.19168">
        <ele>688.91666666667</ele>
        <time>2015-10-03T10:36:28.817Z</time>
      </trkpt>
      <trkpt lat="45.25705" lon="4.19171">
        <ele>688.95833333333</ele>
        <time>2015-10-03T10:36:30.816Z</time>
      </trkpt>
      <trkpt lat="45.25692" lon="4.19175">
        <ele>689.16666666667</ele>
        <time>2015-10-03T10:36:34.794Z</time>
      </trkpt>
      <trkpt lat="45.25688" lon="4.1918">
        <ele>689.28</ele>
        <time>2015-10-03T10:36:36.837Z</time>
      </trkpt>
      <trkpt lat="45.2568" lon="4.19189">
        <ele>689.68</ele>
        <time>2015-10-03T10:36:40.820Z</time>
      </trkpt>
      <trkpt lat="45.25675" lon="4.19195">
        <ele>689.8</ele>
        <time>2015-10-03T10:36:42.830Z</time>
      </trkpt>
      <trkpt lat="45.25673" lon="4.19198">
        <ele>689.92</ele>
        <time>2015-10-03T10:36:43.832Z</time>
      </trkpt>
      <trkpt lat="45.2567" lon="4.19201">
        <ele>690.12</ele>
        <time>2015-10-03T10:36:44.816Z</time>
      </trkpt>
      <trkpt lat="45.25665" lon="4.19207">
        <ele>690.2</ele>
        <time>2015-10-03T10:36:46.816Z</time>
      </trkpt>
      <trkpt lat="45.25657" lon="4.19213">
        <ele>690.52</ele>
        <time>2015-10-03T10:36:49.822Z</time>
      </trkpt>
      <trkpt lat="45.25654" lon="4.19216">
        <ele>690.64</ele>
        <time>2015-10-03T10:36:50.827Z</time>
      </trkpt>
      <trkpt lat="45.25651" lon="4.19219">
        <ele>690.69230769231</ele>
        <time>2015-10-03T10:36:51.820Z</time>
      </trkpt>
      <trkpt lat="45.25648" lon="4.19222">
        <ele>690.88</ele>
        <time>2015-10-03T10:36:52.833Z</time>
      </trkpt>
      <trkpt lat="45.25645" lon="4.19226">
        <ele>690.96153846154</ele>
        <time>2015-10-03T10:36:53.815Z</time>
      </trkpt>
      <trkpt lat="45.25643" lon="4.19229">
        <ele>691.07692307692</ele>
        <time>2015-10-03T10:36:54.817Z</time>
      </trkpt>
      <trkpt lat="45.2564" lon="4.19229">
        <ele>691.2</ele>
        <time>2015-10-03T10:36:55.829Z</time>
      </trkpt>
      <trkpt lat="45.25637" lon="4.19231">
        <ele>691.36</ele>
        <time>2015-10-03T10:36:56.813Z</time>
      </trkpt>
      <trkpt lat="45.25634" lon="4.19234">
        <ele>691.42307692308</ele>
        <time>2015-10-03T10:36:57.797Z</time>
      </trkpt>
      <trkpt lat="45.25631" lon="4.19236">
        <ele>691.53846153846</ele>
        <time>2015-10-03T10:36:58.801Z</time>
      </trkpt>
      <trkpt lat="45.2563" lon="4.19241">
        <ele>691.72</ele>
        <time>2015-10-03T10:36:59.815Z</time>
      </trkpt>
      <trkpt lat="45.25629" lon="4.19244">
        <ele>691.73076923077</ele>
        <time>2015-10-03T10:37:00.832Z</time>
      </trkpt>
      <trkpt lat="45.25628" lon="4.19249">
        <ele>691.84615384615</ele>
        <time>2015-10-03T10:37:01.831Z</time>
      </trkpt>
      <trkpt lat="45.25626" lon="4.19255">
        <ele>691.84615384615</ele>
        <time>2015-10-03T10:37:02.803Z</time>
      </trkpt>
      <trkpt lat="45.25622" lon="4.19276">
        <ele>692.11538461538</ele>
        <time>2015-10-03T10:37:05.811Z</time>
      </trkpt>
      <trkpt lat="45.2562" lon="4.19282">
        <ele>692.15384615385</ele>
        <time>2015-10-03T10:37:06.804Z</time>
      </trkpt>
      <trkpt lat="45.25619" lon="4.19288">
        <ele>692.19230769231</ele>
        <time>2015-10-03T10:37:07.800Z</time>
      </trkpt>
      <trkpt lat="45.25618" lon="4.19295">
        <ele>692.30769230769</ele>
        <time>2015-10-03T10:37:08.798Z</time>
      </trkpt>
      <trkpt lat="45.25618" lon="4.19299">
        <ele>692.34615384615</ele>
        <time>2015-10-03T10:37:09.804Z</time>
      </trkpt>
      <trkpt lat="45.25616" lon="4.193">
        <ele>692.4</ele>
        <time>2015-10-03T10:37:10.824Z</time>
      </trkpt>
      <trkpt lat="45.25617" lon="4.19313">
        <ele>692.5</ele>
        <time>2015-10-03T10:37:12.833Z</time>
      </trkpt>
      <trkpt lat="45.25617" lon="4.1932">
        <ele>692.41666666667</ele>
        <time>2015-10-03T10:37:13.823Z</time>
      </trkpt>
      <trkpt lat="45.25618" lon="4.19329">
        <ele>692.44</ele>
        <time>2015-10-03T10:37:14.818Z</time>
      </trkpt>
      <trkpt lat="45.25619" lon="4.19335">
        <ele>692.44</ele>
        <time>2015-10-03T10:37:15.805Z</time>
      </trkpt>
      <trkpt lat="45.2562" lon="4.19343">
        <ele>692.4</ele>
        <time>2015-10-03T10:37:16.806Z</time>
      </trkpt>
      <trkpt lat="45.25623" lon="4.19359">
        <ele>692.25</ele>
        <time>2015-10-03T10:37:18.837Z</time>
      </trkpt>
      <trkpt lat="45.25624" lon="4.19376">
        <ele>692.2</ele>
        <time>2015-10-03T10:37:21.791Z</time>
      </trkpt>
      <trkpt lat="45.25625" lon="4.19381">
        <ele>692.16</ele>
        <time>2015-10-03T10:37:22.786Z</time>
      </trkpt>
      <trkpt lat="45.25625" lon="4.19386">
        <ele>692.04166666667</ele>
        <time>2015-10-03T10:37:23.803Z</time>
      </trkpt>
      <trkpt lat="45.25624" lon="4.1939">
        <ele>692.08</ele>
        <time>2015-10-03T10:37:24.805Z</time>
      </trkpt>
      <trkpt lat="45.25623" lon="4.19395">
        <ele>692.04</ele>
        <time>2015-10-03T10:37:25.797Z</time>
      </trkpt>
      <trkpt lat="45.25622" lon="4.19399">
        <ele>692.04</ele>
        <time>2015-10-03T10:37:26.796Z</time>
      </trkpt>
      <trkpt lat="45.25622" lon="4.19404">
        <ele>692</ele>
        <time>2015-10-03T10:37:27.818Z</time>
      </trkpt>
      <trkpt lat="45.25622" lon="4.19408">
        <ele>692.04</ele>
        <time>2015-10-03T10:37:28.781Z</time>
      </trkpt>
      <trkpt lat="45.25622" lon="4.19412">
        <ele>692.04</ele>
        <time>2015-10-03T10:37:29.739Z</time>
      </trkpt>
      <trkpt lat="45.25621" lon="4.19417">
        <ele>692</ele>
        <time>2015-10-03T10:37:30.752Z</time>
      </trkpt>
      <trkpt lat="45.2562" lon="4.19429">
        <ele>692</ele>
        <time>2015-10-03T10:37:33.822Z</time>
      </trkpt>
      <trkpt lat="45.25619" lon="4.19443">
        <ele>692</ele>
        <time>2015-10-03T10:37:36.828Z</time>
      </trkpt>
      <trkpt lat="45.25619" lon="4.19459">
        <ele>692.28</ele>
        <time>2015-10-03T10:37:40.811Z</time>
      </trkpt>
      <trkpt lat="45.25619" lon="4.1947">
        <ele>692.61538461538</ele>
        <time>2015-10-03T10:37:43.835Z</time>
      </trkpt>
      <trkpt lat="45.25619" lon="4.19487">
        <ele>693.24</ele>
        <time>2015-10-03T10:37:47.807Z</time>
      </trkpt>
      <trkpt lat="45.25619" lon="4.19489">
        <ele>693.30769230769</ele>
        <time>2015-10-03T10:37:48.803Z</time>
      </trkpt>
      <trkpt lat="45.25618" lon="4.19492">
        <ele>693.38461538462</ele>
        <time>2015-10-03T10:37:49.787Z</time>
      </trkpt>
      <trkpt lat="45.25617" lon="4.19495">
        <ele>693.52</ele>
        <time>2015-10-03T10:37:50.799Z</time>
      </trkpt>
      <trkpt lat="45.25615" lon="4.19499">
        <ele>693.65384615385</ele>
        <time>2015-10-03T10:37:52.816Z</time>
      </trkpt>
      <trkpt lat="45.25614" lon="4.195">
        <ele>693.8</ele>
        <time>2015-10-03T10:37:53.840Z</time>
      </trkpt>
      <trkpt lat="45.25613" lon="4.19503">
        <ele>693.88</ele>
        <time>2015-10-03T10:37:54.849Z</time>
      </trkpt>
      <trkpt lat="45.25613" lon="4.19506">
        <ele>694.04</ele>
        <time>2015-10-03T10:37:55.866Z</time>
      </trkpt>
      <trkpt lat="45.25612" lon="4.19509">
        <ele>694.16</ele>
        <time>2015-10-03T10:37:56.838Z</time>
      </trkpt>
      <trkpt lat="45.25613" lon="4.1952">
        <ele>694.64</ele>
        <time>2015-10-03T10:37:59.854Z</time>
      </trkpt>
      <trkpt lat="45.25615" lon="4.19534">
        <ele>695</ele>
        <time>2015-10-03T10:38:02.892Z</time>
      </trkpt>
      <trkpt lat="45.25616" lon="4.19543">
        <ele>695.16</ele>
        <time>2015-10-03T10:38:04.867Z</time>
      </trkpt>
      <trkpt lat="45.25616" lon="4.19548">
        <ele>695.32</ele>
        <time>2015-10-03T10:38:05.858Z</time>
      </trkpt>
      <trkpt lat="45.25617" lon="4.19557">
        <ele>695.48</ele>
        <time>2015-10-03T10:38:07.845Z</time>
      </trkpt>
      <trkpt lat="45.25618" lon="4.1956">
        <ele>695.57692307692</ele>
        <time>2015-10-03T10:38:08.786Z</time>
      </trkpt>
      <trkpt lat="45.25619" lon="4.19563">
        <ele>695.69230769231</ele>
        <time>2015-10-03T10:38:09.748Z</time>
      </trkpt>
      <trkpt lat="45.25621" lon="4.19568">
        <ele>695.80769230769</ele>
        <time>2015-10-03T10:38:10.764Z</time>
      </trkpt>
      <trkpt lat="45.25623" lon="4.19572">
        <ele>695.92307692308</ele>
        <time>2015-10-03T10:38:11.767Z</time>
      </trkpt>
      <trkpt lat="45.25626" lon="4.19577">
        <ele>696.15384615385</ele>
        <time>2015-10-03T10:38:13.738Z</time>
      </trkpt>
      <trkpt lat="45.25627" lon="4.1958">
        <ele>696.23076923077</ele>
        <time>2015-10-03T10:38:14.733Z</time>
      </trkpt>
      <trkpt lat="45.25629" lon="4.19584">
        <ele>696.38461538462</ele>
        <time>2015-10-03T10:38:15.744Z</time>
      </trkpt>
      <trkpt lat="45.25634" lon="4.19594">
        <ele>696.80769230769</ele>
        <time>2015-10-03T10:38:18.830Z</time>
      </trkpt>
      <trkpt lat="45.25636" lon="4.196">
        <ele>697.07692307692</ele>
        <time>2015-10-03T10:38:20.794Z</time>
      </trkpt>
      <trkpt lat="45.25636" lon="4.19603">
        <ele>697.19230769231</ele>
        <time>2015-10-03T10:38:21.756Z</time>
      </trkpt>
      <trkpt lat="45.2564" lon="4.19614">
        <ele>697.5</ele>
        <time>2015-10-03T10:38:24.805Z</time>
      </trkpt>
      <trkpt lat="45.2564" lon="4.19616">
        <ele>697.65384615385</ele>
        <time>2015-10-03T10:38:25.782Z</time>
      </trkpt>
      <trkpt lat="45.25641" lon="4.19618">
        <ele>697.76923076923</ele>
        <time>2015-10-03T10:38:26.761Z</time>
      </trkpt>
      <trkpt lat="45.25643" lon="4.19623">
        <ele>697.92307692308</ele>
        <time>2015-10-03T10:38:28.823Z</time>
      </trkpt>
      <trkpt lat="45.25647" lon="4.19629">
        <ele>698.15384615385</ele>
        <time>2015-10-03T10:38:30.782Z</time>
      </trkpt>
      <trkpt lat="45.25648" lon="4.1963">
        <ele>698.26923076923</ele>
        <time>2015-10-03T10:38:31.756Z</time>
      </trkpt>
      <trkpt lat="45.25649" lon="4.19632">
        <ele>698.46153846154</ele>
        <time>2015-10-03T10:38:32.754Z</time>
      </trkpt>
      <trkpt lat="45.25652" lon="4.19635">
        <ele>698.61538461538</ele>
        <time>2015-10-03T10:38:33.755Z</time>
      </trkpt>
      <trkpt lat="45.25658" lon="4.19642">
        <ele>698.92</ele>
        <time>2015-10-03T10:38:36.801Z</time>
      </trkpt>
      <trkpt lat="45.25664" lon="4.19648">
        <ele>699.32</ele>
        <time>2015-10-03T10:38:39.805Z</time>
      </trkpt>
      <trkpt lat="45.25665" lon="4.19651">
        <ele>699.44</ele>
        <time>2015-10-03T10:38:40.819Z</time>
      </trkpt>
      <trkpt lat="45.25667" lon="4.19653">
        <ele>699.6</ele>
        <time>2015-10-03T10:38:41.831Z</time>
      </trkpt>
      <trkpt lat="45.2567" lon="4.19658">
        <ele>699.80769230769</ele>
        <time>2015-10-03T10:38:43.814Z</time>
      </trkpt>
      <trkpt lat="45.25673" lon="4.19664">
        <ele>700.32</ele>
        <time>2015-10-03T10:38:46.823Z</time>
      </trkpt>
      <trkpt lat="45.25674" lon="4.19669">
        <ele>700.57692307692</ele>
        <time>2015-10-03T10:38:48.762Z</time>
      </trkpt>
      <trkpt lat="45.25673" lon="4.19669">
        <ele>700.73076923077</ele>
        <time>2015-10-03T10:38:49.737Z</time>
      </trkpt>
      <trkpt lat="45.25673" lon="4.19671">
        <ele>700.88461538462</ele>
        <time>2015-10-03T10:38:50.732Z</time>
      </trkpt>
      <trkpt lat="45.25674" lon="4.19672">
        <ele>701.03846153846</ele>
        <time>2015-10-03T10:38:51.740Z</time>
      </trkpt>
      <trkpt lat="45.25674" lon="4.19673">
        <ele>701.23076923077</ele>
        <time>2015-10-03T10:38:52.742Z</time>
      </trkpt>
      <trkpt lat="45.25675" lon="4.19675">
        <ele>701.42307692308</ele>
        <time>2015-10-03T10:38:53.739Z</time>
      </trkpt>
      <trkpt lat="45.25679" lon="4.1968">
        <ele>701.84615384615</ele>
        <time>2015-10-03T10:38:55.769Z</time>
      </trkpt>
      <trkpt lat="45.25681" lon="4.19682">
        <ele>702.12</ele>
        <time>2015-10-03T10:38:56.814Z</time>
      </trkpt>
      <trkpt lat="45.25689" lon="4.1969">
        <ele>702.84615384615</ele>
        <time>2015-10-03T10:39:00.806Z</time>
      </trkpt>
      <trkpt lat="45.25695" lon="4.19695">
        <ele>703.64</ele>
        <time>2015-10-03T10:39:03.843Z</time>
      </trkpt>
      <trkpt lat="45.25698" lon="4.19699">
        <ele>703.96153846154</ele>
        <time>2015-10-03T10:39:05.816Z</time>
      </trkpt>
      <trkpt lat="45.25703" lon="4.19704">
        <ele>704.72</ele>
        <time>2015-10-03T10:39:08.828Z</time>
      </trkpt>
      <trkpt lat="45.25709" lon="4.19708">
        <ele>705.28</ele>
        <time>2015-10-03T10:39:12.785Z</time>
      </trkpt>
      <trkpt lat="45.25711" lon="4.19708">
        <ele>705.58333333333</ele>
        <time>2015-10-03T10:39:13.794Z</time>
      </trkpt>
      <trkpt lat="45.25713" lon="4.19708">
        <ele>705.83333333333</ele>
        <time>2015-10-03T10:39:14.819Z</time>
      </trkpt>
      <trkpt lat="45.25715" lon="4.19708">
        <ele>706.08333333333</ele>
        <time>2015-10-03T10:39:15.826Z</time>
      </trkpt>
      <trkpt lat="45.25716" lon="4.19708">
        <ele>706.29166666667</ele>
        <time>2015-10-03T10:39:16.817Z</time>
      </trkpt>
      <trkpt lat="45.25724" lon="4.1971">
        <ele>707.25</ele>
        <time>2015-10-03T10:39:19.814Z</time>
      </trkpt>
      <trkpt lat="45.25729" lon="4.19711">
        <ele>707.875</ele>
        <time>2015-10-03T10:39:21.863Z</time>
      </trkpt>
      <trkpt lat="45.25731" lon="4.19711">
        <ele>708.125</ele>
        <time>2015-10-03T10:39:22.852Z</time>
      </trkpt>
      <trkpt lat="45.25734" lon="4.1971">
        <ele>708.375</ele>
        <time>2015-10-03T10:39:23.822Z</time>
      </trkpt>
      <trkpt lat="45.25736" lon="4.19709">
        <ele>708.625</ele>
        <time>2015-10-03T10:39:24.837Z</time>
      </trkpt>
      <trkpt lat="45.25738" lon="4.19707">
        <ele>708.91666666667</ele>
        <time>2015-10-03T10:39:25.824Z</time>
      </trkpt>
      <trkpt lat="45.2574" lon="4.19706">
        <ele>709.20833333333</ele>
        <time>2015-10-03T10:39:26.825Z</time>
      </trkpt>
      <trkpt lat="45.25741" lon="4.19704">
        <ele>709.36</ele>
        <time>2015-10-03T10:39:27.819Z</time>
      </trkpt>
      <trkpt lat="45.25745" lon="4.19698">
        <ele>710.29166666667</ele>
        <time>2015-10-03T10:39:30.828Z</time>
      </trkpt>
      <trkpt lat="45.25748" lon="4.19694">
        <ele>710.6</ele>
        <time>2015-10-03T10:39:32.810Z</time>
      </trkpt>
      <trkpt lat="45.25748" lon="4.19694">
        <ele>710.88</ele>
        <time>2015-10-03T10:39:33.815Z</time>
      </trkpt>
      <trkpt lat="45.25749" lon="4.19693">
        <ele>711.36</ele>
        <time>2015-10-03T10:39:35.743Z</time>
      </trkpt>
      <trkpt lat="45.2575" lon="4.19693">
        <ele>711.56</ele>
        <time>2015-10-03T10:39:36.738Z</time>
      </trkpt>
      <trkpt lat="45.2575" lon="4.19693">
        <ele>711.65384615385</ele>
        <time>2015-10-03T10:39:37.738Z</time>
      </trkpt>
      <trkpt lat="45.25751" lon="4.19694">
        <ele>711.84615384615</ele>
        <time>2015-10-03T10:39:38.739Z</time>
      </trkpt>
      <trkpt lat="45.25752" lon="4.19694">
        <ele>712.03846153846</ele>
        <time>2015-10-03T10:39:39.739Z</time>
      </trkpt>
      <trkpt lat="45.25754" lon="4.19697">
        <ele>712.34615384615</ele>
        <time>2015-10-03T10:39:41.749Z</time>
      </trkpt>
      <trkpt lat="45.25756" lon="4.19701">
        <ele>712.61538461538</ele>
        <time>2015-10-03T10:39:43.749Z</time>
      </trkpt>
      <trkpt lat="45.25757" lon="4.19703">
        <ele>712.69230769231</ele>
        <time>2015-10-03T10:39:44.763Z</time>
      </trkpt>
      <trkpt lat="45.25758" lon="4.19706">
        <ele>712.76923076923</ele>
        <time>2015-10-03T10:39:45.781Z</time>
      </trkpt>
      <trkpt lat="45.2576" lon="4.1971">
        <ele>712.88461538462</ele>
        <time>2015-10-03T10:39:47.791Z</time>
      </trkpt>
      <trkpt lat="45.25761" lon="4.19712">
        <ele>713</ele>
        <time>2015-10-03T10:39:48.753Z</time>
      </trkpt>
      <trkpt lat="45.25761" lon="4.19713">
        <ele>713.19230769231</ele>
        <time>2015-10-03T10:39:49.784Z</time>
      </trkpt>
      <trkpt lat="45.25762" lon="4.19715">
        <ele>713.34615384615</ele>
        <time>2015-10-03T10:39:50.778Z</time>
      </trkpt>
      <trkpt lat="45.25762" lon="4.19717">
        <ele>713.38461538462</ele>
        <time>2015-10-03T10:39:51.760Z</time>
      </trkpt>
      <trkpt lat="45.25763" lon="4.19718">
        <ele>713.5</ele>
        <time>2015-10-03T10:39:52.745Z</time>
      </trkpt>
      <trkpt lat="45.25765" lon="4.19721">
        <ele>713.69230769231</ele>
        <time>2015-10-03T10:39:54.764Z</time>
      </trkpt>
      <trkpt lat="45.25767" lon="4.19725">
        <ele>713.80769230769</ele>
        <time>2015-10-03T10:39:56.747Z</time>
      </trkpt>
      <trkpt lat="45.25769" lon="4.19728">
        <ele>714.03846153846</ele>
        <time>2015-10-03T10:39:58.750Z</time>
      </trkpt>
      <trkpt lat="45.2577" lon="4.1973">
        <ele>714.11538461538</ele>
        <time>2015-10-03T10:39:59.745Z</time>
      </trkpt>
      <trkpt lat="45.2577" lon="4.19731">
        <ele>714.28</ele>
        <time>2015-10-03T10:40:00.745Z</time>
      </trkpt>
      <trkpt lat="45.25771" lon="4.19732">
        <ele>714.44</ele>
        <time>2015-10-03T10:40:01.746Z</time>
      </trkpt>
      <trkpt lat="45.25773" lon="4.19734">
        <ele>714.52</ele>
        <time>2015-10-03T10:40:02.766Z</time>
      </trkpt>
      <trkpt lat="45.25774" lon="4.19737">
        <ele>714.72</ele>
        <time>2015-10-03T10:40:03.764Z</time>
      </trkpt>
      <trkpt lat="45.25775" lon="4.19739">
        <ele>714.84</ele>
        <time>2015-10-03T10:40:04.786Z</time>
      </trkpt>
      <trkpt lat="45.2578" lon="4.19747">
        <ele>715.24</ele>
        <time>2015-10-03T10:40:07.836Z</time>
      </trkpt>
      <trkpt lat="45.25783" lon="4.19754">
        <ele>715.64</ele>
        <time>2015-10-03T10:40:10.824Z</time>
      </trkpt>
      <trkpt lat="45.25784" lon="4.19757">
        <ele>715.76</ele>
        <time>2015-10-03T10:40:11.817Z</time>
      </trkpt>
      <trkpt lat="45.25786" lon="4.19762">
        <ele>716.08</ele>
        <time>2015-10-03T10:40:13.842Z</time>
      </trkpt>
      <trkpt lat="45.25788" lon="4.1977">
        <ele>716.24</ele>
        <time>2015-10-03T10:40:16.829Z</time>
      </trkpt>
      <trkpt lat="45.25788" lon="4.19772">
        <ele>716.28</ele>
        <time>2015-10-03T10:40:17.865Z</time>
      </trkpt>
      <trkpt lat="45.25788" lon="4.19774">
        <ele>716.36</ele>
        <time>2015-10-03T10:40:18.871Z</time>
      </trkpt>
      <trkpt lat="45.25787" lon="4.19781">
        <ele>716.72</ele>
        <time>2015-10-03T10:40:21.855Z</time>
      </trkpt>
      <trkpt lat="45.25786" lon="4.19786">
        <ele>716.92</ele>
        <time>2015-10-03T10:40:23.845Z</time>
      </trkpt>
      <trkpt lat="45.25785" lon="4.1979">
        <ele>716.96</ele>
        <time>2015-10-03T10:40:25.875Z</time>
      </trkpt>
      <trkpt lat="45.25784" lon="4.19792">
        <ele>717</ele>
        <time>2015-10-03T10:40:26.840Z</time>
      </trkpt>
      <trkpt lat="45.25781" lon="4.19797">
        <ele>717.16</ele>
        <time>2015-10-03T10:40:28.852Z</time>
      </trkpt>
      <trkpt lat="45.2578" lon="4.19806">
        <ele>717.38461538462</ele>
        <time>2015-10-03T10:40:31.859Z</time>
      </trkpt>
      <trkpt lat="45.25779" lon="4.19817">
        <ele>717.72</ele>
        <time>2015-10-03T10:40:35.850Z</time>
      </trkpt>
      <trkpt lat="45.25779" lon="4.1982">
        <ele>717.84</ele>
        <time>2015-10-03T10:40:36.862Z</time>
      </trkpt>
      <trkpt lat="45.25778" lon="4.19825">
        <ele>718.07692307692</ele>
        <time>2015-10-03T10:40:38.820Z</time>
      </trkpt>
      <trkpt lat="45.25778" lon="4.19828">
        <ele>718.15384615385</ele>
        <time>2015-10-03T10:40:39.816Z</time>
      </trkpt>
      <trkpt lat="45.25778" lon="4.19831">
        <ele>718.42307692308</ele>
        <time>2015-10-03T10:40:41.761Z</time>
      </trkpt>
      <trkpt lat="45.25777" lon="4.19833">
        <ele>718.46153846154</ele>
        <time>2015-10-03T10:40:42.778Z</time>
      </trkpt>
      <trkpt lat="45.25776" lon="4.19839">
        <ele>718.6</ele>
        <time>2015-10-03T10:40:44.846Z</time>
      </trkpt>
      <trkpt lat="45.25778" lon="4.19841">
        <ele>718.65384615385</ele>
        <time>2015-10-03T10:40:45.833Z</time>
      </trkpt>
      <trkpt lat="45.2578" lon="4.19842">
        <ele>718.76923076923</ele>
        <time>2015-10-03T10:40:46.803Z</time>
      </trkpt>
      <trkpt lat="45.25782" lon="4.19841">
        <ele>718.92307692308</ele>
        <time>2015-10-03T10:40:47.779Z</time>
      </trkpt>
      <trkpt lat="45.25783" lon="4.19839">
        <ele>719.03846153846</ele>
        <time>2015-10-03T10:40:48.741Z</time>
      </trkpt>
      <trkpt lat="45.25784" lon="4.19838">
        <ele>719.11538461538</ele>
        <time>2015-10-03T10:40:49.749Z</time>
      </trkpt>
      <trkpt lat="45.25784" lon="4.19836">
        <ele>719.23076923077</ele>
        <time>2015-10-03T10:40:50.754Z</time>
      </trkpt>
      <trkpt lat="45.25784" lon="4.19835">
        <ele>719.30769230769</ele>
        <time>2015-10-03T10:40:51.748Z</time>
      </trkpt>
      <trkpt lat="45.25783" lon="4.19833">
        <ele>719.34615384615</ele>
        <time>2015-10-03T10:40:53.736Z</time>
      </trkpt>
      <trkpt lat="45.25782" lon="4.19833">
        <ele>719.38461538462</ele>
        <time>2015-10-03T10:40:54.748Z</time>
      </trkpt>
      <trkpt lat="45.25781" lon="4.19834">
        <ele>719.53846153846</ele>
        <time>2015-10-03T10:40:55.768Z</time>
      </trkpt>
      <trkpt lat="45.2578" lon="4.19836">
        <ele>719.61538461538</ele>
        <time>2015-10-03T10:40:56.776Z</time>
      </trkpt>
      <trkpt lat="45.25778" lon="4.19839">
        <ele>719.69230769231</ele>
        <time>2015-10-03T10:40:57.821Z</time>
      </trkpt>
      <trkpt lat="45.25777" lon="4.19842">
        <ele>719.76</ele>
        <time>2015-10-03T10:40:58.889Z</time>
      </trkpt>
      <trkpt lat="45.25777" lon="4.19844">
        <ele>719.84</ele>
        <time>2015-10-03T10:40:59.877Z</time>
      </trkpt>
      <trkpt lat="45.25773" lon="4.19846">
        <ele>719.96</ele>
        <time>2015-10-03T10:41:01.863Z</time>
      </trkpt>
      <trkpt lat="45.25771" lon="4.19846">
        <ele>720</ele>
        <time>2015-10-03T10:41:02.826Z</time>
      </trkpt>
      <trkpt lat="45.25766" lon="4.19849">
        <ele>720.07692307692</ele>
        <time>2015-10-03T10:41:05.776Z</time>
      </trkpt>
      <trkpt lat="45.25766" lon="4.1985">
        <ele>720.15384615385</ele>
        <time>2015-10-03T10:41:06.754Z</time>
      </trkpt>
      <trkpt lat="45.25766" lon="4.19851">
        <ele>720.26923076923</ele>
        <time>2015-10-03T10:41:07.734Z</time>
      </trkpt>
      <trkpt lat="45.25767" lon="4.19853">
        <ele>720.38461538462</ele>
        <time>2015-10-03T10:41:08.757Z</time>
      </trkpt>
      <trkpt lat="45.25768" lon="4.19855">
        <ele>720.5</ele>
        <time>2015-10-03T10:41:09.785Z</time>
      </trkpt>
      <trkpt lat="45.25768" lon="4.19858">
        <ele>720.57692307692</ele>
        <time>2015-10-03T10:41:10.800Z</time>
      </trkpt>
      <trkpt lat="45.25767" lon="4.19864">
        <ele>720.66666666667</ele>
        <time>2015-10-03T10:41:12.848Z</time>
      </trkpt>
      <trkpt lat="45.25766" lon="4.19866">
        <ele>720.75</ele>
        <time>2015-10-03T10:41:13.843Z</time>
      </trkpt>
      <trkpt lat="45.25764" lon="4.19868">
        <ele>720.875</ele>
        <time>2015-10-03T10:41:14.825Z</time>
      </trkpt>
      <trkpt lat="45.25763" lon="4.19871">
        <ele>721.04166666667</ele>
        <time>2015-10-03T10:41:15.835Z</time>
      </trkpt>
      <trkpt lat="45.25762" lon="4.19875">
        <ele>721.16666666667</ele>
        <time>2015-10-03T10:41:16.840Z</time>
      </trkpt>
      <trkpt lat="45.25761" lon="4.1988">
        <ele>721.5</ele>
        <time>2015-10-03T10:41:18.837Z</time>
      </trkpt>
      <trkpt lat="45.2576" lon="4.19883">
        <ele>721.66666666667</ele>
        <time>2015-10-03T10:41:19.804Z</time>
      </trkpt>
      <trkpt lat="45.25758" lon="4.19887">
        <ele>721.91666666667</ele>
        <time>2015-10-03T10:41:21.829Z</time>
      </trkpt>
      <trkpt lat="45.25758" lon="4.19891">
        <ele>722.16</ele>
        <time>2015-10-03T10:41:23.831Z</time>
      </trkpt>
      <trkpt lat="45.25757" lon="4.19894">
        <ele>722.36</ele>
        <time>2015-10-03T10:41:24.825Z</time>
      </trkpt>
      <trkpt lat="45.25756" lon="4.19896">
        <ele>722.52</ele>
        <time>2015-10-03T10:41:25.809Z</time>
      </trkpt>
      <trkpt lat="45.25755" lon="4.19901">
        <ele>722.95833333333</ele>
        <time>2015-10-03T10:41:27.832Z</time>
      </trkpt>
      <trkpt lat="45.25754" lon="4.19904">
        <ele>723.20833333333</ele>
        <time>2015-10-03T10:41:28.859Z</time>
      </trkpt>
      <trkpt lat="45.25753" lon="4.19912">
        <ele>723.79166666667</ele>
        <time>2015-10-03T10:41:31.839Z</time>
      </trkpt>
      <trkpt lat="45.25754" lon="4.19915">
        <ele>723.95833333333</ele>
        <time>2015-10-03T10:41:32.848Z</time>
      </trkpt>
      <trkpt lat="45.25755" lon="4.19917">
        <ele>724.125</ele>
        <time>2015-10-03T10:41:33.851Z</time>
      </trkpt>
      <trkpt lat="45.25758" lon="4.19922">
        <ele>724.54166666667</ele>
        <time>2015-10-03T10:41:35.807Z</time>
      </trkpt>
      <trkpt lat="45.25759" lon="4.19925">
        <ele>724.64</ele>
        <time>2015-10-03T10:41:36.804Z</time>
      </trkpt>
      <trkpt lat="45.2576" lon="4.19926">
        <ele>724.73076923077</ele>
        <time>2015-10-03T10:41:37.813Z</time>
      </trkpt>
      <trkpt lat="45.25764" lon="4.1993">
        <ele>725.04</ele>
        <time>2015-10-03T10:41:39.833Z</time>
      </trkpt>
      <trkpt lat="45.25765" lon="4.19931">
        <ele>725.07692307692</ele>
        <time>2015-10-03T10:41:40.813Z</time>
      </trkpt>
      <trkpt lat="45.25765" lon="4.19931">
        <ele>725.15384615385</ele>
        <time>2015-10-03T10:41:41.774Z</time>
      </trkpt>
      <trkpt lat="45.25765" lon="4.19933">
        <ele>725.34615384615</ele>
        <time>2015-10-03T10:41:42.771Z</time>
      </trkpt>
      <trkpt lat="45.25765" lon="4.19936">
        <ele>725.53846153846</ele>
        <time>2015-10-03T10:41:43.813Z</time>
      </trkpt>
      <trkpt lat="45.25766" lon="4.19942">
        <ele>725.80769230769</ele>
        <time>2015-10-03T10:41:45.807Z</time>
      </trkpt>
      <trkpt lat="45.25765" lon="4.19944">
        <ele>725.88461538462</ele>
        <time>2015-10-03T10:41:46.818Z</time>
      </trkpt>
      <trkpt lat="45.25763" lon="4.19947">
        <ele>726</ele>
        <time>2015-10-03T10:41:47.809Z</time>
      </trkpt>
      <trkpt lat="45.25762" lon="4.19948">
        <ele>726.16</ele>
        <time>2015-10-03T10:41:48.838Z</time>
      </trkpt>
      <trkpt lat="45.2576" lon="4.19949">
        <ele>726.16</ele>
        <time>2015-10-03T10:41:49.842Z</time>
      </trkpt>
      <trkpt lat="45.25758" lon="4.1995">
        <ele>726.24</ele>
        <time>2015-10-03T10:41:50.826Z</time>
      </trkpt>
      <trkpt lat="45.25757" lon="4.19952">
        <ele>726.23076923077</ele>
        <time>2015-10-03T10:41:51.814Z</time>
      </trkpt>
      <trkpt lat="45.25756" lon="4.19954">
        <ele>726.23076923077</ele>
        <time>2015-10-03T10:41:52.812Z</time>
      </trkpt>
      <trkpt lat="45.25754" lon="4.19956">
        <ele>726.23076923077</ele>
        <time>2015-10-03T10:41:53.809Z</time>
      </trkpt>
      <trkpt lat="45.25751" lon="4.19958">
        <ele>726.19230769231</ele>
        <time>2015-10-03T10:41:54.812Z</time>
      </trkpt>
      <trkpt lat="45.25747" lon="4.19959">
        <ele>726.24</ele>
        <time>2015-10-03T10:41:55.845Z</time>
      </trkpt>
      <trkpt lat="45.25743" lon="4.1996">
        <ele>726.2</ele>
        <time>2015-10-03T10:41:56.851Z</time>
      </trkpt>
      <trkpt lat="45.25736" lon="4.19962">
        <ele>726.19230769231</ele>
        <time>2015-10-03T10:41:58.812Z</time>
      </trkpt>
      <trkpt lat="45.25726" lon="4.19968">
        <ele>726.08</ele>
        <time>2015-10-03T10:42:01.821Z</time>
      </trkpt>
      <trkpt lat="45.25722" lon="4.1997">
        <ele>726.04</ele>
        <time>2015-10-03T10:42:02.848Z</time>
      </trkpt>
      <trkpt lat="45.2571" lon="4.19979">
        <ele>726.16</ele>
        <time>2015-10-03T10:42:06.820Z</time>
      </trkpt>
      <trkpt lat="45.25709" lon="4.19983">
        <ele>726.16</ele>
        <time>2015-10-03T10:42:07.813Z</time>
      </trkpt>
      <trkpt lat="45.25708" lon="4.19987">
        <ele>726.12</ele>
        <time>2015-10-03T10:42:08.833Z</time>
      </trkpt>
      <trkpt lat="45.25704" lon="4.2">
        <ele>726.11538461538</ele>
        <time>2015-10-03T10:42:11.798Z</time>
      </trkpt>
      <trkpt lat="45.25702" lon="4.20002">
        <ele>726.16</ele>
        <time>2015-10-03T10:42:12.814Z</time>
      </trkpt>
      <trkpt lat="45.25698" lon="4.20009">
        <ele>726.23076923077</ele>
        <time>2015-10-03T10:42:14.809Z</time>
      </trkpt>
      <trkpt lat="45.25696" lon="4.20012">
        <ele>726.36</ele>
        <time>2015-10-03T10:42:15.838Z</time>
      </trkpt>
      <trkpt lat="45.25695" lon="4.20015">
        <ele>726.42307692308</ele>
        <time>2015-10-03T10:42:16.787Z</time>
      </trkpt>
      <trkpt lat="45.25693" lon="4.20018">
        <ele>726.46153846154</ele>
        <time>2015-10-03T10:42:17.757Z</time>
      </trkpt>
      <trkpt lat="45.25688" lon="4.20025">
        <ele>726.8</ele>
        <time>2015-10-03T10:42:19.841Z</time>
      </trkpt>
      <trkpt lat="45.25686" lon="4.20029">
        <ele>726.88</ele>
        <time>2015-10-03T10:42:20.846Z</time>
      </trkpt>
      <trkpt lat="45.25684" lon="4.20033">
        <ele>727.08</ele>
        <time>2015-10-03T10:42:21.857Z</time>
      </trkpt>
      <trkpt lat="45.25683" lon="4.20036">
        <ele>727.19230769231</ele>
        <time>2015-10-03T10:42:22.829Z</time>
      </trkpt>
      <trkpt lat="45.25682" lon="4.2004">
        <ele>727.26923076923</ele>
        <time>2015-10-03T10:42:23.807Z</time>
      </trkpt>
      <trkpt lat="45.25679" lon="4.20043">
        <ele>727.44</ele>
        <time>2015-10-03T10:42:24.820Z</time>
      </trkpt>
      <trkpt lat="45.25677" lon="4.20045">
        <ele>727.56</ele>
        <time>2015-10-03T10:42:25.838Z</time>
      </trkpt>
      <trkpt lat="45.25673" lon="4.2005">
        <ele>727.69230769231</ele>
        <time>2015-10-03T10:42:27.828Z</time>
      </trkpt>
      <trkpt lat="45.25671" lon="4.20053">
        <ele>727.84</ele>
        <time>2015-10-03T10:42:28.865Z</time>
      </trkpt>
      <trkpt lat="45.25671" lon="4.20056">
        <ele>727.92307692308</ele>
        <time>2015-10-03T10:42:29.839Z</time>
      </trkpt>
      <trkpt lat="45.25669" lon="4.20058">
        <ele>728.12</ele>
        <time>2015-10-03T10:42:30.835Z</time>
      </trkpt>
      <trkpt lat="45.25667" lon="4.2006">
        <ele>728.2</ele>
        <time>2015-10-03T10:42:31.826Z</time>
      </trkpt>
      <trkpt lat="45.25665" lon="4.20062">
        <ele>728.26923076923</ele>
        <time>2015-10-03T10:42:32.808Z</time>
      </trkpt>
      <trkpt lat="45.25661" lon="4.20066">
        <ele>728.52</ele>
        <time>2015-10-03T10:42:34.844Z</time>
      </trkpt>
      <trkpt lat="45.25658" lon="4.20067">
        <ele>728.64</ele>
        <time>2015-10-03T10:42:35.827Z</time>
      </trkpt>
      <trkpt lat="45.25655" lon="4.20067">
        <ele>728.84</ele>
        <time>2015-10-03T10:42:36.830Z</time>
      </trkpt>
      <trkpt lat="45.2565" lon="4.20069">
        <ele>729.08</ele>
        <time>2015-10-03T10:42:38.817Z</time>
      </trkpt>
      <trkpt lat="45.25648" lon="4.20072">
        <ele>729.16</ele>
        <time>2015-10-03T10:42:39.819Z</time>
      </trkpt>
      <trkpt lat="45.25648" lon="4.20075">
        <ele>729.19230769231</ele>
        <time>2015-10-03T10:42:40.817Z</time>
      </trkpt>
      <trkpt lat="45.25648" lon="4.20079">
        <ele>729.36</ele>
        <time>2015-10-03T10:42:41.843Z</time>
      </trkpt>
      <trkpt lat="45.25648" lon="4.20083">
        <ele>729.52</ele>
        <time>2015-10-03T10:42:42.834Z</time>
      </trkpt>
      <trkpt lat="45.25649" lon="4.2009">
        <ele>729.61538461538</ele>
        <time>2015-10-03T10:42:44.824Z</time>
      </trkpt>
      <trkpt lat="45.25649" lon="4.20094">
        <ele>729.76</ele>
        <time>2015-10-03T10:42:45.865Z</time>
      </trkpt>
      <trkpt lat="45.25648" lon="4.20097">
        <ele>729.8</ele>
        <time>2015-10-03T10:42:46.858Z</time>
      </trkpt>
      <trkpt lat="45.25647" lon="4.20099">
        <ele>729.84</ele>
        <time>2015-10-03T10:42:47.847Z</time>
      </trkpt>
      <trkpt lat="45.25644" lon="4.20108">
        <ele>730.03846153846</ele>
        <time>2015-10-03T10:42:50.805Z</time>
      </trkpt>
      <trkpt lat="45.25645" lon="4.20112">
        <ele>730.15384615385</ele>
        <time>2015-10-03T10:42:51.814Z</time>
      </trkpt>
      <trkpt lat="45.25646" lon="4.20115">
        <ele>730.36</ele>
        <time>2015-10-03T10:42:52.858Z</time>
      </trkpt>
      <trkpt lat="45.25647" lon="4.20117">
        <ele>730.42307692308</ele>
        <time>2015-10-03T10:42:53.860Z</time>
      </trkpt>
      <trkpt lat="45.25646" lon="4.20119">
        <ele>730.48</ele>
        <time>2015-10-03T10:42:54.843Z</time>
      </trkpt>
      <trkpt lat="45.25644" lon="4.20121">
        <ele>730.56</ele>
        <time>2015-10-03T10:42:55.837Z</time>
      </trkpt>
      <trkpt lat="45.25642" lon="4.20123">
        <ele>730.68</ele>
        <time>2015-10-03T10:42:56.830Z</time>
      </trkpt>
      <trkpt lat="45.25635" lon="4.20126">
        <ele>730.84615384615</ele>
        <time>2015-10-03T10:42:59.821Z</time>
      </trkpt>
      <trkpt lat="45.25634" lon="4.20128">
        <ele>731.04</ele>
        <time>2015-10-03T10:43:00.830Z</time>
      </trkpt>
      <trkpt lat="45.25633" lon="4.20131">
        <ele>731.11538461538</ele>
        <time>2015-10-03T10:43:01.799Z</time>
      </trkpt>
      <trkpt lat="45.25631" lon="4.20136">
        <ele>731.36</ele>
        <time>2015-10-03T10:43:03.854Z</time>
      </trkpt>
      <trkpt lat="45.2563" lon="4.20137">
        <ele>731.48</ele>
        <time>2015-10-03T10:43:04.825Z</time>
      </trkpt>
      <trkpt lat="45.25629" lon="4.20138">
        <ele>731.5</ele>
        <time>2015-10-03T10:43:05.799Z</time>
      </trkpt>
      <trkpt lat="45.25628" lon="4.2014">
        <ele>731.65384615385</ele>
        <time>2015-10-03T10:43:06.805Z</time>
      </trkpt>
      <trkpt lat="45.25628" lon="4.20143">
        <ele>731.76923076923</ele>
        <time>2015-10-03T10:43:07.816Z</time>
      </trkpt>
      <trkpt lat="45.25627" lon="4.20147">
        <ele>731.88</ele>
        <time>2015-10-03T10:43:08.859Z</time>
      </trkpt>
      <trkpt lat="45.25627" lon="4.20149">
        <ele>731.96</ele>
        <time>2015-10-03T10:43:09.847Z</time>
      </trkpt>
      <trkpt lat="45.25628" lon="4.20152">
        <ele>732.03846153846</ele>
        <time>2015-10-03T10:43:10.846Z</time>
      </trkpt>
      <trkpt lat="45.25631" lon="4.20165">
        <ele>732.4</ele>
        <time>2015-10-03T10:43:14.779Z</time>
      </trkpt>
      <trkpt lat="45.25631" lon="4.20167">
        <ele>732.56</ele>
        <time>2015-10-03T10:43:15.781Z</time>
      </trkpt>
      <trkpt lat="45.2563" lon="4.2017">
        <ele>732.64</ele>
        <time>2015-10-03T10:43:16.776Z</time>
      </trkpt>
      <trkpt lat="45.25629" lon="4.20172">
        <ele>732.72</ele>
        <time>2015-10-03T10:43:17.775Z</time>
      </trkpt>
      <trkpt lat="45.25629" lon="4.20175">
        <ele>732.8</ele>
        <time>2015-10-03T10:43:18.778Z</time>
      </trkpt>
      <trkpt lat="45.25629" lon="4.2018">
        <ele>733.12</ele>
        <time>2015-10-03T10:43:20.778Z</time>
      </trkpt>
      <trkpt lat="45.2563" lon="4.20185">
        <ele>733.36</ele>
        <time>2015-10-03T10:43:22.811Z</time>
      </trkpt>
      <trkpt lat="45.25631" lon="4.2019">
        <ele>733.64</ele>
        <time>2015-10-03T10:43:24.800Z</time>
      </trkpt>
      <trkpt lat="45.25631" lon="4.20196">
        <ele>733.875</ele>
        <time>2015-10-03T10:43:26.816Z</time>
      </trkpt>
      <trkpt lat="45.25629" lon="4.20203">
        <ele>734.04</ele>
        <time>2015-10-03T10:43:29.748Z</time>
      </trkpt>
      <trkpt lat="45.25629" lon="4.20204">
        <ele>734.12</ele>
        <time>2015-10-03T10:43:30.733Z</time>
      </trkpt>
      <trkpt lat="45.25629" lon="4.20207">
        <ele>734.2</ele>
        <time>2015-10-03T10:43:31.730Z</time>
      </trkpt>
      <trkpt lat="45.25629" lon="4.2021">
        <ele>734.28</ele>
        <time>2015-10-03T10:43:32.764Z</time>
      </trkpt>
      <trkpt lat="45.2563" lon="4.20212">
        <ele>734.32</ele>
        <time>2015-10-03T10:43:33.770Z</time>
      </trkpt>
      <trkpt lat="45.25631" lon="4.20214">
        <ele>734.44</ele>
        <time>2015-10-03T10:43:34.782Z</time>
      </trkpt>
      <trkpt lat="45.25631" lon="4.20216">
        <ele>734.56</ele>
        <time>2015-10-03T10:43:35.785Z</time>
      </trkpt>
      <trkpt lat="45.2563" lon="4.20218">
        <ele>734.6</ele>
        <time>2015-10-03T10:43:36.771Z</time>
      </trkpt>
      <trkpt lat="45.25628" lon="4.20221">
        <ele>734.57692307692</ele>
        <time>2015-10-03T10:43:38.776Z</time>
      </trkpt>
      <trkpt lat="45.25628" lon="4.20223">
        <ele>734.57692307692</ele>
        <time>2015-10-03T10:43:39.756Z</time>
      </trkpt>
      <trkpt lat="45.25628" lon="4.20226">
        <ele>734.65384615385</ele>
        <time>2015-10-03T10:43:40.773Z</time>
      </trkpt>
      <trkpt lat="45.25628" lon="4.20227">
        <ele>734.69230769231</ele>
        <time>2015-10-03T10:43:41.761Z</time>
      </trkpt>
      <trkpt lat="45.25627" lon="4.20228">
        <ele>734.73076923077</ele>
        <time>2015-10-03T10:43:42.739Z</time>
      </trkpt>
      <trkpt lat="45.25626" lon="4.20229">
        <ele>734.73076923077</ele>
        <time>2015-10-03T10:43:43.751Z</time>
      </trkpt>
      <trkpt lat="45.25624" lon="4.20231">
        <ele>734.76923076923</ele>
        <time>2015-10-03T10:43:44.753Z</time>
      </trkpt>
      <trkpt lat="45.25623" lon="4.20234">
        <ele>734.73076923077</ele>
        <time>2015-10-03T10:43:45.738Z</time>
      </trkpt>
      <trkpt lat="45.25622" lon="4.20237">
        <ele>734.69230769231</ele>
        <time>2015-10-03T10:43:46.733Z</time>
      </trkpt>
      <trkpt lat="45.25621" lon="4.2024">
        <ele>734.65384615385</ele>
        <time>2015-10-03T10:43:47.730Z</time>
      </trkpt>
      <trkpt lat="45.2562" lon="4.20245">
        <ele>734.61538461538</ele>
        <time>2015-10-03T10:43:49.728Z</time>
      </trkpt>
      <trkpt lat="45.25619" lon="4.20248">
        <ele>734.53846153846</ele>
        <time>2015-10-03T10:43:50.736Z</time>
      </trkpt>
      <trkpt lat="45.25619" lon="4.2025">
        <ele>734.46153846154</ele>
        <time>2015-10-03T10:43:51.755Z</time>
      </trkpt>
      <trkpt lat="45.25618" lon="4.20252">
        <ele>734.34615384615</ele>
        <time>2015-10-03T10:43:52.743Z</time>
      </trkpt>
      <trkpt lat="45.25617" lon="4.20264">
        <ele>734.04</ele>
        <time>2015-10-03T10:43:55.759Z</time>
      </trkpt>
      <trkpt lat="45.25617" lon="4.20273">
        <ele>733.72</ele>
        <time>2015-10-03T10:43:57.777Z</time>
      </trkpt>
      <trkpt lat="45.25616" lon="4.20276">
        <ele>733.65384615385</ele>
        <time>2015-10-03T10:43:58.762Z</time>
      </trkpt>
      <trkpt lat="45.25616" lon="4.20279">
        <ele>733.53846153846</ele>
        <time>2015-10-03T10:43:59.765Z</time>
      </trkpt>
      <trkpt lat="45.25615" lon="4.20282">
        <ele>733.46153846154</ele>
        <time>2015-10-03T10:44:00.773Z</time>
      </trkpt>
      <trkpt lat="45.25613" lon="4.20295">
        <ele>733.08</ele>
        <time>2015-10-03T10:44:04.766Z</time>
      </trkpt>
      <trkpt lat="45.25614" lon="4.20305">
        <ele>732.92</ele>
        <time>2015-10-03T10:44:06.767Z</time>
      </trkpt>
      <trkpt lat="45.25615" lon="4.2031">
        <ele>732.88</ele>
        <time>2015-10-03T10:44:07.757Z</time>
      </trkpt>
      <trkpt lat="45.25614" lon="4.20318">
        <ele>732.72</ele>
        <time>2015-10-03T10:44:09.770Z</time>
      </trkpt>
      <trkpt lat="45.25613" lon="4.20321">
        <ele>732.6</ele>
        <time>2015-10-03T10:44:10.773Z</time>
      </trkpt>
      <trkpt lat="45.25612" lon="4.20325">
        <ele>732.56</ele>
        <time>2015-10-03T10:44:11.773Z</time>
      </trkpt>
      <trkpt lat="45.25607" lon="4.20333">
        <ele>732.32</ele>
        <time>2015-10-03T10:44:14.786Z</time>
      </trkpt>
      <trkpt lat="45.25602" lon="4.20339">
        <ele>732.28</ele>
        <time>2015-10-03T10:44:17.783Z</time>
      </trkpt>
      <trkpt lat="45.25601" lon="4.20341">
        <ele>732.32</ele>
        <time>2015-10-03T10:44:18.769Z</time>
      </trkpt>
      <trkpt lat="45.256" lon="4.20344">
        <ele>732.32</ele>
        <time>2015-10-03T10:44:19.777Z</time>
      </trkpt>
      <trkpt lat="45.25597" lon="4.20351">
        <ele>732.4</ele>
        <time>2015-10-03T10:44:21.768Z</time>
      </trkpt>
      <trkpt lat="45.25595" lon="4.20353">
        <ele>732.42307692308</ele>
        <time>2015-10-03T10:44:22.770Z</time>
      </trkpt>
      <trkpt lat="45.25593" lon="4.20354">
        <ele>732.56</ele>
        <time>2015-10-03T10:44:23.782Z</time>
      </trkpt>
      <trkpt lat="45.25592" lon="4.20354">
        <ele>732.64</ele>
        <time>2015-10-03T10:44:24.767Z</time>
      </trkpt>
      <trkpt lat="45.2559" lon="4.20354">
        <ele>732.65384615385</ele>
        <time>2015-10-03T10:44:25.739Z</time>
      </trkpt>
      <trkpt lat="45.25587" lon="4.20355">
        <ele>732.65384615385</ele>
        <time>2015-10-03T10:44:26.763Z</time>
      </trkpt>
      <trkpt lat="45.2558" lon="4.20359">
        <ele>732.72</ele>
        <time>2015-10-03T10:44:29.784Z</time>
      </trkpt>
      <trkpt lat="45.25578" lon="4.20361">
        <ele>732.8</ele>
        <time>2015-10-03T10:44:30.787Z</time>
      </trkpt>
      <trkpt lat="45.25575" lon="4.20364">
        <ele>732.76</ele>
        <time>2015-10-03T10:44:32.762Z</time>
      </trkpt>
      <trkpt lat="45.25574" lon="4.20366">
        <ele>732.84</ele>
        <time>2015-10-03T10:44:33.767Z</time>
      </trkpt>
      <trkpt lat="45.25568" lon="4.20371">
        <ele>732.96</ele>
        <time>2015-10-03T10:44:36.779Z</time>
      </trkpt>
      <trkpt lat="45.25564" lon="4.20373">
        <ele>733.07692307692</ele>
        <time>2015-10-03T10:44:38.776Z</time>
      </trkpt>
      <trkpt lat="45.25561" lon="4.20374">
        <ele>733.07692307692</ele>
        <time>2015-10-03T10:44:40.772Z</time>
      </trkpt>
      <trkpt lat="45.25557" lon="4.20376">
        <ele>733.11538461538</ele>
        <time>2015-10-03T10:44:42.760Z</time>
      </trkpt>
      <trkpt lat="45.25556" lon="4.20377">
        <ele>733.19230769231</ele>
        <time>2015-10-03T10:44:43.759Z</time>
      </trkpt>
      <trkpt lat="45.25554" lon="4.20378">
        <ele>733.23076923077</ele>
        <time>2015-10-03T10:44:44.759Z</time>
      </trkpt>
      <trkpt lat="45.25553" lon="4.20379">
        <ele>733.23076923077</ele>
        <time>2015-10-03T10:44:45.751Z</time>
      </trkpt>
      <trkpt lat="45.2555" lon="4.20382">
        <ele>733.30769230769</ele>
        <time>2015-10-03T10:44:47.768Z</time>
      </trkpt>
      <trkpt lat="45.25548" lon="4.20384">
        <ele>733.34615384615</ele>
        <time>2015-10-03T10:44:48.752Z</time>
      </trkpt>
      <trkpt lat="45.25547" lon="4.20386">
        <ele>733.34615384615</ele>
        <time>2015-10-03T10:44:49.764Z</time>
      </trkpt>
      <trkpt lat="45.25546" lon="4.20388">
        <ele>733.4</ele>
        <time>2015-10-03T10:44:50.773Z</time>
      </trkpt>
      <trkpt lat="45.25544" lon="4.20393">
        <ele>733.46153846154</ele>
        <time>2015-10-03T10:44:52.765Z</time>
      </trkpt>
      <trkpt lat="45.25538" lon="4.20398">
        <ele>733.57692307692</ele>
        <time>2015-10-03T10:44:55.778Z</time>
      </trkpt>
      <trkpt lat="45.25536" lon="4.20399">
        <ele>733.6</ele>
        <time>2015-10-03T10:44:56.786Z</time>
      </trkpt>
      <trkpt lat="45.25532" lon="4.20401">
        <ele>733.76</ele>
        <time>2015-10-03T10:44:58.804Z</time>
      </trkpt>
      <trkpt lat="45.25531" lon="4.20403">
        <ele>733.88</ele>
        <time>2015-10-03T10:45:00.780Z</time>
      </trkpt>
      <trkpt lat="45.25529" lon="4.20404">
        <ele>733.92307692308</ele>
        <time>2015-10-03T10:45:01.774Z</time>
      </trkpt>
      <trkpt lat="45.25524" lon="4.20408">
        <ele>734.11538461538</ele>
        <time>2015-10-03T10:45:03.775Z</time>
      </trkpt>
      <trkpt lat="45.25518" lon="4.20411">
        <ele>734.32</ele>
        <time>2015-10-03T10:45:05.787Z</time>
      </trkpt>
      <trkpt lat="45.2551" lon="4.20416">
        <ele>734.52</ele>
        <time>2015-10-03T10:45:08.776Z</time>
      </trkpt>
      <trkpt lat="45.25507" lon="4.20419">
        <ele>734.56</ele>
        <time>2015-10-03T10:45:09.779Z</time>
      </trkpt>
      <trkpt lat="45.25504" lon="4.20422">
        <ele>734.64</ele>
        <time>2015-10-03T10:45:10.789Z</time>
      </trkpt>
      <trkpt lat="45.25497" lon="4.2043">
        <ele>734.79166666667</ele>
        <time>2015-10-03T10:45:13.782Z</time>
      </trkpt>
      <trkpt lat="45.25495" lon="4.20433">
        <ele>734.91666666667</ele>
        <time>2015-10-03T10:45:14.777Z</time>
      </trkpt>
      <trkpt lat="45.25492" lon="4.20436">
        <ele>734.95833333333</ele>
        <time>2015-10-03T10:45:15.787Z</time>
      </trkpt>
      <trkpt lat="45.2549" lon="4.20438">
        <ele>735.04166666667</ele>
        <time>2015-10-03T10:45:16.782Z</time>
      </trkpt>
      <trkpt lat="45.25487" lon="4.2044">
        <ele>735.16666666667</ele>
        <time>2015-10-03T10:45:17.790Z</time>
      </trkpt>
      <trkpt lat="45.25485" lon="4.20443">
        <ele>735.33333333333</ele>
        <time>2015-10-03T10:45:18.795Z</time>
      </trkpt>
      <trkpt lat="45.25483" lon="4.20445">
        <ele>735.36</ele>
        <time>2015-10-03T10:45:19.773Z</time>
      </trkpt>
      <trkpt lat="45.25477" lon="4.20453">
        <ele>735.66666666667</ele>
        <time>2015-10-03T10:45:22.797Z</time>
      </trkpt>
      <trkpt lat="45.25473" lon="4.20458">
        <ele>735.79166666667</ele>
        <time>2015-10-03T10:45:24.806Z</time>
      </trkpt>
      <trkpt lat="45.25472" lon="4.20461">
        <ele>735.83333333333</ele>
        <time>2015-10-03T10:45:25.800Z</time>
      </trkpt>
      <trkpt lat="45.25471" lon="4.20464">
        <ele>735.92</ele>
        <time>2015-10-03T10:45:26.060Z</time>
      </trkpt>
      <trkpt lat="45.2547" lon="4.20466">
        <ele>736</ele>
        <time>2015-10-03T10:45:27.068Z</time>
      </trkpt>
      <trkpt lat="45.25468" lon="4.20468">
        <ele>736.08</ele>
        <time>2015-10-03T10:45:28.067Z</time>
      </trkpt>
      <trkpt lat="45.25466" lon="4.20469">
        <ele>736.12</ele>
        <time>2015-10-03T10:45:29.052Z</time>
      </trkpt>
      <trkpt lat="45.25465" lon="4.20469">
        <ele>736.28</ele>
        <time>2015-10-03T10:45:30.058Z</time>
      </trkpt>
      <trkpt lat="45.25463" lon="4.20469">
        <ele>736.36</ele>
        <time>2015-10-03T10:45:31.069Z</time>
      </trkpt>
      <trkpt lat="45.25461" lon="4.20468">
        <ele>736.4</ele>
        <time>2015-10-03T10:45:32.056Z</time>
      </trkpt>
      <trkpt lat="45.2546" lon="4.20467">
        <ele>736.48</ele>
        <time>2015-10-03T10:45:33.044Z</time>
      </trkpt>
      <trkpt lat="45.25459" lon="4.20466">
        <ele>736.6</ele>
        <time>2015-10-03T10:45:34.041Z</time>
      </trkpt>
      <trkpt lat="45.25458" lon="4.20466">
        <ele>736.68</ele>
        <time>2015-10-03T10:45:35.050Z</time>
      </trkpt>
      <trkpt lat="45.25457" lon="4.20465">
        <ele>736.84</ele>
        <time>2015-10-03T10:45:36.049Z</time>
      </trkpt>
      <trkpt lat="45.25454" lon="4.20462">
        <ele>737.07692307692</ele>
        <time>2015-10-03T10:45:38.106Z</time>
      </trkpt>
      <trkpt lat="45.25449" lon="4.20458">
        <ele>737.30769230769</ele>
        <time>2015-10-03T10:45:41.148Z</time>
      </trkpt>
      <trkpt lat="45.25443" lon="4.20452">
        <ele>737.84615384615</ele>
        <time>2015-10-03T10:45:45.097Z</time>
      </trkpt>
      <trkpt lat="45.25439" lon="4.20446">
        <ele>738.23076923077</ele>
        <time>2015-10-03T10:45:48.166Z</time>
      </trkpt>
      <trkpt lat="45.25435" lon="4.2044">
        <ele>738.88</ele>
        <time>2015-10-03T10:45:51.137Z</time>
      </trkpt>
      <trkpt lat="45.25434" lon="4.20438">
        <ele>739.08</ele>
        <time>2015-10-03T10:45:52.086Z</time>
      </trkpt>
      <trkpt lat="45.25432" lon="4.2043">
        <ele>739.6</ele>
        <time>2015-10-03T10:45:55.064Z</time>
      </trkpt>
      <trkpt lat="45.25431" lon="4.20424">
        <ele>739.88</ele>
        <time>2015-10-03T10:45:57.068Z</time>
      </trkpt>
      <trkpt lat="45.25431" lon="4.20421">
        <ele>739.88461538462</ele>
        <time>2015-10-03T10:45:58.039Z</time>
      </trkpt>
      <trkpt lat="45.25431" lon="4.20419">
        <ele>740</ele>
        <time>2015-10-03T10:45:59.005Z</time>
      </trkpt>
      <trkpt lat="45.25432" lon="4.20414">
        <ele>740.15384615385</ele>
        <time>2015-10-03T10:46:00.015Z</time>
      </trkpt>
      <trkpt lat="45.25432" lon="4.20411">
        <ele>740.26923076923</ele>
        <time>2015-10-03T10:46:01.014Z</time>
      </trkpt>
      <trkpt lat="45.25433" lon="4.20409">
        <ele>740.30769230769</ele>
        <time>2015-10-03T10:46:02.020Z</time>
      </trkpt>
      <trkpt lat="45.25433" lon="4.20406">
        <ele>740.34615384615</ele>
        <time>2015-10-03T10:46:03.039Z</time>
      </trkpt>
      <trkpt lat="45.25434" lon="4.20403">
        <ele>740.38461538462</ele>
        <time>2015-10-03T10:46:04.038Z</time>
      </trkpt>
      <trkpt lat="45.25434" lon="4.204">
        <ele>740.46153846154</ele>
        <time>2015-10-03T10:46:05.017Z</time>
      </trkpt>
      <trkpt lat="45.25435" lon="4.20397">
        <ele>740.53846153846</ele>
        <time>2015-10-03T10:46:06.036Z</time>
      </trkpt>
      <trkpt lat="45.25436" lon="4.20394">
        <ele>740.65384615385</ele>
        <time>2015-10-03T10:46:07.014Z</time>
      </trkpt>
      <trkpt lat="45.25436" lon="4.2039">
        <ele>740.69230769231</ele>
        <time>2015-10-03T10:46:08.014Z</time>
      </trkpt>
      <trkpt lat="45.25437" lon="4.20385">
        <ele>740.65384615385</ele>
        <time>2015-10-03T10:46:10.042Z</time>
      </trkpt>
      <trkpt lat="45.25437" lon="4.20383">
        <ele>740.57692307692</ele>
        <time>2015-10-03T10:46:11.025Z</time>
      </trkpt>
      <trkpt lat="45.25438" lon="4.2038">
        <ele>740.57692307692</ele>
        <time>2015-10-03T10:46:12.015Z</time>
      </trkpt>
      <trkpt lat="45.25438" lon="4.20377">
        <ele>740.5</ele>
        <time>2015-10-03T10:46:13.008Z</time>
      </trkpt>
      <trkpt lat="45.25438" lon="4.20375">
        <ele>740.38461538462</ele>
        <time>2015-10-03T10:46:14.006Z</time>
      </trkpt>
      <trkpt lat="45.25438" lon="4.20373">
        <ele>740.23076923077</ele>
        <time>2015-10-03T10:46:15.017Z</time>
      </trkpt>
      <trkpt lat="45.25437" lon="4.20372">
        <ele>740.11538461538</ele>
        <time>2015-10-03T10:46:16.018Z</time>
      </trkpt>
      <trkpt lat="45.25437" lon="4.20371">
        <ele>740.03846153846</ele>
        <time>2015-10-03T10:46:17.011Z</time>
      </trkpt>
      <trkpt lat="45.25435" lon="4.2037">
        <ele>739.73076923077</ele>
        <time>2015-10-03T10:46:20.014Z</time>
      </trkpt>
      <trkpt lat="45.25435" lon="4.2037">
        <ele>739.48</ele>
        <time>2015-10-03T10:46:24.007Z</time>
      </trkpt>
      <trkpt lat="45.25435" lon="4.2037">
        <ele>739.30769230769</ele>
        <time>2015-10-03T10:46:27.010Z</time>
      </trkpt>
      <trkpt lat="45.25435" lon="4.20369">
        <ele>739.08</ele>
        <time>2015-10-03T10:46:30.020Z</time>
      </trkpt>
      <trkpt lat="45.25435" lon="4.20369">
        <ele>738.76923076923</ele>
        <time>2015-10-03T10:46:34.008Z</time>
      </trkpt>
      <trkpt lat="45.25435" lon="4.20369">
        <ele>738.6</ele>
        <time>2015-10-03T10:46:38.013Z</time>
      </trkpt>
      <trkpt lat="45.25435" lon="4.20369">
        <ele>738.68</ele>
        <time>2015-10-03T10:46:41.027Z</time>
      </trkpt>
      <trkpt lat="45.25435" lon="4.20369">
        <ele>738.64</ele>
        <time>2015-10-03T10:46:45.019Z</time>
      </trkpt>
      <trkpt lat="45.25435" lon="4.20368">
        <ele>738.64</ele>
        <time>2015-10-03T10:46:48.022Z</time>
      </trkpt>
      <trkpt lat="45.25435" lon="4.20367">
        <ele>738.68</ele>
        <time>2015-10-03T10:46:52.020Z</time>
      </trkpt>
      <trkpt lat="45.25435" lon="4.20367">
        <ele>738.68</ele>
        <time>2015-10-03T10:46:56.028Z</time>
      </trkpt>
      <trkpt lat="45.25435" lon="4.20366">
        <ele>738.84</ele>
        <time>2015-10-03T10:46:59.032Z</time>
      </trkpt>
      <trkpt lat="45.25434" lon="4.20366">
        <ele>738.92</ele>
        <time>2015-10-03T10:47:02.017Z</time>
      </trkpt>
      <trkpt lat="45.25434" lon="4.20365">
        <ele>738.88</ele>
        <time>2015-10-03T10:47:03.024Z</time>
      </trkpt>
      <trkpt lat="45.25432" lon="4.20365">
        <ele>738.88</ele>
        <time>2015-10-03T10:47:04.009Z</time>
      </trkpt>
      <trkpt lat="45.2543" lon="4.20364">
        <ele>738.84615384615</ele>
        <time>2015-10-03T10:47:05.014Z</time>
      </trkpt>
      <trkpt lat="45.25424" lon="4.20362">
        <ele>738.72</ele>
        <time>2015-10-03T10:47:07.040Z</time>
      </trkpt>
      <trkpt lat="45.25421" lon="4.20361">
        <ele>738.64</ele>
        <time>2015-10-03T10:47:08.025Z</time>
      </trkpt>
      <trkpt lat="45.25418" lon="4.2036">
        <ele>738.48</ele>
        <time>2015-10-03T10:47:09.020Z</time>
      </trkpt>
      <trkpt lat="45.25414" lon="4.20358">
        <ele>738.32</ele>
        <time>2015-10-03T10:47:10.022Z</time>
      </trkpt>
      <trkpt lat="45.25411" lon="4.20355">
        <ele>738.16</ele>
        <time>2015-10-03T10:47:11.030Z</time>
      </trkpt>
      <trkpt lat="45.25391" lon="4.20348">
        <ele>737.875</ele>
        <time>2015-10-03T10:47:14.001Z</time>
      </trkpt>
      <trkpt lat="45.2538" lon="4.20349">
        <ele>737.5652173913</ele>
        <time>2015-10-03T10:47:15.006Z</time>
      </trkpt>
      <trkpt lat="45.25372" lon="4.20352">
        <ele>737.26086956522</ele>
        <time>2015-10-03T10:47:16.019Z</time>
      </trkpt>
      <trkpt lat="45.25367" lon="4.20355">
        <ele>736.91304347826</ele>
        <time>2015-10-03T10:47:17.029Z</time>
      </trkpt>
      <trkpt lat="45.25361" lon="4.2036">
        <ele>736.60869565217</ele>
        <time>2015-10-03T10:47:18.030Z</time>
      </trkpt>
      <trkpt lat="45.25351" lon="4.20367">
        <ele>736.20833333333</ele>
        <time>2015-10-03T10:47:20.017Z</time>
      </trkpt>
      <trkpt lat="45.25348" lon="4.2037">
        <ele>735.79166666667</ele>
        <time>2015-10-03T10:47:21.028Z</time>
      </trkpt>
      <trkpt lat="45.25343" lon="4.20369">
        <ele>735.54166666667</ele>
        <time>2015-10-03T10:47:22.034Z</time>
      </trkpt>
      <trkpt lat="45.2534" lon="4.20371">
        <ele>735.29166666667</ele>
        <time>2015-10-03T10:47:23.024Z</time>
      </trkpt>
      <trkpt lat="45.25334" lon="4.2037">
        <ele>734.78260869565</ele>
        <time>2015-10-03T10:47:24.034Z</time>
      </trkpt>
      <trkpt lat="45.2533" lon="4.20373">
        <ele>734.75</ele>
        <time>2015-10-03T10:47:25.022Z</time>
      </trkpt>
      <trkpt lat="45.25328" lon="4.20377">
        <ele>734.39130434783</ele>
        <time>2015-10-03T10:47:26.019Z</time>
      </trkpt>
      <trkpt lat="45.25322" lon="4.20383">
        <ele>734.20833333333</ele>
        <time>2015-10-03T10:47:28.021Z</time>
      </trkpt>
      <trkpt lat="45.25322" lon="4.20386">
        <ele>733.86956521739</ele>
        <time>2015-10-03T10:47:29.018Z</time>
      </trkpt>
      <trkpt lat="45.25318" lon="4.20387">
        <ele>733.5652173913</ele>
        <time>2015-10-03T10:47:31.026Z</time>
      </trkpt>
      <trkpt lat="45.25316" lon="4.20387">
        <ele>733.39130434783</ele>
        <time>2015-10-03T10:47:32.045Z</time>
      </trkpt>
      <trkpt lat="45.25315" lon="4.2039">
        <ele>733.21739130435</ele>
        <time>2015-10-03T10:47:34.097Z</time>
      </trkpt>
      <trkpt lat="45.25314" lon="4.20391">
        <ele>733.21739130435</ele>
        <time>2015-10-03T10:47:35.048Z</time>
      </trkpt>
      <trkpt lat="45.25309" lon="4.20393">
        <ele>733.33333333333</ele>
        <time>2015-10-03T10:47:37.043Z</time>
      </trkpt>
      <trkpt lat="45.25302" lon="4.20396">
        <ele>733.48</ele>
        <time>2015-10-03T10:47:39.034Z</time>
      </trkpt>
      <trkpt lat="45.253" lon="4.20398">
        <ele>733.6</ele>
        <time>2015-10-03T10:47:40.037Z</time>
      </trkpt>
      <trkpt lat="45.25299" lon="4.204">
        <ele>733.76</ele>
        <time>2015-10-03T10:47:41.029Z</time>
      </trkpt>
      <trkpt lat="45.25297" lon="4.20401">
        <ele>734</ele>
        <time>2015-10-03T10:47:42.032Z</time>
      </trkpt>
      <trkpt lat="45.25295" lon="4.20403">
        <ele>734.11538461538</ele>
        <time>2015-10-03T10:47:43.029Z</time>
      </trkpt>
      <trkpt lat="45.25293" lon="4.20404">
        <ele>734.4</ele>
        <time>2015-10-03T10:47:44.027Z</time>
      </trkpt>
      <trkpt lat="45.25292" lon="4.20406">
        <ele>734.52</ele>
        <time>2015-10-03T10:47:45.051Z</time>
      </trkpt>
      <trkpt lat="45.25288" lon="4.20411">
        <ele>735.04</ele>
        <time>2015-10-03T10:47:48.083Z</time>
      </trkpt>
      <trkpt lat="45.25286" lon="4.20412">
        <ele>735.24</ele>
        <time>2015-10-03T10:47:49.083Z</time>
      </trkpt>
      <trkpt lat="45.25285" lon="4.20414">
        <ele>735.32</ele>
        <time>2015-10-03T10:47:50.092Z</time>
      </trkpt>
      <trkpt lat="45.25283" lon="4.20416">
        <ele>735.52</ele>
        <time>2015-10-03T10:47:52.032Z</time>
      </trkpt>
      <trkpt lat="45.2528" lon="4.20417">
        <ele>735.56</ele>
        <time>2015-10-03T10:47:53.054Z</time>
      </trkpt>
      <trkpt lat="45.25271" lon="4.20425">
        <ele>735.88</ele>
        <time>2015-10-03T10:47:56.121Z</time>
      </trkpt>
      <trkpt lat="45.25268" lon="4.2043">
        <ele>736.2</ele>
        <time>2015-10-03T10:47:58.108Z</time>
      </trkpt>
      <trkpt lat="45.25268" lon="4.20433">
        <ele>736.32</ele>
        <time>2015-10-03T10:47:59.118Z</time>
      </trkpt>
      <trkpt lat="45.25266" lon="4.20436">
        <ele>736.48</ele>
        <time>2015-10-03T10:48:00.107Z</time>
      </trkpt>
      <trkpt lat="45.25264" lon="4.20438">
        <ele>736.6</ele>
        <time>2015-10-03T10:48:01.079Z</time>
      </trkpt>
      <trkpt lat="45.2526" lon="4.20442">
        <ele>736.92</ele>
        <time>2015-10-03T10:48:03.095Z</time>
      </trkpt>
      <trkpt lat="45.25258" lon="4.20445">
        <ele>737.08</ele>
        <time>2015-10-03T10:48:04.093Z</time>
      </trkpt>
      <trkpt lat="45.25257" lon="4.20447">
        <ele>737.2</ele>
        <time>2015-10-03T10:48:05.096Z</time>
      </trkpt>
      <trkpt lat="45.25256" lon="4.20448">
        <ele>737.32</ele>
        <time>2015-10-03T10:48:06.097Z</time>
      </trkpt>
      <trkpt lat="45.25256" lon="4.2045">
        <ele>737.4</ele>
        <time>2015-10-03T10:48:07.060Z</time>
      </trkpt>
      <trkpt lat="45.25254" lon="4.20455">
        <ele>737.61538461538</ele>
        <time>2015-10-03T10:48:10.025Z</time>
      </trkpt>
      <trkpt lat="45.25253" lon="4.20457">
        <ele>737.76923076923</ele>
        <time>2015-10-03T10:48:11.024Z</time>
      </trkpt>
      <trkpt lat="45.25252" lon="4.20458">
        <ele>737.92307692308</ele>
        <time>2015-10-03T10:48:12.032Z</time>
      </trkpt>
      <trkpt lat="45.25251" lon="4.20459">
        <ele>738.03846153846</ele>
        <time>2015-10-03T10:48:13.026Z</time>
      </trkpt>
      <trkpt lat="45.25249" lon="4.20459">
        <ele>738.19230769231</ele>
        <time>2015-10-03T10:48:14.034Z</time>
      </trkpt>
      <trkpt lat="45.25246" lon="4.20458">
        <ele>738.30769230769</ele>
        <time>2015-10-03T10:48:15.080Z</time>
      </trkpt>
      <trkpt lat="45.25242" lon="4.20455">
        <ele>738.6</ele>
        <time>2015-10-03T10:48:17.092Z</time>
      </trkpt>
      <trkpt lat="45.25241" lon="4.20456">
        <ele>738.72</ele>
        <time>2015-10-03T10:48:18.095Z</time>
      </trkpt>
      <trkpt lat="45.25238" lon="4.20458">
        <ele>738.76</ele>
        <time>2015-10-03T10:48:19.113Z</time>
      </trkpt>
      <trkpt lat="45.25235" lon="4.2046">
        <ele>738.76</ele>
        <time>2015-10-03T10:48:20.133Z</time>
      </trkpt>
      <trkpt lat="45.25234" lon="4.20463">
        <ele>738.73076923077</ele>
        <time>2015-10-03T10:48:21.117Z</time>
      </trkpt>
      <trkpt lat="45.25234" lon="4.20466">
        <ele>738.73076923077</ele>
        <time>2015-10-03T10:48:22.110Z</time>
      </trkpt>
      <trkpt lat="45.25232" lon="4.20474">
        <ele>738.57692307692</ele>
        <time>2015-10-03T10:48:24.109Z</time>
      </trkpt>
      <trkpt lat="45.25228" lon="4.20477">
        <ele>738.5</ele>
        <time>2015-10-03T10:48:25.083Z</time>
      </trkpt>
      <trkpt lat="45.25218" lon="4.20479">
        <ele>738.23076923077</ele>
        <time>2015-10-03T10:48:27.061Z</time>
      </trkpt>
      <trkpt lat="45.25205" lon="4.20481">
        <ele>737.92307692308</ele>
        <time>2015-10-03T10:48:30.078Z</time>
      </trkpt>
      <trkpt lat="45.25201" lon="4.20481">
        <ele>737.80769230769</ele>
        <time>2015-10-03T10:48:31.073Z</time>
      </trkpt>
      <trkpt lat="45.25197" lon="4.20482">
        <ele>737.64</ele>
        <time>2015-10-03T10:48:32.105Z</time>
      </trkpt>
      <trkpt lat="45.25193" lon="4.20482">
        <ele>737.36</ele>
        <time>2015-10-03T10:48:34.137Z</time>
      </trkpt>
      <trkpt lat="45.25188" lon="4.20482">
        <ele>737.12</ele>
        <time>2015-10-03T10:48:35.141Z</time>
      </trkpt>
      <trkpt lat="45.25178" lon="4.20481">
        <ele>736.6</ele>
        <time>2015-10-03T10:48:37.130Z</time>
      </trkpt>
      <trkpt lat="45.25148" lon="4.20487">
        <ele>736.16666666667</ele>
        <time>2015-10-03T10:48:39.055Z</time>
      </trkpt>
      <trkpt lat="45.25138" lon="4.2049">
        <ele>735.6</ele>
        <time>2015-10-03T10:48:41.091Z</time>
      </trkpt>
      <trkpt lat="45.25132" lon="4.20491">
        <ele>735.28</ele>
        <time>2015-10-03T10:48:42.076Z</time>
      </trkpt>
      <trkpt lat="45.25128" lon="4.20492">
        <ele>734.92</ele>
        <time>2015-10-03T10:48:43.077Z</time>
      </trkpt>
      <trkpt lat="45.25114" lon="4.20497">
        <ele>733.92</ele>
        <time>2015-10-03T10:48:46.086Z</time>
      </trkpt>
      <trkpt lat="45.25098" lon="4.20502">
        <ele>732.72</ele>
        <time>2015-10-03T10:48:50.072Z</time>
      </trkpt>
      <trkpt lat="45.25083" lon="4.20506">
        <ele>731.54166666667</ele>
        <time>2015-10-03T10:48:54.082Z</time>
      </trkpt>
      <trkpt lat="45.2508" lon="4.20507">
        <ele>731.29166666667</ele>
        <time>2015-10-03T10:48:55.079Z</time>
      </trkpt>
      <trkpt lat="45.25076" lon="4.20509">
        <ele>730.96</ele>
        <time>2015-10-03T10:48:57.101Z</time>
      </trkpt>
      <trkpt lat="45.25072" lon="4.2051">
        <ele>730.44</ele>
        <time>2015-10-03T10:48:59.101Z</time>
      </trkpt>
      <trkpt lat="45.25068" lon="4.20512">
        <ele>730.24</ele>
        <time>2015-10-03T10:49:00.094Z</time>
      </trkpt>
      <trkpt lat="45.25049" lon="4.2052">
        <ele>729.72</ele>
        <time>2015-10-03T10:49:04.064Z</time>
      </trkpt>
      <trkpt lat="45.2504" lon="4.20524">
        <ele>729.76923076923</ele>
        <time>2015-10-03T10:49:06.065Z</time>
      </trkpt>
      <trkpt lat="45.25024" lon="4.20532">
        <ele>729.68</ele>
        <time>2015-10-03T10:49:08.051Z</time>
      </trkpt>
      <trkpt lat="45.25019" lon="4.20535">
        <ele>729.6</ele>
        <time>2015-10-03T10:49:10.070Z</time>
      </trkpt>
      <trkpt lat="45.25019" lon="4.20535">
        <ele>729.56</ele>
        <time>2015-10-03T10:49:11.073Z</time>
      </trkpt>
      <trkpt lat="45.25012" lon="4.20535">
        <ele>729.52</ele>
        <time>2015-10-03T10:49:12.074Z</time>
      </trkpt>
      <trkpt lat="45.25005" lon="4.20527">
        <ele>729.47826086957</ele>
        <time>2015-10-03T10:49:14.090Z</time>
      </trkpt>
      <trkpt lat="45.25004" lon="4.20525">
        <ele>729.375</ele>
        <time>2015-10-03T10:49:15.067Z</time>
      </trkpt>
      <trkpt lat="45.25004" lon="4.20524">
        <ele>729.17391304348</ele>
        <time>2015-10-03T10:49:16.097Z</time>
      </trkpt>
      <trkpt lat="45.25002" lon="4.20524">
        <ele>729.04347826087</ele>
        <time>2015-10-03T10:49:17.117Z</time>
      </trkpt>
      <trkpt lat="45.25001" lon="4.20523">
        <ele>728.86956521739</ele>
        <time>2015-10-03T10:49:18.099Z</time>
      </trkpt>
      <trkpt lat="45.24999" lon="4.20519">
        <ele>728.70833333333</ele>
        <time>2015-10-03T10:49:19.077Z</time>
      </trkpt>
      <trkpt lat="45.24997" lon="4.20509">
        <ele>728.5</ele>
        <time>2015-10-03T10:49:20.076Z</time>
      </trkpt>
      <trkpt lat="45.24993" lon="4.20491">
        <ele>728.17391304348</ele>
        <time>2015-10-03T10:49:22.065Z</time>
      </trkpt>
      <trkpt lat="45.24992" lon="4.20487">
        <ele>727.82608695652</ele>
        <time>2015-10-03T10:49:23.066Z</time>
      </trkpt>
      <trkpt lat="45.24992" lon="4.20482">
        <ele>727.52173913043</ele>
        <time>2015-10-03T10:49:24.100Z</time>
      </trkpt>
      <trkpt lat="45.24992" lon="4.20478">
        <ele>727.04545454545</ele>
        <time>2015-10-03T10:49:25.102Z</time>
      </trkpt>
      <trkpt lat="45.24992" lon="4.20473">
        <ele>726.78260869565</ele>
        <time>2015-10-03T10:49:26.074Z</time>
      </trkpt>
      <trkpt lat="45.2499" lon="4.20465">
        <ele>726.31818181818</ele>
        <time>2015-10-03T10:49:27.080Z</time>
      </trkpt>
      <trkpt lat="45.24989" lon="4.2046">
        <ele>725.86363636364</ele>
        <time>2015-10-03T10:49:28.080Z</time>
      </trkpt>
      <trkpt lat="45.24987" lon="4.20455">
        <ele>725.40909090909</ele>
        <time>2015-10-03T10:49:29.088Z</time>
      </trkpt>
      <trkpt lat="45.24986" lon="4.20445">
        <ele>724.90909090909</ele>
        <time>2015-10-03T10:49:30.091Z</time>
      </trkpt>
      <trkpt lat="45.24984" lon="4.20436">
        <ele>724.36363636364</ele>
        <time>2015-10-03T10:49:31.069Z</time>
      </trkpt>
      <trkpt lat="45.24983" lon="4.2043">
        <ele>724.08695652174</ele>
        <time>2015-10-03T10:49:32.068Z</time>
      </trkpt>
      <trkpt lat="45.24984" lon="4.20424">
        <ele>723.5652173913</ele>
        <time>2015-10-03T10:49:33.066Z</time>
      </trkpt>
      <trkpt lat="45.24983" lon="4.20419">
        <ele>723.08695652174</ele>
        <time>2015-10-03T10:49:34.089Z</time>
      </trkpt>
      <trkpt lat="45.24983" lon="4.20415">
        <ele>722.5652173913</ele>
        <time>2015-10-03T10:49:35.074Z</time>
      </trkpt>
      <trkpt lat="45.24983" lon="4.2041">
        <ele>722.29166666667</ele>
        <time>2015-10-03T10:49:36.058Z</time>
      </trkpt>
      <trkpt lat="45.24982" lon="4.20407">
        <ele>721.70833333333</ele>
        <time>2015-10-03T10:49:37.068Z</time>
      </trkpt>
      <trkpt lat="45.24981" lon="4.20401">
        <ele>721.125</ele>
        <time>2015-10-03T10:49:38.072Z</time>
      </trkpt>
      <trkpt lat="45.24979" lon="4.20396">
        <ele>720.84</ele>
        <time>2015-10-03T10:49:39.082Z</time>
      </trkpt>
      <trkpt lat="45.24979" lon="4.20391">
        <ele>720</ele>
        <time>2015-10-03T10:49:40.102Z</time>
      </trkpt>
      <trkpt lat="45.24979" lon="4.20387">
        <ele>719.64</ele>
        <time>2015-10-03T10:49:41.093Z</time>
      </trkpt>
      <trkpt lat="45.24978" lon="4.20384">
        <ele>719.04</ele>
        <time>2015-10-03T10:49:42.085Z</time>
      </trkpt>
      <trkpt lat="45.24977" lon="4.2038">
        <ele>717.45833333333</ele>
        <time>2015-10-03T10:49:44.118Z</time>
      </trkpt>
      <trkpt lat="45.24977" lon="4.20378">
        <ele>716.79166666667</ele>
        <time>2015-10-03T10:49:45.096Z</time>
      </trkpt>
      <trkpt lat="45.24977" lon="4.20373">
        <ele>716.48</ele>
        <time>2015-10-03T10:49:46.107Z</time>
      </trkpt>
      <trkpt lat="45.24977" lon="4.20369">
        <ele>715.92</ele>
        <time>2015-10-03T10:49:47.100Z</time>
      </trkpt>
      <trkpt lat="45.24978" lon="4.20365">
        <ele>715.65384615385</ele>
        <time>2015-10-03T10:49:48.062Z</time>
      </trkpt>
      <trkpt lat="45.24978" lon="4.20362">
        <ele>715.15384615385</ele>
        <time>2015-10-03T10:49:49.069Z</time>
      </trkpt>
      <trkpt lat="45.24978" lon="4.20357">
        <ele>714.65384615385</ele>
        <time>2015-10-03T10:49:50.087Z</time>
      </trkpt>
      <trkpt lat="45.24979" lon="4.20352">
        <ele>713.88</ele>
        <time>2015-10-03T10:49:51.107Z</time>
      </trkpt>
      <trkpt lat="45.2498" lon="4.20348">
        <ele>713.4</ele>
        <time>2015-10-03T10:49:52.082Z</time>
      </trkpt>
      <trkpt lat="45.24981" lon="4.20345">
        <ele>713.15384615385</ele>
        <time>2015-10-03T10:49:53.067Z</time>
      </trkpt>
      <trkpt lat="45.24983" lon="4.20342">
        <ele>712.4</ele>
        <time>2015-10-03T10:49:54.090Z</time>
      </trkpt>
      <trkpt lat="45.24985" lon="4.20335">
        <ele>711.68</ele>
        <time>2015-10-03T10:49:56.101Z</time>
      </trkpt>
      <trkpt lat="45.24986" lon="4.20332">
        <ele>711.36</ele>
        <time>2015-10-03T10:49:57.107Z</time>
      </trkpt>
      <trkpt lat="45.24987" lon="4.20328">
        <ele>711.08</ele>
        <time>2015-10-03T10:49:58.086Z</time>
      </trkpt>
      <trkpt lat="45.24989" lon="4.20325">
        <ele>711.07692307692</ele>
        <time>2015-10-03T10:49:59.062Z</time>
      </trkpt>
      <trkpt lat="45.2499" lon="4.20321">
        <ele>710.52</ele>
        <time>2015-10-03T10:50:00.082Z</time>
      </trkpt>
      <trkpt lat="45.24991" lon="4.20318">
        <ele>710.36</ele>
        <time>2015-10-03T10:50:01.080Z</time>
      </trkpt>
      <trkpt lat="45.24991" lon="4.20312">
        <ele>710.23076923077</ele>
        <time>2015-10-03T10:50:03.060Z</time>
      </trkpt>
      <trkpt lat="45.24992" lon="4.20306">
        <ele>710.03846153846</ele>
        <time>2015-10-03T10:50:05.062Z</time>
      </trkpt>
      <trkpt lat="45.24992" lon="4.20303">
        <ele>710.03846153846</ele>
        <time>2015-10-03T10:50:06.059Z</time>
      </trkpt>
      <trkpt lat="45.24992" lon="4.20296">
        <ele>710.15384615385</ele>
        <time>2015-10-03T10:50:08.081Z</time>
      </trkpt>
      <trkpt lat="45.24991" lon="4.20292">
        <ele>710.26923076923</ele>
        <time>2015-10-03T10:50:09.106Z</time>
      </trkpt>
      <trkpt lat="45.24989" lon="4.20289">
        <ele>710.52</ele>
        <time>2015-10-03T10:50:10.122Z</time>
      </trkpt>
      <trkpt lat="45.24988" lon="4.20286">
        <ele>710.72</ele>
        <time>2015-10-03T10:50:11.119Z</time>
      </trkpt>
      <trkpt lat="45.24987" lon="4.20274">
        <ele>711.52</ele>
        <time>2015-10-03T10:50:15.109Z</time>
      </trkpt>
      <trkpt lat="45.24987" lon="4.20271">
        <ele>711.68</ele>
        <time>2015-10-03T10:50:16.118Z</time>
      </trkpt>
      <trkpt lat="45.24986" lon="4.20271">
        <ele>711.92</ele>
        <time>2015-10-03T10:50:17.112Z</time>
      </trkpt>
      <trkpt lat="45.24984" lon="4.20265">
        <ele>712.72</ele>
        <time>2015-10-03T10:50:20.109Z</time>
      </trkpt>
      <trkpt lat="45.24984" lon="4.20261">
        <ele>712.92</ele>
        <time>2015-10-03T10:50:21.114Z</time>
      </trkpt>
      <trkpt lat="45.24984" lon="4.20257">
        <ele>713.16</ele>
        <time>2015-10-03T10:50:22.125Z</time>
      </trkpt>
      <trkpt lat="45.24986" lon="4.20253">
        <ele>713.36</ele>
        <time>2015-10-03T10:50:23.107Z</time>
      </trkpt>
      <trkpt lat="45.24986" lon="4.20251">
        <ele>713.6</ele>
        <time>2015-10-03T10:50:24.136Z</time>
      </trkpt>
      <trkpt lat="45.24986" lon="4.20248">
        <ele>713.88</ele>
        <time>2015-10-03T10:50:25.137Z</time>
      </trkpt>
      <trkpt lat="45.24986" lon="4.20245">
        <ele>714.04</ele>
        <time>2015-10-03T10:50:26.136Z</time>
      </trkpt>
      <trkpt lat="45.24986" lon="4.20241">
        <ele>714.28</ele>
        <time>2015-10-03T10:50:27.161Z</time>
      </trkpt>
      <trkpt lat="45.24986" lon="4.20236">
        <ele>714.68</ele>
        <time>2015-10-03T10:50:29.158Z</time>
      </trkpt>
      <trkpt lat="45.24987" lon="4.20227">
        <ele>715.36</ele>
        <time>2015-10-03T10:50:32.151Z</time>
      </trkpt>
      <trkpt lat="45.24987" lon="4.20222">
        <ele>715.68</ele>
        <time>2015-10-03T10:50:34.128Z</time>
      </trkpt>
      <trkpt lat="45.24986" lon="4.20219">
        <ele>715.73076923077</ele>
        <time>2015-10-03T10:50:35.122Z</time>
      </trkpt>
      <trkpt lat="45.24986" lon="4.20217">
        <ele>715.88461538462</ele>
        <time>2015-10-03T10:50:36.116Z</time>
      </trkpt>
      <trkpt lat="45.24984" lon="4.20213">
        <ele>716.28</ele>
        <time>2015-10-03T10:50:38.132Z</time>
      </trkpt>
      <trkpt lat="45.24984" lon="4.2021">
        <ele>716.38461538462</ele>
        <time>2015-10-03T10:50:39.101Z</time>
      </trkpt>
      <trkpt lat="45.24983" lon="4.20208">
        <ele>716.68</ele>
        <time>2015-10-03T10:50:40.748Z</time>
      </trkpt>
      <trkpt lat="45.24982" lon="4.20206">
        <ele>716.84</ele>
        <time>2015-10-03T10:50:41.748Z</time>
      </trkpt>
      <trkpt lat="45.24981" lon="4.20205">
        <ele>717.04</ele>
        <time>2015-10-03T10:50:42.762Z</time>
      </trkpt>
      <trkpt lat="45.24978" lon="4.20196">
        <ele>717.64</ele>
        <time>2015-10-03T10:50:46.776Z</time>
      </trkpt>
      <trkpt lat="45.24978" lon="4.20193">
        <ele>717.8</ele>
        <time>2015-10-03T10:50:47.767Z</time>
      </trkpt>
      <trkpt lat="45.24977" lon="4.20187">
        <ele>718.04</ele>
        <time>2015-10-03T10:50:49.776Z</time>
      </trkpt>
      <trkpt lat="45.24977" lon="4.20184">
        <ele>718.16</ele>
        <time>2015-10-03T10:50:50.761Z</time>
      </trkpt>
      <trkpt lat="45.24977" lon="4.20181">
        <ele>718.28</ele>
        <time>2015-10-03T10:50:51.760Z</time>
      </trkpt>
      <trkpt lat="45.24977" lon="4.20173">
        <ele>718.56</ele>
        <time>2015-10-03T10:50:53.767Z</time>
      </trkpt>
      <trkpt lat="45.24977" lon="4.20169">
        <ele>718.64</ele>
        <time>2015-10-03T10:50:54.776Z</time>
      </trkpt>
      <trkpt lat="45.24977" lon="4.20157">
        <ele>718.92</ele>
        <time>2015-10-03T10:50:57.781Z</time>
      </trkpt>
      <trkpt lat="45.24977" lon="4.20149">
        <ele>719.08</ele>
        <time>2015-10-03T10:50:59.772Z</time>
      </trkpt>
      <trkpt lat="45.24976" lon="4.20146">
        <ele>719.24</ele>
        <time>2015-10-03T10:51:00.766Z</time>
      </trkpt>
      <trkpt lat="45.24975" lon="4.20143">
        <ele>719.28</ele>
        <time>2015-10-03T10:51:01.768Z</time>
      </trkpt>
      <trkpt lat="45.24974" lon="4.20141">
        <ele>719.32</ele>
        <time>2015-10-03T10:51:02.767Z</time>
      </trkpt>
      <trkpt lat="45.24973" lon="4.20138">
        <ele>719.44</ele>
        <time>2015-10-03T10:51:03.776Z</time>
      </trkpt>
      <trkpt lat="45.24973" lon="4.20134">
        <ele>719.48</ele>
        <time>2015-10-03T10:51:04.783Z</time>
      </trkpt>
      <trkpt lat="45.24973" lon="4.2013">
        <ele>719.56</ele>
        <time>2015-10-03T10:51:05.767Z</time>
      </trkpt>
      <trkpt lat="45.24974" lon="4.20117">
        <ele>719.72</ele>
        <time>2015-10-03T10:51:08.778Z</time>
      </trkpt>
      <trkpt lat="45.24974" lon="4.20113">
        <ele>719.8</ele>
        <time>2015-10-03T10:51:09.770Z</time>
      </trkpt>
      <trkpt lat="45.24973" lon="4.20103">
        <ele>720.03846153846</ele>
        <time>2015-10-03T10:51:12.720Z</time>
      </trkpt>
      <trkpt lat="45.24974" lon="4.201">
        <ele>720.11538461538</ele>
        <time>2015-10-03T10:51:13.723Z</time>
      </trkpt>
      <trkpt lat="45.24976" lon="4.2009">
        <ele>720.48</ele>
        <time>2015-10-03T10:51:16.781Z</time>
      </trkpt>
      <trkpt lat="45.24976" lon="4.20082">
        <ele>720.72</ele>
        <time>2015-10-03T10:51:18.777Z</time>
      </trkpt>
      <trkpt lat="45.24976" lon="4.20079">
        <ele>720.88</ele>
        <time>2015-10-03T10:51:19.779Z</time>
      </trkpt>
      <trkpt lat="45.24974" lon="4.20066">
        <ele>721.46153846154</ele>
        <time>2015-10-03T10:51:23.768Z</time>
      </trkpt>
      <trkpt lat="45.24973" lon="4.20063">
        <ele>721.68</ele>
        <time>2015-10-03T10:51:24.773Z</time>
      </trkpt>
      <trkpt lat="45.24972" lon="4.20054">
        <ele>722.24</ele>
        <time>2015-10-03T10:51:27.768Z</time>
      </trkpt>
      <trkpt lat="45.24971" lon="4.20045">
        <ele>722.72</ele>
        <time>2015-10-03T10:51:30.776Z</time>
      </trkpt>
      <trkpt lat="45.24968" lon="4.20033">
        <ele>723.6</ele>
        <time>2015-10-03T10:51:34.775Z</time>
      </trkpt>
      <trkpt lat="45.24966" lon="4.20023">
        <ele>724.12</ele>
        <time>2015-10-03T10:51:37.798Z</time>
      </trkpt>
      <trkpt lat="45.24966" lon="4.20017">
        <ele>724.56</ele>
        <time>2015-10-03T10:51:39.801Z</time>
      </trkpt>
      <trkpt lat="45.24966" lon="4.20014">
        <ele>724.68</ele>
        <time>2015-10-03T10:51:40.840Z</time>
      </trkpt>
      <trkpt lat="45.24965" lon="4.20012">
        <ele>724.88</ele>
        <time>2015-10-03T10:51:41.826Z</time>
      </trkpt>
      <trkpt lat="45.24965" lon="4.20011">
        <ele>725.12</ele>
        <time>2015-10-03T10:51:42.800Z</time>
      </trkpt>
      <trkpt lat="45.24966" lon="4.20008">
        <ele>725.32</ele>
        <time>2015-10-03T10:51:43.820Z</time>
      </trkpt>
      <trkpt lat="45.24966" lon="4.20006">
        <ele>725.52</ele>
        <time>2015-10-03T10:51:44.850Z</time>
      </trkpt>
      <trkpt lat="45.24965" lon="4.20003">
        <ele>725.76</ele>
        <time>2015-10-03T10:51:45.821Z</time>
      </trkpt>
      <trkpt lat="45.24964" lon="4.20001">
        <ele>725.92</ele>
        <time>2015-10-03T10:51:46.819Z</time>
      </trkpt>
      <trkpt lat="45.24963" lon="4.19999">
        <ele>726.12</ele>
        <time>2015-10-03T10:51:47.817Z</time>
      </trkpt>
      <trkpt lat="45.24963" lon="4.19997">
        <ele>726.36</ele>
        <time>2015-10-03T10:51:48.822Z</time>
      </trkpt>
      <trkpt lat="45.24961" lon="4.19992">
        <ele>726.84</ele>
        <time>2015-10-03T10:51:50.839Z</time>
      </trkpt>
      <trkpt lat="45.24958" lon="4.19984">
        <ele>727.48</ele>
        <time>2015-10-03T10:51:53.783Z</time>
      </trkpt>
      <trkpt lat="45.24955" lon="4.19977">
        <ele>728.04</ele>
        <time>2015-10-03T10:51:56.777Z</time>
      </trkpt>
      <trkpt lat="45.24953" lon="4.19973">
        <ele>728.34615384615</ele>
        <time>2015-10-03T10:51:58.772Z</time>
      </trkpt>
      <trkpt lat="45.24952" lon="4.19972">
        <ele>728.53846153846</ele>
        <time>2015-10-03T10:51:59.765Z</time>
      </trkpt>
      <trkpt lat="45.24951" lon="4.1997">
        <ele>728.92</ele>
        <time>2015-10-03T10:52:00.776Z</time>
      </trkpt>
      <trkpt lat="45.2495" lon="4.19968">
        <ele>728.96153846154</ele>
        <time>2015-10-03T10:52:01.763Z</time>
      </trkpt>
      <trkpt lat="45.24948" lon="4.19964">
        <ele>729.61538461538</ele>
        <time>2015-10-03T10:52:04.780Z</time>
      </trkpt>
      <trkpt lat="45.24946" lon="4.19962">
        <ele>729.76923076923</ele>
        <time>2015-10-03T10:52:05.769Z</time>
      </trkpt>
      <trkpt lat="45.24942" lon="4.19956">
        <ele>730.42307692308</ele>
        <time>2015-10-03T10:52:09.774Z</time>
      </trkpt>
      <trkpt lat="45.24938" lon="4.19952">
        <ele>730.92307692308</ele>
        <time>2015-10-03T10:52:12.760Z</time>
      </trkpt>
      <trkpt lat="45.24937" lon="4.19951">
        <ele>731.07692307692</ele>
        <time>2015-10-03T10:52:13.770Z</time>
      </trkpt>
      <trkpt lat="45.24936" lon="4.19949">
        <ele>731.19230769231</ele>
        <time>2015-10-03T10:52:14.772Z</time>
      </trkpt>
      <trkpt lat="45.24935" lon="4.19948">
        <ele>731.26923076923</ele>
        <time>2015-10-03T10:52:15.764Z</time>
      </trkpt>
      <trkpt lat="45.24933" lon="4.19947">
        <ele>731.42307692308</ele>
        <time>2015-10-03T10:52:16.760Z</time>
      </trkpt>
      <trkpt lat="45.24929" lon="4.19946">
        <ele>731.69230769231</ele>
        <time>2015-10-03T10:52:18.773Z</time>
      </trkpt>
      <trkpt lat="45.24928" lon="4.19944">
        <ele>731.84615384615</ele>
        <time>2015-10-03T10:52:19.755Z</time>
      </trkpt>
      <trkpt lat="45.24927" lon="4.19942">
        <ele>732</ele>
        <time>2015-10-03T10:52:20.762Z</time>
      </trkpt>
      <trkpt lat="45.24925" lon="4.19934">
        <ele>732.57692307692</ele>
        <time>2015-10-03T10:52:23.762Z</time>
      </trkpt>
      <trkpt lat="45.24924" lon="4.19932">
        <ele>732.69230769231</ele>
        <time>2015-10-03T10:52:24.756Z</time>
      </trkpt>
      <trkpt lat="45.24923" lon="4.19929">
        <ele>732.80769230769</ele>
        <time>2015-10-03T10:52:25.755Z</time>
      </trkpt>
      <trkpt lat="45.24922" lon="4.19927">
        <ele>733.12</ele>
        <time>2015-10-03T10:52:26.771Z</time>
      </trkpt>
      <trkpt lat="45.24921" lon="4.19923">
        <ele>733.26923076923</ele>
        <time>2015-10-03T10:52:28.753Z</time>
      </trkpt>
      <trkpt lat="45.2492" lon="4.19923">
        <ele>733.38461538462</ele>
        <time>2015-10-03T10:52:29.749Z</time>
      </trkpt>
      <trkpt lat="45.24919" lon="4.19922">
        <ele>733.5</ele>
        <time>2015-10-03T10:52:30.752Z</time>
      </trkpt>
      <trkpt lat="45.24916" lon="4.19919">
        <ele>733.73076923077</ele>
        <time>2015-10-03T10:52:32.744Z</time>
      </trkpt>
      <trkpt lat="45.24914" lon="4.19918">
        <ele>733.96</ele>
        <time>2015-10-03T10:52:33.762Z</time>
      </trkpt>
      <trkpt lat="45.2491" lon="4.19916">
        <ele>734.23076923077</ele>
        <time>2015-10-03T10:52:35.749Z</time>
      </trkpt>
      <trkpt lat="45.24909" lon="4.19914">
        <ele>734.4</ele>
        <time>2015-10-03T10:52:36.764Z</time>
      </trkpt>
      <trkpt lat="45.24909" lon="4.19912">
        <ele>734.56</ele>
        <time>2015-10-03T10:52:37.766Z</time>
      </trkpt>
      <trkpt lat="45.24909" lon="4.1991">
        <ele>734.72</ele>
        <time>2015-10-03T10:52:38.778Z</time>
      </trkpt>
      <trkpt lat="45.24908" lon="4.19908">
        <ele>734.84</ele>
        <time>2015-10-03T10:52:39.773Z</time>
      </trkpt>
      <trkpt lat="45.24907" lon="4.19907">
        <ele>734.88461538462</ele>
        <time>2015-10-03T10:52:40.763Z</time>
      </trkpt>
      <trkpt lat="45.24906" lon="4.19906">
        <ele>735.07692307692</ele>
        <time>2015-10-03T10:52:41.760Z</time>
      </trkpt>
      <trkpt lat="45.24904" lon="4.19905">
        <ele>735.19230769231</ele>
        <time>2015-10-03T10:52:42.755Z</time>
      </trkpt>
      <trkpt lat="45.24903" lon="4.19903">
        <ele>735.34615384615</ele>
        <time>2015-10-03T10:52:43.757Z</time>
      </trkpt>
      <trkpt lat="45.24903" lon="4.19902">
        <ele>735.53846153846</ele>
        <time>2015-10-03T10:52:44.751Z</time>
      </trkpt>
      <trkpt lat="45.24903" lon="4.199">
        <ele>735.69230769231</ele>
        <time>2015-10-03T10:52:45.759Z</time>
      </trkpt>
      <trkpt lat="45.24903" lon="4.19898">
        <ele>735.92</ele>
        <time>2015-10-03T10:52:46.756Z</time>
      </trkpt>
      <trkpt lat="45.24902" lon="4.19897">
        <ele>736</ele>
        <time>2015-10-03T10:52:47.758Z</time>
      </trkpt>
      <trkpt lat="45.249" lon="4.19893">
        <ele>736.52</ele>
        <time>2015-10-03T10:52:50.759Z</time>
      </trkpt>
      <trkpt lat="45.24899" lon="4.1989">
        <ele>736.8</ele>
        <time>2015-10-03T10:52:52.772Z</time>
      </trkpt>
      <trkpt lat="45.24898" lon="4.1989">
        <ele>737</ele>
        <time>2015-10-03T10:52:53.754Z</time>
      </trkpt>
      <trkpt lat="45.24897" lon="4.1989">
        <ele>737.07692307692</ele>
        <time>2015-10-03T10:52:54.747Z</time>
      </trkpt>
      <trkpt lat="45.24896" lon="4.19889">
        <ele>737.26923076923</ele>
        <time>2015-10-03T10:52:55.743Z</time>
      </trkpt>
      <trkpt lat="45.24895" lon="4.19887">
        <ele>737.46153846154</ele>
        <time>2015-10-03T10:52:56.741Z</time>
      </trkpt>
      <trkpt lat="45.24895" lon="4.19885">
        <ele>737.76</ele>
        <time>2015-10-03T10:52:57.755Z</time>
      </trkpt>
      <trkpt lat="45.24894" lon="4.19881">
        <ele>738.04</ele>
        <time>2015-10-03T10:52:59.752Z</time>
      </trkpt>
      <trkpt lat="45.24893" lon="4.1988">
        <ele>738.24</ele>
        <time>2015-10-03T10:53:00.753Z</time>
      </trkpt>
      <trkpt lat="45.24893" lon="4.19879">
        <ele>738.30769230769</ele>
        <time>2015-10-03T10:53:01.752Z</time>
      </trkpt>
      <trkpt lat="45.24893" lon="4.19877">
        <ele>738.53846153846</ele>
        <time>2015-10-03T10:53:02.746Z</time>
      </trkpt>
      <trkpt lat="45.24893" lon="4.19875">
        <ele>738.69230769231</ele>
        <time>2015-10-03T10:53:03.747Z</time>
      </trkpt>
      <trkpt lat="45.24894" lon="4.19873">
        <ele>738.84615384615</ele>
        <time>2015-10-03T10:53:04.751Z</time>
      </trkpt>
      <trkpt lat="45.24895" lon="4.19869">
        <ele>739.23076923077</ele>
        <time>2015-10-03T10:53:06.752Z</time>
      </trkpt>
      <trkpt lat="45.24896" lon="4.19862">
        <ele>739.88</ele>
        <time>2015-10-03T10:53:09.763Z</time>
      </trkpt>
      <trkpt lat="45.24897" lon="4.19857">
        <ele>740.32</ele>
        <time>2015-10-03T10:53:12.767Z</time>
      </trkpt>
      <trkpt lat="45.24898" lon="4.19853">
        <ele>740.68</ele>
        <time>2015-10-03T10:53:14.774Z</time>
      </trkpt>
      <trkpt lat="45.24899" lon="4.1985">
        <ele>740.92</ele>
        <time>2015-10-03T10:53:16.788Z</time>
      </trkpt>
      <trkpt lat="45.24899" lon="4.19848">
        <ele>741.08</ele>
        <time>2015-10-03T10:53:17.781Z</time>
      </trkpt>
      <trkpt lat="45.24899" lon="4.19846">
        <ele>741.28</ele>
        <time>2015-10-03T10:53:18.816Z</time>
      </trkpt>
      <trkpt lat="45.24899" lon="4.19844">
        <ele>741.44</ele>
        <time>2015-10-03T10:53:19.806Z</time>
      </trkpt>
      <trkpt lat="45.249" lon="4.1984">
        <ele>741.68</ele>
        <time>2015-10-03T10:53:21.807Z</time>
      </trkpt>
      <trkpt lat="45.249" lon="4.19838">
        <ele>741.72</ele>
        <time>2015-10-03T10:53:22.823Z</time>
      </trkpt>
      <trkpt lat="45.249" lon="4.19831">
        <ele>742.04</ele>
        <time>2015-10-03T10:53:25.852Z</time>
      </trkpt>
      <trkpt lat="45.24901" lon="4.19826">
        <ele>742.32</ele>
        <time>2015-10-03T10:53:28.757Z</time>
      </trkpt>
      <trkpt lat="45.24901" lon="4.19825">
        <ele>742.34615384615</ele>
        <time>2015-10-03T10:53:29.750Z</time>
      </trkpt>
      <trkpt lat="45.24901" lon="4.19823">
        <ele>742.44</ele>
        <time>2015-10-03T10:53:30.810Z</time>
      </trkpt>
      <trkpt lat="45.24901" lon="4.19819">
        <ele>742.56</ele>
        <time>2015-10-03T10:53:32.797Z</time>
      </trkpt>
      <trkpt lat="45.24901" lon="4.19819">
        <ele>742.53846153846</ele>
        <time>2015-10-03T10:53:33.722Z</time>
      </trkpt>
      <trkpt lat="45.24901" lon="4.1982">
        <ele>742.61538461538</ele>
        <time>2015-10-03T10:53:36.723Z</time>
      </trkpt>
      <trkpt lat="45.24901" lon="4.1982">
        <ele>742.68</ele>
        <time>2015-10-03T10:53:40.728Z</time>
      </trkpt>
      <trkpt lat="45.24901" lon="4.1982">
        <ele>742.64</ele>
        <time>2015-10-03T10:53:44.709Z</time>
      </trkpt>
      <trkpt lat="45.24901" lon="4.1982">
        <ele>742.54166666667</ele>
        <time>2015-10-03T10:53:48.245Z</time>
      </trkpt>
      <trkpt lat="45.24901" lon="4.1982">
        <ele>742.44</ele>
        <time>2015-10-03T10:53:51.719Z</time>
      </trkpt>
      <trkpt lat="45.24901" lon="4.1982">
        <ele>742.32</ele>
        <time>2015-10-03T10:53:54.724Z</time>
      </trkpt>
      <trkpt lat="45.24901" lon="4.1982">
        <ele>742.4</ele>
        <time>2015-10-03T10:53:58.716Z</time>
      </trkpt>
      <trkpt lat="45.24901" lon="4.1982">
        <ele>742.41666666667</ele>
        <time>2015-10-03T10:54:02.726Z</time>
      </trkpt>
      <trkpt lat="45.24901" lon="4.1982">
        <ele>742.48</ele>
        <time>2015-10-03T10:54:06.728Z</time>
      </trkpt>
      <trkpt lat="45.24901" lon="4.1982">
        <ele>742.5</ele>
        <time>2015-10-03T10:54:10.717Z</time>
      </trkpt>
      <trkpt lat="45.24901" lon="4.1982">
        <ele>742.61538461538</ele>
        <time>2015-10-03T10:54:14.720Z</time>
      </trkpt>
      <trkpt lat="45.249" lon="4.1982">
        <ele>742.64</ele>
        <time>2015-10-03T10:54:17.723Z</time>
      </trkpt>
      <trkpt lat="45.249" lon="4.1982">
        <ele>742.6</ele>
        <time>2015-10-03T10:54:20.737Z</time>
      </trkpt>
      <trkpt lat="45.249" lon="4.1982">
        <ele>742.44</ele>
        <time>2015-10-03T10:54:24.732Z</time>
      </trkpt>
      <trkpt lat="45.249" lon="4.1982">
        <ele>742.36</ele>
        <time>2015-10-03T10:54:28.736Z</time>
      </trkpt>
      <trkpt lat="45.249" lon="4.1982">
        <ele>742.34615384615</ele>
        <time>2015-10-03T10:54:32.719Z</time>
      </trkpt>
      <trkpt lat="45.249" lon="4.1982">
        <ele>742.36</ele>
        <time>2015-10-03T10:54:35.732Z</time>
      </trkpt>
      <trkpt lat="45.249" lon="4.1982">
        <ele>742.56</ele>
        <time>2015-10-03T10:54:39.738Z</time>
      </trkpt>
      <trkpt lat="45.249" lon="4.19819">
        <ele>742.61538461538</ele>
        <time>2015-10-03T10:54:43.723Z</time>
      </trkpt>
      <trkpt lat="45.249" lon="4.1982">
        <ele>742.72</ele>
        <time>2015-10-03T10:54:47.723Z</time>
      </trkpt>
      <trkpt lat="45.249" lon="4.1982">
        <ele>742.76</ele>
        <time>2015-10-03T10:54:50.729Z</time>
      </trkpt>
      <trkpt lat="45.249" lon="4.1982">
        <ele>742.76923076923</ele>
        <time>2015-10-03T10:54:54.716Z</time>
      </trkpt>
      <trkpt lat="45.249" lon="4.1982">
        <ele>742.72</ele>
        <time>2015-10-03T10:54:57.730Z</time>
      </trkpt>
      <trkpt lat="45.24899" lon="4.1982">
        <ele>742.80769230769</ele>
        <time>2015-10-03T10:55:01.717Z</time>
      </trkpt>
      <trkpt lat="45.249" lon="4.1982">
        <ele>742.8</ele>
        <time>2015-10-03T10:55:02.722Z</time>
      </trkpt>
      <trkpt lat="45.249" lon="4.19821">
        <ele>742.76923076923</ele>
        <time>2015-10-03T10:55:03.717Z</time>
      </trkpt>
      <trkpt lat="45.249" lon="4.19821">
        <ele>742.69230769231</ele>
        <time>2015-10-03T10:55:05.726Z</time>
      </trkpt>
      <trkpt lat="45.24899" lon="4.1982">
        <ele>742.68</ele>
        <time>2015-10-03T10:55:06.737Z</time>
      </trkpt>
      <trkpt lat="45.24899" lon="4.1982">
        <ele>742.65384615385</ele>
        <time>2015-10-03T10:55:10.717Z</time>
      </trkpt>
      <trkpt lat="45.24899" lon="4.1982">
        <ele>742.64</ele>
        <time>2015-10-03T10:55:14.730Z</time>
      </trkpt>
      <trkpt lat="45.24899" lon="4.1982">
        <ele>742.57692307692</ele>
        <time>2015-10-03T10:55:18.709Z</time>
      </trkpt>
      <trkpt lat="45.24899" lon="4.1982">
        <ele>742.57692307692</ele>
        <time>2015-10-03T10:55:21.719Z</time>
      </trkpt>
      <trkpt lat="45.24899" lon="4.1982">
        <ele>742.53846153846</ele>
        <time>2015-10-03T10:55:25.719Z</time>
      </trkpt>
      <trkpt lat="45.24898" lon="4.1982">
        <ele>742.28</ele>
        <time>2015-10-03T10:55:29.719Z</time>
      </trkpt>
      <trkpt lat="45.24898" lon="4.19819">
        <ele>742.19230769231</ele>
        <time>2015-10-03T10:55:31.732Z</time>
      </trkpt>
      <trkpt lat="45.24898" lon="4.19818">
        <ele>742.2</ele>
        <time>2015-10-03T10:55:32.732Z</time>
      </trkpt>
      <trkpt lat="45.24898" lon="4.19816">
        <ele>742.2</ele>
        <time>2015-10-03T10:55:33.740Z</time>
      </trkpt>
      <trkpt lat="45.24898" lon="4.19815">
        <ele>742.12</ele>
        <time>2015-10-03T10:55:34.731Z</time>
      </trkpt>
      <trkpt lat="45.24897" lon="4.19813">
        <ele>742.04</ele>
        <time>2015-10-03T10:55:35.729Z</time>
      </trkpt>
      <trkpt lat="45.24896" lon="4.19809">
        <ele>742.04</ele>
        <time>2015-10-03T10:55:37.740Z</time>
      </trkpt>
      <trkpt lat="45.24895" lon="4.19799">
        <ele>741.95833333333</ele>
        <time>2015-10-03T10:55:39.737Z</time>
      </trkpt>
      <trkpt lat="45.24894" lon="4.19786">
        <ele>741.70833333333</ele>
        <time>2015-10-03T10:55:41.746Z</time>
      </trkpt>
      <trkpt lat="45.24892" lon="4.1978">
        <ele>741.5</ele>
        <time>2015-10-03T10:55:42.737Z</time>
      </trkpt>
      <trkpt lat="45.2489" lon="4.19773">
        <ele>741.33333333333</ele>
        <time>2015-10-03T10:55:43.740Z</time>
      </trkpt>
      <trkpt lat="45.24884" lon="4.19765">
        <ele>741.125</ele>
        <time>2015-10-03T10:55:44.738Z</time>
      </trkpt>
      <trkpt lat="45.24872" lon="4.19755">
        <ele>740.91666666667</ele>
        <time>2015-10-03T10:55:46.709Z</time>
      </trkpt>
      <trkpt lat="45.24858" lon="4.19739">
        <ele>740.08695652174</ele>
        <time>2015-10-03T10:55:49.718Z</time>
      </trkpt>
      <trkpt lat="45.2485" lon="4.19728">
        <ele>739.60869565217</ele>
        <time>2015-10-03T10:55:51.726Z</time>
      </trkpt>
      <trkpt lat="45.24848" lon="4.19723">
        <ele>739.30434782609</ele>
        <time>2015-10-03T10:55:53.039Z</time>
      </trkpt>
      <trkpt lat="45.24845" lon="4.19717">
        <ele>739</ele>
        <time>2015-10-03T10:55:53.723Z</time>
      </trkpt>
      <trkpt lat="45.24841" lon="4.19705">
        <ele>738.58333333333</ele>
        <time>2015-10-03T10:55:55.719Z</time>
      </trkpt>
      <trkpt lat="45.24837" lon="4.197">
        <ele>738.29166666667</ele>
        <time>2015-10-03T10:55:56.720Z</time>
      </trkpt>
      <trkpt lat="45.24834" lon="4.19694">
        <ele>738.04166666667</ele>
        <time>2015-10-03T10:55:57.731Z</time>
      </trkpt>
      <trkpt lat="45.24831" lon="4.19688">
        <ele>737.75</ele>
        <time>2015-10-03T10:55:58.728Z</time>
      </trkpt>
      <trkpt lat="45.24828" lon="4.19682">
        <ele>737.45833333333</ele>
        <time>2015-10-03T10:55:59.727Z</time>
      </trkpt>
      <trkpt lat="45.24824" lon="4.19677">
        <ele>737</ele>
        <time>2015-10-03T10:56:00.733Z</time>
      </trkpt>
      <trkpt lat="45.24819" lon="4.19672">
        <ele>736.79166666667</ele>
        <time>2015-10-03T10:56:01.731Z</time>
      </trkpt>
      <trkpt lat="45.2481" lon="4.19662">
        <ele>736.16666666667</ele>
        <time>2015-10-03T10:56:03.725Z</time>
      </trkpt>
      <trkpt lat="45.24799" lon="4.19653">
        <ele>735.625</ele>
        <time>2015-10-03T10:56:05.748Z</time>
      </trkpt>
      <trkpt lat="45.24794" lon="4.19647">
        <ele>735.56</ele>
        <time>2015-10-03T10:56:06.744Z</time>
      </trkpt>
      <trkpt lat="45.2479" lon="4.19641">
        <ele>735.32</ele>
        <time>2015-10-03T10:56:07.735Z</time>
      </trkpt>
      <trkpt lat="45.24787" lon="4.19634">
        <ele>735.08</ele>
        <time>2015-10-03T10:56:08.727Z</time>
      </trkpt>
      <trkpt lat="45.24783" lon="4.19627">
        <ele>734.84</ele>
        <time>2015-10-03T10:56:09.732Z</time>
      </trkpt>
      <trkpt lat="45.24782" lon="4.1962">
        <ele>734.6</ele>
        <time>2015-10-03T10:56:10.743Z</time>
      </trkpt>
      <trkpt lat="45.24782" lon="4.19612">
        <ele>734.44</ele>
        <time>2015-10-03T10:56:11.731Z</time>
      </trkpt>
      <trkpt lat="45.24781" lon="4.19597">
        <ele>734.04</ele>
        <time>2015-10-03T10:56:13.731Z</time>
      </trkpt>
      <trkpt lat="45.24779" lon="4.19567">
        <ele>733.30769230769</ele>
        <time>2015-10-03T10:56:17.729Z</time>
      </trkpt>
      <trkpt lat="45.24779" lon="4.19559">
        <ele>733.08</ele>
        <time>2015-10-03T10:56:18.731Z</time>
      </trkpt>
      <trkpt lat="45.24778" lon="4.19551">
        <ele>732.84</ele>
        <time>2015-10-03T10:56:19.735Z</time>
      </trkpt>
      <trkpt lat="45.24777" lon="4.19543">
        <ele>732.6</ele>
        <time>2015-10-03T10:56:20.726Z</time>
      </trkpt>
      <trkpt lat="45.24775" lon="4.19526">
        <ele>732.26923076923</ele>
        <time>2015-10-03T10:56:22.725Z</time>
      </trkpt>
      <trkpt lat="45.24775" lon="4.19519">
        <ele>732.03846153846</ele>
        <time>2015-10-03T10:56:23.722Z</time>
      </trkpt>
      <trkpt lat="45.24773" lon="4.19496">
        <ele>731.16</ele>
        <time>2015-10-03T10:56:26.739Z</time>
      </trkpt>
      <trkpt lat="45.24771" lon="4.19488">
        <ele>730.84</ele>
        <time>2015-10-03T10:56:27.733Z</time>
      </trkpt>
      <trkpt lat="45.24769" lon="4.19479">
        <ele>730.48</ele>
        <time>2015-10-03T10:56:28.732Z</time>
      </trkpt>
      <trkpt lat="45.24765" lon="4.19462">
        <ele>730</ele>
        <time>2015-10-03T10:56:30.721Z</time>
      </trkpt>
      <trkpt lat="45.24757" lon="4.19442">
        <ele>729.26923076923</ele>
        <time>2015-10-03T10:56:32.731Z</time>
      </trkpt>
      <trkpt lat="45.24749" lon="4.19422">
        <ele>728.46153846154</ele>
        <time>2015-10-03T10:56:34.724Z</time>
      </trkpt>
      <trkpt lat="45.24738" lon="4.19405">
        <ele>727.52</ele>
        <time>2015-10-03T10:56:36.741Z</time>
      </trkpt>
      <trkpt lat="45.24732" lon="4.19397">
        <ele>727.12</ele>
        <time>2015-10-03T10:56:37.736Z</time>
      </trkpt>
      <trkpt lat="45.24725" lon="4.19392">
        <ele>726.92307692308</ele>
        <time>2015-10-03T10:56:38.728Z</time>
      </trkpt>
      <trkpt lat="45.24718" lon="4.1939">
        <ele>726.57692307692</ele>
        <time>2015-10-03T10:56:39.721Z</time>
      </trkpt>
      <trkpt lat="45.2471" lon="4.19388">
        <ele>726.15384615385</ele>
        <time>2015-10-03T10:56:40.722Z</time>
      </trkpt>
      <trkpt lat="45.24697" lon="4.19385">
        <ele>725.38461538462</ele>
        <time>2015-10-03T10:56:42.727Z</time>
      </trkpt>
      <trkpt lat="45.24691" lon="4.19381">
        <ele>725</ele>
        <time>2015-10-03T10:56:43.725Z</time>
      </trkpt>
      <trkpt lat="45.24686" lon="4.19377">
        <ele>724.57692307692</ele>
        <time>2015-10-03T10:56:44.733Z</time>
      </trkpt>
      <trkpt lat="45.24685" lon="4.1937">
        <ele>724</ele>
        <time>2015-10-03T10:56:45.729Z</time>
      </trkpt>
      <trkpt lat="45.24683" lon="4.19365">
        <ele>723.84615384615</ele>
        <time>2015-10-03T10:56:46.728Z</time>
      </trkpt>
      <trkpt lat="45.24682" lon="4.19358">
        <ele>723.46153846154</ele>
        <time>2015-10-03T10:56:47.725Z</time>
      </trkpt>
      <trkpt lat="45.24681" lon="4.19354">
        <ele>722.8</ele>
        <time>2015-10-03T10:56:48.723Z</time>
      </trkpt>
      <trkpt lat="45.2468" lon="4.19346">
        <ele>722.34615384615</ele>
        <time>2015-10-03T10:56:50.720Z</time>
      </trkpt>
      <trkpt lat="45.24681" lon="4.19331">
        <ele>721.5</ele>
        <time>2015-10-03T10:56:53.726Z</time>
      </trkpt>
      <trkpt lat="45.24681" lon="4.19328">
        <ele>720.96</ele>
        <time>2015-10-03T10:56:54.738Z</time>
      </trkpt>
      <trkpt lat="45.24682" lon="4.19326">
        <ele>720.72</ele>
        <time>2015-10-03T10:56:55.777Z</time>
      </trkpt>
      <trkpt lat="45.24681" lon="4.19326">
        <ele>720.52</ele>
        <time>2015-10-03T10:56:56.820Z</time>
      </trkpt>
      <trkpt lat="45.24681" lon="4.19323">
        <ele>720.36</ele>
        <time>2015-10-03T10:56:57.797Z</time>
      </trkpt>
      <trkpt lat="45.24681" lon="4.19321">
        <ele>720.28</ele>
        <time>2015-10-03T10:56:58.776Z</time>
      </trkpt>
      <trkpt lat="45.24682" lon="4.1932">
        <ele>720.2</ele>
        <time>2015-10-03T10:56:59.784Z</time>
      </trkpt>
      <trkpt lat="45.24683" lon="4.19319">
        <ele>720.12</ele>
        <time>2015-10-03T10:57:00.783Z</time>
      </trkpt>
      <trkpt lat="45.24682" lon="4.19318">
        <ele>720</ele>
        <time>2015-10-03T10:57:01.803Z</time>
      </trkpt>
      <trkpt lat="45.24682" lon="4.19316">
        <ele>720</ele>
        <time>2015-10-03T10:57:02.811Z</time>
      </trkpt>
      <trkpt lat="45.24683" lon="4.19314">
        <ele>720</ele>
        <time>2015-10-03T10:57:03.759Z</time>
      </trkpt>
      <trkpt lat="45.24683" lon="4.19311">
        <ele>720</ele>
        <time>2015-10-03T10:57:04.728Z</time>
      </trkpt>
      <trkpt lat="45.24682" lon="4.1931">
        <ele>720.04</ele>
        <time>2015-10-03T10:57:05.765Z</time>
      </trkpt>
      <trkpt lat="45.24682" lon="4.19307">
        <ele>720.12</ele>
        <time>2015-10-03T10:57:06.776Z</time>
      </trkpt>
      <trkpt lat="45.24685" lon="4.19297">
        <ele>720.52</ele>
        <time>2015-10-03T10:57:09.785Z</time>
      </trkpt>
      <trkpt lat="45.24687" lon="4.19292">
        <ele>720.8</ele>
        <time>2015-10-03T10:57:11.783Z</time>
      </trkpt>
      <trkpt lat="45.24691" lon="4.1928">
        <ele>721.53846153846</ele>
        <time>2015-10-03T10:57:15.717Z</time>
      </trkpt>
      <trkpt lat="45.24691" lon="4.19277">
        <ele>721.92</ele>
        <time>2015-10-03T10:57:16.746Z</time>
      </trkpt>
      <trkpt lat="45.24691" lon="4.19275">
        <ele>722.16</ele>
        <time>2015-10-03T10:57:17.775Z</time>
      </trkpt>
      <trkpt lat="45.2469" lon="4.19274">
        <ele>722.44</ele>
        <time>2015-10-03T10:57:18.753Z</time>
      </trkpt>
      <trkpt lat="45.2469" lon="4.19271">
        <ele>722.57692307692</ele>
        <time>2015-10-03T10:57:19.736Z</time>
      </trkpt>
      <trkpt lat="45.24691" lon="4.19265">
        <ele>723.11538461538</ele>
        <time>2015-10-03T10:57:21.792Z</time>
      </trkpt>
      <trkpt lat="45.24692" lon="4.19262">
        <ele>723.34615384615</ele>
        <time>2015-10-03T10:57:22.771Z</time>
      </trkpt>
      <trkpt lat="45.24691" lon="4.19259">
        <ele>723.69230769231</ele>
        <time>2015-10-03T10:57:23.760Z</time>
      </trkpt>
      <trkpt lat="45.24691" lon="4.19256">
        <ele>724</ele>
        <time>2015-10-03T10:57:24.768Z</time>
      </trkpt>
      <trkpt lat="45.2469" lon="4.19253">
        <ele>724.30769230769</ele>
        <time>2015-10-03T10:57:25.779Z</time>
      </trkpt>
      <trkpt lat="45.2469" lon="4.19249">
        <ele>724.76</ele>
        <time>2015-10-03T10:57:26.806Z</time>
      </trkpt>
      <trkpt lat="45.2469" lon="4.19244">
        <ele>725.16</ele>
        <time>2015-10-03T10:57:28.796Z</time>
      </trkpt>
      <trkpt lat="45.24689" lon="4.19243">
        <ele>725.4</ele>
        <time>2015-10-03T10:57:29.786Z</time>
      </trkpt>
      <trkpt lat="45.24688" lon="4.19241">
        <ele>725.64</ele>
        <time>2015-10-03T10:57:30.785Z</time>
      </trkpt>
      <trkpt lat="45.24688" lon="4.19238">
        <ele>725.88</ele>
        <time>2015-10-03T10:57:31.794Z</time>
      </trkpt>
      <trkpt lat="45.24687" lon="4.19234">
        <ele>726.15384615385</ele>
        <time>2015-10-03T10:57:33.747Z</time>
      </trkpt>
      <trkpt lat="45.24686" lon="4.19232">
        <ele>726.30769230769</ele>
        <time>2015-10-03T10:57:34.752Z</time>
      </trkpt>
      <trkpt lat="45.24686" lon="4.19229">
        <ele>726.5</ele>
        <time>2015-10-03T10:57:35.749Z</time>
      </trkpt>
      <trkpt lat="45.24686" lon="4.19218">
        <ele>727.45833333333</ele>
        <time>2015-10-03T10:57:39.765Z</time>
      </trkpt>
      <trkpt lat="45.24685" lon="4.19215">
        <ele>727.54166666667</ele>
        <time>2015-10-03T10:57:40.755Z</time>
      </trkpt>
      <trkpt lat="45.24685" lon="4.19214">
        <ele>727.75</ele>
        <time>2015-10-03T10:57:41.757Z</time>
      </trkpt>
      <trkpt lat="45.24683" lon="4.1921">
        <ele>728.16666666667</ele>
        <time>2015-10-03T10:57:43.767Z</time>
      </trkpt>
      <trkpt lat="45.24684" lon="4.19201">
        <ele>728.72</ele>
        <time>2015-10-03T10:57:46.784Z</time>
      </trkpt>
      <trkpt lat="45.24684" lon="4.19198">
        <ele>729</ele>
        <time>2015-10-03T10:57:47.775Z</time>
      </trkpt>
      <trkpt lat="45.24685" lon="4.19196">
        <ele>729.125</ele>
        <time>2015-10-03T10:57:48.772Z</time>
      </trkpt>
      <trkpt lat="45.24685" lon="4.19193">
        <ele>729.24</ele>
        <time>2015-10-03T10:57:49.764Z</time>
      </trkpt>
      <trkpt lat="45.24685" lon="4.19186">
        <ele>729.76</ele>
        <time>2015-10-03T10:57:52.776Z</time>
      </trkpt>
      <trkpt lat="45.24685" lon="4.19183">
        <ele>729.92</ele>
        <time>2015-10-03T10:57:53.788Z</time>
      </trkpt>
      <trkpt lat="45.24685" lon="4.19178">
        <ele>730.41666666667</ele>
        <time>2015-10-03T10:57:55.800Z</time>
      </trkpt>
      <trkpt lat="45.24684" lon="4.19168">
        <ele>731.29166666667</ele>
        <time>2015-10-03T10:57:59.783Z</time>
      </trkpt>
      <trkpt lat="45.24683" lon="4.19165">
        <ele>731.45833333333</ele>
        <time>2015-10-03T10:58:00.791Z</time>
      </trkpt>
      <trkpt lat="45.24683" lon="4.19163">
        <ele>731.58333333333</ele>
        <time>2015-10-03T10:58:01.790Z</time>
      </trkpt>
      <trkpt lat="45.24682" lon="4.19159">
        <ele>731.84</ele>
        <time>2015-10-03T10:58:03.801Z</time>
      </trkpt>
      <trkpt lat="45.24682" lon="4.19158">
        <ele>732</ele>
        <time>2015-10-03T10:58:04.808Z</time>
      </trkpt>
      <trkpt lat="45.24682" lon="4.19156">
        <ele>732.2</ele>
        <time>2015-10-03T10:58:05.766Z</time>
      </trkpt>
      <trkpt lat="45.24683" lon="4.19152">
        <ele>732.42307692308</ele>
        <time>2015-10-03T10:58:07.733Z</time>
      </trkpt>
      <trkpt lat="45.24684" lon="4.19151">
        <ele>732.57692307692</ele>
        <time>2015-10-03T10:58:08.724Z</time>
      </trkpt>
      <trkpt lat="45.24685" lon="4.19149">
        <ele>732.73076923077</ele>
        <time>2015-10-03T10:58:09.712Z</time>
      </trkpt>
      <trkpt lat="45.24686" lon="4.19147">
        <ele>732.88461538462</ele>
        <time>2015-10-03T10:58:10.722Z</time>
      </trkpt>
      <trkpt lat="45.24688" lon="4.19146">
        <ele>733.03846153846</ele>
        <time>2015-10-03T10:58:11.730Z</time>
      </trkpt>
      <trkpt lat="45.24688" lon="4.19145">
        <ele>733.23076923077</ele>
        <time>2015-10-03T10:58:12.725Z</time>
      </trkpt>
      <trkpt lat="45.24689" lon="4.19144">
        <ele>733.42307692308</ele>
        <time>2015-10-03T10:58:13.728Z</time>
      </trkpt>
      <trkpt lat="45.2469" lon="4.19143">
        <ele>733.57692307692</ele>
        <time>2015-10-03T10:58:14.723Z</time>
      </trkpt>
      <trkpt lat="45.24691" lon="4.19143">
        <ele>733.69230769231</ele>
        <time>2015-10-03T10:58:15.712Z</time>
      </trkpt>
      <trkpt lat="45.24693" lon="4.19143">
        <ele>733.80769230769</ele>
        <time>2015-10-03T10:58:16.710Z</time>
      </trkpt>
      <trkpt lat="45.24694" lon="4.19144">
        <ele>733.92307692308</ele>
        <time>2015-10-03T10:58:17.723Z</time>
      </trkpt>
      <trkpt lat="45.24695" lon="4.19144">
        <ele>734</ele>
        <time>2015-10-03T10:58:18.726Z</time>
      </trkpt>
      <trkpt lat="45.24697" lon="4.19145">
        <ele>734.11538461538</ele>
        <time>2015-10-03T10:58:19.734Z</time>
      </trkpt>
      <trkpt lat="45.24698" lon="4.19144">
        <ele>734.23076923077</ele>
        <time>2015-10-03T10:58:20.719Z</time>
      </trkpt>
      <trkpt lat="45.24699" lon="4.19144">
        <ele>734.30769230769</ele>
        <time>2015-10-03T10:58:21.731Z</time>
      </trkpt>
      <trkpt lat="45.247" lon="4.19143">
        <ele>734.34615384615</ele>
        <time>2015-10-03T10:58:22.721Z</time>
      </trkpt>
      <trkpt lat="45.24702" lon="4.19144">
        <ele>734.42307692308</ele>
        <time>2015-10-03T10:58:23.736Z</time>
      </trkpt>
      <trkpt lat="45.24703" lon="4.19144">
        <ele>734.42307692308</ele>
        <time>2015-10-03T10:58:24.775Z</time>
      </trkpt>
      <trkpt lat="45.24704" lon="4.19144">
        <ele>734.46153846154</ele>
        <time>2015-10-03T10:58:25.790Z</time>
      </trkpt>
      <trkpt lat="45.24705" lon="4.19144">
        <ele>734.56</ele>
        <time>2015-10-03T10:58:26.804Z</time>
      </trkpt>
      <trkpt lat="45.24706" lon="4.19144">
        <ele>734.53846153846</ele>
        <time>2015-10-03T10:58:27.768Z</time>
      </trkpt>
      <trkpt lat="45.24707" lon="4.19144">
        <ele>734.57692307692</ele>
        <time>2015-10-03T10:58:28.720Z</time>
      </trkpt>
      <trkpt lat="45.24708" lon="4.19144">
        <ele>734.57692307692</ele>
        <time>2015-10-03T10:58:29.723Z</time>
      </trkpt>
      <trkpt lat="45.24709" lon="4.19144">
        <ele>734.61538461538</ele>
        <time>2015-10-03T10:58:30.732Z</time>
      </trkpt>
      <trkpt lat="45.2471" lon="4.19144">
        <ele>734.64</ele>
        <time>2015-10-03T10:58:31.737Z</time>
      </trkpt>
      <trkpt lat="45.24711" lon="4.19144">
        <ele>734.61538461538</ele>
        <time>2015-10-03T10:58:32.715Z</time>
      </trkpt>
      <trkpt lat="45.24713" lon="4.19144">
        <ele>734.57692307692</ele>
        <time>2015-10-03T10:58:33.721Z</time>
      </trkpt>
      <trkpt lat="45.24715" lon="4.19144">
        <ele>734.52</ele>
        <time>2015-10-03T10:58:34.719Z</time>
      </trkpt>
      <trkpt lat="45.24716" lon="4.19144">
        <ele>734.48</ele>
        <time>2015-10-03T10:58:35.730Z</time>
      </trkpt>
      <trkpt lat="45.24718" lon="4.19143">
        <ele>734.44</ele>
        <time>2015-10-03T10:58:36.735Z</time>
      </trkpt>
      <trkpt lat="45.2472" lon="4.19143">
        <ele>734.36</ele>
        <time>2015-10-03T10:58:37.729Z</time>
      </trkpt>
      <trkpt lat="45.24721" lon="4.19143">
        <ele>734.38461538462</ele>
        <time>2015-10-03T10:58:38.722Z</time>
      </trkpt>
      <trkpt lat="45.24722" lon="4.19143">
        <ele>734.32</ele>
        <time>2015-10-03T10:58:39.732Z</time>
      </trkpt>
      <trkpt lat="45.24724" lon="4.19143">
        <ele>734.24</ele>
        <time>2015-10-03T10:58:40.731Z</time>
      </trkpt>
      <trkpt lat="45.24726" lon="4.19143">
        <ele>734.2</ele>
        <time>2015-10-03T10:58:41.729Z</time>
      </trkpt>
      <trkpt lat="45.24727" lon="4.19142">
        <ele>734.16</ele>
        <time>2015-10-03T10:58:42.740Z</time>
      </trkpt>
      <trkpt lat="45.24729" lon="4.19141">
        <ele>734.16</ele>
        <time>2015-10-03T10:58:43.727Z</time>
      </trkpt>
      <trkpt lat="45.2473" lon="4.1914">
        <ele>734.11538461538</ele>
        <time>2015-10-03T10:58:44.728Z</time>
      </trkpt>
      <trkpt lat="45.24731" lon="4.19139">
        <ele>734.04</ele>
        <time>2015-10-03T10:58:45.727Z</time>
      </trkpt>
      <trkpt lat="45.24732" lon="4.19139">
        <ele>734</ele>
        <time>2015-10-03T10:58:46.733Z</time>
      </trkpt>
      <trkpt lat="45.24734" lon="4.19138">
        <ele>734</ele>
        <time>2015-10-03T10:58:47.720Z</time>
      </trkpt>
      <trkpt lat="45.24735" lon="4.19137">
        <ele>733.96153846154</ele>
        <time>2015-10-03T10:58:48.721Z</time>
      </trkpt>
      <trkpt lat="45.24737" lon="4.19136">
        <ele>733.92307692308</ele>
        <time>2015-10-03T10:58:49.715Z</time>
      </trkpt>
      <trkpt lat="45.24738" lon="4.19135">
        <ele>733.92307692308</ele>
        <time>2015-10-03T10:58:50.735Z</time>
      </trkpt>
      <trkpt lat="45.24742" lon="4.19134">
        <ele>733.88461538462</ele>
        <time>2015-10-03T10:58:52.720Z</time>
      </trkpt>
      <trkpt lat="45.24744" lon="4.19133">
        <ele>733.84</ele>
        <time>2015-10-03T10:58:53.733Z</time>
      </trkpt>
      <trkpt lat="45.24745" lon="4.19132">
        <ele>733.8</ele>
        <time>2015-10-03T10:58:54.731Z</time>
      </trkpt>
      <trkpt lat="45.24747" lon="4.19132">
        <ele>733.76</ele>
        <time>2015-10-03T10:58:55.738Z</time>
      </trkpt>
      <trkpt lat="45.24749" lon="4.19131">
        <ele>733.72</ele>
        <time>2015-10-03T10:58:56.743Z</time>
      </trkpt>
      <trkpt lat="45.24751" lon="4.1913">
        <ele>733.64</ele>
        <time>2015-10-03T10:58:57.733Z</time>
      </trkpt>
      <trkpt lat="45.24755" lon="4.19127">
        <ele>733.56</ele>
        <time>2015-10-03T10:58:59.735Z</time>
      </trkpt>
      <trkpt lat="45.24758" lon="4.19127">
        <ele>733.52</ele>
        <time>2015-10-03T10:59:00.731Z</time>
      </trkpt>
      <trkpt lat="45.24759" lon="4.19126">
        <ele>733.48</ele>
        <time>2015-10-03T10:59:01.748Z</time>
      </trkpt>
      <trkpt lat="45.24761" lon="4.19126">
        <ele>733.44</ele>
        <time>2015-10-03T10:59:02.742Z</time>
      </trkpt>
      <trkpt lat="45.24763" lon="4.19125">
        <ele>733.32</ele>
        <time>2015-10-03T10:59:03.736Z</time>
      </trkpt>
      <trkpt lat="45.24765" lon="4.19124">
        <ele>733.30769230769</ele>
        <time>2015-10-03T10:59:04.722Z</time>
      </trkpt>
      <trkpt lat="45.24767" lon="4.19122">
        <ele>733.23076923077</ele>
        <time>2015-10-03T10:59:05.722Z</time>
      </trkpt>
      <trkpt lat="45.24768" lon="4.19121">
        <ele>733.2</ele>
        <time>2015-10-03T10:59:06.737Z</time>
      </trkpt>
      <trkpt lat="45.24768" lon="4.1912">
        <ele>733.15384615385</ele>
        <time>2015-10-03T10:59:07.738Z</time>
      </trkpt>
      <trkpt lat="45.24769" lon="4.1912">
        <ele>733.08</ele>
        <time>2015-10-03T10:59:08.734Z</time>
      </trkpt>
      <trkpt lat="45.24769" lon="4.19119">
        <ele>733.03846153846</ele>
        <time>2015-10-03T10:59:09.715Z</time>
      </trkpt>
      <trkpt lat="45.2477" lon="4.19119">
        <ele>733</ele>
        <time>2015-10-03T10:59:10.717Z</time>
      </trkpt>
      <trkpt lat="45.24771" lon="4.19118">
        <ele>732.96153846154</ele>
        <time>2015-10-03T10:59:12.713Z</time>
      </trkpt>
      <trkpt lat="45.24771" lon="4.19117">
        <ele>732.80769230769</ele>
        <time>2015-10-03T10:59:14.715Z</time>
      </trkpt>
      <trkpt lat="45.24771" lon="4.19116">
        <ele>732.6</ele>
        <time>2015-10-03T10:59:17.726Z</time>
      </trkpt>
      <trkpt lat="45.24771" lon="4.19116">
        <ele>732.65384615385</ele>
        <time>2015-10-03T10:59:21.722Z</time>
      </trkpt>
      <trkpt lat="45.24771" lon="4.19116">
        <ele>732.69230769231</ele>
        <time>2015-10-03T10:59:25.713Z</time>
      </trkpt>
      <trkpt lat="45.24771" lon="4.19116">
        <ele>732.65384615385</ele>
        <time>2015-10-03T10:59:28.725Z</time>
      </trkpt>
      <trkpt lat="45.24771" lon="4.19115">
        <ele>732.73076923077</ele>
        <time>2015-10-03T10:59:31.727Z</time>
      </trkpt>
      <trkpt lat="45.24771" lon="4.19115">
        <ele>732.76923076923</ele>
        <time>2015-10-03T10:59:35.717Z</time>
      </trkpt>
      <trkpt lat="45.24771" lon="4.19115">
        <ele>732.875</ele>
        <time>2015-10-03T10:59:39.731Z</time>
      </trkpt>
      <trkpt lat="45.24772" lon="4.19114">
        <ele>732.91666666667</ele>
        <time>2015-10-03T10:59:40.729Z</time>
      </trkpt>
      <trkpt lat="45.24773" lon="4.19113">
        <ele>732.95833333333</ele>
        <time>2015-10-03T10:59:43.733Z</time>
      </trkpt>
      <trkpt lat="45.24773" lon="4.19112">
        <ele>732.96</ele>
        <time>2015-10-03T10:59:44.721Z</time>
      </trkpt>
      <trkpt lat="45.24774" lon="4.19111">
        <ele>732.95833333333</ele>
        <time>2015-10-03T10:59:45.721Z</time>
      </trkpt>
      <trkpt lat="45.24775" lon="4.1911">
        <ele>732.875</ele>
        <time>2015-10-03T10:59:46.727Z</time>
      </trkpt>
      <trkpt lat="45.24777" lon="4.19109">
        <ele>732.84</ele>
        <time>2015-10-03T10:59:47.718Z</time>
      </trkpt>
      <trkpt lat="45.24781" lon="4.19108">
        <ele>732.75</ele>
        <time>2015-10-03T10:59:49.733Z</time>
      </trkpt>
      <trkpt lat="45.24783" lon="4.19107">
        <ele>732.70833333333</ele>
        <time>2015-10-03T10:59:50.725Z</time>
      </trkpt>
      <trkpt lat="45.24785" lon="4.19106">
        <ele>732.64</ele>
        <time>2015-10-03T10:59:51.715Z</time>
      </trkpt>
      <trkpt lat="45.24786" lon="4.19105">
        <ele>732.66666666667</ele>
        <time>2015-10-03T10:59:52.727Z</time>
      </trkpt>
      <trkpt lat="45.24788" lon="4.19104">
        <ele>732.66666666667</ele>
        <time>2015-10-03T10:59:53.739Z</time>
      </trkpt>
      <trkpt lat="45.24789" lon="4.19104">
        <ele>732.66666666667</ele>
        <time>2015-10-03T10:59:54.749Z</time>
      </trkpt>
      <trkpt lat="45.24791" lon="4.19104">
        <ele>732.66666666667</ele>
        <time>2015-10-03T10:59:55.741Z</time>
      </trkpt>
      <trkpt lat="45.24793" lon="4.19104">
        <ele>732.625</ele>
        <time>2015-10-03T10:59:56.736Z</time>
      </trkpt>
      <trkpt lat="45.24794" lon="4.19105">
        <ele>732.625</ele>
        <time>2015-10-03T10:59:57.737Z</time>
      </trkpt>
      <trkpt lat="45.24795" lon="4.19105">
        <ele>732.58333333333</ele>
        <time>2015-10-03T10:59:58.738Z</time>
      </trkpt>
      <trkpt lat="45.24796" lon="4.19105">
        <ele>732.58333333333</ele>
        <time>2015-10-03T10:59:59.741Z</time>
      </trkpt>
      <trkpt lat="45.24798" lon="4.19105">
        <ele>732.54166666667</ele>
        <time>2015-10-03T11:00:00.740Z</time>
      </trkpt>
      <trkpt lat="45.24799" lon="4.19105">
        <ele>732.5</ele>
        <time>2015-10-03T11:00:01.740Z</time>
      </trkpt>
      <trkpt lat="45.248" lon="4.19105">
        <ele>732.5</ele>
        <time>2015-10-03T11:00:02.735Z</time>
      </trkpt>
      <trkpt lat="45.24801" lon="4.19105">
        <ele>732.44</ele>
        <time>2015-10-03T11:00:03.745Z</time>
      </trkpt>
      <trkpt lat="45.24802" lon="4.19104">
        <ele>732.36</ele>
        <time>2015-10-03T11:00:04.739Z</time>
      </trkpt>
      <trkpt lat="45.24802" lon="4.19103">
        <ele>732.34615384615</ele>
        <time>2015-10-03T11:00:05.722Z</time>
      </trkpt>
      <trkpt lat="45.24803" lon="4.19102">
        <ele>732.24</ele>
        <time>2015-10-03T11:00:06.740Z</time>
      </trkpt>
      <trkpt lat="45.24804" lon="4.19101">
        <ele>732.2</ele>
        <time>2015-10-03T11:00:07.738Z</time>
      </trkpt>
      <trkpt lat="45.24805" lon="4.19101">
        <ele>732.15384615385</ele>
        <time>2015-10-03T11:00:08.726Z</time>
      </trkpt>
      <trkpt lat="45.24807" lon="4.191">
        <ele>732.11538461538</ele>
        <time>2015-10-03T11:00:09.711Z</time>
      </trkpt>
      <trkpt lat="45.24808" lon="4.191">
        <ele>732</ele>
        <time>2015-10-03T11:00:10.730Z</time>
      </trkpt>
      <trkpt lat="45.24808" lon="4.19099">
        <ele>731.96</ele>
        <time>2015-10-03T11:00:11.741Z</time>
      </trkpt>
      <trkpt lat="45.24808" lon="4.19099">
        <ele>731.96</ele>
        <time>2015-10-03T11:00:12.742Z</time>
      </trkpt>
      <trkpt lat="45.24809" lon="4.19099">
        <ele>731.92</ele>
        <time>2015-10-03T11:00:13.739Z</time>
      </trkpt>
      <trkpt lat="45.2481" lon="4.19098">
        <ele>731.88461538462</ele>
        <time>2015-10-03T11:00:14.726Z</time>
      </trkpt>
      <trkpt lat="45.24811" lon="4.19098">
        <ele>731.84</ele>
        <time>2015-10-03T11:00:15.731Z</time>
      </trkpt>
      <trkpt lat="45.24813" lon="4.19097">
        <ele>731.73076923077</ele>
        <time>2015-10-03T11:00:19.727Z</time>
      </trkpt>
      <trkpt lat="45.24814" lon="4.19094">
        <ele>731.5</ele>
        <time>2015-10-03T11:00:23.735Z</time>
      </trkpt>
      <trkpt lat="45.24815" lon="4.19092">
        <ele>731.30769230769</ele>
        <time>2015-10-03T11:00:27.717Z</time>
      </trkpt>
      <trkpt lat="45.24815" lon="4.19092">
        <ele>731.23076923077</ele>
        <time>2015-10-03T11:00:31.715Z</time>
      </trkpt>
      <trkpt lat="45.24815" lon="4.19092">
        <ele>731.2</ele>
        <time>2015-10-03T11:00:34.717Z</time>
      </trkpt>
      <trkpt lat="45.24815" lon="4.19092">
        <ele>731.15384615385</ele>
        <time>2015-10-03T11:00:38.714Z</time>
      </trkpt>
      <trkpt lat="45.24815" lon="4.19092">
        <ele>731.15384615385</ele>
        <time>2015-10-03T11:00:42.722Z</time>
      </trkpt>
      <trkpt lat="45.24815" lon="4.19092">
        <ele>731.07692307692</ele>
        <time>2015-10-03T11:00:46.711Z</time>
      </trkpt>
      <trkpt lat="45.24815" lon="4.19092">
        <ele>731.07692307692</ele>
        <time>2015-10-03T11:00:49.714Z</time>
      </trkpt>
      <trkpt lat="45.24815" lon="4.19092">
        <ele>731.15384615385</ele>
        <time>2015-10-03T11:00:53.713Z</time>
      </trkpt>
      <trkpt lat="45.24815" lon="4.19092">
        <ele>731.19230769231</ele>
        <time>2015-10-03T11:00:57.712Z</time>
      </trkpt>
      <trkpt lat="45.24815" lon="4.19092">
        <ele>731.16</ele>
        <time>2015-10-03T11:01:00.722Z</time>
      </trkpt>
      <trkpt lat="45.24815" lon="4.19091">
        <ele>731.16</ele>
        <time>2015-10-03T11:01:03.726Z</time>
      </trkpt>
      <trkpt lat="45.24815" lon="4.19091">
        <ele>731.2</ele>
        <time>2015-10-03T11:01:07.730Z</time>
      </trkpt>
      <trkpt lat="45.24816" lon="4.19092">
        <ele>731.2</ele>
        <time>2015-10-03T11:01:10.721Z</time>
      </trkpt>
      <trkpt lat="45.24817" lon="4.19092">
        <ele>731.2</ele>
        <time>2015-10-03T11:01:11.715Z</time>
      </trkpt>
      <trkpt lat="45.24817" lon="4.19092">
        <ele>731.24</ele>
        <time>2015-10-03T11:01:13.730Z</time>
      </trkpt>
      <trkpt lat="45.24818" lon="4.19091">
        <ele>731.28</ele>
        <time>2015-10-03T11:01:16.734Z</time>
      </trkpt>
      <trkpt lat="45.24818" lon="4.1909">
        <ele>731.28</ele>
        <time>2015-10-03T11:01:17.742Z</time>
      </trkpt>
      <trkpt lat="45.24819" lon="4.19089">
        <ele>731.28</ele>
        <time>2015-10-03T11:01:18.737Z</time>
      </trkpt>
      <trkpt lat="45.2482" lon="4.19088">
        <ele>731.32</ele>
        <time>2015-10-03T11:01:22.728Z</time>
      </trkpt>
      <trkpt lat="45.2482" lon="4.19088">
        <ele>731.48</ele>
        <time>2015-10-03T11:01:25.733Z</time>
      </trkpt>
      <trkpt lat="45.24822" lon="4.19087">
        <ele>731.56</ele>
        <time>2015-10-03T11:01:29.729Z</time>
      </trkpt>
      <trkpt lat="45.24823" lon="4.19087">
        <ele>731.6</ele>
        <time>2015-10-03T11:01:33.726Z</time>
      </trkpt>
      <trkpt lat="45.24824" lon="4.19087">
        <ele>731.69230769231</ele>
        <time>2015-10-03T11:01:37.722Z</time>
      </trkpt>
      <trkpt lat="45.24824" lon="4.19087">
        <ele>731.68</ele>
        <time>2015-10-03T11:01:40.728Z</time>
      </trkpt>
      <trkpt lat="45.24824" lon="4.19087">
        <ele>731.72</ele>
        <time>2015-10-03T11:01:44.719Z</time>
      </trkpt>
      <trkpt lat="45.24824" lon="4.19087">
        <ele>731.76</ele>
        <time>2015-10-03T11:01:47.721Z</time>
      </trkpt>
      <trkpt lat="45.24824" lon="4.19087">
        <ele>731.6</ele>
        <time>2015-10-03T11:01:50.722Z</time>
      </trkpt>
      <trkpt lat="45.24824" lon="4.19087">
        <ele>731.64</ele>
        <time>2015-10-03T11:01:54.721Z</time>
      </trkpt>
      <trkpt lat="45.24824" lon="4.19087">
        <ele>731.76</ele>
        <time>2015-10-03T11:01:58.714Z</time>
      </trkpt>
      <trkpt lat="45.24824" lon="4.19087">
        <ele>731.8</ele>
        <time>2015-10-03T11:02:01.720Z</time>
      </trkpt>
      <trkpt lat="45.24824" lon="4.19086">
        <ele>731.80769230769</ele>
        <time>2015-10-03T11:02:05.726Z</time>
      </trkpt>
      <trkpt lat="45.24824" lon="4.19086">
        <ele>731.84</ele>
        <time>2015-10-03T11:02:09.729Z</time>
      </trkpt>
      <trkpt lat="45.24824" lon="4.19086">
        <ele>731.84</ele>
        <time>2015-10-03T11:02:13.721Z</time>
      </trkpt>
      <trkpt lat="45.24824" lon="4.19086">
        <ele>731.80769230769</ele>
        <time>2015-10-03T11:02:17.719Z</time>
      </trkpt>
      <trkpt lat="45.24824" lon="4.19086">
        <ele>731.72</ele>
        <time>2015-10-03T11:02:20.729Z</time>
      </trkpt>
      <trkpt lat="45.24824" lon="4.19086">
        <ele>731.68</ele>
        <time>2015-10-03T11:02:24.721Z</time>
      </trkpt>
      <trkpt lat="45.24824" lon="4.19086">
        <ele>731.61538461538</ele>
        <time>2015-10-03T11:02:27.727Z</time>
      </trkpt>
      <trkpt lat="45.24824" lon="4.19086">
        <ele>731.65384615385</ele>
        <time>2015-10-03T11:02:31.717Z</time>
      </trkpt>
      <trkpt lat="45.24824" lon="4.19086">
        <ele>731.61538461538</ele>
        <time>2015-10-03T11:02:34.721Z</time>
      </trkpt>
      <trkpt lat="45.24824" lon="4.19086">
        <ele>731.53846153846</ele>
        <time>2015-10-03T11:02:38.710Z</time>
      </trkpt>
      <trkpt lat="45.24825" lon="4.19087">
        <ele>731.44</ele>
        <time>2015-10-03T11:02:41.750Z</time>
      </trkpt>
      <trkpt lat="45.24825" lon="4.19087">
        <ele>731.44</ele>
        <time>2015-10-03T11:02:42.752Z</time>
      </trkpt>
      <trkpt lat="45.24825" lon="4.19089">
        <ele>731.42307692308</ele>
        <time>2015-10-03T11:02:46.728Z</time>
      </trkpt>
      <trkpt lat="45.24826" lon="4.19089">
        <ele>731.24</ele>
        <time>2015-10-03T11:02:49.729Z</time>
      </trkpt>
      <trkpt lat="45.24826" lon="4.19089">
        <ele>731.28</ele>
        <time>2015-10-03T11:02:50.737Z</time>
      </trkpt>
      <trkpt lat="45.24826" lon="4.19089">
        <ele>731.30769230769</ele>
        <time>2015-10-03T11:02:51.727Z</time>
      </trkpt>
      <trkpt lat="45.24826" lon="4.19089">
        <ele>731.36</ele>
        <time>2015-10-03T11:02:54.731Z</time>
      </trkpt>
      <trkpt lat="45.24825" lon="4.19087">
        <ele>731.28</ele>
        <time>2015-10-03T11:02:58.725Z</time>
      </trkpt>
      <trkpt lat="45.24825" lon="4.19087">
        <ele>731.36</ele>
        <time>2015-10-03T11:03:01.733Z</time>
      </trkpt>
      <trkpt lat="45.24825" lon="4.19087">
        <ele>731.30769230769</ele>
        <time>2015-10-03T11:03:05.721Z</time>
      </trkpt>
      <trkpt lat="45.24825" lon="4.19086">
        <ele>731.46153846154</ele>
        <time>2015-10-03T11:03:08.731Z</time>
      </trkpt>
      <trkpt lat="45.24825" lon="4.19086">
        <ele>731.46153846154</ele>
        <time>2015-10-03T11:03:12.717Z</time>
      </trkpt>
      <trkpt lat="45.24824" lon="4.19087">
        <ele>731.69230769231</ele>
        <time>2015-10-03T11:03:15.729Z</time>
      </trkpt>
      <trkpt lat="45.24824" lon="4.19087">
        <ele>731.53846153846</ele>
        <time>2015-10-03T11:03:19.726Z</time>
      </trkpt>
      <trkpt lat="45.24824" lon="4.19087">
        <ele>731.53846153846</ele>
        <time>2015-10-03T11:03:23.721Z</time>
      </trkpt>
      <trkpt lat="45.24824" lon="4.19088">
        <ele>731.57692307692</ele>
        <time>2015-10-03T11:03:26.724Z</time>
      </trkpt>
      <trkpt lat="45.24824" lon="4.19088">
        <ele>731.56</ele>
        <time>2015-10-03T11:03:27.729Z</time>
      </trkpt>
      <trkpt lat="45.24824" lon="4.19088">
        <ele>731.57692307692</ele>
        <time>2015-10-03T11:03:28.722Z</time>
      </trkpt>
      <trkpt lat="45.24823" lon="4.19088">
        <ele>731.56</ele>
        <time>2015-10-03T11:03:29.729Z</time>
      </trkpt>
      <trkpt lat="45.24823" lon="4.19088">
        <ele>731.64</ele>
        <time>2015-10-03T11:03:31.739Z</time>
      </trkpt>
      <trkpt lat="45.24824" lon="4.19088">
        <ele>731.56</ele>
        <time>2015-10-03T11:03:33.735Z</time>
      </trkpt>
      <trkpt lat="45.24825" lon="4.19088">
        <ele>731.56</ele>
        <time>2015-10-03T11:03:35.736Z</time>
      </trkpt>
      <trkpt lat="45.24826" lon="4.19089">
        <ele>731.56</ele>
        <time>2015-10-03T11:03:36.731Z</time>
      </trkpt>
      <trkpt lat="45.24827" lon="4.19088">
        <ele>731.56</ele>
        <time>2015-10-03T11:03:37.733Z</time>
      </trkpt>
      <trkpt lat="45.24832" lon="4.19086">
        <ele>731.5</ele>
        <time>2015-10-03T11:03:40.737Z</time>
      </trkpt>
      <trkpt lat="45.24834" lon="4.19086">
        <ele>731.5</ele>
        <time>2015-10-03T11:03:41.733Z</time>
      </trkpt>
      <trkpt lat="45.24836" lon="4.19086">
        <ele>731.58333333333</ele>
        <time>2015-10-03T11:03:42.780Z</time>
      </trkpt>
      <trkpt lat="45.24838" lon="4.19086">
        <ele>731.58333333333</ele>
        <time>2015-10-03T11:03:43.810Z</time>
      </trkpt>
      <trkpt lat="45.2484" lon="4.19085">
        <ele>731.54166666667</ele>
        <time>2015-10-03T11:03:44.815Z</time>
      </trkpt>
      <trkpt lat="45.24843" lon="4.19084">
        <ele>731.5</ele>
        <time>2015-10-03T11:03:45.832Z</time>
      </trkpt>
      <trkpt lat="45.24845" lon="4.19084">
        <ele>731.5</ele>
        <time>2015-10-03T11:03:46.815Z</time>
      </trkpt>
      <trkpt lat="45.24847" lon="4.19083">
        <ele>731.41666666667</ele>
        <time>2015-10-03T11:03:47.784Z</time>
      </trkpt>
      <trkpt lat="45.24849" lon="4.19082">
        <ele>731.45833333333</ele>
        <time>2015-10-03T11:03:48.787Z</time>
      </trkpt>
      <trkpt lat="45.24851" lon="4.19081">
        <ele>731.29166666667</ele>
        <time>2015-10-03T11:03:49.825Z</time>
      </trkpt>
      <trkpt lat="45.24853" lon="4.19081">
        <ele>731.25</ele>
        <time>2015-10-03T11:03:50.803Z</time>
      </trkpt>
      <trkpt lat="45.24856" lon="4.1908">
        <ele>731.125</ele>
        <time>2015-10-03T11:03:51.812Z</time>
      </trkpt>
      <trkpt lat="45.24858" lon="4.19078">
        <ele>731.16666666667</ele>
        <time>2015-10-03T11:03:52.825Z</time>
      </trkpt>
      <trkpt lat="45.24861" lon="4.19077">
        <ele>731</ele>
        <time>2015-10-03T11:03:53.817Z</time>
      </trkpt>
      <trkpt lat="45.24864" lon="4.19076">
        <ele>731.04166666667</ele>
        <time>2015-10-03T11:03:54.819Z</time>
      </trkpt>
      <trkpt lat="45.24866" lon="4.19074">
        <ele>730.875</ele>
        <time>2015-10-03T11:03:55.817Z</time>
      </trkpt>
      <trkpt lat="45.24869" lon="4.19072">
        <ele>730.875</ele>
        <time>2015-10-03T11:03:56.803Z</time>
      </trkpt>
      <trkpt lat="45.24872" lon="4.1907">
        <ele>730.83333333333</ele>
        <time>2015-10-03T11:03:57.799Z</time>
      </trkpt>
      <trkpt lat="45.24874" lon="4.19067">
        <ele>730.875</ele>
        <time>2015-10-03T11:03:58.794Z</time>
      </trkpt>
      <trkpt lat="45.24877" lon="4.19065">
        <ele>730.79166666667</ele>
        <time>2015-10-03T11:03:59.796Z</time>
      </trkpt>
      <trkpt lat="45.24885" lon="4.19056">
        <ele>730.75</ele>
        <time>2015-10-03T11:04:02.805Z</time>
      </trkpt>
      <trkpt lat="45.24888" lon="4.19054">
        <ele>730.72</ele>
        <time>2015-10-03T11:04:03.809Z</time>
      </trkpt>
      <trkpt lat="45.24891" lon="4.19052">
        <ele>730.68</ele>
        <time>2015-10-03T11:04:04.818Z</time>
      </trkpt>
      <trkpt lat="45.24894" lon="4.1905">
        <ele>730.52</ele>
        <time>2015-10-03T11:04:05.794Z</time>
      </trkpt>
      <trkpt lat="45.24897" lon="4.19049">
        <ele>730.52</ele>
        <time>2015-10-03T11:04:06.763Z</time>
      </trkpt>
      <trkpt lat="45.24904" lon="4.19046">
        <ele>730.23076923077</ele>
        <time>2015-10-03T11:04:08.750Z</time>
      </trkpt>
      <trkpt lat="45.24907" lon="4.19044">
        <ele>730.15384615385</ele>
        <time>2015-10-03T11:04:09.759Z</time>
      </trkpt>
      <trkpt lat="45.2491" lon="4.19042">
        <ele>730.07692307692</ele>
        <time>2015-10-03T11:04:10.772Z</time>
      </trkpt>
      <trkpt lat="45.24914" lon="4.1904">
        <ele>729.96153846154</ele>
        <time>2015-10-03T11:04:11.773Z</time>
      </trkpt>
      <trkpt lat="45.24928" lon="4.19032">
        <ele>729.84</ele>
        <time>2015-10-03T11:04:14.837Z</time>
      </trkpt>
      <trkpt lat="45.24936" lon="4.19027">
        <ele>729.69230769231</ele>
        <time>2015-10-03T11:04:16.777Z</time>
      </trkpt>
      <trkpt lat="45.2494" lon="4.19024">
        <ele>729.69230769231</ele>
        <time>2015-10-03T11:04:17.819Z</time>
      </trkpt>
      <trkpt lat="45.24948" lon="4.19019">
        <ele>729.5</ele>
        <time>2015-10-03T11:04:19.795Z</time>
      </trkpt>
      <trkpt lat="45.24952" lon="4.19017">
        <ele>729.42307692308</ele>
        <time>2015-10-03T11:04:20.796Z</time>
      </trkpt>
      <trkpt lat="45.24961" lon="4.1901">
        <ele>729.28</ele>
        <time>2015-10-03T11:04:22.807Z</time>
      </trkpt>
      <trkpt lat="45.24971" lon="4.19005">
        <ele>729.12</ele>
        <time>2015-10-03T11:04:24.818Z</time>
      </trkpt>
      <trkpt lat="45.24976" lon="4.19003">
        <ele>729</ele>
        <time>2015-10-03T11:04:25.797Z</time>
      </trkpt>
      <trkpt lat="45.2498" lon="4.19">
        <ele>728.96153846154</ele>
        <time>2015-10-03T11:04:26.786Z</time>
      </trkpt>
      <trkpt lat="45.24992" lon="4.18993">
        <ele>728.73076923077</ele>
        <time>2015-10-03T11:04:29.799Z</time>
      </trkpt>
      <trkpt lat="45.24995" lon="4.18992">
        <ele>728.68</ele>
        <time>2015-10-03T11:04:30.798Z</time>
      </trkpt>
      <trkpt lat="45.24999" lon="4.1899">
        <ele>728.52</ele>
        <time>2015-10-03T11:04:31.801Z</time>
      </trkpt>
      <trkpt lat="45.25003" lon="4.18988">
        <ele>728.52</ele>
        <time>2015-10-03T11:04:32.795Z</time>
      </trkpt>
      <trkpt lat="45.25006" lon="4.18987">
        <ele>728.52</ele>
        <time>2015-10-03T11:04:33.753Z</time>
      </trkpt>
      <trkpt lat="45.2501" lon="4.18986">
        <ele>728.53846153846</ele>
        <time>2015-10-03T11:04:34.732Z</time>
      </trkpt>
      <trkpt lat="45.25014" lon="4.18984">
        <ele>728.4</ele>
        <time>2015-10-03T11:04:35.776Z</time>
      </trkpt>
      <trkpt lat="45.25018" lon="4.18982">
        <ele>728.48</ele>
        <time>2015-10-03T11:04:36.784Z</time>
      </trkpt>
      <trkpt lat="45.2502" lon="4.18981">
        <ele>728.34615384615</ele>
        <time>2015-10-03T11:04:37.739Z</time>
      </trkpt>
      <trkpt lat="45.25024" lon="4.1898">
        <ele>728.34615384615</ele>
        <time>2015-10-03T11:04:38.722Z</time>
      </trkpt>
      <trkpt lat="45.25028" lon="4.18979">
        <ele>728.15384615385</ele>
        <time>2015-10-03T11:04:39.741Z</time>
      </trkpt>
      <trkpt lat="45.25032" lon="4.18978">
        <ele>728.04</ele>
        <time>2015-10-03T11:04:40.797Z</time>
      </trkpt>
      <trkpt lat="45.25045" lon="4.18972">
        <ele>728.12</ele>
        <time>2015-10-03T11:04:43.817Z</time>
      </trkpt>
      <trkpt lat="45.25053" lon="4.1897">
        <ele>728.08</ele>
        <time>2015-10-03T11:04:45.822Z</time>
      </trkpt>
      <trkpt lat="45.25072" lon="4.18965">
        <ele>728.03846153846</ele>
        <time>2015-10-03T11:04:49.761Z</time>
      </trkpt>
      <trkpt lat="45.25076" lon="4.18963">
        <ele>727.96153846154</ele>
        <time>2015-10-03T11:04:50.749Z</time>
      </trkpt>
      <trkpt lat="45.25081" lon="4.18961">
        <ele>728.07692307692</ele>
        <time>2015-10-03T11:04:51.785Z</time>
      </trkpt>
      <trkpt lat="45.25112" lon="4.18948">
        <ele>728.03846153846</ele>
        <time>2015-10-03T11:04:54.781Z</time>
      </trkpt>
      <trkpt lat="45.25116" lon="4.18947">
        <ele>727.92307692308</ele>
        <time>2015-10-03T11:04:55.789Z</time>
      </trkpt>
      <trkpt lat="45.2512" lon="4.18946">
        <ele>727.92307692308</ele>
        <time>2015-10-03T11:04:56.787Z</time>
      </trkpt>
      <trkpt lat="45.25124" lon="4.18946">
        <ele>727.92307692308</ele>
        <time>2015-10-03T11:04:57.794Z</time>
      </trkpt>
      <trkpt lat="45.2514" lon="4.18944">
        <ele>727.96153846154</ele>
        <time>2015-10-03T11:05:01.782Z</time>
      </trkpt>
      <trkpt lat="45.25148" lon="4.18943">
        <ele>727.8</ele>
        <time>2015-10-03T11:05:03.778Z</time>
      </trkpt>
      <trkpt lat="45.25153" lon="4.18942">
        <ele>727.96</ele>
        <time>2015-10-03T11:05:04.787Z</time>
      </trkpt>
      <trkpt lat="45.25166" lon="4.18941">
        <ele>727.80769230769</ele>
        <time>2015-10-03T11:05:07.799Z</time>
      </trkpt>
      <trkpt lat="45.25174" lon="4.1894">
        <ele>727.76923076923</ele>
        <time>2015-10-03T11:05:09.781Z</time>
      </trkpt>
      <trkpt lat="45.25178" lon="4.1894">
        <ele>727.73076923077</ele>
        <time>2015-10-03T11:05:10.792Z</time>
      </trkpt>
      <trkpt lat="45.25193" lon="4.18941">
        <ele>727.84</ele>
        <time>2015-10-03T11:05:13.799Z</time>
      </trkpt>
      <trkpt lat="45.25213" lon="4.18943">
        <ele>727.80769230769</ele>
        <time>2015-10-03T11:05:17.753Z</time>
      </trkpt>
      <trkpt lat="45.25222" lon="4.18944">
        <ele>727.73076923077</ele>
        <time>2015-10-03T11:05:19.768Z</time>
      </trkpt>
      <trkpt lat="45.25227" lon="4.18945">
        <ele>727.76</ele>
        <time>2015-10-03T11:05:20.793Z</time>
      </trkpt>
      <trkpt lat="45.25232" lon="4.18946">
        <ele>727.6</ele>
        <time>2015-10-03T11:05:21.831Z</time>
      </trkpt>
      <trkpt lat="45.25237" lon="4.18947">
        <ele>727.64</ele>
        <time>2015-10-03T11:05:22.820Z</time>
      </trkpt>
      <trkpt lat="45.25241" lon="4.18948">
        <ele>727.56</ele>
        <time>2015-10-03T11:05:23.799Z</time>
      </trkpt>
      <trkpt lat="45.25246" lon="4.18949">
        <ele>727.53846153846</ele>
        <time>2015-10-03T11:05:24.764Z</time>
      </trkpt>
      <trkpt lat="45.25252" lon="4.18947">
        <ele>727.53846153846</ele>
        <time>2015-10-03T11:05:25.751Z</time>
      </trkpt>
      <trkpt lat="45.25256" lon="4.18946">
        <ele>727.5</ele>
        <time>2015-10-03T11:05:26.747Z</time>
      </trkpt>
      <trkpt lat="45.2526" lon="4.18945">
        <ele>727.5</ele>
        <time>2015-10-03T11:05:27.739Z</time>
      </trkpt>
      <trkpt lat="45.25262" lon="4.18945">
        <ele>727.46153846154</ele>
        <time>2015-10-03T11:05:28.738Z</time>
      </trkpt>
      <trkpt lat="45.25265" lon="4.18947">
        <ele>727.53846153846</ele>
        <time>2015-10-03T11:05:29.730Z</time>
      </trkpt>
      <trkpt lat="45.25268" lon="4.18949">
        <ele>727.53846153846</ele>
        <time>2015-10-03T11:05:30.725Z</time>
      </trkpt>
      <trkpt lat="45.25274" lon="4.18954">
        <ele>727.46153846154</ele>
        <time>2015-10-03T11:05:32.718Z</time>
      </trkpt>
      <trkpt lat="45.25278" lon="4.18956">
        <ele>727.38461538462</ele>
        <time>2015-10-03T11:05:33.726Z</time>
      </trkpt>
      <trkpt lat="45.25289" lon="4.18962">
        <ele>727.19230769231</ele>
        <time>2015-10-03T11:05:35.781Z</time>
      </trkpt>
      <trkpt lat="45.25294" lon="4.18965">
        <ele>727.15384615385</ele>
        <time>2015-10-03T11:05:36.762Z</time>
      </trkpt>
      <trkpt lat="45.25299" lon="4.18968">
        <ele>727.07692307692</ele>
        <time>2015-10-03T11:05:37.756Z</time>
      </trkpt>
      <trkpt lat="45.25311" lon="4.1897">
        <ele>726.75</ele>
        <time>2015-10-03T11:05:39.798Z</time>
      </trkpt>
      <trkpt lat="45.25322" lon="4.18969">
        <ele>726.6</ele>
        <time>2015-10-03T11:05:41.733Z</time>
      </trkpt>
      <trkpt lat="45.25327" lon="4.18968">
        <ele>726.24</ele>
        <time>2015-10-03T11:05:42.718Z</time>
      </trkpt>
      <trkpt lat="45.25332" lon="4.18965">
        <ele>726.24</ele>
        <time>2015-10-03T11:05:43.740Z</time>
      </trkpt>
      <trkpt lat="45.25336" lon="4.18965">
        <ele>726.04</ele>
        <time>2015-10-03T11:05:44.741Z</time>
      </trkpt>
      <trkpt lat="45.25339" lon="4.18964">
        <ele>726.08</ele>
        <time>2015-10-03T11:05:45.720Z</time>
      </trkpt>
      <trkpt lat="45.25343" lon="4.18965">
        <ele>725.88</ele>
        <time>2015-10-03T11:05:46.718Z</time>
      </trkpt>
      <trkpt lat="45.25348" lon="4.18964">
        <ele>725.96</ele>
        <time>2015-10-03T11:05:47.715Z</time>
      </trkpt>
      <trkpt lat="45.25351" lon="4.18963">
        <ele>725.72</ele>
        <time>2015-10-03T11:05:48.727Z</time>
      </trkpt>
      <trkpt lat="45.25355" lon="4.18963">
        <ele>725.76</ele>
        <time>2015-10-03T11:05:49.727Z</time>
      </trkpt>
      <trkpt lat="45.25358" lon="4.18962">
        <ele>725.56</ele>
        <time>2015-10-03T11:05:50.737Z</time>
      </trkpt>
      <trkpt lat="45.25361" lon="4.1896">
        <ele>725.52</ele>
        <time>2015-10-03T11:05:51.732Z</time>
      </trkpt>
      <trkpt lat="45.25365" lon="4.18958">
        <ele>725.48</ele>
        <time>2015-10-03T11:05:52.720Z</time>
      </trkpt>
      <trkpt lat="45.2537" lon="4.18956">
        <ele>725.29166666667</ele>
        <time>2015-10-03T11:05:53.742Z</time>
      </trkpt>
      <trkpt lat="45.25375" lon="4.18953">
        <ele>725.25</ele>
        <time>2015-10-03T11:05:54.735Z</time>
      </trkpt>
      <trkpt lat="45.2538" lon="4.18949">
        <ele>725.16666666667</ele>
        <time>2015-10-03T11:05:55.743Z</time>
      </trkpt>
      <trkpt lat="45.25385" lon="4.18946">
        <ele>725.08333333333</ele>
        <time>2015-10-03T11:05:56.804Z</time>
      </trkpt>
      <trkpt lat="45.25391" lon="4.18943">
        <ele>725.08333333333</ele>
        <time>2015-10-03T11:05:57.847Z</time>
      </trkpt>
      <trkpt lat="45.25396" lon="4.18941">
        <ele>725.04166666667</ele>
        <time>2015-10-03T11:05:58.828Z</time>
      </trkpt>
      <trkpt lat="45.25407" lon="4.18937">
        <ele>724.91666666667</ele>
        <time>2015-10-03T11:06:00.823Z</time>
      </trkpt>
      <trkpt lat="45.25411" lon="4.18934">
        <ele>724.83333333333</ele>
        <time>2015-10-03T11:06:01.818Z</time>
      </trkpt>
      <trkpt lat="45.25413" lon="4.18932">
        <ele>724.75</ele>
        <time>2015-10-03T11:06:02.777Z</time>
      </trkpt>
      <trkpt lat="45.25416" lon="4.1893">
        <ele>724.72</ele>
        <time>2015-10-03T11:06:03.749Z</time>
      </trkpt>
      <trkpt lat="45.25423" lon="4.18926">
        <ele>724.6</ele>
        <time>2015-10-03T11:06:05.757Z</time>
      </trkpt>
      <trkpt lat="45.25433" lon="4.18917">
        <ele>724.66666666667</ele>
        <time>2015-10-03T11:06:07.726Z</time>
      </trkpt>
      <trkpt lat="45.25433" lon="4.18917">
        <ele>724.6</ele>
        <time>2015-10-03T11:06:08.723Z</time>
      </trkpt>
      <trkpt lat="45.25438" lon="4.18917">
        <ele>724.28</ele>
        <time>2015-10-03T11:06:11.716Z</time>
      </trkpt>
      <trkpt lat="45.2544" lon="4.18914">
        <ele>724.04</ele>
        <time>2015-10-03T11:06:14.721Z</time>
      </trkpt>
      <trkpt lat="45.25446" lon="4.18913">
        <ele>723.45833333333</ele>
        <time>2015-10-03T11:06:17.733Z</time>
      </trkpt>
      <trkpt lat="45.25451" lon="4.18913">
        <ele>723.33333333333</ele>
        <time>2015-10-03T11:06:18.743Z</time>
      </trkpt>
      <trkpt lat="45.25455" lon="4.18912">
        <ele>723.16666666667</ele>
        <time>2015-10-03T11:06:19.746Z</time>
      </trkpt>
      <trkpt lat="45.25459" lon="4.18912">
        <ele>723.12</ele>
        <time>2015-10-03T11:06:20.738Z</time>
      </trkpt>
      <trkpt lat="45.25464" lon="4.18909">
        <ele>722.92</ele>
        <time>2015-10-03T11:06:21.732Z</time>
      </trkpt>
      <trkpt lat="45.25472" lon="4.18906">
        <ele>722.56</ele>
        <time>2015-10-03T11:06:23.725Z</time>
      </trkpt>
      <trkpt lat="45.25481" lon="4.18903">
        <ele>722.16</ele>
        <time>2015-10-03T11:06:25.743Z</time>
      </trkpt>
      <trkpt lat="45.25487" lon="4.18904">
        <ele>722</ele>
        <time>2015-10-03T11:06:26.742Z</time>
      </trkpt>
      <trkpt lat="45.25491" lon="4.18903">
        <ele>721.8</ele>
        <time>2015-10-03T11:06:27.736Z</time>
      </trkpt>
      <trkpt lat="45.25496" lon="4.18896">
        <ele>721.52</ele>
        <time>2015-10-03T11:06:28.720Z</time>
      </trkpt>
      <trkpt lat="45.25501" lon="4.18894">
        <ele>721.20833333333</ele>
        <time>2015-10-03T11:06:29.757Z</time>
      </trkpt>
      <trkpt lat="45.25507" lon="4.18893">
        <ele>720.84</ele>
        <time>2015-10-03T11:06:31.731Z</time>
      </trkpt>
      <trkpt lat="45.2551" lon="4.18893">
        <ele>720.56</ele>
        <time>2015-10-03T11:06:32.728Z</time>
      </trkpt>
      <trkpt lat="45.25513" lon="4.18894">
        <ele>720.28</ele>
        <time>2015-10-03T11:06:33.730Z</time>
      </trkpt>
      <trkpt lat="45.25516" lon="4.18894">
        <ele>719.92</ele>
        <time>2015-10-03T11:06:34.742Z</time>
      </trkpt>
      <trkpt lat="45.2552" lon="4.18894">
        <ele>719.6</ele>
        <time>2015-10-03T11:06:35.732Z</time>
      </trkpt>
      <trkpt lat="45.25529" lon="4.18894">
        <ele>718.96</ele>
        <time>2015-10-03T11:06:37.735Z</time>
      </trkpt>
      <trkpt lat="45.25533" lon="4.18895">
        <ele>718.6</ele>
        <time>2015-10-03T11:06:38.734Z</time>
      </trkpt>
      <trkpt lat="45.25537" lon="4.18895">
        <ele>718.2</ele>
        <time>2015-10-03T11:06:39.743Z</time>
      </trkpt>
      <trkpt lat="45.2554" lon="4.18894">
        <ele>717.8</ele>
        <time>2015-10-03T11:06:40.741Z</time>
      </trkpt>
      <trkpt lat="45.25546" lon="4.18893">
        <ele>717.12</ele>
        <time>2015-10-03T11:06:42.797Z</time>
      </trkpt>
      <trkpt lat="45.25549" lon="4.18893">
        <ele>716.92307692308</ele>
        <time>2015-10-03T11:06:43.740Z</time>
      </trkpt>
      <trkpt lat="45.25551" lon="4.18892">
        <ele>716.5</ele>
        <time>2015-10-03T11:06:44.738Z</time>
      </trkpt>
      <trkpt lat="45.25554" lon="4.18891">
        <ele>716.03846153846</ele>
        <time>2015-10-03T11:06:45.737Z</time>
      </trkpt>
      <trkpt lat="45.25556" lon="4.18889">
        <ele>715.44</ele>
        <time>2015-10-03T11:06:46.733Z</time>
      </trkpt>
      <trkpt lat="45.25557" lon="4.18888">
        <ele>715</ele>
        <time>2015-10-03T11:06:47.730Z</time>
      </trkpt>
      <trkpt lat="45.2556" lon="4.18888">
        <ele>714.76923076923</ele>
        <time>2015-10-03T11:06:48.717Z</time>
      </trkpt>
      <trkpt lat="45.25562" lon="4.18887">
        <ele>714.04</ele>
        <time>2015-10-03T11:06:49.750Z</time>
      </trkpt>
      <trkpt lat="45.25565" lon="4.18886">
        <ele>713.6</ele>
        <time>2015-10-03T11:06:50.793Z</time>
      </trkpt>
      <trkpt lat="45.25566" lon="4.18884">
        <ele>713.12</ele>
        <time>2015-10-03T11:06:51.811Z</time>
      </trkpt>
      <trkpt lat="45.25569" lon="4.18882">
        <ele>712.64</ele>
        <time>2015-10-03T11:06:52.838Z</time>
      </trkpt>
      <trkpt lat="45.25571" lon="4.18881">
        <ele>712.24</ele>
        <time>2015-10-03T11:06:53.842Z</time>
      </trkpt>
      <trkpt lat="45.25575" lon="4.18879">
        <ele>711.68</ele>
        <time>2015-10-03T11:06:54.837Z</time>
      </trkpt>
      <trkpt lat="45.25582" lon="4.18878">
        <ele>710.68</ele>
        <time>2015-10-03T11:06:56.735Z</time>
      </trkpt>
      <trkpt lat="45.25585" lon="4.18877">
        <ele>710.2</ele>
        <time>2015-10-03T11:06:57.742Z</time>
      </trkpt>
      <trkpt lat="45.25588" lon="4.18876">
        <ele>709.68</ele>
        <time>2015-10-03T11:06:58.737Z</time>
      </trkpt>
      <trkpt lat="45.2559" lon="4.18875">
        <ele>709.38461538462</ele>
        <time>2015-10-03T11:06:59.725Z</time>
      </trkpt>
      <trkpt lat="45.25593" lon="4.18875">
        <ele>708.88461538462</ele>
        <time>2015-10-03T11:07:00.732Z</time>
      </trkpt>
      <trkpt lat="45.25596" lon="4.18874">
        <ele>708.38461538462</ele>
        <time>2015-10-03T11:07:01.726Z</time>
      </trkpt>
      <trkpt lat="45.25599" lon="4.18875">
        <ele>707.72</ele>
        <time>2015-10-03T11:07:02.737Z</time>
      </trkpt>
      <trkpt lat="45.25603" lon="4.18875">
        <ele>707.16</ele>
        <time>2015-10-03T11:07:03.740Z</time>
      </trkpt>
      <trkpt lat="45.25609" lon="4.18873">
        <ele>706.46153846154</ele>
        <time>2015-10-03T11:07:05.731Z</time>
      </trkpt>
      <trkpt lat="45.25613" lon="4.18871">
        <ele>705.96153846154</ele>
        <time>2015-10-03T11:07:06.750Z</time>
      </trkpt>
      <trkpt lat="45.2562" lon="4.18868">
        <ele>704.92307692308</ele>
        <time>2015-10-03T11:07:08.733Z</time>
      </trkpt>
      <trkpt lat="45.25623" lon="4.18867">
        <ele>704.42307692308</ele>
        <time>2015-10-03T11:07:09.737Z</time>
      </trkpt>
      <trkpt lat="45.25627" lon="4.18866">
        <ele>703.68</ele>
        <time>2015-10-03T11:07:10.738Z</time>
      </trkpt>
      <trkpt lat="45.25632" lon="4.18866">
        <ele>703.08</ele>
        <time>2015-10-03T11:07:11.734Z</time>
      </trkpt>
      <trkpt lat="45.25636" lon="4.18865">
        <ele>702.48</ele>
        <time>2015-10-03T11:07:12.741Z</time>
      </trkpt>
      <trkpt lat="45.25641" lon="4.18864">
        <ele>701.88</ele>
        <time>2015-10-03T11:07:13.748Z</time>
      </trkpt>
      <trkpt lat="45.25645" lon="4.18864">
        <ele>701.5</ele>
        <time>2015-10-03T11:07:14.735Z</time>
      </trkpt>
      <trkpt lat="45.25649" lon="4.18864">
        <ele>701</ele>
        <time>2015-10-03T11:07:15.732Z</time>
      </trkpt>
      <trkpt lat="45.25654" lon="4.18863">
        <ele>700.42307692308</ele>
        <time>2015-10-03T11:07:16.724Z</time>
      </trkpt>
      <trkpt lat="45.25659" lon="4.18862">
        <ele>699.80769230769</ele>
        <time>2015-10-03T11:07:17.719Z</time>
      </trkpt>
      <trkpt lat="45.25664" lon="4.18861">
        <ele>699.23076923077</ele>
        <time>2015-10-03T11:07:18.730Z</time>
      </trkpt>
      <trkpt lat="45.25669" lon="4.18859">
        <ele>698.65384615385</ele>
        <time>2015-10-03T11:07:19.729Z</time>
      </trkpt>
      <trkpt lat="45.25674" lon="4.18856">
        <ele>698.07692307692</ele>
        <time>2015-10-03T11:07:20.719Z</time>
      </trkpt>
      <trkpt lat="45.25678" lon="4.18854">
        <ele>697.53846153846</ele>
        <time>2015-10-03T11:07:21.735Z</time>
      </trkpt>
      <trkpt lat="45.25682" lon="4.18852">
        <ele>697</ele>
        <time>2015-10-03T11:07:22.733Z</time>
      </trkpt>
      <trkpt lat="45.25686" lon="4.1885">
        <ele>696.42307692308</ele>
        <time>2015-10-03T11:07:23.724Z</time>
      </trkpt>
      <trkpt lat="45.2569" lon="4.18848">
        <ele>695.92307692308</ele>
        <time>2015-10-03T11:07:24.718Z</time>
      </trkpt>
      <trkpt lat="45.25693" lon="4.18847">
        <ele>695.46153846154</ele>
        <time>2015-10-03T11:07:25.721Z</time>
      </trkpt>
      <trkpt lat="45.25698" lon="4.18845">
        <ele>694.68</ele>
        <time>2015-10-03T11:07:26.731Z</time>
      </trkpt>
      <trkpt lat="45.25702" lon="4.18844">
        <ele>694.42307692308</ele>
        <time>2015-10-03T11:07:27.730Z</time>
      </trkpt>
      <trkpt lat="45.25707" lon="4.18844">
        <ele>693.88461538462</ele>
        <time>2015-10-03T11:07:28.723Z</time>
      </trkpt>
      <trkpt lat="45.25711" lon="4.18845">
        <ele>693.08</ele>
        <time>2015-10-03T11:07:29.729Z</time>
      </trkpt>
      <trkpt lat="45.25717" lon="4.18846">
        <ele>692.48</ele>
        <time>2015-10-03T11:07:30.732Z</time>
      </trkpt>
      <trkpt lat="45.25723" lon="4.18847">
        <ele>692.23076923077</ele>
        <time>2015-10-03T11:07:31.733Z</time>
      </trkpt>
      <trkpt lat="45.25738" lon="4.18838">
        <ele>691.4</ele>
        <time>2015-10-03T11:07:33.712Z</time>
      </trkpt>
      <trkpt lat="45.25743" lon="4.18836">
        <ele>690.84</ele>
        <time>2015-10-03T11:07:34.718Z</time>
      </trkpt>
      <trkpt lat="45.25747" lon="4.18834">
        <ele>690.2</ele>
        <time>2015-10-03T11:07:35.732Z</time>
      </trkpt>
      <trkpt lat="45.25768" lon="4.18826">
        <ele>687.66666666667</ele>
        <time>2015-10-03T11:07:40.724Z</time>
      </trkpt>
      <trkpt lat="45.25768" lon="4.18825">
        <ele>686.78260869565</ele>
        <time>2015-10-03T11:07:41.755Z</time>
      </trkpt>
      <trkpt lat="45.25769" lon="4.18824">
        <ele>686.13043478261</ele>
        <time>2015-10-03T11:07:42.792Z</time>
      </trkpt>
      <trkpt lat="45.25773" lon="4.18819">
        <ele>684.78260869565</ele>
        <time>2015-10-03T11:07:44.749Z</time>
      </trkpt>
      <trkpt lat="45.25775" lon="4.18818">
        <ele>684.17391304348</ele>
        <time>2015-10-03T11:07:45.739Z</time>
      </trkpt>
      <trkpt lat="45.25778" lon="4.18815">
        <ele>683.83333333333</ele>
        <time>2015-10-03T11:07:46.733Z</time>
      </trkpt>
      <trkpt lat="45.25783" lon="4.18812">
        <ele>682.82608695652</ele>
        <time>2015-10-03T11:07:47.736Z</time>
      </trkpt>
      <trkpt lat="45.25787" lon="4.18809">
        <ele>682.17391304348</ele>
        <time>2015-10-03T11:07:48.742Z</time>
      </trkpt>
      <trkpt lat="45.25794" lon="4.18804">
        <ele>680.78260869565</ele>
        <time>2015-10-03T11:07:50.732Z</time>
      </trkpt>
      <trkpt lat="45.25798" lon="4.18802">
        <ele>680.13043478261</ele>
        <time>2015-10-03T11:07:51.741Z</time>
      </trkpt>
      <trkpt lat="45.25802" lon="4.18801">
        <ele>679.79166666667</ele>
        <time>2015-10-03T11:07:52.722Z</time>
      </trkpt>
      <trkpt lat="45.25806" lon="4.18801">
        <ele>679.125</ele>
        <time>2015-10-03T11:07:53.720Z</time>
      </trkpt>
      <trkpt lat="45.25814" lon="4.18797">
        <ele>677.33333333333</ele>
        <time>2015-10-03T11:07:56.724Z</time>
      </trkpt>
      <trkpt lat="45.25817" lon="4.18796">
        <ele>676.66666666667</ele>
        <time>2015-10-03T11:07:57.743Z</time>
      </trkpt>
      <trkpt lat="45.25818" lon="4.18794">
        <ele>676.125</ele>
        <time>2015-10-03T11:07:58.738Z</time>
      </trkpt>
      <trkpt lat="45.2582" lon="4.18793">
        <ele>675.54166666667</ele>
        <time>2015-10-03T11:07:59.730Z</time>
      </trkpt>
      <trkpt lat="45.25822" lon="4.18791">
        <ele>675.36</ele>
        <time>2015-10-03T11:08:00.722Z</time>
      </trkpt>
      <trkpt lat="45.25824" lon="4.1879">
        <ele>674.92</ele>
        <time>2015-10-03T11:08:01.716Z</time>
      </trkpt>
      <trkpt lat="45.25826" lon="4.1879">
        <ele>674.52</ele>
        <time>2015-10-03T11:08:02.721Z</time>
      </trkpt>
      <trkpt lat="45.25827" lon="4.18789">
        <ele>674.04</ele>
        <time>2015-10-03T11:08:03.710Z</time>
      </trkpt>
      <trkpt lat="45.25829" lon="4.18788">
        <ele>673.6</ele>
        <time>2015-10-03T11:08:04.718Z</time>
      </trkpt>
      <trkpt lat="45.25831" lon="4.18787">
        <ele>673.53846153846</ele>
        <time>2015-10-03T11:08:05.717Z</time>
      </trkpt>
      <trkpt lat="45.25838" lon="4.18785">
        <ele>672.73076923077</ele>
        <time>2015-10-03T11:08:08.720Z</time>
      </trkpt>
      <trkpt lat="45.25843" lon="4.18783">
        <ele>672.42307692308</ele>
        <time>2015-10-03T11:08:09.854Z</time>
      </trkpt>
      <trkpt lat="45.25847" lon="4.18779">
        <ele>672.26923076923</ele>
        <time>2015-10-03T11:08:11.855Z</time>
      </trkpt>
      <trkpt lat="45.25849" lon="4.18778">
        <ele>672.23076923077</ele>
        <time>2015-10-03T11:08:12.866Z</time>
      </trkpt>
      <trkpt lat="45.25851" lon="4.18778">
        <ele>672.30769230769</ele>
        <time>2015-10-03T11:08:13.854Z</time>
      </trkpt>
      <trkpt lat="45.25852" lon="4.18778">
        <ele>672.33333333333</ele>
        <time>2015-10-03T11:08:13.854Z</time>
      </trkpt>
      <trkpt lat="45.25853" lon="4.18778">
        <ele>672.39285714286</ele>
        <time>2015-10-03T11:08:13.854Z</time>
      </trkpt>
      <trkpt lat="45.25854" lon="4.18778">
        <ele>672.44827586207</ele>
        <time>2015-10-03T11:08:13.854Z</time>
      </trkpt>
      <trkpt lat="45.25855" lon="4.18778">
        <ele>672.53333333333</ele>
        <time>2015-10-03T11:08:13.854Z</time>
      </trkpt>
      <trkpt lat="45.25856" lon="4.18776">
        <ele>672.58064516129</ele>
        <time>2015-10-03T11:08:13.854Z</time>
      </trkpt>
      <trkpt lat="45.25857" lon="4.18775">
        <ele>672.625</ele>
        <time>2015-10-03T11:08:13.854Z</time>
      </trkpt>
      <trkpt lat="45.25858" lon="4.18774">
        <ele>672.625</ele>
        <time>2015-10-03T11:08:14.807Z</time>
      </trkpt>
      <trkpt lat="45.2586" lon="4.18774">
        <ele>672.625</ele>
        <time>2015-10-03T11:08:15.814Z</time>
      </trkpt>
      <trkpt lat="45.25862" lon="4.18773">
        <ele>672.625</ele>
        <time>2015-10-03T11:08:16.815Z</time>
      </trkpt>
      <trkpt lat="45.25864" lon="4.18771">
        <ele>672.71875</ele>
        <time>2015-10-03T11:08:17.820Z</time>
      </trkpt>
      <trkpt lat="45.25866" lon="4.18769">
        <ele>672.78125</ele>
        <time>2015-10-03T11:08:18.820Z</time>
      </trkpt>
      <trkpt lat="45.25869" lon="4.18767">
        <ele>672.875</ele>
        <time>2015-10-03T11:08:19.821Z</time>
      </trkpt>
      <trkpt lat="45.2587" lon="4.18766">
        <ele>672.9375</ele>
        <time>2015-10-03T11:08:20.815Z</time>
      </trkpt>
      <trkpt lat="45.25872" lon="4.18764">
        <ele>673</ele>
        <time>2015-10-03T11:08:21.814Z</time>
      </trkpt>
      <trkpt lat="45.25875" lon="4.18762">
        <ele>673.125</ele>
        <time>2015-10-03T11:08:22.812Z</time>
      </trkpt>
      <trkpt lat="45.25877" lon="4.18761">
        <ele>673.125</ele>
        <time>2015-10-03T11:08:23.813Z</time>
      </trkpt>
      <trkpt lat="45.2588" lon="4.18759">
        <ele>673.21875</ele>
        <time>2015-10-03T11:08:24.818Z</time>
      </trkpt>
      <trkpt lat="45.25882" lon="4.18757">
        <ele>673.3125</ele>
        <time>2015-10-03T11:08:25.828Z</time>
      </trkpt>
      <trkpt lat="45.25885" lon="4.18755">
        <ele>673.375</ele>
        <time>2015-10-03T11:08:26.831Z</time>
      </trkpt>
      <trkpt lat="45.25888" lon="4.18753">
        <ele>673.4375</ele>
        <time>2015-10-03T11:08:27.811Z</time>
      </trkpt>
      <trkpt lat="45.25891" lon="4.18752">
        <ele>673.53125</ele>
        <time>2015-10-03T11:08:28.821Z</time>
      </trkpt>
      <trkpt lat="45.25895" lon="4.18752">
        <ele>673.53125</ele>
        <time>2015-10-03T11:08:29.814Z</time>
      </trkpt>
      <trkpt lat="45.25898" lon="4.18751">
        <ele>673.625</ele>
        <time>2015-10-03T11:08:30.815Z</time>
      </trkpt>
      <trkpt lat="45.25901" lon="4.18749">
        <ele>673.71875</ele>
        <time>2015-10-03T11:08:31.819Z</time>
      </trkpt>
      <trkpt lat="45.25903" lon="4.18746">
        <ele>673.84375</ele>
        <time>2015-10-03T11:08:32.823Z</time>
      </trkpt>
      <trkpt lat="45.25908" lon="4.18737">
        <ele>674.1875</ele>
        <time>2015-10-03T11:08:35.830Z</time>
      </trkpt>
      <trkpt lat="45.2591" lon="4.18735">
        <ele>674.21875</ele>
        <time>2015-10-03T11:08:36.819Z</time>
      </trkpt>
      <trkpt lat="45.25912" lon="4.18732">
        <ele>674.28125</ele>
        <time>2015-10-03T11:08:37.814Z</time>
      </trkpt>
      <trkpt lat="45.25913" lon="4.1873">
        <ele>674.375</ele>
        <time>2015-10-03T11:08:38.814Z</time>
      </trkpt>
      <trkpt lat="45.25914" lon="4.18727">
        <ele>674.52</ele>
        <time>2015-10-03T11:08:39.825Z</time>
      </trkpt>
      <trkpt lat="45.25917" lon="4.18717">
        <ele>674.84</ele>
        <time>2015-10-03T11:08:42.821Z</time>
      </trkpt>
      <trkpt lat="45.25918" lon="4.18715">
        <ele>674.88</ele>
        <time>2015-10-03T11:08:43.823Z</time>
      </trkpt>
      <trkpt lat="45.25919" lon="4.18713">
        <ele>674.92</ele>
        <time>2015-10-03T11:08:44.831Z</time>
      </trkpt>
      <trkpt lat="45.25921" lon="4.1871">
        <ele>675.04</ele>
        <time>2015-10-03T11:08:45.826Z</time>
      </trkpt>
      <trkpt lat="45.25922" lon="4.18708">
        <ele>675.12</ele>
        <time>2015-10-03T11:08:46.846Z</time>
      </trkpt>
      <trkpt lat="45.25923" lon="4.18704">
        <ele>675.2</ele>
        <time>2015-10-03T11:08:47.865Z</time>
      </trkpt>
      <trkpt lat="45.25924" lon="4.18698">
        <ele>675.4</ele>
        <time>2015-10-03T11:08:49.222Z</time>
      </trkpt>
      <trkpt lat="45.25923" lon="4.18696">
        <ele>675.56</ele>
        <time>2015-10-03T11:08:49.885Z</time>
      </trkpt>
      <trkpt lat="45.25923" lon="4.18693">
        <ele>675.72</ele>
        <time>2015-10-03T11:08:50.897Z</time>
      </trkpt>
      <trkpt lat="45.25925" lon="4.1869">
        <ele>675.84</ele>
        <time>2015-10-03T11:08:51.913Z</time>
      </trkpt>
      <trkpt lat="45.25927" lon="4.18687">
        <ele>676</ele>
        <time>2015-10-03T11:08:52.892Z</time>
      </trkpt>
      <trkpt lat="45.25928" lon="4.18684">
        <ele>676.12</ele>
        <time>2015-10-03T11:08:53.886Z</time>
      </trkpt>
      <trkpt lat="45.2593" lon="4.18682">
        <ele>676.36</ele>
        <time>2015-10-03T11:08:54.890Z</time>
      </trkpt>
      <trkpt lat="45.25932" lon="4.18678">
        <ele>676.48</ele>
        <time>2015-10-03T11:08:56.864Z</time>
      </trkpt>
      <trkpt lat="45.25933" lon="4.18677">
        <ele>676.6</ele>
        <time>2015-10-03T11:08:57.841Z</time>
      </trkpt>
      <trkpt lat="45.25932" lon="4.18676">
        <ele>676.80769230769</ele>
        <time>2015-10-03T11:09:01.815Z</time>
      </trkpt>
      <trkpt lat="45.25932" lon="4.18676">
        <ele>676.84615384615</ele>
        <time>2015-10-03T11:09:05.807Z</time>
      </trkpt>
      <trkpt lat="45.25932" lon="4.18675">
        <ele>676.88</ele>
        <time>2015-10-03T11:09:08.831Z</time>
      </trkpt>
      <trkpt lat="45.25932" lon="4.18674">
        <ele>676.84615384615</ele>
        <time>2015-10-03T11:09:10.809Z</time>
      </trkpt>
      <trkpt lat="45.25933" lon="4.18674">
        <ele>676.84615384615</ele>
        <time>2015-10-03T11:09:12.806Z</time>
      </trkpt>
      <trkpt lat="45.25933" lon="4.18673">
        <ele>676.80769230769</ele>
        <time>2015-10-03T11:09:15.812Z</time>
      </trkpt>
      <trkpt lat="45.25933" lon="4.18673">
        <ele>676.65384615385</ele>
        <time>2015-10-03T11:09:18.814Z</time>
      </trkpt>
      <trkpt lat="45.25933" lon="4.18673">
        <ele>676.65384615385</ele>
        <time>2015-10-03T11:09:22.797Z</time>
      </trkpt>
      <trkpt lat="45.25933" lon="4.18673">
        <ele>676.52</ele>
        <time>2015-10-03T11:09:25.825Z</time>
      </trkpt>
      <trkpt lat="45.25933" lon="4.18673">
        <ele>676.56</ele>
        <time>2015-10-03T11:09:29.811Z</time>
      </trkpt>
      <trkpt lat="45.25933" lon="4.18673">
        <ele>676.64</ele>
        <time>2015-10-03T11:09:33.806Z</time>
      </trkpt>
      <trkpt lat="45.25933" lon="4.18673">
        <ele>676.70833333333</ele>
        <time>2015-10-03T11:09:36.813Z</time>
      </trkpt>
      <trkpt lat="45.25933" lon="4.18673">
        <ele>676.70833333333</ele>
        <time>2015-10-03T11:09:39.816Z</time>
      </trkpt>
      <trkpt lat="45.25933" lon="4.18673">
        <ele>676.64</ele>
        <time>2015-10-03T11:09:43.809Z</time>
      </trkpt>
      <trkpt lat="45.25934" lon="4.18673">
        <ele>676.58333333333</ele>
        <time>2015-10-03T11:09:46.821Z</time>
      </trkpt>
      <trkpt lat="45.25934" lon="4.18673">
        <ele>676.6</ele>
        <time>2015-10-03T11:09:50.811Z</time>
      </trkpt>
      <trkpt lat="45.25934" lon="4.18673">
        <ele>676.58333333333</ele>
        <time>2015-10-03T11:09:53.817Z</time>
      </trkpt>
      <trkpt lat="45.25934" lon="4.18673">
        <ele>676.48</ele>
        <time>2015-10-03T11:09:57.813Z</time>
      </trkpt>
      <trkpt lat="45.25934" lon="4.18673">
        <ele>676.5</ele>
        <time>2015-10-03T11:09:58.805Z</time>
      </trkpt>
      <trkpt lat="45.25934" lon="4.18673">
        <ele>676.46153846154</ele>
        <time>2015-10-03T11:09:59.802Z</time>
      </trkpt>
      <trkpt lat="45.25934" lon="4.18673">
        <ele>676.42307692308</ele>
        <time>2015-10-03T11:10:02.809Z</time>
      </trkpt>
      <trkpt lat="45.25934" lon="4.18673">
        <ele>676.42307692308</ele>
        <time>2015-10-03T11:10:05.813Z</time>
      </trkpt>
      <trkpt lat="45.25934" lon="4.18673">
        <ele>676.42307692308</ele>
        <time>2015-10-03T11:10:09.805Z</time>
      </trkpt>
      <trkpt lat="45.25934" lon="4.18673">
        <ele>676.5</ele>
        <time>2015-10-03T11:10:12.809Z</time>
      </trkpt>
      <trkpt lat="45.25934" lon="4.18673">
        <ele>676.52</ele>
        <time>2015-10-03T11:10:15.821Z</time>
      </trkpt>
      <trkpt lat="45.25933" lon="4.18672">
        <ele>676.5</ele>
        <time>2015-10-03T11:10:19.811Z</time>
      </trkpt>
      <trkpt lat="45.25933" lon="4.18672">
        <ele>676.53846153846</ele>
        <time>2015-10-03T11:10:22.813Z</time>
      </trkpt>
      <trkpt lat="45.25933" lon="4.18671">
        <ele>676.61538461538</ele>
        <time>2015-10-03T11:10:26.809Z</time>
      </trkpt>
      <trkpt lat="45.25933" lon="4.18671">
        <ele>676.68</ele>
        <time>2015-10-03T11:10:29.814Z</time>
      </trkpt>
      <trkpt lat="45.25933" lon="4.18671">
        <ele>676.76</ele>
        <time>2015-10-03T11:10:32.816Z</time>
      </trkpt>
      <trkpt lat="45.25933" lon="4.18671">
        <ele>676.8</ele>
        <time>2015-10-03T11:10:36.820Z</time>
      </trkpt>
      <trkpt lat="45.25933" lon="4.18671">
        <ele>676.8</ele>
        <time>2015-10-03T11:10:39.823Z</time>
      </trkpt>
      <trkpt lat="45.25933" lon="4.18671">
        <ele>676.84</ele>
        <time>2015-10-03T11:10:43.817Z</time>
      </trkpt>
      <trkpt lat="45.25933" lon="4.18671">
        <ele>676.84</ele>
        <time>2015-10-03T11:10:46.818Z</time>
      </trkpt>
      <trkpt lat="45.25933" lon="4.18671">
        <ele>676.84</ele>
        <time>2015-10-03T11:10:50.808Z</time>
      </trkpt>
      <trkpt lat="45.25933" lon="4.18672">
        <ele>676.84615384615</ele>
        <time>2015-10-03T11:10:53.812Z</time>
      </trkpt>
      <trkpt lat="45.25933" lon="4.18672">
        <ele>676.84</ele>
        <time>2015-10-03T11:10:56.818Z</time>
      </trkpt>
      <trkpt lat="45.25933" lon="4.18672">
        <ele>676.84</ele>
        <time>2015-10-03T11:10:59.822Z</time>
      </trkpt>
      <trkpt lat="45.25933" lon="4.18671">
        <ele>676.84</ele>
        <time>2015-10-03T11:11:00.824Z</time>
      </trkpt>
      <trkpt lat="45.25934" lon="4.18669">
        <ele>676.84</ele>
        <time>2015-10-03T11:11:01.837Z</time>
      </trkpt>
      <trkpt lat="45.25936" lon="4.18668">
        <ele>676.88</ele>
        <time>2015-10-03T11:11:02.823Z</time>
      </trkpt>
      <trkpt lat="45.25939" lon="4.18666">
        <ele>676.84</ele>
        <time>2015-10-03T11:11:03.813Z</time>
      </trkpt>
      <trkpt lat="45.25943" lon="4.18663">
        <ele>676.80769230769</ele>
        <time>2015-10-03T11:11:04.816Z</time>
      </trkpt>
      <trkpt lat="45.25945" lon="4.18661">
        <ele>676.76</ele>
        <time>2015-10-03T11:11:05.840Z</time>
      </trkpt>
      <trkpt lat="45.25946" lon="4.18659">
        <ele>676.72</ele>
        <time>2015-10-03T11:11:06.877Z</time>
      </trkpt>
      <trkpt lat="45.25948" lon="4.18657">
        <ele>676.6</ele>
        <time>2015-10-03T11:11:07.856Z</time>
      </trkpt>
      <trkpt lat="45.2595" lon="4.18653">
        <ele>676.52</ele>
        <time>2015-10-03T11:11:08.828Z</time>
      </trkpt>
      <trkpt lat="45.2596" lon="4.18625">
        <ele>676.44</ele>
        <time>2015-10-03T11:11:10.793Z</time>
      </trkpt>
      <trkpt lat="45.25964" lon="4.18621">
        <ele>676.4</ele>
        <time>2015-10-03T11:11:11.796Z</time>
      </trkpt>
      <trkpt lat="45.25967" lon="4.18616">
        <ele>676.28</ele>
        <time>2015-10-03T11:11:12.803Z</time>
      </trkpt>
      <trkpt lat="45.25971" lon="4.18612">
        <ele>676.12</ele>
        <time>2015-10-03T11:11:13.803Z</time>
      </trkpt>
      <trkpt lat="45.25979" lon="4.18605">
        <ele>675.8</ele>
        <time>2015-10-03T11:11:15.805Z</time>
      </trkpt>
      <trkpt lat="45.25984" lon="4.18603">
        <ele>675.6</ele>
        <time>2015-10-03T11:11:16.813Z</time>
      </trkpt>
      <trkpt lat="45.25992" lon="4.18599">
        <ele>675.125</ele>
        <time>2015-10-03T11:11:18.816Z</time>
      </trkpt>
      <trkpt lat="45.25999" lon="4.18594">
        <ele>674.84</ele>
        <time>2015-10-03T11:11:20.803Z</time>
      </trkpt>
      <trkpt lat="45.26006" lon="4.18591">
        <ele>674.4</ele>
        <time>2015-10-03T11:11:22.805Z</time>
      </trkpt>
      <trkpt lat="45.26013" lon="4.18586">
        <ele>673.70833333333</ele>
        <time>2015-10-03T11:11:24.831Z</time>
      </trkpt>
      <trkpt lat="45.26016" lon="4.18585">
        <ele>673.5</ele>
        <time>2015-10-03T11:11:25.826Z</time>
      </trkpt>
      <trkpt lat="45.26017" lon="4.18585">
        <ele>673.36</ele>
        <time>2015-10-03T11:11:26.832Z</time>
      </trkpt>
      <trkpt lat="45.26019" lon="4.18585">
        <ele>672.875</ele>
        <time>2015-10-03T11:11:27.826Z</time>
      </trkpt>
      <trkpt lat="45.26028" lon="4.18582">
        <ele>672.20833333333</ele>
        <time>2015-10-03T11:11:30.867Z</time>
      </trkpt>
      <trkpt lat="45.26037" lon="4.18577">
        <ele>671.95833333333</ele>
        <time>2015-10-03T11:11:32.793Z</time>
      </trkpt>
      <trkpt lat="45.26044" lon="4.18575">
        <ele>671.39130434783</ele>
        <time>2015-10-03T11:11:35.821Z</time>
      </trkpt>
      <trkpt lat="45.26048" lon="4.18572">
        <ele>670.91304347826</ele>
        <time>2015-10-03T11:11:37.816Z</time>
      </trkpt>
      <trkpt lat="45.26051" lon="4.1857">
        <ele>670.78260869565</ele>
        <time>2015-10-03T11:11:38.823Z</time>
      </trkpt>
      <trkpt lat="45.26053" lon="4.18569">
        <ele>670.65217391304</ele>
        <time>2015-10-03T11:11:39.812Z</time>
      </trkpt>
      <trkpt lat="45.26053" lon="4.18568">
        <ele>670.52173913043</ele>
        <time>2015-10-03T11:11:40.831Z</time>
      </trkpt>
      <trkpt lat="45.26052" lon="4.18567">
        <ele>670.34782608696</ele>
        <time>2015-10-03T11:11:41.869Z</time>
      </trkpt>
      <trkpt lat="45.26053" lon="4.18566">
        <ele>670.30434782609</ele>
        <time>2015-10-03T11:11:42.897Z</time>
      </trkpt>
      <trkpt lat="45.26056" lon="4.18566">
        <ele>670.13043478261</ele>
        <time>2015-10-03T11:11:43.912Z</time>
      </trkpt>
      <trkpt lat="45.26056" lon="4.18566">
        <ele>670</ele>
        <time>2015-10-03T11:11:44.899Z</time>
      </trkpt>
      <trkpt lat="45.26073" lon="4.18581">
        <ele>669.91304347826</ele>
        <time>2015-10-03T11:11:45.858Z</time>
      </trkpt>
      <trkpt lat="45.26075" lon="4.18583">
        <ele>669.78260869565</ele>
        <time>2015-10-03T11:11:46.823Z</time>
      </trkpt>
      <trkpt lat="45.26077" lon="4.18583">
        <ele>669.73913043478</ele>
        <time>2015-10-03T11:11:47.811Z</time>
      </trkpt>
      <trkpt lat="45.26079" lon="4.18581">
        <ele>669.73913043478</ele>
        <time>2015-10-03T11:11:48.839Z</time>
      </trkpt>
      <trkpt lat="45.26084" lon="4.18577">
        <ele>669.60869565217</ele>
        <time>2015-10-03T11:11:50.878Z</time>
      </trkpt>
      <trkpt lat="45.26086" lon="4.18576">
        <ele>669.60869565217</ele>
        <time>2015-10-03T11:11:51.893Z</time>
      </trkpt>
      <trkpt lat="45.26087" lon="4.18574">
        <ele>669.5652173913</ele>
        <time>2015-10-03T11:11:52.881Z</time>
      </trkpt>
      <trkpt lat="45.26088" lon="4.18573">
        <ele>669.52173913043</ele>
        <time>2015-10-03T11:11:54.903Z</time>
      </trkpt>
      <trkpt lat="45.2609" lon="4.18573">
        <ele>669.34782608696</ele>
        <time>2015-10-03T11:11:55.907Z</time>
      </trkpt>
      <trkpt lat="45.2609" lon="4.18572">
        <ele>669.375</ele>
        <time>2015-10-03T11:11:56.918Z</time>
      </trkpt>
      <trkpt lat="45.2609" lon="4.18569">
        <ele>669.48</ele>
        <time>2015-10-03T11:11:58.905Z</time>
      </trkpt>
      <trkpt lat="45.26089" lon="4.18566">
        <ele>669.6</ele>
        <time>2015-10-03T11:12:01.930Z</time>
      </trkpt>
      <trkpt lat="45.26088" lon="4.18566">
        <ele>669.44</ele>
        <time>2015-10-03T11:12:05.922Z</time>
      </trkpt>
      <trkpt lat="45.26088" lon="4.18566">
        <ele>669.52</ele>
        <time>2015-10-03T11:12:06.926Z</time>
      </trkpt>
      <trkpt lat="45.26088" lon="4.18566">
        <ele>669.48</ele>
        <time>2015-10-03T11:12:07.911Z</time>
      </trkpt>
      <trkpt lat="45.26087" lon="4.18564">
        <ele>669.46153846154</ele>
        <time>2015-10-03T11:12:10.826Z</time>
      </trkpt>
      <trkpt lat="45.26088" lon="4.18562">
        <ele>669.38461538462</ele>
        <time>2015-10-03T11:12:11.820Z</time>
      </trkpt>
      <trkpt lat="45.26089" lon="4.18559">
        <ele>669.36</ele>
        <time>2015-10-03T11:12:12.823Z</time>
      </trkpt>
      <trkpt lat="45.26091" lon="4.18556">
        <ele>669.28</ele>
        <time>2015-10-03T11:12:13.854Z</time>
      </trkpt>
      <trkpt lat="45.26094" lon="4.18554">
        <ele>669.28</ele>
        <time>2015-10-03T11:12:14.887Z</time>
      </trkpt>
      <trkpt lat="45.26097" lon="4.18553">
        <ele>669.36</ele>
        <time>2015-10-03T11:12:15.901Z</time>
      </trkpt>
      <trkpt lat="45.26101" lon="4.18553">
        <ele>669.34615384615</ele>
        <time>2015-10-03T11:12:16.881Z</time>
      </trkpt>
      <trkpt lat="45.26104" lon="4.18554">
        <ele>669.30769230769</ele>
        <time>2015-10-03T11:12:17.843Z</time>
      </trkpt>
      <trkpt lat="45.26106" lon="4.18554">
        <ele>669.30769230769</ele>
        <time>2015-10-03T11:12:18.801Z</time>
      </trkpt>
      <trkpt lat="45.26109" lon="4.18554">
        <ele>669.23076923077</ele>
        <time>2015-10-03T11:12:19.821Z</time>
      </trkpt>
      <trkpt lat="45.26111" lon="4.18554">
        <ele>669.19230769231</ele>
        <time>2015-10-03T11:12:20.834Z</time>
      </trkpt>
      <trkpt lat="45.26118" lon="4.18553">
        <ele>669.19230769231</ele>
        <time>2015-10-03T11:12:22.896Z</time>
      </trkpt>
      <trkpt lat="45.26121" lon="4.18554">
        <ele>669.07692307692</ele>
        <time>2015-10-03T11:12:23.894Z</time>
      </trkpt>
      <trkpt lat="45.26123" lon="4.18555">
        <ele>669.03846153846</ele>
        <time>2015-10-03T11:12:24.889Z</time>
      </trkpt>
      <trkpt lat="45.26125" lon="4.18557">
        <ele>669</ele>
        <time>2015-10-03T11:12:25.891Z</time>
      </trkpt>
      <trkpt lat="45.26127" lon="4.18559">
        <ele>669</ele>
        <time>2015-10-03T11:12:26.881Z</time>
      </trkpt>
      <trkpt lat="45.26129" lon="4.1856">
        <ele>668.96153846154</ele>
        <time>2015-10-03T11:12:27.836Z</time>
      </trkpt>
      <trkpt lat="45.26131" lon="4.18562">
        <ele>669</ele>
        <time>2015-10-03T11:12:28.828Z</time>
      </trkpt>
      <trkpt lat="45.26132" lon="4.18562">
        <ele>669.03846153846</ele>
        <time>2015-10-03T11:12:29.832Z</time>
      </trkpt>
      <trkpt lat="45.26133" lon="4.18563">
        <ele>668.92307692308</ele>
        <time>2015-10-03T11:12:30.821Z</time>
      </trkpt>
      <trkpt lat="45.26137" lon="4.18564">
        <ele>668.88461538462</ele>
        <time>2015-10-03T11:12:31.816Z</time>
      </trkpt>
      <trkpt lat="45.26141" lon="4.18567">
        <ele>668.84615384615</ele>
        <time>2015-10-03T11:12:32.818Z</time>
      </trkpt>
      <trkpt lat="45.26146" lon="4.1857">
        <ele>668.69230769231</ele>
        <time>2015-10-03T11:12:33.827Z</time>
      </trkpt>
      <trkpt lat="45.26158" lon="4.18579">
        <ele>668.53846153846</ele>
        <time>2015-10-03T11:12:36.816Z</time>
      </trkpt>
      <trkpt lat="45.26163" lon="4.18582">
        <ele>668.5</ele>
        <time>2015-10-03T11:12:37.823Z</time>
      </trkpt>
      <trkpt lat="45.26189" lon="4.18551">
        <ele>668.38461538462</ele>
        <time>2015-10-03T11:12:38.836Z</time>
      </trkpt>
      <trkpt lat="45.26268" lon="4.18544">
        <ele>668.28</ele>
        <time>2015-10-03T11:12:40.792Z</time>
      </trkpt>
      <trkpt lat="45.26273" lon="4.18543">
        <ele>668.16</ele>
        <time>2015-10-03T11:12:41.809Z</time>
      </trkpt>
      <trkpt lat="45.26275" lon="4.18546">
        <ele>668.08333333333</ele>
        <time>2015-10-03T11:12:42.853Z</time>
      </trkpt>
      <trkpt lat="45.26278" lon="4.18544">
        <ele>667.95833333333</ele>
        <time>2015-10-03T11:12:43.842Z</time>
      </trkpt>
      <trkpt lat="45.26282" lon="4.18548">
        <ele>667.875</ele>
        <time>2015-10-03T11:12:44.824Z</time>
      </trkpt>
      <trkpt lat="45.26286" lon="4.1855">
        <ele>667.88</ele>
        <time>2015-10-03T11:12:45.823Z</time>
      </trkpt>
      <trkpt lat="45.26288" lon="4.18552">
        <ele>667.8</ele>
        <time>2015-10-03T11:12:46.831Z</time>
      </trkpt>
      <trkpt lat="45.2629" lon="4.18553">
        <ele>667.76</ele>
        <time>2015-10-03T11:12:47.845Z</time>
      </trkpt>
      <trkpt lat="45.26289" lon="4.18554">
        <ele>667.52</ele>
        <time>2015-10-03T11:12:48.883Z</time>
      </trkpt>
      <trkpt lat="45.26289" lon="4.18555">
        <ele>667.375</ele>
        <time>2015-10-03T11:12:49.899Z</time>
      </trkpt>
      <trkpt lat="45.2629" lon="4.18556">
        <ele>667.04166666667</ele>
        <time>2015-10-03T11:12:51.920Z</time>
      </trkpt>
      <trkpt lat="45.26293" lon="4.18557">
        <ele>666.91666666667</ele>
        <time>2015-10-03T11:12:52.911Z</time>
      </trkpt>
      <trkpt lat="45.26295" lon="4.18557">
        <ele>666.75</ele>
        <time>2015-10-03T11:12:53.891Z</time>
      </trkpt>
      <trkpt lat="45.26298" lon="4.18559">
        <ele>666.625</ele>
        <time>2015-10-03T11:12:54.852Z</time>
      </trkpt>
      <trkpt lat="45.26307" lon="4.18563">
        <ele>666.52</ele>
        <time>2015-10-03T11:12:56.812Z</time>
      </trkpt>
      <trkpt lat="45.26333" lon="4.18574">
        <ele>666.29166666667</ele>
        <time>2015-10-03T11:12:59.809Z</time>
      </trkpt>
      <trkpt lat="45.26335" lon="4.18575">
        <ele>666.25</ele>
        <time>2015-10-03T11:13:00.794Z</time>
      </trkpt>
      <trkpt lat="45.26337" lon="4.18576">
        <ele>666.16666666667</ele>
        <time>2015-10-03T11:13:01.806Z</time>
      </trkpt>
      <trkpt lat="45.2634" lon="4.18573">
        <ele>666.04166666667</ele>
        <time>2015-10-03T11:13:02.812Z</time>
      </trkpt>
      <trkpt lat="45.26341" lon="4.18574">
        <ele>665.95833333333</ele>
        <time>2015-10-03T11:13:03.810Z</time>
      </trkpt>
      <trkpt lat="45.26342" lon="4.18574">
        <ele>665.95833333333</ele>
        <time>2015-10-03T11:13:04.815Z</time>
      </trkpt>
      <trkpt lat="45.26346" lon="4.18574">
        <ele>665.75</ele>
        <time>2015-10-03T11:13:06.812Z</time>
      </trkpt>
      <trkpt lat="45.26348" lon="4.18576">
        <ele>665.64</ele>
        <time>2015-10-03T11:13:07.825Z</time>
      </trkpt>
      <trkpt lat="45.26352" lon="4.18576">
        <ele>665.44</ele>
        <time>2015-10-03T11:13:08.828Z</time>
      </trkpt>
      <trkpt lat="45.26355" lon="4.18578">
        <ele>665.28</ele>
        <time>2015-10-03T11:13:09.822Z</time>
      </trkpt>
      <trkpt lat="45.2636" lon="4.18581">
        <ele>665.12</ele>
        <time>2015-10-03T11:13:10.821Z</time>
      </trkpt>
      <trkpt lat="45.26366" lon="4.18581">
        <ele>664.70833333333</ele>
        <time>2015-10-03T11:13:11.844Z</time>
      </trkpt>
      <trkpt lat="45.26372" lon="4.1858">
        <ele>664.45833333333</ele>
        <time>2015-10-03T11:13:12.851Z</time>
      </trkpt>
      <trkpt lat="45.26378" lon="4.18581">
        <ele>664.24</ele>
        <time>2015-10-03T11:13:13.828Z</time>
      </trkpt>
      <trkpt lat="45.26382" lon="4.18581">
        <ele>664.08</ele>
        <time>2015-10-03T11:13:14.809Z</time>
      </trkpt>
      <trkpt lat="45.26385" lon="4.18582">
        <ele>663.76</ele>
        <time>2015-10-03T11:13:15.807Z</time>
      </trkpt>
      <trkpt lat="45.26387" lon="4.18582">
        <ele>663.48</ele>
        <time>2015-10-03T11:13:16.807Z</time>
      </trkpt>
      <trkpt lat="45.26392" lon="4.18583">
        <ele>662.96</ele>
        <time>2015-10-03T11:13:18.813Z</time>
      </trkpt>
      <trkpt lat="45.26396" lon="4.18585">
        <ele>662.16666666667</ele>
        <time>2015-10-03T11:13:20.824Z</time>
      </trkpt>
      <trkpt lat="45.26398" lon="4.18585">
        <ele>661.79166666667</ele>
        <time>2015-10-03T11:13:21.818Z</time>
      </trkpt>
      <trkpt lat="45.26401" lon="4.18585">
        <ele>661.16</ele>
        <time>2015-10-03T11:13:23.861Z</time>
      </trkpt>
      <trkpt lat="45.26403" lon="4.18586">
        <ele>660.4</ele>
        <time>2015-10-03T11:13:25.827Z</time>
      </trkpt>
      <trkpt lat="45.26405" lon="4.18587">
        <ele>660</ele>
        <time>2015-10-03T11:13:26.846Z</time>
      </trkpt>
      <trkpt lat="45.26407" lon="4.18589">
        <ele>659.64</ele>
        <time>2015-10-03T11:13:27.840Z</time>
      </trkpt>
      <trkpt lat="45.26409" lon="4.1859">
        <ele>659.28</ele>
        <time>2015-10-03T11:13:28.819Z</time>
      </trkpt>
      <trkpt lat="45.2641" lon="4.1859">
        <ele>659.15384615385</ele>
        <time>2015-10-03T11:13:29.815Z</time>
      </trkpt>
      <trkpt lat="45.26411" lon="4.18591">
        <ele>658.56</ele>
        <time>2015-10-03T11:13:30.831Z</time>
      </trkpt>
      <trkpt lat="45.26412" lon="4.18592">
        <ele>658.28</ele>
        <time>2015-10-03T11:13:31.821Z</time>
      </trkpt>
      <trkpt lat="45.26414" lon="4.18592">
        <ele>658.04</ele>
        <time>2015-10-03T11:13:32.828Z</time>
      </trkpt>
      <trkpt lat="45.26418" lon="4.18594">
        <ele>657.58333333333</ele>
        <time>2015-10-03T11:13:34.834Z</time>
      </trkpt>
      <trkpt lat="45.2642" lon="4.18595">
        <ele>657.6</ele>
        <time>2015-10-03T11:13:35.819Z</time>
      </trkpt>
      <trkpt lat="45.26422" lon="4.18595">
        <ele>657.4</ele>
        <time>2015-10-03T11:13:36.816Z</time>
      </trkpt>
      <trkpt lat="45.26426" lon="4.18597">
        <ele>656.96</ele>
        <time>2015-10-03T11:13:38.821Z</time>
      </trkpt>
      <trkpt lat="45.2643" lon="4.18598">
        <ele>656.66666666667</ele>
        <time>2015-10-03T11:13:40.808Z</time>
      </trkpt>
      <trkpt lat="45.26432" lon="4.18599">
        <ele>656.66666666667</ele>
        <time>2015-10-03T11:13:41.811Z</time>
      </trkpt>
      <trkpt lat="45.26438" lon="4.18597">
        <ele>656.33333333333</ele>
        <time>2015-10-03T11:13:44.832Z</time>
      </trkpt>
      <trkpt lat="45.26439" lon="4.18596">
        <ele>656.44</ele>
        <time>2015-10-03T11:13:45.818Z</time>
      </trkpt>
      <trkpt lat="45.26441" lon="4.18596">
        <ele>656.5</ele>
        <time>2015-10-03T11:13:46.819Z</time>
      </trkpt>
      <trkpt lat="45.26442" lon="4.18596">
        <ele>656.625</ele>
        <time>2015-10-03T11:13:47.832Z</time>
      </trkpt>
      <trkpt lat="45.26443" lon="4.18597">
        <ele>656.72</ele>
        <time>2015-10-03T11:13:48.830Z</time>
      </trkpt>
      <trkpt lat="45.26445" lon="4.18597">
        <ele>656.84</ele>
        <time>2015-10-03T11:13:49.816Z</time>
      </trkpt>
      <trkpt lat="45.26447" lon="4.18596">
        <ele>656.92</ele>
        <time>2015-10-03T11:13:50.817Z</time>
      </trkpt>
      <trkpt lat="45.2645" lon="4.18595">
        <ele>657.2</ele>
        <time>2015-10-03T11:13:52.811Z</time>
      </trkpt>
      <trkpt lat="45.26452" lon="4.18594">
        <ele>657.4</ele>
        <time>2015-10-03T11:13:53.812Z</time>
      </trkpt>
      <trkpt lat="45.26453" lon="4.18593">
        <ele>657.625</ele>
        <time>2015-10-03T11:13:54.824Z</time>
      </trkpt>
      <trkpt lat="45.26457" lon="4.18591">
        <ele>657.68</ele>
        <time>2015-10-03T11:13:56.812Z</time>
      </trkpt>
      <trkpt lat="45.26462" lon="4.1859">
        <ele>657.88461538462</ele>
        <time>2015-10-03T11:13:59.823Z</time>
      </trkpt>
      <trkpt lat="45.26466" lon="4.18589">
        <ele>658.12</ele>
        <time>2015-10-03T11:14:01.828Z</time>
      </trkpt>
      <trkpt lat="45.26469" lon="4.18587">
        <ele>658.34615384615</ele>
        <time>2015-10-03T11:14:03.814Z</time>
      </trkpt>
      <trkpt lat="45.26471" lon="4.18586">
        <ele>658.53846153846</ele>
        <time>2015-10-03T11:14:04.811Z</time>
      </trkpt>
      <trkpt lat="45.26474" lon="4.18585">
        <ele>658.88</ele>
        <time>2015-10-03T11:14:06.828Z</time>
      </trkpt>
      <trkpt lat="45.26479" lon="4.18583">
        <ele>659.19230769231</ele>
        <time>2015-10-03T11:14:09.815Z</time>
      </trkpt>
      <trkpt lat="45.26482" lon="4.18583">
        <ele>659.61538461538</ele>
        <time>2015-10-03T11:14:11.811Z</time>
      </trkpt>
      <trkpt lat="45.26484" lon="4.18584">
        <ele>659.80769230769</ele>
        <time>2015-10-03T11:14:13.815Z</time>
      </trkpt>
      <trkpt lat="45.26486" lon="4.18585">
        <ele>659.96153846154</ele>
        <time>2015-10-03T11:14:15.815Z</time>
      </trkpt>
      <trkpt lat="45.26489" lon="4.18585">
        <ele>660.23076923077</ele>
        <time>2015-10-03T11:14:17.811Z</time>
      </trkpt>
      <trkpt lat="45.2649" lon="4.18585">
        <ele>660.28</ele>
        <time>2015-10-03T11:14:18.816Z</time>
      </trkpt>
      <trkpt lat="45.26492" lon="4.18584">
        <ele>660.42307692308</ele>
        <time>2015-10-03T11:14:19.819Z</time>
      </trkpt>
      <trkpt lat="45.26493" lon="4.18583">
        <ele>660.46153846154</ele>
        <time>2015-10-03T11:14:20.814Z</time>
      </trkpt>
      <trkpt lat="45.26494" lon="4.18583">
        <ele>660.68</ele>
        <time>2015-10-03T11:14:21.815Z</time>
      </trkpt>
      <trkpt lat="45.26499" lon="4.18582">
        <ele>661.11538461538</ele>
        <time>2015-10-03T11:14:24.823Z</time>
      </trkpt>
      <trkpt lat="45.265" lon="4.18582">
        <ele>661.30769230769</ele>
        <time>2015-10-03T11:14:25.809Z</time>
      </trkpt>
      <trkpt lat="45.26501" lon="4.18582">
        <ele>661.5</ele>
        <time>2015-10-03T11:14:26.816Z</time>
      </trkpt>
      <trkpt lat="45.26505" lon="4.18581">
        <ele>662.24</ele>
        <time>2015-10-03T11:14:29.823Z</time>
      </trkpt>
      <trkpt lat="45.26507" lon="4.1858">
        <ele>662.28</ele>
        <time>2015-10-03T11:14:30.819Z</time>
      </trkpt>
      <trkpt lat="45.26508" lon="4.18579">
        <ele>662.34615384615</ele>
        <time>2015-10-03T11:14:31.822Z</time>
      </trkpt>
      <trkpt lat="45.2651" lon="4.18578">
        <ele>662.65384615385</ele>
        <time>2015-10-03T11:14:32.824Z</time>
      </trkpt>
      <trkpt lat="45.26511" lon="4.18577">
        <ele>663.08</ele>
        <time>2015-10-03T11:14:33.817Z</time>
      </trkpt>
      <trkpt lat="45.26514" lon="4.18576">
        <ele>663.48</ele>
        <time>2015-10-03T11:14:35.829Z</time>
      </trkpt>
      <trkpt lat="45.26517" lon="4.18574">
        <ele>663.76</ele>
        <time>2015-10-03T11:14:37.819Z</time>
      </trkpt>
      <trkpt lat="45.2652" lon="4.18573">
        <ele>664.16</ele>
        <time>2015-10-03T11:14:39.853Z</time>
      </trkpt>
      <trkpt lat="45.26522" lon="4.18573">
        <ele>664.48</ele>
        <time>2015-10-03T11:14:40.864Z</time>
      </trkpt>
      <trkpt lat="45.26522" lon="4.18572">
        <ele>664.8</ele>
        <time>2015-10-03T11:14:41.852Z</time>
      </trkpt>
      <trkpt lat="45.26522" lon="4.18572">
        <ele>665</ele>
        <time>2015-10-03T11:14:42.843Z</time>
      </trkpt>
      <trkpt lat="45.26522" lon="4.18572">
        <ele>665.36</ele>
        <time>2015-10-03T11:14:44.851Z</time>
      </trkpt>
      <trkpt lat="45.26524" lon="4.18571">
        <ele>665.6</ele>
        <time>2015-10-03T11:14:45.861Z</time>
      </trkpt>
      <trkpt lat="45.26526" lon="4.1857">
        <ele>665.96</ele>
        <time>2015-10-03T11:14:46.862Z</time>
      </trkpt>
      <trkpt lat="45.26527" lon="4.1857">
        <ele>666.2</ele>
        <time>2015-10-03T11:14:47.858Z</time>
      </trkpt>
      <trkpt lat="45.2653" lon="4.18568">
        <ele>666.72</ele>
        <time>2015-10-03T11:14:49.866Z</time>
      </trkpt>
      <trkpt lat="45.26533" lon="4.18567">
        <ele>667.2</ele>
        <time>2015-10-03T11:14:51.856Z</time>
      </trkpt>
      <trkpt lat="45.26534" lon="4.18567">
        <ele>667.36</ele>
        <time>2015-10-03T11:14:52.839Z</time>
      </trkpt>
      <trkpt lat="45.26535" lon="4.18566">
        <ele>667.48</ele>
        <time>2015-10-03T11:14:53.849Z</time>
      </trkpt>
      <trkpt lat="45.26536" lon="4.18565">
        <ele>667.64</ele>
        <time>2015-10-03T11:14:54.856Z</time>
      </trkpt>
      <trkpt lat="45.26537" lon="4.18565">
        <ele>667.96</ele>
        <time>2015-10-03T11:14:55.867Z</time>
      </trkpt>
      <trkpt lat="45.26539" lon="4.18565">
        <ele>668.28</ele>
        <time>2015-10-03T11:14:56.865Z</time>
      </trkpt>
      <trkpt lat="45.2654" lon="4.18564">
        <ele>668.48</ele>
        <time>2015-10-03T11:14:57.850Z</time>
      </trkpt>
      <trkpt lat="45.26541" lon="4.18564">
        <ele>668.64</ele>
        <time>2015-10-03T11:14:58.840Z</time>
      </trkpt>
      <trkpt lat="45.26541" lon="4.18564">
        <ele>668.88</ele>
        <time>2015-10-03T11:14:59.848Z</time>
      </trkpt>
      <trkpt lat="45.26543" lon="4.18564">
        <ele>669.44</ele>
        <time>2015-10-03T11:15:02.860Z</time>
      </trkpt>
      <trkpt lat="45.26545" lon="4.18564">
        <ele>669.6</ele>
        <time>2015-10-03T11:15:03.857Z</time>
      </trkpt>
      <trkpt lat="45.26547" lon="4.18564">
        <ele>669.76</ele>
        <time>2015-10-03T11:15:04.859Z</time>
      </trkpt>
      <trkpt lat="45.26548" lon="4.18564">
        <ele>669.88461538462</ele>
        <time>2015-10-03T11:15:05.849Z</time>
      </trkpt>
      <trkpt lat="45.26549" lon="4.18564">
        <ele>670.12</ele>
        <time>2015-10-03T11:15:06.859Z</time>
      </trkpt>
      <trkpt lat="45.26551" lon="4.18564">
        <ele>670.24</ele>
        <time>2015-10-03T11:15:07.856Z</time>
      </trkpt>
      <trkpt lat="45.26551" lon="4.18564">
        <ele>670.4</ele>
        <time>2015-10-03T11:15:08.850Z</time>
      </trkpt>
      <trkpt lat="45.26552" lon="4.18564">
        <ele>670.46153846154</ele>
        <time>2015-10-03T11:15:09.843Z</time>
      </trkpt>
      <trkpt lat="45.26554" lon="4.18565">
        <ele>670.69230769231</ele>
        <time>2015-10-03T11:15:10.838Z</time>
      </trkpt>
      <trkpt lat="45.26555" lon="4.18566">
        <ele>670.92307692308</ele>
        <time>2015-10-03T11:15:11.825Z</time>
      </trkpt>
      <trkpt lat="45.26557" lon="4.18567">
        <ele>671.07692307692</ele>
        <time>2015-10-03T11:15:12.819Z</time>
      </trkpt>
      <trkpt lat="45.26559" lon="4.18567">
        <ele>671.26923076923</ele>
        <time>2015-10-03T11:15:13.826Z</time>
      </trkpt>
      <trkpt lat="45.2656" lon="4.18567">
        <ele>671.38461538462</ele>
        <time>2015-10-03T11:15:14.820Z</time>
      </trkpt>
      <trkpt lat="45.26562" lon="4.18567">
        <ele>671.53846153846</ele>
        <time>2015-10-03T11:15:15.802Z</time>
      </trkpt>
      <trkpt lat="45.26564" lon="4.18568">
        <ele>671.69230769231</ele>
        <time>2015-10-03T11:15:16.821Z</time>
      </trkpt>
      <trkpt lat="45.26566" lon="4.18568">
        <ele>671.96</ele>
        <time>2015-10-03T11:15:17.866Z</time>
      </trkpt>
      <trkpt lat="45.26568" lon="4.18568">
        <ele>672.08</ele>
        <time>2015-10-03T11:15:18.897Z</time>
      </trkpt>
      <trkpt lat="45.26569" lon="4.18569">
        <ele>672.28</ele>
        <time>2015-10-03T11:15:19.914Z</time>
      </trkpt>
      <trkpt lat="45.26571" lon="4.18569">
        <ele>672.44</ele>
        <time>2015-10-03T11:15:20.883Z</time>
      </trkpt>
      <trkpt lat="45.26573" lon="4.1857">
        <ele>672.6</ele>
        <time>2015-10-03T11:15:21.884Z</time>
      </trkpt>
      <trkpt lat="45.26575" lon="4.18571">
        <ele>672.72</ele>
        <time>2015-10-03T11:15:22.851Z</time>
      </trkpt>
      <trkpt lat="45.26576" lon="4.18571">
        <ele>672.88461538462</ele>
        <time>2015-10-03T11:15:23.830Z</time>
      </trkpt>
      <trkpt lat="45.26578" lon="4.18572">
        <ele>673.16</ele>
        <time>2015-10-03T11:15:24.878Z</time>
      </trkpt>
      <trkpt lat="45.2658" lon="4.18572">
        <ele>673.4</ele>
        <time>2015-10-03T11:15:25.897Z</time>
      </trkpt>
      <trkpt lat="45.26581" lon="4.18571">
        <ele>673.68</ele>
        <time>2015-10-03T11:15:26.891Z</time>
      </trkpt>
      <trkpt lat="45.26583" lon="4.18571">
        <ele>673.88</ele>
        <time>2015-10-03T11:15:27.885Z</time>
      </trkpt>
      <trkpt lat="45.26585" lon="4.18571">
        <ele>674.12</ele>
        <time>2015-10-03T11:15:28.858Z</time>
      </trkpt>
      <trkpt lat="45.26586" lon="4.18571">
        <ele>674.11538461538</ele>
        <time>2015-10-03T11:15:29.834Z</time>
      </trkpt>
      <trkpt lat="45.2659" lon="4.18571">
        <ele>674.38461538462</ele>
        <time>2015-10-03T11:15:31.844Z</time>
      </trkpt>
      <trkpt lat="45.26594" lon="4.18571">
        <ele>674.95833333333</ele>
        <time>2015-10-03T11:15:34.854Z</time>
      </trkpt>
      <trkpt lat="45.26595" lon="4.18571">
        <ele>675.16666666667</ele>
        <time>2015-10-03T11:15:35.855Z</time>
      </trkpt>
      <trkpt lat="45.266" lon="4.1857">
        <ele>675.58333333333</ele>
        <time>2015-10-03T11:15:38.868Z</time>
      </trkpt>
      <trkpt lat="45.26602" lon="4.1857">
        <ele>675.75</ele>
        <time>2015-10-03T11:15:39.872Z</time>
      </trkpt>
      <trkpt lat="45.26603" lon="4.18568">
        <ele>675.91666666667</ele>
        <time>2015-10-03T11:15:40.862Z</time>
      </trkpt>
      <trkpt lat="45.26605" lon="4.18565">
        <ele>676.04166666667</ele>
        <time>2015-10-03T11:15:41.856Z</time>
      </trkpt>
      <trkpt lat="45.26606" lon="4.18563">
        <ele>676.08</ele>
        <time>2015-10-03T11:15:42.852Z</time>
      </trkpt>
      <trkpt lat="45.26607" lon="4.18562">
        <ele>676.64</ele>
        <time>2015-10-03T11:15:46.811Z</time>
      </trkpt>
      <trkpt lat="45.26607" lon="4.18562">
        <ele>676.64</ele>
        <time>2015-10-03T11:15:47.802Z</time>
      </trkpt>
      <trkpt lat="45.26607" lon="4.18562">
        <ele>676.72</ele>
        <time>2015-10-03T11:15:50.816Z</time>
      </trkpt>
      <trkpt lat="45.26607" lon="4.18562">
        <ele>676.72</ele>
        <time>2015-10-03T11:15:53.804Z</time>
      </trkpt>
      <trkpt lat="45.26607" lon="4.18561">
        <ele>676.92</ele>
        <time>2015-10-03T11:15:55.820Z</time>
      </trkpt>
      <trkpt lat="45.26608" lon="4.1856">
        <ele>677</ele>
        <time>2015-10-03T11:15:58.821Z</time>
      </trkpt>
      <trkpt lat="45.26608" lon="4.1856">
        <ele>676.96153846154</ele>
        <time>2015-10-03T11:16:02.818Z</time>
      </trkpt>
      <trkpt lat="45.26608" lon="4.18559">
        <ele>676.96153846154</ele>
        <time>2015-10-03T11:16:06.808Z</time>
      </trkpt>
      <trkpt lat="45.26608" lon="4.18559">
        <ele>676.96153846154</ele>
        <time>2015-10-03T11:16:10.808Z</time>
      </trkpt>
      <trkpt lat="45.26608" lon="4.18559">
        <ele>676.92</ele>
        <time>2015-10-03T11:16:13.815Z</time>
      </trkpt>
      <trkpt lat="45.26608" lon="4.18559">
        <ele>676.92</ele>
        <time>2015-10-03T11:16:17.813Z</time>
      </trkpt>
      <trkpt lat="45.26609" lon="4.18559">
        <ele>676.88461538462</ele>
        <time>2015-10-03T11:16:21.808Z</time>
      </trkpt>
      <trkpt lat="45.26609" lon="4.18559">
        <ele>676.76923076923</ele>
        <time>2015-10-03T11:16:24.811Z</time>
      </trkpt>
      <trkpt lat="45.26609" lon="4.18558">
        <ele>676.69230769231</ele>
        <time>2015-10-03T11:16:25.815Z</time>
      </trkpt>
      <trkpt lat="45.2661" lon="4.18556">
        <ele>676.6</ele>
        <time>2015-10-03T11:16:26.825Z</time>
      </trkpt>
      <trkpt lat="45.26611" lon="4.18555">
        <ele>676.56</ele>
        <time>2015-10-03T11:16:27.823Z</time>
      </trkpt>
      <trkpt lat="45.26612" lon="4.18552">
        <ele>676.57692307692</ele>
        <time>2015-10-03T11:16:28.811Z</time>
      </trkpt>
      <trkpt lat="45.26617" lon="4.18547">
        <ele>676.44</ele>
        <time>2015-10-03T11:16:30.814Z</time>
      </trkpt>
      <trkpt lat="45.26619" lon="4.18545">
        <ele>676.4</ele>
        <time>2015-10-03T11:16:31.813Z</time>
      </trkpt>
      <trkpt lat="45.26621" lon="4.18542">
        <ele>676.42307692308</ele>
        <time>2015-10-03T11:16:32.807Z</time>
      </trkpt>
      <trkpt lat="45.26623" lon="4.18539">
        <ele>676.36</ele>
        <time>2015-10-03T11:16:33.818Z</time>
      </trkpt>
      <trkpt lat="45.26625" lon="4.18537">
        <ele>676.4</ele>
        <time>2015-10-03T11:16:34.844Z</time>
      </trkpt>
      <trkpt lat="45.26627" lon="4.18536">
        <ele>676.32</ele>
        <time>2015-10-03T11:16:35.845Z</time>
      </trkpt>
      <trkpt lat="45.26629" lon="4.18535">
        <ele>676.34615384615</ele>
        <time>2015-10-03T11:16:36.815Z</time>
      </trkpt>
      <trkpt lat="45.26631" lon="4.18534">
        <ele>676.34615384615</ele>
        <time>2015-10-03T11:16:37.818Z</time>
      </trkpt>
      <trkpt lat="45.26633" lon="4.18533">
        <ele>676.28</ele>
        <time>2015-10-03T11:16:38.843Z</time>
      </trkpt>
      <trkpt lat="45.26634" lon="4.18532">
        <ele>676.36</ele>
        <time>2015-10-03T11:16:39.902Z</time>
      </trkpt>
      <trkpt lat="45.2664" lon="4.1853">
        <ele>676.44</ele>
        <time>2015-10-03T11:16:42.905Z</time>
      </trkpt>
      <trkpt lat="45.26643" lon="4.18529">
        <ele>676.52</ele>
        <time>2015-10-03T11:16:44.896Z</time>
      </trkpt>
      <trkpt lat="45.26644" lon="4.1853">
        <ele>676.52</ele>
        <time>2015-10-03T11:16:45.853Z</time>
      </trkpt>
      <trkpt lat="45.26644" lon="4.1853">
        <ele>676.56</ele>
        <time>2015-10-03T11:16:46.815Z</time>
      </trkpt>
      <trkpt lat="45.26642" lon="4.18534">
        <ele>676.73076923077</ele>
        <time>2015-10-03T11:16:50.810Z</time>
      </trkpt>
      <trkpt lat="45.26642" lon="4.18535">
        <ele>677</ele>
        <time>2015-10-03T11:16:54.801Z</time>
      </trkpt>
      <trkpt lat="45.26643" lon="4.18534">
        <ele>677.2</ele>
        <time>2015-10-03T11:16:57.827Z</time>
      </trkpt>
      <trkpt lat="45.26645" lon="4.18532">
        <ele>677.23076923077</ele>
        <time>2015-10-03T11:16:58.810Z</time>
      </trkpt>
      <trkpt lat="45.26646" lon="4.1853">
        <ele>677.30769230769</ele>
        <time>2015-10-03T11:16:59.813Z</time>
      </trkpt>
      <trkpt lat="45.26647" lon="4.18529">
        <ele>677.38461538462</ele>
        <time>2015-10-03T11:17:00.812Z</time>
      </trkpt>
      <trkpt lat="45.26648" lon="4.1853">
        <ele>677.52</ele>
        <time>2015-10-03T11:17:01.832Z</time>
      </trkpt>
      <trkpt lat="45.26649" lon="4.18529">
        <ele>677.56</ele>
        <time>2015-10-03T11:17:02.832Z</time>
      </trkpt>
      <trkpt lat="45.26651" lon="4.18527">
        <ele>677.57692307692</ele>
        <time>2015-10-03T11:17:03.814Z</time>
      </trkpt>
      <trkpt lat="45.26651" lon="4.18527">
        <ele>677.69230769231</ele>
        <time>2015-10-03T11:17:04.814Z</time>
      </trkpt>
      <trkpt lat="45.26651" lon="4.18526">
        <ele>677.69230769231</ele>
        <time>2015-10-03T11:17:05.817Z</time>
      </trkpt>
      <trkpt lat="45.26652" lon="4.18526">
        <ele>677.73076923077</ele>
        <time>2015-10-03T11:17:07.806Z</time>
      </trkpt>
      <trkpt lat="45.26652" lon="4.18525">
        <ele>677.73076923077</ele>
        <time>2015-10-03T11:17:08.804Z</time>
      </trkpt>
      <trkpt lat="45.26652" lon="4.18524">
        <ele>677.76923076923</ele>
        <time>2015-10-03T11:17:09.808Z</time>
      </trkpt>
      <trkpt lat="45.26652" lon="4.18524">
        <ele>677.76923076923</ele>
        <time>2015-10-03T11:17:10.815Z</time>
      </trkpt>
      <trkpt lat="45.26653" lon="4.18521">
        <ele>677.69230769231</ele>
        <time>2015-10-03T11:17:14.810Z</time>
      </trkpt>
      <trkpt lat="45.26653" lon="4.1852">
        <ele>677.76923076923</ele>
        <time>2015-10-03T11:17:18.801Z</time>
      </trkpt>
      <trkpt lat="45.26653" lon="4.1852">
        <ele>677.8</ele>
        <time>2015-10-03T11:17:21.823Z</time>
      </trkpt>
      <trkpt lat="45.26653" lon="4.1852">
        <ele>677.73076923077</ele>
        <time>2015-10-03T11:17:25.804Z</time>
      </trkpt>
      <trkpt lat="45.26653" lon="4.1852">
        <ele>677.76923076923</ele>
        <time>2015-10-03T11:17:28.813Z</time>
      </trkpt>
      <trkpt lat="45.26652" lon="4.1852">
        <ele>677.76</ele>
        <time>2015-10-03T11:17:32.820Z</time>
      </trkpt>
      <trkpt lat="45.26653" lon="4.18518">
        <ele>677.6</ele>
        <time>2015-10-03T11:17:36.804Z</time>
      </trkpt>
      <trkpt lat="45.26653" lon="4.18518">
        <ele>677.68</ele>
        <time>2015-10-03T11:17:37.802Z</time>
      </trkpt>
      <trkpt lat="45.26653" lon="4.18518">
        <ele>677.84</ele>
        <time>2015-10-03T11:17:40.809Z</time>
      </trkpt>
      <trkpt lat="45.26653" lon="4.18518">
        <ele>677.83333333333</ele>
        <time>2015-10-03T11:17:43.813Z</time>
      </trkpt>
      <trkpt lat="45.26652" lon="4.18518">
        <ele>677.92</ele>
        <time>2015-10-03T11:17:46.819Z</time>
      </trkpt>
      <trkpt lat="45.26652" lon="4.18518">
        <ele>678</ele>
        <time>2015-10-03T11:17:50.813Z</time>
      </trkpt>
      <trkpt lat="45.26652" lon="4.18518">
        <ele>677.95833333333</ele>
        <time>2015-10-03T11:17:54.817Z</time>
      </trkpt>
      <trkpt lat="45.26652" lon="4.18518">
        <ele>678</ele>
        <time>2015-10-03T11:17:58.809Z</time>
      </trkpt>
      <trkpt lat="45.26652" lon="4.18518">
        <ele>678</ele>
        <time>2015-10-03T11:18:01.810Z</time>
      </trkpt>
      <trkpt lat="45.26652" lon="4.18518">
        <ele>677.96</ele>
        <time>2015-10-03T11:18:02.811Z</time>
      </trkpt>
      <trkpt lat="45.26652" lon="4.18518">
        <ele>678</ele>
        <time>2015-10-03T11:18:05.814Z</time>
      </trkpt>
      <trkpt lat="45.26652" lon="4.18518">
        <ele>678.08</ele>
        <time>2015-10-03T11:18:08.831Z</time>
      </trkpt>
      <trkpt lat="45.26653" lon="4.18518">
        <ele>678.16</ele>
        <time>2015-10-03T11:18:12.819Z</time>
      </trkpt>
      <trkpt lat="45.26653" lon="4.18517">
        <ele>678.12</ele>
        <time>2015-10-03T11:18:13.825Z</time>
      </trkpt>
      <trkpt lat="45.26654" lon="4.18516">
        <ele>678.16</ele>
        <time>2015-10-03T11:18:14.825Z</time>
      </trkpt>
      <trkpt lat="45.26655" lon="4.18515">
        <ele>678.2</ele>
        <time>2015-10-03T11:18:15.831Z</time>
      </trkpt>
      <trkpt lat="45.26657" lon="4.18514">
        <ele>678.28</ele>
        <time>2015-10-03T11:18:16.831Z</time>
      </trkpt>
      <trkpt lat="45.26659" lon="4.18513">
        <ele>678.32</ele>
        <time>2015-10-03T11:18:17.825Z</time>
      </trkpt>
      <trkpt lat="45.26661" lon="4.18513">
        <ele>678.32</ele>
        <time>2015-10-03T11:18:18.824Z</time>
      </trkpt>
      <trkpt lat="45.26664" lon="4.18514">
        <ele>678.4</ele>
        <time>2015-10-03T11:18:19.832Z</time>
      </trkpt>
      <trkpt lat="45.26666" lon="4.18515">
        <ele>678.48</ele>
        <time>2015-10-03T11:18:20.829Z</time>
      </trkpt>
      <trkpt lat="45.26668" lon="4.18517">
        <ele>678.4</ele>
        <time>2015-10-03T11:18:21.836Z</time>
      </trkpt>
      <trkpt lat="45.2667" lon="4.18518">
        <ele>678.44</ele>
        <time>2015-10-03T11:18:22.848Z</time>
      </trkpt>
      <trkpt lat="45.26672" lon="4.18518">
        <ele>678.48</ele>
        <time>2015-10-03T11:18:23.903Z</time>
      </trkpt>
      <trkpt lat="45.26674" lon="4.18518">
        <ele>678.6</ele>
        <time>2015-10-03T11:18:24.909Z</time>
      </trkpt>
      <trkpt lat="45.26676" lon="4.18518">
        <ele>678.6</ele>
        <time>2015-10-03T11:18:25.909Z</time>
      </trkpt>
      <trkpt lat="45.26678" lon="4.18518">
        <ele>678.76</ele>
        <time>2015-10-03T11:18:26.917Z</time>
      </trkpt>
      <trkpt lat="45.2668" lon="4.18519">
        <ele>678.88</ele>
        <time>2015-10-03T11:18:27.904Z</time>
      </trkpt>
      <trkpt lat="45.26682" lon="4.1852">
        <ele>678.88</ele>
        <time>2015-10-03T11:18:28.926Z</time>
      </trkpt>
      <trkpt lat="45.26684" lon="4.1852">
        <ele>679</ele>
        <time>2015-10-03T11:18:29.936Z</time>
      </trkpt>
      <trkpt lat="45.26686" lon="4.18518">
        <ele>679</ele>
        <time>2015-10-03T11:18:30.908Z</time>
      </trkpt>
      <trkpt lat="45.26688" lon="4.18517">
        <ele>679.12</ele>
        <time>2015-10-03T11:18:31.912Z</time>
      </trkpt>
      <trkpt lat="45.2669" lon="4.18515">
        <ele>679.12</ele>
        <time>2015-10-03T11:18:32.904Z</time>
      </trkpt>
      <trkpt lat="45.26693" lon="4.18514">
        <ele>679.28</ele>
        <time>2015-10-03T11:18:33.905Z</time>
      </trkpt>
      <trkpt lat="45.26695" lon="4.18513">
        <ele>679.4</ele>
        <time>2015-10-03T11:18:34.923Z</time>
      </trkpt>
      <trkpt lat="45.26698" lon="4.18512">
        <ele>679.4</ele>
        <time>2015-10-03T11:18:35.918Z</time>
      </trkpt>
      <trkpt lat="45.267" lon="4.18512">
        <ele>679.44</ele>
        <time>2015-10-03T11:18:36.937Z</time>
      </trkpt>
      <trkpt lat="45.26703" lon="4.1851">
        <ele>679.56</ele>
        <time>2015-10-03T11:18:37.923Z</time>
      </trkpt>
      <trkpt lat="45.26705" lon="4.18509">
        <ele>679.76</ele>
        <time>2015-10-03T11:18:38.920Z</time>
      </trkpt>
      <trkpt lat="45.26708" lon="4.18507">
        <ele>679.8</ele>
        <time>2015-10-03T11:18:39.903Z</time>
      </trkpt>
      <trkpt lat="45.26712" lon="4.18502">
        <ele>680</ele>
        <time>2015-10-03T11:18:41.929Z</time>
      </trkpt>
      <trkpt lat="45.26718" lon="4.18495">
        <ele>680.2</ele>
        <time>2015-10-03T11:18:44.904Z</time>
      </trkpt>
      <trkpt lat="45.26721" lon="4.18494">
        <ele>680.2</ele>
        <time>2015-10-03T11:18:45.919Z</time>
      </trkpt>
      <trkpt lat="45.26723" lon="4.18493">
        <ele>680.36</ele>
        <time>2015-10-03T11:18:46.925Z</time>
      </trkpt>
      <trkpt lat="45.26726" lon="4.18492">
        <ele>680.4</ele>
        <time>2015-10-03T11:18:47.918Z</time>
      </trkpt>
      <trkpt lat="45.26727" lon="4.18491">
        <ele>680.46153846154</ele>
        <time>2015-10-03T11:18:48.867Z</time>
      </trkpt>
      <trkpt lat="45.26728" lon="4.18491">
        <ele>680.65384615385</ele>
        <time>2015-10-03T11:18:49.816Z</time>
      </trkpt>
      <trkpt lat="45.2673" lon="4.1849">
        <ele>680.80769230769</ele>
        <time>2015-10-03T11:18:50.852Z</time>
      </trkpt>
      <trkpt lat="45.26732" lon="4.18488">
        <ele>681</ele>
        <time>2015-10-03T11:18:51.861Z</time>
      </trkpt>
      <trkpt lat="45.26734" lon="4.18487">
        <ele>681.11538461538</ele>
        <time>2015-10-03T11:18:52.830Z</time>
      </trkpt>
      <trkpt lat="45.26743" lon="4.18481">
        <ele>681.42307692308</ele>
        <time>2015-10-03T11:18:55.896Z</time>
      </trkpt>
      <trkpt lat="45.26745" lon="4.1848">
        <ele>681.6</ele>
        <time>2015-10-03T11:18:56.947Z</time>
      </trkpt>
      <trkpt lat="45.2675" lon="4.18479">
        <ele>682.04</ele>
        <time>2015-10-03T11:18:58.954Z</time>
      </trkpt>
      <trkpt lat="45.26755" lon="4.18478">
        <ele>682.6</ele>
        <time>2015-10-03T11:19:00.945Z</time>
      </trkpt>
      <trkpt lat="45.26758" lon="4.18478">
        <ele>683.07692307692</ele>
        <time>2015-10-03T11:19:02.910Z</time>
      </trkpt>
      <trkpt lat="45.26762" lon="4.18477">
        <ele>683.38461538462</ele>
        <time>2015-10-03T11:19:04.874Z</time>
      </trkpt>
      <trkpt lat="45.26763" lon="4.18477">
        <ele>683.53846153846</ele>
        <time>2015-10-03T11:19:05.872Z</time>
      </trkpt>
      <trkpt lat="45.26767" lon="4.18477">
        <ele>683.84615384615</ele>
        <time>2015-10-03T11:19:07.944Z</time>
      </trkpt>
      <trkpt lat="45.26769" lon="4.18477">
        <ele>684.2</ele>
        <time>2015-10-03T11:19:08.944Z</time>
      </trkpt>
      <trkpt lat="45.26771" lon="4.18477">
        <ele>684.56</ele>
        <time>2015-10-03T11:19:09.921Z</time>
      </trkpt>
      <trkpt lat="45.26775" lon="4.18478">
        <ele>685</ele>
        <time>2015-10-03T11:19:11.899Z</time>
      </trkpt>
      <trkpt lat="45.26777" lon="4.18478">
        <ele>685.30769230769</ele>
        <time>2015-10-03T11:19:12.861Z</time>
      </trkpt>
      <trkpt lat="45.26779" lon="4.18479">
        <ele>685.65384615385</ele>
        <time>2015-10-03T11:19:13.822Z</time>
      </trkpt>
      <trkpt lat="45.26781" lon="4.18479">
        <ele>686</ele>
        <time>2015-10-03T11:19:14.830Z</time>
      </trkpt>
      <trkpt lat="45.26785" lon="4.18482">
        <ele>686.28</ele>
        <time>2015-10-03T11:19:16.871Z</time>
      </trkpt>
      <trkpt lat="45.26787" lon="4.18483">
        <ele>686.56</ele>
        <time>2015-10-03T11:19:17.890Z</time>
      </trkpt>
      <trkpt lat="45.26789" lon="4.18485">
        <ele>686.72</ele>
        <time>2015-10-03T11:19:18.916Z</time>
      </trkpt>
      <trkpt lat="45.2679" lon="4.18486">
        <ele>686.92</ele>
        <time>2015-10-03T11:19:19.941Z</time>
      </trkpt>
      <trkpt lat="45.26798" lon="4.18493">
        <ele>687.61538461538</ele>
        <time>2015-10-03T11:19:23.903Z</time>
      </trkpt>
      <trkpt lat="45.26802" lon="4.18496">
        <ele>687.76923076923</ele>
        <time>2015-10-03T11:19:25.918Z</time>
      </trkpt>
      <trkpt lat="45.26808" lon="4.18502">
        <ele>687.96</ele>
        <time>2015-10-03T11:19:28.907Z</time>
      </trkpt>
      <trkpt lat="45.26811" lon="4.18504">
        <ele>688.12</ele>
        <time>2015-10-03T11:19:29.906Z</time>
      </trkpt>
      <trkpt lat="45.26813" lon="4.18505">
        <ele>688.28</ele>
        <time>2015-10-03T11:19:30.924Z</time>
      </trkpt>
      <trkpt lat="45.26816" lon="4.18506">
        <ele>688.44</ele>
        <time>2015-10-03T11:19:31.933Z</time>
      </trkpt>
      <trkpt lat="45.26825" lon="4.18512">
        <ele>688.625</ele>
        <time>2015-10-03T11:19:34.952Z</time>
      </trkpt>
      <trkpt lat="45.26831" lon="4.18515">
        <ele>688.70833333333</ele>
        <time>2015-10-03T11:19:36.935Z</time>
      </trkpt>
      <trkpt lat="45.26834" lon="4.18517">
        <ele>688.75</ele>
        <time>2015-10-03T11:19:37.946Z</time>
      </trkpt>
      <trkpt lat="45.26837" lon="4.18518">
        <ele>688.79166666667</ele>
        <time>2015-10-03T11:19:38.906Z</time>
      </trkpt>
      <trkpt lat="45.2684" lon="4.18518">
        <ele>688.875</ele>
        <time>2015-10-03T11:19:39.890Z</time>
      </trkpt>
      <trkpt lat="45.26843" lon="4.18517">
        <ele>689</ele>
        <time>2015-10-03T11:19:40.890Z</time>
      </trkpt>
      <trkpt lat="45.2685" lon="4.18513">
        <ele>689.125</ele>
        <time>2015-10-03T11:19:42.933Z</time>
      </trkpt>
      <trkpt lat="45.26861" lon="4.18503">
        <ele>689.33333333333</ele>
        <time>2015-10-03T11:19:46.931Z</time>
      </trkpt>
      <trkpt lat="45.26866" lon="4.18499">
        <ele>689.66666666667</ele>
        <time>2015-10-03T11:19:48.922Z</time>
      </trkpt>
      <trkpt lat="45.26871" lon="4.18494">
        <ele>689.88</ele>
        <time>2015-10-03T11:19:50.910Z</time>
      </trkpt>
      <trkpt lat="45.26876" lon="4.18491">
        <ele>690</ele>
        <time>2015-10-03T11:19:52.894Z</time>
      </trkpt>
      <trkpt lat="45.26878" lon="4.18489">
        <ele>690.12</ele>
        <time>2015-10-03T11:19:53.882Z</time>
      </trkpt>
      <trkpt lat="45.26884" lon="4.18487">
        <ele>690.4</ele>
        <time>2015-10-03T11:19:55.910Z</time>
      </trkpt>
      <trkpt lat="45.26892" lon="4.18485">
        <ele>690.88</ele>
        <time>2015-10-03T11:19:58.903Z</time>
      </trkpt>
      <trkpt lat="45.26895" lon="4.18484">
        <ele>690.84615384615</ele>
        <time>2015-10-03T11:19:59.898Z</time>
      </trkpt>
      <trkpt lat="45.26898" lon="4.18483">
        <ele>691.03846153846</ele>
        <time>2015-10-03T11:20:00.895Z</time>
      </trkpt>
      <trkpt lat="45.26901" lon="4.18481">
        <ele>691.23076923077</ele>
        <time>2015-10-03T11:20:01.915Z</time>
      </trkpt>
      <trkpt lat="45.26903" lon="4.18478">
        <ele>691.30769230769</ele>
        <time>2015-10-03T11:20:02.914Z</time>
      </trkpt>
      <trkpt lat="45.26908" lon="4.18473">
        <ele>691.64</ele>
        <time>2015-10-03T11:20:04.915Z</time>
      </trkpt>
      <trkpt lat="45.2691" lon="4.1847">
        <ele>691.76</ele>
        <time>2015-10-03T11:20:05.912Z</time>
      </trkpt>
      <trkpt lat="45.26912" lon="4.18466">
        <ele>691.88</ele>
        <time>2015-10-03T11:20:06.931Z</time>
      </trkpt>
      <trkpt lat="45.26913" lon="4.18463">
        <ele>692.03846153846</ele>
        <time>2015-10-03T11:20:07.920Z</time>
      </trkpt>
      <trkpt lat="45.26919" lon="4.18452">
        <ele>692.53846153846</ele>
        <time>2015-10-03T11:20:10.858Z</time>
      </trkpt>
      <trkpt lat="45.26922" lon="4.18445">
        <ele>692.88461538462</ele>
        <time>2015-10-03T11:20:12.847Z</time>
      </trkpt>
      <trkpt lat="45.26928" lon="4.18434">
        <ele>693.38461538462</ele>
        <time>2015-10-03T11:20:15.850Z</time>
      </trkpt>
      <trkpt lat="45.26932" lon="4.18427">
        <ele>693.65384615385</ele>
        <time>2015-10-03T11:20:17.855Z</time>
      </trkpt>
      <trkpt lat="45.26934" lon="4.18424">
        <ele>693.96153846154</ele>
        <time>2015-10-03T11:20:18.868Z</time>
      </trkpt>
      <trkpt lat="45.2694" lon="4.18415">
        <ele>694.5</ele>
        <time>2015-10-03T11:20:21.852Z</time>
      </trkpt>
      <trkpt lat="45.26945" lon="4.18412">
        <ele>694.96153846154</ele>
        <time>2015-10-03T11:20:23.887Z</time>
      </trkpt>
      <trkpt lat="45.26947" lon="4.1841">
        <ele>695.15384615385</ele>
        <time>2015-10-03T11:20:24.887Z</time>
      </trkpt>
      <trkpt lat="45.26955" lon="4.18404">
        <ele>696.26923076923</ele>
        <time>2015-10-03T11:20:28.806Z</time>
      </trkpt>
      <trkpt lat="45.26956" lon="4.18404">
        <ele>696.38461538462</ele>
        <time>2015-10-03T11:20:29.811Z</time>
      </trkpt>
      <trkpt lat="45.26958" lon="4.18403">
        <ele>696.53846153846</ele>
        <time>2015-10-03T11:20:30.817Z</time>
      </trkpt>
      <trkpt lat="45.26959" lon="4.18403">
        <ele>696.76923076923</ele>
        <time>2015-10-03T11:20:31.819Z</time>
      </trkpt>
      <trkpt lat="45.2696" lon="4.18403">
        <ele>697</ele>
        <time>2015-10-03T11:20:32.827Z</time>
      </trkpt>
      <trkpt lat="45.26962" lon="4.18403">
        <ele>697.11538461538</ele>
        <time>2015-10-03T11:20:33.824Z</time>
      </trkpt>
      <trkpt lat="45.26964" lon="4.18402">
        <ele>697.26923076923</ele>
        <time>2015-10-03T11:20:34.817Z</time>
      </trkpt>
      <trkpt lat="45.26966" lon="4.18401">
        <ele>697.46153846154</ele>
        <time>2015-10-03T11:20:35.827Z</time>
      </trkpt>
      <trkpt lat="45.2697" lon="4.18399">
        <ele>697.92307692308</ele>
        <time>2015-10-03T11:20:37.813Z</time>
      </trkpt>
      <trkpt lat="45.26975" lon="4.18396">
        <ele>698.68421052632</ele>
        <time>2015-10-03T11:20:46.435Z</time>
      </trkpt>
      <trkpt lat="45.26981" lon="4.18392">
        <ele>698.89473684211</ele>
        <time>2015-10-03T11:20:47.873Z</time>
      </trkpt>
      <trkpt lat="45.26987" lon="4.18386">
        <ele>698.75</ele>
        <time>2015-10-03T11:20:49.861Z</time>
      </trkpt>
      <trkpt lat="45.26999" lon="4.18374">
        <ele>698.38888888889</ele>
        <time>2015-10-03T11:20:53.850Z</time>
      </trkpt>
      <trkpt lat="45.27009" lon="4.18367">
        <ele>698.05555555556</ele>
        <time>2015-10-03T11:20:56.864Z</time>
      </trkpt>
      <trkpt lat="45.27013" lon="4.18364">
        <ele>698</ele>
        <time>2015-10-03T11:20:57.855Z</time>
      </trkpt>
      <trkpt lat="45.27016" lon="4.18361">
        <ele>697.83333333333</ele>
        <time>2015-10-03T11:20:58.854Z</time>
      </trkpt>
      <trkpt lat="45.27027" lon="4.18351">
        <ele>697.22222222222</ele>
        <time>2015-10-03T11:21:01.858Z</time>
      </trkpt>
      <trkpt lat="45.27032" lon="4.18349">
        <ele>696.94444444444</ele>
        <time>2015-10-03T11:21:02.861Z</time>
      </trkpt>
      <trkpt lat="45.27036" lon="4.18346">
        <ele>696.66666666667</ele>
        <time>2015-10-03T11:21:03.871Z</time>
      </trkpt>
      <trkpt lat="45.2704" lon="4.18345">
        <ele>696.47368421053</ele>
        <time>2015-10-03T11:21:04.882Z</time>
      </trkpt>
      <trkpt lat="45.27044" lon="4.18345">
        <ele>696.3</ele>
        <time>2015-10-03T11:21:05.890Z</time>
      </trkpt>
      <trkpt lat="45.27048" lon="4.18346">
        <ele>696.09523809524</ele>
        <time>2015-10-03T11:21:06.876Z</time>
      </trkpt>
      <trkpt lat="45.27052" lon="4.18352">
        <ele>695.86363636364</ele>
        <time>2015-10-03T11:21:07.866Z</time>
      </trkpt>
      <trkpt lat="45.27052" lon="4.18352">
        <ele>695.65217391304</ele>
        <time>2015-10-03T11:21:08.884Z</time>
      </trkpt>
      <trkpt lat="45.27054" lon="4.18353">
        <ele>695.375</ele>
        <time>2015-10-03T11:21:09.896Z</time>
      </trkpt>
      <trkpt lat="45.27057" lon="4.18358">
        <ele>695.12</ele>
        <time>2015-10-03T11:21:10.889Z</time>
      </trkpt>
      <trkpt lat="45.27062" lon="4.18363">
        <ele>694.72</ele>
        <time>2015-10-03T11:21:11.887Z</time>
      </trkpt>
      <trkpt lat="45.27066" lon="4.18371">
        <ele>694.125</ele>
        <time>2015-10-03T11:21:12.890Z</time>
      </trkpt>
      <trkpt lat="45.27071" lon="4.18378">
        <ele>693.8</ele>
        <time>2015-10-03T11:21:13.873Z</time>
      </trkpt>
      <trkpt lat="45.27079" lon="4.1839">
        <ele>693.08333333333</ele>
        <time>2015-10-03T11:21:14.907Z</time>
      </trkpt>
      <trkpt lat="45.2709" lon="4.18399">
        <ele>692.54166666667</ele>
        <time>2015-10-03T11:21:15.914Z</time>
      </trkpt>
      <trkpt lat="45.27098" lon="4.18404">
        <ele>692.24</ele>
        <time>2015-10-03T11:21:16.873Z</time>
      </trkpt>
      <trkpt lat="45.2711" lon="4.18405">
        <ele>691.68</ele>
        <time>2015-10-03T11:21:17.870Z</time>
      </trkpt>
      <trkpt lat="45.2712" lon="4.18407">
        <ele>691.2</ele>
        <time>2015-10-03T11:21:18.869Z</time>
      </trkpt>
      <trkpt lat="45.27128" lon="4.18406">
        <ele>690.68</ele>
        <time>2015-10-03T11:21:19.871Z</time>
      </trkpt>
      <trkpt lat="45.27134" lon="4.18404">
        <ele>690.16</ele>
        <time>2015-10-03T11:21:20.867Z</time>
      </trkpt>
      <trkpt lat="45.27143" lon="4.184">
        <ele>689.92307692308</ele>
        <time>2015-10-03T11:21:21.858Z</time>
      </trkpt>
      <trkpt lat="45.27146" lon="4.18393">
        <ele>689.16</ele>
        <time>2015-10-03T11:21:22.866Z</time>
      </trkpt>
      <trkpt lat="45.2715" lon="4.1839">
        <ele>688.64</ele>
        <time>2015-10-03T11:21:23.860Z</time>
      </trkpt>
      <trkpt lat="45.27152" lon="4.18388">
        <ele>688.5</ele>
        <time>2015-10-03T11:21:24.855Z</time>
      </trkpt>
      <trkpt lat="45.27155" lon="4.18387">
        <ele>687.8</ele>
        <time>2015-10-03T11:21:25.868Z</time>
      </trkpt>
      <trkpt lat="45.27158" lon="4.18387">
        <ele>687.36</ele>
        <time>2015-10-03T11:21:26.873Z</time>
      </trkpt>
      <trkpt lat="45.27161" lon="4.18385">
        <ele>686.96</ele>
        <time>2015-10-03T11:21:27.884Z</time>
      </trkpt>
      <trkpt lat="45.27162" lon="4.18385">
        <ele>686.88461538462</ele>
        <time>2015-10-03T11:21:28.868Z</time>
      </trkpt>
      <trkpt lat="45.27165" lon="4.18382">
        <ele>686.46153846154</ele>
        <time>2015-10-03T11:21:29.873Z</time>
      </trkpt>
      <trkpt lat="45.27167" lon="4.1838">
        <ele>686.15384615385</ele>
        <time>2015-10-03T11:21:30.888Z</time>
      </trkpt>
      <trkpt lat="45.27167" lon="4.18379">
        <ele>685.44</ele>
        <time>2015-10-03T11:21:31.898Z</time>
      </trkpt>
      <trkpt lat="45.27166" lon="4.18379">
        <ele>685.2</ele>
        <time>2015-10-03T11:21:32.935Z</time>
      </trkpt>
      <trkpt lat="45.27167" lon="4.18377">
        <ele>684.88</ele>
        <time>2015-10-03T11:21:33.922Z</time>
      </trkpt>
      <trkpt lat="45.27169" lon="4.18374">
        <ele>684.76</ele>
        <time>2015-10-03T11:21:34.898Z</time>
      </trkpt>
      <trkpt lat="45.2717" lon="4.18371">
        <ele>684.52</ele>
        <time>2015-10-03T11:21:35.905Z</time>
      </trkpt>
      <trkpt lat="45.2717" lon="4.18368">
        <ele>684.36</ele>
        <time>2015-10-03T11:21:36.898Z</time>
      </trkpt>
      <trkpt lat="45.2717" lon="4.18364">
        <ele>684.38461538462</ele>
        <time>2015-10-03T11:21:37.890Z</time>
      </trkpt>
      <trkpt lat="45.27172" lon="4.18361">
        <ele>684.2</ele>
        <time>2015-10-03T11:21:38.875Z</time>
      </trkpt>
      <trkpt lat="45.27174" lon="4.18358">
        <ele>684.15384615385</ele>
        <time>2015-10-03T11:21:39.869Z</time>
      </trkpt>
      <trkpt lat="45.27178" lon="4.18352">
        <ele>684.04166666667</ele>
        <time>2015-10-03T11:21:41.903Z</time>
      </trkpt>
      <trkpt lat="45.27181" lon="4.18347">
        <ele>684.08333333333</ele>
        <time>2015-10-03T11:21:42.903Z</time>
      </trkpt>
      <trkpt lat="45.27183" lon="4.18345">
        <ele>684.125</ele>
        <time>2015-10-03T11:21:43.906Z</time>
      </trkpt>
      <trkpt lat="45.27185" lon="4.18343">
        <ele>684.16666666667</ele>
        <time>2015-10-03T11:21:44.904Z</time>
      </trkpt>
      <trkpt lat="45.27189" lon="4.18342">
        <ele>684.04166666667</ele>
        <time>2015-10-03T11:21:45.894Z</time>
      </trkpt>
      <trkpt lat="45.27191" lon="4.18339">
        <ele>684.125</ele>
        <time>2015-10-03T11:21:46.907Z</time>
      </trkpt>
      <trkpt lat="45.27195" lon="4.18337">
        <ele>684.125</ele>
        <time>2015-10-03T11:21:47.912Z</time>
      </trkpt>
      <trkpt lat="45.27198" lon="4.18335">
        <ele>684.20833333333</ele>
        <time>2015-10-03T11:21:48.909Z</time>
      </trkpt>
      <trkpt lat="45.27201" lon="4.18333">
        <ele>684.25</ele>
        <time>2015-10-03T11:21:49.886Z</time>
      </trkpt>
      <trkpt lat="45.27203" lon="4.18331">
        <ele>684.25</ele>
        <time>2015-10-03T11:21:50.911Z</time>
      </trkpt>
      <trkpt lat="45.27203" lon="4.18329">
        <ele>684.16666666667</ele>
        <time>2015-10-03T11:21:51.909Z</time>
      </trkpt>
      <trkpt lat="45.27206" lon="4.18327">
        <ele>684.25</ele>
        <time>2015-10-03T11:21:52.910Z</time>
      </trkpt>
      <trkpt lat="45.27213" lon="4.18322">
        <ele>684.41666666667</ele>
        <time>2015-10-03T11:21:54.948Z</time>
      </trkpt>
      <trkpt lat="45.27217" lon="4.18317">
        <ele>684.54166666667</ele>
        <time>2015-10-03T11:21:56.979Z</time>
      </trkpt>
      <trkpt lat="45.2722" lon="4.18315">
        <ele>684.58333333333</ele>
        <time>2015-10-03T11:21:57.967Z</time>
      </trkpt>
      <trkpt lat="45.27223" lon="4.18312">
        <ele>684.66666666667</ele>
        <time>2015-10-03T11:21:58.962Z</time>
      </trkpt>
      <trkpt lat="45.27227" lon="4.18309">
        <ele>684.58333333333</ele>
        <time>2015-10-03T11:21:59.970Z</time>
      </trkpt>
      <trkpt lat="45.27229" lon="4.18306">
        <ele>684.625</ele>
        <time>2015-10-03T11:22:00.955Z</time>
      </trkpt>
      <trkpt lat="45.27231" lon="4.18302">
        <ele>684.70833333333</ele>
        <time>2015-10-03T11:22:01.955Z</time>
      </trkpt>
      <trkpt lat="45.27235" lon="4.183">
        <ele>684.75</ele>
        <time>2015-10-03T11:22:02.967Z</time>
      </trkpt>
      <trkpt lat="45.27243" lon="4.18294">
        <ele>684.88</ele>
        <time>2015-10-03T11:22:05.964Z</time>
      </trkpt>
      <trkpt lat="45.27244" lon="4.1829">
        <ele>684.96</ele>
        <time>2015-10-03T11:22:06.957Z</time>
      </trkpt>
      <trkpt lat="45.27246" lon="4.18288">
        <ele>685</ele>
        <time>2015-10-03T11:22:07.962Z</time>
      </trkpt>
      <trkpt lat="45.27247" lon="4.18286">
        <ele>684.92</ele>
        <time>2015-10-03T11:22:08.971Z</time>
      </trkpt>
      <trkpt lat="45.27249" lon="4.18285">
        <ele>684.96</ele>
        <time>2015-10-03T11:22:09.962Z</time>
      </trkpt>
      <trkpt lat="45.27251" lon="4.18285">
        <ele>685.16</ele>
        <time>2015-10-03T11:22:10.963Z</time>
      </trkpt>
      <trkpt lat="45.27252" lon="4.18283">
        <ele>685.12</ele>
        <time>2015-10-03T11:22:11.962Z</time>
      </trkpt>
      <trkpt lat="45.27253" lon="4.18282">
        <ele>685.24</ele>
        <time>2015-10-03T11:22:12.976Z</time>
      </trkpt>
      <trkpt lat="45.27256" lon="4.18281">
        <ele>685.28</ele>
        <time>2015-10-03T11:22:13.956Z</time>
      </trkpt>
      <trkpt lat="45.27261" lon="4.18278">
        <ele>685.28</ele>
        <time>2015-10-03T11:22:15.957Z</time>
      </trkpt>
      <trkpt lat="45.27263" lon="4.18277">
        <ele>685.4</ele>
        <time>2015-10-03T11:22:16.942Z</time>
      </trkpt>
      <trkpt lat="45.27266" lon="4.18276">
        <ele>685.44</ele>
        <time>2015-10-03T11:22:17.956Z</time>
      </trkpt>
      <trkpt lat="45.27268" lon="4.18276">
        <ele>685.4</ele>
        <time>2015-10-03T11:22:18.961Z</time>
      </trkpt>
      <trkpt lat="45.27271" lon="4.18275">
        <ele>685.48</ele>
        <time>2015-10-03T11:22:19.962Z</time>
      </trkpt>
      <trkpt lat="45.27278" lon="4.18272">
        <ele>685.73076923077</ele>
        <time>2015-10-03T11:22:21.961Z</time>
      </trkpt>
      <trkpt lat="45.27281" lon="4.18271">
        <ele>685.88461538462</ele>
        <time>2015-10-03T11:22:22.966Z</time>
      </trkpt>
      <trkpt lat="45.27292" lon="4.18269">
        <ele>686.44</ele>
        <time>2015-10-03T11:22:26.963Z</time>
      </trkpt>
      <trkpt lat="45.27295" lon="4.18267">
        <ele>686.5</ele>
        <time>2015-10-03T11:22:27.939Z</time>
      </trkpt>
      <trkpt lat="45.27298" lon="4.18265">
        <ele>686.61538461538</ele>
        <time>2015-10-03T11:22:28.943Z</time>
      </trkpt>
      <trkpt lat="45.273" lon="4.18264">
        <ele>686.72</ele>
        <time>2015-10-03T11:22:29.977Z</time>
      </trkpt>
      <trkpt lat="45.27303" lon="4.18261">
        <ele>686.8</ele>
        <time>2015-10-03T11:22:30.976Z</time>
      </trkpt>
      <trkpt lat="45.27305" lon="4.18259">
        <ele>686.88461538462</ele>
        <time>2015-10-03T11:22:31.951Z</time>
      </trkpt>
      <trkpt lat="45.27308" lon="4.18254">
        <ele>687.03846153846</ele>
        <time>2015-10-03T11:22:33.913Z</time>
      </trkpt>
      <trkpt lat="45.27307" lon="4.18251">
        <ele>687.24</ele>
        <time>2015-10-03T11:22:34.966Z</time>
      </trkpt>
      <trkpt lat="45.27308" lon="4.18248">
        <ele>687.36</ele>
        <time>2015-10-03T11:22:35.984Z</time>
      </trkpt>
      <trkpt lat="45.2731" lon="4.18245">
        <ele>687.48</ele>
        <time>2015-10-03T11:22:36.975Z</time>
      </trkpt>
      <trkpt lat="45.27313" lon="4.18243">
        <ele>687.5</ele>
        <time>2015-10-03T11:22:37.971Z</time>
      </trkpt>
      <trkpt lat="45.27314" lon="4.18241">
        <ele>687.64</ele>
        <time>2015-10-03T11:22:38.980Z</time>
      </trkpt>
      <trkpt lat="45.27313" lon="4.18239">
        <ele>687.69230769231</ele>
        <time>2015-10-03T11:22:39.943Z</time>
      </trkpt>
      <trkpt lat="45.27314" lon="4.18238">
        <ele>687.80769230769</ele>
        <time>2015-10-03T11:22:40.885Z</time>
      </trkpt>
      <trkpt lat="45.27318" lon="4.18237">
        <ele>687.96153846154</ele>
        <time>2015-10-03T11:22:41.873Z</time>
      </trkpt>
      <trkpt lat="45.2732" lon="4.18237">
        <ele>688.07692307692</ele>
        <time>2015-10-03T11:22:42.911Z</time>
      </trkpt>
      <trkpt lat="45.27323" lon="4.18236">
        <ele>688.24</ele>
        <time>2015-10-03T11:22:43.982Z</time>
      </trkpt>
      <trkpt lat="45.27326" lon="4.18235">
        <ele>688.28</ele>
        <time>2015-10-03T11:22:44.998Z</time>
      </trkpt>
      <trkpt lat="45.27329" lon="4.18233">
        <ele>688.36</ele>
        <time>2015-10-03T11:22:45.989Z</time>
      </trkpt>
      <trkpt lat="45.27332" lon="4.18232">
        <ele>688.4</ele>
        <time>2015-10-03T11:22:46.997Z</time>
      </trkpt>
      <trkpt lat="45.27335" lon="4.18231">
        <ele>688.36</ele>
        <time>2015-10-03T11:22:47.998Z</time>
      </trkpt>
      <trkpt lat="45.27344" lon="4.18229">
        <ele>688.36</ele>
        <time>2015-10-03T11:22:50.970Z</time>
      </trkpt>
      <trkpt lat="45.27347" lon="4.18227">
        <ele>688.48</ele>
        <time>2015-10-03T11:22:51.966Z</time>
      </trkpt>
      <trkpt lat="45.2735" lon="4.18226">
        <ele>688.56</ele>
        <time>2015-10-03T11:22:52.962Z</time>
      </trkpt>
      <trkpt lat="45.27355" lon="4.18222">
        <ele>688.72</ele>
        <time>2015-10-03T11:22:55.005Z</time>
      </trkpt>
      <trkpt lat="45.27365" lon="4.18213">
        <ele>688.96</ele>
        <time>2015-10-03T11:22:58.996Z</time>
      </trkpt>
      <trkpt lat="45.27368" lon="4.1821">
        <ele>689</ele>
        <time>2015-10-03T11:23:00.008Z</time>
      </trkpt>
      <trkpt lat="45.27376" lon="4.18202">
        <ele>689.12</ele>
        <time>2015-10-03T11:23:02.981Z</time>
      </trkpt>
      <trkpt lat="45.27378" lon="4.182">
        <ele>689.11538461538</ele>
        <time>2015-10-03T11:23:03.979Z</time>
      </trkpt>
      <trkpt lat="45.27383" lon="4.18198">
        <ele>689.12</ele>
        <time>2015-10-03T11:23:05.938Z</time>
      </trkpt>
      <trkpt lat="45.27385" lon="4.18197">
        <ele>689.12</ele>
        <time>2015-10-03T11:23:06.887Z</time>
      </trkpt>
      <trkpt lat="45.2739" lon="4.18193">
        <ele>689.11538461538</ele>
        <time>2015-10-03T11:23:08.945Z</time>
      </trkpt>
      <trkpt lat="45.27393" lon="4.18191">
        <ele>689.03846153846</ele>
        <time>2015-10-03T11:23:09.906Z</time>
      </trkpt>
      <trkpt lat="45.27396" lon="4.18188">
        <ele>689</ele>
        <time>2015-10-03T11:23:10.903Z</time>
      </trkpt>
      <trkpt lat="45.27405" lon="4.1818">
        <ele>688.80769230769</ele>
        <time>2015-10-03T11:23:13.933Z</time>
      </trkpt>
      <trkpt lat="45.27411" lon="4.18174">
        <ele>688.61538461538</ele>
        <time>2015-10-03T11:23:15.965Z</time>
      </trkpt>
      <trkpt lat="45.27416" lon="4.18168">
        <ele>688.48</ele>
        <time>2015-10-03T11:23:17.966Z</time>
      </trkpt>
      <trkpt lat="45.27421" lon="4.1816">
        <ele>688.38461538462</ele>
        <time>2015-10-03T11:23:19.967Z</time>
      </trkpt>
      <trkpt lat="45.27429" lon="4.18143">
        <ele>688.07692307692</ele>
        <time>2015-10-03T11:23:23.931Z</time>
      </trkpt>
      <trkpt lat="45.27431" lon="4.18139">
        <ele>688.03846153846</ele>
        <time>2015-10-03T11:23:24.921Z</time>
      </trkpt>
      <trkpt lat="45.27436" lon="4.18129">
        <ele>688.03846153846</ele>
        <time>2015-10-03T11:23:27.903Z</time>
      </trkpt>
      <trkpt lat="45.27438" lon="4.18126">
        <ele>688.07692307692</ele>
        <time>2015-10-03T11:23:28.894Z</time>
      </trkpt>
      <trkpt lat="45.2744" lon="4.18124">
        <ele>688.11538461538</ele>
        <time>2015-10-03T11:23:29.904Z</time>
      </trkpt>
      <trkpt lat="45.27446" lon="4.18115">
        <ele>688.12</ele>
        <time>2015-10-03T11:23:32.959Z</time>
      </trkpt>
      <trkpt lat="45.27447" lon="4.18113">
        <ele>688.15384615385</ele>
        <time>2015-10-03T11:23:33.944Z</time>
      </trkpt>
      <trkpt lat="45.27448" lon="4.18112">
        <ele>688.11538461538</ele>
        <time>2015-10-03T11:23:34.881Z</time>
      </trkpt>
      <trkpt lat="45.2745" lon="4.18109">
        <ele>688.23076923077</ele>
        <time>2015-10-03T11:23:35.876Z</time>
      </trkpt>
      <trkpt lat="45.27452" lon="4.18107">
        <ele>688.26923076923</ele>
        <time>2015-10-03T11:23:36.926Z</time>
      </trkpt>
      <trkpt lat="45.27454" lon="4.18104">
        <ele>688.26923076923</ele>
        <time>2015-10-03T11:23:37.949Z</time>
      </trkpt>
      <trkpt lat="45.27463" lon="4.18095">
        <ele>688.56</ele>
        <time>2015-10-03T11:23:41.933Z</time>
      </trkpt>
      <trkpt lat="45.27464" lon="4.18093">
        <ele>688.6</ele>
        <time>2015-10-03T11:23:42.888Z</time>
      </trkpt>
      <trkpt lat="45.27465" lon="4.18091">
        <ele>688.68</ele>
        <time>2015-10-03T11:23:43.868Z</time>
      </trkpt>
      <trkpt lat="45.27467" lon="4.18088">
        <ele>688.8</ele>
        <time>2015-10-03T11:23:44.897Z</time>
      </trkpt>
      <trkpt lat="45.27473" lon="4.18081">
        <ele>689.20833333333</ele>
        <time>2015-10-03T11:23:47.998Z</time>
      </trkpt>
      <trkpt lat="45.27479" lon="4.18075">
        <ele>689.25</ele>
        <time>2015-10-03T11:23:50.989Z</time>
      </trkpt>
      <trkpt lat="45.27481" lon="4.18073">
        <ele>689.33333333333</ele>
        <time>2015-10-03T11:23:51.990Z</time>
      </trkpt>
      <trkpt lat="45.27486" lon="4.1807">
        <ele>689.41666666667</ele>
        <time>2015-10-03T11:23:53.954Z</time>
      </trkpt>
      <trkpt lat="45.27487" lon="4.18068">
        <ele>689.45833333333</ele>
        <time>2015-10-03T11:23:54.953Z</time>
      </trkpt>
      <trkpt lat="45.27489" lon="4.18065">
        <ele>689.54166666667</ele>
        <time>2015-10-03T11:23:55.948Z</time>
      </trkpt>
      <trkpt lat="45.27491" lon="4.18063">
        <ele>689.66666666667</ele>
        <time>2015-10-03T11:23:56.966Z</time>
      </trkpt>
      <trkpt lat="45.27492" lon="4.18061">
        <ele>689.75</ele>
        <time>2015-10-03T11:23:57.975Z</time>
      </trkpt>
      <trkpt lat="45.27494" lon="4.18059">
        <ele>689.79166666667</ele>
        <time>2015-10-03T11:23:59.006Z</time>
      </trkpt>
      <trkpt lat="45.27497" lon="4.18056">
        <ele>689.83333333333</ele>
        <time>2015-10-03T11:24:00.945Z</time>
      </trkpt>
      <trkpt lat="45.27499" lon="4.18054">
        <ele>689.83333333333</ele>
        <time>2015-10-03T11:24:02.013Z</time>
      </trkpt>
      <trkpt lat="45.27502" lon="4.1805">
        <ele>689.95833333333</ele>
        <time>2015-10-03T11:24:03.995Z</time>
      </trkpt>
      <trkpt lat="45.27503" lon="4.18049">
        <ele>690.04166666667</ele>
        <time>2015-10-03T11:24:04.987Z</time>
      </trkpt>
      <trkpt lat="45.27507" lon="4.18046">
        <ele>690.24</ele>
        <time>2015-10-03T11:24:06.951Z</time>
      </trkpt>
      <trkpt lat="45.27508" lon="4.18044">
        <ele>690.4</ele>
        <time>2015-10-03T11:24:07.967Z</time>
      </trkpt>
      <trkpt lat="45.27509" lon="4.18043">
        <ele>690.56</ele>
        <time>2015-10-03T11:24:08.945Z</time>
      </trkpt>
      <trkpt lat="45.27513" lon="4.18041">
        <ele>690.73076923077</ele>
        <time>2015-10-03T11:24:10.918Z</time>
      </trkpt>
      <trkpt lat="45.27518" lon="4.18039">
        <ele>691.03846153846</ele>
        <time>2015-10-03T11:24:12.907Z</time>
      </trkpt>
      <trkpt lat="45.27522" lon="4.18039">
        <ele>691.30769230769</ele>
        <time>2015-10-03T11:24:14.926Z</time>
      </trkpt>
      <trkpt lat="45.27526" lon="4.18038">
        <ele>691.57692307692</ele>
        <time>2015-10-03T11:24:16.952Z</time>
      </trkpt>
      <trkpt lat="45.27528" lon="4.18037">
        <ele>691.69230769231</ele>
        <time>2015-10-03T11:24:17.925Z</time>
      </trkpt>
      <trkpt lat="45.27529" lon="4.18036">
        <ele>691.84615384615</ele>
        <time>2015-10-03T11:24:18.923Z</time>
      </trkpt>
      <trkpt lat="45.27535" lon="4.18032">
        <ele>692.26923076923</ele>
        <time>2015-10-03T11:24:21.897Z</time>
      </trkpt>
      <trkpt lat="45.27536" lon="4.18031">
        <ele>692.38461538462</ele>
        <time>2015-10-03T11:24:22.878Z</time>
      </trkpt>
      <trkpt lat="45.27539" lon="4.1803">
        <ele>692.53846153846</ele>
        <time>2015-10-03T11:24:23.905Z</time>
      </trkpt>
      <trkpt lat="45.27543" lon="4.18026">
        <ele>693.11538461538</ele>
        <time>2015-10-03T11:24:26.889Z</time>
      </trkpt>
      <trkpt lat="45.27545" lon="4.18025">
        <ele>693.30769230769</ele>
        <time>2015-10-03T11:24:27.879Z</time>
      </trkpt>
      <trkpt lat="45.27547" lon="4.18023">
        <ele>693.46153846154</ele>
        <time>2015-10-03T11:24:28.883Z</time>
      </trkpt>
      <trkpt lat="45.27553" lon="4.18018">
        <ele>693.76923076923</ele>
        <time>2015-10-03T11:24:31.889Z</time>
      </trkpt>
      <trkpt lat="45.27557" lon="4.18015">
        <ele>693.80769230769</ele>
        <time>2015-10-03T11:24:34.860Z</time>
      </trkpt>
      <trkpt lat="45.27559" lon="4.18015">
        <ele>693.88461538462</ele>
        <time>2015-10-03T11:24:35.864Z</time>
      </trkpt>
      <trkpt lat="45.27561" lon="4.18015">
        <ele>693.88461538462</ele>
        <time>2015-10-03T11:24:36.871Z</time>
      </trkpt>
      <trkpt lat="45.27562" lon="4.18015">
        <ele>693.92307692308</ele>
        <time>2015-10-03T11:24:37.875Z</time>
      </trkpt>
      <trkpt lat="45.27563" lon="4.18016">
        <ele>694</ele>
        <time>2015-10-03T11:24:38.859Z</time>
      </trkpt>
      <trkpt lat="45.27565" lon="4.18017">
        <ele>694.07692307692</ele>
        <time>2015-10-03T11:24:39.856Z</time>
      </trkpt>
      <trkpt lat="45.27567" lon="4.18018">
        <ele>694.19230769231</ele>
        <time>2015-10-03T11:24:40.858Z</time>
      </trkpt>
      <trkpt lat="45.27569" lon="4.18019">
        <ele>694.34615384615</ele>
        <time>2015-10-03T11:24:41.877Z</time>
      </trkpt>
      <trkpt lat="45.27571" lon="4.18019">
        <ele>694.38461538462</ele>
        <time>2015-10-03T11:24:42.907Z</time>
      </trkpt>
      <trkpt lat="45.27573" lon="4.18018">
        <ele>694.5</ele>
        <time>2015-10-03T11:24:43.922Z</time>
      </trkpt>
      <trkpt lat="45.2758" lon="4.18017">
        <ele>694.6</ele>
        <time>2015-10-03T11:24:46.914Z</time>
      </trkpt>
      <trkpt lat="45.27581" lon="4.18016">
        <ele>694.56</ele>
        <time>2015-10-03T11:24:47.896Z</time>
      </trkpt>
      <trkpt lat="45.27584" lon="4.18015">
        <ele>694.57692307692</ele>
        <time>2015-10-03T11:24:48.894Z</time>
      </trkpt>
      <trkpt lat="45.27589" lon="4.18014">
        <ele>694.76923076923</ele>
        <time>2015-10-03T11:24:50.878Z</time>
      </trkpt>
      <trkpt lat="45.27591" lon="4.18014">
        <ele>694.84615384615</ele>
        <time>2015-10-03T11:24:51.878Z</time>
      </trkpt>
      <trkpt lat="45.27593" lon="4.18014">
        <ele>694.88</ele>
        <time>2015-10-03T11:24:52.895Z</time>
      </trkpt>
      <trkpt lat="45.27595" lon="4.18014">
        <ele>695.04</ele>
        <time>2015-10-03T11:24:53.889Z</time>
      </trkpt>
      <trkpt lat="45.27599" lon="4.18014">
        <ele>695.15384615385</ele>
        <time>2015-10-03T11:24:55.880Z</time>
      </trkpt>
      <trkpt lat="45.27601" lon="4.18014">
        <ele>695.28</ele>
        <time>2015-10-03T11:24:56.908Z</time>
      </trkpt>
      <trkpt lat="45.27607" lon="4.18014">
        <ele>695.72</ele>
        <time>2015-10-03T11:24:59.884Z</time>
      </trkpt>
      <trkpt lat="45.27612" lon="4.18013">
        <ele>696.04</ele>
        <time>2015-10-03T11:25:02.902Z</time>
      </trkpt>
      <trkpt lat="45.2762" lon="4.18013">
        <ele>696.24</ele>
        <time>2015-10-03T11:25:06.891Z</time>
      </trkpt>
      <trkpt lat="45.27626" lon="4.18012">
        <ele>696.32</ele>
        <time>2015-10-03T11:25:09.941Z</time>
      </trkpt>
      <trkpt lat="45.27631" lon="4.18013">
        <ele>696.52</ele>
        <time>2015-10-03T11:25:12.920Z</time>
      </trkpt>
      <trkpt lat="45.27635" lon="4.18014">
        <ele>696.64</ele>
        <time>2015-10-03T11:25:14.964Z</time>
      </trkpt>
      <trkpt lat="45.27641" lon="4.18015">
        <ele>696.88</ele>
        <time>2015-10-03T11:25:17.959Z</time>
      </trkpt>
      <trkpt lat="45.27644" lon="4.18015">
        <ele>696.92</ele>
        <time>2015-10-03T11:25:19.983Z</time>
      </trkpt>
      <trkpt lat="45.27646" lon="4.18015">
        <ele>697.04</ele>
        <time>2015-10-03T11:25:20.955Z</time>
      </trkpt>
      <trkpt lat="45.27647" lon="4.18015">
        <ele>697.11538461538</ele>
        <time>2015-10-03T11:25:21.908Z</time>
      </trkpt>
      <trkpt lat="45.27648" lon="4.18015">
        <ele>697.23076923077</ele>
        <time>2015-10-03T11:25:22.877Z</time>
      </trkpt>
      <trkpt lat="45.27654" lon="4.18015">
        <ele>697.34615384615</ele>
        <time>2015-10-03T11:25:25.860Z</time>
      </trkpt>
      <trkpt lat="45.27656" lon="4.18015">
        <ele>697.42307692308</ele>
        <time>2015-10-03T11:25:26.865Z</time>
      </trkpt>
      <trkpt lat="45.27659" lon="4.18015">
        <ele>697.61538461538</ele>
        <time>2015-10-03T11:25:28.870Z</time>
      </trkpt>
      <trkpt lat="45.27663" lon="4.18014">
        <ele>697.73076923077</ele>
        <time>2015-10-03T11:25:31.860Z</time>
      </trkpt>
      <trkpt lat="45.27669" lon="4.18011">
        <ele>697.92307692308</ele>
        <time>2015-10-03T11:25:35.866Z</time>
      </trkpt>
      <trkpt lat="45.27672" lon="4.1801">
        <ele>698.07692307692</ele>
        <time>2015-10-03T11:25:37.876Z</time>
      </trkpt>
      <trkpt lat="45.27673" lon="4.1801">
        <ele>698.12</ele>
        <time>2015-10-03T11:25:39.070Z</time>
      </trkpt>
      <trkpt lat="45.27673" lon="4.1801">
        <ele>698.11538461538</ele>
        <time>2015-10-03T11:25:39.881Z</time>
      </trkpt>
      <trkpt lat="45.27673" lon="4.18011">
        <ele>698.12</ele>
        <time>2015-10-03T11:25:43.877Z</time>
      </trkpt>
      <trkpt lat="45.27675" lon="4.18012">
        <ele>698.24</ele>
        <time>2015-10-03T11:25:45.883Z</time>
      </trkpt>
      <trkpt lat="45.27676" lon="4.18012">
        <ele>698.29166666667</ele>
        <time>2015-10-03T11:25:47.878Z</time>
      </trkpt>
      <trkpt lat="45.27677" lon="4.18011">
        <ele>698.375</ele>
        <time>2015-10-03T11:25:48.883Z</time>
      </trkpt>
      <trkpt lat="45.27677" lon="4.1801">
        <ele>698.41666666667</ele>
        <time>2015-10-03T11:25:51.893Z</time>
      </trkpt>
      <trkpt lat="45.27678" lon="4.18009">
        <ele>698.375</ele>
        <time>2015-10-03T11:25:54.869Z</time>
      </trkpt>
      <trkpt lat="45.2768" lon="4.18008">
        <ele>698.41666666667</ele>
        <time>2015-10-03T11:25:55.892Z</time>
      </trkpt>
      <trkpt lat="45.27684" lon="4.18006">
        <ele>698.45833333333</ele>
        <time>2015-10-03T11:25:57.925Z</time>
      </trkpt>
      <trkpt lat="45.27686" lon="4.18005">
        <ele>698.45833333333</ele>
        <time>2015-10-03T11:25:58.929Z</time>
      </trkpt>
      <trkpt lat="45.27689" lon="4.18003">
        <ele>698.5</ele>
        <time>2015-10-03T11:25:59.953Z</time>
      </trkpt>
      <trkpt lat="45.27691" lon="4.18002">
        <ele>698.54166666667</ele>
        <time>2015-10-03T11:26:00.981Z</time>
      </trkpt>
      <trkpt lat="45.27693" lon="4.18001">
        <ele>698.58333333333</ele>
        <time>2015-10-03T11:26:01.977Z</time>
      </trkpt>
      <trkpt lat="45.27695" lon="4.18">
        <ele>698.625</ele>
        <time>2015-10-03T11:26:02.971Z</time>
      </trkpt>
      <trkpt lat="45.27697" lon="4.17999">
        <ele>698.64</ele>
        <time>2015-10-03T11:26:03.962Z</time>
      </trkpt>
      <trkpt lat="45.27699" lon="4.17998">
        <ele>698.70833333333</ele>
        <time>2015-10-03T11:26:04.956Z</time>
      </trkpt>
      <trkpt lat="45.27703" lon="4.17997">
        <ele>698.76</ele>
        <time>2015-10-03T11:26:06.962Z</time>
      </trkpt>
      <trkpt lat="45.27705" lon="4.17996">
        <ele>698.72</ele>
        <time>2015-10-03T11:26:07.952Z</time>
      </trkpt>
      <trkpt lat="45.27707" lon="4.17996">
        <ele>698.8</ele>
        <time>2015-10-03T11:26:08.949Z</time>
      </trkpt>
      <trkpt lat="45.27713" lon="4.17995">
        <ele>698.8</ele>
        <time>2015-10-03T11:26:11.962Z</time>
      </trkpt>
      <trkpt lat="45.27715" lon="4.17995">
        <ele>698.76</ele>
        <time>2015-10-03T11:26:12.970Z</time>
      </trkpt>
      <trkpt lat="45.27724" lon="4.17992">
        <ele>698.88</ele>
        <time>2015-10-03T11:26:16.936Z</time>
      </trkpt>
      <trkpt lat="45.2773" lon="4.17991">
        <ele>699.08</ele>
        <time>2015-10-03T11:26:19.918Z</time>
      </trkpt>
      <trkpt lat="45.27731" lon="4.1799">
        <ele>699.11538461538</ele>
        <time>2015-10-03T11:26:20.877Z</time>
      </trkpt>
      <trkpt lat="45.27737" lon="4.17988">
        <ele>699.15384615385</ele>
        <time>2015-10-03T11:26:22.888Z</time>
      </trkpt>
      <trkpt lat="45.27744" lon="4.17985">
        <ele>699.30769230769</ele>
        <time>2015-10-03T11:26:25.937Z</time>
      </trkpt>
      <trkpt lat="45.27746" lon="4.17984">
        <ele>699.38461538462</ele>
        <time>2015-10-03T11:26:26.930Z</time>
      </trkpt>
      <trkpt lat="45.27751" lon="4.17982">
        <ele>699.5</ele>
        <time>2015-10-03T11:26:28.945Z</time>
      </trkpt>
      <trkpt lat="45.27754" lon="4.17981">
        <ele>699.6</ele>
        <time>2015-10-03T11:26:29.967Z</time>
      </trkpt>
      <trkpt lat="45.27763" lon="4.17978">
        <ele>700.04</ele>
        <time>2015-10-03T11:26:33.956Z</time>
      </trkpt>
      <trkpt lat="45.27765" lon="4.17978">
        <ele>700.12</ele>
        <time>2015-10-03T11:26:34.968Z</time>
      </trkpt>
      <trkpt lat="45.27769" lon="4.17976">
        <ele>700.26923076923</ele>
        <time>2015-10-03T11:26:36.955Z</time>
      </trkpt>
      <trkpt lat="45.27771" lon="4.17975">
        <ele>700.26923076923</ele>
        <time>2015-10-03T11:26:37.925Z</time>
      </trkpt>
      <trkpt lat="45.27777" lon="4.17971">
        <ele>700.53846153846</ele>
        <time>2015-10-03T11:26:40.940Z</time>
      </trkpt>
      <trkpt lat="45.27783" lon="4.17967">
        <ele>700.72</ele>
        <time>2015-10-03T11:26:43.969Z</time>
      </trkpt>
      <trkpt lat="45.2779" lon="4.17965">
        <ele>700.96</ele>
        <time>2015-10-03T11:26:46.978Z</time>
      </trkpt>
      <trkpt lat="45.27799" lon="4.17961">
        <ele>701.2</ele>
        <time>2015-10-03T11:26:50.978Z</time>
      </trkpt>
      <trkpt lat="45.27807" lon="4.17956">
        <ele>701.26923076923</ele>
        <time>2015-10-03T11:26:54.942Z</time>
      </trkpt>
      <trkpt lat="45.2781" lon="4.17955">
        <ele>701.28</ele>
        <time>2015-10-03T11:26:55.985Z</time>
      </trkpt>
      <trkpt lat="45.27814" lon="4.17954">
        <ele>701.2</ele>
        <time>2015-10-03T11:26:57.974Z</time>
      </trkpt>
      <trkpt lat="45.27817" lon="4.17954">
        <ele>701.24</ele>
        <time>2015-10-03T11:26:58.965Z</time>
      </trkpt>
      <trkpt lat="45.27827" lon="4.17953">
        <ele>701.2</ele>
        <time>2015-10-03T11:27:02.965Z</time>
      </trkpt>
      <trkpt lat="45.27833" lon="4.17952">
        <ele>701.12</ele>
        <time>2015-10-03T11:27:04.945Z</time>
      </trkpt>
      <trkpt lat="45.27836" lon="4.17953">
        <ele>701.04</ele>
        <time>2015-10-03T11:27:05.958Z</time>
      </trkpt>
      <trkpt lat="45.27841" lon="4.17952">
        <ele>700.92307692308</ele>
        <time>2015-10-03T11:27:07.885Z</time>
      </trkpt>
      <trkpt lat="45.27844" lon="4.17952">
        <ele>700.84615384615</ele>
        <time>2015-10-03T11:27:08.871Z</time>
      </trkpt>
      <trkpt lat="45.27852" lon="4.17952">
        <ele>700.61538461538</ele>
        <time>2015-10-03T11:27:10.889Z</time>
      </trkpt>
      <trkpt lat="45.2786" lon="4.17953">
        <ele>700.30769230769</ele>
        <time>2015-10-03T11:27:12.899Z</time>
      </trkpt>
      <trkpt lat="45.27868" lon="4.17953">
        <ele>699.96153846154</ele>
        <time>2015-10-03T11:27:14.898Z</time>
      </trkpt>
      <trkpt lat="45.27885" lon="4.17951">
        <ele>699.03846153846</ele>
        <time>2015-10-03T11:27:18.915Z</time>
      </trkpt>
      <trkpt lat="45.27888" lon="4.17951">
        <ele>698.76923076923</ele>
        <time>2015-10-03T11:27:19.904Z</time>
      </trkpt>
      <trkpt lat="45.27893" lon="4.1795">
        <ele>698.57692307692</ele>
        <time>2015-10-03T11:27:20.881Z</time>
      </trkpt>
      <trkpt lat="45.27899" lon="4.17948">
        <ele>698.26923076923</ele>
        <time>2015-10-03T11:27:21.883Z</time>
      </trkpt>
      <trkpt lat="45.27902" lon="4.17947">
        <ele>697.96153846154</ele>
        <time>2015-10-03T11:27:22.873Z</time>
      </trkpt>
      <trkpt lat="45.27907" lon="4.17946">
        <ele>697.73076923077</ele>
        <time>2015-10-03T11:27:23.878Z</time>
      </trkpt>
      <trkpt lat="45.27921" lon="4.17941">
        <ele>697.03846153846</ele>
        <time>2015-10-03T11:27:25.873Z</time>
      </trkpt>
      <trkpt lat="45.27942" lon="4.17935">
        <ele>695.80769230769</ele>
        <time>2015-10-03T11:27:28.879Z</time>
      </trkpt>
      <trkpt lat="45.27949" lon="4.17933">
        <ele>695.34615384615</ele>
        <time>2015-10-03T11:27:29.862Z</time>
      </trkpt>
      <trkpt lat="45.27959" lon="4.1793">
        <ele>694.96153846154</ele>
        <time>2015-10-03T11:27:30.867Z</time>
      </trkpt>
      <trkpt lat="45.27975" lon="4.17922">
        <ele>694.28</ele>
        <time>2015-10-03T11:27:32.860Z</time>
      </trkpt>
      <trkpt lat="45.27984" lon="4.17926">
        <ele>693.08333333333</ele>
        <time>2015-10-03T11:27:34.878Z</time>
      </trkpt>
      <trkpt lat="45.27988" lon="4.17927">
        <ele>692.76</ele>
        <time>2015-10-03T11:27:35.882Z</time>
      </trkpt>
      <trkpt lat="45.27996" lon="4.17929">
        <ele>691.76</ele>
        <time>2015-10-03T11:27:37.868Z</time>
      </trkpt>
      <trkpt lat="45.28" lon="4.17931">
        <ele>691.28</ele>
        <time>2015-10-03T11:27:38.871Z</time>
      </trkpt>
      <trkpt lat="45.28016" lon="4.17938">
        <ele>689.45833333333</ele>
        <time>2015-10-03T11:27:42.879Z</time>
      </trkpt>
      <trkpt lat="45.28028" lon="4.17943">
        <ele>687.47826086957</ele>
        <time>2015-10-03T11:27:45.882Z</time>
      </trkpt>
      <trkpt lat="45.28031" lon="4.17944">
        <ele>686.86956521739</ele>
        <time>2015-10-03T11:27:46.915Z</time>
      </trkpt>
      <trkpt lat="45.28034" lon="4.17945">
        <ele>686.34782608696</ele>
        <time>2015-10-03T11:27:47.916Z</time>
      </trkpt>
      <trkpt lat="45.28036" lon="4.17945">
        <ele>685.73913043478</ele>
        <time>2015-10-03T11:27:48.881Z</time>
      </trkpt>
      <trkpt lat="45.28045" lon="4.17948">
        <ele>684.17391304348</ele>
        <time>2015-10-03T11:27:51.887Z</time>
      </trkpt>
      <trkpt lat="45.28048" lon="4.17948">
        <ele>683.69565217391</ele>
        <time>2015-10-03T11:27:52.945Z</time>
      </trkpt>
      <trkpt lat="45.28051" lon="4.17948">
        <ele>683.17391304348</ele>
        <time>2015-10-03T11:27:53.889Z</time>
      </trkpt>
      <trkpt lat="45.28054" lon="4.17948">
        <ele>682.69565217391</ele>
        <time>2015-10-03T11:27:54.891Z</time>
      </trkpt>
      <trkpt lat="45.28054" lon="4.17948">
        <ele>682.17391304348</ele>
        <time>2015-10-03T11:27:55.920Z</time>
      </trkpt>
      <trkpt lat="45.28054" lon="4.17948">
        <ele>681.91666666667</ele>
        <time>2015-10-03T11:27:56.958Z</time>
      </trkpt>
      <trkpt lat="45.28056" lon="4.17948">
        <ele>681.41666666667</ele>
        <time>2015-10-03T11:27:57.956Z</time>
      </trkpt>
      <trkpt lat="45.28064" lon="4.17947">
        <ele>680.45833333333</ele>
        <time>2015-10-03T11:27:59.938Z</time>
      </trkpt>
      <trkpt lat="45.28068" lon="4.17946">
        <ele>680.04166666667</ele>
        <time>2015-10-03T11:28:00.905Z</time>
      </trkpt>
      <trkpt lat="45.28072" lon="4.17944">
        <ele>679.84</ele>
        <time>2015-10-03T11:28:01.867Z</time>
      </trkpt>
      <trkpt lat="45.28075" lon="4.17943">
        <ele>679.20833333333</ele>
        <time>2015-10-03T11:28:02.874Z</time>
      </trkpt>
      <trkpt lat="45.28077" lon="4.17942">
        <ele>678.79166666667</ele>
        <time>2015-10-03T11:28:03.882Z</time>
      </trkpt>
      <trkpt lat="45.28077" lon="4.17942">
        <ele>678.45833333333</ele>
        <time>2015-10-03T11:28:04.871Z</time>
      </trkpt>
      <trkpt lat="45.28077" lon="4.17942">
        <ele>678.32</ele>
        <time>2015-10-03T11:28:05.872Z</time>
      </trkpt>
      <trkpt lat="45.28077" lon="4.17942">
        <ele>677.46153846154</ele>
        <time>2015-10-03T11:28:08.875Z</time>
      </trkpt>
      <trkpt lat="45.28078" lon="4.17941">
        <ele>676.65384615385</ele>
        <time>2015-10-03T11:28:11.877Z</time>
      </trkpt>
      <trkpt lat="45.28078" lon="4.17941">
        <ele>675.84615384615</ele>
        <time>2015-10-03T11:28:15.872Z</time>
      </trkpt>
      <trkpt lat="45.28079" lon="4.17941">
        <ele>675.65384615385</ele>
        <time>2015-10-03T11:28:16.871Z</time>
      </trkpt>
      <trkpt lat="45.28079" lon="4.17941">
        <ele>675.42307692308</ele>
        <time>2015-10-03T11:28:17.864Z</time>
      </trkpt>
      <trkpt lat="45.2808" lon="4.17941">
        <ele>675.26923076923</ele>
        <time>2015-10-03T11:28:18.871Z</time>
      </trkpt>
      <trkpt lat="45.28082" lon="4.17941">
        <ele>675.11538461538</ele>
        <time>2015-10-03T11:28:19.879Z</time>
      </trkpt>
      <trkpt lat="45.28084" lon="4.1794">
        <ele>674.96153846154</ele>
        <time>2015-10-03T11:28:20.879Z</time>
      </trkpt>
      <trkpt lat="45.28086" lon="4.1794">
        <ele>674.88461538462</ele>
        <time>2015-10-03T11:28:21.888Z</time>
      </trkpt>
      <trkpt lat="45.28089" lon="4.17939">
        <ele>674.80769230769</ele>
        <time>2015-10-03T11:28:22.874Z</time>
      </trkpt>
      <trkpt lat="45.28093" lon="4.17938">
        <ele>674.73076923077</ele>
        <time>2015-10-03T11:28:23.874Z</time>
      </trkpt>
      <trkpt lat="45.28096" lon="4.17937">
        <ele>674.65384615385</ele>
        <time>2015-10-03T11:28:24.879Z</time>
      </trkpt>
      <trkpt lat="45.281" lon="4.17936">
        <ele>674.53846153846</ele>
        <time>2015-10-03T11:28:25.875Z</time>
      </trkpt>
      <trkpt lat="45.28104" lon="4.17936">
        <ele>674.44</ele>
        <time>2015-10-03T11:28:26.875Z</time>
      </trkpt>
      <trkpt lat="45.28108" lon="4.17937">
        <ele>674.28</ele>
        <time>2015-10-03T11:28:27.875Z</time>
      </trkpt>
      <trkpt lat="45.28118" lon="4.17939">
        <ele>674.16</ele>
        <time>2015-10-03T11:28:29.854Z</time>
      </trkpt>
      <trkpt lat="45.28123" lon="4.17941">
        <ele>674.04</ele>
        <time>2015-10-03T11:28:30.869Z</time>
      </trkpt>
      <trkpt lat="45.28127" lon="4.17945">
        <ele>673.83333333333</ele>
        <time>2015-10-03T11:28:31.888Z</time>
      </trkpt>
      <trkpt lat="45.2813" lon="4.1795">
        <ele>673.66666666667</ele>
        <time>2015-10-03T11:28:32.888Z</time>
      </trkpt>
      <trkpt lat="45.28134" lon="4.17954">
        <ele>673.54166666667</ele>
        <time>2015-10-03T11:28:33.877Z</time>
      </trkpt>
      <trkpt lat="45.28143" lon="4.17961">
        <ele>673.16666666667</ele>
        <time>2015-10-03T11:28:35.882Z</time>
      </trkpt>
      <trkpt lat="45.28148" lon="4.17963">
        <ele>672.875</ele>
        <time>2015-10-03T11:28:36.887Z</time>
      </trkpt>
      <trkpt lat="45.28152" lon="4.17963">
        <ele>672.68</ele>
        <time>2015-10-03T11:28:37.870Z</time>
      </trkpt>
      <trkpt lat="45.28157" lon="4.17962">
        <ele>672.29166666667</ele>
        <time>2015-10-03T11:28:38.884Z</time>
      </trkpt>
      <trkpt lat="45.28162" lon="4.1796">
        <ele>672</ele>
        <time>2015-10-03T11:28:39.887Z</time>
      </trkpt>
      <trkpt lat="45.28167" lon="4.17956">
        <ele>671.70833333333</ele>
        <time>2015-10-03T11:28:40.884Z</time>
      </trkpt>
      <trkpt lat="45.2817" lon="4.17952">
        <ele>671.41666666667</ele>
        <time>2015-10-03T11:28:41.877Z</time>
      </trkpt>
      <trkpt lat="45.28171" lon="4.17947">
        <ele>671.20833333333</ele>
        <time>2015-10-03T11:28:42.873Z</time>
      </trkpt>
      <trkpt lat="45.28171" lon="4.17943">
        <ele>671.04</ele>
        <time>2015-10-03T11:28:43.870Z</time>
      </trkpt>
      <trkpt lat="45.28171" lon="4.17934">
        <ele>670.44</ele>
        <time>2015-10-03T11:28:45.872Z</time>
      </trkpt>
      <trkpt lat="45.2817" lon="4.17928">
        <ele>669.95833333333</ele>
        <time>2015-10-03T11:28:46.904Z</time>
      </trkpt>
      <trkpt lat="45.28164" lon="4.17907">
        <ele>668.58333333333</ele>
        <time>2015-10-03T11:28:50.883Z</time>
      </trkpt>
      <trkpt lat="45.28162" lon="4.17903">
        <ele>668.44</ele>
        <time>2015-10-03T11:28:51.873Z</time>
      </trkpt>
      <trkpt lat="45.2816" lon="4.17899">
        <ele>667.91666666667</ele>
        <time>2015-10-03T11:28:52.890Z</time>
      </trkpt>
      <trkpt lat="45.28159" lon="4.17894">
        <ele>667.76</ele>
        <time>2015-10-03T11:28:53.882Z</time>
      </trkpt>
      <trkpt lat="45.28157" lon="4.17889">
        <ele>667.4</ele>
        <time>2015-10-03T11:28:54.865Z</time>
      </trkpt>
      <trkpt lat="45.28155" lon="4.17879">
        <ele>666.76923076923</ele>
        <time>2015-10-03T11:28:56.864Z</time>
      </trkpt>
      <trkpt lat="45.28153" lon="4.17875">
        <ele>666.38461538462</ele>
        <time>2015-10-03T11:28:57.858Z</time>
      </trkpt>
      <trkpt lat="45.28152" lon="4.17873">
        <ele>666.03846153846</ele>
        <time>2015-10-03T11:28:58.872Z</time>
      </trkpt>
      <trkpt lat="45.28152" lon="4.1787">
        <ele>665.48</ele>
        <time>2015-10-03T11:28:59.868Z</time>
      </trkpt>
      <trkpt lat="45.28152" lon="4.17868">
        <ele>665.30769230769</ele>
        <time>2015-10-03T11:29:00.876Z</time>
      </trkpt>
      <trkpt lat="45.28152" lon="4.17868">
        <ele>665</ele>
        <time>2015-10-03T11:29:01.871Z</time>
      </trkpt>
      <trkpt lat="45.28152" lon="4.17867">
        <ele>664.52</ele>
        <time>2015-10-03T11:29:02.888Z</time>
      </trkpt>
      <trkpt lat="45.28152" lon="4.17866">
        <ele>664.16</ele>
        <time>2015-10-03T11:29:03.897Z</time>
      </trkpt>
      <trkpt lat="45.28153" lon="4.17866">
        <ele>663</ele>
        <time>2015-10-03T11:29:07.883Z</time>
      </trkpt>
      <trkpt lat="45.28152" lon="4.17865">
        <ele>662.76</ele>
        <time>2015-10-03T11:29:08.871Z</time>
      </trkpt>
      <trkpt lat="45.28151" lon="4.17863">
        <ele>662.48</ele>
        <time>2015-10-03T11:29:09.878Z</time>
      </trkpt>
      <trkpt lat="45.2815" lon="4.17861">
        <ele>662.2</ele>
        <time>2015-10-03T11:29:10.887Z</time>
      </trkpt>
      <trkpt lat="45.2815" lon="4.17855">
        <ele>661.84615384615</ele>
        <time>2015-10-03T11:29:12.868Z</time>
      </trkpt>
      <trkpt lat="45.28152" lon="4.17852">
        <ele>661.65384615385</ele>
        <time>2015-10-03T11:29:13.853Z</time>
      </trkpt>
      <trkpt lat="45.28155" lon="4.1785">
        <ele>661.46153846154</ele>
        <time>2015-10-03T11:29:14.865Z</time>
      </trkpt>
      <trkpt lat="45.28176" lon="4.1785">
        <ele>661.23076923077</ele>
        <time>2015-10-03T11:29:15.864Z</time>
      </trkpt>
      <trkpt lat="45.28179" lon="4.17852">
        <ele>661.11538461538</ele>
        <time>2015-10-03T11:29:16.863Z</time>
      </trkpt>
      <trkpt lat="45.2818" lon="4.17854">
        <ele>660.96153846154</ele>
        <time>2015-10-03T11:29:17.876Z</time>
      </trkpt>
      <trkpt lat="45.28183" lon="4.17857">
        <ele>660.76</ele>
        <time>2015-10-03T11:29:18.915Z</time>
      </trkpt>
      <trkpt lat="45.28185" lon="4.17858">
        <ele>660.68</ele>
        <time>2015-10-03T11:29:19.919Z</time>
      </trkpt>
      <trkpt lat="45.28184" lon="4.17859">
        <ele>660.72</ele>
        <time>2015-10-03T11:29:20.914Z</time>
      </trkpt>
      <trkpt lat="45.28185" lon="4.1786">
        <ele>660.72</ele>
        <time>2015-10-03T11:29:21.939Z</time>
      </trkpt>
      <trkpt lat="45.28186" lon="4.1786">
        <ele>660.84</ele>
        <time>2015-10-03T11:29:22.910Z</time>
      </trkpt>
      <trkpt lat="45.28188" lon="4.17862">
        <ele>660.92307692308</ele>
        <time>2015-10-03T11:29:23.867Z</time>
      </trkpt>
      <trkpt lat="45.2819" lon="4.17864">
        <ele>661.12</ele>
        <time>2015-10-03T11:29:24.888Z</time>
      </trkpt>
      <trkpt lat="45.28193" lon="4.17866">
        <ele>661.24</ele>
        <time>2015-10-03T11:29:25.909Z</time>
      </trkpt>
      <trkpt lat="45.28195" lon="4.17868">
        <ele>661.44</ele>
        <time>2015-10-03T11:29:26.878Z</time>
      </trkpt>
      <trkpt lat="45.28197" lon="4.1787">
        <ele>661.53846153846</ele>
        <time>2015-10-03T11:29:27.872Z</time>
      </trkpt>
      <trkpt lat="45.28198" lon="4.17871">
        <ele>661.76923076923</ele>
        <time>2015-10-03T11:29:28.887Z</time>
      </trkpt>
      <trkpt lat="45.28201" lon="4.17873">
        <ele>662.04</ele>
        <time>2015-10-03T11:29:29.929Z</time>
      </trkpt>
      <trkpt lat="45.28203" lon="4.17874">
        <ele>662.24</ele>
        <time>2015-10-03T11:29:30.968Z</time>
      </trkpt>
      <trkpt lat="45.28212" lon="4.17878">
        <ele>663.08333333333</ele>
        <time>2015-10-03T11:29:34.929Z</time>
      </trkpt>
      <trkpt lat="45.28214" lon="4.17879">
        <ele>663.41666666667</ele>
        <time>2015-10-03T11:29:35.919Z</time>
      </trkpt>
      <trkpt lat="45.28215" lon="4.17881">
        <ele>663.70833333333</ele>
        <time>2015-10-03T11:29:36.929Z</time>
      </trkpt>
      <trkpt lat="45.28217" lon="4.17881">
        <ele>664.08333333333</ele>
        <time>2015-10-03T11:29:37.950Z</time>
      </trkpt>
      <trkpt lat="45.28219" lon="4.17882">
        <ele>664.375</ele>
        <time>2015-10-03T11:29:38.951Z</time>
      </trkpt>
      <trkpt lat="45.2822" lon="4.17884">
        <ele>664.70833333333</ele>
        <time>2015-10-03T11:29:39.922Z</time>
      </trkpt>
      <trkpt lat="45.28222" lon="4.17885">
        <ele>665.125</ele>
        <time>2015-10-03T11:29:40.914Z</time>
      </trkpt>
      <trkpt lat="45.28224" lon="4.17886">
        <ele>665.41666666667</ele>
        <time>2015-10-03T11:29:41.928Z</time>
      </trkpt>
      <trkpt lat="45.28226" lon="4.17888">
        <ele>665.70833333333</ele>
        <time>2015-10-03T11:29:42.921Z</time>
      </trkpt>
      <trkpt lat="45.2823" lon="4.1789">
        <ele>666.12</ele>
        <time>2015-10-03T11:29:44.908Z</time>
      </trkpt>
      <trkpt lat="45.28232" lon="4.17891">
        <ele>666.52</ele>
        <time>2015-10-03T11:29:45.909Z</time>
      </trkpt>
      <trkpt lat="45.28235" lon="4.17892">
        <ele>667.25</ele>
        <time>2015-10-03T11:29:47.913Z</time>
      </trkpt>
      <trkpt lat="45.28236" lon="4.17894">
        <ele>667.54166666667</ele>
        <time>2015-10-03T11:29:48.919Z</time>
      </trkpt>
      <trkpt lat="45.28238" lon="4.17896">
        <ele>667.75</ele>
        <time>2015-10-03T11:29:49.914Z</time>
      </trkpt>
      <trkpt lat="45.2824" lon="4.17897">
        <ele>667.88</ele>
        <time>2015-10-03T11:29:50.895Z</time>
      </trkpt>
      <trkpt lat="45.28241" lon="4.17897">
        <ele>668.25</ele>
        <time>2015-10-03T11:29:51.880Z</time>
      </trkpt>
      <trkpt lat="45.28242" lon="4.17897">
        <ele>668.32</ele>
        <time>2015-10-03T11:29:52.860Z</time>
      </trkpt>
      <trkpt lat="45.28244" lon="4.17897">
        <ele>668.52</ele>
        <time>2015-10-03T11:29:53.884Z</time>
      </trkpt>
      <trkpt lat="45.28245" lon="4.17896">
        <ele>668.68</ele>
        <time>2015-10-03T11:29:54.903Z</time>
      </trkpt>
      <trkpt lat="45.28247" lon="4.17895">
        <ele>668.92</ele>
        <time>2015-10-03T11:29:55.896Z</time>
      </trkpt>
      <trkpt lat="45.28249" lon="4.17893">
        <ele>669.16</ele>
        <time>2015-10-03T11:29:56.890Z</time>
      </trkpt>
      <trkpt lat="45.2825" lon="4.17891">
        <ele>669.26923076923</ele>
        <time>2015-10-03T11:29:57.890Z</time>
      </trkpt>
      <trkpt lat="45.28251" lon="4.17889">
        <ele>669.46153846154</ele>
        <time>2015-10-03T11:29:58.913Z</time>
      </trkpt>
      <trkpt lat="45.28253" lon="4.17887">
        <ele>669.84</ele>
        <time>2015-10-03T11:29:59.935Z</time>
      </trkpt>
      <trkpt lat="45.28254" lon="4.17885">
        <ele>670.04</ele>
        <time>2015-10-03T11:30:00.928Z</time>
      </trkpt>
      <trkpt lat="45.28254" lon="4.17882">
        <ele>670.24</ele>
        <time>2015-10-03T11:30:01.933Z</time>
      </trkpt>
      <trkpt lat="45.28255" lon="4.1788">
        <ele>670.30769230769</ele>
        <time>2015-10-03T11:30:02.931Z</time>
      </trkpt>
      <trkpt lat="45.28255" lon="4.17877">
        <ele>670.42307692308</ele>
        <time>2015-10-03T11:30:03.908Z</time>
      </trkpt>
      <trkpt lat="45.28256" lon="4.17874">
        <ele>670.64</ele>
        <time>2015-10-03T11:30:04.928Z</time>
      </trkpt>
      <trkpt lat="45.28256" lon="4.17869">
        <ele>670.96</ele>
        <time>2015-10-03T11:30:06.933Z</time>
      </trkpt>
      <trkpt lat="45.28256" lon="4.17866">
        <ele>671.2</ele>
        <time>2015-10-03T11:30:07.927Z</time>
      </trkpt>
      <trkpt lat="45.28257" lon="4.17864">
        <ele>671.36</ele>
        <time>2015-10-03T11:30:08.968Z</time>
      </trkpt>
      <trkpt lat="45.28257" lon="4.17861">
        <ele>671.56</ele>
        <time>2015-10-03T11:30:09.967Z</time>
      </trkpt>
      <trkpt lat="45.28257" lon="4.17858">
        <ele>671.64</ele>
        <time>2015-10-03T11:30:10.967Z</time>
      </trkpt>
      <trkpt lat="45.28258" lon="4.17852">
        <ele>672</ele>
        <time>2015-10-03T11:30:12.951Z</time>
      </trkpt>
      <trkpt lat="45.28259" lon="4.17849">
        <ele>672.12</ele>
        <time>2015-10-03T11:30:13.940Z</time>
      </trkpt>
      <trkpt lat="45.2826" lon="4.17847">
        <ele>672.2</ele>
        <time>2015-10-03T11:30:14.944Z</time>
      </trkpt>
      <trkpt lat="45.2826" lon="4.17842">
        <ele>672.36</ele>
        <time>2015-10-03T11:30:16.932Z</time>
      </trkpt>
      <trkpt lat="45.28261" lon="4.1784">
        <ele>672.52</ele>
        <time>2015-10-03T11:30:17.935Z</time>
      </trkpt>
      <trkpt lat="45.28262" lon="4.17838">
        <ele>672.72</ele>
        <time>2015-10-03T11:30:18.915Z</time>
      </trkpt>
      <trkpt lat="45.28266" lon="4.17828">
        <ele>673.12</ele>
        <time>2015-10-03T11:30:22.907Z</time>
      </trkpt>
      <trkpt lat="45.2827" lon="4.17822">
        <ele>673.15384615385</ele>
        <time>2015-10-03T11:30:25.918Z</time>
      </trkpt>
      <trkpt lat="45.28271" lon="4.1782">
        <ele>673.19230769231</ele>
        <time>2015-10-03T11:30:26.899Z</time>
      </trkpt>
      <trkpt lat="45.28274" lon="4.17814">
        <ele>673.4</ele>
        <time>2015-10-03T11:30:29.972Z</time>
      </trkpt>
      <trkpt lat="45.28277" lon="4.17808">
        <ele>673.44</ele>
        <time>2015-10-03T11:30:32.974Z</time>
      </trkpt>
      <trkpt lat="45.28279" lon="4.17805">
        <ele>673.48</ele>
        <time>2015-10-03T11:30:34.976Z</time>
      </trkpt>
      <trkpt lat="45.28279" lon="4.17802">
        <ele>673.52</ele>
        <time>2015-10-03T11:30:35.995Z</time>
      </trkpt>
      <trkpt lat="45.28279" lon="4.17801">
        <ele>673.44</ele>
        <time>2015-10-03T11:30:36.978Z</time>
      </trkpt>
      <trkpt lat="45.28278" lon="4.17799">
        <ele>673.4</ele>
        <time>2015-10-03T11:30:37.971Z</time>
      </trkpt>
      <trkpt lat="45.28277" lon="4.17798">
        <ele>673.48</ele>
        <time>2015-10-03T11:30:38.961Z</time>
      </trkpt>
      <trkpt lat="45.28274" lon="4.17795">
        <ele>673.48</ele>
        <time>2015-10-03T11:30:41.002Z</time>
      </trkpt>
      <trkpt lat="45.2827" lon="4.17792">
        <ele>673.52</ele>
        <time>2015-10-03T11:30:43.974Z</time>
      </trkpt>
      <trkpt lat="45.2827" lon="4.17791">
        <ele>673.48</ele>
        <time>2015-10-03T11:30:44.975Z</time>
      </trkpt>
      <trkpt lat="45.28267" lon="4.17786">
        <ele>673.36</ele>
        <time>2015-10-03T11:30:47.982Z</time>
      </trkpt>
      <trkpt lat="45.28265" lon="4.17778">
        <ele>673.36</ele>
        <time>2015-10-03T11:30:51.970Z</time>
      </trkpt>
      <trkpt lat="45.28264" lon="4.17776">
        <ele>673.2</ele>
        <time>2015-10-03T11:30:52.991Z</time>
      </trkpt>
      <trkpt lat="45.28264" lon="4.17774">
        <ele>673.2</ele>
        <time>2015-10-03T11:30:53.973Z</time>
      </trkpt>
      <trkpt lat="45.28263" lon="4.17769">
        <ele>673.26923076923</ele>
        <time>2015-10-03T11:30:55.967Z</time>
      </trkpt>
      <trkpt lat="45.28262" lon="4.17767">
        <ele>673.2</ele>
        <time>2015-10-03T11:30:56.986Z</time>
      </trkpt>
      <trkpt lat="45.28258" lon="4.17758">
        <ele>673.23076923077</ele>
        <time>2015-10-03T11:31:00.928Z</time>
      </trkpt>
      <trkpt lat="45.28257" lon="4.17756">
        <ele>673.23076923077</ele>
        <time>2015-10-03T11:31:01.891Z</time>
      </trkpt>
      <trkpt lat="45.28256" lon="4.17754">
        <ele>673.30769230769</ele>
        <time>2015-10-03T11:31:02.893Z</time>
      </trkpt>
      <trkpt lat="45.28255" lon="4.17753">
        <ele>673.34615384615</ele>
        <time>2015-10-03T11:31:03.879Z</time>
      </trkpt>
      <trkpt lat="45.28255" lon="4.17751">
        <ele>673.30769230769</ele>
        <time>2015-10-03T11:31:04.907Z</time>
      </trkpt>
      <trkpt lat="45.28255" lon="4.1775">
        <ele>673.30769230769</ele>
        <time>2015-10-03T11:31:05.892Z</time>
      </trkpt>
      <trkpt lat="45.28255" lon="4.17748">
        <ele>673.34615384615</ele>
        <time>2015-10-03T11:31:06.876Z</time>
      </trkpt>
      <trkpt lat="45.28255" lon="4.17742">
        <ele>673.36</ele>
        <time>2015-10-03T11:31:08.935Z</time>
      </trkpt>
      <trkpt lat="45.28254" lon="4.1774">
        <ele>673.28</ele>
        <time>2015-10-03T11:31:09.938Z</time>
      </trkpt>
      <trkpt lat="45.28252" lon="4.17739">
        <ele>673.28</ele>
        <time>2015-10-03T11:31:10.893Z</time>
      </trkpt>
      <trkpt lat="45.28251" lon="4.17737">
        <ele>673.36</ele>
        <time>2015-10-03T11:31:13.859Z</time>
      </trkpt>
      <trkpt lat="45.2825" lon="4.17737">
        <ele>673.32</ele>
        <time>2015-10-03T11:31:14.872Z</time>
      </trkpt>
      <trkpt lat="45.2825" lon="4.17736">
        <ele>673.36</ele>
        <time>2015-10-03T11:31:15.870Z</time>
      </trkpt>
      <trkpt lat="45.2825" lon="4.17736">
        <ele>673.36</ele>
        <time>2015-10-03T11:31:16.867Z</time>
      </trkpt>
      <trkpt lat="45.2825" lon="4.17735">
        <ele>673.52</ele>
        <time>2015-10-03T11:31:18.874Z</time>
      </trkpt>
      <trkpt lat="45.28251" lon="4.17735">
        <ele>673.48</ele>
        <time>2015-10-03T11:31:19.875Z</time>
      </trkpt>
      <trkpt lat="45.28251" lon="4.17736">
        <ele>673.44</ele>
        <time>2015-10-03T11:31:20.878Z</time>
      </trkpt>
      <trkpt lat="45.2825" lon="4.17735">
        <ele>673.48</ele>
        <time>2015-10-03T11:31:24.879Z</time>
      </trkpt>
      <trkpt lat="45.2825" lon="4.17736">
        <ele>673.44</ele>
        <time>2015-10-03T11:31:25.880Z</time>
      </trkpt>
      <trkpt lat="45.2825" lon="4.17736">
        <ele>673.4</ele>
        <time>2015-10-03T11:31:26.878Z</time>
      </trkpt>
      <trkpt lat="45.2825" lon="4.17736">
        <ele>673.36</ele>
        <time>2015-10-03T11:31:29.871Z</time>
      </trkpt>
      <trkpt lat="45.28251" lon="4.17737">
        <ele>673.30769230769</ele>
        <time>2015-10-03T11:31:33.887Z</time>
      </trkpt>
      <trkpt lat="45.28251" lon="4.17737">
        <ele>673.26923076923</ele>
        <time>2015-10-03T11:31:34.884Z</time>
      </trkpt>
      <trkpt lat="45.2825" lon="4.17738">
        <ele>673.32</ele>
        <time>2015-10-03T11:31:37.864Z</time>
      </trkpt>
      <trkpt lat="45.28249" lon="4.1774">
        <ele>673.36</ele>
        <time>2015-10-03T11:31:39.882Z</time>
      </trkpt>
      <trkpt lat="45.28248" lon="4.17741">
        <ele>673.32</ele>
        <time>2015-10-03T11:31:40.898Z</time>
      </trkpt>
      <trkpt lat="45.28248" lon="4.17741">
        <ele>673.36</ele>
        <time>2015-10-03T11:31:41.883Z</time>
      </trkpt>
      <trkpt lat="45.28248" lon="4.17741">
        <ele>673.34615384615</ele>
        <time>2015-10-03T11:31:45.859Z</time>
      </trkpt>
      <trkpt lat="45.28248" lon="4.17741">
        <ele>673.32</ele>
        <time>2015-10-03T11:31:48.877Z</time>
      </trkpt>
      <trkpt lat="45.28249" lon="4.17741">
        <ele>673.26923076923</ele>
        <time>2015-10-03T11:31:52.863Z</time>
      </trkpt>
      <trkpt lat="45.28249" lon="4.17742">
        <ele>673.16</ele>
        <time>2015-10-03T11:31:55.875Z</time>
      </trkpt>
      <trkpt lat="45.28249" lon="4.17742">
        <ele>673.15384615385</ele>
        <time>2015-10-03T11:31:59.882Z</time>
      </trkpt>
      <trkpt lat="45.28249" lon="4.17742">
        <ele>673.04</ele>
        <time>2015-10-03T11:32:03.880Z</time>
      </trkpt>
      <trkpt lat="45.28249" lon="4.17742">
        <ele>673.08</ele>
        <time>2015-10-03T11:32:07.871Z</time>
      </trkpt>
      <trkpt lat="45.28249" lon="4.17742">
        <ele>673.04</ele>
        <time>2015-10-03T11:32:10.885Z</time>
      </trkpt>
      <trkpt lat="45.28249" lon="4.17742">
        <ele>673.04</ele>
        <time>2015-10-03T11:32:14.879Z</time>
      </trkpt>
      <trkpt lat="45.28249" lon="4.17741">
        <ele>673.08</ele>
        <time>2015-10-03T11:32:18.886Z</time>
      </trkpt>
      <trkpt lat="45.2825" lon="4.17741">
        <ele>673.08</ele>
        <time>2015-10-03T11:32:22.873Z</time>
      </trkpt>
      <trkpt lat="45.2825" lon="4.17741">
        <ele>673.15384615385</ele>
        <time>2015-10-03T11:32:25.876Z</time>
      </trkpt>
      <trkpt lat="45.2825" lon="4.17741">
        <ele>673.28</ele>
        <time>2015-10-03T11:32:29.877Z</time>
      </trkpt>
      <trkpt lat="45.2825" lon="4.17741">
        <ele>673.2</ele>
        <time>2015-10-03T11:32:33.879Z</time>
      </trkpt>
      <trkpt lat="45.2825" lon="4.17741">
        <ele>673.24</ele>
        <time>2015-10-03T11:32:37.880Z</time>
      </trkpt>
      <trkpt lat="45.2825" lon="4.17741">
        <ele>673.24</ele>
        <time>2015-10-03T11:32:41.881Z</time>
      </trkpt>
      <trkpt lat="45.2825" lon="4.17741">
        <ele>673.23076923077</ele>
        <time>2015-10-03T11:32:45.864Z</time>
      </trkpt>
      <trkpt lat="45.2825" lon="4.17741">
        <ele>673.44</ele>
        <time>2015-10-03T11:32:48.884Z</time>
      </trkpt>
      <trkpt lat="45.28251" lon="4.17743">
        <ele>673.48</ele>
        <time>2015-10-03T11:32:50.939Z</time>
      </trkpt>
      <trkpt lat="45.28252" lon="4.17743">
        <ele>673.44</ele>
        <time>2015-10-03T11:32:51.956Z</time>
      </trkpt>
      <trkpt lat="45.28252" lon="4.17741">
        <ele>673.44</ele>
        <time>2015-10-03T11:32:52.932Z</time>
      </trkpt>
      <trkpt lat="45.28252" lon="4.17739">
        <ele>673.44</ele>
        <time>2015-10-03T11:32:53.919Z</time>
      </trkpt>
      <trkpt lat="45.2825" lon="4.17738">
        <ele>673.44</ele>
        <time>2015-10-03T11:32:54.917Z</time>
      </trkpt>
      <trkpt lat="45.28249" lon="4.17738">
        <ele>673.44</ele>
        <time>2015-10-03T11:32:55.942Z</time>
      </trkpt>
      <trkpt lat="45.28249" lon="4.17739">
        <ele>673.48</ele>
        <time>2015-10-03T11:32:58.945Z</time>
      </trkpt>
      <trkpt lat="45.28248" lon="4.17739">
        <ele>673.48</ele>
        <time>2015-10-03T11:32:59.957Z</time>
      </trkpt>
      <trkpt lat="45.28247" lon="4.17739">
        <ele>673.44</ele>
        <time>2015-10-03T11:33:00.964Z</time>
      </trkpt>
      <trkpt lat="45.28247" lon="4.17739">
        <ele>673.44</ele>
        <time>2015-10-03T11:33:01.952Z</time>
      </trkpt>
    </trkseg>
  </trk>
</gpx>